<?xml version='1.0' encoding='UTF-8'?><gpx version="1.1" creator="JPX - https://github.com/jenetics/jpx" xmlns="http://www.topografix.com/GPX/1/1"><trk><trkseg><trkpt lat="41.3109553" lon="2.0020385"><ele>35.0</ele><time>2026-04-27T08:19:46.26Z</time></trkpt><trkpt lat="41.3108226" lon="2.0020362"><ele>35.0</ele><time>2026-04-27T08:19:47.283Z</time></trkpt><trkpt lat="41.3104922" lon="2.001758"><ele>35.666666666666664</ele><time>2026-04-27T08:19:48.287Z</time></trkpt><trkpt lat="41.3106501" lon="2.0015968"><ele>36.333333333333336</ele><time>2026-04-27T08:19:49.291Z</time></trkpt><trkpt lat="41.3105156" lon="2.0015104"><ele>37.0</ele><time>2026-04-27T08:19:50.286Z</time></trkpt><trkpt lat="41.3104191" lon="2.0016457"><ele>36.800000000000004</ele><time>2026-04-27T08:19:51.284Z</time></trkpt><trkpt lat="41.3103021" lon="2.0016712"><ele>36.6</ele><time>2026-04-27T08:19:52.286Z</time></trkpt><trkpt lat="41.310187" lon="2.001695"><ele>36.400000000000006</ele><time>2026-04-27T08:19:53.285Z</time></trkpt><trkpt lat="41.3101077" lon="2.001712"><ele>36.2</ele><time>2026-04-27T08:19:54.287Z</time></trkpt><trkpt lat="41.3100315" lon="2.0017321"><ele>36.0</ele><time>2026-04-27T08:19:56.288Z</time></trkpt><trkpt lat="41.309966" lon="2.0017497"><ele>37.666666666666664</ele><time>2026-04-27T08:19:57.291Z</time></trkpt><trkpt lat="41.3102267" lon="2.0016644"><ele>39.33333333333333</ele><time>2026-04-27T08:20:05.29Z</time></trkpt><trkpt lat="41.3103872" lon="2.0016159"><ele>41.0</ele><time>2026-04-27T08:20:06.289Z</time></trkpt><trkpt lat="41.3104625" lon="2.0015934"><ele>39.33333333333333</ele><time>2026-04-27T08:20:07.289Z</time></trkpt><trkpt lat="41.310217" lon="2.0016782"><ele>37.666666666666664</ele><time>2026-04-27T08:20:12.293Z</time></trkpt><trkpt lat="41.3100648" lon="2.0017306"><ele>36.0</ele><time>2026-04-27T08:20:13.294Z</time></trkpt><trkpt lat="41.3099847" lon="2.001755"><ele>36.0</ele><time>2026-04-27T08:20:14.294Z</time></trkpt><trkpt lat="41.3099176" lon="2.0017727"><ele>36.0</ele><time>2026-04-27T08:20:16.295Z</time></trkpt><trkpt lat="41.310147" lon="2.001668"><ele>36.0</ele><time>2026-04-27T08:20:20.297Z</time></trkpt><trkpt lat="41.310252" lon="2.001623"><ele>36.0</ele><time>2026-04-27T08:20:21.295Z</time></trkpt><trkpt lat="41.3103203" lon="2.0015994"><ele>36.0</ele><time>2026-04-27T08:20:22.3Z</time></trkpt><trkpt lat="41.3103276" lon="2.0016995"><ele>36.0</ele><time>2026-04-27T08:20:31.297Z</time></trkpt><trkpt lat="41.3101208" lon="2.0017605"><ele>36.0</ele><time>2026-04-27T08:20:34.301Z</time></trkpt><trkpt lat="41.3100065" lon="2.0017776"><ele>36.0</ele><time>2026-04-27T08:20:35.299Z</time></trkpt><trkpt lat="41.3099141" lon="2.0017899"><ele>36.0</ele><time>2026-04-27T08:20:37.302Z</time></trkpt><trkpt lat="41.3098506" lon="2.0017916"><ele>36.0</ele><time>2026-04-27T08:20:43.295Z</time></trkpt><trkpt lat="41.3099686" lon="2.0017592"><ele>36.0</ele><time>2026-04-27T08:20:55.274Z</time></trkpt><trkpt lat="41.3100542" lon="2.0017324"><ele>36.0</ele><time>2026-04-27T08:20:56.281Z</time></trkpt><trkpt lat="41.3101172" lon="2.0017136"><ele>36.0</ele><time>2026-04-27T08:20:58.281Z</time></trkpt><trkpt lat="41.3100577" lon="2.0017687"><ele>36.0</ele><time>2026-04-27T08:21:15.282Z</time></trkpt><trkpt lat="41.3099833" lon="2.0017889"><ele>36.0</ele><time>2026-04-27T08:21:16.284Z</time></trkpt><trkpt lat="41.3099047" lon="2.0018127"><ele>36.0</ele><time>2026-04-27T08:21:18.299Z</time></trkpt><trkpt lat="41.309987" lon="2.0018086"><ele>36.0</ele><time>2026-04-27T08:21:20.293Z</time></trkpt><trkpt lat="41.31013" lon="2.0018034"><ele>36.0</ele><time>2026-04-27T08:21:24.29Z</time></trkpt><trkpt lat="41.310187" lon="2.0019338"><ele>36.0</ele><time>2026-04-27T08:21:30.294Z</time></trkpt><trkpt lat="41.3102325" lon="2.0020326"><ele>36.0</ele><time>2026-04-27T08:21:32.303Z</time></trkpt><trkpt lat="41.3102295" lon="2.0019128"><ele>36.0</ele><time>2026-04-27T08:21:37.357Z</time></trkpt><trkpt lat="41.3102776" lon="2.0018264"><ele>36.0</ele><time>2026-04-27T08:21:39.36Z</time></trkpt><trkpt lat="41.3103208" lon="2.0016697"><ele>36.0</ele><time>2026-04-27T08:21:41.358Z</time></trkpt><trkpt lat="41.3103352" lon="2.0015752"><ele>36.0</ele><time>2026-04-27T08:21:42.387Z</time></trkpt><trkpt lat="41.3103514" lon="2.0014749"><ele>36.0</ele><time>2026-04-27T08:21:43.347Z</time></trkpt><trkpt lat="41.3103676" lon="2.0013632"><ele>36.833333333333336</ele><time>2026-04-27T08:21:44.351Z</time></trkpt><trkpt lat="41.3103807" lon="2.0012416"><ele>37.666666666666664</ele><time>2026-04-27T08:21:45.354Z</time></trkpt><trkpt lat="41.3103905" lon="2.0011214"><ele>38.5</ele><time>2026-04-27T08:21:46.351Z</time></trkpt><trkpt lat="41.3104032" lon="2.001003"><ele>39.33333333333333</ele><time>2026-04-27T08:21:47.35Z</time></trkpt><trkpt lat="41.3104109" lon="2.0009024"><ele>40.166666666666664</ele><time>2026-04-27T08:21:48.349Z</time></trkpt><trkpt lat="41.3104235" lon="2.0008146"><ele>41.0</ele><time>2026-04-27T08:21:49.349Z</time></trkpt><trkpt lat="41.310434" lon="2.0007262"><ele>41.285714285714285</ele><time>2026-04-27T08:21:50.348Z</time></trkpt><trkpt lat="41.3104451" lon="2.0006379"><ele>41.57142857142857</ele><time>2026-04-27T08:21:51.344Z</time></trkpt><trkpt lat="41.3104547" lon="2.0005457"><ele>41.85714285714286</ele><time>2026-04-27T08:21:52.348Z</time></trkpt><trkpt lat="41.3104688" lon="2.0004477"><ele>42.14285714285714</ele><time>2026-04-27T08:21:53.343Z</time></trkpt><trkpt lat="41.3104847" lon="2.0003522"><ele>42.42857142857143</ele><time>2026-04-27T08:21:54.343Z</time></trkpt><trkpt lat="41.3104992" lon="2.0002559"><ele>42.714285714285715</ele><time>2026-04-27T08:21:55.341Z</time></trkpt><trkpt lat="41.3105127" lon="2.0001474"><ele>43.0</ele><time>2026-04-27T08:21:56.345Z</time></trkpt><trkpt lat="41.3105271" lon="2.0000459"><ele>43.0</ele><time>2026-04-27T08:21:57.353Z</time></trkpt><trkpt lat="41.3105403" lon="1.9999472"><ele>43.0</ele><time>2026-04-27T08:21:58.35Z</time></trkpt><trkpt lat="41.3105514" lon="1.9998432"><ele>43.0</ele><time>2026-04-27T08:21:59.345Z</time></trkpt><trkpt lat="41.3105585" lon="1.9997414"><ele>43.0</ele><time>2026-04-27T08:22:00.346Z</time></trkpt><trkpt lat="41.3105689" lon="1.9996413"><ele>43.0</ele><time>2026-04-27T08:22:01.351Z</time></trkpt><trkpt lat="41.3105837" lon="1.9995344"><ele>43.0</ele><time>2026-04-27T08:22:02.345Z</time></trkpt><trkpt lat="41.3105996" lon="1.9994369"><ele>42.833333333333336</ele><time>2026-04-27T08:22:03.342Z</time></trkpt><trkpt lat="41.3106166" lon="1.9993402"><ele>42.66666666666667</ele><time>2026-04-27T08:22:04.343Z</time></trkpt><trkpt lat="41.3106372" lon="1.9992352"><ele>42.5</ele><time>2026-04-27T08:22:05.343Z</time></trkpt><trkpt lat="41.3106601" lon="1.999123"><ele>42.333333333333336</ele><time>2026-04-27T08:22:06.341Z</time></trkpt><trkpt lat="41.3106908" lon="1.9990149"><ele>42.166666666666664</ele><time>2026-04-27T08:22:07.346Z</time></trkpt><trkpt lat="41.3107163" lon="1.9989123"><ele>42.0</ele><time>2026-04-27T08:22:08.343Z</time></trkpt><trkpt lat="41.3107463" lon="1.9988071"><ele>42.0</ele><time>2026-04-27T08:22:09.349Z</time></trkpt><trkpt lat="41.3107813" lon="1.9987043"><ele>42.0</ele><time>2026-04-27T08:22:10.34Z</time></trkpt><trkpt lat="41.3108184" lon="1.9986019"><ele>42.0</ele><time>2026-04-27T08:22:11.344Z</time></trkpt><trkpt lat="41.3108601" lon="1.9984969"><ele>42.0</ele><time>2026-04-27T08:22:12.356Z</time></trkpt><trkpt lat="41.3109022" lon="1.9983983"><ele>42.0</ele><time>2026-04-27T08:22:13.338Z</time></trkpt><trkpt lat="41.310939" lon="1.9982929"><ele>42.0</ele><time>2026-04-27T08:22:14.345Z</time></trkpt><trkpt lat="41.3109732" lon="1.9981861"><ele>43.0</ele><time>2026-04-27T08:22:15.336Z</time></trkpt><trkpt lat="41.3109956" lon="1.9980782"><ele>44.0</ele><time>2026-04-27T08:22:16.341Z</time></trkpt><trkpt lat="41.3110112" lon="1.9979643"><ele>45.0</ele><time>2026-04-27T08:22:17.34Z</time></trkpt><trkpt lat="41.3110262" lon="1.9978394"><ele>46.0</ele><time>2026-04-27T08:22:18.348Z</time></trkpt><trkpt lat="41.3110373" lon="1.9977182"><ele>47.0</ele><time>2026-04-27T08:22:19.35Z</time></trkpt><trkpt lat="41.3110425" lon="1.9975976"><ele>48.0</ele><time>2026-04-27T08:22:20.344Z</time></trkpt><trkpt lat="41.3110449" lon="1.9974718"><ele>49.2</ele><time>2026-04-27T08:22:21.344Z</time></trkpt><trkpt lat="41.3110468" lon="1.9973395"><ele>50.4</ele><time>2026-04-27T08:22:22.338Z</time></trkpt><trkpt lat="41.3110455" lon="1.9972072"><ele>51.60000000000001</ele><time>2026-04-27T08:22:23.34Z</time></trkpt><trkpt lat="41.3110461" lon="1.9970764"><ele>52.800000000000004</ele><time>2026-04-27T08:22:24.339Z</time></trkpt><trkpt lat="41.311048" lon="1.9969429"><ele>54.0</ele><time>2026-04-27T08:22:25.341Z</time></trkpt><trkpt lat="41.311054" lon="1.9968106"><ele>54.0</ele><time>2026-04-27T08:22:26.34Z</time></trkpt><trkpt lat="41.311049" lon="1.9966781"><ele>54.00000000000001</ele><time>2026-04-27T08:22:27.335Z</time></trkpt><trkpt lat="41.3110465" lon="1.9965394"><ele>54.00000000000001</ele><time>2026-04-27T08:22:28.334Z</time></trkpt><trkpt lat="41.3110535" lon="1.9963948"><ele>54.0</ele><time>2026-04-27T08:22:29.336Z</time></trkpt><trkpt lat="41.311056" lon="1.9962553"><ele>54.0</ele><time>2026-04-27T08:22:30.333Z</time></trkpt><trkpt lat="41.3110555" lon="1.9961063"><ele>54.75</ele><time>2026-04-27T08:22:31.337Z</time></trkpt><trkpt lat="41.3110382" lon="1.9959582"><ele>55.5</ele><time>2026-04-27T08:22:32.339Z</time></trkpt><trkpt lat="41.3110171" lon="1.9958075"><ele>56.25</ele><time>2026-04-27T08:22:33.339Z</time></trkpt><trkpt lat="41.3110014" lon="1.9956512"><ele>57.0</ele><time>2026-04-27T08:22:34.34Z</time></trkpt><trkpt lat="41.3109786" lon="1.9955063"><ele>57.0</ele><time>2026-04-27T08:22:35.341Z</time></trkpt><trkpt lat="41.3109578" lon="1.9953817"><ele>57.0</ele><time>2026-04-27T08:22:36.337Z</time></trkpt><trkpt lat="41.3109375" lon="1.9952712"><ele>57.0</ele><time>2026-04-27T08:22:37.336Z</time></trkpt><trkpt lat="41.3109209" lon="1.9951722"><ele>57.0</ele><time>2026-04-27T08:22:38.345Z</time></trkpt><trkpt lat="41.3108987" lon="1.995071"><ele>57.0</ele><time>2026-04-27T08:22:39.349Z</time></trkpt><trkpt lat="41.3108694" lon="1.9949721"><ele>57.0</ele><time>2026-04-27T08:22:40.342Z</time></trkpt><trkpt lat="41.3108319" lon="1.994863"><ele>57.0</ele><time>2026-04-27T08:22:41.344Z</time></trkpt><trkpt lat="41.3107923" lon="1.9947541"><ele>57.0</ele><time>2026-04-27T08:22:42.348Z</time></trkpt><trkpt lat="41.3107483" lon="1.994644"><ele>57.0</ele><time>2026-04-27T08:22:43.364Z</time></trkpt><trkpt lat="41.3107036" lon="1.9945381"><ele>57.0</ele><time>2026-04-27T08:22:44.351Z</time></trkpt><trkpt lat="41.3106729" lon="1.9944343"><ele>57.0</ele><time>2026-04-27T08:22:45.356Z</time></trkpt><trkpt lat="41.3106573" lon="1.9943335"><ele>57.0</ele><time>2026-04-27T08:22:46.35Z</time></trkpt><trkpt lat="41.310652" lon="1.9942434"><ele>56.8</ele><time>2026-04-27T08:22:47.349Z</time></trkpt><trkpt lat="41.3106384" lon="1.9941029"><ele>56.6</ele><time>2026-04-27T08:22:49.347Z</time></trkpt><trkpt lat="41.3105616" lon="1.9940259"><ele>56.39999999999999</ele><time>2026-04-27T08:22:51.347Z</time></trkpt><trkpt lat="41.3104451" lon="1.9940077"><ele>56.199999999999996</ele><time>2026-04-27T08:22:53.352Z</time></trkpt><trkpt lat="41.3103493" lon="1.9938992"><ele>56.0</ele><time>2026-04-27T08:22:55.359Z</time></trkpt><trkpt lat="41.3103079" lon="1.9938223"><ele>56.50000000000001</ele><time>2026-04-27T08:22:56.353Z</time></trkpt><trkpt lat="41.3102598" lon="1.9937439"><ele>57.0</ele><time>2026-04-27T08:22:57.36Z</time></trkpt><trkpt lat="41.3102114" lon="1.9936558"><ele>57.5</ele><time>2026-04-27T08:22:58.359Z</time></trkpt><trkpt lat="41.3101595" lon="1.993563"><ele>58.0</ele><time>2026-04-27T08:22:59.361Z</time></trkpt><trkpt lat="41.3101063" lon="1.9934604"><ele>58.50000000000001</ele><time>2026-04-27T08:23:00.359Z</time></trkpt><trkpt lat="41.3100532" lon="1.9933672"><ele>59.0</ele><time>2026-04-27T08:23:01.356Z</time></trkpt><trkpt lat="41.3100051" lon="1.9932849"><ele>58.50000000000001</ele><time>2026-04-27T08:23:02.351Z</time></trkpt><trkpt lat="41.3099645" lon="1.9932191"><ele>58.0</ele><time>2026-04-27T08:23:03.353Z</time></trkpt><trkpt lat="41.309891" lon="1.993092"><ele>57.5</ele><time>2026-04-27T08:23:05.359Z</time></trkpt><trkpt lat="41.3098417" lon="1.9930138"><ele>57.0</ele><time>2026-04-27T08:23:06.357Z</time></trkpt><trkpt lat="41.3097886" lon="1.9929324"><ele>56.50000000000001</ele><time>2026-04-27T08:23:07.36Z</time></trkpt><trkpt lat="41.3097374" lon="1.9928446"><ele>56.0</ele><time>2026-04-27T08:23:08.352Z</time></trkpt><trkpt lat="41.3096865" lon="1.9927609"><ele>56.00000000000001</ele><time>2026-04-27T08:23:09.36Z</time></trkpt><trkpt lat="41.3096504" lon="1.992675"><ele>56.0</ele><time>2026-04-27T08:23:10.349Z</time></trkpt><trkpt lat="41.3096204" lon="1.992593"><ele>56.0</ele><time>2026-04-27T08:23:11.354Z</time></trkpt><trkpt lat="41.3095496" lon="1.9924555"><ele>56.0</ele><time>2026-04-27T08:23:13.352Z</time></trkpt><trkpt lat="41.3095098" lon="1.9923879"><ele>56.00000000000001</ele><time>2026-04-27T08:23:14.373Z</time></trkpt><trkpt lat="41.3094661" lon="1.9923156"><ele>56.0</ele><time>2026-04-27T08:23:15.36Z</time></trkpt><trkpt lat="41.3094034" lon="1.9921868"><ele>57.0</ele><time>2026-04-27T08:23:17.341Z</time></trkpt><trkpt lat="41.3093619" lon="1.9921057"><ele>57.99999999999999</ele><time>2026-04-27T08:23:19.355Z</time></trkpt><trkpt lat="41.3092976" lon="1.9920093"><ele>58.99999999999999</ele><time>2026-04-27T08:23:21.35Z</time></trkpt><trkpt lat="41.3092087" lon="1.9918691"><ele>60.0</ele><time>2026-04-27T08:23:23.352Z</time></trkpt><trkpt lat="41.3091525" lon="1.9917762"><ele>61.0</ele><time>2026-04-27T08:23:24.351Z</time></trkpt><trkpt lat="41.3091012" lon="1.9916811"><ele>60.83333333333333</ele><time>2026-04-27T08:23:25.353Z</time></trkpt><trkpt lat="41.309048" lon="1.9915865"><ele>60.666666666666664</ele><time>2026-04-27T08:23:26.357Z</time></trkpt><trkpt lat="41.3089935" lon="1.99149"><ele>60.5</ele><time>2026-04-27T08:23:27.349Z</time></trkpt><trkpt lat="41.3089387" lon="1.9913946"><ele>60.33333333333333</ele><time>2026-04-27T08:23:28.36Z</time></trkpt><trkpt lat="41.3088873" lon="1.9913029"><ele>60.166666666666664</ele><time>2026-04-27T08:23:29.359Z</time></trkpt><trkpt lat="41.3088353" lon="1.9912117"><ele>60.0</ele><time>2026-04-27T08:23:30.362Z</time></trkpt><trkpt lat="41.3087838" lon="1.9911259"><ele>60.0</ele><time>2026-04-27T08:23:31.368Z</time></trkpt><trkpt lat="41.3087353" lon="1.9910467"><ele>60.0</ele><time>2026-04-27T08:23:32.361Z</time></trkpt><trkpt lat="41.3086912" lon="1.9909704"><ele>60.0</ele><time>2026-04-27T08:23:33.357Z</time></trkpt><trkpt lat="41.3086509" lon="1.9908977"><ele>60.0</ele><time>2026-04-27T08:23:34.358Z</time></trkpt><trkpt lat="41.3085961" lon="1.9907494"><ele>60.0</ele><time>2026-04-27T08:23:36.36Z</time></trkpt><trkpt lat="41.3085615" lon="1.9906784"><ele>60.0</ele><time>2026-04-27T08:23:37.364Z</time></trkpt><trkpt lat="41.3085265" lon="1.9905981"><ele>60.5</ele><time>2026-04-27T08:23:38.36Z</time></trkpt><trkpt lat="41.3084913" lon="1.9905112"><ele>61.0</ele><time>2026-04-27T08:23:39.359Z</time></trkpt><trkpt lat="41.3084689" lon="1.9904227"><ele>61.5</ele><time>2026-04-27T08:23:40.353Z</time></trkpt><trkpt lat="41.3084532" lon="1.9903316"><ele>62.0</ele><time>2026-04-27T08:23:41.357Z</time></trkpt><trkpt lat="41.308444" lon="1.9902471"><ele>62.5</ele><time>2026-04-27T08:23:42.348Z</time></trkpt><trkpt lat="41.3084564" lon="1.9900852"><ele>63.0</ele><time>2026-04-27T08:23:44.344Z</time></trkpt><trkpt lat="41.3084759" lon="1.990001"><ele>64.16666666666667</ele><time>2026-04-27T08:23:45.363Z</time></trkpt><trkpt lat="41.3084988" lon="1.9899108"><ele>65.33333333333333</ele><time>2026-04-27T08:23:46.345Z</time></trkpt><trkpt lat="41.3085238" lon="1.9898237"><ele>66.5</ele><time>2026-04-27T08:23:47.348Z</time></trkpt><trkpt lat="41.308546" lon="1.989744"><ele>67.66666666666666</ele><time>2026-04-27T08:23:48.353Z</time></trkpt><trkpt lat="41.3085885" lon="1.9895918"><ele>68.83333333333333</ele><time>2026-04-27T08:23:50.347Z</time></trkpt><trkpt lat="41.3086241" lon="1.9894629"><ele>70.0</ele><time>2026-04-27T08:23:52.352Z</time></trkpt><trkpt lat="41.3086898" lon="1.9894077"><ele>70.0</ele><time>2026-04-27T08:23:54.353Z</time></trkpt><trkpt lat="41.3086158" lon="1.9895443"><ele>70.0</ele><time>2026-04-27T08:24:02.351Z</time></trkpt><trkpt lat="41.3085864" lon="1.9896336"><ele>70.0</ele><time>2026-04-27T08:24:03.346Z</time></trkpt><trkpt lat="41.3085539" lon="1.9897415"><ele>70.0</ele><time>2026-04-27T08:24:04.352Z</time></trkpt><trkpt lat="41.3085245" lon="1.989856"><ele>70.0</ele><time>2026-04-27T08:24:05.347Z</time></trkpt><trkpt lat="41.3084966" lon="1.9899692"><ele>68.83333333333333</ele><time>2026-04-27T08:24:06.346Z</time></trkpt><trkpt lat="41.3084737" lon="1.9900757"><ele>67.66666666666666</ele><time>2026-04-27T08:24:07.344Z</time></trkpt><trkpt lat="41.3084539" lon="1.9901799"><ele>66.5</ele><time>2026-04-27T08:24:08.347Z</time></trkpt><trkpt lat="41.3084408" lon="1.9902858"><ele>65.33333333333333</ele><time>2026-04-27T08:24:09.358Z</time></trkpt><trkpt lat="41.3084449" lon="1.9903982"><ele>64.16666666666667</ele><time>2026-04-27T08:24:10.343Z</time></trkpt><trkpt lat="41.3084587" lon="1.9905109"><ele>63.0</ele><time>2026-04-27T08:24:11.347Z</time></trkpt><trkpt lat="41.3084775" lon="1.9906177"><ele>63.0</ele><time>2026-04-27T08:24:12.345Z</time></trkpt><trkpt lat="41.3084986" lon="1.9907124"><ele>63.0</ele><time>2026-04-27T08:24:13.344Z</time></trkpt><trkpt lat="41.3085241" lon="1.990801"><ele>63.0</ele><time>2026-04-27T08:24:14.343Z</time></trkpt><trkpt lat="41.3085856" lon="1.9909282"><ele>63.0</ele><time>2026-04-27T08:24:16.361Z</time></trkpt><trkpt lat="41.3086352" lon="1.9910193"><ele>63.0</ele><time>2026-04-27T08:24:18.347Z</time></trkpt><trkpt lat="41.3085711" lon="1.991077"><ele>63.0</ele><time>2026-04-27T08:24:21.355Z</time></trkpt><trkpt lat="41.3084717" lon="1.9910135"><ele>62.4</ele><time>2026-04-27T08:24:23.361Z</time></trkpt><trkpt lat="41.3083627" lon="1.9909537"><ele>61.8</ele><time>2026-04-27T08:24:25.356Z</time></trkpt><trkpt lat="41.3083043" lon="1.9909203"><ele>61.2</ele><time>2026-04-27T08:24:26.351Z</time></trkpt><trkpt lat="41.3081857" lon="1.9908566"><ele>60.6</ele><time>2026-04-27T08:24:28.349Z</time></trkpt><trkpt lat="41.3080748" lon="1.9907922"><ele>60.0</ele><time>2026-04-27T08:24:30.35Z</time></trkpt><trkpt lat="41.3079844" lon="1.9906758"><ele>59.0</ele><time>2026-04-27T08:24:32.347Z</time></trkpt><trkpt lat="41.307946" lon="1.9905858"><ele>58.0</ele><time>2026-04-27T08:24:33.35Z</time></trkpt><trkpt lat="41.3079184" lon="1.99048"><ele>57.0</ele><time>2026-04-27T08:24:34.346Z</time></trkpt><trkpt lat="41.3078911" lon="1.9903614"><ele>56.0</ele><time>2026-04-27T08:24:35.35Z</time></trkpt><trkpt lat="41.3078593" lon="1.9902315"><ele>55.0</ele><time>2026-04-27T08:24:36.352Z</time></trkpt><trkpt lat="41.3078233" lon="1.9901081"><ele>56.6</ele><time>2026-04-27T08:24:37.35Z</time></trkpt><trkpt lat="41.3077795" lon="1.9899858"><ele>58.2</ele><time>2026-04-27T08:24:38.355Z</time></trkpt><trkpt lat="41.3077206" lon="1.9898708"><ele>59.8</ele><time>2026-04-27T08:24:39.36Z</time></trkpt><trkpt lat="41.307654" lon="1.9897599"><ele>61.4</ele><time>2026-04-27T08:24:40.348Z</time></trkpt><trkpt lat="41.3075755" lon="1.9896512"><ele>63.0</ele><time>2026-04-27T08:24:41.352Z</time></trkpt><trkpt lat="41.3074864" lon="1.9895466"><ele>63.0</ele><time>2026-04-27T08:24:42.348Z</time></trkpt><trkpt lat="41.3073908" lon="1.9894471"><ele>63.0</ele><time>2026-04-27T08:24:43.35Z</time></trkpt><trkpt lat="41.3072909" lon="1.9893438"><ele>63.0</ele><time>2026-04-27T08:24:44.35Z</time></trkpt><trkpt lat="41.3071841" lon="1.9892424"><ele>63.0</ele><time>2026-04-27T08:24:45.355Z</time></trkpt><trkpt lat="41.307077" lon="1.9891455"><ele>64.25</ele><time>2026-04-27T08:24:46.354Z</time></trkpt><trkpt lat="41.3069762" lon="1.9890501"><ele>65.5</ele><time>2026-04-27T08:24:47.369Z</time></trkpt><trkpt lat="41.3068796" lon="1.9889608"><ele>66.75</ele><time>2026-04-27T08:24:48.355Z</time></trkpt><trkpt lat="41.3067895" lon="1.988875"><ele>68.0</ele><time>2026-04-27T08:24:49.353Z</time></trkpt><trkpt lat="41.3067122" lon="1.988789"><ele>68.0</ele><time>2026-04-27T08:24:50.354Z</time></trkpt><trkpt lat="41.3066495" lon="1.9886935"><ele>68.0</ele><time>2026-04-27T08:24:51.353Z</time></trkpt><trkpt lat="41.3066042" lon="1.988588"><ele>68.0</ele><time>2026-04-27T08:24:52.352Z</time></trkpt><trkpt lat="41.3065737" lon="1.9884724"><ele>68.0</ele><time>2026-04-27T08:24:53.352Z</time></trkpt><trkpt lat="41.306571" lon="1.9883381"><ele>68.0</ele><time>2026-04-27T08:24:54.358Z</time></trkpt><trkpt lat="41.3065983" lon="1.9882018"><ele>69.2</ele><time>2026-04-27T08:24:55.354Z</time></trkpt><trkpt lat="41.3066325" lon="1.9880668"><ele>70.4</ele><time>2026-04-27T08:24:56.356Z</time></trkpt><trkpt lat="41.3066633" lon="1.987929"><ele>71.60000000000001</ele><time>2026-04-27T08:24:57.351Z</time></trkpt><trkpt lat="41.3066936" lon="1.9877935"><ele>72.8</ele><time>2026-04-27T08:24:58.354Z</time></trkpt><trkpt lat="41.3067286" lon="1.9876632"><ele>74.0</ele><time>2026-04-27T08:24:59.356Z</time></trkpt><trkpt lat="41.3067769" lon="1.9875366"><ele>74.2</ele><time>2026-04-27T08:25:00.358Z</time></trkpt><trkpt lat="41.3068362" lon="1.9874222"><ele>74.4</ele><time>2026-04-27T08:25:01.359Z</time></trkpt><trkpt lat="41.3069103" lon="1.9873167"><ele>74.6</ele><time>2026-04-27T08:25:02.353Z</time></trkpt><trkpt lat="41.3069856" lon="1.9872163"><ele>74.8</ele><time>2026-04-27T08:25:03.356Z</time></trkpt><trkpt lat="41.307051" lon="1.9871061"><ele>75.0</ele><time>2026-04-27T08:25:04.354Z</time></trkpt><trkpt lat="41.3071043" lon="1.9869928"><ele>75.0</ele><time>2026-04-27T08:25:05.349Z</time></trkpt><trkpt lat="41.3071413" lon="1.9868706"><ele>75.0</ele><time>2026-04-27T08:25:06.353Z</time></trkpt><trkpt lat="41.3071562" lon="1.986735"><ele>75.0</ele><time>2026-04-27T08:25:07.351Z</time></trkpt><trkpt lat="41.3071608" lon="1.9865857"><ele>75.0</ele><time>2026-04-27T08:25:08.356Z</time></trkpt><trkpt lat="41.3071693" lon="1.9864425"><ele>75.0</ele><time>2026-04-27T08:25:09.357Z</time></trkpt><trkpt lat="41.307179" lon="1.986303"><ele>75.2</ele><time>2026-04-27T08:25:10.354Z</time></trkpt><trkpt lat="41.3071906" lon="1.9861625"><ele>75.4</ele><time>2026-04-27T08:25:11.354Z</time></trkpt><trkpt lat="41.3072014" lon="1.9860243"><ele>75.6</ele><time>2026-04-27T08:25:12.349Z</time></trkpt><trkpt lat="41.3072169" lon="1.9858835"><ele>75.8</ele><time>2026-04-27T08:25:13.352Z</time></trkpt><trkpt lat="41.3072396" lon="1.9857419"><ele>76.0</ele><time>2026-04-27T08:25:14.353Z</time></trkpt><trkpt lat="41.3072704" lon="1.985592"><ele>82.25</ele><time>2026-04-27T08:25:15.351Z</time></trkpt><trkpt lat="41.3073051" lon="1.9854414"><ele>88.5</ele><time>2026-04-27T08:25:16.349Z</time></trkpt><trkpt lat="41.30734" lon="1.985295"><ele>94.75</ele><time>2026-04-27T08:25:17.353Z</time></trkpt><trkpt lat="41.30737" lon="1.9851519"><ele>101.0</ele><time>2026-04-27T08:25:18.37Z</time></trkpt><trkpt lat="41.3073987" lon="1.9850149"><ele>101.4</ele><time>2026-04-27T08:25:19.354Z</time></trkpt><trkpt lat="41.3074232" lon="1.9848726"><ele>101.8</ele><time>2026-04-27T08:25:20.353Z</time></trkpt><trkpt lat="41.3074394" lon="1.9847364"><ele>102.2</ele><time>2026-04-27T08:25:21.352Z</time></trkpt><trkpt lat="41.3074436" lon="1.9846087"><ele>102.60000000000001</ele><time>2026-04-27T08:25:22.35Z</time></trkpt><trkpt lat="41.3074425" lon="1.9844856"><ele>103.0</ele><time>2026-04-27T08:25:23.35Z</time></trkpt><trkpt lat="41.3074389" lon="1.9843706"><ele>103.00000000000001</ele><time>2026-04-27T08:25:24.351Z</time></trkpt><trkpt lat="41.3074417" lon="1.9842662"><ele>103.0</ele><time>2026-04-27T08:25:25.352Z</time></trkpt><trkpt lat="41.3074439" lon="1.9841532"><ele>103.0</ele><time>2026-04-27T08:25:26.353Z</time></trkpt><trkpt lat="41.3074596" lon="1.9840398"><ele>103.0</ele><time>2026-04-27T08:25:27.35Z</time></trkpt><trkpt lat="41.3074947" lon="1.9839292"><ele>103.00000000000001</ele><time>2026-04-27T08:25:28.353Z</time></trkpt><trkpt lat="41.3075513" lon="1.9838222"><ele>103.0</ele><time>2026-04-27T08:25:29.352Z</time></trkpt><trkpt lat="41.3076221" lon="1.9837288"><ele>102.60000000000001</ele><time>2026-04-27T08:25:30.349Z</time></trkpt><trkpt lat="41.3077044" lon="1.983652"><ele>102.2</ele><time>2026-04-27T08:25:31.352Z</time></trkpt><trkpt lat="41.3077945" lon="1.9835871"><ele>101.8</ele><time>2026-04-27T08:25:32.351Z</time></trkpt><trkpt lat="41.307884" lon="1.9835295"><ele>101.4</ele><time>2026-04-27T08:25:33.351Z</time></trkpt><trkpt lat="41.3079701" lon="1.9834743"><ele>101.0</ele><time>2026-04-27T08:25:34.352Z</time></trkpt><trkpt lat="41.3080581" lon="1.9834235"><ele>103.0</ele><time>2026-04-27T08:25:35.352Z</time></trkpt><trkpt lat="41.3081468" lon="1.9833787"><ele>105.0</ele><time>2026-04-27T08:25:36.348Z</time></trkpt><trkpt lat="41.3082342" lon="1.9833396"><ele>107.0</ele><time>2026-04-27T08:25:37.347Z</time></trkpt><trkpt lat="41.3083228" lon="1.9833219"><ele>109.0</ele><time>2026-04-27T08:25:38.349Z</time></trkpt><trkpt lat="41.3084124" lon="1.9833154"><ele>111.0</ele><time>2026-04-27T08:25:39.353Z</time></trkpt><trkpt lat="41.308498" lon="1.983319"><ele>111.0</ele><time>2026-04-27T08:25:40.344Z</time></trkpt><trkpt lat="41.3085853" lon="1.9833196"><ele>111.0</ele><time>2026-04-27T08:25:41.343Z</time></trkpt><trkpt lat="41.3086659" lon="1.9833028"><ele>111.0</ele><time>2026-04-27T08:25:42.343Z</time></trkpt><trkpt lat="41.3087396" lon="1.9832685"><ele>111.0</ele><time>2026-04-27T08:25:43.342Z</time></trkpt><trkpt lat="41.3088057" lon="1.9832047"><ele>111.0</ele><time>2026-04-27T08:25:44.342Z</time></trkpt><trkpt lat="41.3088519" lon="1.9831102"><ele>111.0</ele><time>2026-04-27T08:25:45.344Z</time></trkpt><trkpt lat="41.3088679" lon="1.9830039"><ele>111.0</ele><time>2026-04-27T08:25:46.348Z</time></trkpt><trkpt lat="41.3088406" lon="1.9829046"><ele>111.0</ele><time>2026-04-27T08:25:47.347Z</time></trkpt><trkpt lat="41.308784" lon="1.9828142"><ele>111.0</ele><time>2026-04-27T08:25:48.349Z</time></trkpt><trkpt lat="41.3087164" lon="1.9827311"><ele>111.0</ele><time>2026-04-27T08:25:49.363Z</time></trkpt><trkpt lat="41.308643" lon="1.9826492"><ele>111.0</ele><time>2026-04-27T08:25:50.344Z</time></trkpt><trkpt lat="41.3085669" lon="1.9825671"><ele>110.83333333333333</ele><time>2026-04-27T08:25:51.346Z</time></trkpt><trkpt lat="41.3084987" lon="1.9824849"><ele>110.66666666666666</ele><time>2026-04-27T08:25:52.357Z</time></trkpt><trkpt lat="41.3084285" lon="1.9824023"><ele>110.5</ele><time>2026-04-27T08:25:53.355Z</time></trkpt><trkpt lat="41.3083644" lon="1.9823278"><ele>110.33333333333333</ele><time>2026-04-27T08:25:54.352Z</time></trkpt><trkpt lat="41.3083194" lon="1.9822442"><ele>110.16666666666666</ele><time>2026-04-27T08:25:55.354Z</time></trkpt><trkpt lat="41.3083091" lon="1.9821525"><ele>110.0</ele><time>2026-04-27T08:25:56.355Z</time></trkpt><trkpt lat="41.3083299" lon="1.9820502"><ele>109.99999999999999</ele><time>2026-04-27T08:25:57.35Z</time></trkpt><trkpt lat="41.3083651" lon="1.981953"><ele>110.0</ele><time>2026-04-27T08:25:58.354Z</time></trkpt><trkpt lat="41.3084127" lon="1.9818617"><ele>110.0</ele><time>2026-04-27T08:25:59.351Z</time></trkpt><trkpt lat="41.308468" lon="1.9817761"><ele>110.0</ele><time>2026-04-27T08:26:00.351Z</time></trkpt><trkpt lat="41.3085362" lon="1.981696"><ele>109.99999999999999</ele><time>2026-04-27T08:26:01.352Z</time></trkpt><trkpt lat="41.3086097" lon="1.9816153"><ele>110.0</ele><time>2026-04-27T08:26:02.352Z</time></trkpt><trkpt lat="41.3086889" lon="1.9815362"><ele>110.8</ele><time>2026-04-27T08:26:03.352Z</time></trkpt><trkpt lat="41.3087606" lon="1.9814513"><ele>111.6</ele><time>2026-04-27T08:26:04.347Z</time></trkpt><trkpt lat="41.3088115" lon="1.9813443"><ele>112.4</ele><time>2026-04-27T08:26:05.349Z</time></trkpt><trkpt lat="41.3088386" lon="1.9812294"><ele>113.2</ele><time>2026-04-27T08:26:06.351Z</time></trkpt><trkpt lat="41.3088243" lon="1.9811072"><ele>114.0</ele><time>2026-04-27T08:26:07.348Z</time></trkpt><trkpt lat="41.3087843" lon="1.9809853"><ele>114.0</ele><time>2026-04-27T08:26:08.35Z</time></trkpt><trkpt lat="41.3087425" lon="1.9808696"><ele>114.0</ele><time>2026-04-27T08:26:09.356Z</time></trkpt><trkpt lat="41.3087288" lon="1.9807606"><ele>114.0</ele><time>2026-04-27T08:26:10.353Z</time></trkpt><trkpt lat="41.3087406" lon="1.9806509"><ele>114.0</ele><time>2026-04-27T08:26:11.352Z</time></trkpt><trkpt lat="41.3087779" lon="1.9805447"><ele>114.0</ele><time>2026-04-27T08:26:12.35Z</time></trkpt><trkpt lat="41.3088228" lon="1.9804493"><ele>114.0</ele><time>2026-04-27T08:26:13.349Z</time></trkpt><trkpt lat="41.308883" lon="1.9803619"><ele>118.2</ele><time>2026-04-27T08:26:14.344Z</time></trkpt><trkpt lat="41.3089591" lon="1.9802867"><ele>122.4</ele><time>2026-04-27T08:26:15.348Z</time></trkpt><trkpt lat="41.3090399" lon="1.9802281"><ele>126.6</ele><time>2026-04-27T08:26:16.351Z</time></trkpt><trkpt lat="41.3091296" lon="1.9801737"><ele>130.8</ele><time>2026-04-27T08:26:17.349Z</time></trkpt><trkpt lat="41.3092188" lon="1.9801124"><ele>135.0</ele><time>2026-04-27T08:26:18.35Z</time></trkpt><trkpt lat="41.3092995" lon="1.9800283"><ele>133.6</ele><time>2026-04-27T08:26:19.341Z</time></trkpt><trkpt lat="41.309371" lon="1.9799321"><ele>132.2</ele><time>2026-04-27T08:26:20.374Z</time></trkpt><trkpt lat="41.3094249" lon="1.9798198"><ele>130.8</ele><time>2026-04-27T08:26:21.348Z</time></trkpt><trkpt lat="41.3094467" lon="1.9796887"><ele>129.4</ele><time>2026-04-27T08:26:22.347Z</time></trkpt><trkpt lat="41.3094341" lon="1.979544"><ele>128.0</ele><time>2026-04-27T08:26:23.346Z</time></trkpt><trkpt lat="41.3094067" lon="1.9793904"><ele>128.0</ele><time>2026-04-27T08:26:24.347Z</time></trkpt><trkpt lat="41.3093797" lon="1.9792344"><ele>128.0</ele><time>2026-04-27T08:26:25.347Z</time></trkpt><trkpt lat="41.3093644" lon="1.9790775"><ele>128.0</ele><time>2026-04-27T08:26:26.349Z</time></trkpt><trkpt lat="41.3093573" lon="1.9789244"><ele>128.0</ele><time>2026-04-27T08:26:27.349Z</time></trkpt><trkpt lat="41.3093644" lon="1.9787625"><ele>127.25</ele><time>2026-04-27T08:26:28.35Z</time></trkpt><trkpt lat="41.3093781" lon="1.9786013"><ele>126.5</ele><time>2026-04-27T08:26:29.35Z</time></trkpt><trkpt lat="41.3094038" lon="1.9784402"><ele>125.75</ele><time>2026-04-27T08:26:30.348Z</time></trkpt><trkpt lat="41.309439" lon="1.9782848"><ele>125.0</ele><time>2026-04-27T08:26:31.348Z</time></trkpt><trkpt lat="41.3094779" lon="1.9781337"><ele>125.0</ele><time>2026-04-27T08:26:32.348Z</time></trkpt><trkpt lat="41.3095158" lon="1.9779838"><ele>125.0</ele><time>2026-04-27T08:26:33.349Z</time></trkpt><trkpt lat="41.3095551" lon="1.9778307"><ele>125.0</ele><time>2026-04-27T08:26:34.348Z</time></trkpt><trkpt lat="41.3095898" lon="1.9776774"><ele>125.0</ele><time>2026-04-27T08:26:35.348Z</time></trkpt><trkpt lat="41.3096226" lon="1.9775208"><ele>125.75</ele><time>2026-04-27T08:26:36.347Z</time></trkpt><trkpt lat="41.3096546" lon="1.9773725"><ele>126.5</ele><time>2026-04-27T08:26:37.346Z</time></trkpt><trkpt lat="41.3096877" lon="1.9772198"><ele>127.25</ele><time>2026-04-27T08:26:38.349Z</time></trkpt><trkpt lat="41.3097233" lon="1.9770695"><ele>128.0</ele><time>2026-04-27T08:26:39.352Z</time></trkpt><trkpt lat="41.3097571" lon="1.9769189"><ele>132.4</ele><time>2026-04-27T08:26:40.346Z</time></trkpt><trkpt lat="41.3097923" lon="1.9767778"><ele>136.8</ele><time>2026-04-27T08:26:41.347Z</time></trkpt><trkpt lat="41.3098259" lon="1.9766427"><ele>141.2</ele><time>2026-04-27T08:26:42.351Z</time></trkpt><trkpt lat="41.3098527" lon="1.9765029"><ele>145.6</ele><time>2026-04-27T08:26:43.344Z</time></trkpt><trkpt lat="41.3098796" lon="1.9763669"><ele>150.0</ele><time>2026-04-27T08:26:44.35Z</time></trkpt><trkpt lat="41.3099168" lon="1.9762277"><ele>150.0</ele><time>2026-04-27T08:26:45.35Z</time></trkpt><trkpt lat="41.3099509" lon="1.9760888"><ele>150.0</ele><time>2026-04-27T08:26:46.355Z</time></trkpt><trkpt lat="41.3099799" lon="1.9759519"><ele>150.0</ele><time>2026-04-27T08:26:47.353Z</time></trkpt><trkpt lat="41.3100132" lon="1.9758237"><ele>150.0</ele><time>2026-04-27T08:26:48.358Z</time></trkpt><trkpt lat="41.3100493" lon="1.975695"><ele>150.0</ele><time>2026-04-27T08:26:49.353Z</time></trkpt><trkpt lat="41.3100947" lon="1.9755753"><ele>151.0</ele><time>2026-04-27T08:26:50.369Z</time></trkpt><trkpt lat="41.3101525" lon="1.9754628"><ele>152.0</ele><time>2026-04-27T08:26:51.35Z</time></trkpt><trkpt lat="41.3102185" lon="1.9753605"><ele>153.0</ele><time>2026-04-27T08:26:52.352Z</time></trkpt><trkpt lat="41.3102914" lon="1.9752835"><ele>154.0</ele><time>2026-04-27T08:26:53.355Z</time></trkpt><trkpt lat="41.3103773" lon="1.975223"><ele>155.0</ele><time>2026-04-27T08:26:54.36Z</time></trkpt><trkpt lat="41.3104652" lon="1.9751743"><ele>155.0</ele><time>2026-04-27T08:26:55.351Z</time></trkpt><trkpt lat="41.3105523" lon="1.9751318"><ele>155.0</ele><time>2026-04-27T08:26:56.354Z</time></trkpt><trkpt lat="41.3106425" lon="1.9750942"><ele>155.0</ele><time>2026-04-27T08:26:57.347Z</time></trkpt><trkpt lat="41.3107276" lon="1.9750534"><ele>155.0</ele><time>2026-04-27T08:26:58.352Z</time></trkpt><trkpt lat="41.3108107" lon="1.9749998"><ele>155.0</ele><time>2026-04-27T08:26:59.353Z</time></trkpt><trkpt lat="41.3108854" lon="1.9749306"><ele>157.0</ele><time>2026-04-27T08:27:00.347Z</time></trkpt><trkpt lat="41.3109534" lon="1.9748432"><ele>159.0</ele><time>2026-04-27T08:27:01.343Z</time></trkpt><trkpt lat="41.3110095" lon="1.9747466"><ele>161.0</ele><time>2026-04-27T08:27:02.349Z</time></trkpt><trkpt lat="41.3110592" lon="1.9746386"><ele>163.0</ele><time>2026-04-27T08:27:03.35Z</time></trkpt><trkpt lat="41.3110978" lon="1.974522"><ele>165.0</ele><time>2026-04-27T08:27:04.35Z</time></trkpt><trkpt lat="41.3111259" lon="1.9744057"><ele>165.0</ele><time>2026-04-27T08:27:05.345Z</time></trkpt><trkpt lat="41.311147" lon="1.9742823"><ele>165.0</ele><time>2026-04-27T08:27:06.351Z</time></trkpt><trkpt lat="41.3111645" lon="1.9741575"><ele>165.0</ele><time>2026-04-27T08:27:07.351Z</time></trkpt><trkpt lat="41.3111836" lon="1.9740284"><ele>165.0</ele><time>2026-04-27T08:27:08.348Z</time></trkpt><trkpt lat="41.311203" lon="1.9738932"><ele>165.0</ele><time>2026-04-27T08:27:09.363Z</time></trkpt><trkpt lat="41.3112201" lon="1.9737518"><ele>162.8</ele><time>2026-04-27T08:27:10.352Z</time></trkpt><trkpt lat="41.3112396" lon="1.973616"><ele>160.6</ele><time>2026-04-27T08:27:11.349Z</time></trkpt><trkpt lat="41.3112634" lon="1.9734798"><ele>158.4</ele><time>2026-04-27T08:27:12.355Z</time></trkpt><trkpt lat="41.311289" lon="1.9733388"><ele>156.2</ele><time>2026-04-27T08:27:13.352Z</time></trkpt><trkpt lat="41.3113182" lon="1.9731976"><ele>154.0</ele><time>2026-04-27T08:27:14.354Z</time></trkpt><trkpt lat="41.3113476" lon="1.9730651"><ele>153.4</ele><time>2026-04-27T08:27:15.353Z</time></trkpt><trkpt lat="41.3113892" lon="1.9729565"><ele>152.8</ele><time>2026-04-27T08:27:16.355Z</time></trkpt><trkpt lat="41.3114496" lon="1.9728657"><ele>152.2</ele><time>2026-04-27T08:27:17.357Z</time></trkpt><trkpt lat="41.3115331" lon="1.9728047"><ele>151.6</ele><time>2026-04-27T08:27:18.353Z</time></trkpt><trkpt lat="41.3116294" lon="1.9727593"><ele>151.0</ele><time>2026-04-27T08:27:19.355Z</time></trkpt><trkpt lat="41.3117248" lon="1.9727056"><ele>154.8</ele><time>2026-04-27T08:27:20.356Z</time></trkpt><trkpt lat="41.3118087" lon="1.9726239"><ele>158.6</ele><time>2026-04-27T08:27:21.377Z</time></trkpt><trkpt lat="41.3118719" lon="1.9725101"><ele>162.4</ele><time>2026-04-27T08:27:22.356Z</time></trkpt><trkpt lat="41.3119192" lon="1.9723824"><ele>166.2</ele><time>2026-04-27T08:27:23.354Z</time></trkpt><trkpt lat="41.3119646" lon="1.9722439"><ele>170.0</ele><time>2026-04-27T08:27:24.354Z</time></trkpt><trkpt lat="41.3120079" lon="1.9721033"><ele>170.0</ele><time>2026-04-27T08:27:25.353Z</time></trkpt><trkpt lat="41.3120524" lon="1.971963"><ele>170.0</ele><time>2026-04-27T08:27:26.349Z</time></trkpt><trkpt lat="41.3121002" lon="1.9718272"><ele>170.0</ele><time>2026-04-27T08:27:27.35Z</time></trkpt><trkpt lat="41.3121541" lon="1.9716944"><ele>170.0</ele><time>2026-04-27T08:27:28.347Z</time></trkpt><trkpt lat="41.3122085" lon="1.9715649"><ele>173.0</ele><time>2026-04-27T08:27:29.353Z</time></trkpt><trkpt lat="41.3122671" lon="1.971441"><ele>176.0</ele><time>2026-04-27T08:27:30.351Z</time></trkpt><trkpt lat="41.3123257" lon="1.9713208"><ele>179.0</ele><time>2026-04-27T08:27:31.352Z</time></trkpt><trkpt lat="41.3123845" lon="1.9712013"><ele>182.0</ele><time>2026-04-27T08:27:32.351Z</time></trkpt><trkpt lat="41.3124458" lon="1.9710832"><ele>185.0</ele><time>2026-04-27T08:27:33.353Z</time></trkpt><trkpt lat="41.3125082" lon="1.9709611"><ele>185.0</ele><time>2026-04-27T08:27:34.348Z</time></trkpt><trkpt lat="41.3125656" lon="1.9708393"><ele>185.0</ele><time>2026-04-27T08:27:35.349Z</time></trkpt><trkpt lat="41.3126218" lon="1.9707153"><ele>185.0</ele><time>2026-04-27T08:27:36.349Z</time></trkpt><trkpt lat="41.3126755" lon="1.9705788"><ele>185.0</ele><time>2026-04-27T08:27:37.347Z</time></trkpt><trkpt lat="41.3127267" lon="1.9704464"><ele>185.0</ele><time>2026-04-27T08:27:38.351Z</time></trkpt><trkpt lat="41.3127797" lon="1.9703104"><ele>185.0</ele><time>2026-04-27T08:27:39.358Z</time></trkpt><trkpt lat="41.3128337" lon="1.9701763"><ele>185.0</ele><time>2026-04-27T08:27:40.355Z</time></trkpt><trkpt lat="41.3128875" lon="1.9700461"><ele>185.0</ele><time>2026-04-27T08:27:41.352Z</time></trkpt><trkpt lat="41.3129412" lon="1.9699167"><ele>185.0</ele><time>2026-04-27T08:27:42.353Z</time></trkpt><trkpt lat="41.312993" lon="1.969786"><ele>185.0</ele><time>2026-04-27T08:27:43.354Z</time></trkpt><trkpt lat="41.313043" lon="1.9696553"><ele>185.0</ele><time>2026-04-27T08:27:44.356Z</time></trkpt><trkpt lat="41.3130924" lon="1.9695271"><ele>185.0</ele><time>2026-04-27T08:27:45.349Z</time></trkpt><trkpt lat="41.313143" lon="1.9693965"><ele>185.0</ele><time>2026-04-27T08:27:46.36Z</time></trkpt><trkpt lat="41.3131943" lon="1.9692711"><ele>185.0</ele><time>2026-04-27T08:27:47.357Z</time></trkpt><trkpt lat="41.3132455" lon="1.9691473"><ele>185.0</ele><time>2026-04-27T08:27:48.347Z</time></trkpt><trkpt lat="41.313294" lon="1.9690259"><ele>186.8</ele><time>2026-04-27T08:27:49.357Z</time></trkpt><trkpt lat="41.313341" lon="1.9689048"><ele>188.6</ele><time>2026-04-27T08:27:50.355Z</time></trkpt><trkpt lat="41.3133885" lon="1.968785"><ele>190.39999999999998</ele><time>2026-04-27T08:27:51.354Z</time></trkpt><trkpt lat="41.3134344" lon="1.9686662"><ele>192.2</ele><time>2026-04-27T08:27:52.37Z</time></trkpt><trkpt lat="41.3134821" lon="1.9685505"><ele>194.0</ele><time>2026-04-27T08:27:53.352Z</time></trkpt><trkpt lat="41.31353" lon="1.9684356"><ele>195.79999999999998</ele><time>2026-04-27T08:27:54.354Z</time></trkpt><trkpt lat="41.3135782" lon="1.9683216"><ele>197.6</ele><time>2026-04-27T08:27:55.359Z</time></trkpt><trkpt lat="41.3136243" lon="1.968212"><ele>199.4</ele><time>2026-04-27T08:27:56.357Z</time></trkpt><trkpt lat="41.3136663" lon="1.968097"><ele>201.2</ele><time>2026-04-27T08:27:57.348Z</time></trkpt><trkpt lat="41.3137015" lon="1.9679829"><ele>203.0</ele><time>2026-04-27T08:27:58.352Z</time></trkpt><trkpt lat="41.3137271" lon="1.9678652"><ele>203.00000000000003</ele><time>2026-04-27T08:27:59.356Z</time></trkpt><trkpt lat="41.3137392" lon="1.967741"><ele>203.0</ele><time>2026-04-27T08:28:00.349Z</time></trkpt><trkpt lat="41.3137403" lon="1.967625"><ele>203.0</ele><time>2026-04-27T08:28:01.348Z</time></trkpt><trkpt lat="41.3137386" lon="1.9675107"><ele>203.0</ele><time>2026-04-27T08:28:02.349Z</time></trkpt><trkpt lat="41.3137356" lon="1.967407"><ele>203.00000000000003</ele><time>2026-04-27T08:28:03.343Z</time></trkpt><trkpt lat="41.3137291" lon="1.9672928"><ele>203.0</ele><time>2026-04-27T08:28:04.348Z</time></trkpt><trkpt lat="41.3137187" lon="1.9671705"><ele>203.0</ele><time>2026-04-27T08:28:05.351Z</time></trkpt><trkpt lat="41.31372" lon="1.9670341"><ele>203.0</ele><time>2026-04-27T08:28:06.35Z</time></trkpt><trkpt lat="41.3137346" lon="1.9669002"><ele>203.0</ele><time>2026-04-27T08:28:07.355Z</time></trkpt><trkpt lat="41.3137573" lon="1.9667637"><ele>203.0</ele><time>2026-04-27T08:28:08.356Z</time></trkpt><trkpt lat="41.3137905" lon="1.9666418"><ele>203.0</ele><time>2026-04-27T08:28:09.361Z</time></trkpt><trkpt lat="41.313833" lon="1.9665304"><ele>203.00000000000003</ele><time>2026-04-27T08:28:10.35Z</time></trkpt><trkpt lat="41.3138891" lon="1.9664322"><ele>203.0</ele><time>2026-04-27T08:28:11.347Z</time></trkpt><trkpt lat="41.3139537" lon="1.9663394"><ele>203.0</ele><time>2026-04-27T08:28:12.352Z</time></trkpt><trkpt lat="41.3140203" lon="1.9662561"><ele>203.0</ele><time>2026-04-27T08:28:13.351Z</time></trkpt><trkpt lat="41.3140875" lon="1.9661806"><ele>203.00000000000003</ele><time>2026-04-27T08:28:14.354Z</time></trkpt><trkpt lat="41.3141486" lon="1.96611"><ele>203.0</ele><time>2026-04-27T08:28:15.354Z</time></trkpt><trkpt lat="41.3142062" lon="1.9660386"><ele>205.83333333333334</ele><time>2026-04-27T08:28:16.35Z</time></trkpt><trkpt lat="41.3142565" lon="1.9659781"><ele>208.66666666666669</ele><time>2026-04-27T08:28:17.348Z</time></trkpt><trkpt lat="41.3143328" lon="1.9658882"><ele>211.5</ele><time>2026-04-27T08:28:19.35Z</time></trkpt><trkpt lat="41.3143321" lon="1.9657874"><ele>214.33333333333331</ele><time>2026-04-27T08:28:29.348Z</time></trkpt><trkpt lat="41.3142811" lon="1.9658561"><ele>217.16666666666666</ele><time>2026-04-27T08:28:38.36Z</time></trkpt><trkpt lat="41.3142668" lon="1.9659416"><ele>220.0</ele><time>2026-04-27T08:28:44.356Z</time></trkpt><trkpt lat="41.3142388" lon="1.9660594"><ele>221.66666666666666</ele><time>2026-04-27T08:28:50.355Z</time></trkpt><trkpt lat="41.3141794" lon="1.9661446"><ele>223.33333333333331</ele><time>2026-04-27T08:28:52.357Z</time></trkpt><trkpt lat="41.3141477" lon="1.9662273"><ele>225.0</ele><time>2026-04-27T08:28:54.363Z</time></trkpt><trkpt lat="41.314197" lon="1.9663152"><ele>226.66666666666669</ele><time>2026-04-27T08:28:57.35Z</time></trkpt><trkpt lat="41.3142632" lon="1.9662852"><ele>228.33333333333334</ele><time>2026-04-27T08:29:01.355Z</time></trkpt><trkpt lat="41.3142649" lon="1.9661865"><ele>230.0</ele><time>2026-04-27T08:29:23.356Z</time></trkpt><trkpt lat="41.314221" lon="1.9661108"><ele>230.00000000000003</ele><time>2026-04-27T08:35:46.394Z</time></trkpt><trkpt lat="41.3141375" lon="1.9660979"><ele>230.0</ele><time>2026-04-27T08:35:48.371Z</time></trkpt><trkpt lat="41.3140788" lon="1.966169"><ele>230.0</ele><time>2026-04-27T08:35:51.391Z</time></trkpt><trkpt lat="41.3141626" lon="1.9661601"><ele>230.0</ele><time>2026-04-27T08:37:49.396Z</time></trkpt><trkpt lat="41.3141788" lon="1.9660553"><ele>230.00000000000003</ele><time>2026-04-27T08:42:31.393Z</time></trkpt><trkpt lat="41.314227" lon="1.9659252"><ele>230.0</ele><time>2026-04-27T08:42:34.397Z</time></trkpt><trkpt lat="41.3143208" lon="1.9658192"><ele>228.33333333333334</ele><time>2026-04-27T08:42:36.404Z</time></trkpt><trkpt lat="41.3143702" lon="1.9657636"><ele>226.66666666666669</ele><time>2026-04-27T08:42:37.403Z</time></trkpt><trkpt lat="41.3144195" lon="1.9656986"><ele>225.0</ele><time>2026-04-27T08:42:38.4Z</time></trkpt><trkpt lat="41.3144691" lon="1.9656379"><ele>223.33333333333331</ele><time>2026-04-27T08:42:39.399Z</time></trkpt><trkpt lat="41.3145482" lon="1.9655205"><ele>221.66666666666666</ele><time>2026-04-27T08:42:41.408Z</time></trkpt><trkpt lat="41.3146234" lon="1.9653913"><ele>220.0</ele><time>2026-04-27T08:42:43.408Z</time></trkpt><trkpt lat="41.3146929" lon="1.9652623"><ele>219.99999999999997</ele><time>2026-04-27T08:42:45.399Z</time></trkpt><trkpt lat="41.3147155" lon="1.9651838"><ele>220.0</ele><time>2026-04-27T08:42:46.395Z</time></trkpt><trkpt lat="41.3147284" lon="1.9650927"><ele>220.0</ele><time>2026-04-27T08:42:47.398Z</time></trkpt><trkpt lat="41.3147385" lon="1.9650098"><ele>220.0</ele><time>2026-04-27T08:42:48.416Z</time></trkpt><trkpt lat="41.3147299" lon="1.9649153"><ele>220.0</ele><time>2026-04-27T08:42:49.397Z</time></trkpt><trkpt lat="41.3147124" lon="1.9648177"><ele>219.99999999999997</ele><time>2026-04-27T08:42:50.396Z</time></trkpt><trkpt lat="41.3146942" lon="1.9647198"><ele>220.0</ele><time>2026-04-27T08:42:51.396Z</time></trkpt><trkpt lat="41.3146791" lon="1.9646253"><ele>218.33333333333331</ele><time>2026-04-27T08:42:52.4Z</time></trkpt><trkpt lat="41.3146747" lon="1.9645342"><ele>216.66666666666666</ele><time>2026-04-27T08:42:53.399Z</time></trkpt><trkpt lat="41.3146725" lon="1.9644405"><ele>215.0</ele><time>2026-04-27T08:42:54.394Z</time></trkpt><trkpt lat="41.3146764" lon="1.9643452"><ele>213.33333333333331</ele><time>2026-04-27T08:42:55.399Z</time></trkpt><trkpt lat="41.3146858" lon="1.964244"><ele>211.66666666666666</ele><time>2026-04-27T08:42:56.4Z</time></trkpt><trkpt lat="41.3147043" lon="1.9641363"><ele>210.0</ele><time>2026-04-27T08:42:57.4Z</time></trkpt><trkpt lat="41.3147148" lon="1.9640258"><ele>209.33333333333334</ele><time>2026-04-27T08:42:58.399Z</time></trkpt><trkpt lat="41.3147302" lon="1.9639198"><ele>208.66666666666669</ele><time>2026-04-27T08:42:59.403Z</time></trkpt><trkpt lat="41.3147505" lon="1.9638274"><ele>208.0</ele><time>2026-04-27T08:43:00.395Z</time></trkpt><trkpt lat="41.3147694" lon="1.9637337"><ele>207.33333333333334</ele><time>2026-04-27T08:43:01.396Z</time></trkpt><trkpt lat="41.3147845" lon="1.9636265"><ele>206.66666666666669</ele><time>2026-04-27T08:43:02.397Z</time></trkpt><trkpt lat="41.3147923" lon="1.9635289"><ele>206.0</ele><time>2026-04-27T08:43:03.395Z</time></trkpt><trkpt lat="41.3147993" lon="1.963431"><ele>212.83333333333334</ele><time>2026-04-27T08:43:04.397Z</time></trkpt><trkpt lat="41.3147995" lon="1.9633332"><ele>219.66666666666669</ele><time>2026-04-27T08:43:05.399Z</time></trkpt><trkpt lat="41.3147945" lon="1.9632355"><ele>226.5</ele><time>2026-04-27T08:43:06.402Z</time></trkpt><trkpt lat="41.3147838" lon="1.9631352"><ele>233.33333333333331</ele><time>2026-04-27T08:43:07.401Z</time></trkpt><trkpt lat="41.314772" lon="1.9630278"><ele>240.16666666666666</ele><time>2026-04-27T08:43:08.402Z</time></trkpt><trkpt lat="41.3147562" lon="1.9629126"><ele>247.0</ele><time>2026-04-27T08:43:09.402Z</time></trkpt><trkpt lat="41.3147442" lon="1.9627869"><ele>246.8</ele><time>2026-04-27T08:43:10.4Z</time></trkpt><trkpt lat="41.3147367" lon="1.962655"><ele>246.6</ele><time>2026-04-27T08:43:11.402Z</time></trkpt><trkpt lat="41.3147324" lon="1.962526"><ele>246.40000000000003</ele><time>2026-04-27T08:43:12.402Z</time></trkpt><trkpt lat="41.314736" lon="1.9623926"><ele>246.20000000000002</ele><time>2026-04-27T08:43:13.402Z</time></trkpt><trkpt lat="41.3147456" lon="1.9622625"><ele>246.0</ele><time>2026-04-27T08:43:14.402Z</time></trkpt><trkpt lat="41.3147558" lon="1.9621281"><ele>246.0</ele><time>2026-04-27T08:43:15.406Z</time></trkpt><trkpt lat="41.3147667" lon="1.961992"><ele>246.00000000000003</ele><time>2026-04-27T08:43:16.405Z</time></trkpt><trkpt lat="41.3147773" lon="1.9618616"><ele>246.00000000000003</ele><time>2026-04-27T08:43:17.398Z</time></trkpt><trkpt lat="41.314792" lon="1.9617138"><ele>246.0</ele><time>2026-04-27T08:43:18.404Z</time></trkpt><trkpt lat="41.3148008" lon="1.961578"><ele>246.0</ele><time>2026-04-27T08:43:19.414Z</time></trkpt><trkpt lat="41.3148067" lon="1.9614363"><ele>245.8</ele><time>2026-04-27T08:43:20.406Z</time></trkpt><trkpt lat="41.314806" lon="1.9612957"><ele>245.60000000000002</ele><time>2026-04-27T08:43:21.405Z</time></trkpt><trkpt lat="41.3148072" lon="1.9611602"><ele>245.4</ele><time>2026-04-27T08:43:22.409Z</time></trkpt><trkpt lat="41.314818" lon="1.9610242"><ele>245.2</ele><time>2026-04-27T08:43:23.408Z</time></trkpt><trkpt lat="41.3148328" lon="1.9608858"><ele>245.0</ele><time>2026-04-27T08:43:24.402Z</time></trkpt><trkpt lat="41.3148617" lon="1.9607632"><ele>245.0</ele><time>2026-04-27T08:43:25.401Z</time></trkpt><trkpt lat="41.3149074" lon="1.9606463"><ele>245.0</ele><time>2026-04-27T08:43:26.403Z</time></trkpt><trkpt lat="41.3149629" lon="1.9605269"><ele>245.0</ele><time>2026-04-27T08:43:27.398Z</time></trkpt><trkpt lat="41.3150178" lon="1.9604051"><ele>245.0</ele><time>2026-04-27T08:43:28.394Z</time></trkpt><trkpt lat="41.3150645" lon="1.9602915"><ele>245.0</ele><time>2026-04-27T08:43:29.398Z</time></trkpt><trkpt lat="41.315107" lon="1.9601806"><ele>245.0</ele><time>2026-04-27T08:43:30.401Z</time></trkpt><trkpt lat="41.3151482" lon="1.9600616"><ele>245.0</ele><time>2026-04-27T08:43:31.399Z</time></trkpt><trkpt lat="41.3151894" lon="1.9599494"><ele>245.0</ele><time>2026-04-27T08:43:32.401Z</time></trkpt><trkpt lat="41.3152414" lon="1.959838"><ele>245.0</ele><time>2026-04-27T08:43:33.405Z</time></trkpt><trkpt lat="41.315312" lon="1.9597434"><ele>245.0</ele><time>2026-04-27T08:43:34.398Z</time></trkpt><trkpt lat="41.3153918" lon="1.9596786"><ele>246.0</ele><time>2026-04-27T08:43:35.406Z</time></trkpt><trkpt lat="41.3154902" lon="1.9596442"><ele>247.0</ele><time>2026-04-27T08:43:36.394Z</time></trkpt><trkpt lat="41.3155863" lon="1.9596028"><ele>248.0</ele><time>2026-04-27T08:43:37.397Z</time></trkpt><trkpt lat="41.3156714" lon="1.959547"><ele>249.0</ele><time>2026-04-27T08:43:38.396Z</time></trkpt><trkpt lat="41.3157448" lon="1.9594743"><ele>250.0</ele><time>2026-04-27T08:43:39.405Z</time></trkpt><trkpt lat="41.3157986" lon="1.9593823"><ele>250.0</ele><time>2026-04-27T08:43:40.395Z</time></trkpt><trkpt lat="41.3158227" lon="1.959278"><ele>250.0</ele><time>2026-04-27T08:43:41.391Z</time></trkpt><trkpt lat="41.3158384" lon="1.9591752"><ele>250.0</ele><time>2026-04-27T08:43:42.399Z</time></trkpt><trkpt lat="41.3158375" lon="1.9590503"><ele>250.0</ele><time>2026-04-27T08:43:43.403Z</time></trkpt><trkpt lat="41.3158369" lon="1.95892"><ele>250.0</ele><time>2026-04-27T08:43:44.41Z</time></trkpt><trkpt lat="41.3158416" lon="1.9587871"><ele>250.83333333333331</ele><time>2026-04-27T08:43:45.392Z</time></trkpt><trkpt lat="41.3158525" lon="1.9586596"><ele>251.66666666666666</ele><time>2026-04-27T08:43:46.411Z</time></trkpt><trkpt lat="41.3158643" lon="1.9585464"><ele>252.5</ele><time>2026-04-27T08:43:47.405Z</time></trkpt><trkpt lat="41.3158723" lon="1.9584344"><ele>253.33333333333331</ele><time>2026-04-27T08:43:48.398Z</time></trkpt><trkpt lat="41.3158714" lon="1.9583278"><ele>254.16666666666666</ele><time>2026-04-27T08:43:49.402Z</time></trkpt><trkpt lat="41.3158511" lon="1.9582236"><ele>255.0</ele><time>2026-04-27T08:43:50.404Z</time></trkpt><trkpt lat="41.3158259" lon="1.9581208"><ele>255.66666666666666</ele><time>2026-04-27T08:43:51.392Z</time></trkpt><trkpt lat="41.3157783" lon="1.9580304"><ele>256.3333333333333</ele><time>2026-04-27T08:43:52.39Z</time></trkpt><trkpt lat="41.3157259" lon="1.9579375"><ele>257.0</ele><time>2026-04-27T08:43:53.396Z</time></trkpt><trkpt lat="41.3156791" lon="1.957837"><ele>257.66666666666663</ele><time>2026-04-27T08:43:54.391Z</time></trkpt><trkpt lat="41.3156458" lon="1.9577295"><ele>258.3333333333333</ele><time>2026-04-27T08:43:55.395Z</time></trkpt><trkpt lat="41.3156266" lon="1.9576121"><ele>259.0</ele><time>2026-04-27T08:43:56.393Z</time></trkpt><trkpt lat="41.3156258" lon="1.9574854"><ele>259.8</ele><time>2026-04-27T08:43:57.39Z</time></trkpt><trkpt lat="41.3156493" lon="1.9573662"><ele>260.59999999999997</ele><time>2026-04-27T08:43:58.392Z</time></trkpt><trkpt lat="41.3156881" lon="1.957247"><ele>261.4</ele><time>2026-04-27T08:43:59.391Z</time></trkpt><trkpt lat="41.3157369" lon="1.9571324"><ele>262.2</ele><time>2026-04-27T08:44:00.391Z</time></trkpt><trkpt lat="41.3157934" lon="1.9570288"><ele>263.0</ele><time>2026-04-27T08:44:01.394Z</time></trkpt><trkpt lat="41.3158564" lon="1.9569264"><ele>263.0</ele><time>2026-04-27T08:44:02.394Z</time></trkpt><trkpt lat="41.3159179" lon="1.9568241"><ele>263.0</ele><time>2026-04-27T08:44:03.395Z</time></trkpt><trkpt lat="41.3159791" lon="1.9567205"><ele>263.0</ele><time>2026-04-27T08:44:04.398Z</time></trkpt><trkpt lat="41.3160365" lon="1.9566137"><ele>263.0</ele><time>2026-04-27T08:44:05.399Z</time></trkpt><trkpt lat="41.3160947" lon="1.956508"><ele>263.0</ele><time>2026-04-27T08:44:06.397Z</time></trkpt><trkpt lat="41.3161509" lon="1.956401"><ele>266.2</ele><time>2026-04-27T08:44:07.393Z</time></trkpt><trkpt lat="41.3161988" lon="1.9562917"><ele>269.4</ele><time>2026-04-27T08:44:08.396Z</time></trkpt><trkpt lat="41.3162476" lon="1.9561796"><ele>272.59999999999997</ele><time>2026-04-27T08:44:09.397Z</time></trkpt><trkpt lat="41.3162909" lon="1.9560692"><ele>275.8</ele><time>2026-04-27T08:44:10.398Z</time></trkpt><trkpt lat="41.3163299" lon="1.9559551"><ele>279.0</ele><time>2026-04-27T08:44:11.402Z</time></trkpt><trkpt lat="41.31636" lon="1.9558331"><ele>276.59999999999997</ele><time>2026-04-27T08:44:12.401Z</time></trkpt><trkpt lat="41.3163869" lon="1.9557088"><ele>274.2</ele><time>2026-04-27T08:44:13.403Z</time></trkpt><trkpt lat="41.3164129" lon="1.9555872"><ele>271.79999999999995</ele><time>2026-04-27T08:44:14.402Z</time></trkpt><trkpt lat="41.3164404" lon="1.9554644"><ele>269.4</ele><time>2026-04-27T08:44:15.401Z</time></trkpt><trkpt lat="41.3164761" lon="1.9553467"><ele>267.0</ele><time>2026-04-27T08:44:16.4Z</time></trkpt><trkpt lat="41.3165183" lon="1.9552299"><ele>267.0</ele><time>2026-04-27T08:44:17.4Z</time></trkpt><trkpt lat="41.3165623" lon="1.955119"><ele>267.0</ele><time>2026-04-27T08:44:18.403Z</time></trkpt><trkpt lat="41.3166065" lon="1.9550165"><ele>267.0</ele><time>2026-04-27T08:44:19.405Z</time></trkpt><trkpt lat="41.3166584" lon="1.9549159"><ele>267.0</ele><time>2026-04-27T08:44:20.401Z</time></trkpt><trkpt lat="41.3167133" lon="1.9548376"><ele>267.0</ele><time>2026-04-27T08:44:21.408Z</time></trkpt><trkpt lat="41.3167765" lon="1.9547831"><ele>267.0</ele><time>2026-04-27T08:44:22.397Z</time></trkpt><trkpt lat="41.3168418" lon="1.9547553"><ele>267.0</ele><time>2026-04-27T08:44:23.4Z</time></trkpt><trkpt lat="41.3169158" lon="1.9548051"><ele>267.0</ele><time>2026-04-27T08:44:24.397Z</time></trkpt><trkpt lat="41.3169795" lon="1.9549057"><ele>267.0</ele><time>2026-04-27T08:44:25.391Z</time></trkpt><trkpt lat="41.317036" lon="1.9550266"><ele>267.0</ele><time>2026-04-27T08:44:26.391Z</time></trkpt><trkpt lat="41.317091" lon="1.9551487"><ele>267.0</ele><time>2026-04-27T08:44:27.394Z</time></trkpt><trkpt lat="41.3171513" lon="1.9552592"><ele>267.0</ele><time>2026-04-27T08:44:28.397Z</time></trkpt><trkpt lat="41.3172107" lon="1.9553634"><ele>267.0</ele><time>2026-04-27T08:44:29.401Z</time></trkpt><trkpt lat="41.3172782" lon="1.955455"><ele>267.0</ele><time>2026-04-27T08:44:30.389Z</time></trkpt><trkpt lat="41.3173509" lon="1.9555262"><ele>267.0</ele><time>2026-04-27T08:44:31.392Z</time></trkpt><trkpt lat="41.317424" lon="1.9555937"><ele>267.0</ele><time>2026-04-27T08:44:32.391Z</time></trkpt><trkpt lat="41.3174965" lon="1.9556642"><ele>266.1666666666667</ele><time>2026-04-27T08:44:33.395Z</time></trkpt><trkpt lat="41.3175639" lon="1.9557385"><ele>265.3333333333333</ele><time>2026-04-27T08:44:34.394Z</time></trkpt><trkpt lat="41.3176262" lon="1.9558162"><ele>264.5</ele><time>2026-04-27T08:44:35.397Z</time></trkpt><trkpt lat="41.3176842" lon="1.9559031"><ele>263.66666666666663</ele><time>2026-04-27T08:44:36.399Z</time></trkpt><trkpt lat="41.3177402" lon="1.956001"><ele>262.8333333333333</ele><time>2026-04-27T08:44:37.398Z</time></trkpt><trkpt lat="41.3177877" lon="1.9561"><ele>262.0</ele><time>2026-04-27T08:44:38.396Z</time></trkpt><trkpt lat="41.3178322" lon="1.9562031"><ele>262.0</ele><time>2026-04-27T08:44:39.407Z</time></trkpt><trkpt lat="41.317882" lon="1.9562959"><ele>262.0</ele><time>2026-04-27T08:44:40.395Z</time></trkpt><trkpt lat="41.3179368" lon="1.9563834"><ele>262.0</ele><time>2026-04-27T08:44:41.395Z</time></trkpt><trkpt lat="41.3180055" lon="1.9564753"><ele>262.0</ele><time>2026-04-27T08:44:42.397Z</time></trkpt><trkpt lat="41.3180822" lon="1.9565639"><ele>262.0</ele><time>2026-04-27T08:44:43.397Z</time></trkpt><trkpt lat="41.3181574" lon="1.9566531"><ele>264.4</ele><time>2026-04-27T08:44:44.399Z</time></trkpt><trkpt lat="41.318229" lon="1.956744"><ele>266.79999999999995</ele><time>2026-04-27T08:44:45.398Z</time></trkpt><trkpt lat="41.3182934" lon="1.9568443"><ele>269.2</ele><time>2026-04-27T08:44:46.395Z</time></trkpt><trkpt lat="41.3183587" lon="1.9569556"><ele>271.59999999999997</ele><time>2026-04-27T08:44:47.394Z</time></trkpt><trkpt lat="41.3184144" lon="1.957076"><ele>274.0</ele><time>2026-04-27T08:44:48.402Z</time></trkpt><trkpt lat="41.3184641" lon="1.9572125"><ele>274.0</ele><time>2026-04-27T08:44:49.402Z</time></trkpt><trkpt lat="41.3185078" lon="1.9573512"><ele>274.0</ele><time>2026-04-27T08:44:50.402Z</time></trkpt><trkpt lat="41.3185434" lon="1.9574929"><ele>274.0</ele><time>2026-04-27T08:44:51.399Z</time></trkpt><trkpt lat="41.318583" lon="1.9576341"><ele>274.0</ele><time>2026-04-27T08:44:52.436Z</time></trkpt><trkpt lat="41.3186333" lon="1.9577645"><ele>274.0</ele><time>2026-04-27T08:44:53.403Z</time></trkpt><trkpt lat="41.3186997" lon="1.9578834"><ele>273.8333333333333</ele><time>2026-04-27T08:44:54.398Z</time></trkpt><trkpt lat="41.3187677" lon="1.9579732"><ele>273.66666666666663</ele><time>2026-04-27T08:44:55.403Z</time></trkpt><trkpt lat="41.3188392" lon="1.9580297"><ele>273.5</ele><time>2026-04-27T08:44:56.405Z</time></trkpt><trkpt lat="41.3189124" lon="1.9580403"><ele>273.3333333333333</ele><time>2026-04-27T08:44:57.406Z</time></trkpt><trkpt lat="41.3189855" lon="1.9580096"><ele>273.1666666666667</ele><time>2026-04-27T08:44:58.409Z</time></trkpt><trkpt lat="41.3190493" lon="1.9579348"><ele>273.0</ele><time>2026-04-27T08:44:59.402Z</time></trkpt><trkpt lat="41.3191008" lon="1.9578372"><ele>273.0</ele><time>2026-04-27T08:45:00.371Z</time></trkpt><trkpt lat="41.3191349" lon="1.9577101"><ele>273.0</ele><time>2026-04-27T08:45:01.376Z</time></trkpt><trkpt lat="41.3191402" lon="1.9575624"><ele>273.0</ele><time>2026-04-27T08:45:02.372Z</time></trkpt><trkpt lat="41.319137" lon="1.9574161"><ele>273.0</ele><time>2026-04-27T08:45:03.372Z</time></trkpt><trkpt lat="41.3191324" lon="1.9572761"><ele>273.0</ele><time>2026-04-27T08:45:04.371Z</time></trkpt><trkpt lat="41.3191421" lon="1.9571365"><ele>274.75</ele><time>2026-04-27T08:45:05.362Z</time></trkpt><trkpt lat="41.3191761" lon="1.9569923"><ele>276.5</ele><time>2026-04-27T08:45:06.37Z</time></trkpt><trkpt lat="41.319244" lon="1.9568573"><ele>278.25</ele><time>2026-04-27T08:45:07.358Z</time></trkpt><trkpt lat="41.3193239" lon="1.9567409"><ele>280.0</ele><time>2026-04-27T08:45:08.364Z</time></trkpt><trkpt lat="41.3194042" lon="1.9566434"><ele>282.4</ele><time>2026-04-27T08:45:09.369Z</time></trkpt><trkpt lat="41.3194736" lon="1.9565356"><ele>284.8</ele><time>2026-04-27T08:45:10.362Z</time></trkpt><trkpt lat="41.3195276" lon="1.9564248"><ele>287.2</ele><time>2026-04-27T08:45:11.367Z</time></trkpt><trkpt lat="41.3195569" lon="1.9563125"><ele>289.6</ele><time>2026-04-27T08:45:12.367Z</time></trkpt><trkpt lat="41.3195512" lon="1.9561773"><ele>292.0</ele><time>2026-04-27T08:45:13.367Z</time></trkpt><trkpt lat="41.3195256" lon="1.9560286"><ele>292.0</ele><time>2026-04-27T08:45:14.36Z</time></trkpt><trkpt lat="41.3194838" lon="1.9558873"><ele>292.0</ele><time>2026-04-27T08:45:15.361Z</time></trkpt><trkpt lat="41.319431" lon="1.9557529"><ele>292.0</ele><time>2026-04-27T08:45:16.365Z</time></trkpt><trkpt lat="41.3193703" lon="1.9556227"><ele>292.0</ele><time>2026-04-27T08:45:17.369Z</time></trkpt><trkpt lat="41.319304" lon="1.9554868"><ele>293.25</ele><time>2026-04-27T08:45:18.373Z</time></trkpt><trkpt lat="41.3192543" lon="1.9553417"><ele>294.5</ele><time>2026-04-27T08:45:19.364Z</time></trkpt><trkpt lat="41.3192208" lon="1.9551919"><ele>295.75</ele><time>2026-04-27T08:45:20.369Z</time></trkpt><trkpt lat="41.3192284" lon="1.9550303"><ele>297.0</ele><time>2026-04-27T08:45:21.358Z</time></trkpt><trkpt lat="41.3192601" lon="1.9548711"><ele>297.25</ele><time>2026-04-27T08:45:22.374Z</time></trkpt><trkpt lat="41.3192937" lon="1.9547207"><ele>297.5</ele><time>2026-04-27T08:45:23.355Z</time></trkpt><trkpt lat="41.3193207" lon="1.954577"><ele>297.75</ele><time>2026-04-27T08:45:24.351Z</time></trkpt><trkpt lat="41.3193287" lon="1.9544302"><ele>298.0</ele><time>2026-04-27T08:45:25.349Z</time></trkpt><trkpt lat="41.319342" lon="1.9542809"><ele>300.0</ele><time>2026-04-27T08:45:26.346Z</time></trkpt><trkpt lat="41.3193348" lon="1.9541354"><ele>302.0</ele><time>2026-04-27T08:45:27.351Z</time></trkpt><trkpt lat="41.3193309" lon="1.9540026"><ele>304.0</ele><time>2026-04-27T08:45:28.354Z</time></trkpt><trkpt lat="41.3193435" lon="1.9538571"><ele>306.0</ele><time>2026-04-27T08:45:29.345Z</time></trkpt><trkpt lat="41.3193628" lon="1.9537148"><ele>308.0</ele><time>2026-04-27T08:45:30.352Z</time></trkpt><trkpt lat="41.3193825" lon="1.9535795"><ele>308.0</ele><time>2026-04-27T08:45:31.348Z</time></trkpt><trkpt lat="41.3194074" lon="1.953444"><ele>308.0</ele><time>2026-04-27T08:45:32.357Z</time></trkpt><trkpt lat="41.3194274" lon="1.9533352"><ele>308.0</ele><time>2026-04-27T08:45:33.355Z</time></trkpt><trkpt lat="41.3194525" lon="1.9532355"><ele>308.0</ele><time>2026-04-27T08:45:34.353Z</time></trkpt><trkpt lat="41.319493" lon="1.9531275"><ele>308.0</ele><time>2026-04-27T08:45:35.349Z</time></trkpt><trkpt lat="41.3195461" lon="1.9530352"><ele>308.0</ele><time>2026-04-27T08:45:36.358Z</time></trkpt><trkpt lat="41.3196123" lon="1.952989"><ele>306.2</ele><time>2026-04-27T08:45:37.354Z</time></trkpt><trkpt lat="41.319695" lon="1.9529853"><ele>304.4</ele><time>2026-04-27T08:45:38.356Z</time></trkpt><trkpt lat="41.3197802" lon="1.9530085"><ele>302.59999999999997</ele><time>2026-04-27T08:45:39.356Z</time></trkpt><trkpt lat="41.3198686" lon="1.9530519"><ele>300.8</ele><time>2026-04-27T08:45:40.353Z</time></trkpt><trkpt lat="41.3199466" lon="1.9531181"><ele>299.0</ele><time>2026-04-27T08:45:41.362Z</time></trkpt><trkpt lat="41.3200165" lon="1.9532172"><ele>299.0</ele><time>2026-04-27T08:45:42.359Z</time></trkpt><trkpt lat="41.3200758" lon="1.9533219"><ele>299.0</ele><time>2026-04-27T08:45:43.358Z</time></trkpt><trkpt lat="41.3201414" lon="1.9534085"><ele>299.0</ele><time>2026-04-27T08:45:44.365Z</time></trkpt><trkpt lat="41.3202135" lon="1.9534789"><ele>299.0</ele><time>2026-04-27T08:45:45.363Z</time></trkpt><trkpt lat="41.3202916" lon="1.9535324"><ele>299.0</ele><time>2026-04-27T08:45:46.369Z</time></trkpt><trkpt lat="41.3203716" lon="1.9535559"><ele>296.33333333333337</ele><time>2026-04-27T08:45:47.364Z</time></trkpt><trkpt lat="41.3204681" lon="1.953562"><ele>293.6666666666667</ele><time>2026-04-27T08:45:48.37Z</time></trkpt><trkpt lat="41.3205549" lon="1.9535673"><ele>291.0</ele><time>2026-04-27T08:45:49.359Z</time></trkpt><trkpt lat="41.3206462" lon="1.9535731"><ele>288.3333333333333</ele><time>2026-04-27T08:45:50.37Z</time></trkpt><trkpt lat="41.320733" lon="1.9535747"><ele>285.66666666666663</ele><time>2026-04-27T08:45:51.364Z</time></trkpt><trkpt lat="41.3208198" lon="1.953568"><ele>283.0</ele><time>2026-04-27T08:45:52.373Z</time></trkpt><trkpt lat="41.3209117" lon="1.9535491"><ele>283.0</ele><time>2026-04-27T08:45:53.386Z</time></trkpt><trkpt lat="41.320999" lon="1.9535164"><ele>283.0</ele><time>2026-04-27T08:45:54.37Z</time></trkpt><trkpt lat="41.3210773" lon="1.9534597"><ele>283.0</ele><time>2026-04-27T08:45:55.366Z</time></trkpt><trkpt lat="41.3211379" lon="1.9533764"><ele>283.0</ele><time>2026-04-27T08:45:56.367Z</time></trkpt><trkpt lat="41.3211883" lon="1.9532731"><ele>283.0</ele><time>2026-04-27T08:45:57.359Z</time></trkpt><trkpt lat="41.321229" lon="1.9531742"><ele>283.0</ele><time>2026-04-27T08:45:58.361Z</time></trkpt><trkpt lat="41.3212611" lon="1.9530626"><ele>284.66666666666663</ele><time>2026-04-27T08:45:59.366Z</time></trkpt><trkpt lat="41.3212903" lon="1.952945"><ele>286.3333333333333</ele><time>2026-04-27T08:46:00.364Z</time></trkpt><trkpt lat="41.3213295" lon="1.9528327"><ele>288.0</ele><time>2026-04-27T08:46:01.361Z</time></trkpt><trkpt lat="41.3213772" lon="1.9527296"><ele>289.6666666666667</ele><time>2026-04-27T08:46:02.358Z</time></trkpt><trkpt lat="41.3214305" lon="1.9526411"><ele>291.33333333333337</ele><time>2026-04-27T08:46:03.356Z</time></trkpt><trkpt lat="41.3214884" lon="1.9525603"><ele>293.0</ele><time>2026-04-27T08:46:04.356Z</time></trkpt><trkpt lat="41.3215552" lon="1.9525069"><ele>295.71428571428567</ele><time>2026-04-27T08:46:05.352Z</time></trkpt><trkpt lat="41.3216243" lon="1.9524631"><ele>298.42857142857144</ele><time>2026-04-27T08:46:06.357Z</time></trkpt><trkpt lat="41.3216838" lon="1.9524075"><ele>301.1428571428571</ele><time>2026-04-27T08:46:07.36Z</time></trkpt><trkpt lat="41.3217405" lon="1.9523484"><ele>303.85714285714283</ele><time>2026-04-27T08:46:08.361Z</time></trkpt><trkpt lat="41.3217908" lon="1.9522828"><ele>306.57142857142856</ele><time>2026-04-27T08:46:09.361Z</time></trkpt><trkpt lat="41.3218275" lon="1.9522038"><ele>309.2857142857143</ele><time>2026-04-27T08:46:10.359Z</time></trkpt><trkpt lat="41.3218636" lon="1.9521188"><ele>312.0</ele><time>2026-04-27T08:46:11.36Z</time></trkpt><trkpt lat="41.3218755" lon="1.9520326"><ele>312.0</ele><time>2026-04-27T08:46:12.367Z</time></trkpt><trkpt lat="41.3218592" lon="1.9518852"><ele>312.0</ele><time>2026-04-27T08:46:14.363Z</time></trkpt><trkpt lat="41.321825" lon="1.9517251"><ele>312.0</ele><time>2026-04-27T08:46:16.363Z</time></trkpt><trkpt lat="41.3218158" lon="1.95164"><ele>312.0</ele><time>2026-04-27T08:46:17.36Z</time></trkpt><trkpt lat="41.3218048" lon="1.9515401"><ele>312.0</ele><time>2026-04-27T08:46:18.362Z</time></trkpt><trkpt lat="41.3218073" lon="1.9514343"><ele>314.7142857142857</ele><time>2026-04-27T08:46:19.358Z</time></trkpt><trkpt lat="41.3218204" lon="1.9513295"><ele>317.4285714285714</ele><time>2026-04-27T08:46:20.345Z</time></trkpt><trkpt lat="41.3218533" lon="1.9512364"><ele>320.1428571428571</ele><time>2026-04-27T08:46:21.351Z</time></trkpt><trkpt lat="41.3218972" lon="1.95116"><ele>322.8571428571429</ele><time>2026-04-27T08:46:22.353Z</time></trkpt><trkpt lat="41.3219446" lon="1.9510984"><ele>325.57142857142856</ele><time>2026-04-27T08:46:23.351Z</time></trkpt><trkpt lat="41.3219974" lon="1.951036"><ele>328.2857142857143</ele><time>2026-04-27T08:46:24.36Z</time></trkpt><trkpt lat="41.3220614" lon="1.9509897"><ele>331.0</ele><time>2026-04-27T08:46:25.355Z</time></trkpt><trkpt lat="41.3221224" lon="1.950954"><ele>331.0</ele><time>2026-04-27T08:46:26.352Z</time></trkpt><trkpt lat="41.3221896" lon="1.9509301"><ele>331.0</ele><time>2026-04-27T08:46:27.36Z</time></trkpt><trkpt lat="41.3222705" lon="1.9509276"><ele>331.0</ele><time>2026-04-27T08:46:28.364Z</time></trkpt><trkpt lat="41.322359" lon="1.9509274"><ele>331.0</ele><time>2026-04-27T08:46:29.359Z</time></trkpt><trkpt lat="41.3224432" lon="1.9509288"><ele>331.0</ele><time>2026-04-27T08:46:30.358Z</time></trkpt><trkpt lat="41.3225231" lon="1.9509305"><ele>331.0</ele><time>2026-04-27T08:46:31.362Z</time></trkpt><trkpt lat="41.3226019" lon="1.9509126"><ele>331.66666666666663</ele><time>2026-04-27T08:46:32.359Z</time></trkpt><trkpt lat="41.3226802" lon="1.9508938"><ele>332.3333333333333</ele><time>2026-04-27T08:46:33.359Z</time></trkpt><trkpt lat="41.3227538" lon="1.9508687"><ele>333.0</ele><time>2026-04-27T08:46:34.359Z</time></trkpt><trkpt lat="41.3228267" lon="1.9508426"><ele>333.6666666666667</ele><time>2026-04-27T08:46:35.36Z</time></trkpt><trkpt lat="41.3229018" lon="1.9508119"><ele>334.33333333333337</ele><time>2026-04-27T08:46:36.361Z</time></trkpt><trkpt lat="41.3229791" lon="1.9507838"><ele>335.0</ele><time>2026-04-27T08:46:37.36Z</time></trkpt><trkpt lat="41.3230591" lon="1.9507476"><ele>333.6666666666667</ele><time>2026-04-27T08:46:38.36Z</time></trkpt><trkpt lat="41.3231346" lon="1.950708"><ele>332.33333333333337</ele><time>2026-04-27T08:46:39.362Z</time></trkpt><trkpt lat="41.323209" lon="1.9506663"><ele>331.0</ele><time>2026-04-27T08:46:40.36Z</time></trkpt><trkpt lat="41.3232858" lon="1.9506175"><ele>329.6666666666667</ele><time>2026-04-27T08:46:41.365Z</time></trkpt><trkpt lat="41.3233617" lon="1.9505714"><ele>328.3333333333333</ele><time>2026-04-27T08:46:42.357Z</time></trkpt><trkpt lat="41.3234397" lon="1.9505278"><ele>327.0</ele><time>2026-04-27T08:46:43.363Z</time></trkpt><trkpt lat="41.3235163" lon="1.9504902"><ele>327.0</ele><time>2026-04-27T08:46:44.361Z</time></trkpt><trkpt lat="41.323596" lon="1.9504531"><ele>327.0</ele><time>2026-04-27T08:46:45.362Z</time></trkpt><trkpt lat="41.3236768" lon="1.9504209"><ele>327.0</ele><time>2026-04-27T08:46:46.362Z</time></trkpt><trkpt lat="41.3237599" lon="1.9503976"><ele>327.0</ele><time>2026-04-27T08:46:47.366Z</time></trkpt><trkpt lat="41.3238435" lon="1.9503837"><ele>327.0</ele><time>2026-04-27T08:46:48.368Z</time></trkpt><trkpt lat="41.3239281" lon="1.9503728"><ele>327.0</ele><time>2026-04-27T08:46:49.362Z</time></trkpt><trkpt lat="41.3240126" lon="1.9503743"><ele>327.0</ele><time>2026-04-27T08:46:50.36Z</time></trkpt><trkpt lat="41.3240974" lon="1.9503714"><ele>327.0</ele><time>2026-04-27T08:46:51.358Z</time></trkpt><trkpt lat="41.3241783" lon="1.9503738"><ele>327.0</ele><time>2026-04-27T08:46:52.37Z</time></trkpt><trkpt lat="41.3242595" lon="1.9503711"><ele>327.0</ele><time>2026-04-27T08:46:53.366Z</time></trkpt><trkpt lat="41.3243381" lon="1.950373"><ele>327.0</ele><time>2026-04-27T08:46:54.365Z</time></trkpt><trkpt lat="41.324418" lon="1.9503978"><ele>327.0</ele><time>2026-04-27T08:46:55.381Z</time></trkpt><trkpt lat="41.324503" lon="1.9504277"><ele>327.0</ele><time>2026-04-27T08:46:56.363Z</time></trkpt><trkpt lat="41.3245882" lon="1.950452"><ele>327.0</ele><time>2026-04-27T08:46:57.363Z</time></trkpt><trkpt lat="41.3246725" lon="1.9504538"><ele>327.0</ele><time>2026-04-27T08:46:58.358Z</time></trkpt><trkpt lat="41.3247553" lon="1.9504357"><ele>327.0</ele><time>2026-04-27T08:46:59.37Z</time></trkpt><trkpt lat="41.3248309" lon="1.950395"><ele>327.0</ele><time>2026-04-27T08:47:00.365Z</time></trkpt><trkpt lat="41.3248964" lon="1.950346"><ele>327.0</ele><time>2026-04-27T08:47:01.364Z</time></trkpt><trkpt lat="41.3249667" lon="1.9502873"><ele>327.1666666666667</ele><time>2026-04-27T08:47:02.365Z</time></trkpt><trkpt lat="41.3250353" lon="1.9502205"><ele>327.3333333333333</ele><time>2026-04-27T08:47:03.364Z</time></trkpt><trkpt lat="41.3251016" lon="1.95015"><ele>327.5</ele><time>2026-04-27T08:47:04.367Z</time></trkpt><trkpt lat="41.3251698" lon="1.9500803"><ele>327.66666666666663</ele><time>2026-04-27T08:47:05.37Z</time></trkpt><trkpt lat="41.3252362" lon="1.9500109"><ele>327.8333333333333</ele><time>2026-04-27T08:47:06.364Z</time></trkpt><trkpt lat="41.3253025" lon="1.9499373"><ele>328.0</ele><time>2026-04-27T08:47:07.363Z</time></trkpt><trkpt lat="41.3253646" lon="1.949875"><ele>331.5</ele><time>2026-04-27T08:47:08.363Z</time></trkpt><trkpt lat="41.3254315" lon="1.9498114"><ele>335.0</ele><time>2026-04-27T08:47:09.365Z</time></trkpt><trkpt lat="41.3255028" lon="1.9497588"><ele>338.5</ele><time>2026-04-27T08:47:10.363Z</time></trkpt><trkpt lat="41.3255795" lon="1.9497219"><ele>342.0</ele><time>2026-04-27T08:47:11.362Z</time></trkpt><trkpt lat="41.3256624" lon="1.9496941"><ele>345.5</ele><time>2026-04-27T08:47:12.365Z</time></trkpt><trkpt lat="41.3257355" lon="1.9496917"><ele>349.0</ele><time>2026-04-27T08:47:13.365Z</time></trkpt><trkpt lat="41.3258072" lon="1.949704"><ele>349.0</ele><time>2026-04-27T08:47:14.363Z</time></trkpt><trkpt lat="41.3258749" lon="1.9497073"><ele>349.0</ele><time>2026-04-27T08:47:15.366Z</time></trkpt><trkpt lat="41.3259909" lon="1.9496889"><ele>349.0</ele><time>2026-04-27T08:47:17.373Z</time></trkpt><trkpt lat="41.3260653" lon="1.949609"><ele>349.0</ele><time>2026-04-27T08:47:19.37Z</time></trkpt><trkpt lat="41.3260948" lon="1.9494712"><ele>349.0</ele><time>2026-04-27T08:47:21.37Z</time></trkpt><trkpt lat="41.3260345" lon="1.9493369"><ele>349.0</ele><time>2026-04-27T08:47:23.368Z</time></trkpt><trkpt lat="41.3259738" lon="1.9492995"><ele>349.0</ele><time>2026-04-27T08:47:24.368Z</time></trkpt><trkpt lat="41.3259132" lon="1.9492762"><ele>349.0</ele><time>2026-04-27T08:47:25.371Z</time></trkpt><trkpt lat="41.3257897" lon="1.9492787"><ele>349.0</ele><time>2026-04-27T08:47:27.37Z</time></trkpt><trkpt lat="41.3257291" lon="1.9493022"><ele>349.0</ele><time>2026-04-27T08:47:28.372Z</time></trkpt><trkpt lat="41.3256667" lon="1.9493255"><ele>349.0</ele><time>2026-04-27T08:47:29.367Z</time></trkpt><trkpt lat="41.3255985" lon="1.9493634"><ele>350.5</ele><time>2026-04-27T08:47:30.369Z</time></trkpt><trkpt lat="41.3255267" lon="1.9494078"><ele>352.0</ele><time>2026-04-27T08:47:31.369Z</time></trkpt><trkpt lat="41.3254438" lon="1.9494473"><ele>353.5</ele><time>2026-04-27T08:47:32.369Z</time></trkpt><trkpt lat="41.3253573" lon="1.949491"><ele>355.0</ele><time>2026-04-27T08:47:33.365Z</time></trkpt><trkpt lat="41.3252699" lon="1.9495281"><ele>356.5</ele><time>2026-04-27T08:47:34.365Z</time></trkpt><trkpt lat="41.3251832" lon="1.949563"><ele>358.0</ele><time>2026-04-27T08:47:35.364Z</time></trkpt><trkpt lat="41.3251014" lon="1.9495976"><ele>358.0</ele><time>2026-04-27T08:47:36.367Z</time></trkpt><trkpt lat="41.3250145" lon="1.9496251"><ele>358.0</ele><time>2026-04-27T08:47:37.366Z</time></trkpt><trkpt lat="41.3249305" lon="1.9496564"><ele>358.0</ele><time>2026-04-27T08:47:38.37Z</time></trkpt><trkpt lat="41.3248455" lon="1.9496846"><ele>358.0</ele><time>2026-04-27T08:47:39.37Z</time></trkpt><trkpt lat="41.3247592" lon="1.9497143"><ele>358.0</ele><time>2026-04-27T08:47:40.367Z</time></trkpt><trkpt lat="41.3246737" lon="1.9497408"><ele>358.0</ele><time>2026-04-27T08:47:41.369Z</time></trkpt><trkpt lat="41.3245902" lon="1.9497488"><ele>358.66666666666663</ele><time>2026-04-27T08:47:42.364Z</time></trkpt><trkpt lat="41.3245065" lon="1.9497482"><ele>359.3333333333333</ele><time>2026-04-27T08:47:43.37Z</time></trkpt><trkpt lat="41.3244271" lon="1.9497262"><ele>360.0</ele><time>2026-04-27T08:47:44.369Z</time></trkpt><trkpt lat="41.3243491" lon="1.9496812"><ele>360.6666666666667</ele><time>2026-04-27T08:47:45.368Z</time></trkpt><trkpt lat="41.3242784" lon="1.9496307"><ele>361.33333333333337</ele><time>2026-04-27T08:47:46.354Z</time></trkpt><trkpt lat="41.3242042" lon="1.9495804"><ele>362.0</ele><time>2026-04-27T08:47:47.368Z</time></trkpt><trkpt lat="41.324129" lon="1.9495332"><ele>362.0</ele><time>2026-04-27T08:47:48.371Z</time></trkpt><trkpt lat="41.3240511" lon="1.9494996"><ele>362.0</ele><time>2026-04-27T08:47:49.372Z</time></trkpt><trkpt lat="41.3239773" lon="1.9494782"><ele>362.0</ele><time>2026-04-27T08:47:50.367Z</time></trkpt><trkpt lat="41.3239011" lon="1.9494737"><ele>362.0</ele><time>2026-04-27T08:47:51.362Z</time></trkpt><trkpt lat="41.323824" lon="1.9494774"><ele>362.0</ele><time>2026-04-27T08:47:52.373Z</time></trkpt><trkpt lat="41.3237457" lon="1.9494988"><ele>362.0</ele><time>2026-04-27T08:47:53.371Z</time></trkpt><trkpt lat="41.3236661" lon="1.9495264"><ele>362.5</ele><time>2026-04-27T08:47:54.367Z</time></trkpt><trkpt lat="41.3235867" lon="1.9495558"><ele>363.0</ele><time>2026-04-27T08:47:55.369Z</time></trkpt><trkpt lat="41.3235027" lon="1.9495782"><ele>363.5</ele><time>2026-04-27T08:47:56.366Z</time></trkpt><trkpt lat="41.3234176" lon="1.949589"><ele>364.0</ele><time>2026-04-27T08:47:57.378Z</time></trkpt><trkpt lat="41.3233305" lon="1.9496018"><ele>364.5</ele><time>2026-04-27T08:47:58.365Z</time></trkpt><trkpt lat="41.3232461" lon="1.9496156"><ele>365.0</ele><time>2026-04-27T08:47:59.371Z</time></trkpt><trkpt lat="41.3231666" lon="1.9496269"><ele>365.00000000000006</ele><time>2026-04-27T08:48:00.371Z</time></trkpt><trkpt lat="41.3230841" lon="1.9496424"><ele>365.0</ele><time>2026-04-27T08:48:01.374Z</time></trkpt><trkpt lat="41.3230097" lon="1.9496625"><ele>365.0</ele><time>2026-04-27T08:48:02.368Z</time></trkpt><trkpt lat="41.3229388" lon="1.9496854"><ele>365.0</ele><time>2026-04-27T08:48:03.369Z</time></trkpt><trkpt lat="41.3228689" lon="1.9497128"><ele>365.0</ele><time>2026-04-27T08:48:04.368Z</time></trkpt><trkpt lat="41.3227958" lon="1.9497434"><ele>365.00000000000006</ele><time>2026-04-27T08:48:05.372Z</time></trkpt><trkpt lat="41.322734" lon="1.9497796"><ele>365.0</ele><time>2026-04-27T08:48:06.369Z</time></trkpt><trkpt lat="41.3226745" lon="1.9498108"><ele>367.1666666666667</ele><time>2026-04-27T08:48:07.366Z</time></trkpt><trkpt lat="41.3225681" lon="1.9498523"><ele>369.33333333333337</ele><time>2026-04-27T08:48:09.37Z</time></trkpt><trkpt lat="41.3224977" lon="1.9498287"><ele>371.5</ele><time>2026-04-27T08:48:11.37Z</time></trkpt><trkpt lat="41.3224656" lon="1.9499113"><ele>373.6666666666667</ele><time>2026-04-27T08:48:18.368Z</time></trkpt><trkpt lat="41.322534" lon="1.9499368"><ele>375.8333333333333</ele><time>2026-04-27T08:48:46.376Z</time></trkpt><trkpt lat="41.3225606" lon="1.9498493"><ele>378.0</ele><time>2026-04-27T08:49:01.362Z</time></trkpt><trkpt lat="41.3225542" lon="1.9497234"><ele>378.0</ele><time>2026-04-27T08:49:03.363Z</time></trkpt><trkpt lat="41.3226303" lon="1.9496159"><ele>378.0</ele><time>2026-04-27T08:49:05.362Z</time></trkpt><trkpt lat="41.3226918" lon="1.9495785"><ele>378.0</ele><time>2026-04-27T08:49:06.361Z</time></trkpt><trkpt lat="41.3227613" lon="1.9495491"><ele>378.0</ele><time>2026-04-27T08:49:07.36Z</time></trkpt><trkpt lat="41.3228418" lon="1.9495246"><ele>378.0</ele><time>2026-04-27T08:49:08.361Z</time></trkpt><trkpt lat="41.3229284" lon="1.949498"><ele>378.0</ele><time>2026-04-27T08:49:09.36Z</time></trkpt><trkpt lat="41.3230206" lon="1.9494654"><ele>375.4</ele><time>2026-04-27T08:49:10.361Z</time></trkpt><trkpt lat="41.3231222" lon="1.9494282"><ele>372.79999999999995</ele><time>2026-04-27T08:49:11.361Z</time></trkpt><trkpt lat="41.3232261" lon="1.9493966"><ele>370.2</ele><time>2026-04-27T08:49:12.358Z</time></trkpt><trkpt lat="41.3233336" lon="1.9493587"><ele>367.6</ele><time>2026-04-27T08:49:13.363Z</time></trkpt><trkpt lat="41.3234278" lon="1.9493193"><ele>365.0</ele><time>2026-04-27T08:49:14.365Z</time></trkpt><trkpt lat="41.3235266" lon="1.9492737"><ele>365.0</ele><time>2026-04-27T08:49:15.371Z</time></trkpt><trkpt lat="41.3236301" lon="1.949226"><ele>365.0</ele><time>2026-04-27T08:49:16.364Z</time></trkpt><trkpt lat="41.3237321" lon="1.9491838"><ele>365.0</ele><time>2026-04-27T08:49:17.361Z</time></trkpt><trkpt lat="41.3238379" lon="1.9491436"><ele>365.0</ele><time>2026-04-27T08:49:18.363Z</time></trkpt><trkpt lat="41.3239485" lon="1.9491118"><ele>365.0</ele><time>2026-04-27T08:49:19.364Z</time></trkpt><trkpt lat="41.3240685" lon="1.9490958"><ele>373.75</ele><time>2026-04-27T08:49:20.363Z</time></trkpt><trkpt lat="41.3241913" lon="1.949098"><ele>382.5</ele><time>2026-04-27T08:49:21.363Z</time></trkpt><trkpt lat="41.3243148" lon="1.9490959"><ele>391.25</ele><time>2026-04-27T08:49:22.369Z</time></trkpt><trkpt lat="41.3244352" lon="1.9491104"><ele>400.0</ele><time>2026-04-27T08:49:23.366Z</time></trkpt><trkpt lat="41.3245611" lon="1.949126"><ele>400.0</ele><time>2026-04-27T08:49:24.364Z</time></trkpt><trkpt lat="41.3246859" lon="1.9491128"><ele>400.0</ele><time>2026-04-27T08:49:25.367Z</time></trkpt><trkpt lat="41.3248083" lon="1.9490827"><ele>400.0</ele><time>2026-04-27T08:49:26.358Z</time></trkpt><trkpt lat="41.3249282" lon="1.9490286"><ele>400.0</ele><time>2026-04-27T08:49:27.358Z</time></trkpt><trkpt lat="41.3250351" lon="1.9489542"><ele>397.75</ele><time>2026-04-27T08:49:28.362Z</time></trkpt><trkpt lat="41.3251376" lon="1.9488647"><ele>395.5</ele><time>2026-04-27T08:49:29.365Z</time></trkpt><trkpt lat="41.3252269" lon="1.9487522"><ele>393.25</ele><time>2026-04-27T08:49:30.389Z</time></trkpt><trkpt lat="41.3253109" lon="1.9486334"><ele>391.0</ele><time>2026-04-27T08:49:31.366Z</time></trkpt><trkpt lat="41.3253913" lon="1.9485095"><ele>391.0</ele><time>2026-04-27T08:49:32.361Z</time></trkpt><trkpt lat="41.3254617" lon="1.948379"><ele>391.0</ele><time>2026-04-27T08:49:33.362Z</time></trkpt><trkpt lat="41.3255198" lon="1.9482371"><ele>391.0</ele><time>2026-04-27T08:49:34.364Z</time></trkpt><trkpt lat="41.3255708" lon="1.9480911"><ele>391.0</ele><time>2026-04-27T08:49:35.368Z</time></trkpt><trkpt lat="41.3256236" lon="1.9479529"><ele>391.0</ele><time>2026-04-27T08:49:36.371Z</time></trkpt><trkpt lat="41.325681" lon="1.9478221"><ele>391.0</ele><time>2026-04-27T08:49:37.364Z</time></trkpt><trkpt lat="41.3257407" lon="1.9476976"><ele>391.0</ele><time>2026-04-27T08:49:38.369Z</time></trkpt><trkpt lat="41.3258123" lon="1.9475705"><ele>391.0</ele><time>2026-04-27T08:49:39.37Z</time></trkpt><trkpt lat="41.3258884" lon="1.9474448"><ele>395.4</ele><time>2026-04-27T08:49:40.366Z</time></trkpt><trkpt lat="41.3259749" lon="1.9473292"><ele>399.8</ele><time>2026-04-27T08:49:41.367Z</time></trkpt><trkpt lat="41.3260674" lon="1.9472318"><ele>404.2</ele><time>2026-04-27T08:49:42.368Z</time></trkpt><trkpt lat="41.3261589" lon="1.9471584"><ele>408.59999999999997</ele><time>2026-04-27T08:49:43.367Z</time></trkpt><trkpt lat="41.3262526" lon="1.9471075"><ele>413.0</ele><time>2026-04-27T08:49:44.373Z</time></trkpt><trkpt lat="41.3263488" lon="1.9470653"><ele>411.16666666666663</ele><time>2026-04-27T08:49:45.374Z</time></trkpt><trkpt lat="41.326441" lon="1.9470269"><ele>409.3333333333333</ele><time>2026-04-27T08:49:46.371Z</time></trkpt><trkpt lat="41.3265234" lon="1.9469924"><ele>407.5</ele><time>2026-04-27T08:49:47.378Z</time></trkpt><trkpt lat="41.3265968" lon="1.9469497"><ele>405.66666666666663</ele><time>2026-04-27T08:49:48.376Z</time></trkpt><trkpt lat="41.3266639" lon="1.9468979"><ele>403.8333333333333</ele><time>2026-04-27T08:49:49.375Z</time></trkpt><trkpt lat="41.3267259" lon="1.9468362"><ele>402.0</ele><time>2026-04-27T08:49:50.376Z</time></trkpt><trkpt lat="41.3267767" lon="1.9467737"><ele>402.0</ele><time>2026-04-27T08:49:51.378Z</time></trkpt><trkpt lat="41.3268251" lon="1.9467146"><ele>402.0</ele><time>2026-04-27T08:49:52.379Z</time></trkpt><trkpt lat="41.3269172" lon="1.9466297"><ele>402.0</ele><time>2026-04-27T08:49:54.377Z</time></trkpt><trkpt lat="41.327021" lon="1.9465894"><ele>402.0</ele><time>2026-04-27T08:49:56.371Z</time></trkpt><trkpt lat="41.3271043" lon="1.9464858"><ele>402.0</ele><time>2026-04-27T08:49:58.382Z</time></trkpt><trkpt lat="41.3271064" lon="1.9463978"><ele>403.8</ele><time>2026-04-27T08:49:59.377Z</time></trkpt><trkpt lat="41.3270974" lon="1.9462867"><ele>405.6</ele><time>2026-04-27T08:50:00.39Z</time></trkpt><trkpt lat="41.3270924" lon="1.9461696"><ele>407.40000000000003</ele><time>2026-04-27T08:50:01.377Z</time></trkpt><trkpt lat="41.3270988" lon="1.9460451"><ele>409.20000000000005</ele><time>2026-04-27T08:50:02.38Z</time></trkpt><trkpt lat="41.3271314" lon="1.9459167"><ele>411.0</ele><time>2026-04-27T08:50:03.373Z</time></trkpt><trkpt lat="41.327172" lon="1.9457827"><ele>410.75</ele><time>2026-04-27T08:50:04.377Z</time></trkpt><trkpt lat="41.3272197" lon="1.9456418"><ele>410.5</ele><time>2026-04-27T08:50:05.378Z</time></trkpt><trkpt lat="41.3272732" lon="1.9454958"><ele>410.25</ele><time>2026-04-27T08:50:06.377Z</time></trkpt><trkpt lat="41.3273258" lon="1.9453562"><ele>410.0</ele><time>2026-04-27T08:50:07.374Z</time></trkpt><trkpt lat="41.3273738" lon="1.9452206"><ele>410.0</ele><time>2026-04-27T08:50:08.367Z</time></trkpt><trkpt lat="41.3274226" lon="1.9450709"><ele>410.0</ele><time>2026-04-27T08:50:09.378Z</time></trkpt><trkpt lat="41.327476" lon="1.9449182"><ele>410.0</ele><time>2026-04-27T08:50:10.379Z</time></trkpt><trkpt lat="41.3275276" lon="1.9447565"><ele>410.0</ele><time>2026-04-27T08:50:11.377Z</time></trkpt><trkpt lat="41.3275776" lon="1.9445839"><ele>409.0</ele><time>2026-04-27T08:50:12.382Z</time></trkpt><trkpt lat="41.3276226" lon="1.9444013"><ele>408.0</ele><time>2026-04-27T08:50:13.378Z</time></trkpt><trkpt lat="41.3276656" lon="1.9442139"><ele>407.0</ele><time>2026-04-27T08:50:14.377Z</time></trkpt><trkpt lat="41.3276953" lon="1.9440131"><ele>406.0</ele><time>2026-04-27T08:50:15.38Z</time></trkpt><trkpt lat="41.3277141" lon="1.9438069"><ele>405.6666666666667</ele><time>2026-04-27T08:50:16.381Z</time></trkpt><trkpt lat="41.327742" lon="1.9435954"><ele>405.33333333333337</ele><time>2026-04-27T08:50:17.379Z</time></trkpt><trkpt lat="41.3277732" lon="1.9433821"><ele>405.0</ele><time>2026-04-27T08:50:18.383Z</time></trkpt><trkpt lat="41.3278022" lon="1.9431571"><ele>404.0</ele><time>2026-04-27T08:50:19.389Z</time></trkpt><trkpt lat="41.327836" lon="1.9429402"><ele>403.0</ele><time>2026-04-27T08:50:20.379Z</time></trkpt><trkpt lat="41.3278673" lon="1.9427217"><ele>402.0</ele><time>2026-04-27T08:50:21.379Z</time></trkpt><trkpt lat="41.3278971" lon="1.9424978"><ele>401.0</ele><time>2026-04-27T08:50:22.377Z</time></trkpt><trkpt lat="41.3279316" lon="1.942267"><ele>400.0</ele><time>2026-04-27T08:50:23.371Z</time></trkpt><trkpt lat="41.3279508" lon="1.9420656"><ele>399.0</ele><time>2026-04-27T08:50:24.375Z</time></trkpt><trkpt lat="41.3279709" lon="1.9418564"><ele>397.66666666666663</ele><time>2026-04-27T08:50:25.378Z</time></trkpt><trkpt lat="41.3279908" lon="1.9416419"><ele>396.3333333333333</ele><time>2026-04-27T08:50:26.376Z</time></trkpt><trkpt lat="41.3280116" lon="1.9414367"><ele>395.0</ele><time>2026-04-27T08:50:27.375Z</time></trkpt><trkpt lat="41.3280365" lon="1.941225"><ele>394.66666666666663</ele><time>2026-04-27T08:50:28.374Z</time></trkpt><trkpt lat="41.3280635" lon="1.9410212"><ele>394.33333333333337</ele><time>2026-04-27T08:50:29.375Z</time></trkpt><trkpt lat="41.3280897" lon="1.9408105"><ele>394.0</ele><time>2026-04-27T08:50:30.371Z</time></trkpt><trkpt lat="41.328114" lon="1.9406038"><ele>393.75</ele><time>2026-04-27T08:50:31.388Z</time></trkpt><trkpt lat="41.3281399" lon="1.9404175"><ele>393.5</ele><time>2026-04-27T08:50:32.37Z</time></trkpt><trkpt lat="41.3281629" lon="1.9402457"><ele>393.25</ele><time>2026-04-27T08:50:33.37Z</time></trkpt><trkpt lat="41.3281813" lon="1.9401036"><ele>393.0</ele><time>2026-04-27T08:50:34.369Z</time></trkpt><trkpt lat="41.3282022" lon="1.9399834"><ele>393.0</ele><time>2026-04-27T08:50:35.376Z</time></trkpt><trkpt lat="41.3282076" lon="1.9398841"><ele>393.0</ele><time>2026-04-27T08:57:23.398Z</time></trkpt><trkpt lat="41.3282331" lon="1.9397836"><ele>393.0</ele><time>2026-04-27T09:02:54.407Z</time></trkpt><trkpt lat="41.3282473" lon="1.9396737"><ele>393.0</ele><time>2026-04-27T09:02:56.406Z</time></trkpt><trkpt lat="41.3282583" lon="1.9395573"><ele>393.0</ele><time>2026-04-27T09:02:58.407Z</time></trkpt><trkpt lat="41.3282654" lon="1.9394349"><ele>393.0</ele><time>2026-04-27T09:03:00.415Z</time></trkpt><trkpt lat="41.3282653" lon="1.9392996"><ele>393.28571428571433</ele><time>2026-04-27T09:03:02.405Z</time></trkpt><trkpt lat="41.3282644" lon="1.9392147"><ele>393.57142857142856</ele><time>2026-04-27T09:03:03.41Z</time></trkpt><trkpt lat="41.3282603" lon="1.9391263"><ele>393.8571428571429</ele><time>2026-04-27T09:03:04.417Z</time></trkpt><trkpt lat="41.3282576" lon="1.9390316"><ele>394.14285714285717</ele><time>2026-04-27T09:03:05.413Z</time></trkpt><trkpt lat="41.3282538" lon="1.9389338"><ele>394.42857142857144</ele><time>2026-04-27T09:03:06.421Z</time></trkpt><trkpt lat="41.328251" lon="1.9388337"><ele>394.7142857142857</ele><time>2026-04-27T09:03:07.414Z</time></trkpt><trkpt lat="41.3282521" lon="1.9387443"><ele>395.0</ele><time>2026-04-27T09:03:08.412Z</time></trkpt><trkpt lat="41.3282481" lon="1.9386552"><ele>395.0</ele><time>2026-04-27T09:03:09.41Z</time></trkpt><trkpt lat="41.3282351" lon="1.938497"><ele>395.0</ele><time>2026-04-27T09:03:11.408Z</time></trkpt><trkpt lat="41.3282325" lon="1.9383589"><ele>395.0</ele><time>2026-04-27T09:03:13.411Z</time></trkpt><trkpt lat="41.3282751" lon="1.9382285"><ele>395.0</ele><time>2026-04-27T09:03:15.41Z</time></trkpt><trkpt lat="41.3283626" lon="1.9381142"><ele>394.2</ele><time>2026-04-27T09:03:17.417Z</time></trkpt><trkpt lat="41.3284131" lon="1.9379793"><ele>393.4</ele><time>2026-04-27T09:03:19.411Z</time></trkpt><trkpt lat="41.3283724" lon="1.9378258"><ele>392.6</ele><time>2026-04-27T09:03:21.412Z</time></trkpt><trkpt lat="41.3283316" lon="1.9377523"><ele>391.8</ele><time>2026-04-27T09:03:22.419Z</time></trkpt><trkpt lat="41.3282962" lon="1.9376684"><ele>391.0</ele><time>2026-04-27T09:03:23.411Z</time></trkpt><trkpt lat="41.3282717" lon="1.9375719"><ele>391.20000000000005</ele><time>2026-04-27T09:03:24.443Z</time></trkpt><trkpt lat="41.3282585" lon="1.9374656"><ele>391.40000000000003</ele><time>2026-04-27T09:03:25.41Z</time></trkpt><trkpt lat="41.3282559" lon="1.9373482"><ele>391.6</ele><time>2026-04-27T09:03:26.415Z</time></trkpt><trkpt lat="41.3282598" lon="1.9372248"><ele>391.8</ele><time>2026-04-27T09:03:27.414Z</time></trkpt><trkpt lat="41.3282659" lon="1.9370902"><ele>392.0</ele><time>2026-04-27T09:03:28.415Z</time></trkpt><trkpt lat="41.3282791" lon="1.9369417"><ele>392.0</ele><time>2026-04-27T09:03:29.422Z</time></trkpt><trkpt lat="41.3282924" lon="1.9367904"><ele>392.0</ele><time>2026-04-27T09:03:30.423Z</time></trkpt><trkpt lat="41.3283064" lon="1.9366377"><ele>392.0</ele><time>2026-04-27T09:03:31.421Z</time></trkpt><trkpt lat="41.3283169" lon="1.9364896"><ele>392.0</ele><time>2026-04-27T09:03:32.423Z</time></trkpt><trkpt lat="41.3283284" lon="1.9363404"><ele>391.6</ele><time>2026-04-27T09:03:33.419Z</time></trkpt><trkpt lat="41.3283402" lon="1.9361957"><ele>391.20000000000005</ele><time>2026-04-27T09:03:34.415Z</time></trkpt><trkpt lat="41.3283481" lon="1.9360538"><ele>390.8</ele><time>2026-04-27T09:03:35.423Z</time></trkpt><trkpt lat="41.3283489" lon="1.935915"><ele>390.4</ele><time>2026-04-27T09:03:36.422Z</time></trkpt><trkpt lat="41.3283464" lon="1.935783"><ele>390.0</ele><time>2026-04-27T09:03:37.418Z</time></trkpt><trkpt lat="41.3283412" lon="1.9356402"><ele>389.75</ele><time>2026-04-27T09:03:38.418Z</time></trkpt><trkpt lat="41.3283267" lon="1.9354936"><ele>389.5</ele><time>2026-04-27T09:03:39.421Z</time></trkpt><trkpt lat="41.3283086" lon="1.9353391"><ele>389.25</ele><time>2026-04-27T09:03:40.417Z</time></trkpt><trkpt lat="41.3282807" lon="1.9351803"><ele>389.0</ele><time>2026-04-27T09:03:41.417Z</time></trkpt><trkpt lat="41.32825" lon="1.9350187"><ele>388.79999999999995</ele><time>2026-04-27T09:03:42.421Z</time></trkpt><trkpt lat="41.3282139" lon="1.9348687"><ele>388.59999999999997</ele><time>2026-04-27T09:03:43.414Z</time></trkpt><trkpt lat="41.3281735" lon="1.9347255"><ele>388.4</ele><time>2026-04-27T09:03:44.415Z</time></trkpt><trkpt lat="41.3281321" lon="1.9345939"><ele>388.2</ele><time>2026-04-27T09:03:45.423Z</time></trkpt><trkpt lat="41.32809" lon="1.9344723"><ele>388.0</ele><time>2026-04-27T09:03:46.423Z</time></trkpt><trkpt lat="41.32805" lon="1.9343569"><ele>388.79999999999995</ele><time>2026-04-27T09:03:47.421Z</time></trkpt><trkpt lat="41.3280105" lon="1.9342473"><ele>389.6</ele><time>2026-04-27T09:03:48.425Z</time></trkpt><trkpt lat="41.3279796" lon="1.934141"><ele>390.4</ele><time>2026-04-27T09:03:49.424Z</time></trkpt><trkpt lat="41.3279508" lon="1.934037"><ele>391.20000000000005</ele><time>2026-04-27T09:03:50.428Z</time></trkpt><trkpt lat="41.3279323" lon="1.9339396"><ele>392.0</ele><time>2026-04-27T09:03:51.426Z</time></trkpt><trkpt lat="41.3279018" lon="1.933789"><ele>391.99999999999994</ele><time>2026-04-27T09:03:53.418Z</time></trkpt><trkpt lat="41.327878" lon="1.9336925"><ele>392.0</ele><time>2026-04-27T09:03:55.415Z</time></trkpt><trkpt lat="41.3278483" lon="1.933615"><ele>392.0</ele><time>2026-04-27T09:04:12.421Z</time></trkpt><trkpt lat="41.3278247" lon="1.9335126"><ele>392.0</ele><time>2026-04-27T09:04:14.428Z</time></trkpt><trkpt lat="41.327815" lon="1.9334002"><ele>391.99999999999994</ele><time>2026-04-27T09:04:16.422Z</time></trkpt><trkpt lat="41.3277994" lon="1.9332901"><ele>392.0</ele><time>2026-04-27T09:04:18.427Z</time></trkpt><trkpt lat="41.3277969" lon="1.9331608"><ele>391.8333333333333</ele><time>2026-04-27T09:04:20.425Z</time></trkpt><trkpt lat="41.3277968" lon="1.933021"><ele>391.66666666666663</ele><time>2026-04-27T09:04:22.419Z</time></trkpt><trkpt lat="41.3278012" lon="1.9328945"><ele>391.5</ele><time>2026-04-27T09:04:24.414Z</time></trkpt><trkpt lat="41.3278102" lon="1.9327961"><ele>391.33333333333337</ele><time>2026-04-27T09:04:26.417Z</time></trkpt><trkpt lat="41.3277498" lon="1.9328522"><ele>391.1666666666667</ele><time>2026-04-27T09:04:38.405Z</time></trkpt><trkpt lat="41.3277438" lon="1.9329836"><ele>391.0</ele><time>2026-04-27T09:04:40.401Z</time></trkpt><trkpt lat="41.3277659" lon="1.9330719"><ele>391.00000000000006</ele><time>2026-04-27T09:05:09.414Z</time></trkpt><trkpt lat="41.3278294" lon="1.9330619"><ele>391.0</ele><time>2026-04-27T09:05:13.393Z</time></trkpt><trkpt lat="41.3278233" lon="1.9329591"><ele>391.0</ele><time>2026-04-27T09:07:53.401Z</time></trkpt><trkpt lat="41.3278221" lon="1.9328446"><ele>391.0</ele><time>2026-04-27T09:07:55.394Z</time></trkpt><trkpt lat="41.3278172" lon="1.9327508"><ele>391.00000000000006</ele><time>2026-04-27T09:07:56.393Z</time></trkpt><trkpt lat="41.3278182" lon="1.9326408"><ele>391.0</ele><time>2026-04-27T09:07:57.392Z</time></trkpt><trkpt lat="41.3278152" lon="1.9325149"><ele>390.4</ele><time>2026-04-27T09:07:58.397Z</time></trkpt><trkpt lat="41.3278102" lon="1.9323678"><ele>389.8</ele><time>2026-04-27T09:07:59.39Z</time></trkpt><trkpt lat="41.3278134" lon="1.9322283"><ele>389.2</ele><time>2026-04-27T09:08:00.398Z</time></trkpt><trkpt lat="41.3278234" lon="1.9320864"><ele>388.59999999999997</ele><time>2026-04-27T09:08:01.395Z</time></trkpt><trkpt lat="41.3278343" lon="1.9319333"><ele>388.0</ele><time>2026-04-27T09:08:02.423Z</time></trkpt><trkpt lat="41.3278407" lon="1.9317786"><ele>386.5</ele><time>2026-04-27T09:08:03.4Z</time></trkpt><trkpt lat="41.3278491" lon="1.9316249"><ele>385.0</ele><time>2026-04-27T09:08:04.397Z</time></trkpt><trkpt lat="41.3278582" lon="1.931455"><ele>383.5</ele><time>2026-04-27T09:08:05.403Z</time></trkpt><trkpt lat="41.327872" lon="1.931283"><ele>382.0</ele><time>2026-04-27T09:08:06.398Z</time></trkpt><trkpt lat="41.3278848" lon="1.9311069"><ele>382.0</ele><time>2026-04-27T09:08:07.4Z</time></trkpt><trkpt lat="41.3278979" lon="1.9309262"><ele>382.0</ele><time>2026-04-27T09:08:08.399Z</time></trkpt><trkpt lat="41.3279116" lon="1.9307453"><ele>382.0</ele><time>2026-04-27T09:08:09.4Z</time></trkpt><trkpt lat="41.3279241" lon="1.9305635"><ele>382.0</ele><time>2026-04-27T09:08:10.396Z</time></trkpt><trkpt lat="41.3279325" lon="1.9303853"><ele>382.5</ele><time>2026-04-27T09:08:11.399Z</time></trkpt><trkpt lat="41.3279436" lon="1.930206"><ele>383.0</ele><time>2026-04-27T09:08:12.399Z</time></trkpt><trkpt lat="41.327956" lon="1.9300214"><ele>383.5</ele><time>2026-04-27T09:08:13.399Z</time></trkpt><trkpt lat="41.3279721" lon="1.9298332"><ele>384.0</ele><time>2026-04-27T09:08:14.399Z</time></trkpt><trkpt lat="41.32799" lon="1.9296356"><ele>384.0</ele><time>2026-04-27T09:08:15.398Z</time></trkpt><trkpt lat="41.328003" lon="1.9294371"><ele>384.0</ele><time>2026-04-27T09:08:16.398Z</time></trkpt><trkpt lat="41.3280135" lon="1.9292349"><ele>384.0</ele><time>2026-04-27T09:08:17.4Z</time></trkpt><trkpt lat="41.3280251" lon="1.9290349"><ele>385.5</ele><time>2026-04-27T09:08:18.403Z</time></trkpt><trkpt lat="41.3280347" lon="1.9288318"><ele>387.0</ele><time>2026-04-27T09:08:19.4Z</time></trkpt><trkpt lat="41.3280461" lon="1.9286412"><ele>388.5</ele><time>2026-04-27T09:08:20.396Z</time></trkpt><trkpt lat="41.3280613" lon="1.9284457"><ele>390.0</ele><time>2026-04-27T09:08:21.395Z</time></trkpt><trkpt lat="41.3280798" lon="1.9282658"><ele>386.75</ele><time>2026-04-27T09:08:22.399Z</time></trkpt><trkpt lat="41.328094" lon="1.9280925"><ele>383.5</ele><time>2026-04-27T09:08:23.397Z</time></trkpt><trkpt lat="41.3281125" lon="1.9279284"><ele>380.25</ele><time>2026-04-27T09:08:24.395Z</time></trkpt><trkpt lat="41.3281361" lon="1.9277396"><ele>377.0</ele><time>2026-04-27T09:08:25.395Z</time></trkpt><trkpt lat="41.3281736" lon="1.9275337"><ele>377.0</ele><time>2026-04-27T09:08:26.394Z</time></trkpt><trkpt lat="41.3281953" lon="1.9274263"><ele>377.0</ele><time>2026-04-27T09:08:27.388Z</time></trkpt><trkpt lat="41.3282136" lon="1.9273111"><ele>377.0</ele><time>2026-04-27T09:08:28.389Z</time></trkpt><trkpt lat="41.3282293" lon="1.92719"><ele>377.0</ele><time>2026-04-27T09:08:29.39Z</time></trkpt><trkpt lat="41.3282528" lon="1.9270703"><ele>377.0</ele><time>2026-04-27T09:08:30.391Z</time></trkpt><trkpt lat="41.3282783" lon="1.9269583"><ele>377.0</ele><time>2026-04-27T09:08:31.393Z</time></trkpt><trkpt lat="41.3283097" lon="1.9268497"><ele>377.0</ele><time>2026-04-27T09:08:32.399Z</time></trkpt><trkpt lat="41.3283543" lon="1.9267514"><ele>377.0</ele><time>2026-04-27T09:08:33.39Z</time></trkpt><trkpt lat="41.3284117" lon="1.92667"><ele>377.0</ele><time>2026-04-27T09:08:34.393Z</time></trkpt><trkpt lat="41.3284562" lon="1.9265853"><ele>377.0</ele><time>2026-04-27T09:08:35.389Z</time></trkpt><trkpt lat="41.3284866" lon="1.9264914"><ele>377.0</ele><time>2026-04-27T09:08:36.389Z</time></trkpt><trkpt lat="41.3284976" lon="1.9264"><ele>377.0</ele><time>2026-04-27T09:08:37.388Z</time></trkpt><trkpt lat="41.3284961" lon="1.9263042"><ele>376.83333333333337</ele><time>2026-04-27T09:08:38.389Z</time></trkpt><trkpt lat="41.3284914" lon="1.9262098"><ele>376.6666666666667</ele><time>2026-04-27T09:08:39.398Z</time></trkpt><trkpt lat="41.3284865" lon="1.9261055"><ele>376.5</ele><time>2026-04-27T09:08:40.391Z</time></trkpt><trkpt lat="41.3285007" lon="1.9259883"><ele>376.3333333333333</ele><time>2026-04-27T09:08:41.393Z</time></trkpt><trkpt lat="41.3285262" lon="1.9258632"><ele>376.16666666666663</ele><time>2026-04-27T09:08:42.398Z</time></trkpt><trkpt lat="41.3285571" lon="1.9257339"><ele>376.0</ele><time>2026-04-27T09:08:43.401Z</time></trkpt><trkpt lat="41.3285891" lon="1.9256005"><ele>375.25</ele><time>2026-04-27T09:08:44.4Z</time></trkpt><trkpt lat="41.3286171" lon="1.9254612"><ele>374.5</ele><time>2026-04-27T09:08:45.398Z</time></trkpt><trkpt lat="41.3286464" lon="1.9253157"><ele>373.75</ele><time>2026-04-27T09:08:46.397Z</time></trkpt><trkpt lat="41.3286746" lon="1.925161"><ele>373.0</ele><time>2026-04-27T09:08:47.399Z</time></trkpt><trkpt lat="41.3286982" lon="1.9249983"><ele>372.75</ele><time>2026-04-27T09:08:48.4Z</time></trkpt><trkpt lat="41.3287206" lon="1.9248331"><ele>372.5</ele><time>2026-04-27T09:08:49.396Z</time></trkpt><trkpt lat="41.3287468" lon="1.9246709"><ele>372.25</ele><time>2026-04-27T09:08:50.396Z</time></trkpt><trkpt lat="41.3287701" lon="1.9245019"><ele>372.0</ele><time>2026-04-27T09:08:51.399Z</time></trkpt><trkpt lat="41.3287933" lon="1.9243345"><ele>371.75</ele><time>2026-04-27T09:08:52.399Z</time></trkpt><trkpt lat="41.3288149" lon="1.9241642"><ele>371.5</ele><time>2026-04-27T09:08:53.397Z</time></trkpt><trkpt lat="41.3288326" lon="1.9239923"><ele>371.25</ele><time>2026-04-27T09:08:54.4Z</time></trkpt><trkpt lat="41.3288494" lon="1.9238154"><ele>371.0</ele><time>2026-04-27T09:08:55.398Z</time></trkpt><trkpt lat="41.3288625" lon="1.9236372"><ele>371.0</ele><time>2026-04-27T09:08:56.399Z</time></trkpt><trkpt lat="41.3288749" lon="1.9234594"><ele>371.0</ele><time>2026-04-27T09:08:57.397Z</time></trkpt><trkpt lat="41.3288841" lon="1.9232791"><ele>371.0</ele><time>2026-04-27T09:08:58.4Z</time></trkpt><trkpt lat="41.3288903" lon="1.9231002"><ele>371.0</ele><time>2026-04-27T09:08:59.399Z</time></trkpt><trkpt lat="41.3288955" lon="1.922917"><ele>371.0</ele><time>2026-04-27T09:09:00.396Z</time></trkpt><trkpt lat="41.3288991" lon="1.9227343"><ele>371.0</ele><time>2026-04-27T09:09:01.399Z</time></trkpt><trkpt lat="41.3288998" lon="1.9225572"><ele>371.0</ele><time>2026-04-27T09:09:02.395Z</time></trkpt><trkpt lat="41.3288992" lon="1.9223872"><ele>371.0</ele><time>2026-04-27T09:09:03.409Z</time></trkpt><trkpt lat="41.3289016" lon="1.9222233"><ele>371.0</ele><time>2026-04-27T09:09:04.396Z</time></trkpt><trkpt lat="41.3289023" lon="1.9220609"><ele>371.0</ele><time>2026-04-27T09:09:05.397Z</time></trkpt><trkpt lat="41.328903" lon="1.921904"><ele>371.0</ele><time>2026-04-27T09:09:06.395Z</time></trkpt><trkpt lat="41.3289026" lon="1.9217496"><ele>371.0</ele><time>2026-04-27T09:09:07.397Z</time></trkpt><trkpt lat="41.3289011" lon="1.9215947"><ele>370.5</ele><time>2026-04-27T09:09:08.398Z</time></trkpt><trkpt lat="41.3289039" lon="1.9214403"><ele>370.0</ele><time>2026-04-27T09:09:09.397Z</time></trkpt><trkpt lat="41.3289021" lon="1.9212838"><ele>369.5</ele><time>2026-04-27T09:09:10.401Z</time></trkpt><trkpt lat="41.3289013" lon="1.9211274"><ele>369.0</ele><time>2026-04-27T09:09:11.402Z</time></trkpt><trkpt lat="41.3288996" lon="1.9209779"><ele>369.0</ele><time>2026-04-27T09:09:12.401Z</time></trkpt><trkpt lat="41.3288987" lon="1.9208407"><ele>369.0</ele><time>2026-04-27T09:09:13.403Z</time></trkpt><trkpt lat="41.3288995" lon="1.9207217"><ele>369.0</ele><time>2026-04-27T09:09:14.401Z</time></trkpt><trkpt lat="41.3289057" lon="1.9206164"><ele>369.0</ele><time>2026-04-27T09:09:15.402Z</time></trkpt><trkpt lat="41.3289144" lon="1.92052"><ele>369.0</ele><time>2026-04-27T09:09:16.402Z</time></trkpt><trkpt lat="41.3289421" lon="1.9204288"><ele>369.0</ele><time>2026-04-27T09:09:17.394Z</time></trkpt><trkpt lat="41.328985" lon="1.9203537"><ele>369.0</ele><time>2026-04-27T09:09:18.399Z</time></trkpt><trkpt lat="41.3290362" lon="1.9202956"><ele>369.0</ele><time>2026-04-27T09:09:19.396Z</time></trkpt><trkpt lat="41.3290892" lon="1.9202463"><ele>369.0</ele><time>2026-04-27T09:09:20.395Z</time></trkpt><trkpt lat="41.3292033" lon="1.9201935"><ele>369.0</ele><time>2026-04-27T09:09:22.401Z</time></trkpt><trkpt lat="41.3292671" lon="1.9201875"><ele>369.0</ele><time>2026-04-27T09:09:23.398Z</time></trkpt><trkpt lat="41.3293769" lon="1.9201611"><ele>369.0</ele><time>2026-04-27T09:09:25.398Z</time></trkpt><trkpt lat="41.3294589" lon="1.9200888"><ele>369.1666666666667</ele><time>2026-04-27T09:09:27.396Z</time></trkpt><trkpt lat="41.329479" lon="1.9199488"><ele>369.3333333333333</ele><time>2026-04-27T09:09:29.391Z</time></trkpt><trkpt lat="41.3294731" lon="1.9198588"><ele>369.5</ele><time>2026-04-27T09:09:30.393Z</time></trkpt><trkpt lat="41.3294619" lon="1.9197591"><ele>369.66666666666663</ele><time>2026-04-27T09:09:31.389Z</time></trkpt><trkpt lat="41.329449" lon="1.919659"><ele>369.8333333333333</ele><time>2026-04-27T09:09:32.386Z</time></trkpt><trkpt lat="41.329431" lon="1.9195493"><ele>370.0</ele><time>2026-04-27T09:09:33.386Z</time></trkpt><trkpt lat="41.3294167" lon="1.9194528"><ele>370.0</ele><time>2026-04-27T09:09:34.399Z</time></trkpt><trkpt lat="41.3294058" lon="1.9193542"><ele>370.0</ele><time>2026-04-27T09:09:35.388Z</time></trkpt><trkpt lat="41.329402" lon="1.9192342"><ele>370.0</ele><time>2026-04-27T09:09:36.389Z</time></trkpt><trkpt lat="41.329399" lon="1.9191023"><ele>370.0</ele><time>2026-04-27T09:09:37.392Z</time></trkpt><trkpt lat="41.3294051" lon="1.9189634"><ele>370.0</ele><time>2026-04-27T09:09:38.391Z</time></trkpt><trkpt lat="41.3294269" lon="1.918828"><ele>370.0</ele><time>2026-04-27T09:09:39.392Z</time></trkpt><trkpt lat="41.3294564" lon="1.9186982"><ele>370.0</ele><time>2026-04-27T09:09:40.392Z</time></trkpt><trkpt lat="41.3294894" lon="1.9185797"><ele>370.0</ele><time>2026-04-27T09:09:41.392Z</time></trkpt><trkpt lat="41.3295348" lon="1.9184743"><ele>370.0</ele><time>2026-04-27T09:09:42.394Z</time></trkpt><trkpt lat="41.329595" lon="1.9183718"><ele>370.0</ele><time>2026-04-27T09:09:43.39Z</time></trkpt><trkpt lat="41.3296601" lon="1.918276"><ele>369.8</ele><time>2026-04-27T09:09:44.396Z</time></trkpt><trkpt lat="41.3297254" lon="1.9181885"><ele>369.6</ele><time>2026-04-27T09:09:45.391Z</time></trkpt><trkpt lat="41.3297887" lon="1.9181062"><ele>369.4</ele><time>2026-04-27T09:09:46.396Z</time></trkpt><trkpt lat="41.329859" lon="1.9180343"><ele>369.2</ele><time>2026-04-27T09:09:47.393Z</time></trkpt><trkpt lat="41.3299258" lon="1.9179767"><ele>369.0</ele><time>2026-04-27T09:09:48.391Z</time></trkpt><trkpt lat="41.3300245" lon="1.9179156"><ele>369.0</ele><time>2026-04-27T09:09:50.39Z</time></trkpt><trkpt lat="41.330107" lon="1.9179283"><ele>369.0</ele><time>2026-04-27T09:09:52.397Z</time></trkpt><trkpt lat="41.3301694" lon="1.9180563"><ele>369.0</ele><time>2026-04-27T09:09:54.394Z</time></trkpt><trkpt lat="41.3302029" lon="1.9181299"><ele>369.0</ele><time>2026-04-27T09:09:55.406Z</time></trkpt><trkpt lat="41.3302465" lon="1.9181915"><ele>369.0</ele><time>2026-04-27T09:09:56.396Z</time></trkpt><trkpt lat="41.3302911" lon="1.9182509"><ele>369.0</ele><time>2026-04-27T09:09:57.395Z</time></trkpt><trkpt lat="41.3303802" lon="1.9183702"><ele>369.0</ele><time>2026-04-27T09:09:59.393Z</time></trkpt><trkpt lat="41.3304646" lon="1.9184949"><ele>369.0</ele><time>2026-04-27T09:10:01.395Z</time></trkpt><trkpt lat="41.3305075" lon="1.9185581"><ele>369.0</ele><time>2026-04-27T09:10:02.394Z</time></trkpt><trkpt lat="41.33055" lon="1.918621"><ele>369.0</ele><time>2026-04-27T09:10:03.393Z</time></trkpt><trkpt lat="41.3305907" lon="1.918685"><ele>369.0</ele><time>2026-04-27T09:10:04.391Z</time></trkpt><trkpt lat="41.3306368" lon="1.9187479"><ele>369.0</ele><time>2026-04-27T09:10:05.403Z</time></trkpt><trkpt lat="41.3306888" lon="1.9188078"><ele>368.6666666666667</ele><time>2026-04-27T09:10:06.396Z</time></trkpt><trkpt lat="41.3307504" lon="1.9188603"><ele>368.3333333333333</ele><time>2026-04-27T09:10:07.396Z</time></trkpt><trkpt lat="41.3308159" lon="1.9189196"><ele>368.0</ele><time>2026-04-27T09:10:08.396Z</time></trkpt><trkpt lat="41.3308915" lon="1.9189681"><ele>367.66666666666663</ele><time>2026-04-27T09:10:09.394Z</time></trkpt><trkpt lat="41.330972" lon="1.9190178"><ele>367.3333333333333</ele><time>2026-04-27T09:10:10.395Z</time></trkpt><trkpt lat="41.3310557" lon="1.919072"><ele>367.0</ele><time>2026-04-27T09:10:11.397Z</time></trkpt><trkpt lat="41.3311421" lon="1.919129"><ele>367.0</ele><time>2026-04-27T09:10:12.395Z</time></trkpt><trkpt lat="41.3312305" lon="1.9191796"><ele>367.0</ele><time>2026-04-27T09:10:13.399Z</time></trkpt><trkpt lat="41.3313218" lon="1.9192285"><ele>367.0</ele><time>2026-04-27T09:10:14.399Z</time></trkpt><trkpt lat="41.3314014" lon="1.9192764"><ele>367.0</ele><time>2026-04-27T09:10:15.393Z</time></trkpt><trkpt lat="41.33147" lon="1.9193153"><ele>367.0</ele><time>2026-04-27T09:10:16.389Z</time></trkpt><trkpt lat="41.3315718" lon="1.9193517"><ele>367.20000000000005</ele><time>2026-04-27T09:10:18.395Z</time></trkpt><trkpt lat="41.3316248" lon="1.9194501"><ele>367.4</ele><time>2026-04-27T09:10:21.397Z</time></trkpt><trkpt lat="41.3315591" lon="1.9195667"><ele>367.6</ele><time>2026-04-27T09:10:23.391Z</time></trkpt><trkpt lat="41.3314825" lon="1.9197123"><ele>367.79999999999995</ele><time>2026-04-27T09:10:25.393Z</time></trkpt><trkpt lat="41.331435" lon="1.9198072"><ele>368.0</ele><time>2026-04-27T09:10:26.391Z</time></trkpt><trkpt lat="41.3313833" lon="1.9199076"><ele>368.0</ele><time>2026-04-27T09:10:27.394Z</time></trkpt><trkpt lat="41.3313436" lon="1.9200123"><ele>368.0</ele><time>2026-04-27T09:10:28.395Z</time></trkpt><trkpt lat="41.3313066" lon="1.9201084"><ele>368.0</ele><time>2026-04-27T09:10:29.397Z</time></trkpt><trkpt lat="41.3312729" lon="1.920208"><ele>368.0</ele><time>2026-04-27T09:10:30.396Z</time></trkpt><trkpt lat="41.3312395" lon="1.9203055"><ele>368.0</ele><time>2026-04-27T09:10:31.391Z</time></trkpt><trkpt lat="41.3312023" lon="1.9204097"><ele>368.0</ele><time>2026-04-27T09:10:32.395Z</time></trkpt><trkpt lat="41.3311605" lon="1.9205128"><ele>368.1666666666667</ele><time>2026-04-27T09:10:33.395Z</time></trkpt><trkpt lat="41.3311217" lon="1.9206178"><ele>368.33333333333337</ele><time>2026-04-27T09:10:34.395Z</time></trkpt><trkpt lat="41.331092" lon="1.9207179"><ele>368.5</ele><time>2026-04-27T09:10:35.395Z</time></trkpt><trkpt lat="41.3310767" lon="1.920813"><ele>368.6666666666667</ele><time>2026-04-27T09:10:36.406Z</time></trkpt><trkpt lat="41.33107" lon="1.9209003"><ele>368.8333333333333</ele><time>2026-04-27T09:10:37.389Z</time></trkpt><trkpt lat="41.33107" lon="1.9209887"><ele>369.0</ele><time>2026-04-27T09:10:38.387Z</time></trkpt><trkpt lat="41.3310575" lon="1.921164"><ele>369.1666666666667</ele><time>2026-04-27T09:10:40.385Z</time></trkpt><trkpt lat="41.3310524" lon="1.9212671"><ele>369.3333333333333</ele><time>2026-04-27T09:10:41.386Z</time></trkpt><trkpt lat="41.3310568" lon="1.921363"><ele>369.5</ele><time>2026-04-27T09:10:42.39Z</time></trkpt><trkpt lat="41.3310655" lon="1.9214546"><ele>369.66666666666663</ele><time>2026-04-27T09:10:43.394Z</time></trkpt><trkpt lat="41.3310741" lon="1.9215405"><ele>369.8333333333333</ele><time>2026-04-27T09:10:44.388Z</time></trkpt><trkpt lat="41.3310767" lon="1.9216243"><ele>370.0</ele><time>2026-04-27T09:10:45.39Z</time></trkpt><trkpt lat="41.3310766" lon="1.9217836"><ele>370.66666666666663</ele><time>2026-04-27T09:10:47.39Z</time></trkpt><trkpt lat="41.3310666" lon="1.921899"><ele>371.3333333333333</ele><time>2026-04-27T09:10:49.392Z</time></trkpt><trkpt lat="41.3310326" lon="1.9220005"><ele>372.0</ele><time>2026-04-27T09:10:51.392Z</time></trkpt><trkpt lat="41.3309919" lon="1.9220871"><ele>372.6666666666667</ele><time>2026-04-27T09:10:53.393Z</time></trkpt><trkpt lat="41.3309597" lon="1.9221954"><ele>373.33333333333337</ele><time>2026-04-27T09:10:55.394Z</time></trkpt><trkpt lat="41.3309428" lon="1.9222936"><ele>374.0</ele><time>2026-04-27T09:10:57.397Z</time></trkpt><trkpt lat="41.3309257" lon="1.9223911"><ele>374.0</ele><time>2026-04-27T09:11:00.385Z</time></trkpt><trkpt lat="41.3308992" lon="1.9224831"><ele>374.0</ele><time>2026-04-27T09:11:04.39Z</time></trkpt><trkpt lat="41.3309558" lon="1.9224192"><ele>374.0</ele><time>2026-04-27T09:11:43.399Z</time></trkpt><trkpt lat="41.3310189" lon="1.9224219"><ele>374.0</ele><time>2026-04-27T09:11:47.397Z</time></trkpt><trkpt lat="41.3310944" lon="1.9224558"><ele>374.0</ele><time>2026-04-27T09:11:57.402Z</time></trkpt><trkpt lat="41.3311538" lon="1.922484"><ele>374.0</ele><time>2026-04-27T09:12:00.398Z</time></trkpt><trkpt lat="41.3312235" lon="1.9225161"><ele>374.0</ele><time>2026-04-27T09:12:04.393Z</time></trkpt><trkpt lat="41.3312936" lon="1.9225295"><ele>374.0</ele><time>2026-04-27T09:12:09.411Z</time></trkpt><trkpt lat="41.3313603" lon="1.9225457"><ele>374.0</ele><time>2026-04-27T09:12:13.395Z</time></trkpt><trkpt lat="41.3314278" lon="1.9225938"><ele>374.0</ele><time>2026-04-27T09:12:17.391Z</time></trkpt><trkpt lat="41.3314991" lon="1.9226135"><ele>374.0</ele><time>2026-04-27T09:12:22.399Z</time></trkpt><trkpt lat="41.3315658" lon="1.9226119"><ele>374.0</ele><time>2026-04-27T09:12:26.391Z</time></trkpt><trkpt lat="41.3316468" lon="1.9226129"><ele>374.0</ele><time>2026-04-27T09:12:32.402Z</time></trkpt><trkpt lat="41.3317057" lon="1.9225499"><ele>374.0</ele><time>2026-04-27T09:12:41.399Z</time></trkpt><trkpt lat="41.3317314" lon="1.9224719"><ele>373.0</ele><time>2026-04-27T09:12:47.394Z</time></trkpt><trkpt lat="41.3317683" lon="1.9224006"><ele>373.0</ele><time>2026-04-27T09:12:53.397Z</time></trkpt><trkpt lat="41.3317589" lon="1.9223027"><ele>373.0</ele><time>2026-04-27T09:13:00.395Z</time></trkpt><trkpt lat="41.3317388" lon="1.9222097"><ele>373.0</ele><time>2026-04-27T09:13:06.394Z</time></trkpt></trkseg><trkseg><trkpt lat="41.3292028" lon="1.9227934"><ele>371.0</ele><time>2026-04-27T10:13:53.757Z</time></trkpt><trkpt lat="41.3291442" lon="1.922759"><ele>371.0</ele><time>2026-04-27T10:13:57.753Z</time></trkpt><trkpt lat="41.32912" lon="1.9226742"><ele>371.0</ele><time>2026-04-27T10:14:05.776Z</time></trkpt><trkpt lat="41.3290487" lon="1.9226379"><ele>371.0</ele><time>2026-04-27T10:14:10.773Z</time></trkpt><trkpt lat="41.3289818" lon="1.9226027"><ele>371.0</ele><time>2026-04-27T10:14:16.818Z</time></trkpt><trkpt lat="41.3289946" lon="1.9227476"><ele>371.0</ele><time>2026-04-27T10:15:41.394Z</time></trkpt><trkpt lat="41.3290194" lon="1.9228905"><ele>371.0</ele><time>2026-04-27T10:15:43.401Z</time></trkpt><trkpt lat="41.3290353" lon="1.9230477"><ele>371.0</ele><time>2026-04-27T10:15:45.389Z</time></trkpt><trkpt lat="41.3290421" lon="1.92319"><ele>371.0</ele><time>2026-04-27T10:15:47.41Z</time></trkpt><trkpt lat="41.329038" lon="1.9232993"><ele>371.0</ele><time>2026-04-27T10:15:49.409Z</time></trkpt><trkpt lat="41.3290681" lon="1.9232169"><ele>371.0</ele><time>2026-04-27T10:15:55.402Z</time></trkpt><trkpt lat="41.3290733" lon="1.9230956"><ele>371.0</ele><time>2026-04-27T10:15:57.402Z</time></trkpt><trkpt lat="41.3290771" lon="1.9229183"><ele>371.0</ele><time>2026-04-27T10:15:59.396Z</time></trkpt><trkpt lat="41.3290792" lon="1.9228071"><ele>371.0</ele><time>2026-04-27T10:16:00.392Z</time></trkpt><trkpt lat="41.3290823" lon="1.9226983"><ele>371.0</ele><time>2026-04-27T10:16:01.399Z</time></trkpt><trkpt lat="41.3290849" lon="1.9225996"><ele>371.0</ele><time>2026-04-27T10:16:02.394Z</time></trkpt><trkpt lat="41.3290857" lon="1.9225073"><ele>371.0</ele><time>2026-04-27T10:16:03.394Z</time></trkpt><trkpt lat="41.3290873" lon="1.9224219"><ele>371.0</ele><time>2026-04-27T10:16:04.39Z</time></trkpt><trkpt lat="41.3291132" lon="1.9222746"><ele>371.0</ele><time>2026-04-27T10:16:06.389Z</time></trkpt><trkpt lat="41.3291925" lon="1.922195"><ele>371.0</ele><time>2026-04-27T10:16:08.401Z</time></trkpt><trkpt lat="41.3292581" lon="1.9222072"><ele>371.0</ele><time>2026-04-27T10:16:09.389Z</time></trkpt><trkpt lat="41.3293401" lon="1.9222389"><ele>371.0</ele><time>2026-04-27T10:16:10.388Z</time></trkpt><trkpt lat="41.3294232" lon="1.9222828"><ele>371.0</ele><time>2026-04-27T10:16:11.394Z</time></trkpt><trkpt lat="41.3295069" lon="1.9223371"><ele>371.0</ele><time>2026-04-27T10:16:12.395Z</time></trkpt><trkpt lat="41.329591" lon="1.9223887"><ele>371.0</ele><time>2026-04-27T10:16:13.397Z</time></trkpt><trkpt lat="41.3296707" lon="1.9224377"><ele>371.0</ele><time>2026-04-27T10:16:14.39Z</time></trkpt><trkpt lat="41.3297518" lon="1.9224782"><ele>371.0</ele><time>2026-04-27T10:16:15.397Z</time></trkpt><trkpt lat="41.3298302" lon="1.9225124"><ele>371.0</ele><time>2026-04-27T10:16:16.39Z</time></trkpt><trkpt lat="41.3299074" lon="1.9225485"><ele>371.20000000000005</ele><time>2026-04-27T10:16:17.404Z</time></trkpt><trkpt lat="41.3299825" lon="1.9225828"><ele>371.40000000000003</ele><time>2026-04-27T10:16:18.399Z</time></trkpt><trkpt lat="41.3300512" lon="1.9226074"><ele>371.6</ele><time>2026-04-27T10:16:19.394Z</time></trkpt><trkpt lat="41.3301585" lon="1.9226482"><ele>371.8</ele><time>2026-04-27T10:16:21.396Z</time></trkpt><trkpt lat="41.3301701" lon="1.9227484"><ele>372.0</ele><time>2026-04-27T10:16:23.394Z</time></trkpt><trkpt lat="41.3301132" lon="1.9228781"><ele>372.0</ele><time>2026-04-27T10:16:25.393Z</time></trkpt><trkpt lat="41.3300704" lon="1.9230063"><ele>372.0</ele><time>2026-04-27T10:16:27.393Z</time></trkpt><trkpt lat="41.3300369" lon="1.9231311"><ele>372.0</ele><time>2026-04-27T10:16:29.39Z</time></trkpt><trkpt lat="41.3300073" lon="1.9232682"><ele>372.0</ele><time>2026-04-27T10:16:31.395Z</time></trkpt><trkpt lat="41.3299828" lon="1.923382"><ele>372.0</ele><time>2026-04-27T10:16:33.396Z</time></trkpt><trkpt lat="41.3299639" lon="1.9234866"><ele>372.5</ele><time>2026-04-27T10:16:35.389Z</time></trkpt><trkpt lat="41.329945" lon="1.9236166"><ele>373.0</ele><time>2026-04-27T10:16:37.392Z</time></trkpt><trkpt lat="41.3299149" lon="1.9237772"><ele>373.5</ele><time>2026-04-27T10:16:39.391Z</time></trkpt><trkpt lat="41.3298947" lon="1.9238674"><ele>374.0</ele><time>2026-04-27T10:16:40.385Z</time></trkpt><trkpt lat="41.3298709" lon="1.923963"><ele>374.5</ele><time>2026-04-27T10:16:41.389Z</time></trkpt><trkpt lat="41.3298504" lon="1.924058"><ele>375.0</ele><time>2026-04-27T10:16:42.384Z</time></trkpt><trkpt lat="41.3298281" lon="1.9241497"><ele>375.1666666666667</ele><time>2026-04-27T10:16:43.389Z</time></trkpt><trkpt lat="41.3298081" lon="1.9242336"><ele>375.3333333333333</ele><time>2026-04-27T10:16:44.387Z</time></trkpt><trkpt lat="41.3297671" lon="1.9243914"><ele>375.5</ele><time>2026-04-27T10:16:46.387Z</time></trkpt><trkpt lat="41.3297467" lon="1.9244792"><ele>375.66666666666663</ele><time>2026-04-27T10:16:47.397Z</time></trkpt><trkpt lat="41.3297253" lon="1.9245717"><ele>375.8333333333333</ele><time>2026-04-27T10:16:48.39Z</time></trkpt><trkpt lat="41.3297061" lon="1.9246673"><ele>376.0</ele><time>2026-04-27T10:16:49.397Z</time></trkpt><trkpt lat="41.3296857" lon="1.9247721"><ele>376.0</ele><time>2026-04-27T10:16:50.393Z</time></trkpt><trkpt lat="41.3296638" lon="1.9248847"><ele>376.0</ele><time>2026-04-27T10:16:51.411Z</time></trkpt><trkpt lat="41.3296424" lon="1.9249979"><ele>376.0</ele><time>2026-04-27T10:16:52.39Z</time></trkpt><trkpt lat="41.329619" lon="1.9251144"><ele>376.0</ele><time>2026-04-27T10:16:53.397Z</time></trkpt><trkpt lat="41.3295924" lon="1.9252363"><ele>376.0</ele><time>2026-04-27T10:16:54.392Z</time></trkpt><trkpt lat="41.3295646" lon="1.9253657"><ele>376.0</ele><time>2026-04-27T10:16:55.392Z</time></trkpt><trkpt lat="41.3295381" lon="1.9254846"><ele>376.0</ele><time>2026-04-27T10:16:56.385Z</time></trkpt><trkpt lat="41.3295162" lon="1.9255963"><ele>376.0</ele><time>2026-04-27T10:16:57.381Z</time></trkpt><trkpt lat="41.3294954" lon="1.9256997"><ele>376.0</ele><time>2026-04-27T10:16:58.384Z</time></trkpt><trkpt lat="41.3294737" lon="1.9257955"><ele>376.0</ele><time>2026-04-27T10:16:59.383Z</time></trkpt><trkpt lat="41.329455" lon="1.9258869"><ele>376.0</ele><time>2026-04-27T10:17:00.385Z</time></trkpt><trkpt lat="41.3294376" lon="1.9259801"><ele>376.66666666666663</ele><time>2026-04-27T10:17:01.397Z</time></trkpt><trkpt lat="41.3294207" lon="1.9260761"><ele>377.3333333333333</ele><time>2026-04-27T10:17:02.39Z</time></trkpt><trkpt lat="41.3294053" lon="1.9261814"><ele>378.0</ele><time>2026-04-27T10:17:03.395Z</time></trkpt><trkpt lat="41.3293883" lon="1.9262928"><ele>378.6666666666667</ele><time>2026-04-27T10:17:04.392Z</time></trkpt><trkpt lat="41.3293652" lon="1.9264124"><ele>379.33333333333337</ele><time>2026-04-27T10:17:05.394Z</time></trkpt><trkpt lat="41.3293401" lon="1.9265313"><ele>380.0</ele><time>2026-04-27T10:17:06.389Z</time></trkpt><trkpt lat="41.3293103" lon="1.9266458"><ele>380.0</ele><time>2026-04-27T10:17:07.386Z</time></trkpt><trkpt lat="41.3292804" lon="1.9267556"><ele>380.0</ele><time>2026-04-27T10:17:08.385Z</time></trkpt><trkpt lat="41.3292575" lon="1.9268455"><ele>380.0</ele><time>2026-04-27T10:17:09.385Z</time></trkpt><trkpt lat="41.3292227" lon="1.9269481"><ele>380.0</ele><time>2026-04-27T10:17:11.397Z</time></trkpt><trkpt lat="41.3291268" lon="1.9269302"><ele>380.0</ele><time>2026-04-27T10:17:14.392Z</time></trkpt><trkpt lat="41.3290311" lon="1.9268668"><ele>380.0</ele><time>2026-04-27T10:17:16.389Z</time></trkpt><trkpt lat="41.3289729" lon="1.9268325"><ele>380.0</ele><time>2026-04-27T10:17:17.391Z</time></trkpt><trkpt lat="41.3289075" lon="1.9268044"><ele>380.0</ele><time>2026-04-27T10:17:18.389Z</time></trkpt><trkpt lat="41.3288407" lon="1.9267756"><ele>380.0</ele><time>2026-04-27T10:17:19.391Z</time></trkpt><trkpt lat="41.3287739" lon="1.9267503"><ele>380.0</ele><time>2026-04-27T10:17:20.385Z</time></trkpt><trkpt lat="41.3287069" lon="1.9267295"><ele>380.0</ele><time>2026-04-27T10:17:21.393Z</time></trkpt><trkpt lat="41.3286411" lon="1.9267059"><ele>380.0</ele><time>2026-04-27T10:17:22.406Z</time></trkpt><trkpt lat="41.3285784" lon="1.9266677"><ele>380.0</ele><time>2026-04-27T10:17:23.385Z</time></trkpt><trkpt lat="41.3285183" lon="1.9266136"><ele>379.2</ele><time>2026-04-27T10:17:24.39Z</time></trkpt><trkpt lat="41.3284686" lon="1.9265463"><ele>378.4</ele><time>2026-04-27T10:17:25.388Z</time></trkpt><trkpt lat="41.3284311" lon="1.9264759"><ele>377.6</ele><time>2026-04-27T10:17:26.384Z</time></trkpt><trkpt lat="41.3283523" lon="1.9263643"><ele>376.8</ele><time>2026-04-27T10:17:28.388Z</time></trkpt><trkpt lat="41.3282401" lon="1.9263762"><ele>376.0</ele><time>2026-04-27T10:17:30.391Z</time></trkpt><trkpt lat="41.3281611" lon="1.9265037"><ele>376.0</ele><time>2026-04-27T10:17:32.389Z</time></trkpt><trkpt lat="41.3281513" lon="1.9265936"><ele>376.0</ele><time>2026-04-27T10:17:33.389Z</time></trkpt><trkpt lat="41.3281674" lon="1.9266924"><ele>376.0</ele><time>2026-04-27T10:17:34.385Z</time></trkpt><trkpt lat="41.3281908" lon="1.9268003"><ele>376.0</ele><time>2026-04-27T10:17:35.381Z</time></trkpt><trkpt lat="41.3282133" lon="1.9269211"><ele>376.0</ele><time>2026-04-27T10:17:36.386Z</time></trkpt><trkpt lat="41.3282261" lon="1.9270495"><ele>376.0</ele><time>2026-04-27T10:17:37.383Z</time></trkpt><trkpt lat="41.3282262" lon="1.9271867"><ele>376.25</ele><time>2026-04-27T10:17:38.384Z</time></trkpt><trkpt lat="41.3282128" lon="1.9273266"><ele>376.5</ele><time>2026-04-27T10:17:39.386Z</time></trkpt><trkpt lat="41.3281882" lon="1.9274711"><ele>376.75</ele><time>2026-04-27T10:17:40.386Z</time></trkpt><trkpt lat="41.3281618" lon="1.9276254"><ele>377.0</ele><time>2026-04-27T10:17:41.389Z</time></trkpt><trkpt lat="41.3281314" lon="1.9277828"><ele>377.0</ele><time>2026-04-27T10:17:42.387Z</time></trkpt><trkpt lat="41.3281039" lon="1.9279485"><ele>377.0</ele><time>2026-04-27T10:17:43.387Z</time></trkpt><trkpt lat="41.3280788" lon="1.928128"><ele>377.0</ele><time>2026-04-27T10:17:44.382Z</time></trkpt><trkpt lat="41.3280602" lon="1.9283128"><ele>377.0</ele><time>2026-04-27T10:17:45.39Z</time></trkpt><trkpt lat="41.3280407" lon="1.9284984"><ele>378.75</ele><time>2026-04-27T10:17:46.389Z</time></trkpt><trkpt lat="41.3280209" lon="1.9286869"><ele>380.5</ele><time>2026-04-27T10:17:47.389Z</time></trkpt><trkpt lat="41.3280058" lon="1.9288739"><ele>382.25</ele><time>2026-04-27T10:17:48.388Z</time></trkpt><trkpt lat="41.3279925" lon="1.9290608"><ele>384.0</ele><time>2026-04-27T10:17:49.386Z</time></trkpt><trkpt lat="41.3279818" lon="1.9292451"><ele>384.0</ele><time>2026-04-27T10:17:50.389Z</time></trkpt><trkpt lat="41.3279727" lon="1.9294314"><ele>384.0</ele><time>2026-04-27T10:17:51.392Z</time></trkpt><trkpt lat="41.3279618" lon="1.9296198"><ele>384.0</ele><time>2026-04-27T10:17:52.385Z</time></trkpt><trkpt lat="41.3279524" lon="1.9298084"><ele>384.0</ele><time>2026-04-27T10:17:53.405Z</time></trkpt><trkpt lat="41.327939" lon="1.9300003"><ele>382.0</ele><time>2026-04-27T10:17:54.392Z</time></trkpt><trkpt lat="41.3279237" lon="1.9301956"><ele>380.0</ele><time>2026-04-27T10:17:55.384Z</time></trkpt><trkpt lat="41.327909" lon="1.9303981"><ele>378.0</ele><time>2026-04-27T10:17:56.385Z</time></trkpt><trkpt lat="41.3278945" lon="1.9305938"><ele>376.0</ele><time>2026-04-27T10:17:57.385Z</time></trkpt><trkpt lat="41.3278893" lon="1.9308008"><ele>378.0</ele><time>2026-04-27T10:17:58.391Z</time></trkpt><trkpt lat="41.3278759" lon="1.931002"><ele>380.0</ele><time>2026-04-27T10:17:59.391Z</time></trkpt><trkpt lat="41.3278559" lon="1.9312053"><ele>382.0</ele><time>2026-04-27T10:18:00.385Z</time></trkpt><trkpt lat="41.3278419" lon="1.9314134"><ele>382.0</ele><time>2026-04-27T10:18:01.388Z</time></trkpt><trkpt lat="41.3278312" lon="1.9316223"><ele>382.0</ele><time>2026-04-27T10:18:02.383Z</time></trkpt><trkpt lat="41.3278219" lon="1.931842"><ele>382.0</ele><time>2026-04-27T10:18:03.383Z</time></trkpt><trkpt lat="41.3278109" lon="1.9320617"><ele>384.0</ele><time>2026-04-27T10:18:04.384Z</time></trkpt><trkpt lat="41.327797" lon="1.9322809"><ele>386.0</ele><time>2026-04-27T10:18:05.385Z</time></trkpt><trkpt lat="41.3277845" lon="1.932499"><ele>388.0</ele><time>2026-04-27T10:18:06.384Z</time></trkpt><trkpt lat="41.3277694" lon="1.9327126"><ele>389.0</ele><time>2026-04-27T10:18:07.388Z</time></trkpt><trkpt lat="41.3277603" lon="1.9329254"><ele>390.0</ele><time>2026-04-27T10:18:08.38Z</time></trkpt><trkpt lat="41.3277542" lon="1.933139"><ele>391.0</ele><time>2026-04-27T10:18:09.375Z</time></trkpt><trkpt lat="41.3277645" lon="1.9333498"><ele>391.33333333333337</ele><time>2026-04-27T10:18:10.38Z</time></trkpt><trkpt lat="41.3277873" lon="1.9335591"><ele>391.66666666666663</ele><time>2026-04-27T10:18:11.381Z</time></trkpt><trkpt lat="41.327815" lon="1.9337633"><ele>392.0</ele><time>2026-04-27T10:18:12.383Z</time></trkpt><trkpt lat="41.3278554" lon="1.9339628"><ele>392.0</ele><time>2026-04-27T10:18:13.382Z</time></trkpt><trkpt lat="41.3279041" lon="1.9341576"><ele>392.0</ele><time>2026-04-27T10:18:14.383Z</time></trkpt><trkpt lat="41.3279601" lon="1.934348"><ele>392.0</ele><time>2026-04-27T10:18:15.385Z</time></trkpt><trkpt lat="41.3280228" lon="1.9345396"><ele>391.0</ele><time>2026-04-27T10:18:16.378Z</time></trkpt><trkpt lat="41.3280828" lon="1.9347369"><ele>390.0</ele><time>2026-04-27T10:18:17.381Z</time></trkpt><trkpt lat="41.3281392" lon="1.934933"><ele>389.0</ele><time>2026-04-27T10:18:18.378Z</time></trkpt><trkpt lat="41.328194" lon="1.9351284"><ele>389.0</ele><time>2026-04-27T10:18:19.383Z</time></trkpt><trkpt lat="41.3282384" lon="1.9353195"><ele>389.0</ele><time>2026-04-27T10:18:20.384Z</time></trkpt><trkpt lat="41.328275" lon="1.935512"><ele>389.0</ele><time>2026-04-27T10:18:21.39Z</time></trkpt><trkpt lat="41.3283031" lon="1.9357154"><ele>389.3333333333333</ele><time>2026-04-27T10:18:22.389Z</time></trkpt><trkpt lat="41.3283186" lon="1.9359203"><ele>389.66666666666663</ele><time>2026-04-27T10:18:23.394Z</time></trkpt><trkpt lat="41.3283174" lon="1.9361246"><ele>390.0</ele><time>2026-04-27T10:18:24.408Z</time></trkpt><trkpt lat="41.3283074" lon="1.936323"><ele>390.0</ele><time>2026-04-27T10:18:25.401Z</time></trkpt><trkpt lat="41.3282972" lon="1.9365132"><ele>390.0</ele><time>2026-04-27T10:18:26.39Z</time></trkpt><trkpt lat="41.3282861" lon="1.9366981"><ele>390.0</ele><time>2026-04-27T10:18:27.395Z</time></trkpt><trkpt lat="41.3282734" lon="1.9368781"><ele>390.0</ele><time>2026-04-27T10:18:28.391Z</time></trkpt><trkpt lat="41.3282606" lon="1.9370609"><ele>390.25</ele><time>2026-04-27T10:18:29.393Z</time></trkpt><trkpt lat="41.3282406" lon="1.937241"><ele>390.5</ele><time>2026-04-27T10:18:30.393Z</time></trkpt><trkpt lat="41.3282265" lon="1.9374091"><ele>390.75</ele><time>2026-04-27T10:18:31.396Z</time></trkpt><trkpt lat="41.3282152" lon="1.9375462"><ele>391.0</ele><time>2026-04-27T10:18:32.386Z</time></trkpt><trkpt lat="41.3281931" lon="1.9376684"><ele>391.00000000000006</ele><time>2026-04-27T10:18:33.388Z</time></trkpt><trkpt lat="41.3281666" lon="1.9377838"><ele>391.0</ele><time>2026-04-27T10:18:34.392Z</time></trkpt><trkpt lat="41.3281209" lon="1.9378715"><ele>391.0</ele><time>2026-04-27T10:18:35.388Z</time></trkpt><trkpt lat="41.3280682" lon="1.9379563"><ele>391.0</ele><time>2026-04-27T10:18:36.392Z</time></trkpt><trkpt lat="41.3280366" lon="1.93805"><ele>391.00000000000006</ele><time>2026-04-27T10:18:37.386Z</time></trkpt><trkpt lat="41.3280328" lon="1.9381442"><ele>391.0</ele><time>2026-04-27T10:18:38.386Z</time></trkpt><trkpt lat="41.3280461" lon="1.9382371"><ele>391.00000000000006</ele><time>2026-04-27T10:18:39.392Z</time></trkpt><trkpt lat="41.3280774" lon="1.938313"><ele>391.0</ele><time>2026-04-27T10:18:40.395Z</time></trkpt><trkpt lat="41.3281615" lon="1.9383686"><ele>391.0</ele><time>2026-04-27T10:18:42.392Z</time></trkpt><trkpt lat="41.3282447" lon="1.9383095"><ele>391.0</ele><time>2026-04-27T10:18:44.395Z</time></trkpt><trkpt lat="41.3283218" lon="1.9381894"><ele>391.00000000000006</ele><time>2026-04-27T10:18:46.392Z</time></trkpt><trkpt lat="41.3283604" lon="1.9381047"><ele>391.0</ele><time>2026-04-27T10:18:47.388Z</time></trkpt><trkpt lat="41.3283864" lon="1.9380133"><ele>391.00000000000006</ele><time>2026-04-27T10:18:48.384Z</time></trkpt><trkpt lat="41.3283863" lon="1.9379236"><ele>391.0</ele><time>2026-04-27T10:18:49.393Z</time></trkpt><trkpt lat="41.3283576" lon="1.9378281"><ele>391.0</ele><time>2026-04-27T10:18:50.387Z</time></trkpt><trkpt lat="41.3283208" lon="1.937724"><ele>391.0</ele><time>2026-04-27T10:18:51.383Z</time></trkpt><trkpt lat="41.3282881" lon="1.9376039"><ele>391.00000000000006</ele><time>2026-04-27T10:18:52.394Z</time></trkpt><trkpt lat="41.3282682" lon="1.9374544"><ele>391.0</ele><time>2026-04-27T10:18:53.386Z</time></trkpt><trkpt lat="41.3282701" lon="1.9373066"><ele>391.25</ele><time>2026-04-27T10:18:54.392Z</time></trkpt><trkpt lat="41.3282825" lon="1.9371451"><ele>391.5</ele><time>2026-04-27T10:18:55.408Z</time></trkpt><trkpt lat="41.3282975" lon="1.9369841"><ele>391.75</ele><time>2026-04-27T10:18:56.386Z</time></trkpt><trkpt lat="41.3283075" lon="1.9368207"><ele>392.0</ele><time>2026-04-27T10:18:57.391Z</time></trkpt><trkpt lat="41.3283182" lon="1.9366537"><ele>391.5</ele><time>2026-04-27T10:18:58.389Z</time></trkpt><trkpt lat="41.3283274" lon="1.9364848"><ele>391.0</ele><time>2026-04-27T10:18:59.394Z</time></trkpt><trkpt lat="41.3283381" lon="1.936306"><ele>390.5</ele><time>2026-04-27T10:19:00.39Z</time></trkpt><trkpt lat="41.3283461" lon="1.9361203"><ele>390.0</ele><time>2026-04-27T10:19:01.392Z</time></trkpt><trkpt lat="41.3283459" lon="1.9359305"><ele>389.66666666666663</ele><time>2026-04-27T10:19:02.385Z</time></trkpt><trkpt lat="41.3283311" lon="1.9357291"><ele>389.3333333333333</ele><time>2026-04-27T10:19:03.387Z</time></trkpt><trkpt lat="41.3283005" lon="1.9355101"><ele>389.0</ele><time>2026-04-27T10:19:04.39Z</time></trkpt><trkpt lat="41.3282581" lon="1.9352983"><ele>389.0</ele><time>2026-04-27T10:19:05.392Z</time></trkpt><trkpt lat="41.3282196" lon="1.9350914"><ele>389.0</ele><time>2026-04-27T10:19:06.392Z</time></trkpt><trkpt lat="41.3281686" lon="1.9348909"><ele>389.0</ele><time>2026-04-27T10:19:07.389Z</time></trkpt><trkpt lat="41.3281145" lon="1.9346967"><ele>390.0</ele><time>2026-04-27T10:19:08.387Z</time></trkpt><trkpt lat="41.3280568" lon="1.934488"><ele>391.0</ele><time>2026-04-27T10:19:09.387Z</time></trkpt><trkpt lat="41.3280022" lon="1.9342891"><ele>392.0</ele><time>2026-04-27T10:19:10.392Z</time></trkpt><trkpt lat="41.3279429" lon="1.9340841"><ele>392.0</ele><time>2026-04-27T10:19:11.388Z</time></trkpt><trkpt lat="41.3278934" lon="1.9338751"><ele>392.0</ele><time>2026-04-27T10:19:12.384Z</time></trkpt><trkpt lat="41.3278604" lon="1.9336632"><ele>392.0</ele><time>2026-04-27T10:19:13.385Z</time></trkpt><trkpt lat="41.3278346" lon="1.9334477"><ele>391.66666666666663</ele><time>2026-04-27T10:19:14.38Z</time></trkpt><trkpt lat="41.3278124" lon="1.9332309"><ele>391.33333333333337</ele><time>2026-04-27T10:19:15.38Z</time></trkpt><trkpt lat="41.3278002" lon="1.9330149"><ele>391.0</ele><time>2026-04-27T10:19:16.381Z</time></trkpt><trkpt lat="41.3278033" lon="1.93279"><ele>391.0</ele><time>2026-04-27T10:19:17.39Z</time></trkpt><trkpt lat="41.3278133" lon="1.932578"><ele>391.0</ele><time>2026-04-27T10:19:18.381Z</time></trkpt><trkpt lat="41.3278263" lon="1.9323611"><ele>391.0</ele><time>2026-04-27T10:19:19.386Z</time></trkpt><trkpt lat="41.3278427" lon="1.9321485"><ele>390.25</ele><time>2026-04-27T10:19:20.382Z</time></trkpt><trkpt lat="41.3278544" lon="1.9319533"><ele>389.5</ele><time>2026-04-27T10:19:21.391Z</time></trkpt><trkpt lat="41.3278638" lon="1.9317781"><ele>388.75</ele><time>2026-04-27T10:19:22.379Z</time></trkpt><trkpt lat="41.3278708" lon="1.931617"><ele>388.0</ele><time>2026-04-27T10:19:23.402Z</time></trkpt><trkpt lat="41.3278683" lon="1.931446"><ele>386.5</ele><time>2026-04-27T10:19:24.386Z</time></trkpt><trkpt lat="41.3278773" lon="1.9312782"><ele>385.0</ele><time>2026-04-27T10:19:25.397Z</time></trkpt><trkpt lat="41.3278907" lon="1.9311249"><ele>383.5</ele><time>2026-04-27T10:19:26.405Z</time></trkpt><trkpt lat="41.3279058" lon="1.9309534"><ele>382.0</ele><time>2026-04-27T10:19:27.391Z</time></trkpt><trkpt lat="41.3279174" lon="1.9307866"><ele>382.5</ele><time>2026-04-27T10:19:28.39Z</time></trkpt><trkpt lat="41.3279291" lon="1.930603"><ele>383.0</ele><time>2026-04-27T10:19:29.389Z</time></trkpt><trkpt lat="41.3279388" lon="1.9304224"><ele>383.5</ele><time>2026-04-27T10:19:30.392Z</time></trkpt><trkpt lat="41.3279508" lon="1.9302403"><ele>384.0</ele><time>2026-04-27T10:19:31.395Z</time></trkpt><trkpt lat="41.3279637" lon="1.9300491"><ele>384.0</ele><time>2026-04-27T10:19:32.393Z</time></trkpt><trkpt lat="41.3279762" lon="1.9298632"><ele>384.0</ele><time>2026-04-27T10:19:33.394Z</time></trkpt><trkpt lat="41.3279865" lon="1.9296733"><ele>384.0</ele><time>2026-04-27T10:19:34.392Z</time></trkpt><trkpt lat="41.3279997" lon="1.9294819"><ele>384.0</ele><time>2026-04-27T10:19:35.394Z</time></trkpt><trkpt lat="41.3280124" lon="1.9292912"><ele>385.5</ele><time>2026-04-27T10:19:36.394Z</time></trkpt><trkpt lat="41.3280279" lon="1.929107"><ele>387.0</ele><time>2026-04-27T10:19:37.395Z</time></trkpt><trkpt lat="41.3280371" lon="1.9289122"><ele>388.5</ele><time>2026-04-27T10:19:38.394Z</time></trkpt><trkpt lat="41.3280487" lon="1.9287198"><ele>390.0</ele><time>2026-04-27T10:19:39.394Z</time></trkpt><trkpt lat="41.3280649" lon="1.9285271"><ele>385.6666666666667</ele><time>2026-04-27T10:19:40.394Z</time></trkpt><trkpt lat="41.3280733" lon="1.9283286"><ele>381.33333333333337</ele><time>2026-04-27T10:19:41.392Z</time></trkpt><trkpt lat="41.3280885" lon="1.9281262"><ele>377.0</ele><time>2026-04-27T10:19:42.392Z</time></trkpt><trkpt lat="41.3281091" lon="1.927929"><ele>377.0</ele><time>2026-04-27T10:19:43.389Z</time></trkpt><trkpt lat="41.3281319" lon="1.9277442"><ele>377.0</ele><time>2026-04-27T10:19:44.386Z</time></trkpt><trkpt lat="41.3281562" lon="1.9275748"><ele>377.0</ele><time>2026-04-27T10:19:45.385Z</time></trkpt><trkpt lat="41.328189" lon="1.9274206"><ele>377.0</ele><time>2026-04-27T10:19:46.386Z</time></trkpt><trkpt lat="41.3282143" lon="1.9272928"><ele>377.0</ele><time>2026-04-27T10:19:47.385Z</time></trkpt><trkpt lat="41.3282368" lon="1.9271707"><ele>377.0</ele><time>2026-04-27T10:19:48.388Z</time></trkpt><trkpt lat="41.3282593" lon="1.9270501"><ele>377.0</ele><time>2026-04-27T10:19:49.396Z</time></trkpt><trkpt lat="41.3282876" lon="1.9269393"><ele>377.0</ele><time>2026-04-27T10:19:50.388Z</time></trkpt><trkpt lat="41.3283276" lon="1.9268251"><ele>377.0</ele><time>2026-04-27T10:19:51.385Z</time></trkpt><trkpt lat="41.3283831" lon="1.9267172"><ele>376.83333333333337</ele><time>2026-04-27T10:19:52.391Z</time></trkpt><trkpt lat="41.3284366" lon="1.9266091"><ele>376.6666666666667</ele><time>2026-04-27T10:19:53.389Z</time></trkpt><trkpt lat="41.3284731" lon="1.9264911"><ele>376.5</ele><time>2026-04-27T10:19:54.389Z</time></trkpt><trkpt lat="41.3284846" lon="1.9263754"><ele>376.3333333333333</ele><time>2026-04-27T10:19:55.388Z</time></trkpt><trkpt lat="41.3284875" lon="1.9262811"><ele>376.16666666666663</ele><time>2026-04-27T10:19:56.395Z</time></trkpt><trkpt lat="41.3284768" lon="1.9261593"><ele>376.0</ele><time>2026-04-27T10:19:58.396Z</time></trkpt><trkpt lat="41.3284869" lon="1.9260351"><ele>376.0</ele><time>2026-04-27T10:20:00.392Z</time></trkpt><trkpt lat="41.3285237" lon="1.9258995"><ele>376.0</ele><time>2026-04-27T10:20:02.396Z</time></trkpt><trkpt lat="41.328553" lon="1.9258229"><ele>376.0</ele><time>2026-04-27T10:20:04.396Z</time></trkpt><trkpt lat="41.328595" lon="1.9257375"><ele>376.0</ele><time>2026-04-27T10:21:25.395Z</time></trkpt><trkpt lat="41.3286319" lon="1.9255775"><ele>376.0</ele><time>2026-04-27T10:21:27.394Z</time></trkpt><trkpt lat="41.3286454" lon="1.925468"><ele>375.4</ele><time>2026-04-27T10:21:28.383Z</time></trkpt><trkpt lat="41.3286561" lon="1.9253381"><ele>374.8</ele><time>2026-04-27T10:21:29.386Z</time></trkpt><trkpt lat="41.3286669" lon="1.9252024"><ele>374.2</ele><time>2026-04-27T10:21:30.405Z</time></trkpt><trkpt lat="41.3286872" lon="1.9250667"><ele>373.59999999999997</ele><time>2026-04-27T10:21:31.394Z</time></trkpt><trkpt lat="41.3287111" lon="1.9249294"><ele>373.0</ele><time>2026-04-27T10:21:32.391Z</time></trkpt><trkpt lat="41.3287366" lon="1.9247878"><ele>372.75</ele><time>2026-04-27T10:21:33.393Z</time></trkpt><trkpt lat="41.3287647" lon="1.924619"><ele>372.5</ele><time>2026-04-27T10:21:34.394Z</time></trkpt><trkpt lat="41.3287884" lon="1.9244297"><ele>372.25</ele><time>2026-04-27T10:21:35.39Z</time></trkpt><trkpt lat="41.3288099" lon="1.9242369"><ele>372.0</ele><time>2026-04-27T10:21:36.391Z</time></trkpt><trkpt lat="41.3288288" lon="1.9240471"><ele>371.75</ele><time>2026-04-27T10:21:37.392Z</time></trkpt><trkpt lat="41.3288397" lon="1.9238469"><ele>371.5</ele><time>2026-04-27T10:21:38.392Z</time></trkpt><trkpt lat="41.32884" lon="1.9236421"><ele>371.25</ele><time>2026-04-27T10:21:39.403Z</time></trkpt><trkpt lat="41.3288507" lon="1.9234577"><ele>371.0</ele><time>2026-04-27T10:21:40.395Z</time></trkpt><trkpt lat="41.3288546" lon="1.9232679"><ele>371.0</ele><time>2026-04-27T10:21:41.397Z</time></trkpt><trkpt lat="41.3288621" lon="1.9230909"><ele>371.0</ele><time>2026-04-27T10:21:42.396Z</time></trkpt><trkpt lat="41.3288718" lon="1.9229066"><ele>371.0</ele><time>2026-04-27T10:21:43.402Z</time></trkpt><trkpt lat="41.3288779" lon="1.9227209"><ele>371.0</ele><time>2026-04-27T10:21:44.396Z</time></trkpt><trkpt lat="41.3288812" lon="1.9225439"><ele>371.0</ele><time>2026-04-27T10:21:45.39Z</time></trkpt><trkpt lat="41.3288795" lon="1.9223587"><ele>371.0</ele><time>2026-04-27T10:21:46.39Z</time></trkpt><trkpt lat="41.328881" lon="1.922176"><ele>371.0</ele><time>2026-04-27T10:21:47.391Z</time></trkpt><trkpt lat="41.3288836" lon="1.9219976"><ele>371.0</ele><time>2026-04-27T10:21:48.392Z</time></trkpt><trkpt lat="41.3288866" lon="1.9218223"><ele>371.0</ele><time>2026-04-27T10:21:49.392Z</time></trkpt><trkpt lat="41.3288883" lon="1.921648"><ele>371.0</ele><time>2026-04-27T10:21:50.392Z</time></trkpt><trkpt lat="41.3288845" lon="1.9214676"><ele>371.0</ele><time>2026-04-27T10:21:51.393Z</time></trkpt><trkpt lat="41.3288789" lon="1.9212826"><ele>371.0</ele><time>2026-04-27T10:21:52.391Z</time></trkpt><trkpt lat="41.3288688" lon="1.9210988"><ele>371.0</ele><time>2026-04-27T10:21:53.392Z</time></trkpt><trkpt lat="41.3288649" lon="1.9209267"><ele>371.0</ele><time>2026-04-27T10:21:54.397Z</time></trkpt><trkpt lat="41.3288627" lon="1.9207785"><ele>371.0</ele><time>2026-04-27T10:21:55.397Z</time></trkpt><trkpt lat="41.3288717" lon="1.9206638"><ele>371.0</ele><time>2026-04-27T10:21:56.395Z</time></trkpt><trkpt lat="41.3288947" lon="1.9205727"><ele>371.0</ele><time>2026-04-27T10:21:57.395Z</time></trkpt><trkpt lat="41.3289342" lon="1.920476"><ele>370.83333333333337</ele><time>2026-04-27T10:21:58.39Z</time></trkpt><trkpt lat="41.3289797" lon="1.9203801"><ele>370.6666666666667</ele><time>2026-04-27T10:21:59.393Z</time></trkpt><trkpt lat="41.3290169" lon="1.9202883"><ele>370.5</ele><time>2026-04-27T10:22:00.393Z</time></trkpt><trkpt lat="41.3290336" lon="1.9201986"><ele>370.3333333333333</ele><time>2026-04-27T10:22:01.403Z</time></trkpt><trkpt lat="41.3290178" lon="1.9201167"><ele>370.16666666666663</ele><time>2026-04-27T10:22:02.383Z</time></trkpt><trkpt lat="41.3289899" lon="1.9200252"><ele>370.0</ele><time>2026-04-27T10:22:03.39Z</time></trkpt><trkpt lat="41.3289506" lon="1.9199302"><ele>370.0</ele><time>2026-04-27T10:22:04.382Z</time></trkpt><trkpt lat="41.3289121" lon="1.9198192"><ele>370.0</ele><time>2026-04-27T10:22:05.392Z</time></trkpt><trkpt lat="41.3288905" lon="1.9196906"><ele>370.0</ele><time>2026-04-27T10:22:06.388Z</time></trkpt><trkpt lat="41.3288792" lon="1.9195564"><ele>370.0</ele><time>2026-04-27T10:22:07.396Z</time></trkpt><trkpt lat="41.3288805" lon="1.9194024"><ele>370.0</ele><time>2026-04-27T10:22:08.395Z</time></trkpt><trkpt lat="41.3288878" lon="1.9192366"><ele>370.0</ele><time>2026-04-27T10:22:09.393Z</time></trkpt><trkpt lat="41.3288918" lon="1.9190615"><ele>370.0</ele><time>2026-04-27T10:22:10.391Z</time></trkpt><trkpt lat="41.3288977" lon="1.9188767"><ele>370.0</ele><time>2026-04-27T10:22:11.394Z</time></trkpt><trkpt lat="41.3288966" lon="1.9186783"><ele>370.0</ele><time>2026-04-27T10:22:12.39Z</time></trkpt><trkpt lat="41.3288838" lon="1.9184662"><ele>370.25</ele><time>2026-04-27T10:22:13.39Z</time></trkpt><trkpt lat="41.3288677" lon="1.9182665"><ele>370.5</ele><time>2026-04-27T10:22:14.392Z</time></trkpt><trkpt lat="41.3288496" lon="1.9180657"><ele>370.75</ele><time>2026-04-27T10:22:15.391Z</time></trkpt><trkpt lat="41.3288332" lon="1.9178737"><ele>371.0</ele><time>2026-04-27T10:22:16.389Z</time></trkpt><trkpt lat="41.3288161" lon="1.9176748"><ele>370.33333333333337</ele><time>2026-04-27T10:22:17.392Z</time></trkpt><trkpt lat="41.3287999" lon="1.9174742"><ele>369.6666666666667</ele><time>2026-04-27T10:22:18.4Z</time></trkpt><trkpt lat="41.3287745" lon="1.9172721"><ele>369.0</ele><time>2026-04-27T10:22:19.385Z</time></trkpt><trkpt lat="41.3287477" lon="1.9170662"><ele>369.0</ele><time>2026-04-27T10:22:20.388Z</time></trkpt><trkpt lat="41.32872" lon="1.9168717"><ele>369.0</ele><time>2026-04-27T10:22:21.394Z</time></trkpt><trkpt lat="41.3286895" lon="1.9166638"><ele>369.0</ele><time>2026-04-27T10:22:22.386Z</time></trkpt><trkpt lat="41.3286597" lon="1.9164585"><ele>370.0</ele><time>2026-04-27T10:22:23.399Z</time></trkpt><trkpt lat="41.3286263" lon="1.9162476"><ele>371.0</ele><time>2026-04-27T10:22:24.395Z</time></trkpt><trkpt lat="41.3286013" lon="1.916029"><ele>372.0</ele><time>2026-04-27T10:22:25.399Z</time></trkpt><trkpt lat="41.3285821" lon="1.9158076"><ele>373.3333333333333</ele><time>2026-04-27T10:22:26.393Z</time></trkpt><trkpt lat="41.3285631" lon="1.9155901"><ele>374.66666666666663</ele><time>2026-04-27T10:22:27.394Z</time></trkpt><trkpt lat="41.3285448" lon="1.915368"><ele>376.0</ele><time>2026-04-27T10:22:28.395Z</time></trkpt><trkpt lat="41.3285345" lon="1.9151429"><ele>376.66666666666663</ele><time>2026-04-27T10:22:29.395Z</time></trkpt><trkpt lat="41.3285372" lon="1.914916"><ele>377.3333333333333</ele><time>2026-04-27T10:22:30.392Z</time></trkpt><trkpt lat="41.3285317" lon="1.9146873"><ele>378.0</ele><time>2026-04-27T10:22:31.396Z</time></trkpt><trkpt lat="41.3285348" lon="1.9144601"><ele>378.0</ele><time>2026-04-27T10:22:32.422Z</time></trkpt><trkpt lat="41.3285445" lon="1.9142419"><ele>378.0</ele><time>2026-04-27T10:22:33.39Z</time></trkpt><trkpt lat="41.3285571" lon="1.9140227"><ele>378.0</ele><time>2026-04-27T10:22:34.392Z</time></trkpt><trkpt lat="41.3285793" lon="1.9138084"><ele>377.6666666666667</ele><time>2026-04-27T10:22:35.392Z</time></trkpt><trkpt lat="41.328604" lon="1.913591"><ele>377.33333333333337</ele><time>2026-04-27T10:22:36.391Z</time></trkpt><trkpt lat="41.3286392" lon="1.9133681"><ele>377.0</ele><time>2026-04-27T10:22:37.388Z</time></trkpt><trkpt lat="41.3286751" lon="1.9131335"><ele>377.0</ele><time>2026-04-27T10:22:38.377Z</time></trkpt><trkpt lat="41.3287179" lon="1.9129084"><ele>377.0</ele><time>2026-04-27T10:22:39.387Z</time></trkpt><trkpt lat="41.3287644" lon="1.912676"><ele>377.0</ele><time>2026-04-27T10:22:40.383Z</time></trkpt><trkpt lat="41.3288203" lon="1.9124353"><ele>376.0</ele><time>2026-04-27T10:22:41.395Z</time></trkpt><trkpt lat="41.3288763" lon="1.9122057"><ele>375.0</ele><time>2026-04-27T10:22:42.392Z</time></trkpt><trkpt lat="41.3289358" lon="1.9119742"><ele>374.0</ele><time>2026-04-27T10:22:43.396Z</time></trkpt><trkpt lat="41.329005" lon="1.9117531"><ele>374.0</ele><time>2026-04-27T10:22:44.391Z</time></trkpt><trkpt lat="41.3290857" lon="1.9115363"><ele>374.0</ele><time>2026-04-27T10:22:45.388Z</time></trkpt><trkpt lat="41.3291672" lon="1.9113221"><ele>374.0</ele><time>2026-04-27T10:22:46.382Z</time></trkpt><trkpt lat="41.3292565" lon="1.9111017"><ele>374.0</ele><time>2026-04-27T10:22:47.383Z</time></trkpt><trkpt lat="41.3293549" lon="1.9109046"><ele>374.0</ele><time>2026-04-27T10:22:48.376Z</time></trkpt><trkpt lat="41.3294514" lon="1.9106884"><ele>374.0</ele><time>2026-04-27T10:22:49.391Z</time></trkpt><trkpt lat="41.3295559" lon="1.9104868"><ele>374.0</ele><time>2026-04-27T10:22:50.374Z</time></trkpt><trkpt lat="41.3296592" lon="1.9103118"><ele>374.0</ele><time>2026-04-27T10:22:51.39Z</time></trkpt><trkpt lat="41.3297605" lon="1.91014"><ele>374.0</ele><time>2026-04-27T10:22:52.389Z</time></trkpt><trkpt lat="41.3298714" lon="1.9099697"><ele>372.25</ele><time>2026-04-27T10:22:53.397Z</time></trkpt><trkpt lat="41.3299764" lon="1.9098169"><ele>370.5</ele><time>2026-04-27T10:22:54.396Z</time></trkpt><trkpt lat="41.3300782" lon="1.9096767"><ele>368.75</ele><time>2026-04-27T10:22:55.4Z</time></trkpt><trkpt lat="41.3301645" lon="1.9095522"><ele>367.0</ele><time>2026-04-27T10:22:56.397Z</time></trkpt><trkpt lat="41.3302453" lon="1.9094432"><ele>367.0</ele><time>2026-04-27T10:22:57.389Z</time></trkpt><trkpt lat="41.3303118" lon="1.9093372"><ele>367.0</ele><time>2026-04-27T10:22:58.389Z</time></trkpt><trkpt lat="41.330376" lon="1.909266"><ele>367.0</ele><time>2026-04-27T10:22:59.39Z</time></trkpt><trkpt lat="41.3304324" lon="1.9092026"><ele>367.0</ele><time>2026-04-27T10:23:00.389Z</time></trkpt><trkpt lat="41.3305112" lon="1.9090968"><ele>367.0</ele><time>2026-04-27T10:23:02.403Z</time></trkpt><trkpt lat="41.3305711" lon="1.9090005"><ele>366.16666666666663</ele><time>2026-04-27T10:23:04.393Z</time></trkpt><trkpt lat="41.3306151" lon="1.9089125"><ele>365.3333333333333</ele><time>2026-04-27T10:23:06.393Z</time></trkpt><trkpt lat="41.3307147" lon="1.9088866"><ele>364.5</ele><time>2026-04-27T10:35:01.388Z</time></trkpt><trkpt lat="41.3307687" lon="1.9088197"><ele>363.6666666666667</ele><time>2026-04-27T10:35:02.394Z</time></trkpt><trkpt lat="41.3308221" lon="1.9087442"><ele>362.83333333333337</ele><time>2026-04-27T10:35:03.392Z</time></trkpt><trkpt lat="41.3308767" lon="1.9086655"><ele>362.0</ele><time>2026-04-27T10:35:04.39Z</time></trkpt><trkpt lat="41.3309351" lon="1.9085813"><ele>362.0</ele><time>2026-04-27T10:35:05.396Z</time></trkpt><trkpt lat="41.3309948" lon="1.9084908"><ele>362.0</ele><time>2026-04-27T10:35:06.394Z</time></trkpt><trkpt lat="41.3310623" lon="1.9083961"><ele>362.0</ele><time>2026-04-27T10:35:07.405Z</time></trkpt><trkpt lat="41.3311358" lon="1.9082927"><ele>362.0</ele><time>2026-04-27T10:35:08.402Z</time></trkpt><trkpt lat="41.3312135" lon="1.9081854"><ele>362.0</ele><time>2026-04-27T10:35:09.405Z</time></trkpt><trkpt lat="41.3312905" lon="1.908076"><ele>362.0</ele><time>2026-04-27T10:35:10.4Z</time></trkpt><trkpt lat="41.3313724" lon="1.907969"><ele>362.0</ele><time>2026-04-27T10:35:11.405Z</time></trkpt><trkpt lat="41.3314557" lon="1.9078567"><ele>362.0</ele><time>2026-04-27T10:35:12.401Z</time></trkpt><trkpt lat="41.3315436" lon="1.9077368"><ele>362.0</ele><time>2026-04-27T10:35:13.399Z</time></trkpt><trkpt lat="41.3316353" lon="1.9076144"><ele>361.5</ele><time>2026-04-27T10:35:14.395Z</time></trkpt><trkpt lat="41.3317243" lon="1.9074838"><ele>361.0</ele><time>2026-04-27T10:35:15.404Z</time></trkpt><trkpt lat="41.3318197" lon="1.9073566"><ele>360.5</ele><time>2026-04-27T10:35:16.402Z</time></trkpt><trkpt lat="41.3319197" lon="1.9072293"><ele>360.0</ele><time>2026-04-27T10:35:17.398Z</time></trkpt><trkpt lat="41.3320172" lon="1.9070988"><ele>360.0</ele><time>2026-04-27T10:35:18.392Z</time></trkpt><trkpt lat="41.3321172" lon="1.9069638"><ele>360.0</ele><time>2026-04-27T10:35:19.392Z</time></trkpt><trkpt lat="41.3322161" lon="1.906829"><ele>360.0</ele><time>2026-04-27T10:35:20.394Z</time></trkpt><trkpt lat="41.3323202" lon="1.9066945"><ele>360.0</ele><time>2026-04-27T10:35:21.398Z</time></trkpt><trkpt lat="41.3324187" lon="1.9065628"><ele>358.75</ele><time>2026-04-27T10:35:22.392Z</time></trkpt><trkpt lat="41.3325259" lon="1.9064273"><ele>357.5</ele><time>2026-04-27T10:35:23.389Z</time></trkpt><trkpt lat="41.3326336" lon="1.9062882"><ele>356.25</ele><time>2026-04-27T10:35:24.404Z</time></trkpt><trkpt lat="41.3327306" lon="1.9061546"><ele>355.0</ele><time>2026-04-27T10:35:25.391Z</time></trkpt><trkpt lat="41.3328242" lon="1.9060151"><ele>355.0</ele><time>2026-04-27T10:35:26.392Z</time></trkpt><trkpt lat="41.3329163" lon="1.9058751"><ele>355.0</ele><time>2026-04-27T10:35:27.391Z</time></trkpt><trkpt lat="41.3330139" lon="1.9057471"><ele>355.0</ele><time>2026-04-27T10:35:28.389Z</time></trkpt><trkpt lat="41.3331097" lon="1.9056163"><ele>355.0</ele><time>2026-04-27T10:35:29.394Z</time></trkpt><trkpt lat="41.333207" lon="1.9054908"><ele>355.25</ele><time>2026-04-27T10:35:30.391Z</time></trkpt><trkpt lat="41.3333071" lon="1.9053581"><ele>355.5</ele><time>2026-04-27T10:35:31.395Z</time></trkpt><trkpt lat="41.3334064" lon="1.9052354"><ele>355.75</ele><time>2026-04-27T10:35:32.395Z</time></trkpt><trkpt lat="41.333506" lon="1.905123"><ele>356.0</ele><time>2026-04-27T10:35:33.395Z</time></trkpt><trkpt lat="41.3336067" lon="1.9050007"><ele>356.0</ele><time>2026-04-27T10:35:34.393Z</time></trkpt><trkpt lat="41.3337088" lon="1.9048776"><ele>356.0</ele><time>2026-04-27T10:35:35.394Z</time></trkpt><trkpt lat="41.3338116" lon="1.9047584"><ele>356.0</ele><time>2026-04-27T10:35:36.391Z</time></trkpt><trkpt lat="41.3339267" lon="1.9046473"><ele>356.0</ele><time>2026-04-27T10:35:37.397Z</time></trkpt><trkpt lat="41.3340464" lon="1.9045373"><ele>356.0</ele><time>2026-04-27T10:35:38.393Z</time></trkpt><trkpt lat="41.3341685" lon="1.9044399"><ele>356.0</ele><time>2026-04-27T10:35:39.397Z</time></trkpt><trkpt lat="41.3342975" lon="1.9043371"><ele>356.0</ele><time>2026-04-27T10:35:40.385Z</time></trkpt><trkpt lat="41.3344334" lon="1.9042401"><ele>356.0</ele><time>2026-04-27T10:35:41.394Z</time></trkpt><trkpt lat="41.3345638" lon="1.904146"><ele>355.33333333333337</ele><time>2026-04-27T10:35:42.391Z</time></trkpt><trkpt lat="41.3346976" lon="1.9040547"><ele>354.6666666666667</ele><time>2026-04-27T10:35:43.391Z</time></trkpt><trkpt lat="41.334838" lon="1.9039761"><ele>354.0</ele><time>2026-04-27T10:35:44.394Z</time></trkpt><trkpt lat="41.3349782" lon="1.9039001"><ele>354.0</ele><time>2026-04-27T10:35:45.392Z</time></trkpt><trkpt lat="41.3351123" lon="1.9038279"><ele>354.0</ele><time>2026-04-27T10:35:46.393Z</time></trkpt><trkpt lat="41.3352486" lon="1.903763"><ele>354.0</ele><time>2026-04-27T10:35:47.392Z</time></trkpt><trkpt lat="41.3353784" lon="1.9037039"><ele>354.0</ele><time>2026-04-27T10:35:48.389Z</time></trkpt><trkpt lat="41.3355025" lon="1.9036643"><ele>355.0</ele><time>2026-04-27T10:35:49.39Z</time></trkpt><trkpt lat="41.33562" lon="1.9036318"><ele>356.0</ele><time>2026-04-27T10:35:50.392Z</time></trkpt><trkpt lat="41.3357216" lon="1.9036033"><ele>357.0</ele><time>2026-04-27T10:35:51.392Z</time></trkpt><trkpt lat="41.3358093" lon="1.9035959"><ele>358.0</ele><time>2026-04-27T10:35:52.386Z</time></trkpt><trkpt lat="41.3358866" lon="1.9036009"><ele>359.0</ele><time>2026-04-27T10:35:53.375Z</time></trkpt><trkpt lat="41.3359549" lon="1.9036287"><ele>359.0</ele><time>2026-04-27T10:35:54.373Z</time></trkpt><trkpt lat="41.3360072" lon="1.9036823"><ele>359.0</ele><time>2026-04-27T10:35:55.41Z</time></trkpt><trkpt lat="41.3360684" lon="1.9037455"><ele>359.0</ele><time>2026-04-27T10:35:56.384Z</time></trkpt><trkpt lat="41.3361328" lon="1.9037911"><ele>359.0</ele><time>2026-04-27T10:35:57.384Z</time></trkpt><trkpt lat="41.3362047" lon="1.9038108"><ele>359.0</ele><time>2026-04-27T10:35:58.382Z</time></trkpt><trkpt lat="41.3362744" lon="1.9037999"><ele>359.0</ele><time>2026-04-27T10:35:59.387Z</time></trkpt><trkpt lat="41.3363372" lon="1.9037511"><ele>359.0</ele><time>2026-04-27T10:36:00.39Z</time></trkpt><trkpt lat="41.3363822" lon="1.9036686"><ele>359.79999999999995</ele><time>2026-04-27T10:36:01.379Z</time></trkpt><trkpt lat="41.3364193" lon="1.9035757"><ele>360.59999999999997</ele><time>2026-04-27T10:36:02.389Z</time></trkpt><trkpt lat="41.3364566" lon="1.9034724"><ele>361.4</ele><time>2026-04-27T10:36:03.385Z</time></trkpt><trkpt lat="41.3364978" lon="1.9033649"><ele>362.2</ele><time>2026-04-27T10:36:04.382Z</time></trkpt><trkpt lat="41.336545" lon="1.9032561"><ele>363.0</ele><time>2026-04-27T10:36:05.381Z</time></trkpt><trkpt lat="41.3365899" lon="1.9031373"><ele>363.0</ele><time>2026-04-27T10:36:06.376Z</time></trkpt><trkpt lat="41.3366297" lon="1.9030091"><ele>363.0</ele><time>2026-04-27T10:36:07.378Z</time></trkpt><trkpt lat="41.3366627" lon="1.9028684"><ele>363.0</ele><time>2026-04-27T10:36:08.375Z</time></trkpt><trkpt lat="41.3366986" lon="1.9027252"><ele>363.0</ele><time>2026-04-27T10:36:09.377Z</time></trkpt><trkpt lat="41.3367275" lon="1.9025774"><ele>363.0</ele><time>2026-04-27T10:36:10.378Z</time></trkpt><trkpt lat="41.3367517" lon="1.9024328"><ele>361.0</ele><time>2026-04-27T10:36:11.388Z</time></trkpt><trkpt lat="41.3367715" lon="1.9022835"><ele>359.0</ele><time>2026-04-27T10:36:12.386Z</time></trkpt><trkpt lat="41.3367915" lon="1.9021283"><ele>357.0</ele><time>2026-04-27T10:36:13.391Z</time></trkpt><trkpt lat="41.3368117" lon="1.9019703"><ele>355.0</ele><time>2026-04-27T10:36:14.389Z</time></trkpt><trkpt lat="41.3368338" lon="1.9018168"><ele>354.75</ele><time>2026-04-27T10:36:15.391Z</time></trkpt><trkpt lat="41.3368569" lon="1.9016635"><ele>354.5</ele><time>2026-04-27T10:36:16.39Z</time></trkpt><trkpt lat="41.3368804" lon="1.9015042"><ele>354.25</ele><time>2026-04-27T10:36:17.388Z</time></trkpt><trkpt lat="41.3369054" lon="1.9013467"><ele>354.0</ele><time>2026-04-27T10:36:18.391Z</time></trkpt><trkpt lat="41.3369272" lon="1.9011833"><ele>354.0</ele><time>2026-04-27T10:36:19.386Z</time></trkpt><trkpt lat="41.3369452" lon="1.9010115"><ele>354.0</ele><time>2026-04-27T10:36:20.389Z</time></trkpt><trkpt lat="41.3369667" lon="1.9008418"><ele>354.0</ele><time>2026-04-27T10:36:21.39Z</time></trkpt><trkpt lat="41.3369845" lon="1.9006735"><ele>354.0</ele><time>2026-04-27T10:36:22.389Z</time></trkpt><trkpt lat="41.3369975" lon="1.9005191"><ele>353.79999999999995</ele><time>2026-04-27T10:36:23.385Z</time></trkpt><trkpt lat="41.3370107" lon="1.9003805"><ele>353.59999999999997</ele><time>2026-04-27T10:36:24.385Z</time></trkpt><trkpt lat="41.3370238" lon="1.9002716"><ele>353.4</ele><time>2026-04-27T10:36:25.39Z</time></trkpt><trkpt lat="41.3370258" lon="1.9001454"><ele>353.2</ele><time>2026-04-27T10:36:27.392Z</time></trkpt><trkpt lat="41.3370387" lon="1.9000545"><ele>353.0</ele><time>2026-04-27T10:36:49.391Z</time></trkpt><trkpt lat="41.3371037" lon="1.8999189"><ele>352.83333333333337</ele><time>2026-04-27T10:36:51.386Z</time></trkpt><trkpt lat="41.3371499" lon="1.8998411"><ele>352.6666666666667</ele><time>2026-04-27T10:36:52.388Z</time></trkpt><trkpt lat="41.3371971" lon="1.8997642"><ele>352.5</ele><time>2026-04-27T10:36:53.381Z</time></trkpt><trkpt lat="41.3372363" lon="1.8996679"><ele>352.3333333333333</ele><time>2026-04-27T10:36:54.39Z</time></trkpt><trkpt lat="41.3372388" lon="1.899569"><ele>352.16666666666663</ele><time>2026-04-27T10:36:55.384Z</time></trkpt><trkpt lat="41.3372041" lon="1.8994651"><ele>352.0</ele><time>2026-04-27T10:36:56.398Z</time></trkpt><trkpt lat="41.3371761" lon="1.8993579"><ele>351.8</ele><time>2026-04-27T10:36:57.383Z</time></trkpt><trkpt lat="41.3371719" lon="1.8992466"><ele>351.6</ele><time>2026-04-27T10:36:58.39Z</time></trkpt><trkpt lat="41.3371983" lon="1.8991286"><ele>351.40000000000003</ele><time>2026-04-27T10:36:59.382Z</time></trkpt><trkpt lat="41.3372424" lon="1.8990135"><ele>351.20000000000005</ele><time>2026-04-27T10:37:00.388Z</time></trkpt><trkpt lat="41.3373028" lon="1.8989045"><ele>351.0</ele><time>2026-04-27T10:37:01.386Z</time></trkpt><trkpt lat="41.337375" lon="1.8987847"><ele>351.5</ele><time>2026-04-27T10:37:02.383Z</time></trkpt><trkpt lat="41.3374523" lon="1.8986633"><ele>352.0</ele><time>2026-04-27T10:37:03.379Z</time></trkpt><trkpt lat="41.3375329" lon="1.8985302"><ele>352.5</ele><time>2026-04-27T10:37:04.384Z</time></trkpt><trkpt lat="41.3376231" lon="1.8983965"><ele>353.0</ele><time>2026-04-27T10:37:05.391Z</time></trkpt><trkpt lat="41.3377158" lon="1.898266"><ele>353.0</ele><time>2026-04-27T10:37:06.386Z</time></trkpt><trkpt lat="41.3378076" lon="1.8981388"><ele>353.0</ele><time>2026-04-27T10:37:07.388Z</time></trkpt><trkpt lat="41.3378978" lon="1.8980091"><ele>353.0</ele><time>2026-04-27T10:37:08.385Z</time></trkpt><trkpt lat="41.3379876" lon="1.8978782"><ele>353.0</ele><time>2026-04-27T10:37:09.389Z</time></trkpt><trkpt lat="41.3380696" lon="1.8977464"><ele>354.75</ele><time>2026-04-27T10:37:10.382Z</time></trkpt><trkpt lat="41.3381481" lon="1.8976124"><ele>356.5</ele><time>2026-04-27T10:37:11.38Z</time></trkpt><trkpt lat="41.3382221" lon="1.8974745"><ele>358.25</ele><time>2026-04-27T10:37:12.38Z</time></trkpt><trkpt lat="41.3382893" lon="1.8973232"><ele>360.0</ele><time>2026-04-27T10:37:13.381Z</time></trkpt><trkpt lat="41.3383481" lon="1.8971714"><ele>360.25</ele><time>2026-04-27T10:37:14.382Z</time></trkpt><trkpt lat="41.3384122" lon="1.8970191"><ele>360.5</ele><time>2026-04-27T10:37:15.379Z</time></trkpt><trkpt lat="41.338475" lon="1.896873"><ele>360.75</ele><time>2026-04-27T10:37:16.379Z</time></trkpt><trkpt lat="41.3385353" lon="1.8967239"><ele>361.0</ele><time>2026-04-27T10:37:17.377Z</time></trkpt><trkpt lat="41.3386006" lon="1.8965664"><ele>359.75</ele><time>2026-04-27T10:37:18.376Z</time></trkpt><trkpt lat="41.3386621" lon="1.8964116"><ele>358.5</ele><time>2026-04-27T10:37:19.379Z</time></trkpt><trkpt lat="41.3387202" lon="1.8962513"><ele>357.25</ele><time>2026-04-27T10:37:20.385Z</time></trkpt><trkpt lat="41.3387742" lon="1.896093"><ele>356.0</ele><time>2026-04-27T10:37:21.376Z</time></trkpt><trkpt lat="41.3388266" lon="1.8959243"><ele>355.25</ele><time>2026-04-27T10:37:22.375Z</time></trkpt><trkpt lat="41.3388726" lon="1.8957501"><ele>354.5</ele><time>2026-04-27T10:37:23.369Z</time></trkpt><trkpt lat="41.3389115" lon="1.8955735"><ele>353.75</ele><time>2026-04-27T10:37:24.363Z</time></trkpt><trkpt lat="41.3389462" lon="1.895387"><ele>353.0</ele><time>2026-04-27T10:37:25.37Z</time></trkpt><trkpt lat="41.338963" lon="1.895202"><ele>353.25</ele><time>2026-04-27T10:37:26.368Z</time></trkpt><trkpt lat="41.338955" lon="1.8950042"><ele>353.5</ele><time>2026-04-27T10:37:27.388Z</time></trkpt><trkpt lat="41.338928" lon="1.8948129"><ele>353.75</ele><time>2026-04-27T10:37:28.371Z</time></trkpt><trkpt lat="41.3388868" lon="1.8946379"><ele>354.0</ele><time>2026-04-27T10:37:29.37Z</time></trkpt><trkpt lat="41.3388502" lon="1.8944536"><ele>354.0</ele><time>2026-04-27T10:37:30.369Z</time></trkpt><trkpt lat="41.3387881" lon="1.8942755"><ele>354.0</ele><time>2026-04-27T10:37:31.37Z</time></trkpt><trkpt lat="41.3387155" lon="1.8941088"><ele>354.0</ele><time>2026-04-27T10:37:32.358Z</time></trkpt><trkpt lat="41.338642" lon="1.8939518"><ele>354.0</ele><time>2026-04-27T10:37:33.369Z</time></trkpt><trkpt lat="41.3385557" lon="1.8937999"><ele>354.5</ele><time>2026-04-27T10:37:34.365Z</time></trkpt><trkpt lat="41.3384619" lon="1.8936528"><ele>355.0</ele><time>2026-04-27T10:37:35.367Z</time></trkpt><trkpt lat="41.3383901" lon="1.8934908"><ele>355.5</ele><time>2026-04-27T10:37:36.369Z</time></trkpt><trkpt lat="41.3383054" lon="1.8933194"><ele>356.0</ele><time>2026-04-27T10:37:37.377Z</time></trkpt><trkpt lat="41.338225" lon="1.8931475"><ele>357.25</ele><time>2026-04-27T10:37:38.376Z</time></trkpt><trkpt lat="41.3381382" lon="1.8929827"><ele>358.5</ele><time>2026-04-27T10:37:39.378Z</time></trkpt><trkpt lat="41.3380556" lon="1.8928281"><ele>359.75</ele><time>2026-04-27T10:37:40.371Z</time></trkpt><trkpt lat="41.3379745" lon="1.892679"><ele>361.0</ele><time>2026-04-27T10:37:41.379Z</time></trkpt><trkpt lat="41.3379109" lon="1.8925229"><ele>358.25</ele><time>2026-04-27T10:37:42.373Z</time></trkpt><trkpt lat="41.3378565" lon="1.8923684"><ele>355.5</ele><time>2026-04-27T10:37:43.379Z</time></trkpt><trkpt lat="41.3378251" lon="1.8921908"><ele>352.75</ele><time>2026-04-27T10:37:44.378Z</time></trkpt><trkpt lat="41.3377906" lon="1.8920037"><ele>350.0</ele><time>2026-04-27T10:37:45.375Z</time></trkpt><trkpt lat="41.3377853" lon="1.891818"><ele>350.33333333333337</ele><time>2026-04-27T10:37:46.377Z</time></trkpt><trkpt lat="41.3378017" lon="1.8914358"><ele>350.6666666666667</ele><time>2026-04-27T10:37:48.378Z</time></trkpt><trkpt lat="41.3378007" lon="1.8912407"><ele>351.0</ele><time>2026-04-27T10:37:49.38Z</time></trkpt><trkpt lat="41.3377852" lon="1.8910434"><ele>351.25</ele><time>2026-04-27T10:37:50.379Z</time></trkpt><trkpt lat="41.3377621" lon="1.8908415"><ele>351.5</ele><time>2026-04-27T10:37:51.374Z</time></trkpt><trkpt lat="41.3377329" lon="1.8906548"><ele>351.75</ele><time>2026-04-27T10:37:52.373Z</time></trkpt><trkpt lat="41.3376917" lon="1.8904591"><ele>352.0</ele><time>2026-04-27T10:37:53.378Z</time></trkpt><trkpt lat="41.3376428" lon="1.8902555"><ele>352.66666666666663</ele><time>2026-04-27T10:37:54.38Z</time></trkpt><trkpt lat="41.3375897" lon="1.8900526"><ele>353.3333333333333</ele><time>2026-04-27T10:37:55.385Z</time></trkpt><trkpt lat="41.3375403" lon="1.8898645"><ele>354.0</ele><time>2026-04-27T10:37:56.381Z</time></trkpt><trkpt lat="41.3374838" lon="1.8896588"><ele>354.0</ele><time>2026-04-27T10:37:57.387Z</time></trkpt><trkpt lat="41.3374266" lon="1.8894592"><ele>354.0</ele><time>2026-04-27T10:37:58.393Z</time></trkpt><trkpt lat="41.3373807" lon="1.8892553"><ele>354.0</ele><time>2026-04-27T10:37:59.388Z</time></trkpt><trkpt lat="41.3373344" lon="1.8890587"><ele>353.6666666666667</ele><time>2026-04-27T10:38:00.384Z</time></trkpt><trkpt lat="41.3372878" lon="1.8888658"><ele>353.33333333333337</ele><time>2026-04-27T10:38:01.39Z</time></trkpt><trkpt lat="41.337233" lon="1.8886683"><ele>353.0</ele><time>2026-04-27T10:38:02.382Z</time></trkpt><trkpt lat="41.337187" lon="1.8884747"><ele>349.6666666666667</ele><time>2026-04-27T10:38:03.387Z</time></trkpt><trkpt lat="41.3371317" lon="1.8882714"><ele>346.3333333333333</ele><time>2026-04-27T10:38:04.385Z</time></trkpt><trkpt lat="41.3370768" lon="1.8880767"><ele>343.0</ele><time>2026-04-27T10:38:05.389Z</time></trkpt><trkpt lat="41.3370178" lon="1.88788"><ele>343.0</ele><time>2026-04-27T10:38:06.385Z</time></trkpt><trkpt lat="41.3369501" lon="1.8877005"><ele>343.0</ele><time>2026-04-27T10:38:07.395Z</time></trkpt><trkpt lat="41.3368722" lon="1.8875366"><ele>343.0</ele><time>2026-04-27T10:38:08.382Z</time></trkpt><trkpt lat="41.3367723" lon="1.8873703"><ele>342.66666666666663</ele><time>2026-04-27T10:38:09.39Z</time></trkpt><trkpt lat="41.3366517" lon="1.8872145"><ele>342.3333333333333</ele><time>2026-04-27T10:38:10.379Z</time></trkpt><trkpt lat="41.3365209" lon="1.8870845"><ele>342.0</ele><time>2026-04-27T10:38:11.378Z</time></trkpt><trkpt lat="41.3363832" lon="1.8870094"><ele>342.0</ele><time>2026-04-27T10:38:12.378Z</time></trkpt><trkpt lat="41.3362521" lon="1.8869296"><ele>342.0</ele><time>2026-04-27T10:38:13.384Z</time></trkpt><trkpt lat="41.3361403" lon="1.8868304"><ele>342.0</ele><time>2026-04-27T10:38:14.38Z</time></trkpt><trkpt lat="41.3360545" lon="1.8867152"><ele>342.0</ele><time>2026-04-27T10:38:15.385Z</time></trkpt><trkpt lat="41.3360126" lon="1.8865733"><ele>342.25</ele><time>2026-04-27T10:38:16.382Z</time></trkpt><trkpt lat="41.3359902" lon="1.8863992"><ele>342.5</ele><time>2026-04-27T10:38:17.387Z</time></trkpt><trkpt lat="41.3359978" lon="1.8861977"><ele>342.75</ele><time>2026-04-27T10:38:18.38Z</time></trkpt><trkpt lat="41.3360151" lon="1.8860002"><ele>343.0</ele><time>2026-04-27T10:38:19.384Z</time></trkpt><trkpt lat="41.3360502" lon="1.8858119"><ele>343.5</ele><time>2026-04-27T10:38:20.383Z</time></trkpt><trkpt lat="41.3360855" lon="1.8856167"><ele>344.0</ele><time>2026-04-27T10:38:21.389Z</time></trkpt><trkpt lat="41.3360856" lon="1.8854314"><ele>344.5</ele><time>2026-04-27T10:38:22.388Z</time></trkpt><trkpt lat="41.3360569" lon="1.885251"><ele>345.0</ele><time>2026-04-27T10:38:23.386Z</time></trkpt><trkpt lat="41.3360173" lon="1.8850746"><ele>345.3333333333333</ele><time>2026-04-27T10:38:24.38Z</time></trkpt><trkpt lat="41.3359551" lon="1.8848988"><ele>345.66666666666663</ele><time>2026-04-27T10:38:25.383Z</time></trkpt><trkpt lat="41.3358847" lon="1.8847143"><ele>346.0</ele><time>2026-04-27T10:38:26.385Z</time></trkpt><trkpt lat="41.3358069" lon="1.8845183"><ele>346.0</ele><time>2026-04-27T10:38:27.38Z</time></trkpt><trkpt lat="41.3357343" lon="1.8843429"><ele>346.0</ele><time>2026-04-27T10:38:28.376Z</time></trkpt><trkpt lat="41.3356511" lon="1.8841685"><ele>346.0</ele><time>2026-04-27T10:38:29.392Z</time></trkpt><trkpt lat="41.3355625" lon="1.8840051"><ele>344.25</ele><time>2026-04-27T10:38:30.376Z</time></trkpt><trkpt lat="41.3354697" lon="1.8838478"><ele>342.5</ele><time>2026-04-27T10:38:31.378Z</time></trkpt><trkpt lat="41.3353703" lon="1.8837031"><ele>340.75</ele><time>2026-04-27T10:38:32.375Z</time></trkpt><trkpt lat="41.3352569" lon="1.883572"><ele>339.0</ele><time>2026-04-27T10:38:33.38Z</time></trkpt><trkpt lat="41.3351255" lon="1.8834572"><ele>337.75</ele><time>2026-04-27T10:38:34.374Z</time></trkpt><trkpt lat="41.3349952" lon="1.8833627"><ele>336.5</ele><time>2026-04-27T10:38:35.378Z</time></trkpt><trkpt lat="41.3348725" lon="1.8832623"><ele>335.25</ele><time>2026-04-27T10:38:36.372Z</time></trkpt><trkpt lat="41.334757" lon="1.8831574"><ele>334.0</ele><time>2026-04-27T10:38:37.382Z</time></trkpt><trkpt lat="41.3346469" lon="1.8830453"><ele>334.0</ele><time>2026-04-27T10:38:38.38Z</time></trkpt><trkpt lat="41.3345464" lon="1.8829268"><ele>334.0</ele><time>2026-04-27T10:38:39.389Z</time></trkpt><trkpt lat="41.3344629" lon="1.8827828"><ele>334.0</ele><time>2026-04-27T10:38:40.387Z</time></trkpt><trkpt lat="41.3344259" lon="1.882602"><ele>334.0</ele><time>2026-04-27T10:38:41.388Z</time></trkpt><trkpt lat="41.3344044" lon="1.8824142"><ele>334.25</ele><time>2026-04-27T10:38:42.386Z</time></trkpt><trkpt lat="41.3343985" lon="1.8822232"><ele>334.5</ele><time>2026-04-27T10:38:43.376Z</time></trkpt><trkpt lat="41.3344207" lon="1.8820343"><ele>334.75</ele><time>2026-04-27T10:38:44.385Z</time></trkpt><trkpt lat="41.3344573" lon="1.8818436"><ele>335.0</ele><time>2026-04-27T10:38:45.382Z</time></trkpt><trkpt lat="41.33451" lon="1.881649"><ele>335.0</ele><time>2026-04-27T10:38:46.38Z</time></trkpt><trkpt lat="41.3345605" lon="1.8814541"><ele>335.0</ele><time>2026-04-27T10:38:47.38Z</time></trkpt><trkpt lat="41.3346214" lon="1.8812705"><ele>335.0</ele><time>2026-04-27T10:38:48.38Z</time></trkpt><trkpt lat="41.3346865" lon="1.8810914"><ele>335.5</ele><time>2026-04-27T10:38:49.381Z</time></trkpt><trkpt lat="41.3347379" lon="1.8809066"><ele>336.0</ele><time>2026-04-27T10:38:50.381Z</time></trkpt><trkpt lat="41.3347839" lon="1.8807412"><ele>336.5</ele><time>2026-04-27T10:38:51.382Z</time></trkpt><trkpt lat="41.3348258" lon="1.8805995"><ele>337.0</ele><time>2026-04-27T10:38:52.387Z</time></trkpt><trkpt lat="41.3348453" lon="1.8804694"><ele>337.0</ele><time>2026-04-27T10:38:53.38Z</time></trkpt><trkpt lat="41.3348421" lon="1.8803268"><ele>337.0</ele><time>2026-04-27T10:38:54.381Z</time></trkpt><trkpt lat="41.3347914" lon="1.8801943"><ele>337.0</ele><time>2026-04-27T10:38:55.382Z</time></trkpt><trkpt lat="41.3346889" lon="1.8800707"><ele>337.0</ele><time>2026-04-27T10:38:56.377Z</time></trkpt><trkpt lat="41.3346083" lon="1.8799498"><ele>336.5</ele><time>2026-04-27T10:38:57.376Z</time></trkpt><trkpt lat="41.3345534" lon="1.8798111"><ele>336.0</ele><time>2026-04-27T10:38:58.377Z</time></trkpt><trkpt lat="41.3345131" lon="1.8796489"><ele>335.5</ele><time>2026-04-27T10:38:59.38Z</time></trkpt><trkpt lat="41.3344869" lon="1.8794811"><ele>335.0</ele><time>2026-04-27T10:39:00.398Z</time></trkpt><trkpt lat="41.3344756" lon="1.8793015"><ele>335.75</ele><time>2026-04-27T10:39:01.38Z</time></trkpt><trkpt lat="41.3344614" lon="1.8791177"><ele>336.5</ele><time>2026-04-27T10:39:02.375Z</time></trkpt><trkpt lat="41.3344507" lon="1.8789342"><ele>337.25</ele><time>2026-04-27T10:39:03.377Z</time></trkpt><trkpt lat="41.334437" lon="1.8787435"><ele>338.0</ele><time>2026-04-27T10:39:04.381Z</time></trkpt><trkpt lat="41.3344268" lon="1.878543"><ele>337.75</ele><time>2026-04-27T10:39:05.381Z</time></trkpt><trkpt lat="41.3344107" lon="1.878356"><ele>337.5</ele><time>2026-04-27T10:39:06.38Z</time></trkpt><trkpt lat="41.3343952" lon="1.878183"><ele>337.25</ele><time>2026-04-27T10:39:07.381Z</time></trkpt><trkpt lat="41.3343806" lon="1.8780098"><ele>337.0</ele><time>2026-04-27T10:39:08.376Z</time></trkpt><trkpt lat="41.3343885" lon="1.8778338"><ele>337.0</ele><time>2026-04-27T10:39:09.374Z</time></trkpt><trkpt lat="41.3344137" lon="1.877665"><ele>337.0</ele><time>2026-04-27T10:39:10.393Z</time></trkpt><trkpt lat="41.3344907" lon="1.8775195"><ele>337.0</ele><time>2026-04-27T10:39:11.389Z</time></trkpt><trkpt lat="41.3345876" lon="1.8773913"><ele>337.0</ele><time>2026-04-27T10:39:12.38Z</time></trkpt><trkpt lat="41.3346833" lon="1.8772801"><ele>336.0</ele><time>2026-04-27T10:39:13.384Z</time></trkpt><trkpt lat="41.3347891" lon="1.877189"><ele>335.0</ele><time>2026-04-27T10:39:14.382Z</time></trkpt><trkpt lat="41.3348997" lon="1.8771004"><ele>334.0</ele><time>2026-04-27T10:39:15.388Z</time></trkpt><trkpt lat="41.3350139" lon="1.8769949"><ele>333.0</ele><time>2026-04-27T10:39:16.384Z</time></trkpt><trkpt lat="41.3351257" lon="1.8768849"><ele>333.0</ele><time>2026-04-27T10:39:17.385Z</time></trkpt><trkpt lat="41.3352365" lon="1.8767771"><ele>333.0</ele><time>2026-04-27T10:39:18.381Z</time></trkpt><trkpt lat="41.3353415" lon="1.8766611"><ele>333.0</ele><time>2026-04-27T10:39:19.386Z</time></trkpt><trkpt lat="41.3354205" lon="1.8765395"><ele>333.0</ele><time>2026-04-27T10:39:20.387Z</time></trkpt><trkpt lat="41.3354687" lon="1.8764129"><ele>332.75</ele><time>2026-04-27T10:39:21.391Z</time></trkpt><trkpt lat="41.3354877" lon="1.8762877"><ele>332.5</ele><time>2026-04-27T10:39:22.383Z</time></trkpt><trkpt lat="41.3354753" lon="1.876131"><ele>332.25</ele><time>2026-04-27T10:39:23.383Z</time></trkpt><trkpt lat="41.3354239" lon="1.8759691"><ele>332.0</ele><time>2026-04-27T10:39:24.376Z</time></trkpt><trkpt lat="41.335369" lon="1.8758173"><ele>332.0</ele><time>2026-04-27T10:39:25.386Z</time></trkpt><trkpt lat="41.3353192" lon="1.8756569"><ele>332.0</ele><time>2026-04-27T10:39:26.38Z</time></trkpt><trkpt lat="41.3352908" lon="1.8754858"><ele>332.0</ele><time>2026-04-27T10:39:27.386Z</time></trkpt><trkpt lat="41.3352713" lon="1.8753001"><ele>332.0</ele><time>2026-04-27T10:39:28.383Z</time></trkpt><trkpt lat="41.335274" lon="1.875093"><ele>331.0</ele><time>2026-04-27T10:39:29.386Z</time></trkpt><trkpt lat="41.3352993" lon="1.8748711"><ele>330.0</ele><time>2026-04-27T10:39:30.377Z</time></trkpt><trkpt lat="41.3353268" lon="1.8746477"><ele>329.0</ele><time>2026-04-27T10:39:31.399Z</time></trkpt><trkpt lat="41.3353404" lon="1.8744109"><ele>328.0</ele><time>2026-04-27T10:39:32.379Z</time></trkpt><trkpt lat="41.3353308" lon="1.8741791"><ele>327.0</ele><time>2026-04-27T10:39:33.387Z</time></trkpt><trkpt lat="41.3352928" lon="1.8739497"><ele>326.0</ele><time>2026-04-27T10:39:34.377Z</time></trkpt><trkpt lat="41.3352498" lon="1.8737263"><ele>326.0</ele><time>2026-04-27T10:39:35.385Z</time></trkpt><trkpt lat="41.3352093" lon="1.8735055"><ele>326.0</ele><time>2026-04-27T10:39:36.374Z</time></trkpt><trkpt lat="41.335159" lon="1.8732949"><ele>326.0</ele><time>2026-04-27T10:39:37.377Z</time></trkpt><trkpt lat="41.3350928" lon="1.8730969"><ele>325.0</ele><time>2026-04-27T10:39:38.371Z</time></trkpt><trkpt lat="41.3350312" lon="1.8729323"><ele>324.0</ele><time>2026-04-27T10:39:39.378Z</time></trkpt><trkpt lat="41.334947" lon="1.8727969"><ele>323.0</ele><time>2026-04-27T10:39:40.373Z</time></trkpt><trkpt lat="41.3348296" lon="1.8726593"><ele>322.0</ele><time>2026-04-27T10:39:41.384Z</time></trkpt><trkpt lat="41.3347093" lon="1.8725416"><ele>319.66666666666663</ele><time>2026-04-27T10:39:42.379Z</time></trkpt><trkpt lat="41.3345774" lon="1.8724307"><ele>317.3333333333333</ele><time>2026-04-27T10:39:43.384Z</time></trkpt><trkpt lat="41.3344336" lon="1.872313"><ele>315.0</ele><time>2026-04-27T10:39:44.381Z</time></trkpt><trkpt lat="41.3342921" lon="1.8721869"><ele>315.0</ele><time>2026-04-27T10:39:45.382Z</time></trkpt><trkpt lat="41.3341759" lon="1.872066"><ele>315.0</ele><time>2026-04-27T10:39:46.381Z</time></trkpt><trkpt lat="41.3340633" lon="1.8719313"><ele>315.0</ele><time>2026-04-27T10:39:47.39Z</time></trkpt><trkpt lat="41.3339612" lon="1.8717941"><ele>315.0</ele><time>2026-04-27T10:39:48.384Z</time></trkpt><trkpt lat="41.3338746" lon="1.8716518"><ele>314.25</ele><time>2026-04-27T10:39:49.389Z</time></trkpt><trkpt lat="41.3338121" lon="1.8714899"><ele>313.5</ele><time>2026-04-27T10:39:50.388Z</time></trkpt><trkpt lat="41.3337926" lon="1.8713219"><ele>312.75</ele><time>2026-04-27T10:39:51.391Z</time></trkpt><trkpt lat="41.3338157" lon="1.8711514"><ele>312.0</ele><time>2026-04-27T10:39:52.389Z</time></trkpt><trkpt lat="41.333854" lon="1.87097"><ele>311.75</ele><time>2026-04-27T10:39:53.379Z</time></trkpt><trkpt lat="41.3338762" lon="1.8707879"><ele>311.5</ele><time>2026-04-27T10:39:54.375Z</time></trkpt><trkpt lat="41.3338941" lon="1.8706077"><ele>311.25</ele><time>2026-04-27T10:39:55.381Z</time></trkpt><trkpt lat="41.3339299" lon="1.8704224"><ele>311.0</ele><time>2026-04-27T10:39:56.381Z</time></trkpt><trkpt lat="41.3339878" lon="1.8702321"><ele>313.33333333333337</ele><time>2026-04-27T10:39:57.38Z</time></trkpt><trkpt lat="41.3340718" lon="1.870049"><ele>315.6666666666667</ele><time>2026-04-27T10:39:58.383Z</time></trkpt><trkpt lat="41.3341673" lon="1.86988"><ele>318.0</ele><time>2026-04-27T10:39:59.382Z</time></trkpt><trkpt lat="41.3342615" lon="1.8697134"><ele>318.0</ele><time>2026-04-27T10:40:00.38Z</time></trkpt><trkpt lat="41.334446" lon="1.8693839"><ele>318.0</ele><time>2026-04-27T10:40:02.392Z</time></trkpt><trkpt lat="41.3345365" lon="1.8692072"><ele>319.3333333333333</ele><time>2026-04-27T10:40:03.381Z</time></trkpt><trkpt lat="41.3346207" lon="1.8690128"><ele>320.66666666666663</ele><time>2026-04-27T10:40:04.377Z</time></trkpt><trkpt lat="41.3346848" lon="1.8688131"><ele>322.0</ele><time>2026-04-27T10:40:05.384Z</time></trkpt><trkpt lat="41.3347392" lon="1.8686007"><ele>321.0</ele><time>2026-04-27T10:40:06.377Z</time></trkpt><trkpt lat="41.3347766" lon="1.86837"><ele>320.0</ele><time>2026-04-27T10:40:07.387Z</time></trkpt><trkpt lat="41.3348254" lon="1.8681401"><ele>319.0</ele><time>2026-04-27T10:40:08.381Z</time></trkpt><trkpt lat="41.3348809" lon="1.8679075"><ele>319.0</ele><time>2026-04-27T10:40:09.386Z</time></trkpt><trkpt lat="41.3349321" lon="1.8676799"><ele>319.0</ele><time>2026-04-27T10:40:10.382Z</time></trkpt><trkpt lat="41.3349826" lon="1.8674561"><ele>319.0</ele><time>2026-04-27T10:40:11.388Z</time></trkpt><trkpt lat="41.3350111" lon="1.8672325"><ele>318.66666666666663</ele><time>2026-04-27T10:40:12.38Z</time></trkpt><trkpt lat="41.3350212" lon="1.8669998"><ele>318.3333333333333</ele><time>2026-04-27T10:40:13.385Z</time></trkpt><trkpt lat="41.3350191" lon="1.8667719"><ele>318.0</ele><time>2026-04-27T10:40:14.372Z</time></trkpt><trkpt lat="41.3350083" lon="1.866554"><ele>318.0</ele><time>2026-04-27T10:40:15.386Z</time></trkpt><trkpt lat="41.3349886" lon="1.8663259"><ele>318.0</ele><time>2026-04-27T10:40:16.381Z</time></trkpt><trkpt lat="41.3349722" lon="1.8661087"><ele>318.0</ele><time>2026-04-27T10:40:17.386Z</time></trkpt><trkpt lat="41.3349401" lon="1.8659063"><ele>318.3333333333333</ele><time>2026-04-27T10:40:18.377Z</time></trkpt><trkpt lat="41.3349001" lon="1.865707"><ele>318.66666666666663</ele><time>2026-04-27T10:40:19.385Z</time></trkpt><trkpt lat="41.334855" lon="1.8655047"><ele>319.0</ele><time>2026-04-27T10:40:20.378Z</time></trkpt><trkpt lat="41.3347934" lon="1.8653268"><ele>315.0</ele><time>2026-04-27T10:40:21.381Z</time></trkpt><trkpt lat="41.3347042" lon="1.8651415"><ele>311.0</ele><time>2026-04-27T10:40:22.376Z</time></trkpt><trkpt lat="41.3345973" lon="1.8649666"><ele>307.0</ele><time>2026-04-27T10:40:23.381Z</time></trkpt><trkpt lat="41.3344979" lon="1.8648022"><ele>307.0</ele><time>2026-04-27T10:40:24.377Z</time></trkpt><trkpt lat="41.3344121" lon="1.8646492"><ele>307.0</ele><time>2026-04-27T10:40:25.382Z</time></trkpt><trkpt lat="41.334345" lon="1.8644918"><ele>307.0</ele><time>2026-04-27T10:40:26.378Z</time></trkpt><trkpt lat="41.3342912" lon="1.8643304"><ele>307.0</ele><time>2026-04-27T10:40:27.386Z</time></trkpt><trkpt lat="41.3342431" lon="1.8641559"><ele>307.0</ele><time>2026-04-27T10:40:28.39Z</time></trkpt><trkpt lat="41.3342003" lon="1.8639699"><ele>307.0</ele><time>2026-04-27T10:40:29.388Z</time></trkpt><trkpt lat="41.3341721" lon="1.8637774"><ele>307.0</ele><time>2026-04-27T10:40:30.386Z</time></trkpt><trkpt lat="41.3341657" lon="1.8635866"><ele>307.0</ele><time>2026-04-27T10:40:31.39Z</time></trkpt><trkpt lat="41.3341795" lon="1.8633862"><ele>307.0</ele><time>2026-04-27T10:40:32.383Z</time></trkpt><trkpt lat="41.3342078" lon="1.8631861"><ele>307.0</ele><time>2026-04-27T10:40:33.402Z</time></trkpt><trkpt lat="41.3342531" lon="1.862992"><ele>307.0</ele><time>2026-04-27T10:40:34.391Z</time></trkpt><trkpt lat="41.3343299" lon="1.8628345"><ele>307.0</ele><time>2026-04-27T10:40:35.388Z</time></trkpt><trkpt lat="41.3344178" lon="1.8626998"><ele>307.0</ele><time>2026-04-27T10:40:36.39Z</time></trkpt><trkpt lat="41.3345309" lon="1.862616"><ele>307.0</ele><time>2026-04-27T10:40:37.398Z</time></trkpt><trkpt lat="41.3346777" lon="1.8625853"><ele>307.0</ele><time>2026-04-27T10:40:38.389Z</time></trkpt><trkpt lat="41.3348148" lon="1.8625722"><ele>307.0</ele><time>2026-04-27T10:40:39.386Z</time></trkpt><trkpt lat="41.3349647" lon="1.8625848"><ele>307.5</ele><time>2026-04-27T10:40:40.39Z</time></trkpt><trkpt lat="41.3351059" lon="1.8626469"><ele>308.0</ele><time>2026-04-27T10:40:41.388Z</time></trkpt><trkpt lat="41.3352332" lon="1.8627374"><ele>308.5</ele><time>2026-04-27T10:40:42.387Z</time></trkpt><trkpt lat="41.3353505" lon="1.8628458"><ele>309.0</ele><time>2026-04-27T10:40:43.393Z</time></trkpt><trkpt lat="41.3354601" lon="1.8629457"><ele>308.5</ele><time>2026-04-27T10:40:44.39Z</time></trkpt><trkpt lat="41.3355698" lon="1.8630373"><ele>308.0</ele><time>2026-04-27T10:40:45.387Z</time></trkpt><trkpt lat="41.3356817" lon="1.8631284"><ele>307.5</ele><time>2026-04-27T10:40:46.378Z</time></trkpt><trkpt lat="41.3357986" lon="1.8632165"><ele>307.0</ele><time>2026-04-27T10:40:47.389Z</time></trkpt><trkpt lat="41.3359021" lon="1.8632984"><ele>307.0</ele><time>2026-04-27T10:40:48.38Z</time></trkpt><trkpt lat="41.3360177" lon="1.8633726"><ele>307.0</ele><time>2026-04-27T10:40:49.39Z</time></trkpt><trkpt lat="41.3361382" lon="1.8634099"><ele>307.0</ele><time>2026-04-27T10:40:50.371Z</time></trkpt><trkpt lat="41.3362602" lon="1.8634278"><ele>307.0</ele><time>2026-04-27T10:40:51.392Z</time></trkpt><trkpt lat="41.3363881" lon="1.8634276"><ele>307.75</ele><time>2026-04-27T10:40:52.39Z</time></trkpt><trkpt lat="41.3365188" lon="1.863408"><ele>308.5</ele><time>2026-04-27T10:40:53.377Z</time></trkpt><trkpt lat="41.3366396" lon="1.8633614"><ele>309.25</ele><time>2026-04-27T10:40:54.379Z</time></trkpt><trkpt lat="41.3367613" lon="1.8632819"><ele>310.0</ele><time>2026-04-27T10:40:55.372Z</time></trkpt><trkpt lat="41.3368797" lon="1.8631697"><ele>310.0</ele><time>2026-04-27T10:40:56.373Z</time></trkpt><trkpt lat="41.3369844" lon="1.8630374"><ele>310.0</ele><time>2026-04-27T10:40:57.365Z</time></trkpt><trkpt lat="41.3370847" lon="1.8629037"><ele>310.0</ele><time>2026-04-27T10:40:58.367Z</time></trkpt><trkpt lat="41.3371754" lon="1.8627435"><ele>310.0</ele><time>2026-04-27T10:40:59.363Z</time></trkpt><trkpt lat="41.3372675" lon="1.8625691"><ele>311.66666666666663</ele><time>2026-04-27T10:41:00.366Z</time></trkpt><trkpt lat="41.3373565" lon="1.86239"><ele>313.3333333333333</ele><time>2026-04-27T10:41:01.369Z</time></trkpt><trkpt lat="41.3374415" lon="1.8622169"><ele>315.0</ele><time>2026-04-27T10:41:02.365Z</time></trkpt><trkpt lat="41.3375473" lon="1.8620649"><ele>315.0</ele><time>2026-04-27T10:41:03.369Z</time></trkpt><trkpt lat="41.3376481" lon="1.8619067"><ele>315.0</ele><time>2026-04-27T10:41:04.382Z</time></trkpt><trkpt lat="41.3377554" lon="1.8617424"><ele>315.0</ele><time>2026-04-27T10:41:05.37Z</time></trkpt><trkpt lat="41.3378597" lon="1.8615765"><ele>316.3333333333333</ele><time>2026-04-27T10:41:06.372Z</time></trkpt><trkpt lat="41.3379683" lon="1.8614316"><ele>317.66666666666663</ele><time>2026-04-27T10:41:07.374Z</time></trkpt><trkpt lat="41.3380662" lon="1.8612709"><ele>319.0</ele><time>2026-04-27T10:41:08.373Z</time></trkpt><trkpt lat="41.3381382" lon="1.8610868"><ele>313.3333333333333</ele><time>2026-04-27T10:41:09.372Z</time></trkpt><trkpt lat="41.3382007" lon="1.860872"><ele>307.6666666666667</ele><time>2026-04-27T10:41:10.375Z</time></trkpt><trkpt lat="41.3382553" lon="1.8606853"><ele>302.0</ele><time>2026-04-27T10:41:11.371Z</time></trkpt><trkpt lat="41.3383329" lon="1.860506"><ele>302.0</ele><time>2026-04-27T10:41:12.373Z</time></trkpt><trkpt lat="41.3384297" lon="1.8603334"><ele>302.0</ele><time>2026-04-27T10:41:13.372Z</time></trkpt><trkpt lat="41.3385294" lon="1.8601591"><ele>302.0</ele><time>2026-04-27T10:41:14.373Z</time></trkpt><trkpt lat="41.3386217" lon="1.8600071"><ele>302.0</ele><time>2026-04-27T10:41:15.372Z</time></trkpt><trkpt lat="41.3387191" lon="1.8598618"><ele>302.0</ele><time>2026-04-27T10:41:16.371Z</time></trkpt><trkpt lat="41.3388227" lon="1.8597362"><ele>302.0</ele><time>2026-04-27T10:41:17.373Z</time></trkpt><trkpt lat="41.3389402" lon="1.8596482"><ele>302.0</ele><time>2026-04-27T10:41:18.363Z</time></trkpt><trkpt lat="41.3390632" lon="1.8595836"><ele>302.0</ele><time>2026-04-27T10:41:19.362Z</time></trkpt><trkpt lat="41.3391988" lon="1.8595855"><ele>302.0</ele><time>2026-04-27T10:41:20.372Z</time></trkpt><trkpt lat="41.339333" lon="1.8596187"><ele>302.0</ele><time>2026-04-27T10:41:21.366Z</time></trkpt><trkpt lat="41.3394721" lon="1.8596795"><ele>302.0</ele><time>2026-04-27T10:41:22.357Z</time></trkpt><trkpt lat="41.3396196" lon="1.8597649"><ele>301.5</ele><time>2026-04-27T10:41:23.362Z</time></trkpt><trkpt lat="41.3397493" lon="1.8598585"><ele>301.0</ele><time>2026-04-27T10:41:24.358Z</time></trkpt><trkpt lat="41.3398805" lon="1.8599505"><ele>300.5</ele><time>2026-04-27T10:41:25.365Z</time></trkpt><trkpt lat="41.3400006" lon="1.8600261"><ele>300.0</ele><time>2026-04-27T10:41:26.362Z</time></trkpt><trkpt lat="41.3401134" lon="1.8600852"><ele>300.0</ele><time>2026-04-27T10:41:27.373Z</time></trkpt><trkpt lat="41.3402041" lon="1.8601281"><ele>300.0</ele><time>2026-04-27T10:41:28.371Z</time></trkpt><trkpt lat="41.3402908" lon="1.8601233"><ele>300.0</ele><time>2026-04-27T10:41:29.372Z</time></trkpt><trkpt lat="41.3403758" lon="1.8600754"><ele>300.0</ele><time>2026-04-27T10:41:30.36Z</time></trkpt><trkpt lat="41.3404588" lon="1.8600022"><ele>300.0</ele><time>2026-04-27T10:41:31.372Z</time></trkpt><trkpt lat="41.340524" lon="1.8598903"><ele>299.8</ele><time>2026-04-27T10:41:32.357Z</time></trkpt><trkpt lat="41.3405909" lon="1.8597862"><ele>299.6</ele><time>2026-04-27T10:41:33.367Z</time></trkpt><trkpt lat="41.3406591" lon="1.8596693"><ele>299.4</ele><time>2026-04-27T10:41:34.362Z</time></trkpt><trkpt lat="41.3407331" lon="1.8595567"><ele>299.2</ele><time>2026-04-27T10:41:35.387Z</time></trkpt><trkpt lat="41.3408136" lon="1.8594466"><ele>299.0</ele><time>2026-04-27T10:41:36.372Z</time></trkpt><trkpt lat="41.3409076" lon="1.8593421"><ele>297.25</ele><time>2026-04-27T10:41:37.371Z</time></trkpt><trkpt lat="41.3410088" lon="1.8592406"><ele>295.5</ele><time>2026-04-27T10:41:38.374Z</time></trkpt><trkpt lat="41.3411098" lon="1.8591574"><ele>293.75</ele><time>2026-04-27T10:41:39.376Z</time></trkpt><trkpt lat="41.3412157" lon="1.859068"><ele>292.0</ele><time>2026-04-27T10:41:40.378Z</time></trkpt><trkpt lat="41.3413232" lon="1.8589691"><ele>291.0</ele><time>2026-04-27T10:41:41.38Z</time></trkpt><trkpt lat="41.3414331" lon="1.8588686"><ele>290.0</ele><time>2026-04-27T10:41:42.376Z</time></trkpt><trkpt lat="41.3415436" lon="1.8587712"><ele>289.0</ele><time>2026-04-27T10:41:43.366Z</time></trkpt><trkpt lat="41.3416655" lon="1.8586711"><ele>288.0</ele><time>2026-04-27T10:41:44.37Z</time></trkpt><trkpt lat="41.3417846" lon="1.8585746"><ele>288.0</ele><time>2026-04-27T10:41:45.371Z</time></trkpt><trkpt lat="41.3418979" lon="1.8584981"><ele>288.0</ele><time>2026-04-27T10:41:46.378Z</time></trkpt><trkpt lat="41.3420133" lon="1.8584652"><ele>288.0</ele><time>2026-04-27T10:41:47.375Z</time></trkpt><trkpt lat="41.3421368" lon="1.8584919"><ele>288.0</ele><time>2026-04-27T10:41:48.374Z</time></trkpt><trkpt lat="41.3422508" lon="1.8585781"><ele>288.0</ele><time>2026-04-27T10:41:49.377Z</time></trkpt><trkpt lat="41.3423328" lon="1.8587099"><ele>288.0</ele><time>2026-04-27T10:41:50.37Z</time></trkpt><trkpt lat="41.3423995" lon="1.8588414"><ele>288.0</ele><time>2026-04-27T10:41:51.379Z</time></trkpt><trkpt lat="41.3424796" lon="1.8589142"><ele>288.0</ele><time>2026-04-27T10:41:52.382Z</time></trkpt><trkpt lat="41.3425734" lon="1.858935"><ele>288.0</ele><time>2026-04-27T10:41:53.388Z</time></trkpt><trkpt lat="41.3426471" lon="1.8588988"><ele>288.0</ele><time>2026-04-27T10:41:54.381Z</time></trkpt><trkpt lat="41.3427264" lon="1.8587963"><ele>288.0</ele><time>2026-04-27T10:41:55.384Z</time></trkpt><trkpt lat="41.3428036" lon="1.8586937"><ele>288.0</ele><time>2026-04-27T10:41:56.379Z</time></trkpt><trkpt lat="41.3428775" lon="1.8585869"><ele>288.0</ele><time>2026-04-27T10:41:57.381Z</time></trkpt><trkpt lat="41.3429538" lon="1.8584748"><ele>288.0</ele><time>2026-04-27T10:41:58.38Z</time></trkpt><trkpt lat="41.3430253" lon="1.858356"><ele>288.0</ele><time>2026-04-27T10:41:59.38Z</time></trkpt><trkpt lat="41.3430997" lon="1.8582356"><ele>288.0</ele><time>2026-04-27T10:42:00.377Z</time></trkpt><trkpt lat="41.3431795" lon="1.8581169"><ele>288.0</ele><time>2026-04-27T10:42:01.38Z</time></trkpt><trkpt lat="41.3432586" lon="1.8580031"><ele>288.0</ele><time>2026-04-27T10:42:02.38Z</time></trkpt><trkpt lat="41.343334" lon="1.8578885"><ele>288.0</ele><time>2026-04-27T10:42:03.381Z</time></trkpt><trkpt lat="41.3434087" lon="1.8577871"><ele>288.0</ele><time>2026-04-27T10:42:04.377Z</time></trkpt><trkpt lat="41.3434871" lon="1.8576952"><ele>288.0</ele><time>2026-04-27T10:42:05.376Z</time></trkpt><trkpt lat="41.343567" lon="1.8576215"><ele>288.0</ele><time>2026-04-27T10:42:06.393Z</time></trkpt><trkpt lat="41.3436429" lon="1.8575711"><ele>288.0</ele><time>2026-04-27T10:42:07.38Z</time></trkpt><trkpt lat="41.3437191" lon="1.8575287"><ele>288.00000000000006</ele><time>2026-04-27T10:42:08.382Z</time></trkpt><trkpt lat="41.3437879" lon="1.8574939"><ele>288.0</ele><time>2026-04-27T10:42:09.376Z</time></trkpt><trkpt lat="41.343855" lon="1.8574516"><ele>288.0</ele><time>2026-04-27T10:42:10.376Z</time></trkpt><trkpt lat="41.3439267" lon="1.8574181"><ele>288.0</ele><time>2026-04-27T10:42:11.379Z</time></trkpt><trkpt lat="41.3439934" lon="1.8573887"><ele>288.0</ele><time>2026-04-27T10:42:12.379Z</time></trkpt><trkpt lat="41.3440674" lon="1.8573621"><ele>288.00000000000006</ele><time>2026-04-27T10:42:13.381Z</time></trkpt><trkpt lat="41.3441351" lon="1.8573488"><ele>288.0</ele><time>2026-04-27T10:42:14.377Z</time></trkpt><trkpt lat="41.3442093" lon="1.8573326"><ele>288.0</ele><time>2026-04-27T10:42:15.381Z</time></trkpt><trkpt lat="41.3442935" lon="1.8573274"><ele>288.0</ele><time>2026-04-27T10:42:16.385Z</time></trkpt><trkpt lat="41.3443892" lon="1.8573256"><ele>288.0</ele><time>2026-04-27T10:42:17.384Z</time></trkpt><trkpt lat="41.344494" lon="1.8573319"><ele>288.0</ele><time>2026-04-27T10:42:18.382Z</time></trkpt><trkpt lat="41.3445996" lon="1.8573439"><ele>288.0</ele><time>2026-04-27T10:42:19.393Z</time></trkpt><trkpt lat="41.3446994" lon="1.8573661"><ele>288.0</ele><time>2026-04-27T10:42:20.38Z</time></trkpt><trkpt lat="41.3447976" lon="1.8574014"><ele>288.0</ele><time>2026-04-27T10:42:21.388Z</time></trkpt><trkpt lat="41.3448808" lon="1.8574419"><ele>288.0</ele><time>2026-04-27T10:42:22.384Z</time></trkpt><trkpt lat="41.3449628" lon="1.8574996"><ele>288.0</ele><time>2026-04-27T10:42:23.393Z</time></trkpt><trkpt lat="41.3450331" lon="1.8575756"><ele>288.0</ele><time>2026-04-27T10:42:24.383Z</time></trkpt><trkpt lat="41.3450936" lon="1.8576671"><ele>286.3333333333333</ele><time>2026-04-27T10:42:25.385Z</time></trkpt><trkpt lat="41.3451493" lon="1.8577575"><ele>284.6666666666667</ele><time>2026-04-27T10:42:26.381Z</time></trkpt><trkpt lat="41.3452054" lon="1.8578387"><ele>283.0</ele><time>2026-04-27T10:42:27.386Z</time></trkpt><trkpt lat="41.3452581" lon="1.8579266"><ele>281.33333333333337</ele><time>2026-04-27T10:42:28.387Z</time></trkpt><trkpt lat="41.3453051" lon="1.8580039"><ele>279.6666666666667</ele><time>2026-04-27T10:42:29.388Z</time></trkpt><trkpt lat="41.3453539" lon="1.8580748"><ele>278.0</ele><time>2026-04-27T10:42:30.383Z</time></trkpt><trkpt lat="41.345405" lon="1.8581444"><ele>278.0</ele><time>2026-04-27T10:42:31.386Z</time></trkpt><trkpt lat="41.34546" lon="1.8582008"><ele>278.0</ele><time>2026-04-27T10:42:32.385Z</time></trkpt><trkpt lat="41.3455264" lon="1.8582433"><ele>278.0</ele><time>2026-04-27T10:42:33.386Z</time></trkpt><trkpt lat="41.3456023" lon="1.8582693"><ele>278.0</ele><time>2026-04-27T10:42:34.384Z</time></trkpt><trkpt lat="41.3456863" lon="1.8582787"><ele>278.0</ele><time>2026-04-27T10:42:35.386Z</time></trkpt><trkpt lat="41.3457758" lon="1.8582731"><ele>278.0</ele><time>2026-04-27T10:42:36.387Z</time></trkpt><trkpt lat="41.3458703" lon="1.8582437"><ele>279.0</ele><time>2026-04-27T10:42:37.411Z</time></trkpt><trkpt lat="41.3459748" lon="1.858173"><ele>280.0</ele><time>2026-04-27T10:42:38.387Z</time></trkpt><trkpt lat="41.3460824" lon="1.8580788"><ele>281.0</ele><time>2026-04-27T10:42:39.389Z</time></trkpt><trkpt lat="41.3461918" lon="1.8579722"><ele>282.0</ele><time>2026-04-27T10:42:40.382Z</time></trkpt><trkpt lat="41.3462917" lon="1.8578513"><ele>281.6</ele><time>2026-04-27T10:42:41.383Z</time></trkpt><trkpt lat="41.3463858" lon="1.8577553"><ele>281.2</ele><time>2026-04-27T10:42:42.384Z</time></trkpt><trkpt lat="41.3464731" lon="1.8576637"><ele>280.8</ele><time>2026-04-27T10:42:43.389Z</time></trkpt><trkpt lat="41.3465537" lon="1.8575873"><ele>280.4</ele><time>2026-04-27T10:42:44.384Z</time></trkpt><trkpt lat="41.3466291" lon="1.8575124"><ele>280.0</ele><time>2026-04-27T10:42:45.393Z</time></trkpt><trkpt lat="41.3466985" lon="1.8574397"><ele>280.0</ele><time>2026-04-27T10:42:46.385Z</time></trkpt><trkpt lat="41.3467651" lon="1.8573603"><ele>280.0</ele><time>2026-04-27T10:42:47.385Z</time></trkpt><trkpt lat="41.3468307" lon="1.8572819"><ele>280.0</ele><time>2026-04-27T10:42:48.385Z</time></trkpt><trkpt lat="41.3468869" lon="1.8572062"><ele>280.0</ele><time>2026-04-27T10:42:49.388Z</time></trkpt><trkpt lat="41.3469419" lon="1.8571202"><ele>280.0</ele><time>2026-04-27T10:42:50.384Z</time></trkpt><trkpt lat="41.3469858" lon="1.8570282"><ele>280.0</ele><time>2026-04-27T10:42:51.383Z</time></trkpt><trkpt lat="41.3470233" lon="1.8569322"><ele>280.0</ele><time>2026-04-27T10:42:52.384Z</time></trkpt><trkpt lat="41.3470485" lon="1.8568255"><ele>280.0</ele><time>2026-04-27T10:42:53.382Z</time></trkpt><trkpt lat="41.3470716" lon="1.8567094"><ele>280.0</ele><time>2026-04-27T10:42:54.378Z</time></trkpt><trkpt lat="41.3470812" lon="1.856579"><ele>280.0</ele><time>2026-04-27T10:42:55.381Z</time></trkpt><trkpt lat="41.3470835" lon="1.8564293"><ele>280.0</ele><time>2026-04-27T10:42:56.379Z</time></trkpt><trkpt lat="41.3470689" lon="1.8562689"><ele>280.75</ele><time>2026-04-27T10:42:57.386Z</time></trkpt><trkpt lat="41.3470418" lon="1.8561052"><ele>281.5</ele><time>2026-04-27T10:42:58.381Z</time></trkpt><trkpt lat="41.3469978" lon="1.8559481"><ele>282.25</ele><time>2026-04-27T10:42:59.388Z</time></trkpt><trkpt lat="41.3469351" lon="1.8557954"><ele>283.0</ele><time>2026-04-27T10:43:00.383Z</time></trkpt><trkpt lat="41.3468478" lon="1.8556463"><ele>280.66666666666663</ele><time>2026-04-27T10:43:01.378Z</time></trkpt><trkpt lat="41.3467451" lon="1.855491"><ele>278.3333333333333</ele><time>2026-04-27T10:43:02.375Z</time></trkpt><trkpt lat="41.3466408" lon="1.8553333"><ele>276.0</ele><time>2026-04-27T10:43:03.385Z</time></trkpt><trkpt lat="41.3465569" lon="1.8551682"><ele>276.0</ele><time>2026-04-27T10:43:04.381Z</time></trkpt><trkpt lat="41.346481" lon="1.8549865"><ele>276.0</ele><time>2026-04-27T10:43:05.385Z</time></trkpt><trkpt lat="41.3464004" lon="1.85481"><ele>276.0</ele><time>2026-04-27T10:43:06.382Z</time></trkpt><trkpt lat="41.3463189" lon="1.854622"><ele>276.0</ele><time>2026-04-27T10:43:07.38Z</time></trkpt><trkpt lat="41.3462501" lon="1.8544236"><ele>276.0</ele><time>2026-04-27T10:43:08.393Z</time></trkpt><trkpt lat="41.3461902" lon="1.8542258"><ele>276.0</ele><time>2026-04-27T10:43:09.38Z</time></trkpt><trkpt lat="41.3461377" lon="1.8540204"><ele>273.5</ele><time>2026-04-27T10:43:10.381Z</time></trkpt><trkpt lat="41.3460651" lon="1.8536232"><ele>271.0</ele><time>2026-04-27T10:43:12.385Z</time></trkpt><trkpt lat="41.3460458" lon="1.8534293"><ele>271.0</ele><time>2026-04-27T10:43:13.385Z</time></trkpt><trkpt lat="41.3460355" lon="1.8532337"><ele>271.0</ele><time>2026-04-27T10:43:14.383Z</time></trkpt><trkpt lat="41.3460417" lon="1.85304"><ele>271.0</ele><time>2026-04-27T10:43:15.381Z</time></trkpt><trkpt lat="41.3460576" lon="1.8528498"><ele>271.0</ele><time>2026-04-27T10:43:16.381Z</time></trkpt><trkpt lat="41.346083" lon="1.8526474"><ele>270.66666666666663</ele><time>2026-04-27T10:43:17.378Z</time></trkpt><trkpt lat="41.3461075" lon="1.8524358"><ele>270.3333333333333</ele><time>2026-04-27T10:43:18.382Z</time></trkpt><trkpt lat="41.3461224" lon="1.8522187"><ele>270.0</ele><time>2026-04-27T10:43:19.387Z</time></trkpt><trkpt lat="41.3461488" lon="1.8520087"><ele>270.0</ele><time>2026-04-27T10:43:20.392Z</time></trkpt><trkpt lat="41.3461811" lon="1.8517942"><ele>270.0</ele><time>2026-04-27T10:43:21.386Z</time></trkpt><trkpt lat="41.3462186" lon="1.8515978"><ele>270.0</ele><time>2026-04-27T10:43:22.387Z</time></trkpt><trkpt lat="41.3462627" lon="1.8511638"><ele>268.0</ele><time>2026-04-27T10:43:24.388Z</time></trkpt><trkpt lat="41.3462863" lon="1.8509397"><ele>266.0</ele><time>2026-04-27T10:43:25.389Z</time></trkpt><trkpt lat="41.3463134" lon="1.8507115"><ele>264.0</ele><time>2026-04-27T10:43:26.389Z</time></trkpt><trkpt lat="41.3463374" lon="1.8504808"><ele>264.0</ele><time>2026-04-27T10:43:27.39Z</time></trkpt><trkpt lat="41.3463619" lon="1.850258"><ele>264.0</ele><time>2026-04-27T10:43:28.392Z</time></trkpt><trkpt lat="41.3463881" lon="1.8500331"><ele>264.0</ele><time>2026-04-27T10:43:29.391Z</time></trkpt><trkpt lat="41.3464126" lon="1.8498012"><ele>266.3333333333333</ele><time>2026-04-27T10:43:30.382Z</time></trkpt><trkpt lat="41.3464356" lon="1.8495715"><ele>268.66666666666663</ele><time>2026-04-27T10:43:31.379Z</time></trkpt><trkpt lat="41.3464594" lon="1.8493358"><ele>271.0</ele><time>2026-04-27T10:43:32.387Z</time></trkpt><trkpt lat="41.3464865" lon="1.8491038"><ele>271.0</ele><time>2026-04-27T10:43:33.387Z</time></trkpt><trkpt lat="41.3465069" lon="1.8488676"><ele>271.0</ele><time>2026-04-27T10:43:34.39Z</time></trkpt><trkpt lat="41.3465228" lon="1.8486421"><ele>271.0</ele><time>2026-04-27T10:43:35.383Z</time></trkpt><trkpt lat="41.3465141" lon="1.8484486"><ele>270.75</ele><time>2026-04-27T10:43:36.377Z</time></trkpt><trkpt lat="41.3465153" lon="1.8482733"><ele>270.5</ele><time>2026-04-27T10:43:37.377Z</time></trkpt><trkpt lat="41.3465196" lon="1.8481287"><ele>270.25</ele><time>2026-04-27T10:43:38.383Z</time></trkpt><trkpt lat="41.3465507" lon="1.8479819"><ele>270.0</ele><time>2026-04-27T10:43:39.396Z</time></trkpt><trkpt lat="41.3465893" lon="1.8478362"><ele>270.0</ele><time>2026-04-27T10:43:40.378Z</time></trkpt><trkpt lat="41.3466315" lon="1.8476854"><ele>270.0</ele><time>2026-04-27T10:43:41.381Z</time></trkpt><trkpt lat="41.3466789" lon="1.8475414"><ele>270.0</ele><time>2026-04-27T10:43:42.381Z</time></trkpt><trkpt lat="41.3467196" lon="1.8473885"><ele>270.0</ele><time>2026-04-27T10:43:43.388Z</time></trkpt><trkpt lat="41.3467614" lon="1.8472308"><ele>269.0</ele><time>2026-04-27T10:43:44.39Z</time></trkpt><trkpt lat="41.3468015" lon="1.8470751"><ele>268.0</ele><time>2026-04-27T10:43:45.387Z</time></trkpt><trkpt lat="41.3468384" lon="1.8469206"><ele>267.0</ele><time>2026-04-27T10:43:46.388Z</time></trkpt><trkpt lat="41.3468662" lon="1.8467615"><ele>266.0</ele><time>2026-04-27T10:43:47.387Z</time></trkpt><trkpt lat="41.3468885" lon="1.8465949"><ele>265.0</ele><time>2026-04-27T10:43:48.39Z</time></trkpt><trkpt lat="41.3469036" lon="1.8464195"><ele>264.0</ele><time>2026-04-27T10:43:49.386Z</time></trkpt><trkpt lat="41.3469175" lon="1.8462495"><ele>263.0</ele><time>2026-04-27T10:43:50.392Z</time></trkpt><trkpt lat="41.3469247" lon="1.8460788"><ele>262.0</ele><time>2026-04-27T10:43:51.393Z</time></trkpt><trkpt lat="41.3469263" lon="1.8458988"><ele>261.75</ele><time>2026-04-27T10:43:52.395Z</time></trkpt><trkpt lat="41.3469269" lon="1.8457172"><ele>261.5</ele><time>2026-04-27T10:43:53.395Z</time></trkpt><trkpt lat="41.3469332" lon="1.8455392"><ele>261.25</ele><time>2026-04-27T10:43:54.39Z</time></trkpt><trkpt lat="41.3469496" lon="1.8453712"><ele>261.0</ele><time>2026-04-27T10:43:55.396Z</time></trkpt><trkpt lat="41.3469582" lon="1.8452106"><ele>261.6</ele><time>2026-04-27T10:43:56.393Z</time></trkpt><trkpt lat="41.346959" lon="1.8450713"><ele>262.20000000000005</ele><time>2026-04-27T10:43:57.397Z</time></trkpt><trkpt lat="41.3469399" lon="1.8449519"><ele>262.79999999999995</ele><time>2026-04-27T10:43:58.39Z</time></trkpt><trkpt lat="41.3468956" lon="1.8448526"><ele>263.4</ele><time>2026-04-27T10:43:59.389Z</time></trkpt><trkpt lat="41.3468073" lon="1.8447786"><ele>264.0</ele><time>2026-04-27T10:44:00.393Z</time></trkpt><trkpt lat="41.3467094" lon="1.8447414"><ele>264.0</ele><time>2026-04-27T10:44:01.385Z</time></trkpt><trkpt lat="41.3466151" lon="1.8447333"><ele>264.0</ele><time>2026-04-27T10:44:02.384Z</time></trkpt><trkpt lat="41.346522" lon="1.8447273"><ele>264.0</ele><time>2026-04-27T10:44:03.393Z</time></trkpt><trkpt lat="41.3464299" lon="1.8447187"><ele>264.0</ele><time>2026-04-27T10:44:04.395Z</time></trkpt><trkpt lat="41.3462461" lon="1.8446774"><ele>263.59999999999997</ele><time>2026-04-27T10:44:06.391Z</time></trkpt><trkpt lat="41.3461595" lon="1.8446375"><ele>263.2</ele><time>2026-04-27T10:44:07.389Z</time></trkpt><trkpt lat="41.3460718" lon="1.84458"><ele>262.79999999999995</ele><time>2026-04-27T10:44:08.385Z</time></trkpt><trkpt lat="41.3459848" lon="1.8445184"><ele>262.4</ele><time>2026-04-27T10:44:09.388Z</time></trkpt><trkpt lat="41.3459057" lon="1.8444431"><ele>262.0</ele><time>2026-04-27T10:44:10.398Z</time></trkpt><trkpt lat="41.3458274" lon="1.8443593"><ele>262.0</ele><time>2026-04-27T10:44:11.386Z</time></trkpt><trkpt lat="41.345746" lon="1.8442607"><ele>262.0</ele><time>2026-04-27T10:44:12.393Z</time></trkpt><trkpt lat="41.3456666" lon="1.8441634"><ele>262.0</ele><time>2026-04-27T10:44:13.388Z</time></trkpt><trkpt lat="41.3455863" lon="1.844076"><ele>262.0</ele><time>2026-04-27T10:44:14.39Z</time></trkpt><trkpt lat="41.3455018" lon="1.8439935"><ele>262.0</ele><time>2026-04-27T10:44:15.389Z</time></trkpt><trkpt lat="41.3454145" lon="1.8439055"><ele>262.0</ele><time>2026-04-27T10:44:16.392Z</time></trkpt><trkpt lat="41.3453288" lon="1.8438116"><ele>262.0</ele><time>2026-04-27T10:44:17.392Z</time></trkpt><trkpt lat="41.3452434" lon="1.8437185"><ele>262.0</ele><time>2026-04-27T10:44:18.389Z</time></trkpt><trkpt lat="41.3451571" lon="1.8436288"><ele>262.0</ele><time>2026-04-27T10:44:19.392Z</time></trkpt><trkpt lat="41.3450727" lon="1.8435384"><ele>262.0</ele><time>2026-04-27T10:44:20.391Z</time></trkpt><trkpt lat="41.3449943" lon="1.8434388"><ele>264.25</ele><time>2026-04-27T10:44:21.394Z</time></trkpt><trkpt lat="41.3449256" lon="1.8433265"><ele>266.5</ele><time>2026-04-27T10:44:22.389Z</time></trkpt><trkpt lat="41.3448596" lon="1.8431916"><ele>268.75</ele><time>2026-04-27T10:44:23.39Z</time></trkpt><trkpt lat="41.3447923" lon="1.843043"><ele>271.0</ele><time>2026-04-27T10:44:24.389Z</time></trkpt><trkpt lat="41.3447205" lon="1.8428901"><ele>269.5</ele><time>2026-04-27T10:44:25.394Z</time></trkpt><trkpt lat="41.3446493" lon="1.8427353"><ele>268.0</ele><time>2026-04-27T10:44:26.387Z</time></trkpt><trkpt lat="41.3445771" lon="1.8425833"><ele>266.5</ele><time>2026-04-27T10:44:27.39Z</time></trkpt><trkpt lat="41.3444986" lon="1.8424276"><ele>265.0</ele><time>2026-04-27T10:44:28.39Z</time></trkpt><trkpt lat="41.3444227" lon="1.8422804"><ele>265.0</ele><time>2026-04-27T10:44:29.396Z</time></trkpt><trkpt lat="41.3443459" lon="1.8421444"><ele>265.0</ele><time>2026-04-27T10:44:30.387Z</time></trkpt><trkpt lat="41.3442677" lon="1.8420161"><ele>265.0</ele><time>2026-04-27T10:44:31.389Z</time></trkpt><trkpt lat="41.344202" lon="1.8418877"><ele>265.0</ele><time>2026-04-27T10:44:32.378Z</time></trkpt><trkpt lat="41.344152" lon="1.8417698"><ele>266.16666666666663</ele><time>2026-04-27T10:44:33.386Z</time></trkpt><trkpt lat="41.3441128" lon="1.8416467"><ele>267.3333333333333</ele><time>2026-04-27T10:44:34.388Z</time></trkpt><trkpt lat="41.3441085" lon="1.841526"><ele>268.5</ele><time>2026-04-27T10:44:35.384Z</time></trkpt><trkpt lat="41.344146" lon="1.841422"><ele>269.6666666666667</ele><time>2026-04-27T10:44:36.388Z</time></trkpt><trkpt lat="41.3442119" lon="1.8413643"><ele>270.83333333333337</ele><time>2026-04-27T10:44:37.392Z</time></trkpt><trkpt lat="41.3442766" lon="1.8413503"><ele>272.0</ele><time>2026-04-27T10:44:38.385Z</time></trkpt><trkpt lat="41.3443403" lon="1.8413488"><ele>272.0</ele><time>2026-04-27T10:44:39.386Z</time></trkpt><trkpt lat="41.3444237" lon="1.8413553"><ele>272.0</ele><time>2026-04-27T10:44:41.407Z</time></trkpt><trkpt lat="41.3444951" lon="1.8413222"><ele>272.0</ele><time>2026-04-27T10:44:56.379Z</time></trkpt><trkpt lat="41.3445959" lon="1.8412814"><ele>272.0</ele><time>2026-04-27T10:44:58.384Z</time></trkpt><trkpt lat="41.3446598" lon="1.8412545"><ele>272.0</ele><time>2026-04-27T10:44:59.385Z</time></trkpt><trkpt lat="41.3447327" lon="1.8412255"><ele>272.0</ele><time>2026-04-27T10:45:00.359Z</time></trkpt><trkpt lat="41.344811" lon="1.8411878"><ele>273.4</ele><time>2026-04-27T10:45:01.363Z</time></trkpt><trkpt lat="41.3448943" lon="1.8411481"><ele>274.79999999999995</ele><time>2026-04-27T10:45:02.356Z</time></trkpt><trkpt lat="41.3449892" lon="1.8411077"><ele>276.2</ele><time>2026-04-27T10:45:03.36Z</time></trkpt><trkpt lat="41.345087" lon="1.8410652"><ele>277.59999999999997</ele><time>2026-04-27T10:45:04.359Z</time></trkpt><trkpt lat="41.3451833" lon="1.8410171"><ele>279.0</ele><time>2026-04-27T10:45:05.364Z</time></trkpt><trkpt lat="41.3452847" lon="1.8409727"><ele>277.75</ele><time>2026-04-27T10:45:06.356Z</time></trkpt><trkpt lat="41.345385" lon="1.840923"><ele>276.5</ele><time>2026-04-27T10:45:07.361Z</time></trkpt><trkpt lat="41.3454972" lon="1.8408691"><ele>275.25</ele><time>2026-04-27T10:45:08.354Z</time></trkpt><trkpt lat="41.3456116" lon="1.840817"><ele>274.0</ele><time>2026-04-27T10:45:09.349Z</time></trkpt><trkpt lat="41.3457302" lon="1.8407881"><ele>274.0</ele><time>2026-04-27T10:45:10.358Z</time></trkpt><trkpt lat="41.3458467" lon="1.8408032"><ele>274.0</ele><time>2026-04-27T10:45:11.362Z</time></trkpt><trkpt lat="41.345968" lon="1.840872"><ele>274.0</ele><time>2026-04-27T10:45:12.37Z</time></trkpt><trkpt lat="41.3460852" lon="1.840945"><ele>274.0</ele><time>2026-04-27T10:45:13.361Z</time></trkpt><trkpt lat="41.3461892" lon="1.8410136"><ele>275.3333333333333</ele><time>2026-04-27T10:45:14.354Z</time></trkpt><trkpt lat="41.3462827" lon="1.8410605"><ele>276.66666666666663</ele><time>2026-04-27T10:45:15.365Z</time></trkpt><trkpt lat="41.3463637" lon="1.8410723"><ele>278.0</ele><time>2026-04-27T10:45:16.364Z</time></trkpt><trkpt lat="41.3464329" lon="1.8410272"><ele>279.3333333333333</ele><time>2026-04-27T10:45:17.358Z</time></trkpt><trkpt lat="41.3464805" lon="1.8409446"><ele>280.6666666666667</ele><time>2026-04-27T10:45:18.364Z</time></trkpt><trkpt lat="41.3465165" lon="1.8408248"><ele>282.0</ele><time>2026-04-27T10:45:19.364Z</time></trkpt><trkpt lat="41.3465423" lon="1.8407024"><ele>282.0</ele><time>2026-04-27T10:45:20.368Z</time></trkpt><trkpt lat="41.3465691" lon="1.8405769"><ele>282.0</ele><time>2026-04-27T10:45:21.358Z</time></trkpt><trkpt lat="41.3465946" lon="1.8404431"><ele>282.0</ele><time>2026-04-27T10:45:22.368Z</time></trkpt><trkpt lat="41.3466266" lon="1.8403133"><ele>282.0</ele><time>2026-04-27T10:45:23.364Z</time></trkpt><trkpt lat="41.3466664" lon="1.840187"><ele>282.0</ele><time>2026-04-27T10:45:24.363Z</time></trkpt><trkpt lat="41.3467261" lon="1.8400769"><ele>281.75</ele><time>2026-04-27T10:45:25.364Z</time></trkpt><trkpt lat="41.3468087" lon="1.8399734"><ele>281.5</ele><time>2026-04-27T10:45:26.368Z</time></trkpt><trkpt lat="41.3468965" lon="1.839897"><ele>281.25</ele><time>2026-04-27T10:45:27.372Z</time></trkpt><trkpt lat="41.3470037" lon="1.8398345"><ele>281.0</ele><time>2026-04-27T10:45:28.366Z</time></trkpt><trkpt lat="41.3472321" lon="1.8397337"><ele>281.0</ele><time>2026-04-27T10:45:30.364Z</time></trkpt><trkpt lat="41.3473518" lon="1.839731"><ele>281.0</ele><time>2026-04-27T10:45:31.363Z</time></trkpt><trkpt lat="41.3474682" lon="1.8397698"><ele>281.0</ele><time>2026-04-27T10:45:32.357Z</time></trkpt><trkpt lat="41.3475938" lon="1.8398467"><ele>281.0</ele><time>2026-04-27T10:45:33.361Z</time></trkpt><trkpt lat="41.347706" lon="1.8399373"><ele>281.0</ele><time>2026-04-27T10:45:34.351Z</time></trkpt><trkpt lat="41.3478135" lon="1.8399998"><ele>281.0</ele><time>2026-04-27T10:45:35.364Z</time></trkpt><trkpt lat="41.3479352" lon="1.8400274"><ele>281.0</ele><time>2026-04-27T10:45:36.361Z</time></trkpt><trkpt lat="41.348055" lon="1.8400053"><ele>281.0</ele><time>2026-04-27T10:45:37.361Z</time></trkpt><trkpt lat="41.3481511" lon="1.8399224"><ele>280.8</ele><time>2026-04-27T10:45:38.359Z</time></trkpt><trkpt lat="41.3482235" lon="1.8398147"><ele>280.6</ele><time>2026-04-27T10:45:39.363Z</time></trkpt><trkpt lat="41.3482576" lon="1.8396895"><ele>280.4</ele><time>2026-04-27T10:45:40.357Z</time></trkpt><trkpt lat="41.3482591" lon="1.8395368"><ele>280.2</ele><time>2026-04-27T10:45:41.356Z</time></trkpt><trkpt lat="41.3482546" lon="1.839392"><ele>280.0</ele><time>2026-04-27T10:45:42.353Z</time></trkpt><trkpt lat="41.3482401" lon="1.8392446"><ele>280.0</ele><time>2026-04-27T10:45:43.388Z</time></trkpt><trkpt lat="41.3482065" lon="1.8390948"><ele>280.0</ele><time>2026-04-27T10:45:44.36Z</time></trkpt><trkpt lat="41.3481363" lon="1.8389577"><ele>280.0</ele><time>2026-04-27T10:45:45.353Z</time></trkpt><trkpt lat="41.3480504" lon="1.8388489"><ele>280.0</ele><time>2026-04-27T10:45:46.358Z</time></trkpt><trkpt lat="41.3479516" lon="1.8387522"><ele>279.0</ele><time>2026-04-27T10:45:47.348Z</time></trkpt><trkpt lat="41.3478534" lon="1.838659"><ele>278.0</ele><time>2026-04-27T10:45:48.358Z</time></trkpt><trkpt lat="41.3477801" lon="1.8385452"><ele>277.0</ele><time>2026-04-27T10:45:49.358Z</time></trkpt><trkpt lat="41.3477207" lon="1.8384121"><ele>276.0</ele><time>2026-04-27T10:45:50.362Z</time></trkpt><trkpt lat="41.3476953" lon="1.8382536"><ele>276.0</ele><time>2026-04-27T10:45:51.363Z</time></trkpt><trkpt lat="41.3476984" lon="1.8380897"><ele>276.0</ele><time>2026-04-27T10:45:52.356Z</time></trkpt><trkpt lat="41.3477202" lon="1.8379335"><ele>276.0</ele><time>2026-04-27T10:45:53.361Z</time></trkpt><trkpt lat="41.3477524" lon="1.8377749"><ele>276.0</ele><time>2026-04-27T10:45:54.359Z</time></trkpt><trkpt lat="41.3478092" lon="1.8376268"><ele>277.5</ele><time>2026-04-27T10:45:55.362Z</time></trkpt><trkpt lat="41.3478885" lon="1.8374968"><ele>279.0</ele><time>2026-04-27T10:45:56.354Z</time></trkpt><trkpt lat="41.347979" lon="1.8373824"><ele>280.5</ele><time>2026-04-27T10:45:57.358Z</time></trkpt><trkpt lat="41.3480654" lon="1.837264"><ele>282.0</ele><time>2026-04-27T10:45:58.362Z</time></trkpt><trkpt lat="41.3481487" lon="1.8371483"><ele>283.75</ele><time>2026-04-27T10:45:59.36Z</time></trkpt><trkpt lat="41.3482343" lon="1.8370392"><ele>285.5</ele><time>2026-04-27T10:46:00.359Z</time></trkpt><trkpt lat="41.3483234" lon="1.8369343"><ele>287.25</ele><time>2026-04-27T10:46:01.362Z</time></trkpt><trkpt lat="41.3484119" lon="1.836831"><ele>289.0</ele><time>2026-04-27T10:46:02.358Z</time></trkpt><trkpt lat="41.3485019" lon="1.8367239"><ele>289.0</ele><time>2026-04-27T10:46:03.36Z</time></trkpt><trkpt lat="41.3485916" lon="1.8366156"><ele>289.0</ele><time>2026-04-27T10:46:04.357Z</time></trkpt><trkpt lat="41.3486902" lon="1.8365135"><ele>289.0</ele><time>2026-04-27T10:46:05.358Z</time></trkpt><trkpt lat="41.3487962" lon="1.8364106"><ele>289.0</ele><time>2026-04-27T10:46:06.356Z</time></trkpt><trkpt lat="41.3488959" lon="1.8362957"><ele>291.25</ele><time>2026-04-27T10:46:07.36Z</time></trkpt><trkpt lat="41.3489948" lon="1.8361828"><ele>293.5</ele><time>2026-04-27T10:46:08.353Z</time></trkpt><trkpt lat="41.3490917" lon="1.8360746"><ele>295.75</ele><time>2026-04-27T10:46:09.362Z</time></trkpt><trkpt lat="41.3491848" lon="1.835963"><ele>298.0</ele><time>2026-04-27T10:46:10.36Z</time></trkpt><trkpt lat="41.3492779" lon="1.8358535"><ele>298.0</ele><time>2026-04-27T10:46:11.361Z</time></trkpt><trkpt lat="41.3493686" lon="1.8357449"><ele>298.0</ele><time>2026-04-27T10:46:12.358Z</time></trkpt><trkpt lat="41.3494617" lon="1.8356437"><ele>298.0</ele><time>2026-04-27T10:46:13.376Z</time></trkpt><trkpt lat="41.3495544" lon="1.8355532"><ele>298.0</ele><time>2026-04-27T10:46:14.353Z</time></trkpt><trkpt lat="41.3496582" lon="1.8354674"><ele>301.0</ele><time>2026-04-27T10:46:15.354Z</time></trkpt><trkpt lat="41.3497628" lon="1.8354009"><ele>304.0</ele><time>2026-04-27T10:46:16.357Z</time></trkpt><trkpt lat="41.349867" lon="1.8353313"><ele>307.0</ele><time>2026-04-27T10:46:17.364Z</time></trkpt><trkpt lat="41.3499626" lon="1.8352587"><ele>310.0</ele><time>2026-04-27T10:46:18.357Z</time></trkpt><trkpt lat="41.3500549" lon="1.8351837"><ele>308.6</ele><time>2026-04-27T10:46:19.361Z</time></trkpt><trkpt lat="41.3501386" lon="1.8351137"><ele>307.2</ele><time>2026-04-27T10:46:20.355Z</time></trkpt><trkpt lat="41.3502135" lon="1.8350541"><ele>305.8</ele><time>2026-04-27T10:46:21.353Z</time></trkpt><trkpt lat="41.3502715" lon="1.8349864"><ele>304.4</ele><time>2026-04-27T10:46:22.351Z</time></trkpt><trkpt lat="41.3503041" lon="1.8349101"><ele>303.0</ele><time>2026-04-27T10:46:23.355Z</time></trkpt><trkpt lat="41.3502415" lon="1.8347519"><ele>303.0</ele><time>2026-04-27T10:46:25.355Z</time></trkpt><trkpt lat="41.3501705" lon="1.8346828"><ele>303.0</ele><time>2026-04-27T10:46:26.358Z</time></trkpt><trkpt lat="41.3500742" lon="1.8346587"><ele>303.0</ele><time>2026-04-27T10:46:27.353Z</time></trkpt><trkpt lat="41.3499761" lon="1.8346527"><ele>303.0</ele><time>2026-04-27T10:46:28.354Z</time></trkpt><trkpt lat="41.3498795" lon="1.834675"><ele>303.0</ele><time>2026-04-27T10:46:29.356Z</time></trkpt><trkpt lat="41.3497778" lon="1.8346983"><ele>302.8</ele><time>2026-04-27T10:46:30.347Z</time></trkpt><trkpt lat="41.3496748" lon="1.8347225"><ele>302.6</ele><time>2026-04-27T10:46:31.361Z</time></trkpt><trkpt lat="41.3495727" lon="1.8347392"><ele>302.4</ele><time>2026-04-27T10:46:32.351Z</time></trkpt><trkpt lat="41.3494657" lon="1.8347507"><ele>302.2</ele><time>2026-04-27T10:46:33.362Z</time></trkpt><trkpt lat="41.3493662" lon="1.8347647"><ele>302.0</ele><time>2026-04-27T10:46:34.352Z</time></trkpt><trkpt lat="41.3492637" lon="1.834782"><ele>302.0</ele><time>2026-04-27T10:46:35.362Z</time></trkpt><trkpt lat="41.3491703" lon="1.8347779"><ele>302.0</ele><time>2026-04-27T10:46:36.361Z</time></trkpt><trkpt lat="41.3490881" lon="1.8347515"><ele>302.0</ele><time>2026-04-27T10:46:37.361Z</time></trkpt><trkpt lat="41.3490316" lon="1.8346729"><ele>302.0</ele><time>2026-04-27T10:46:38.367Z</time></trkpt><trkpt lat="41.3490024" lon="1.8345623"><ele>302.0</ele><time>2026-04-27T10:46:39.36Z</time></trkpt><trkpt lat="41.3490113" lon="1.8344326"><ele>302.0</ele><time>2026-04-27T10:46:40.36Z</time></trkpt><trkpt lat="41.3490298" lon="1.8343115"><ele>302.2</ele><time>2026-04-27T10:46:41.352Z</time></trkpt><trkpt lat="41.3490483" lon="1.8341869"><ele>302.4</ele><time>2026-04-27T10:46:42.356Z</time></trkpt><trkpt lat="41.3490694" lon="1.8340702"><ele>302.6</ele><time>2026-04-27T10:46:43.36Z</time></trkpt><trkpt lat="41.3491189" lon="1.8339603"><ele>302.8</ele><time>2026-04-27T10:46:44.376Z</time></trkpt><trkpt lat="41.3492" lon="1.8338689"><ele>303.0</ele><time>2026-04-27T10:46:45.354Z</time></trkpt><trkpt lat="41.3493016" lon="1.8337954"><ele>303.0</ele><time>2026-04-27T10:46:46.357Z</time></trkpt><trkpt lat="41.34941" lon="1.833724"><ele>303.0</ele><time>2026-04-27T10:46:47.361Z</time></trkpt><trkpt lat="41.3495158" lon="1.8336483"><ele>303.0</ele><time>2026-04-27T10:46:48.36Z</time></trkpt><trkpt lat="41.3496289" lon="1.8335679"><ele>303.0</ele><time>2026-04-27T10:46:49.364Z</time></trkpt><trkpt lat="41.3497362" lon="1.8334788"><ele>304.75</ele><time>2026-04-27T10:46:50.357Z</time></trkpt><trkpt lat="41.3498435" lon="1.8333708"><ele>306.5</ele><time>2026-04-27T10:46:51.359Z</time></trkpt><trkpt lat="41.3499314" lon="1.8332483"><ele>308.25</ele><time>2026-04-27T10:46:52.359Z</time></trkpt><trkpt lat="41.3500016" lon="1.8331156"><ele>310.0</ele><time>2026-04-27T10:46:53.352Z</time></trkpt><trkpt lat="41.3500597" lon="1.832976"><ele>310.0</ele><time>2026-04-27T10:46:54.36Z</time></trkpt><trkpt lat="41.3500896" lon="1.832825"><ele>310.0</ele><time>2026-04-27T10:46:55.363Z</time></trkpt><trkpt lat="41.3500728" lon="1.8326669"><ele>310.0</ele><time>2026-04-27T10:46:56.366Z</time></trkpt><trkpt lat="41.3500295" lon="1.8325122"><ele>310.0</ele><time>2026-04-27T10:46:57.367Z</time></trkpt><trkpt lat="41.3499506" lon="1.8323778"><ele>310.25</ele><time>2026-04-27T10:46:58.352Z</time></trkpt><trkpt lat="41.3498578" lon="1.832253"><ele>310.5</ele><time>2026-04-27T10:46:59.362Z</time></trkpt><trkpt lat="41.3497724" lon="1.832123"><ele>310.75</ele><time>2026-04-27T10:47:00.352Z</time></trkpt><trkpt lat="41.3496954" lon="1.831979"><ele>311.0</ele><time>2026-04-27T10:47:01.355Z</time></trkpt><trkpt lat="41.3496359" lon="1.8318171"><ele>309.0</ele><time>2026-04-27T10:47:02.352Z</time></trkpt><trkpt lat="41.3495841" lon="1.8316546"><ele>307.0</ele><time>2026-04-27T10:47:03.357Z</time></trkpt><trkpt lat="41.3495293" lon="1.8315033"><ele>305.0</ele><time>2026-04-27T10:47:04.356Z</time></trkpt><trkpt lat="41.3494555" lon="1.8313631"><ele>303.0</ele><time>2026-04-27T10:47:05.362Z</time></trkpt><trkpt lat="41.3493592" lon="1.8312511"><ele>303.0</ele><time>2026-04-27T10:47:06.351Z</time></trkpt><trkpt lat="41.3492637" lon="1.8311348"><ele>303.0</ele><time>2026-04-27T10:47:07.36Z</time></trkpt><trkpt lat="41.3491698" lon="1.8309934"><ele>303.0</ele><time>2026-04-27T10:47:08.355Z</time></trkpt><trkpt lat="41.3490976" lon="1.8308369"><ele>303.0</ele><time>2026-04-27T10:47:09.353Z</time></trkpt><trkpt lat="41.3490471" lon="1.8306479"><ele>304.25</ele><time>2026-04-27T10:47:10.356Z</time></trkpt><trkpt lat="41.3490313" lon="1.8304574"><ele>305.5</ele><time>2026-04-27T10:47:11.356Z</time></trkpt><trkpt lat="41.3490489" lon="1.8302637"><ele>306.75</ele><time>2026-04-27T10:47:12.355Z</time></trkpt><trkpt lat="41.3490891" lon="1.83007"><ele>308.0</ele><time>2026-04-27T10:47:13.354Z</time></trkpt><trkpt lat="41.3491442" lon="1.8298913"><ele>308.0</ele><time>2026-04-27T10:47:14.349Z</time></trkpt><trkpt lat="41.3491943" lon="1.8297174"><ele>308.0</ele><time>2026-04-27T10:47:15.376Z</time></trkpt><trkpt lat="41.3492494" lon="1.8295422"><ele>308.0</ele><time>2026-04-27T10:47:16.357Z</time></trkpt><trkpt lat="41.3493032" lon="1.8291721"><ele>307.75</ele><time>2026-04-27T10:47:18.358Z</time></trkpt><trkpt lat="41.3492861" lon="1.8289899"><ele>307.5</ele><time>2026-04-27T10:47:19.359Z</time></trkpt><trkpt lat="41.349264" lon="1.8288177"><ele>307.25</ele><time>2026-04-27T10:47:20.358Z</time></trkpt><trkpt lat="41.349246" lon="1.8286738"><ele>307.0</ele><time>2026-04-27T10:47:21.363Z</time></trkpt><trkpt lat="41.3492455" lon="1.8285218"><ele>307.6</ele><time>2026-04-27T10:47:22.359Z</time></trkpt><trkpt lat="41.3492694" lon="1.8283858"><ele>308.2</ele><time>2026-04-27T10:47:23.356Z</time></trkpt><trkpt lat="41.3493335" lon="1.8282792"><ele>308.8</ele><time>2026-04-27T10:47:24.35Z</time></trkpt><trkpt lat="41.3494203" lon="1.8281859"><ele>309.4</ele><time>2026-04-27T10:47:25.354Z</time></trkpt><trkpt lat="41.3495196" lon="1.8281148"><ele>310.0</ele><time>2026-04-27T10:47:26.357Z</time></trkpt><trkpt lat="41.3496371" lon="1.8280903"><ele>309.5</ele><time>2026-04-27T10:47:27.361Z</time></trkpt><trkpt lat="41.3497655" lon="1.828098"><ele>309.0</ele><time>2026-04-27T10:47:28.358Z</time></trkpt><trkpt lat="41.3498894" lon="1.828126"><ele>308.5</ele><time>2026-04-27T10:47:29.362Z</time></trkpt><trkpt lat="41.3500019" lon="1.8281878"><ele>308.0</ele><time>2026-04-27T10:47:30.354Z</time></trkpt><trkpt lat="41.3501247" lon="1.8282887"><ele>308.0</ele><time>2026-04-27T10:47:31.361Z</time></trkpt><trkpt lat="41.3502552" lon="1.828406"><ele>308.0</ele><time>2026-04-27T10:47:32.354Z</time></trkpt><trkpt lat="41.3503799" lon="1.8285309"><ele>308.0</ele><time>2026-04-27T10:47:33.36Z</time></trkpt><trkpt lat="41.3505041" lon="1.8286637"><ele>306.5</ele><time>2026-04-27T10:47:34.356Z</time></trkpt><trkpt lat="41.3506412" lon="1.828783"><ele>305.0</ele><time>2026-04-27T10:47:35.356Z</time></trkpt><trkpt lat="41.3507548" lon="1.8288865"><ele>303.5</ele><time>2026-04-27T10:47:36.356Z</time></trkpt><trkpt lat="41.3508487" lon="1.8289907"><ele>302.0</ele><time>2026-04-27T10:47:37.355Z</time></trkpt><trkpt lat="41.3509243" lon="1.8291234"><ele>302.0</ele><time>2026-04-27T10:47:38.355Z</time></trkpt><trkpt lat="41.3509594" lon="1.8292796"><ele>302.0</ele><time>2026-04-27T10:47:39.356Z</time></trkpt><trkpt lat="41.3509987" lon="1.8294461"><ele>302.0</ele><time>2026-04-27T10:47:40.357Z</time></trkpt><trkpt lat="41.351067" lon="1.82959"><ele>302.0</ele><time>2026-04-27T10:47:41.355Z</time></trkpt><trkpt lat="41.3511446" lon="1.8297165"><ele>303.75</ele><time>2026-04-27T10:47:42.357Z</time></trkpt><trkpt lat="41.3512447" lon="1.8298115"><ele>305.5</ele><time>2026-04-27T10:47:43.357Z</time></trkpt><trkpt lat="41.3513582" lon="1.8298639"><ele>307.25</ele><time>2026-04-27T10:47:44.359Z</time></trkpt><trkpt lat="41.3514656" lon="1.8298814"><ele>309.0</ele><time>2026-04-27T10:47:45.359Z</time></trkpt><trkpt lat="41.3515685" lon="1.8298469"><ele>304.75</ele><time>2026-04-27T10:47:46.37Z</time></trkpt><trkpt lat="41.3516644" lon="1.8297701"><ele>300.5</ele><time>2026-04-27T10:47:47.353Z</time></trkpt><trkpt lat="41.3517587" lon="1.8296891"><ele>296.25</ele><time>2026-04-27T10:47:48.35Z</time></trkpt><trkpt lat="41.3518617" lon="1.8296007"><ele>292.0</ele><time>2026-04-27T10:47:49.353Z</time></trkpt><trkpt lat="41.351967" lon="1.8295101"><ele>292.0</ele><time>2026-04-27T10:47:50.352Z</time></trkpt><trkpt lat="41.35208" lon="1.8294205"><ele>292.0</ele><time>2026-04-27T10:47:51.357Z</time></trkpt><trkpt lat="41.3521923" lon="1.8293343"><ele>292.0</ele><time>2026-04-27T10:47:52.357Z</time></trkpt><trkpt lat="41.3523068" lon="1.8292584"><ele>292.0</ele><time>2026-04-27T10:47:53.36Z</time></trkpt><trkpt lat="41.3524205" lon="1.8291717"><ele>290.5</ele><time>2026-04-27T10:47:54.354Z</time></trkpt><trkpt lat="41.3525309" lon="1.829074"><ele>289.0</ele><time>2026-04-27T10:47:55.35Z</time></trkpt><trkpt lat="41.352624" lon="1.8289571"><ele>287.5</ele><time>2026-04-27T10:47:56.36Z</time></trkpt><trkpt lat="41.3526912" lon="1.8288341"><ele>286.0</ele><time>2026-04-27T10:47:57.364Z</time></trkpt><trkpt lat="41.3527289" lon="1.8287103"><ele>286.0</ele><time>2026-04-27T10:47:58.356Z</time></trkpt><trkpt lat="41.3527399" lon="1.8285859"><ele>286.0</ele><time>2026-04-27T10:47:59.36Z</time></trkpt><trkpt lat="41.352722" lon="1.8284668"><ele>286.0</ele><time>2026-04-27T10:48:00.359Z</time></trkpt><trkpt lat="41.3526682" lon="1.8283703"><ele>286.0</ele><time>2026-04-27T10:48:01.349Z</time></trkpt><trkpt lat="41.3525822" lon="1.8282877"><ele>286.0</ele><time>2026-04-27T10:48:02.354Z</time></trkpt><trkpt lat="41.3525108" lon="1.8281828"><ele>285.25</ele><time>2026-04-27T10:48:03.352Z</time></trkpt><trkpt lat="41.3524669" lon="1.828055"><ele>284.5</ele><time>2026-04-27T10:48:04.356Z</time></trkpt><trkpt lat="41.3524374" lon="1.8279076"><ele>283.75</ele><time>2026-04-27T10:48:05.361Z</time></trkpt><trkpt lat="41.352423" lon="1.8277545"><ele>283.0</ele><time>2026-04-27T10:48:06.356Z</time></trkpt><trkpt lat="41.3524133" lon="1.8275935"><ele>284.5</ele><time>2026-04-27T10:48:07.355Z</time></trkpt><trkpt lat="41.3524081" lon="1.8274275"><ele>286.0</ele><time>2026-04-27T10:48:08.355Z</time></trkpt><trkpt lat="41.3524075" lon="1.827261"><ele>287.5</ele><time>2026-04-27T10:48:09.354Z</time></trkpt><trkpt lat="41.3524237" lon="1.8270966"><ele>289.0</ele><time>2026-04-27T10:48:10.361Z</time></trkpt><trkpt lat="41.3524522" lon="1.8269424"><ele>289.0</ele><time>2026-04-27T10:48:11.359Z</time></trkpt><trkpt lat="41.3524824" lon="1.8268183"><ele>289.0</ele><time>2026-04-27T10:48:12.357Z</time></trkpt><trkpt lat="41.3524884" lon="1.8267007"><ele>289.0</ele><time>2026-04-27T10:48:13.36Z</time></trkpt><trkpt lat="41.352465" lon="1.8265866"><ele>289.0</ele><time>2026-04-27T10:48:14.359Z</time></trkpt><trkpt lat="41.3524062" lon="1.8264901"><ele>289.0</ele><time>2026-04-27T10:48:15.362Z</time></trkpt><trkpt lat="41.3522949" lon="1.8264289"><ele>286.0</ele><time>2026-04-27T10:48:16.355Z</time></trkpt><trkpt lat="41.3521802" lon="1.8263733"><ele>283.0</ele><time>2026-04-27T10:48:17.371Z</time></trkpt><trkpt lat="41.3520831" lon="1.8262917"><ele>280.0</ele><time>2026-04-27T10:48:18.346Z</time></trkpt><trkpt lat="41.3520022" lon="1.8261819"><ele>277.0</ele><time>2026-04-27T10:48:19.364Z</time></trkpt><trkpt lat="41.351948" lon="1.8260409"><ele>278.5</ele><time>2026-04-27T10:48:20.358Z</time></trkpt><trkpt lat="41.3519093" lon="1.825888"><ele>280.0</ele><time>2026-04-27T10:48:21.358Z</time></trkpt><trkpt lat="41.3518831" lon="1.8257483"><ele>281.5</ele><time>2026-04-27T10:48:22.358Z</time></trkpt><trkpt lat="41.351869" lon="1.8255986"><ele>283.0</ele><time>2026-04-27T10:48:23.364Z</time></trkpt><trkpt lat="41.3518775" lon="1.8254516"><ele>283.0</ele><time>2026-04-27T10:48:24.361Z</time></trkpt><trkpt lat="41.3519098" lon="1.8253049"><ele>283.0</ele><time>2026-04-27T10:48:25.361Z</time></trkpt><trkpt lat="41.3519716" lon="1.8251714"><ele>283.0</ele><time>2026-04-27T10:48:26.361Z</time></trkpt><trkpt lat="41.3520514" lon="1.8250514"><ele>283.0</ele><time>2026-04-27T10:48:27.364Z</time></trkpt><trkpt lat="41.352121" lon="1.8249316"><ele>283.4</ele><time>2026-04-27T10:48:28.361Z</time></trkpt><trkpt lat="41.3521639" lon="1.8247996"><ele>283.8</ele><time>2026-04-27T10:48:29.348Z</time></trkpt><trkpt lat="41.3521835" lon="1.8246574"><ele>284.2</ele><time>2026-04-27T10:48:30.362Z</time></trkpt><trkpt lat="41.3521704" lon="1.8245088"><ele>284.6</ele><time>2026-04-27T10:48:31.358Z</time></trkpt><trkpt lat="41.3521256" lon="1.8243705"><ele>285.0</ele><time>2026-04-27T10:48:32.358Z</time></trkpt><trkpt lat="41.352054" lon="1.8242591"><ele>285.2</ele><time>2026-04-27T10:48:33.355Z</time></trkpt><trkpt lat="41.3520122" lon="1.824143"><ele>285.4</ele><time>2026-04-27T10:48:34.353Z</time></trkpt><trkpt lat="41.352002" lon="1.8240132"><ele>285.6</ele><time>2026-04-27T10:48:35.36Z</time></trkpt><trkpt lat="41.3520332" lon="1.823881"><ele>285.8</ele><time>2026-04-27T10:48:36.35Z</time></trkpt><trkpt lat="41.3520468" lon="1.823758"><ele>286.0</ele><time>2026-04-27T10:48:37.355Z</time></trkpt><trkpt lat="41.3520356" lon="1.823643"><ele>286.0</ele><time>2026-04-27T10:48:38.352Z</time></trkpt><trkpt lat="41.3519905" lon="1.8235469"><ele>286.0</ele><time>2026-04-27T10:48:39.358Z</time></trkpt><trkpt lat="41.3519103" lon="1.8234808"><ele>286.0</ele><time>2026-04-27T10:48:40.347Z</time></trkpt><trkpt lat="41.3518211" lon="1.8234154"><ele>286.0</ele><time>2026-04-27T10:48:41.355Z</time></trkpt><trkpt lat="41.3517346" lon="1.8233284"><ele>286.0</ele><time>2026-04-27T10:48:42.351Z</time></trkpt><trkpt lat="41.3516633" lon="1.8232128"><ele>288.0</ele><time>2026-04-27T10:48:43.358Z</time></trkpt><trkpt lat="41.3516237" lon="1.8230752"><ele>290.0</ele><time>2026-04-27T10:48:44.348Z</time></trkpt><trkpt lat="41.3515977" lon="1.8229188"><ele>292.0</ele><time>2026-04-27T10:48:45.352Z</time></trkpt><trkpt lat="41.3515885" lon="1.8227629"><ele>294.0</ele><time>2026-04-27T10:48:46.357Z</time></trkpt><trkpt lat="41.3516008" lon="1.8226181"><ele>294.59999999999997</ele><time>2026-04-27T10:48:47.357Z</time></trkpt><trkpt lat="41.3516377" lon="1.8224757"><ele>295.2</ele><time>2026-04-27T10:48:48.364Z</time></trkpt><trkpt lat="41.3516675" lon="1.822337"><ele>295.79999999999995</ele><time>2026-04-27T10:48:49.361Z</time></trkpt><trkpt lat="41.3516816" lon="1.8222134"><ele>296.4</ele><time>2026-04-27T10:48:50.357Z</time></trkpt><trkpt lat="41.3516739" lon="1.8221097"><ele>297.0</ele><time>2026-04-27T10:48:51.366Z</time></trkpt><trkpt lat="41.3516375" lon="1.8220302"><ele>297.0</ele><time>2026-04-27T10:48:52.359Z</time></trkpt><trkpt lat="41.3515655" lon="1.8219681"><ele>297.0</ele><time>2026-04-27T10:48:53.361Z</time></trkpt><trkpt lat="41.3514689" lon="1.8219316"><ele>297.0</ele><time>2026-04-27T10:48:54.348Z</time></trkpt><trkpt lat="41.3513706" lon="1.8218974"><ele>297.0</ele><time>2026-04-27T10:48:55.362Z</time></trkpt><trkpt lat="41.3512666" lon="1.8218662"><ele>297.0</ele><time>2026-04-27T10:48:56.358Z</time></trkpt><trkpt lat="41.3511637" lon="1.8218312"><ele>296.75</ele><time>2026-04-27T10:48:57.364Z</time></trkpt><trkpt lat="41.3510562" lon="1.8217919"><ele>296.5</ele><time>2026-04-27T10:48:58.356Z</time></trkpt><trkpt lat="41.350949" lon="1.821745"><ele>296.25</ele><time>2026-04-27T10:48:59.357Z</time></trkpt><trkpt lat="41.3508351" lon="1.8216991"><ele>296.0</ele><time>2026-04-27T10:49:00.358Z</time></trkpt><trkpt lat="41.3507235" lon="1.8216535"><ele>296.0</ele><time>2026-04-27T10:49:01.358Z</time></trkpt><trkpt lat="41.3506178" lon="1.8216028"><ele>296.0</ele><time>2026-04-27T10:49:02.36Z</time></trkpt><trkpt lat="41.350519" lon="1.8215449"><ele>296.0</ele><time>2026-04-27T10:49:03.361Z</time></trkpt><trkpt lat="41.3504292" lon="1.8214724"><ele>296.0</ele><time>2026-04-27T10:49:04.362Z</time></trkpt><trkpt lat="41.3503597" lon="1.8213557"><ele>296.0</ele><time>2026-04-27T10:49:05.369Z</time></trkpt><trkpt lat="41.3503117" lon="1.8212101"><ele>296.0</ele><time>2026-04-27T10:49:06.356Z</time></trkpt><trkpt lat="41.350279" lon="1.8210601"><ele>296.0</ele><time>2026-04-27T10:49:07.367Z</time></trkpt><trkpt lat="41.3502384" lon="1.8209112"><ele>296.0</ele><time>2026-04-27T10:49:08.363Z</time></trkpt><trkpt lat="41.3501991" lon="1.8207676"><ele>296.0</ele><time>2026-04-27T10:49:09.36Z</time></trkpt><trkpt lat="41.3501399" lon="1.8206401"><ele>296.0</ele><time>2026-04-27T10:49:10.354Z</time></trkpt><trkpt lat="41.3500625" lon="1.8205326"><ele>296.0</ele><time>2026-04-27T10:49:11.356Z</time></trkpt><trkpt lat="41.3499634" lon="1.8204602"><ele>296.0</ele><time>2026-04-27T10:49:12.342Z</time></trkpt><trkpt lat="41.3498584" lon="1.820408"><ele>296.0</ele><time>2026-04-27T10:49:13.355Z</time></trkpt><trkpt lat="41.3497481" lon="1.8203782"><ele>296.0</ele><time>2026-04-27T10:49:14.358Z</time></trkpt><trkpt lat="41.3496468" lon="1.8203377"><ele>295.40000000000003</ele><time>2026-04-27T10:49:15.359Z</time></trkpt><trkpt lat="41.3495583" lon="1.8202654"><ele>294.8</ele><time>2026-04-27T10:49:16.363Z</time></trkpt><trkpt lat="41.3494952" lon="1.8201539"><ele>294.20000000000005</ele><time>2026-04-27T10:49:17.366Z</time></trkpt><trkpt lat="41.3494616" lon="1.8200092"><ele>293.6</ele><time>2026-04-27T10:49:18.36Z</time></trkpt><trkpt lat="41.3494514" lon="1.8198413"><ele>293.0</ele><time>2026-04-27T10:49:19.372Z</time></trkpt><trkpt lat="41.3494492" lon="1.819671"><ele>293.0</ele><time>2026-04-27T10:49:20.363Z</time></trkpt><trkpt lat="41.3494475" lon="1.8195058"><ele>293.0</ele><time>2026-04-27T10:49:21.364Z</time></trkpt><trkpt lat="41.3494552" lon="1.8193489"><ele>293.0</ele><time>2026-04-27T10:49:22.366Z</time></trkpt><trkpt lat="41.3494886" lon="1.8192023"><ele>293.0</ele><time>2026-04-27T10:49:23.373Z</time></trkpt><trkpt lat="41.3495656" lon="1.8190925"><ele>292.2</ele><time>2026-04-27T10:49:24.356Z</time></trkpt><trkpt lat="41.3496687" lon="1.819029"><ele>291.4</ele><time>2026-04-27T10:49:25.357Z</time></trkpt><trkpt lat="41.3497658" lon="1.8190179"><ele>290.59999999999997</ele><time>2026-04-27T10:49:26.354Z</time></trkpt><trkpt lat="41.3498751" lon="1.8190557"><ele>289.8</ele><time>2026-04-27T10:49:27.358Z</time></trkpt><trkpt lat="41.3499973" lon="1.8190827"><ele>289.0</ele><time>2026-04-27T10:49:28.35Z</time></trkpt><trkpt lat="41.3501131" lon="1.8190798"><ele>291.59999999999997</ele><time>2026-04-27T10:49:29.352Z</time></trkpt><trkpt lat="41.3501901" lon="1.8190176"><ele>294.2</ele><time>2026-04-27T10:49:30.357Z</time></trkpt><trkpt lat="41.3502277" lon="1.818926"><ele>296.79999999999995</ele><time>2026-04-27T10:49:31.357Z</time></trkpt><trkpt lat="41.3502235" lon="1.8188123"><ele>299.4</ele><time>2026-04-27T10:49:32.356Z</time></trkpt><trkpt lat="41.3501807" lon="1.8186899"><ele>302.0</ele><time>2026-04-27T10:49:33.349Z</time></trkpt><trkpt lat="41.3501237" lon="1.818557"><ele>301.75</ele><time>2026-04-27T10:49:34.349Z</time></trkpt><trkpt lat="41.3500649" lon="1.8184222"><ele>301.5</ele><time>2026-04-27T10:49:35.35Z</time></trkpt><trkpt lat="41.3500011" lon="1.8182893"><ele>301.25</ele><time>2026-04-27T10:49:36.354Z</time></trkpt><trkpt lat="41.3499353" lon="1.818163"><ele>301.0</ele><time>2026-04-27T10:49:37.358Z</time></trkpt><trkpt lat="41.3498556" lon="1.8180562"><ele>301.0</ele><time>2026-04-27T10:49:38.35Z</time></trkpt><trkpt lat="41.349764" lon="1.8179498"><ele>301.0</ele><time>2026-04-27T10:49:39.349Z</time></trkpt><trkpt lat="41.3496658" lon="1.8178385"><ele>301.0</ele><time>2026-04-27T10:49:40.353Z</time></trkpt><trkpt lat="41.3495718" lon="1.8177283"><ele>301.0</ele><time>2026-04-27T10:49:41.357Z</time></trkpt><trkpt lat="41.3494802" lon="1.8176074"><ele>300.75</ele><time>2026-04-27T10:49:42.345Z</time></trkpt><trkpt lat="41.3493929" lon="1.8174764"><ele>300.5</ele><time>2026-04-27T10:49:43.36Z</time></trkpt><trkpt lat="41.3493197" lon="1.8173278"><ele>300.25</ele><time>2026-04-27T10:49:44.359Z</time></trkpt><trkpt lat="41.3492601" lon="1.8171639"><ele>300.0</ele><time>2026-04-27T10:49:45.357Z</time></trkpt><trkpt lat="41.3492147" lon="1.8169789"><ele>299.3333333333333</ele><time>2026-04-27T10:49:46.337Z</time></trkpt><trkpt lat="41.3491796" lon="1.8167829"><ele>298.66666666666663</ele><time>2026-04-27T10:49:47.359Z</time></trkpt><trkpt lat="41.3491573" lon="1.8165817"><ele>298.0</ele><time>2026-04-27T10:49:48.354Z</time></trkpt><trkpt lat="41.349129" lon="1.816376"><ele>298.0</ele><time>2026-04-27T10:49:49.362Z</time></trkpt><trkpt lat="41.3491049" lon="1.8161796"><ele>298.0</ele><time>2026-04-27T10:49:50.376Z</time></trkpt><trkpt lat="41.3490912" lon="1.8159801"><ele>298.0</ele><time>2026-04-27T10:49:51.362Z</time></trkpt><trkpt lat="41.3490831" lon="1.8157811"><ele>298.0</ele><time>2026-04-27T10:49:52.357Z</time></trkpt><trkpt lat="41.3490677" lon="1.8155738"><ele>299.0</ele><time>2026-04-27T10:49:53.358Z</time></trkpt><trkpt lat="41.3490519" lon="1.8153641"><ele>300.0</ele><time>2026-04-27T10:49:54.357Z</time></trkpt><trkpt lat="41.3490336" lon="1.8151507"><ele>301.0</ele><time>2026-04-27T10:49:55.353Z</time></trkpt><trkpt lat="41.3490183" lon="1.8149357"><ele>301.0</ele><time>2026-04-27T10:49:56.349Z</time></trkpt><trkpt lat="41.3490223" lon="1.814736"><ele>301.0</ele><time>2026-04-27T10:49:57.354Z</time></trkpt><trkpt lat="41.3490369" lon="1.8145391"><ele>301.0</ele><time>2026-04-27T10:49:58.353Z</time></trkpt><trkpt lat="41.3490622" lon="1.8143605"><ele>301.0</ele><time>2026-04-27T10:49:59.36Z</time></trkpt><trkpt lat="41.3490833" lon="1.8142007"><ele>299.40000000000003</ele><time>2026-04-27T10:50:00.354Z</time></trkpt><trkpt lat="41.3491015" lon="1.8140494"><ele>297.8</ele><time>2026-04-27T10:50:01.36Z</time></trkpt><trkpt lat="41.3491208" lon="1.8138978"><ele>296.20000000000005</ele><time>2026-04-27T10:50:02.356Z</time></trkpt><trkpt lat="41.3491627" lon="1.8137711"><ele>294.6</ele><time>2026-04-27T10:50:03.352Z</time></trkpt><trkpt lat="41.3492252" lon="1.8136458"><ele>293.0</ele><time>2026-04-27T10:50:04.356Z</time></trkpt><trkpt lat="41.3493136" lon="1.8135404"><ele>290.25</ele><time>2026-04-27T10:50:05.361Z</time></trkpt><trkpt lat="41.3494367" lon="1.8134768"><ele>287.5</ele><time>2026-04-27T10:50:06.355Z</time></trkpt><trkpt lat="41.3495544" lon="1.8134128"><ele>284.75</ele><time>2026-04-27T10:50:07.349Z</time></trkpt><trkpt lat="41.3496708" lon="1.813352"><ele>282.0</ele><time>2026-04-27T10:50:08.354Z</time></trkpt><trkpt lat="41.3497786" lon="1.813303"><ele>281.8</ele><time>2026-04-27T10:50:09.352Z</time></trkpt><trkpt lat="41.3498823" lon="1.8132617"><ele>281.6</ele><time>2026-04-27T10:50:10.36Z</time></trkpt><trkpt lat="41.3499784" lon="1.8132429"><ele>281.40000000000003</ele><time>2026-04-27T10:50:11.359Z</time></trkpt><trkpt lat="41.3500575" lon="1.8132663"><ele>281.2</ele><time>2026-04-27T10:50:12.35Z</time></trkpt><trkpt lat="41.3501549" lon="1.8133523"><ele>281.0</ele><time>2026-04-27T10:50:13.357Z</time></trkpt><trkpt lat="41.3502598" lon="1.8134653"><ele>283.5</ele><time>2026-04-27T10:50:14.351Z</time></trkpt><trkpt lat="41.3503703" lon="1.8135722"><ele>286.0</ele><time>2026-04-27T10:50:15.353Z</time></trkpt><trkpt lat="41.3504739" lon="1.8136818"><ele>288.5</ele><time>2026-04-27T10:50:16.358Z</time></trkpt><trkpt lat="41.3505706" lon="1.8137807"><ele>291.0</ele><time>2026-04-27T10:50:17.355Z</time></trkpt><trkpt lat="41.3506605" lon="1.8138433"><ele>291.0</ele><time>2026-04-27T10:50:18.352Z</time></trkpt><trkpt lat="41.3507504" lon="1.8138599"><ele>291.0</ele><time>2026-04-27T10:50:19.354Z</time></trkpt><trkpt lat="41.3508273" lon="1.8138135"><ele>291.0</ele><time>2026-04-27T10:50:20.355Z</time></trkpt><trkpt lat="41.3508918" lon="1.8137235"><ele>291.0</ele><time>2026-04-27T10:50:21.385Z</time></trkpt><trkpt lat="41.350933" lon="1.8135961"><ele>291.0</ele><time>2026-04-27T10:50:22.348Z</time></trkpt><trkpt lat="41.3509516" lon="1.8134642"><ele>287.75</ele><time>2026-04-27T10:50:23.355Z</time></trkpt><trkpt lat="41.3509715" lon="1.8133235"><ele>284.5</ele><time>2026-04-27T10:50:24.343Z</time></trkpt><trkpt lat="41.350994" lon="1.8131816"><ele>281.25</ele><time>2026-04-27T10:50:25.354Z</time></trkpt><trkpt lat="41.3510235" lon="1.8130299"><ele>278.0</ele><time>2026-04-27T10:50:26.353Z</time></trkpt><trkpt lat="41.3511065" lon="1.8127357"><ele>277.2</ele><time>2026-04-27T10:50:28.353Z</time></trkpt><trkpt lat="41.3511649" lon="1.8126219"><ele>276.4</ele><time>2026-04-27T10:50:29.351Z</time></trkpt><trkpt lat="41.3512426" lon="1.812553"><ele>275.59999999999997</ele><time>2026-04-27T10:50:30.356Z</time></trkpt><trkpt lat="41.3513516" lon="1.8125271"><ele>274.8</ele><time>2026-04-27T10:50:31.359Z</time></trkpt><trkpt lat="41.351468" lon="1.8125426"><ele>274.0</ele><time>2026-04-27T10:50:32.353Z</time></trkpt><trkpt lat="41.3515761" lon="1.8125818"><ele>274.0</ele><time>2026-04-27T10:50:33.358Z</time></trkpt><trkpt lat="41.3516663" lon="1.8126143"><ele>274.0</ele><time>2026-04-27T10:50:34.355Z</time></trkpt><trkpt lat="41.3517473" lon="1.8126186"><ele>274.0</ele><time>2026-04-27T10:50:35.358Z</time></trkpt><trkpt lat="41.3518159" lon="1.8125922"><ele>274.0</ele><time>2026-04-27T10:50:36.356Z</time></trkpt><trkpt lat="41.3518536" lon="1.8124575"><ele>274.0</ele><time>2026-04-27T10:50:38.355Z</time></trkpt><trkpt lat="41.3518061" lon="1.8123591"><ele>274.0</ele><time>2026-04-27T10:50:39.349Z</time></trkpt><trkpt lat="41.3517338" lon="1.812257"><ele>274.0</ele><time>2026-04-27T10:50:40.349Z</time></trkpt><trkpt lat="41.3515576" lon="1.8121016"><ele>274.0</ele><time>2026-04-27T10:50:42.351Z</time></trkpt><trkpt lat="41.3514527" lon="1.8120579"><ele>274.0</ele><time>2026-04-27T10:50:43.354Z</time></trkpt><trkpt lat="41.3513527" lon="1.8119972"><ele>274.0</ele><time>2026-04-27T10:50:44.352Z</time></trkpt><trkpt lat="41.3512592" lon="1.8119147"><ele>272.0</ele><time>2026-04-27T10:50:45.354Z</time></trkpt><trkpt lat="41.3511703" lon="1.8118139"><ele>270.0</ele><time>2026-04-27T10:50:46.353Z</time></trkpt><trkpt lat="41.3510746" lon="1.8117179"><ele>268.0</ele><time>2026-04-27T10:50:47.356Z</time></trkpt><trkpt lat="41.3509951" lon="1.8116171"><ele>266.0</ele><time>2026-04-27T10:50:48.353Z</time></trkpt><trkpt lat="41.3509361" lon="1.8115174"><ele>264.0</ele><time>2026-04-27T10:50:49.351Z</time></trkpt><trkpt lat="41.3508855" lon="1.81141"><ele>264.0</ele><time>2026-04-27T10:50:50.359Z</time></trkpt><trkpt lat="41.3508749" lon="1.8112777"><ele>264.0</ele><time>2026-04-27T10:50:51.374Z</time></trkpt><trkpt lat="41.3509157" lon="1.8111345"><ele>264.0</ele><time>2026-04-27T10:50:52.351Z</time></trkpt><trkpt lat="41.3509626" lon="1.8109934"><ele>264.0</ele><time>2026-04-27T10:50:53.348Z</time></trkpt><trkpt lat="41.3510174" lon="1.8108417"><ele>263.25</ele><time>2026-04-27T10:50:54.351Z</time></trkpt><trkpt lat="41.3510713" lon="1.8106815"><ele>262.5</ele><time>2026-04-27T10:50:55.35Z</time></trkpt><trkpt lat="41.3511258" lon="1.8105252"><ele>261.75</ele><time>2026-04-27T10:50:56.348Z</time></trkpt><trkpt lat="41.3511751" lon="1.8103599"><ele>261.0</ele><time>2026-04-27T10:50:57.355Z</time></trkpt><trkpt lat="41.3511904" lon="1.8101995"><ele>260.0</ele><time>2026-04-27T10:50:58.359Z</time></trkpt><trkpt lat="41.3511604" lon="1.8100377"><ele>259.0</ele><time>2026-04-27T10:50:59.357Z</time></trkpt><trkpt lat="41.351105" lon="1.8098858"><ele>258.0</ele><time>2026-04-27T10:51:00.359Z</time></trkpt><trkpt lat="41.3510312" lon="1.8097422"><ele>257.0</ele><time>2026-04-27T10:51:01.36Z</time></trkpt><trkpt lat="41.3509582" lon="1.8096112"><ele>257.0</ele><time>2026-04-27T10:51:02.352Z</time></trkpt><trkpt lat="41.3509036" lon="1.8094697"><ele>257.0</ele><time>2026-04-27T10:51:03.353Z</time></trkpt><trkpt lat="41.3508685" lon="1.8093118"><ele>257.0</ele><time>2026-04-27T10:51:04.356Z</time></trkpt><trkpt lat="41.3508602" lon="1.8091411"><ele>257.0</ele><time>2026-04-27T10:51:05.347Z</time></trkpt><trkpt lat="41.350856" lon="1.8089711"><ele>257.0</ele><time>2026-04-27T10:51:06.351Z</time></trkpt><trkpt lat="41.3508425" lon="1.8088101"><ele>257.0</ele><time>2026-04-27T10:51:07.355Z</time></trkpt><trkpt lat="41.3508041" lon="1.8086517"><ele>257.0</ele><time>2026-04-27T10:51:08.351Z</time></trkpt><trkpt lat="41.3507464" lon="1.8085049"><ele>257.0</ele><time>2026-04-27T10:51:09.346Z</time></trkpt><trkpt lat="41.3506766" lon="1.8083707"><ele>257.75</ele><time>2026-04-27T10:51:10.348Z</time></trkpt><trkpt lat="41.350587" lon="1.8082401"><ele>258.5</ele><time>2026-04-27T10:51:11.35Z</time></trkpt><trkpt lat="41.3504841" lon="1.8081181"><ele>259.25</ele><time>2026-04-27T10:51:12.351Z</time></trkpt><trkpt lat="41.3503913" lon="1.8079949"><ele>260.0</ele><time>2026-04-27T10:51:13.35Z</time></trkpt><trkpt lat="41.3503194" lon="1.8078656"><ele>258.25</ele><time>2026-04-27T10:51:14.343Z</time></trkpt><trkpt lat="41.3502522" lon="1.8077171"><ele>256.5</ele><time>2026-04-27T10:51:15.346Z</time></trkpt><trkpt lat="41.3502028" lon="1.8075517"><ele>254.75</ele><time>2026-04-27T10:51:16.348Z</time></trkpt><trkpt lat="41.3501717" lon="1.8073762"><ele>253.0</ele><time>2026-04-27T10:51:17.347Z</time></trkpt><trkpt lat="41.3501592" lon="1.8071964"><ele>251.25</ele><time>2026-04-27T10:51:18.352Z</time></trkpt><trkpt lat="41.3501624" lon="1.8070111"><ele>249.5</ele><time>2026-04-27T10:51:19.357Z</time></trkpt><trkpt lat="41.3501736" lon="1.8068232"><ele>247.75</ele><time>2026-04-27T10:51:20.362Z</time></trkpt><trkpt lat="41.3501876" lon="1.8066357"><ele>246.0</ele><time>2026-04-27T10:51:21.364Z</time></trkpt><trkpt lat="41.3502035" lon="1.8064554"><ele>245.0</ele><time>2026-04-27T10:51:22.375Z</time></trkpt><trkpt lat="41.3502152" lon="1.8062709"><ele>244.0</ele><time>2026-04-27T10:51:23.36Z</time></trkpt><trkpt lat="41.3502267" lon="1.8060789"><ele>243.0</ele><time>2026-04-27T10:51:24.357Z</time></trkpt><trkpt lat="41.3502474" lon="1.8058767"><ele>242.0</ele><time>2026-04-27T10:51:25.361Z</time></trkpt><trkpt lat="41.3502659" lon="1.8056891"><ele>240.75</ele><time>2026-04-27T10:51:26.354Z</time></trkpt><trkpt lat="41.35029" lon="1.8054994"><ele>239.5</ele><time>2026-04-27T10:51:27.362Z</time></trkpt><trkpt lat="41.3503173" lon="1.805315"><ele>238.25</ele><time>2026-04-27T10:51:28.359Z</time></trkpt><trkpt lat="41.3503479" lon="1.8051271"><ele>237.0</ele><time>2026-04-27T10:51:29.361Z</time></trkpt><trkpt lat="41.3503782" lon="1.8049333"><ele>236.5</ele><time>2026-04-27T10:51:30.358Z</time></trkpt><trkpt lat="41.3504076" lon="1.8047417"><ele>236.0</ele><time>2026-04-27T10:51:31.362Z</time></trkpt><trkpt lat="41.3504397" lon="1.8045492"><ele>235.5</ele><time>2026-04-27T10:51:32.362Z</time></trkpt><trkpt lat="41.3504707" lon="1.8043577"><ele>235.0</ele><time>2026-04-27T10:51:33.367Z</time></trkpt><trkpt lat="41.3505025" lon="1.8041775"><ele>236.5</ele><time>2026-04-27T10:51:34.364Z</time></trkpt><trkpt lat="41.350544" lon="1.8040033"><ele>238.0</ele><time>2026-04-27T10:51:35.367Z</time></trkpt><trkpt lat="41.3505713" lon="1.8038284"><ele>239.5</ele><time>2026-04-27T10:51:36.363Z</time></trkpt><trkpt lat="41.3505961" lon="1.8036786"><ele>241.0</ele><time>2026-04-27T10:51:37.367Z</time></trkpt><trkpt lat="41.3505917" lon="1.8035276"><ele>239.4</ele><time>2026-04-27T10:51:38.362Z</time></trkpt><trkpt lat="41.3505709" lon="1.803384"><ele>237.8</ele><time>2026-04-27T10:51:39.364Z</time></trkpt><trkpt lat="41.3505425" lon="1.803236"><ele>236.20000000000002</ele><time>2026-04-27T10:51:40.359Z</time></trkpt><trkpt lat="41.3505379" lon="1.803096"><ele>234.60000000000002</ele><time>2026-04-27T10:51:41.369Z</time></trkpt><trkpt lat="41.3505398" lon="1.8029669"><ele>233.0</ele><time>2026-04-27T10:51:42.362Z</time></trkpt><trkpt lat="41.3505707" lon="1.8028284"><ele>233.0</ele><time>2026-04-27T10:51:43.368Z</time></trkpt><trkpt lat="41.3506361" lon="1.8027147"><ele>233.0</ele><time>2026-04-27T10:51:44.366Z</time></trkpt><trkpt lat="41.350725" lon="1.8026239"><ele>233.0</ele><time>2026-04-27T10:51:45.36Z</time></trkpt><trkpt lat="41.350835" lon="1.8025798"><ele>233.0</ele><time>2026-04-27T10:51:46.361Z</time></trkpt><trkpt lat="41.3509555" lon="1.8025606"><ele>233.25</ele><time>2026-04-27T10:51:47.357Z</time></trkpt><trkpt lat="41.3510737" lon="1.8025347"><ele>233.5</ele><time>2026-04-27T10:51:48.359Z</time></trkpt><trkpt lat="41.3511849" lon="1.8025011"><ele>233.75</ele><time>2026-04-27T10:51:49.354Z</time></trkpt><trkpt lat="41.3512952" lon="1.8024625"><ele>234.0</ele><time>2026-04-27T10:51:50.364Z</time></trkpt><trkpt lat="41.351406" lon="1.8024169"><ele>234.0</ele><time>2026-04-27T10:51:51.357Z</time></trkpt><trkpt lat="41.351512" lon="1.8023556"><ele>234.0</ele><time>2026-04-27T10:51:52.354Z</time></trkpt><trkpt lat="41.3516154" lon="1.8022834"><ele>234.0</ele><time>2026-04-27T10:51:53.368Z</time></trkpt><trkpt lat="41.3517093" lon="1.8021895"><ele>234.0</ele><time>2026-04-27T10:51:54.362Z</time></trkpt><trkpt lat="41.3517808" lon="1.8020714"><ele>234.0</ele><time>2026-04-27T10:51:55.36Z</time></trkpt><trkpt lat="41.351843" lon="1.8019507"><ele>233.99999999999997</ele><time>2026-04-27T10:51:56.36Z</time></trkpt><trkpt lat="41.3518993" lon="1.8018189"><ele>233.99999999999997</ele><time>2026-04-27T10:51:57.359Z</time></trkpt><trkpt lat="41.3519534" lon="1.8016848"><ele>234.0</ele><time>2026-04-27T10:51:58.359Z</time></trkpt><trkpt lat="41.3520117" lon="1.801562"><ele>234.0</ele><time>2026-04-27T10:51:59.354Z</time></trkpt><trkpt lat="41.3520793" lon="1.8014597"><ele>235.79999999999998</ele><time>2026-04-27T10:52:00.364Z</time></trkpt><trkpt lat="41.3521597" lon="1.8013773"><ele>237.59999999999997</ele><time>2026-04-27T10:52:01.357Z</time></trkpt><trkpt lat="41.3522501" lon="1.8013106"><ele>239.4</ele><time>2026-04-27T10:52:02.362Z</time></trkpt><trkpt lat="41.3523468" lon="1.8012739"><ele>241.2</ele><time>2026-04-27T10:52:03.363Z</time></trkpt><trkpt lat="41.3524526" lon="1.8012323"><ele>243.0</ele><time>2026-04-27T10:52:04.363Z</time></trkpt><trkpt lat="41.3525573" lon="1.8011901"><ele>243.0</ele><time>2026-04-27T10:52:05.372Z</time></trkpt><trkpt lat="41.3526582" lon="1.8011453"><ele>243.0</ele><time>2026-04-27T10:52:06.369Z</time></trkpt><trkpt lat="41.3527654" lon="1.8011092"><ele>243.0</ele><time>2026-04-27T10:52:07.368Z</time></trkpt><trkpt lat="41.3528707" lon="1.8010827"><ele>243.0</ele><time>2026-04-27T10:52:08.364Z</time></trkpt><trkpt lat="41.3529845" lon="1.8010661"><ele>243.0</ele><time>2026-04-27T10:52:09.372Z</time></trkpt><trkpt lat="41.3530987" lon="1.8010583"><ele>243.2</ele><time>2026-04-27T10:52:10.368Z</time></trkpt><trkpt lat="41.353213" lon="1.8010653"><ele>243.4</ele><time>2026-04-27T10:52:11.362Z</time></trkpt><trkpt lat="41.3533234" lon="1.8010842"><ele>243.59999999999997</ele><time>2026-04-27T10:52:12.359Z</time></trkpt><trkpt lat="41.3534242" lon="1.8011197"><ele>243.79999999999998</ele><time>2026-04-27T10:52:13.363Z</time></trkpt><trkpt lat="41.3535242" lon="1.8011747"><ele>244.0</ele><time>2026-04-27T10:52:14.363Z</time></trkpt><trkpt lat="41.3536274" lon="1.8012239"><ele>244.0</ele><time>2026-04-27T10:52:15.365Z</time></trkpt><trkpt lat="41.3537372" lon="1.8012664"><ele>243.99999999999997</ele><time>2026-04-27T10:52:16.365Z</time></trkpt><trkpt lat="41.353847" lon="1.8012975"><ele>243.99999999999997</ele><time>2026-04-27T10:52:17.365Z</time></trkpt><trkpt lat="41.353955" lon="1.8013212"><ele>244.0</ele><time>2026-04-27T10:52:18.359Z</time></trkpt><trkpt lat="41.3540673" lon="1.801321"><ele>244.0</ele><time>2026-04-27T10:52:19.371Z</time></trkpt><trkpt lat="41.3541775" lon="1.8012961"><ele>244.0</ele><time>2026-04-27T10:52:20.368Z</time></trkpt><trkpt lat="41.3542821" lon="1.8012455"><ele>243.99999999999997</ele><time>2026-04-27T10:52:21.364Z</time></trkpt><trkpt lat="41.3543766" lon="1.8011824"><ele>243.99999999999997</ele><time>2026-04-27T10:52:22.365Z</time></trkpt><trkpt lat="41.3544579" lon="1.801113"><ele>244.0</ele><time>2026-04-27T10:52:23.365Z</time></trkpt><trkpt lat="41.3545376" lon="1.8010559"><ele>244.0</ele><time>2026-04-27T10:52:24.376Z</time></trkpt><trkpt lat="41.3546093" lon="1.8009918"><ele>247.39999999999998</ele><time>2026-04-27T10:52:25.363Z</time></trkpt><trkpt lat="41.3546663" lon="1.8008998"><ele>250.79999999999998</ele><time>2026-04-27T10:52:26.356Z</time></trkpt><trkpt lat="41.3547073" lon="1.8007986"><ele>254.20000000000002</ele><time>2026-04-27T10:52:27.365Z</time></trkpt><trkpt lat="41.354736" lon="1.8006682"><ele>257.6</ele><time>2026-04-27T10:52:28.357Z</time></trkpt><trkpt lat="41.3547588" lon="1.8005263"><ele>261.0</ele><time>2026-04-27T10:52:29.366Z</time></trkpt><trkpt lat="41.3547814" lon="1.8003858"><ele>262.0</ele><time>2026-04-27T10:52:30.356Z</time></trkpt><trkpt lat="41.354817" lon="1.8002408"><ele>263.0</ele><time>2026-04-27T10:52:31.368Z</time></trkpt><trkpt lat="41.3548517" lon="1.8000856"><ele>264.0</ele><time>2026-04-27T10:52:32.359Z</time></trkpt><trkpt lat="41.3548881" lon="1.7999231"><ele>265.0</ele><time>2026-04-27T10:52:33.365Z</time></trkpt><trkpt lat="41.3549279" lon="1.7997513"><ele>265.0</ele><time>2026-04-27T10:52:34.359Z</time></trkpt><trkpt lat="41.3549672" lon="1.7995733"><ele>265.0</ele><time>2026-04-27T10:52:35.365Z</time></trkpt><trkpt lat="41.3550112" lon="1.7994009"><ele>265.0</ele><time>2026-04-27T10:52:36.356Z</time></trkpt><trkpt lat="41.3550533" lon="1.7992184"><ele>265.0</ele><time>2026-04-27T10:52:37.365Z</time></trkpt><trkpt lat="41.3550917" lon="1.7990277"><ele>264.2</ele><time>2026-04-27T10:52:38.352Z</time></trkpt><trkpt lat="41.3551274" lon="1.7988467"><ele>263.4</ele><time>2026-04-27T10:52:39.354Z</time></trkpt><trkpt lat="41.3551638" lon="1.7986954"><ele>262.6</ele><time>2026-04-27T10:52:40.354Z</time></trkpt><trkpt lat="41.355184" lon="1.7985647"><ele>261.8</ele><time>2026-04-27T10:52:41.352Z</time></trkpt><trkpt lat="41.3552096" lon="1.7984637"><ele>261.0</ele><time>2026-04-27T10:52:42.347Z</time></trkpt><trkpt lat="41.3552323" lon="1.798356"><ele>259.8</ele><time>2026-04-27T10:52:43.353Z</time></trkpt><trkpt lat="41.3552579" lon="1.798266"><ele>258.6</ele><time>2026-04-27T10:52:45.353Z</time></trkpt><trkpt lat="41.3552999" lon="1.7981598"><ele>257.4</ele><time>2026-04-27T10:54:44.371Z</time></trkpt><trkpt lat="41.3553507" lon="1.7980056"><ele>256.2</ele><time>2026-04-27T10:54:46.38Z</time></trkpt><trkpt lat="41.3553845" lon="1.7979109"><ele>255.0</ele><time>2026-04-27T10:54:47.376Z</time></trkpt><trkpt lat="41.3554202" lon="1.7977974"><ele>254.4</ele><time>2026-04-27T10:54:48.378Z</time></trkpt><trkpt lat="41.3554573" lon="1.797667"><ele>253.8</ele><time>2026-04-27T10:54:49.396Z</time></trkpt><trkpt lat="41.3554963" lon="1.7975336"><ele>253.2</ele><time>2026-04-27T10:54:50.386Z</time></trkpt><trkpt lat="41.3555394" lon="1.7973928"><ele>252.6</ele><time>2026-04-27T10:54:51.393Z</time></trkpt><trkpt lat="41.3555833" lon="1.7972515"><ele>252.0</ele><time>2026-04-27T10:54:52.386Z</time></trkpt><trkpt lat="41.3556258" lon="1.7971016"><ele>252.0</ele><time>2026-04-27T10:54:53.388Z</time></trkpt><trkpt lat="41.3556627" lon="1.7969361"><ele>252.0</ele><time>2026-04-27T10:54:54.39Z</time></trkpt><trkpt lat="41.3556977" lon="1.7967632"><ele>252.0</ele><time>2026-04-27T10:54:55.391Z</time></trkpt><trkpt lat="41.3557248" lon="1.7965839"><ele>252.0</ele><time>2026-04-27T10:54:56.393Z</time></trkpt><trkpt lat="41.3557538" lon="1.7964083"><ele>251.5</ele><time>2026-04-27T10:54:57.396Z</time></trkpt><trkpt lat="41.3557807" lon="1.796233"><ele>251.0</ele><time>2026-04-27T10:54:58.396Z</time></trkpt><trkpt lat="41.3558046" lon="1.7960546"><ele>250.5</ele><time>2026-04-27T10:54:59.425Z</time></trkpt><trkpt lat="41.3558288" lon="1.795874"><ele>250.0</ele><time>2026-04-27T10:55:00.398Z</time></trkpt><trkpt lat="41.3558475" lon="1.7956905"><ele>249.75</ele><time>2026-04-27T10:55:01.393Z</time></trkpt><trkpt lat="41.3558627" lon="1.7955169"><ele>249.5</ele><time>2026-04-27T10:55:02.393Z</time></trkpt><trkpt lat="41.3558847" lon="1.7953339"><ele>249.25</ele><time>2026-04-27T10:55:03.393Z</time></trkpt><trkpt lat="41.3558993" lon="1.7951535"><ele>249.0</ele><time>2026-04-27T10:55:04.393Z</time></trkpt><trkpt lat="41.355912" lon="1.7949772"><ele>248.75</ele><time>2026-04-27T10:55:05.392Z</time></trkpt><trkpt lat="41.3559297" lon="1.7947851"><ele>248.5</ele><time>2026-04-27T10:55:06.392Z</time></trkpt><trkpt lat="41.3559458" lon="1.7946006"><ele>248.25</ele><time>2026-04-27T10:55:07.39Z</time></trkpt><trkpt lat="41.3559648" lon="1.7944174"><ele>248.0</ele><time>2026-04-27T10:55:08.394Z</time></trkpt><trkpt lat="41.3559856" lon="1.7942265"><ele>249.33333333333334</ele><time>2026-04-27T10:55:09.392Z</time></trkpt><trkpt lat="41.3560006" lon="1.7940325"><ele>250.66666666666669</ele><time>2026-04-27T10:55:10.389Z</time></trkpt><trkpt lat="41.3560155" lon="1.7938325"><ele>252.0</ele><time>2026-04-27T10:55:11.392Z</time></trkpt><trkpt lat="41.3560203" lon="1.7936285"><ele>253.66666666666669</ele><time>2026-04-27T10:55:12.392Z</time></trkpt><trkpt lat="41.3560197" lon="1.7934308"><ele>255.33333333333334</ele><time>2026-04-27T10:55:13.383Z</time></trkpt><trkpt lat="41.3560068" lon="1.7932288"><ele>257.0</ele><time>2026-04-27T10:55:14.392Z</time></trkpt><trkpt lat="41.3559908" lon="1.7930163"><ele>257.0</ele><time>2026-04-27T10:55:15.395Z</time></trkpt><trkpt lat="41.3559822" lon="1.792801"><ele>257.0</ele><time>2026-04-27T10:55:16.383Z</time></trkpt><trkpt lat="41.3559859" lon="1.7925962"><ele>257.0</ele><time>2026-04-27T10:55:17.394Z</time></trkpt><trkpt lat="41.3559826" lon="1.7923962"><ele>257.0</ele><time>2026-04-27T10:55:18.392Z</time></trkpt><trkpt lat="41.355972" lon="1.7921962"><ele>257.0</ele><time>2026-04-27T10:55:19.39Z</time></trkpt><trkpt lat="41.3559566" lon="1.792018"><ele>257.0</ele><time>2026-04-27T10:55:20.385Z</time></trkpt><trkpt lat="41.3559383" lon="1.7918409"><ele>257.0</ele><time>2026-04-27T10:55:21.385Z</time></trkpt><trkpt lat="41.3559344" lon="1.7916867"><ele>258.0</ele><time>2026-04-27T10:55:22.382Z</time></trkpt><trkpt lat="41.3559398" lon="1.7915438"><ele>259.0</ele><time>2026-04-27T10:55:23.385Z</time></trkpt><trkpt lat="41.3559569" lon="1.7914095"><ele>260.0</ele><time>2026-04-27T10:55:24.387Z</time></trkpt><trkpt lat="41.3560029" lon="1.7912877"><ele>261.0</ele><time>2026-04-27T10:55:25.391Z</time></trkpt><trkpt lat="41.3560718" lon="1.7911703"><ele>262.0</ele><time>2026-04-27T10:55:26.386Z</time></trkpt><trkpt lat="41.3561437" lon="1.7910483"><ele>261.75</ele><time>2026-04-27T10:55:27.392Z</time></trkpt><trkpt lat="41.3562245" lon="1.7909292"><ele>261.5</ele><time>2026-04-27T10:55:28.392Z</time></trkpt><trkpt lat="41.3562994" lon="1.7908051"><ele>261.25</ele><time>2026-04-27T10:55:29.409Z</time></trkpt><trkpt lat="41.3563728" lon="1.7906743"><ele>261.0</ele><time>2026-04-27T10:55:30.388Z</time></trkpt><trkpt lat="41.3564482" lon="1.7905451"><ele>262.0</ele><time>2026-04-27T10:55:31.401Z</time></trkpt><trkpt lat="41.3565231" lon="1.7904133"><ele>263.0</ele><time>2026-04-27T10:55:32.393Z</time></trkpt><trkpt lat="41.3566063" lon="1.7902914"><ele>264.0</ele><time>2026-04-27T10:55:33.393Z</time></trkpt><trkpt lat="41.3567008" lon="1.790172"><ele>265.0</ele><time>2026-04-27T10:55:34.395Z</time></trkpt><trkpt lat="41.3568021" lon="1.7900688"><ele>265.0</ele><time>2026-04-27T10:55:35.397Z</time></trkpt><trkpt lat="41.3569063" lon="1.7899741"><ele>265.0</ele><time>2026-04-27T10:55:36.397Z</time></trkpt><trkpt lat="41.3570083" lon="1.7898803"><ele>265.0</ele><time>2026-04-27T10:55:37.4Z</time></trkpt><trkpt lat="41.3571112" lon="1.7897928"><ele>265.0</ele><time>2026-04-27T10:55:38.398Z</time></trkpt><trkpt lat="41.3572068" lon="1.7897007"><ele>265.5</ele><time>2026-04-27T10:55:39.392Z</time></trkpt><trkpt lat="41.3572901" lon="1.7895922"><ele>266.0</ele><time>2026-04-27T10:55:40.392Z</time></trkpt><trkpt lat="41.3573633" lon="1.7894616"><ele>266.5</ele><time>2026-04-27T10:55:41.405Z</time></trkpt><trkpt lat="41.3574261" lon="1.7893019"><ele>267.0</ele><time>2026-04-27T10:55:42.386Z</time></trkpt><trkpt lat="41.3574794" lon="1.7891309"><ele>267.0</ele><time>2026-04-27T10:55:43.39Z</time></trkpt><trkpt lat="41.3575334" lon="1.788945"><ele>267.0</ele><time>2026-04-27T10:55:44.385Z</time></trkpt><trkpt lat="41.3575868" lon="1.7887301"><ele>267.0</ele><time>2026-04-27T10:55:45.394Z</time></trkpt><trkpt lat="41.3576331" lon="1.7885171"><ele>267.6666666666667</ele><time>2026-04-27T10:55:46.391Z</time></trkpt><trkpt lat="41.3576903" lon="1.7882887"><ele>268.33333333333337</ele><time>2026-04-27T10:55:47.396Z</time></trkpt><trkpt lat="41.3577446" lon="1.7880636"><ele>269.0</ele><time>2026-04-27T10:55:48.389Z</time></trkpt><trkpt lat="41.3578085" lon="1.7878309"><ele>271.6666666666667</ele><time>2026-04-27T10:55:49.397Z</time></trkpt><trkpt lat="41.3578638" lon="1.7875946"><ele>274.3333333333333</ele><time>2026-04-27T10:55:50.393Z</time></trkpt><trkpt lat="41.3579184" lon="1.7873563"><ele>277.0</ele><time>2026-04-27T10:55:51.393Z</time></trkpt><trkpt lat="41.3579675" lon="1.7871307"><ele>277.0</ele><time>2026-04-27T10:55:52.397Z</time></trkpt><trkpt lat="41.3580053" lon="1.7869006"><ele>277.0</ele><time>2026-04-27T10:55:53.386Z</time></trkpt><trkpt lat="41.3580344" lon="1.7866685"><ele>277.0</ele><time>2026-04-27T10:55:54.391Z</time></trkpt><trkpt lat="41.3580553" lon="1.7864299"><ele>276.0</ele><time>2026-04-27T10:55:55.39Z</time></trkpt><trkpt lat="41.3580744" lon="1.7861915"><ele>275.0</ele><time>2026-04-27T10:55:56.381Z</time></trkpt><trkpt lat="41.3580902" lon="1.7859561"><ele>274.0</ele><time>2026-04-27T10:55:57.386Z</time></trkpt><trkpt lat="41.358101" lon="1.7857132"><ele>274.0</ele><time>2026-04-27T10:55:58.39Z</time></trkpt><trkpt lat="41.3581159" lon="1.7854729"><ele>274.0</ele><time>2026-04-27T10:55:59.389Z</time></trkpt><trkpt lat="41.3581329" lon="1.7852299"><ele>274.0</ele><time>2026-04-27T10:56:00.4Z</time></trkpt><trkpt lat="41.3581531" lon="1.7849911"><ele>274.66666666666663</ele><time>2026-04-27T10:56:01.387Z</time></trkpt><trkpt lat="41.3581736" lon="1.7847455"><ele>275.3333333333333</ele><time>2026-04-27T10:56:02.389Z</time></trkpt><trkpt lat="41.3582031" lon="1.7845013"><ele>276.0</ele><time>2026-04-27T10:56:03.389Z</time></trkpt><trkpt lat="41.358243" lon="1.7842584"><ele>276.0</ele><time>2026-04-27T10:56:04.386Z</time></trkpt><trkpt lat="41.358289" lon="1.7840228"><ele>276.0</ele><time>2026-04-27T10:56:05.393Z</time></trkpt><trkpt lat="41.3583445" lon="1.7837882"><ele>276.0</ele><time>2026-04-27T10:56:06.396Z</time></trkpt><trkpt lat="41.3584011" lon="1.7835633"><ele>275.6666666666667</ele><time>2026-04-27T10:56:07.399Z</time></trkpt><trkpt lat="41.3584589" lon="1.7833376"><ele>275.33333333333337</ele><time>2026-04-27T10:56:08.395Z</time></trkpt><trkpt lat="41.3585159" lon="1.7830951"><ele>275.0</ele><time>2026-04-27T10:56:09.394Z</time></trkpt><trkpt lat="41.3585696" lon="1.7828677"><ele>275.0</ele><time>2026-04-27T10:56:10.39Z</time></trkpt><trkpt lat="41.3586219" lon="1.7826547"><ele>275.0</ele><time>2026-04-27T10:56:11.398Z</time></trkpt><trkpt lat="41.358665" lon="1.7824332"><ele>275.0</ele><time>2026-04-27T10:56:12.389Z</time></trkpt><trkpt lat="41.3587113" lon="1.7822372"><ele>275.0</ele><time>2026-04-27T10:56:13.393Z</time></trkpt><trkpt lat="41.3587625" lon="1.7820507"><ele>275.0</ele><time>2026-04-27T10:56:14.39Z</time></trkpt><trkpt lat="41.3588333" lon="1.7818896"><ele>275.0</ele><time>2026-04-27T10:56:15.394Z</time></trkpt><trkpt lat="41.3589377" lon="1.7817249"><ele>275.6666666666667</ele><time>2026-04-27T10:56:16.394Z</time></trkpt><trkpt lat="41.3590491" lon="1.7815513"><ele>276.3333333333333</ele><time>2026-04-27T10:56:17.403Z</time></trkpt><trkpt lat="41.3591465" lon="1.781375"><ele>277.0</ele><time>2026-04-27T10:56:18.385Z</time></trkpt><trkpt lat="41.359215" lon="1.7811877"><ele>277.0</ele><time>2026-04-27T10:56:19.395Z</time></trkpt><trkpt lat="41.359277" lon="1.7810001"><ele>277.0</ele><time>2026-04-27T10:56:20.398Z</time></trkpt><trkpt lat="41.3593305" lon="1.7808224"><ele>277.0</ele><time>2026-04-27T10:56:21.405Z</time></trkpt><trkpt lat="41.3593931" lon="1.7806526"><ele>277.0</ele><time>2026-04-27T10:56:22.401Z</time></trkpt><trkpt lat="41.3594474" lon="1.780484"><ele>277.0</ele><time>2026-04-27T10:56:23.402Z</time></trkpt><trkpt lat="41.3594942" lon="1.7803381"><ele>277.0</ele><time>2026-04-27T10:56:24.396Z</time></trkpt><trkpt lat="41.3595278" lon="1.7802119"><ele>277.0</ele><time>2026-04-27T10:56:25.401Z</time></trkpt><trkpt lat="41.3595612" lon="1.7801281"><ele>277.0</ele><time>2026-04-27T10:56:26.391Z</time></trkpt><trkpt lat="41.3595923" lon="1.7800419"><ele>277.0</ele><time>2026-04-27T10:56:27.402Z</time></trkpt><trkpt lat="41.3596216" lon="1.7799596"><ele>277.0</ele><time>2026-04-27T10:56:28.403Z</time></trkpt><trkpt lat="41.3596499" lon="1.7798698"><ele>277.3333333333333</ele><time>2026-04-27T10:56:29.403Z</time></trkpt><trkpt lat="41.3596797" lon="1.7797772"><ele>277.66666666666663</ele><time>2026-04-27T10:56:30.393Z</time></trkpt><trkpt lat="41.3597108" lon="1.779676"><ele>278.0</ele><time>2026-04-27T10:56:31.416Z</time></trkpt><trkpt lat="41.3597501" lon="1.7795673"><ele>278.3333333333333</ele><time>2026-04-27T10:56:32.39Z</time></trkpt><trkpt lat="41.3597852" lon="1.7794498"><ele>278.6666666666667</ele><time>2026-04-27T10:56:33.4Z</time></trkpt><trkpt lat="41.3598226" lon="1.779332"><ele>279.0</ele><time>2026-04-27T10:56:34.397Z</time></trkpt><trkpt lat="41.3598562" lon="1.7792084"><ele>279.4</ele><time>2026-04-27T10:56:35.408Z</time></trkpt><trkpt lat="41.3598921" lon="1.7790877"><ele>279.79999999999995</ele><time>2026-04-27T10:56:36.393Z</time></trkpt><trkpt lat="41.3599255" lon="1.7789614"><ele>280.20000000000005</ele><time>2026-04-27T10:56:37.402Z</time></trkpt><trkpt lat="41.3599643" lon="1.7788249"><ele>280.6</ele><time>2026-04-27T10:56:38.397Z</time></trkpt><trkpt lat="41.3600105" lon="1.7786957"><ele>281.0</ele><time>2026-04-27T10:56:39.398Z</time></trkpt><trkpt lat="41.3600528" lon="1.7785634"><ele>281.2</ele><time>2026-04-27T10:56:40.398Z</time></trkpt><trkpt lat="41.3600939" lon="1.7784396"><ele>281.40000000000003</ele><time>2026-04-27T10:56:41.398Z</time></trkpt><trkpt lat="41.3601286" lon="1.7783159"><ele>281.6</ele><time>2026-04-27T10:56:42.394Z</time></trkpt><trkpt lat="41.3601552" lon="1.7781885"><ele>281.8</ele><time>2026-04-27T10:56:43.396Z</time></trkpt><trkpt lat="41.3601797" lon="1.7780545"><ele>282.0</ele><time>2026-04-27T10:56:44.389Z</time></trkpt><trkpt lat="41.3602058" lon="1.777927"><ele>282.0</ele><time>2026-04-27T10:56:45.402Z</time></trkpt><trkpt lat="41.3602239" lon="1.7777932"><ele>282.0</ele><time>2026-04-27T10:56:46.398Z</time></trkpt><trkpt lat="41.36024" lon="1.7776555"><ele>282.0</ele><time>2026-04-27T10:56:47.402Z</time></trkpt><trkpt lat="41.3602466" lon="1.7775269"><ele>282.0</ele><time>2026-04-27T10:56:48.395Z</time></trkpt><trkpt lat="41.3602559" lon="1.7774065"><ele>282.0</ele><time>2026-04-27T10:56:49.406Z</time></trkpt><trkpt lat="41.3602691" lon="1.7772834"><ele>282.0</ele><time>2026-04-27T10:56:50.391Z</time></trkpt><trkpt lat="41.3603003" lon="1.777176"><ele>282.0</ele><time>2026-04-27T10:56:51.394Z</time></trkpt><trkpt lat="41.360351" lon="1.777069"><ele>282.0</ele><time>2026-04-27T10:56:52.395Z</time></trkpt><trkpt lat="41.3604305" lon="1.7769792"><ele>282.0</ele><time>2026-04-27T10:56:53.398Z</time></trkpt><trkpt lat="41.3605353" lon="1.7769204"><ele>282.0</ele><time>2026-04-27T10:56:54.388Z</time></trkpt><trkpt lat="41.3606423" lon="1.7768682"><ele>282.0</ele><time>2026-04-27T10:56:55.384Z</time></trkpt><trkpt lat="41.3607587" lon="1.7768196"><ele>282.0</ele><time>2026-04-27T10:56:56.398Z</time></trkpt><trkpt lat="41.3608773" lon="1.7767586"><ele>282.0</ele><time>2026-04-27T10:56:57.394Z</time></trkpt><trkpt lat="41.3609915" lon="1.7767012"><ele>282.0</ele><time>2026-04-27T10:56:58.386Z</time></trkpt><trkpt lat="41.3610879" lon="1.7766512"><ele>282.0</ele><time>2026-04-27T10:56:59.386Z</time></trkpt><trkpt lat="41.3611704" lon="1.7766098"><ele>282.0</ele><time>2026-04-27T10:57:00.389Z</time></trkpt><trkpt lat="41.3612327" lon="1.7765949"><ele>282.0</ele><time>2026-04-27T10:57:01.401Z</time></trkpt><trkpt lat="41.361314" lon="1.7766299"><ele>282.0</ele><time>2026-04-27T10:57:03.39Z</time></trkpt><trkpt lat="41.3614104" lon="1.7766155"><ele>282.0</ele><time>2026-04-27T10:57:15.391Z</time></trkpt><trkpt lat="41.3615149" lon="1.7765542"><ele>282.0</ele><time>2026-04-27T10:57:17.395Z</time></trkpt><trkpt lat="41.3615705" lon="1.7764991"><ele>281.4</ele><time>2026-04-27T10:57:18.391Z</time></trkpt><trkpt lat="41.3616317" lon="1.7764295"><ele>280.79999999999995</ele><time>2026-04-27T10:57:19.397Z</time></trkpt><trkpt lat="41.3617018" lon="1.7763553"><ele>280.2</ele><time>2026-04-27T10:57:20.397Z</time></trkpt><trkpt lat="41.3617748" lon="1.7762707"><ele>279.59999999999997</ele><time>2026-04-27T10:57:21.404Z</time></trkpt><trkpt lat="41.3618511" lon="1.7761814"><ele>279.0</ele><time>2026-04-27T10:57:22.396Z</time></trkpt><trkpt lat="41.3619324" lon="1.7760922"><ele>279.0</ele><time>2026-04-27T10:57:23.397Z</time></trkpt><trkpt lat="41.3620224" lon="1.77601"><ele>279.0</ele><time>2026-04-27T10:57:24.391Z</time></trkpt><trkpt lat="41.3621162" lon="1.7759344"><ele>279.0</ele><time>2026-04-27T10:57:25.396Z</time></trkpt><trkpt lat="41.3622182" lon="1.7758636"><ele>279.0</ele><time>2026-04-27T10:57:26.385Z</time></trkpt><trkpt lat="41.3623286" lon="1.7757996"><ele>277.25</ele><time>2026-04-27T10:57:27.398Z</time></trkpt><trkpt lat="41.3624451" lon="1.7757423"><ele>275.5</ele><time>2026-04-27T10:57:28.406Z</time></trkpt><trkpt lat="41.3625603" lon="1.7756863"><ele>273.75</ele><time>2026-04-27T10:57:29.397Z</time></trkpt><trkpt lat="41.3626768" lon="1.7756336"><ele>272.0</ele><time>2026-04-27T10:57:30.394Z</time></trkpt><trkpt lat="41.3627859" lon="1.7755682"><ele>272.0</ele><time>2026-04-27T10:57:31.393Z</time></trkpt><trkpt lat="41.3628739" lon="1.775489"><ele>272.0</ele><time>2026-04-27T10:57:32.396Z</time></trkpt><trkpt lat="41.362952" lon="1.7754078"><ele>272.0</ele><time>2026-04-27T10:57:33.405Z</time></trkpt><trkpt lat="41.3630291" lon="1.775327"><ele>272.0</ele><time>2026-04-27T10:57:34.395Z</time></trkpt><trkpt lat="41.3631098" lon="1.775255"><ele>272.0</ele><time>2026-04-27T10:57:35.406Z</time></trkpt><trkpt lat="41.3631947" lon="1.7751886"><ele>271.0</ele><time>2026-04-27T10:57:36.393Z</time></trkpt><trkpt lat="41.3632857" lon="1.7751184"><ele>270.0</ele><time>2026-04-27T10:57:37.396Z</time></trkpt><trkpt lat="41.3633802" lon="1.7750652"><ele>269.0</ele><time>2026-04-27T10:57:38.398Z</time></trkpt><trkpt lat="41.363475" lon="1.7750326"><ele>268.0</ele><time>2026-04-27T10:57:39.39Z</time></trkpt><trkpt lat="41.3635715" lon="1.7750077"><ele>267.0</ele><time>2026-04-27T10:57:40.392Z</time></trkpt><trkpt lat="41.363668" lon="1.7749909"><ele>267.0</ele><time>2026-04-27T10:57:41.391Z</time></trkpt><trkpt lat="41.3637678" lon="1.7749929"><ele>267.0</ele><time>2026-04-27T10:57:42.385Z</time></trkpt><trkpt lat="41.3638652" lon="1.7749991"><ele>267.0</ele><time>2026-04-27T10:57:43.394Z</time></trkpt><trkpt lat="41.3639674" lon="1.7750182"><ele>267.0</ele><time>2026-04-27T10:57:44.391Z</time></trkpt><trkpt lat="41.3640712" lon="1.7750322"><ele>267.0</ele><time>2026-04-27T10:57:45.393Z</time></trkpt><trkpt lat="41.3641759" lon="1.7750474"><ele>266.6</ele><time>2026-04-27T10:57:46.392Z</time></trkpt><trkpt lat="41.3642846" lon="1.7750626"><ele>266.2</ele><time>2026-04-27T10:57:47.39Z</time></trkpt><trkpt lat="41.364395" lon="1.7750764"><ele>265.8</ele><time>2026-04-27T10:57:48.394Z</time></trkpt><trkpt lat="41.3645071" lon="1.7750924"><ele>265.4</ele><time>2026-04-27T10:57:49.391Z</time></trkpt><trkpt lat="41.3646147" lon="1.7751128"><ele>265.0</ele><time>2026-04-27T10:57:50.388Z</time></trkpt><trkpt lat="41.3647149" lon="1.775128"><ele>264.16666666666663</ele><time>2026-04-27T10:57:51.387Z</time></trkpt><trkpt lat="41.3648052" lon="1.7751475"><ele>263.3333333333333</ele><time>2026-04-27T10:57:52.389Z</time></trkpt><trkpt lat="41.3648846" lon="1.7751619"><ele>262.5</ele><time>2026-04-27T10:57:53.39Z</time></trkpt><trkpt lat="41.3649605" lon="1.7751814"><ele>261.6666666666667</ele><time>2026-04-27T10:57:54.397Z</time></trkpt><trkpt lat="41.365036" lon="1.7751844"><ele>260.83333333333337</ele><time>2026-04-27T10:57:55.398Z</time></trkpt><trkpt lat="41.3651142" lon="1.7751701"><ele>260.0</ele><time>2026-04-27T10:57:56.402Z</time></trkpt><trkpt lat="41.3651972" lon="1.7751382"><ele>260.0</ele><time>2026-04-27T10:57:57.396Z</time></trkpt><trkpt lat="41.3652768" lon="1.7750942"><ele>260.0</ele><time>2026-04-27T10:57:58.404Z</time></trkpt><trkpt lat="41.3653565" lon="1.7750248"><ele>260.0</ele><time>2026-04-27T10:57:59.39Z</time></trkpt><trkpt lat="41.3654383" lon="1.7749416"><ele>260.0</ele><time>2026-04-27T10:58:00.403Z</time></trkpt><trkpt lat="41.3655143" lon="1.7748557"><ele>260.0</ele><time>2026-04-27T10:58:01.398Z</time></trkpt><trkpt lat="41.3655884" lon="1.7747626"><ele>259.2</ele><time>2026-04-27T10:58:02.397Z</time></trkpt><trkpt lat="41.3656647" lon="1.774669"><ele>258.4</ele><time>2026-04-27T10:58:03.397Z</time></trkpt><trkpt lat="41.3657454" lon="1.7745753"><ele>257.6</ele><time>2026-04-27T10:58:04.416Z</time></trkpt><trkpt lat="41.3658259" lon="1.7744737"><ele>256.8</ele><time>2026-04-27T10:58:05.404Z</time></trkpt><trkpt lat="41.3659046" lon="1.7743734"><ele>256.0</ele><time>2026-04-27T10:58:06.402Z</time></trkpt><trkpt lat="41.3659875" lon="1.7742764"><ele>255.5</ele><time>2026-04-27T10:58:07.391Z</time></trkpt><trkpt lat="41.366076" lon="1.7741725"><ele>255.0</ele><time>2026-04-27T10:58:08.394Z</time></trkpt><trkpt lat="41.3661644" lon="1.7740613"><ele>254.5</ele><time>2026-04-27T10:58:09.39Z</time></trkpt><trkpt lat="41.3662537" lon="1.7739546"><ele>254.0</ele><time>2026-04-27T10:58:10.394Z</time></trkpt><trkpt lat="41.3663427" lon="1.7738512"><ele>253.25</ele><time>2026-04-27T10:58:11.395Z</time></trkpt><trkpt lat="41.3664359" lon="1.7737535"><ele>252.5</ele><time>2026-04-27T10:58:12.395Z</time></trkpt><trkpt lat="41.3665335" lon="1.7736602"><ele>251.75</ele><time>2026-04-27T10:58:13.398Z</time></trkpt><trkpt lat="41.366635" lon="1.7735656"><ele>251.0</ele><time>2026-04-27T10:58:14.404Z</time></trkpt><trkpt lat="41.36674" lon="1.7734753"><ele>250.5</ele><time>2026-04-27T10:58:15.397Z</time></trkpt><trkpt lat="41.3668479" lon="1.7733853"><ele>250.0</ele><time>2026-04-27T10:58:16.401Z</time></trkpt><trkpt lat="41.3669564" lon="1.7732945"><ele>249.5</ele><time>2026-04-27T10:58:17.403Z</time></trkpt><trkpt lat="41.3670641" lon="1.773202"><ele>249.0</ele><time>2026-04-27T10:58:18.402Z</time></trkpt><trkpt lat="41.3671747" lon="1.773121"><ele>248.75</ele><time>2026-04-27T10:58:19.412Z</time></trkpt><trkpt lat="41.3672872" lon="1.7730494"><ele>248.5</ele><time>2026-04-27T10:58:20.406Z</time></trkpt><trkpt lat="41.3673937" lon="1.7729835"><ele>248.25</ele><time>2026-04-27T10:58:21.409Z</time></trkpt><trkpt lat="41.3674889" lon="1.7729167"><ele>248.0</ele><time>2026-04-27T10:58:22.396Z</time></trkpt><trkpt lat="41.3675766" lon="1.7728478"><ele>248.0</ele><time>2026-04-27T10:58:23.394Z</time></trkpt><trkpt lat="41.367658" lon="1.7727794"><ele>248.0</ele><time>2026-04-27T10:58:24.394Z</time></trkpt><trkpt lat="41.3677318" lon="1.7727042"><ele>248.0</ele><time>2026-04-27T10:58:25.391Z</time></trkpt><trkpt lat="41.3677922" lon="1.7726173"><ele>248.0</ele><time>2026-04-27T10:58:26.384Z</time></trkpt><trkpt lat="41.3678461" lon="1.7725148"><ele>248.0</ele><time>2026-04-27T10:58:27.378Z</time></trkpt><trkpt lat="41.3678866" lon="1.7724052"><ele>247.4</ele><time>2026-04-27T10:58:28.377Z</time></trkpt><trkpt lat="41.3679355" lon="1.7722933"><ele>246.8</ele><time>2026-04-27T10:58:29.38Z</time></trkpt><trkpt lat="41.3679836" lon="1.7721816"><ele>246.2</ele><time>2026-04-27T10:58:30.381Z</time></trkpt><trkpt lat="41.3680377" lon="1.7720835"><ele>245.6</ele><time>2026-04-27T10:58:31.384Z</time></trkpt><trkpt lat="41.3681004" lon="1.7720091"><ele>245.0</ele><time>2026-04-27T10:58:32.385Z</time></trkpt><trkpt lat="41.3681859" lon="1.7719488"><ele>245.0</ele><time>2026-04-27T10:58:33.379Z</time></trkpt><trkpt lat="41.3682852" lon="1.7718742"><ele>245.0</ele><time>2026-04-27T10:58:34.376Z</time></trkpt><trkpt lat="41.3683822" lon="1.7717891"><ele>245.0</ele><time>2026-04-27T10:58:35.391Z</time></trkpt><trkpt lat="41.3684734" lon="1.7716865"><ele>245.0</ele><time>2026-04-27T10:58:36.377Z</time></trkpt><trkpt lat="41.3685587" lon="1.7715759"><ele>242.5</ele><time>2026-04-27T10:58:37.378Z</time></trkpt><trkpt lat="41.3686398" lon="1.7714582"><ele>240.0</ele><time>2026-04-27T10:58:38.386Z</time></trkpt><trkpt lat="41.3687133" lon="1.7713348"><ele>237.5</ele><time>2026-04-27T10:58:39.385Z</time></trkpt><trkpt lat="41.3687852" lon="1.7712228"><ele>235.0</ele><time>2026-04-27T10:58:40.389Z</time></trkpt><trkpt lat="41.3688537" lon="1.7711203"><ele>234.83333333333331</ele><time>2026-04-27T10:58:41.392Z</time></trkpt><trkpt lat="41.368915" lon="1.7710324"><ele>234.66666666666666</ele><time>2026-04-27T10:58:42.386Z</time></trkpt><trkpt lat="41.3689802" lon="1.7709502"><ele>234.5</ele><time>2026-04-27T10:58:43.395Z</time></trkpt><trkpt lat="41.3690546" lon="1.770887"><ele>234.33333333333331</ele><time>2026-04-27T10:58:44.392Z</time></trkpt><trkpt lat="41.3691339" lon="1.7708431"><ele>234.16666666666666</ele><time>2026-04-27T10:58:45.378Z</time></trkpt><trkpt lat="41.369217" lon="1.7708543"><ele>234.0</ele><time>2026-04-27T10:58:46.395Z</time></trkpt><trkpt lat="41.3693133" lon="1.7709049"><ele>234.0</ele><time>2026-04-27T10:58:47.393Z</time></trkpt><trkpt lat="41.3694164" lon="1.7709613"><ele>233.99999999999997</ele><time>2026-04-27T10:58:48.391Z</time></trkpt><trkpt lat="41.3695188" lon="1.7710192"><ele>233.99999999999997</ele><time>2026-04-27T10:58:49.393Z</time></trkpt><trkpt lat="41.369621" lon="1.7710583"><ele>234.0</ele><time>2026-04-27T10:58:50.393Z</time></trkpt><trkpt lat="41.3697229" lon="1.7710848"><ele>234.0</ele><time>2026-04-27T10:58:51.387Z</time></trkpt><trkpt lat="41.3698156" lon="1.7710926"><ele>233.0</ele><time>2026-04-27T10:58:52.396Z</time></trkpt><trkpt lat="41.3698971" lon="1.7710772"><ele>232.0</ele><time>2026-04-27T10:58:53.381Z</time></trkpt><trkpt lat="41.369965" lon="1.7710183"><ele>231.0</ele><time>2026-04-27T10:58:54.379Z</time></trkpt><trkpt lat="41.3700295" lon="1.7709471"><ele>230.0</ele><time>2026-04-27T10:58:55.383Z</time></trkpt><trkpt lat="41.3700919" lon="1.7708821"><ele>229.0</ele><time>2026-04-27T10:58:56.38Z</time></trkpt><trkpt lat="41.3701558" lon="1.7708346"><ele>228.0</ele><time>2026-04-27T10:58:57.383Z</time></trkpt><trkpt lat="41.3702227" lon="1.7708111"><ele>227.83333333333334</ele><time>2026-04-27T10:58:58.379Z</time></trkpt><trkpt lat="41.3702868" lon="1.7708086"><ele>227.66666666666669</ele><time>2026-04-27T10:58:59.38Z</time></trkpt><trkpt lat="41.3703589" lon="1.7708194"><ele>227.5</ele><time>2026-04-27T10:59:00.383Z</time></trkpt><trkpt lat="41.3704807" lon="1.7708084"><ele>227.33333333333334</ele><time>2026-04-27T10:59:02.394Z</time></trkpt><trkpt lat="41.3705322" lon="1.7706947"><ele>227.16666666666669</ele><time>2026-04-27T10:59:04.382Z</time></trkpt><trkpt lat="41.3705099" lon="1.7706138"><ele>227.0</ele><time>2026-04-27T10:59:05.383Z</time></trkpt><trkpt lat="41.3704905" lon="1.7705328"><ele>227.00000000000003</ele><time>2026-04-27T10:59:06.399Z</time></trkpt><trkpt lat="41.3704528" lon="1.7704394"><ele>227.0</ele><time>2026-04-27T10:59:07.383Z</time></trkpt><trkpt lat="41.3704183" lon="1.7703452"><ele>227.0</ele><time>2026-04-27T10:59:08.378Z</time></trkpt><trkpt lat="41.3703873" lon="1.770248"><ele>227.0</ele><time>2026-04-27T10:59:09.386Z</time></trkpt><trkpt lat="41.3703594" lon="1.7701406"><ele>227.00000000000003</ele><time>2026-04-27T10:59:10.382Z</time></trkpt><trkpt lat="41.3703409" lon="1.770027"><ele>227.0</ele><time>2026-04-27T10:59:11.38Z</time></trkpt><trkpt lat="41.370325" lon="1.7699097"><ele>226.83333333333334</ele><time>2026-04-27T10:59:12.384Z</time></trkpt><trkpt lat="41.3703157" lon="1.7697937"><ele>226.66666666666669</ele><time>2026-04-27T10:59:13.385Z</time></trkpt><trkpt lat="41.3703084" lon="1.7696749"><ele>226.5</ele><time>2026-04-27T10:59:14.389Z</time></trkpt><trkpt lat="41.3703108" lon="1.7695591"><ele>226.33333333333331</ele><time>2026-04-27T10:59:15.388Z</time></trkpt><trkpt lat="41.3703174" lon="1.7694497"><ele>226.16666666666666</ele><time>2026-04-27T10:59:16.388Z</time></trkpt><trkpt lat="41.3703382" lon="1.7693403"><ele>226.0</ele><time>2026-04-27T10:59:17.386Z</time></trkpt><trkpt lat="41.3703727" lon="1.7692419"><ele>226.0</ele><time>2026-04-27T10:59:18.394Z</time></trkpt><trkpt lat="41.3704243" lon="1.7691905"><ele>226.00000000000003</ele><time>2026-04-27T10:59:19.39Z</time></trkpt><trkpt lat="41.3705233" lon="1.7691074"><ele>226.00000000000003</ele><time>2026-04-27T10:59:21.397Z</time></trkpt><trkpt lat="41.3705998" lon="1.7689894"><ele>226.0</ele><time>2026-04-27T10:59:23.388Z</time></trkpt><trkpt lat="41.3706534" lon="1.7688397"><ele>226.0</ele><time>2026-04-27T10:59:25.396Z</time></trkpt><trkpt lat="41.3706952" lon="1.7686973"><ele>227.60000000000002</ele><time>2026-04-27T10:59:27.386Z</time></trkpt><trkpt lat="41.3707283" lon="1.7685631"><ele>229.20000000000002</ele><time>2026-04-27T10:59:29.389Z</time></trkpt><trkpt lat="41.3707811" lon="1.7684621"><ele>230.79999999999998</ele><time>2026-04-27T10:59:31.399Z</time></trkpt><trkpt lat="41.3708572" lon="1.7683746"><ele>232.39999999999998</ele><time>2026-04-27T10:59:33.396Z</time></trkpt><trkpt lat="41.3709012" lon="1.7683123"><ele>234.0</ele><time>2026-04-27T10:59:35.387Z</time></trkpt><trkpt lat="41.3710043" lon="1.7682924"><ele>234.0</ele><time>2026-04-27T11:00:16.391Z</time></trkpt><trkpt lat="41.3711338" lon="1.7683452"><ele>233.99999999999997</ele><time>2026-04-27T11:00:18.398Z</time></trkpt><trkpt lat="41.3712063" lon="1.768372"><ele>233.99999999999997</ele><time>2026-04-27T11:00:19.391Z</time></trkpt><trkpt lat="41.3712769" lon="1.768373"><ele>234.0</ele><time>2026-04-27T11:00:20.402Z</time></trkpt><trkpt lat="41.3713814" lon="1.768312"><ele>234.0</ele><time>2026-04-27T11:00:22.381Z</time></trkpt><trkpt lat="41.3714706" lon="1.7682114"><ele>234.0</ele><time>2026-04-27T11:00:24.399Z</time></trkpt><trkpt lat="41.3715838" lon="1.7681214"><ele>233.99999999999997</ele><time>2026-04-27T11:00:26.399Z</time></trkpt><trkpt lat="41.3716534" lon="1.7680678"><ele>233.99999999999997</ele><time>2026-04-27T11:00:27.398Z</time></trkpt><trkpt lat="41.3717314" lon="1.7680064"><ele>234.0</ele><time>2026-04-27T11:00:28.396Z</time></trkpt><trkpt lat="41.3718193" lon="1.7679492"><ele>234.0</ele><time>2026-04-27T11:00:29.405Z</time></trkpt><trkpt lat="41.3719166" lon="1.7678983"><ele>234.0</ele><time>2026-04-27T11:00:30.387Z</time></trkpt><trkpt lat="41.3720231" lon="1.7678578"><ele>233.99999999999997</ele><time>2026-04-27T11:00:31.397Z</time></trkpt><trkpt lat="41.3721351" lon="1.767829"><ele>233.99999999999997</ele><time>2026-04-27T11:00:32.393Z</time></trkpt><trkpt lat="41.3722428" lon="1.7678079"><ele>234.0</ele><time>2026-04-27T11:00:33.402Z</time></trkpt><trkpt lat="41.3723428" lon="1.7677947"><ele>234.0</ele><time>2026-04-27T11:00:34.398Z</time></trkpt><trkpt lat="41.3724345" lon="1.767782"><ele>233.66666666666666</ele><time>2026-04-27T11:00:35.404Z</time></trkpt><trkpt lat="41.372524" lon="1.7677574"><ele>233.33333333333331</ele><time>2026-04-27T11:00:36.397Z</time></trkpt><trkpt lat="41.3726162" lon="1.767725"><ele>233.0</ele><time>2026-04-27T11:00:37.402Z</time></trkpt><trkpt lat="41.3727049" lon="1.7676842"><ele>232.66666666666666</ele><time>2026-04-27T11:00:38.404Z</time></trkpt><trkpt lat="41.3727835" lon="1.7676491"><ele>232.33333333333331</ele><time>2026-04-27T11:00:39.398Z</time></trkpt><trkpt lat="41.3728441" lon="1.7676185"><ele>232.0</ele><time>2026-04-27T11:00:40.4Z</time></trkpt><trkpt lat="41.3729144" lon="1.7675935"><ele>231.99999999999997</ele><time>2026-04-27T11:00:42.389Z</time></trkpt><trkpt lat="41.3730013" lon="1.7675433"><ele>232.0</ele><time>2026-04-27T11:01:37.401Z</time></trkpt><trkpt lat="41.3731006" lon="1.7674951"><ele>232.0</ele><time>2026-04-27T11:01:39.407Z</time></trkpt><trkpt lat="41.3731611" lon="1.7674712"><ele>232.0</ele><time>2026-04-27T11:01:40.415Z</time></trkpt><trkpt lat="41.3732326" lon="1.7674332"><ele>231.99999999999997</ele><time>2026-04-27T11:01:41.405Z</time></trkpt><trkpt lat="41.3733087" lon="1.7673936"><ele>232.0</ele><time>2026-04-27T11:01:42.403Z</time></trkpt><trkpt lat="41.3733801" lon="1.7673636"><ele>231.83333333333331</ele><time>2026-04-27T11:01:43.402Z</time></trkpt><trkpt lat="41.373481" lon="1.7673226"><ele>231.66666666666666</ele><time>2026-04-27T11:01:45.397Z</time></trkpt><trkpt lat="41.3735579" lon="1.7672999"><ele>231.5</ele><time>2026-04-27T11:01:47.403Z</time></trkpt><trkpt lat="41.3736367" lon="1.7672515"><ele>231.33333333333331</ele><time>2026-04-27T11:01:50.404Z</time></trkpt><trkpt lat="41.3737104" lon="1.7672173"><ele>231.16666666666666</ele><time>2026-04-27T11:01:53.405Z</time></trkpt><trkpt lat="41.3737895" lon="1.7671869"><ele>231.0</ele><time>2026-04-27T11:01:55.409Z</time></trkpt><trkpt lat="41.3738902" lon="1.7671371"><ele>230.66666666666666</ele><time>2026-04-27T11:01:57.408Z</time></trkpt><trkpt lat="41.3739943" lon="1.7670841"><ele>230.33333333333331</ele><time>2026-04-27T11:01:59.409Z</time></trkpt><trkpt lat="41.3740559" lon="1.7670415"><ele>230.0</ele><time>2026-04-27T11:02:00.403Z</time></trkpt><trkpt lat="41.3741216" lon="1.7669941"><ele>229.66666666666666</ele><time>2026-04-27T11:02:01.405Z</time></trkpt><trkpt lat="41.3741867" lon="1.7669475"><ele>229.33333333333331</ele><time>2026-04-27T11:02:02.403Z</time></trkpt><trkpt lat="41.374243" lon="1.7668875"><ele>229.0</ele><time>2026-04-27T11:02:03.407Z</time></trkpt><trkpt lat="41.3742895" lon="1.7668251"><ele>228.99999999999997</ele><time>2026-04-27T11:02:04.405Z</time></trkpt><trkpt lat="41.3743309" lon="1.7667618"><ele>229.0</ele><time>2026-04-27T11:02:05.406Z</time></trkpt><trkpt lat="41.3744099" lon="1.7666476"><ele>229.0</ele><time>2026-04-27T11:02:07.413Z</time></trkpt><trkpt lat="41.374507" lon="1.7665349"><ele>229.0</ele><time>2026-04-27T11:02:09.424Z</time></trkpt><trkpt lat="41.3745546" lon="1.7664719"><ele>228.99999999999997</ele><time>2026-04-27T11:02:10.406Z</time></trkpt><trkpt lat="41.3746012" lon="1.7664127"><ele>229.0</ele><time>2026-04-27T11:02:11.419Z</time></trkpt><trkpt lat="41.374712" lon="1.7663601"><ele>228.33333333333331</ele><time>2026-04-27T11:02:13.411Z</time></trkpt><trkpt lat="41.3748256" lon="1.7664309"><ele>227.66666666666666</ele><time>2026-04-27T11:02:15.401Z</time></trkpt><trkpt lat="41.3748866" lon="1.7664858"><ele>227.0</ele><time>2026-04-27T11:02:16.395Z</time></trkpt><trkpt lat="41.374947" lon="1.7665415"><ele>226.33333333333331</ele><time>2026-04-27T11:02:17.409Z</time></trkpt><trkpt lat="41.3750115" lon="1.7666076"><ele>225.66666666666666</ele><time>2026-04-27T11:02:18.396Z</time></trkpt><trkpt lat="41.3750824" lon="1.7666717"><ele>225.0</ele><time>2026-04-27T11:02:19.403Z</time></trkpt><trkpt lat="41.37516" lon="1.766738"><ele>225.0</ele><time>2026-04-27T11:02:20.402Z</time></trkpt><trkpt lat="41.3752372" lon="1.7668073"><ele>225.0</ele><time>2026-04-27T11:02:21.407Z</time></trkpt><trkpt lat="41.3753216" lon="1.766881"><ele>225.0</ele><time>2026-04-27T11:02:22.4Z</time></trkpt><trkpt lat="41.3753961" lon="1.7669565"><ele>225.0</ele><time>2026-04-27T11:02:23.413Z</time></trkpt><trkpt lat="41.3754659" lon="1.7670429"><ele>225.0</ele><time>2026-04-27T11:02:24.403Z</time></trkpt><trkpt lat="41.3755314" lon="1.7671297"><ele>224.5</ele><time>2026-04-27T11:02:25.41Z</time></trkpt><trkpt lat="41.3755883" lon="1.7672156"><ele>224.0</ele><time>2026-04-27T11:02:26.41Z</time></trkpt><trkpt lat="41.3756484" lon="1.7672992"><ele>223.5</ele><time>2026-04-27T11:02:27.407Z</time></trkpt><trkpt lat="41.375707" lon="1.767369"><ele>223.0</ele><time>2026-04-27T11:02:28.405Z</time></trkpt><trkpt lat="41.3757666" lon="1.767424"><ele>222.5</ele><time>2026-04-27T11:02:29.409Z</time></trkpt><trkpt lat="41.3758287" lon="1.7674764"><ele>222.0</ele><time>2026-04-27T11:02:30.407Z</time></trkpt><trkpt lat="41.3758943" lon="1.767525"><ele>222.0</ele><time>2026-04-27T11:02:31.406Z</time></trkpt><trkpt lat="41.3759607" lon="1.7675746"><ele>222.0</ele><time>2026-04-27T11:02:32.406Z</time></trkpt><trkpt lat="41.3760216" lon="1.7676244"><ele>222.0</ele><time>2026-04-27T11:02:33.404Z</time></trkpt><trkpt lat="41.3760789" lon="1.7676607"><ele>222.0</ele><time>2026-04-27T11:02:34.403Z</time></trkpt><trkpt lat="41.3761479" lon="1.767703"><ele>222.0</ele><time>2026-04-27T11:02:36.404Z</time></trkpt><trkpt lat="41.3761713" lon="1.767786"><ele>222.0</ele><time>2026-04-27T11:03:29.409Z</time></trkpt><trkpt lat="41.3762084" lon="1.7678556"><ele>222.0</ele><time>2026-04-27T11:03:30.413Z</time></trkpt><trkpt lat="41.3762559" lon="1.7679174"><ele>221.39999999999998</ele><time>2026-04-27T11:03:31.409Z</time></trkpt><trkpt lat="41.3763116" lon="1.7679743"><ele>220.79999999999998</ele><time>2026-04-27T11:03:32.413Z</time></trkpt><trkpt lat="41.3763866" lon="1.768013"><ele>220.2</ele><time>2026-04-27T11:03:33.417Z</time></trkpt><trkpt lat="41.3764751" lon="1.7680288"><ele>219.6</ele><time>2026-04-27T11:03:34.411Z</time></trkpt><trkpt lat="41.3765766" lon="1.7680245"><ele>219.0</ele><time>2026-04-27T11:03:35.407Z</time></trkpt><trkpt lat="41.3766836" lon="1.7680032"><ele>218.25</ele><time>2026-04-27T11:03:36.406Z</time></trkpt><trkpt lat="41.3768014" lon="1.7679907"><ele>217.5</ele><time>2026-04-27T11:03:37.398Z</time></trkpt><trkpt lat="41.3769248" lon="1.7679927"><ele>216.75</ele><time>2026-04-27T11:03:38.401Z</time></trkpt><trkpt lat="41.3770506" lon="1.7680158"><ele>216.0</ele><time>2026-04-27T11:03:39.405Z</time></trkpt><trkpt lat="41.3771712" lon="1.7680478"><ele>215.25</ele><time>2026-04-27T11:03:40.408Z</time></trkpt><trkpt lat="41.3772878" lon="1.7681033"><ele>214.5</ele><time>2026-04-27T11:03:41.399Z</time></trkpt><trkpt lat="41.3773947" lon="1.768177"><ele>213.75</ele><time>2026-04-27T11:03:42.405Z</time></trkpt><trkpt lat="41.3774934" lon="1.7682589"><ele>213.0</ele><time>2026-04-27T11:03:43.399Z</time></trkpt><trkpt lat="41.3775833" lon="1.7683252"><ele>213.0</ele><time>2026-04-27T11:03:44.426Z</time></trkpt><trkpt lat="41.3776546" lon="1.768359"><ele>213.0</ele><time>2026-04-27T11:03:45.407Z</time></trkpt><trkpt lat="41.3777225" lon="1.7683628"><ele>213.0</ele><time>2026-04-27T11:03:46.406Z</time></trkpt><trkpt lat="41.3778189" lon="1.768315"><ele>213.0</ele><time>2026-04-27T11:03:48.4Z</time></trkpt><trkpt lat="41.3779132" lon="1.7682616"><ele>213.0</ele><time>2026-04-27T11:03:50.405Z</time></trkpt><trkpt lat="41.3780102" lon="1.7681746"><ele>213.0</ele><time>2026-04-27T11:03:52.4Z</time></trkpt><trkpt lat="41.3780961" lon="1.7680617"><ele>213.0</ele><time>2026-04-27T11:03:54.391Z</time></trkpt><trkpt lat="41.3781417" lon="1.7679945"><ele>213.0</ele><time>2026-04-27T11:03:55.39Z</time></trkpt><trkpt lat="41.3781884" lon="1.7679279"><ele>213.0</ele><time>2026-04-27T11:03:56.393Z</time></trkpt><trkpt lat="41.3783011" lon="1.767841"><ele>213.0</ele><time>2026-04-27T11:03:58.408Z</time></trkpt><trkpt lat="41.3783617" lon="1.7677795"><ele>213.0</ele><time>2026-04-27T11:03:59.406Z</time></trkpt><trkpt lat="41.3784242" lon="1.7677009"><ele>213.0</ele><time>2026-04-27T11:04:00.399Z</time></trkpt><trkpt lat="41.3784751" lon="1.7676044"><ele>213.0</ele><time>2026-04-27T11:04:01.402Z</time></trkpt><trkpt lat="41.3785162" lon="1.7674936"><ele>213.0</ele><time>2026-04-27T11:04:02.404Z</time></trkpt><trkpt lat="41.3785458" lon="1.7673765"><ele>213.0</ele><time>2026-04-27T11:04:03.407Z</time></trkpt><trkpt lat="41.3785703" lon="1.7672625"><ele>213.0</ele><time>2026-04-27T11:04:04.408Z</time></trkpt><trkpt lat="41.3785949" lon="1.7671465"><ele>214.0</ele><time>2026-04-27T11:04:05.405Z</time></trkpt><trkpt lat="41.3786257" lon="1.7670288"><ele>215.0</ele><time>2026-04-27T11:04:06.413Z</time></trkpt><trkpt lat="41.3786601" lon="1.7669138"><ele>216.0</ele><time>2026-04-27T11:04:07.409Z</time></trkpt><trkpt lat="41.3787039" lon="1.7667982"><ele>217.0</ele><time>2026-04-27T11:04:08.405Z</time></trkpt><trkpt lat="41.3787555" lon="1.766676"><ele>218.0</ele><time>2026-04-27T11:04:09.407Z</time></trkpt><trkpt lat="41.3788125" lon="1.7665549"><ele>217.4</ele><time>2026-04-27T11:04:10.416Z</time></trkpt><trkpt lat="41.3788724" lon="1.7664448"><ele>216.8</ele><time>2026-04-27T11:04:11.408Z</time></trkpt><trkpt lat="41.37893" lon="1.7663302"><ele>216.2</ele><time>2026-04-27T11:04:12.403Z</time></trkpt><trkpt lat="41.3789874" lon="1.7662226"><ele>215.6</ele><time>2026-04-27T11:04:13.407Z</time></trkpt><trkpt lat="41.3790371" lon="1.766115"><ele>215.0</ele><time>2026-04-27T11:04:14.408Z</time></trkpt><trkpt lat="41.3790807" lon="1.766014"><ele>215.00000000000003</ele><time>2026-04-27T11:04:15.431Z</time></trkpt><trkpt lat="41.3791201" lon="1.7659173"><ele>215.0</ele><time>2026-04-27T11:04:16.406Z</time></trkpt><trkpt lat="41.379156" lon="1.7658251"><ele>215.0</ele><time>2026-04-27T11:04:17.406Z</time></trkpt><trkpt lat="41.3791929" lon="1.7657389"><ele>215.0</ele><time>2026-04-27T11:04:18.407Z</time></trkpt><trkpt lat="41.3792321" lon="1.7656526"><ele>215.00000000000003</ele><time>2026-04-27T11:04:19.408Z</time></trkpt><trkpt lat="41.3792717" lon="1.7655645"><ele>215.0</ele><time>2026-04-27T11:04:20.407Z</time></trkpt><trkpt lat="41.3793104" lon="1.7654768"><ele>215.00000000000003</ele><time>2026-04-27T11:04:21.404Z</time></trkpt><trkpt lat="41.3793427" lon="1.7653831"><ele>215.0</ele><time>2026-04-27T11:04:22.408Z</time></trkpt><trkpt lat="41.3793762" lon="1.7652815"><ele>215.0</ele><time>2026-04-27T11:04:23.406Z</time></trkpt><trkpt lat="41.3794103" lon="1.765175"><ele>215.0</ele><time>2026-04-27T11:04:24.414Z</time></trkpt><trkpt lat="41.3794446" lon="1.7650678"><ele>215.00000000000003</ele><time>2026-04-27T11:04:25.41Z</time></trkpt><trkpt lat="41.3794772" lon="1.7649589"><ele>215.0</ele><time>2026-04-27T11:04:26.409Z</time></trkpt><trkpt lat="41.3795051" lon="1.7648452"><ele>215.6</ele><time>2026-04-27T11:04:27.409Z</time></trkpt><trkpt lat="41.3795337" lon="1.764728"><ele>216.2</ele><time>2026-04-27T11:04:28.408Z</time></trkpt><trkpt lat="41.3795658" lon="1.7646099"><ele>216.8</ele><time>2026-04-27T11:04:29.41Z</time></trkpt><trkpt lat="41.3795985" lon="1.7644906"><ele>217.4</ele><time>2026-04-27T11:04:30.404Z</time></trkpt><trkpt lat="41.3796349" lon="1.7643711"><ele>218.0</ele><time>2026-04-27T11:04:31.404Z</time></trkpt><trkpt lat="41.3796737" lon="1.7642628"><ele>217.50000000000003</ele><time>2026-04-27T11:04:32.406Z</time></trkpt><trkpt lat="41.3797198" lon="1.7641648"><ele>217.0</ele><time>2026-04-27T11:04:33.404Z</time></trkpt><trkpt lat="41.3797649" lon="1.7640607"><ele>216.5</ele><time>2026-04-27T11:04:34.408Z</time></trkpt><trkpt lat="41.379807" lon="1.7639601"><ele>216.0</ele><time>2026-04-27T11:04:35.408Z</time></trkpt><trkpt lat="41.3798443" lon="1.7638683"><ele>215.50000000000003</ele><time>2026-04-27T11:04:36.404Z</time></trkpt><trkpt lat="41.3798744" lon="1.7637899"><ele>215.0</ele><time>2026-04-27T11:04:37.399Z</time></trkpt><trkpt lat="41.3799122" lon="1.7636676"><ele>215.00000000000003</ele><time>2026-04-27T11:04:39.402Z</time></trkpt><trkpt lat="41.3799278" lon="1.7635802"><ele>215.0</ele><time>2026-04-27T11:04:41.407Z</time></trkpt><trkpt lat="41.3799969" lon="1.7635987"><ele>215.0</ele><time>2026-04-27T11:04:45.409Z</time></trkpt><trkpt lat="41.3800568" lon="1.7636535"><ele>215.0</ele><time>2026-04-27T11:04:48.389Z</time></trkpt><trkpt lat="41.3800622" lon="1.7637727"><ele>215.00000000000003</ele><time>2026-04-27T11:05:11.382Z</time></trkpt><trkpt lat="41.380109" lon="1.7639171"><ele>215.0</ele><time>2026-04-27T11:05:13.388Z</time></trkpt><trkpt lat="41.3801436" lon="1.7639907"><ele>215.0</ele><time>2026-04-27T11:05:14.39Z</time></trkpt><trkpt lat="41.3801776" lon="1.7640774"><ele>215.0</ele><time>2026-04-27T11:05:15.395Z</time></trkpt><trkpt lat="41.3802139" lon="1.7641611"><ele>215.0</ele><time>2026-04-27T11:05:16.405Z</time></trkpt><trkpt lat="41.38025" lon="1.7642479"><ele>215.0</ele><time>2026-04-27T11:05:17.394Z</time></trkpt><trkpt lat="41.3802826" lon="1.764337"><ele>215.0</ele><time>2026-04-27T11:05:18.391Z</time></trkpt><trkpt lat="41.3803147" lon="1.7644246"><ele>215.0</ele><time>2026-04-27T11:05:19.395Z</time></trkpt><trkpt lat="41.3803425" lon="1.76451"><ele>215.0</ele><time>2026-04-27T11:05:20.392Z</time></trkpt><trkpt lat="41.3803681" lon="1.7645918"><ele>215.0</ele><time>2026-04-27T11:05:21.393Z</time></trkpt><trkpt lat="41.3804162" lon="1.7647376"><ele>215.0</ele><time>2026-04-27T11:05:23.393Z</time></trkpt><trkpt lat="41.3804524" lon="1.7648595"><ele>215.0</ele><time>2026-04-27T11:05:25.393Z</time></trkpt><trkpt lat="41.3804772" lon="1.7649446"><ele>215.0</ele><time>2026-04-27T11:05:27.397Z</time></trkpt><trkpt lat="41.3805129" lon="1.7650449"><ele>215.0</ele><time>2026-04-27T11:05:52.394Z</time></trkpt><trkpt lat="41.3805621" lon="1.7652039"><ele>215.00000000000003</ele><time>2026-04-27T11:05:54.381Z</time></trkpt><trkpt lat="41.3805948" lon="1.7652878"><ele>215.0</ele><time>2026-04-27T11:05:55.389Z</time></trkpt><trkpt lat="41.3806393" lon="1.7653765"><ele>215.0</ele><time>2026-04-27T11:05:56.39Z</time></trkpt><trkpt lat="41.3807012" lon="1.7654531"><ele>215.0</ele><time>2026-04-27T11:05:57.394Z</time></trkpt><trkpt lat="41.3807784" lon="1.7655098"><ele>215.00000000000003</ele><time>2026-04-27T11:05:58.39Z</time></trkpt><trkpt lat="41.380861" lon="1.7655391"><ele>215.0</ele><time>2026-04-27T11:05:59.389Z</time></trkpt><trkpt lat="41.3809407" lon="1.7655454"><ele>215.00000000000003</ele><time>2026-04-27T11:06:00.387Z</time></trkpt><trkpt lat="41.3810222" lon="1.7655485"><ele>215.0</ele><time>2026-04-27T11:06:01.389Z</time></trkpt><trkpt lat="41.3810991" lon="1.7655539"><ele>215.0</ele><time>2026-04-27T11:06:02.382Z</time></trkpt><trkpt lat="41.3811682" lon="1.7655747"><ele>215.0</ele><time>2026-04-27T11:06:03.378Z</time></trkpt><trkpt lat="41.3812338" lon="1.7656191"><ele>215.00000000000003</ele><time>2026-04-27T11:06:04.377Z</time></trkpt><trkpt lat="41.381297" lon="1.7656796"><ele>215.0</ele><time>2026-04-27T11:06:05.378Z</time></trkpt><trkpt lat="41.3813614" lon="1.7657523"><ele>214.4</ele><time>2026-04-27T11:06:06.381Z</time></trkpt><trkpt lat="41.3814257" lon="1.7658435"><ele>213.8</ele><time>2026-04-27T11:06:07.387Z</time></trkpt><trkpt lat="41.3814983" lon="1.7659312"><ele>213.2</ele><time>2026-04-27T11:06:08.388Z</time></trkpt><trkpt lat="41.3815719" lon="1.7660249"><ele>212.6</ele><time>2026-04-27T11:06:09.397Z</time></trkpt><trkpt lat="41.3816474" lon="1.7661174"><ele>212.0</ele><time>2026-04-27T11:06:10.392Z</time></trkpt><trkpt lat="41.3817275" lon="1.7662107"><ele>211.5</ele><time>2026-04-27T11:06:11.396Z</time></trkpt><trkpt lat="41.3818108" lon="1.7663048"><ele>211.0</ele><time>2026-04-27T11:06:12.391Z</time></trkpt><trkpt lat="41.3819056" lon="1.7663955"><ele>210.5</ele><time>2026-04-27T11:06:13.398Z</time></trkpt><trkpt lat="41.3820019" lon="1.766485"><ele>210.0</ele><time>2026-04-27T11:06:14.393Z</time></trkpt><trkpt lat="41.3821097" lon="1.7665616"><ele>209.0</ele><time>2026-04-27T11:06:15.396Z</time></trkpt><trkpt lat="41.3822236" lon="1.7666429"><ele>208.0</ele><time>2026-04-27T11:06:16.391Z</time></trkpt><trkpt lat="41.3823393" lon="1.7667269"><ele>207.0</ele><time>2026-04-27T11:06:17.394Z</time></trkpt><trkpt lat="41.3824625" lon="1.766816"><ele>206.0</ele><time>2026-04-27T11:06:18.409Z</time></trkpt><trkpt lat="41.3825877" lon="1.7669055"><ele>205.25</ele><time>2026-04-27T11:06:19.399Z</time></trkpt><trkpt lat="41.3827127" lon="1.7669971"><ele>204.5</ele><time>2026-04-27T11:06:20.394Z</time></trkpt><trkpt lat="41.3828393" lon="1.76709"><ele>203.75</ele><time>2026-04-27T11:06:21.397Z</time></trkpt><trkpt lat="41.3829658" lon="1.7671781"><ele>203.0</ele><time>2026-04-27T11:06:22.395Z</time></trkpt><trkpt lat="41.3830879" lon="1.7672648"><ele>201.33333333333334</ele><time>2026-04-27T11:06:23.394Z</time></trkpt><trkpt lat="41.3832217" lon="1.7673234"><ele>199.66666666666669</ele><time>2026-04-27T11:06:24.388Z</time></trkpt><trkpt lat="41.3833819" lon="1.767363"><ele>198.0</ele><time>2026-04-27T11:06:25.393Z</time></trkpt><trkpt lat="41.3835457" lon="1.7673853"><ele>198.0</ele><time>2026-04-27T11:06:26.395Z</time></trkpt><trkpt lat="41.383711" lon="1.7674008"><ele>198.0</ele><time>2026-04-27T11:06:27.397Z</time></trkpt><trkpt lat="41.3838723" lon="1.7674143"><ele>198.0</ele><time>2026-04-27T11:06:28.393Z</time></trkpt><trkpt lat="41.3840314" lon="1.7674208"><ele>198.0</ele><time>2026-04-27T11:06:29.389Z</time></trkpt><trkpt lat="41.3841914" lon="1.7674443"><ele>198.0</ele><time>2026-04-27T11:06:30.387Z</time></trkpt><trkpt lat="41.3843525" lon="1.7674662"><ele>198.0</ele><time>2026-04-27T11:06:31.392Z</time></trkpt><trkpt lat="41.3845064" lon="1.7674822"><ele>198.0</ele><time>2026-04-27T11:06:32.392Z</time></trkpt><trkpt lat="41.3846586" lon="1.7674931"><ele>198.0</ele><time>2026-04-27T11:06:33.39Z</time></trkpt><trkpt lat="41.3848142" lon="1.7675013"><ele>198.0</ele><time>2026-04-27T11:06:34.387Z</time></trkpt><trkpt lat="41.3849651" lon="1.7674889"><ele>199.66666666666669</ele><time>2026-04-27T11:06:35.391Z</time></trkpt><trkpt lat="41.3851144" lon="1.7674604"><ele>201.33333333333334</ele><time>2026-04-27T11:06:36.39Z</time></trkpt><trkpt lat="41.3852679" lon="1.7674291"><ele>203.0</ele><time>2026-04-27T11:06:37.389Z</time></trkpt><trkpt lat="41.3854316" lon="1.7673913"><ele>206.33333333333334</ele><time>2026-04-27T11:06:38.386Z</time></trkpt><trkpt lat="41.3855832" lon="1.7673222"><ele>209.66666666666669</ele><time>2026-04-27T11:06:39.39Z</time></trkpt><trkpt lat="41.3857226" lon="1.767225"><ele>213.0</ele><time>2026-04-27T11:06:40.379Z</time></trkpt><trkpt lat="41.3858357" lon="1.7670984"><ele>213.0</ele><time>2026-04-27T11:06:41.387Z</time></trkpt><trkpt lat="41.3859199" lon="1.7669514"><ele>213.0</ele><time>2026-04-27T11:06:42.392Z</time></trkpt><trkpt lat="41.3859672" lon="1.7667658"><ele>213.0</ele><time>2026-04-27T11:06:43.392Z</time></trkpt><trkpt lat="41.3859866" lon="1.7665851"><ele>213.0</ele><time>2026-04-27T11:06:44.384Z</time></trkpt><trkpt lat="41.3860195" lon="1.7664167"><ele>212.5</ele><time>2026-04-27T11:06:45.387Z</time></trkpt><trkpt lat="41.386063" lon="1.7662499"><ele>212.0</ele><time>2026-04-27T11:06:46.383Z</time></trkpt><trkpt lat="41.3861391" lon="1.7661258"><ele>211.5</ele><time>2026-04-27T11:06:47.39Z</time></trkpt><trkpt lat="41.3862383" lon="1.7660077"><ele>211.0</ele><time>2026-04-27T11:06:48.386Z</time></trkpt><trkpt lat="41.3863367" lon="1.765886"><ele>213.25</ele><time>2026-04-27T11:06:49.403Z</time></trkpt><trkpt lat="41.3864296" lon="1.7657813"><ele>215.5</ele><time>2026-04-27T11:06:50.39Z</time></trkpt><trkpt lat="41.3865289" lon="1.7656949"><ele>217.75</ele><time>2026-04-27T11:06:51.381Z</time></trkpt><trkpt lat="41.3866385" lon="1.7656441"><ele>220.0</ele><time>2026-04-27T11:06:52.392Z</time></trkpt><trkpt lat="41.3867536" lon="1.7656435"><ele>220.0</ele><time>2026-04-27T11:06:53.389Z</time></trkpt><trkpt lat="41.3868739" lon="1.7656858"><ele>220.0</ele><time>2026-04-27T11:06:54.381Z</time></trkpt><trkpt lat="41.3870019" lon="1.7657292"><ele>220.0</ele><time>2026-04-27T11:06:55.384Z</time></trkpt><trkpt lat="41.3871302" lon="1.7657646"><ele>220.0</ele><time>2026-04-27T11:06:56.385Z</time></trkpt><trkpt lat="41.3872585" lon="1.7658036"><ele>219.75</ele><time>2026-04-27T11:06:57.389Z</time></trkpt><trkpt lat="41.3873905" lon="1.7658435"><ele>219.5</ele><time>2026-04-27T11:06:58.391Z</time></trkpt><trkpt lat="41.3875245" lon="1.7658829"><ele>219.25</ele><time>2026-04-27T11:06:59.394Z</time></trkpt><trkpt lat="41.3876616" lon="1.7659023"><ele>219.0</ele><time>2026-04-27T11:07:00.389Z</time></trkpt><trkpt lat="41.3878055" lon="1.7658993"><ele>219.0</ele><time>2026-04-27T11:07:01.39Z</time></trkpt><trkpt lat="41.3879478" lon="1.7658826"><ele>219.0</ele><time>2026-04-27T11:07:02.386Z</time></trkpt><trkpt lat="41.3880963" lon="1.7658391"><ele>219.0</ele><time>2026-04-27T11:07:03.393Z</time></trkpt><trkpt lat="41.3882395" lon="1.7657849"><ele>219.0</ele><time>2026-04-27T11:07:04.392Z</time></trkpt><trkpt lat="41.3883815" lon="1.7657361"><ele>219.0</ele><time>2026-04-27T11:07:05.394Z</time></trkpt><trkpt lat="41.388529" lon="1.7656944"><ele>219.0</ele><time>2026-04-27T11:07:06.39Z</time></trkpt><trkpt lat="41.3886746" lon="1.7656604"><ele>219.0</ele><time>2026-04-27T11:07:07.397Z</time></trkpt><trkpt lat="41.3888152" lon="1.7656268"><ele>219.0</ele><time>2026-04-27T11:07:08.387Z</time></trkpt><trkpt lat="41.3889679" lon="1.7656088"><ele>219.0</ele><time>2026-04-27T11:07:09.391Z</time></trkpt><trkpt lat="41.3891173" lon="1.7656319"><ele>219.0</ele><time>2026-04-27T11:07:10.384Z</time></trkpt><trkpt lat="41.3892688" lon="1.7656641"><ele>219.0</ele><time>2026-04-27T11:07:11.387Z</time></trkpt><trkpt lat="41.3894162" lon="1.7656934"><ele>219.0</ele><time>2026-04-27T11:07:12.388Z</time></trkpt><trkpt lat="41.3895503" lon="1.7657185"><ele>219.0</ele><time>2026-04-27T11:07:13.391Z</time></trkpt><trkpt lat="41.3896749" lon="1.7657493"><ele>219.0</ele><time>2026-04-27T11:07:14.39Z</time></trkpt><trkpt lat="41.3897814" lon="1.7657743"><ele>219.0</ele><time>2026-04-27T11:07:15.393Z</time></trkpt><trkpt lat="41.3898816" lon="1.7657922"><ele>218.75</ele><time>2026-04-27T11:07:16.393Z</time></trkpt><trkpt lat="41.3899951" lon="1.7658374"><ele>218.5</ele><time>2026-04-27T11:07:17.393Z</time></trkpt><trkpt lat="41.3901038" lon="1.7658846"><ele>218.25</ele><time>2026-04-27T11:07:18.385Z</time></trkpt><trkpt lat="41.390214" lon="1.7659308"><ele>218.0</ele><time>2026-04-27T11:07:19.392Z</time></trkpt><trkpt lat="41.3903237" lon="1.7659681"><ele>218.0</ele><time>2026-04-27T11:07:20.403Z</time></trkpt><trkpt lat="41.3904407" lon="1.7660006"><ele>218.0</ele><time>2026-04-27T11:07:21.382Z</time></trkpt><trkpt lat="41.390561" lon="1.7660259"><ele>218.0</ele><time>2026-04-27T11:07:22.388Z</time></trkpt><trkpt lat="41.3906764" lon="1.7660378"><ele>218.0</ele><time>2026-04-27T11:07:23.388Z</time></trkpt><trkpt lat="41.3908001" lon="1.7660445"><ele>218.75</ele><time>2026-04-27T11:07:24.386Z</time></trkpt><trkpt lat="41.3909281" lon="1.7660467"><ele>219.5</ele><time>2026-04-27T11:07:25.383Z</time></trkpt><trkpt lat="41.3910576" lon="1.7660313"><ele>220.25</ele><time>2026-04-27T11:07:26.383Z</time></trkpt><trkpt lat="41.3911827" lon="1.7660117"><ele>221.0</ele><time>2026-04-27T11:07:27.378Z</time></trkpt><trkpt lat="41.3913133" lon="1.7659798"><ele>219.25</ele><time>2026-04-27T11:07:28.387Z</time></trkpt><trkpt lat="41.391447" lon="1.7659421"><ele>217.5</ele><time>2026-04-27T11:07:29.392Z</time></trkpt><trkpt lat="41.3915774" lon="1.7659044"><ele>215.75</ele><time>2026-04-27T11:07:30.382Z</time></trkpt><trkpt lat="41.3917103" lon="1.7658683"><ele>214.0</ele><time>2026-04-27T11:07:31.389Z</time></trkpt><trkpt lat="41.3918433" lon="1.765839"><ele>214.0</ele><time>2026-04-27T11:07:32.378Z</time></trkpt><trkpt lat="41.3919679" lon="1.7658212"><ele>214.0</ele><time>2026-04-27T11:07:33.389Z</time></trkpt><trkpt lat="41.3920783" lon="1.7658259"><ele>214.0</ele><time>2026-04-27T11:07:34.384Z</time></trkpt><trkpt lat="41.3921966" lon="1.7658508"><ele>214.0</ele><time>2026-04-27T11:07:35.395Z</time></trkpt><trkpt lat="41.3923062" lon="1.7659175"><ele>213.0</ele><time>2026-04-27T11:07:36.39Z</time></trkpt><trkpt lat="41.3924137" lon="1.7659985"><ele>212.0</ele><time>2026-04-27T11:07:37.385Z</time></trkpt><trkpt lat="41.392522" lon="1.7660993"><ele>211.0</ele><time>2026-04-27T11:07:38.383Z</time></trkpt><trkpt lat="41.392622" lon="1.7662087"><ele>210.0</ele><time>2026-04-27T11:07:39.388Z</time></trkpt><trkpt lat="41.3927172" lon="1.7663282"><ele>210.0</ele><time>2026-04-27T11:07:40.383Z</time></trkpt><trkpt lat="41.3928056" lon="1.7664485"><ele>210.0</ele><time>2026-04-27T11:07:41.389Z</time></trkpt><trkpt lat="41.3928885" lon="1.7665825"><ele>210.0</ele><time>2026-04-27T11:07:42.385Z</time></trkpt><trkpt lat="41.3929718" lon="1.7667221"><ele>210.0</ele><time>2026-04-27T11:07:43.392Z</time></trkpt><trkpt lat="41.3930544" lon="1.7668645"><ele>207.0</ele><time>2026-04-27T11:07:44.389Z</time></trkpt><trkpt lat="41.3931369" lon="1.7670061"><ele>204.0</ele><time>2026-04-27T11:07:45.392Z</time></trkpt><trkpt lat="41.3932276" lon="1.7671305"><ele>201.0</ele><time>2026-04-27T11:07:46.383Z</time></trkpt><trkpt lat="41.3933229" lon="1.7672289"><ele>198.0</ele><time>2026-04-27T11:07:47.385Z</time></trkpt><trkpt lat="41.3934303" lon="1.7673049"><ele>198.0</ele><time>2026-04-27T11:07:48.381Z</time></trkpt><trkpt lat="41.3935444" lon="1.7673638"><ele>198.0</ele><time>2026-04-27T11:07:49.39Z</time></trkpt><trkpt lat="41.3936649" lon="1.7674211"><ele>198.0</ele><time>2026-04-27T11:07:50.384Z</time></trkpt><trkpt lat="41.3937799" lon="1.7674895"><ele>198.0</ele><time>2026-04-27T11:07:51.398Z</time></trkpt><trkpt lat="41.393901" lon="1.767578"><ele>197.0</ele><time>2026-04-27T11:07:52.388Z</time></trkpt><trkpt lat="41.394011" lon="1.7676881"><ele>196.0</ele><time>2026-04-27T11:07:53.393Z</time></trkpt><trkpt lat="41.3941088" lon="1.7678164"><ele>195.0</ele><time>2026-04-27T11:07:54.386Z</time></trkpt><trkpt lat="41.3941978" lon="1.7679551"><ele>194.0</ele><time>2026-04-27T11:07:55.39Z</time></trkpt><trkpt lat="41.3942726" lon="1.768104"><ele>194.0</ele><time>2026-04-27T11:07:56.385Z</time></trkpt><trkpt lat="41.3943238" lon="1.7682728"><ele>194.0</ele><time>2026-04-27T11:07:57.394Z</time></trkpt><trkpt lat="41.39437" lon="1.7684412"><ele>194.0</ele><time>2026-04-27T11:07:58.391Z</time></trkpt><trkpt lat="41.3944101" lon="1.7686141"><ele>194.0</ele><time>2026-04-27T11:07:59.395Z</time></trkpt><trkpt lat="41.3944493" lon="1.7687909"><ele>194.25</ele><time>2026-04-27T11:08:00.391Z</time></trkpt><trkpt lat="41.3944843" lon="1.7689639"><ele>194.5</ele><time>2026-04-27T11:08:01.392Z</time></trkpt><trkpt lat="41.3945203" lon="1.7691311"><ele>194.75</ele><time>2026-04-27T11:08:02.393Z</time></trkpt><trkpt lat="41.3945447" lon="1.7693001"><ele>195.0</ele><time>2026-04-27T11:08:03.389Z</time></trkpt><trkpt lat="41.3945675" lon="1.7694515"><ele>195.16666666666666</ele><time>2026-04-27T11:08:04.389Z</time></trkpt><trkpt lat="41.3945913" lon="1.7695732"><ele>195.33333333333331</ele><time>2026-04-27T11:08:05.389Z</time></trkpt><trkpt lat="41.3946009" lon="1.7696902"><ele>195.5</ele><time>2026-04-27T11:08:06.396Z</time></trkpt><trkpt lat="41.394608" lon="1.7697869"><ele>195.66666666666666</ele><time>2026-04-27T11:08:07.392Z</time></trkpt><trkpt lat="41.3946192" lon="1.7698814"><ele>195.83333333333331</ele><time>2026-04-27T11:08:08.396Z</time></trkpt><trkpt lat="41.3946385" lon="1.7699738"><ele>196.0</ele><time>2026-04-27T11:08:09.395Z</time></trkpt><trkpt lat="41.3946586" lon="1.7700559"><ele>194.60000000000002</ele><time>2026-04-27T11:08:10.39Z</time></trkpt><trkpt lat="41.394703" lon="1.77021"><ele>193.2</ele><time>2026-04-27T11:08:12.393Z</time></trkpt><trkpt lat="41.3947682" lon="1.7703191"><ele>191.8</ele><time>2026-04-27T11:08:14.396Z</time></trkpt><trkpt lat="41.3949033" lon="1.7703318"><ele>190.39999999999998</ele><time>2026-04-27T11:08:16.387Z</time></trkpt><trkpt lat="41.394971" lon="1.7702872"><ele>189.0</ele><time>2026-04-27T11:08:17.386Z</time></trkpt><trkpt lat="41.3950051" lon="1.7702127"><ele>189.0</ele><time>2026-04-27T11:08:18.393Z</time></trkpt><trkpt lat="41.3950328" lon="1.7701161"><ele>189.0</ele><time>2026-04-27T11:08:19.386Z</time></trkpt><trkpt lat="41.395069" lon="1.7699842"><ele>189.0</ele><time>2026-04-27T11:08:20.377Z</time></trkpt><trkpt lat="41.395115" lon="1.769872"><ele>189.0</ele><time>2026-04-27T11:08:21.379Z</time></trkpt><trkpt lat="41.3951699" lon="1.7697484"><ele>189.0</ele><time>2026-04-27T11:08:22.392Z</time></trkpt><trkpt lat="41.39525" lon="1.7696131"><ele>189.0</ele><time>2026-04-27T11:08:23.373Z</time></trkpt><trkpt lat="41.3953666" lon="1.7694455"><ele>189.0</ele><time>2026-04-27T11:08:24.371Z</time></trkpt><trkpt lat="41.3954616" lon="1.7692919"><ele>189.0</ele><time>2026-04-27T11:08:25.377Z</time></trkpt><trkpt lat="41.3955489" lon="1.7691503"><ele>188.0</ele><time>2026-04-27T11:08:26.382Z</time></trkpt><trkpt lat="41.3956319" lon="1.7690152"><ele>187.0</ele><time>2026-04-27T11:08:27.388Z</time></trkpt><trkpt lat="41.395719" lon="1.7688686"><ele>186.0</ele><time>2026-04-27T11:08:28.39Z</time></trkpt><trkpt lat="41.3958088" lon="1.7687202"><ele>185.0</ele><time>2026-04-27T11:08:29.383Z</time></trkpt><trkpt lat="41.3959075" lon="1.7685591"><ele>185.0</ele><time>2026-04-27T11:08:30.38Z</time></trkpt><trkpt lat="41.3960019" lon="1.7684078"><ele>185.0</ele><time>2026-04-27T11:08:31.381Z</time></trkpt><trkpt lat="41.3960868" lon="1.7682574"><ele>185.0</ele><time>2026-04-27T11:08:32.376Z</time></trkpt><trkpt lat="41.396171" lon="1.7681226"><ele>185.0</ele><time>2026-04-27T11:08:33.38Z</time></trkpt><trkpt lat="41.3962742" lon="1.7679866"><ele>183.0</ele><time>2026-04-27T11:08:34.378Z</time></trkpt><trkpt lat="41.3963879" lon="1.7678774"><ele>181.0</ele><time>2026-04-27T11:08:35.383Z</time></trkpt><trkpt lat="41.3965172" lon="1.7677809"><ele>179.0</ele><time>2026-04-27T11:08:36.38Z</time></trkpt><trkpt lat="41.396648" lon="1.7676988"><ele>177.0</ele><time>2026-04-27T11:08:37.378Z</time></trkpt><trkpt lat="41.3967844" lon="1.7676112"><ele>176.75</ele><time>2026-04-27T11:08:38.377Z</time></trkpt><trkpt lat="41.3969179" lon="1.7675485"><ele>176.5</ele><time>2026-04-27T11:08:39.384Z</time></trkpt><trkpt lat="41.397059" lon="1.7674953"><ele>176.25</ele><time>2026-04-27T11:08:40.387Z</time></trkpt><trkpt lat="41.3971926" lon="1.7674374"><ele>176.0</ele><time>2026-04-27T11:08:41.393Z</time></trkpt><trkpt lat="41.397326" lon="1.7673958"><ele>174.75</ele><time>2026-04-27T11:08:42.389Z</time></trkpt><trkpt lat="41.3974678" lon="1.7673579"><ele>173.5</ele><time>2026-04-27T11:08:43.388Z</time></trkpt><trkpt lat="41.3976051" lon="1.7673344"><ele>172.25</ele><time>2026-04-27T11:08:44.384Z</time></trkpt><trkpt lat="41.397751" lon="1.7673065"><ele>171.0</ele><time>2026-04-27T11:08:45.387Z</time></trkpt><trkpt lat="41.3978902" lon="1.7673063"><ele>170.5</ele><time>2026-04-27T11:08:46.384Z</time></trkpt><trkpt lat="41.3980279" lon="1.7673384"><ele>170.0</ele><time>2026-04-27T11:08:47.397Z</time></trkpt><trkpt lat="41.3981565" lon="1.7673846"><ele>169.5</ele><time>2026-04-27T11:08:48.385Z</time></trkpt><trkpt lat="41.3982784" lon="1.7674418"><ele>169.0</ele><time>2026-04-27T11:08:49.386Z</time></trkpt><trkpt lat="41.3984002" lon="1.7674881"><ele>169.0</ele><time>2026-04-27T11:08:50.378Z</time></trkpt><trkpt lat="41.3985329" lon="1.7674964"><ele>169.0</ele><time>2026-04-27T11:08:51.39Z</time></trkpt><trkpt lat="41.3986792" lon="1.7674692"><ele>169.0</ele><time>2026-04-27T11:08:52.382Z</time></trkpt><trkpt lat="41.3988216" lon="1.7674383"><ele>169.0</ele><time>2026-04-27T11:08:53.396Z</time></trkpt><trkpt lat="41.3989658" lon="1.7674026"><ele>166.66666666666669</ele><time>2026-04-27T11:08:54.384Z</time></trkpt><trkpt lat="41.3991216" lon="1.7673639"><ele>164.33333333333334</ele><time>2026-04-27T11:08:55.385Z</time></trkpt><trkpt lat="41.399279" lon="1.7673325"><ele>162.0</ele><time>2026-04-27T11:08:56.388Z</time></trkpt><trkpt lat="41.3994341" lon="1.7673054"><ele>162.0</ele><time>2026-04-27T11:08:57.389Z</time></trkpt><trkpt lat="41.3995882" lon="1.7672806"><ele>162.0</ele><time>2026-04-27T11:08:58.397Z</time></trkpt><trkpt lat="41.3997366" lon="1.7672504"><ele>162.0</ele><time>2026-04-27T11:08:59.399Z</time></trkpt><trkpt lat="41.3998835" lon="1.7672159"><ele>160.25</ele><time>2026-04-27T11:09:00.394Z</time></trkpt><trkpt lat="41.4000431" lon="1.7671849"><ele>158.5</ele><time>2026-04-27T11:09:01.392Z</time></trkpt><trkpt lat="41.4001852" lon="1.767172"><ele>156.75</ele><time>2026-04-27T11:09:02.397Z</time></trkpt><trkpt lat="41.4003283" lon="1.7671571"><ele>155.0</ele><time>2026-04-27T11:09:03.394Z</time></trkpt><trkpt lat="41.4004758" lon="1.76716"><ele>156.25</ele><time>2026-04-27T11:09:04.4Z</time></trkpt><trkpt lat="41.4006264" lon="1.7671878"><ele>157.5</ele><time>2026-04-27T11:09:05.396Z</time></trkpt><trkpt lat="41.4007611" lon="1.767232"><ele>158.75</ele><time>2026-04-27T11:09:06.398Z</time></trkpt><trkpt lat="41.4008899" lon="1.7673099"><ele>160.0</ele><time>2026-04-27T11:09:07.389Z</time></trkpt><trkpt lat="41.4010077" lon="1.7674297"><ele>160.0</ele><time>2026-04-27T11:09:08.399Z</time></trkpt><trkpt lat="41.4011132" lon="1.7675666"><ele>160.0</ele><time>2026-04-27T11:09:09.391Z</time></trkpt><trkpt lat="41.4012271" lon="1.7676888"><ele>160.0</ele><time>2026-04-27T11:09:10.398Z</time></trkpt><trkpt lat="41.4013413" lon="1.7678101"><ele>160.0</ele><time>2026-04-27T11:09:11.398Z</time></trkpt><trkpt lat="41.4014626" lon="1.7679064"><ele>162.0</ele><time>2026-04-27T11:09:12.394Z</time></trkpt><trkpt lat="41.4015835" lon="1.767972"><ele>164.0</ele><time>2026-04-27T11:09:13.402Z</time></trkpt><trkpt lat="41.4017159" lon="1.7679929"><ele>166.0</ele><time>2026-04-27T11:09:14.399Z</time></trkpt><trkpt lat="41.401853" lon="1.7679638"><ele>168.0</ele><time>2026-04-27T11:09:15.401Z</time></trkpt><trkpt lat="41.4019785" lon="1.7679052"><ele>168.0</ele><time>2026-04-27T11:09:16.396Z</time></trkpt><trkpt lat="41.4021018" lon="1.7678148"><ele>168.0</ele><time>2026-04-27T11:09:17.396Z</time></trkpt><trkpt lat="41.4022011" lon="1.767707"><ele>168.0</ele><time>2026-04-27T11:09:18.387Z</time></trkpt><trkpt lat="41.4023022" lon="1.7675898"><ele>168.0</ele><time>2026-04-27T11:09:19.398Z</time></trkpt><trkpt lat="41.4024013" lon="1.7674736"><ele>169.25</ele><time>2026-04-27T11:09:20.391Z</time></trkpt><trkpt lat="41.4024984" lon="1.7673573"><ele>170.5</ele><time>2026-04-27T11:09:21.396Z</time></trkpt><trkpt lat="41.4025953" lon="1.7672368"><ele>171.75</ele><time>2026-04-27T11:09:22.381Z</time></trkpt><trkpt lat="41.4026959" lon="1.7671133"><ele>173.0</ele><time>2026-04-27T11:09:23.382Z</time></trkpt><trkpt lat="41.4027935" lon="1.7669935"><ele>173.0</ele><time>2026-04-27T11:09:24.384Z</time></trkpt><trkpt lat="41.4028817" lon="1.7668678"><ele>173.0</ele><time>2026-04-27T11:09:25.373Z</time></trkpt><trkpt lat="41.4029682" lon="1.7667436"><ele>173.0</ele><time>2026-04-27T11:09:26.378Z</time></trkpt><trkpt lat="41.4030546" lon="1.7666111"><ele>173.0</ele><time>2026-04-27T11:09:27.384Z</time></trkpt><trkpt lat="41.403128" lon="1.7664562"><ele>173.0</ele><time>2026-04-27T11:09:28.382Z</time></trkpt><trkpt lat="41.4031982" lon="1.7662824"><ele>173.0</ele><time>2026-04-27T11:09:29.391Z</time></trkpt><trkpt lat="41.4032655" lon="1.7661118"><ele>173.0</ele><time>2026-04-27T11:09:30.388Z</time></trkpt><trkpt lat="41.4033361" lon="1.7659303"><ele>173.0</ele><time>2026-04-27T11:09:31.385Z</time></trkpt><trkpt lat="41.4033941" lon="1.76575"><ele>173.75</ele><time>2026-04-27T11:09:32.38Z</time></trkpt><trkpt lat="41.4034474" lon="1.7655708"><ele>174.5</ele><time>2026-04-27T11:09:33.393Z</time></trkpt><trkpt lat="41.4035085" lon="1.7654075"><ele>175.25</ele><time>2026-04-27T11:09:34.394Z</time></trkpt><trkpt lat="41.4035752" lon="1.7652475"><ele>176.0</ele><time>2026-04-27T11:09:35.394Z</time></trkpt><trkpt lat="41.4036417" lon="1.7650704"><ele>176.5</ele><time>2026-04-27T11:09:36.393Z</time></trkpt><trkpt lat="41.4037017" lon="1.764905"><ele>177.0</ele><time>2026-04-27T11:09:37.393Z</time></trkpt><trkpt lat="41.4037453" lon="1.7647529"><ele>177.5</ele><time>2026-04-27T11:09:38.39Z</time></trkpt><trkpt lat="41.4038063" lon="1.7645888"><ele>178.0</ele><time>2026-04-27T11:09:39.392Z</time></trkpt><trkpt lat="41.4038662" lon="1.7644134"><ele>179.25</ele><time>2026-04-27T11:09:40.394Z</time></trkpt><trkpt lat="41.4039178" lon="1.7642459"><ele>180.5</ele><time>2026-04-27T11:09:41.39Z</time></trkpt><trkpt lat="41.4039766" lon="1.7640731"><ele>181.75</ele><time>2026-04-27T11:09:42.395Z</time></trkpt><trkpt lat="41.4040272" lon="1.7638999"><ele>183.0</ele><time>2026-04-27T11:09:43.395Z</time></trkpt><trkpt lat="41.404079" lon="1.7637272"><ele>183.0</ele><time>2026-04-27T11:09:44.391Z</time></trkpt><trkpt lat="41.4041338" lon="1.7635498"><ele>183.0</ele><time>2026-04-27T11:09:45.399Z</time></trkpt><trkpt lat="41.4041867" lon="1.7633762"><ele>183.0</ele><time>2026-04-27T11:09:46.39Z</time></trkpt><trkpt lat="41.40425" lon="1.7632045"><ele>183.0</ele><time>2026-04-27T11:09:47.389Z</time></trkpt><trkpt lat="41.4043157" lon="1.7630328"><ele>183.5</ele><time>2026-04-27T11:09:48.392Z</time></trkpt><trkpt lat="41.4043739" lon="1.7628656"><ele>184.0</ele><time>2026-04-27T11:09:49.394Z</time></trkpt><trkpt lat="41.404428" lon="1.7626887"><ele>184.5</ele><time>2026-04-27T11:09:50.391Z</time></trkpt><trkpt lat="41.4044935" lon="1.7625133"><ele>185.0</ele><time>2026-04-27T11:09:51.391Z</time></trkpt><trkpt lat="41.4045611" lon="1.7623537"><ele>185.5</ele><time>2026-04-27T11:09:52.392Z</time></trkpt><trkpt lat="41.4046274" lon="1.7621804"><ele>186.0</ele><time>2026-04-27T11:09:53.392Z</time></trkpt><trkpt lat="41.4047079" lon="1.7620225"><ele>186.5</ele><time>2026-04-27T11:09:54.385Z</time></trkpt><trkpt lat="41.4048001" lon="1.7618665"><ele>187.0</ele><time>2026-04-27T11:09:55.405Z</time></trkpt><trkpt lat="41.4048913" lon="1.761724"><ele>188.25</ele><time>2026-04-27T11:09:56.388Z</time></trkpt><trkpt lat="41.4049856" lon="1.7615867"><ele>189.5</ele><time>2026-04-27T11:09:57.39Z</time></trkpt><trkpt lat="41.4050753" lon="1.7614352"><ele>190.75</ele><time>2026-04-27T11:09:58.385Z</time></trkpt><trkpt lat="41.4051745" lon="1.7612746"><ele>192.0</ele><time>2026-04-27T11:09:59.385Z</time></trkpt><trkpt lat="41.4052645" lon="1.7611371"><ele>192.25</ele><time>2026-04-27T11:10:00.39Z</time></trkpt><trkpt lat="41.4053567" lon="1.7609829"><ele>192.5</ele><time>2026-04-27T11:10:01.39Z</time></trkpt><trkpt lat="41.4054388" lon="1.7608401"><ele>192.75</ele><time>2026-04-27T11:10:02.389Z</time></trkpt><trkpt lat="41.4055262" lon="1.7607056"><ele>193.0</ele><time>2026-04-27T11:10:03.393Z</time></trkpt><trkpt lat="41.4056083" lon="1.760582"><ele>193.0</ele><time>2026-04-27T11:10:04.379Z</time></trkpt><trkpt lat="41.4056994" lon="1.7604748"><ele>193.0</ele><time>2026-04-27T11:10:05.385Z</time></trkpt><trkpt lat="41.4058041" lon="1.7603671"><ele>193.0</ele><time>2026-04-27T11:10:06.384Z</time></trkpt><trkpt lat="41.4059197" lon="1.7602761"><ele>193.0</ele><time>2026-04-27T11:10:07.389Z</time></trkpt><trkpt lat="41.4060418" lon="1.7602067"><ele>193.25</ele><time>2026-04-27T11:10:08.385Z</time></trkpt><trkpt lat="41.4061645" lon="1.7601261"><ele>193.5</ele><time>2026-04-27T11:10:09.396Z</time></trkpt><trkpt lat="41.4062832" lon="1.7600551"><ele>193.75</ele><time>2026-04-27T11:10:10.385Z</time></trkpt><trkpt lat="41.4064067" lon="1.7599679"><ele>194.0</ele><time>2026-04-27T11:10:11.394Z</time></trkpt><trkpt lat="41.4065172" lon="1.7598781"><ele>194.0</ele><time>2026-04-27T11:10:12.387Z</time></trkpt><trkpt lat="41.4066301" lon="1.7597887"><ele>194.0</ele><time>2026-04-27T11:10:13.391Z</time></trkpt><trkpt lat="41.4067464" lon="1.75969"><ele>194.0</ele><time>2026-04-27T11:10:14.385Z</time></trkpt><trkpt lat="41.4068585" lon="1.7595895"><ele>194.0</ele><time>2026-04-27T11:10:15.382Z</time></trkpt><trkpt lat="41.4069781" lon="1.7594905"><ele>194.0</ele><time>2026-04-27T11:10:16.388Z</time></trkpt><trkpt lat="41.4070962" lon="1.7593902"><ele>194.0</ele><time>2026-04-27T11:10:17.39Z</time></trkpt><trkpt lat="41.407213" lon="1.7592884"><ele>194.0</ele><time>2026-04-27T11:10:18.387Z</time></trkpt><trkpt lat="41.4073377" lon="1.759199"><ele>194.0</ele><time>2026-04-27T11:10:19.389Z</time></trkpt><trkpt lat="41.4074591" lon="1.7591094"><ele>193.5</ele><time>2026-04-27T11:10:20.394Z</time></trkpt><trkpt lat="41.4075817" lon="1.7590227"><ele>193.0</ele><time>2026-04-27T11:10:21.392Z</time></trkpt><trkpt lat="41.4076876" lon="1.7589456"><ele>192.5</ele><time>2026-04-27T11:10:22.391Z</time></trkpt><trkpt lat="41.407785" lon="1.7588487"><ele>192.0</ele><time>2026-04-27T11:10:23.381Z</time></trkpt><trkpt lat="41.4078732" lon="1.758733"><ele>192.0</ele><time>2026-04-27T11:10:24.381Z</time></trkpt><trkpt lat="41.4079358" lon="1.7585917"><ele>192.0</ele><time>2026-04-27T11:10:25.391Z</time></trkpt><trkpt lat="41.4079486" lon="1.7584435"><ele>192.0</ele><time>2026-04-27T11:10:26.399Z</time></trkpt><trkpt lat="41.4079604" lon="1.7583013"><ele>192.0</ele><time>2026-04-27T11:10:27.394Z</time></trkpt><trkpt lat="41.4079738" lon="1.7581745"><ele>192.0</ele><time>2026-04-27T11:10:28.39Z</time></trkpt><trkpt lat="41.4079988" lon="1.7580702"><ele>192.0</ele><time>2026-04-27T11:10:29.389Z</time></trkpt><trkpt lat="41.408026" lon="1.7579829"><ele>192.0</ele><time>2026-04-27T11:10:30.393Z</time></trkpt><trkpt lat="41.4080722" lon="1.7579235"><ele>192.0</ele><time>2026-04-27T11:10:31.394Z</time></trkpt><trkpt lat="41.4081336" lon="1.7578834"><ele>192.0</ele><time>2026-04-27T11:10:32.385Z</time></trkpt><trkpt lat="41.4082163" lon="1.7578569"><ele>192.0</ele><time>2026-04-27T11:10:33.382Z</time></trkpt><trkpt lat="41.4083114" lon="1.757829"><ele>192.0</ele><time>2026-04-27T11:10:34.381Z</time></trkpt><trkpt lat="41.4084097" lon="1.757813"><ele>192.0</ele><time>2026-04-27T11:10:35.377Z</time></trkpt><trkpt lat="41.4085174" lon="1.7578052"><ele>192.0</ele><time>2026-04-27T11:10:36.387Z</time></trkpt><trkpt lat="41.4086342" lon="1.7578223"><ele>192.0</ele><time>2026-04-27T11:10:37.38Z</time></trkpt><trkpt lat="41.4087485" lon="1.757848"><ele>192.0</ele><time>2026-04-27T11:10:38.384Z</time></trkpt><trkpt lat="41.4088627" lon="1.7578864"><ele>190.5</ele><time>2026-04-27T11:10:39.381Z</time></trkpt><trkpt lat="41.4089672" lon="1.7579402"><ele>189.0</ele><time>2026-04-27T11:10:40.379Z</time></trkpt><trkpt lat="41.4090743" lon="1.7580017"><ele>187.5</ele><time>2026-04-27T11:10:41.38Z</time></trkpt><trkpt lat="41.4091753" lon="1.7580715"><ele>186.0</ele><time>2026-04-27T11:10:42.377Z</time></trkpt><trkpt lat="41.4092663" lon="1.7581509"><ele>186.0</ele><time>2026-04-27T11:10:43.38Z</time></trkpt><trkpt lat="41.4093513" lon="1.7582393"><ele>186.0</ele><time>2026-04-27T11:10:44.38Z</time></trkpt><trkpt lat="41.4094289" lon="1.7583437"><ele>186.0</ele><time>2026-04-27T11:10:45.381Z</time></trkpt><trkpt lat="41.4095003" lon="1.7584542"><ele>186.0</ele><time>2026-04-27T11:10:46.381Z</time></trkpt><trkpt lat="41.4095682" lon="1.7585656"><ele>186.0</ele><time>2026-04-27T11:10:47.383Z</time></trkpt><trkpt lat="41.4096451" lon="1.7586733"><ele>186.25</ele><time>2026-04-27T11:10:48.383Z</time></trkpt><trkpt lat="41.4097223" lon="1.7587834"><ele>186.5</ele><time>2026-04-27T11:10:49.38Z</time></trkpt><trkpt lat="41.4098082" lon="1.7588868"><ele>186.75</ele><time>2026-04-27T11:10:50.377Z</time></trkpt><trkpt lat="41.4098989" lon="1.7589837"><ele>187.0</ele><time>2026-04-27T11:10:51.382Z</time></trkpt><trkpt lat="41.4099873" lon="1.7590916"><ele>187.0</ele><time>2026-04-27T11:10:52.384Z</time></trkpt><trkpt lat="41.4100714" lon="1.7592073"><ele>187.0</ele><time>2026-04-27T11:10:53.385Z</time></trkpt><trkpt lat="41.4101595" lon="1.7593272"><ele>187.0</ele><time>2026-04-27T11:10:54.383Z</time></trkpt><trkpt lat="41.4102455" lon="1.7594509"><ele>187.0</ele><time>2026-04-27T11:10:55.386Z</time></trkpt><trkpt lat="41.410335" lon="1.759567"><ele>188.0</ele><time>2026-04-27T11:10:56.384Z</time></trkpt><trkpt lat="41.4104247" lon="1.7596818"><ele>189.0</ele><time>2026-04-27T11:10:57.405Z</time></trkpt><trkpt lat="41.4105172" lon="1.7597938"><ele>190.0</ele><time>2026-04-27T11:10:58.391Z</time></trkpt><trkpt lat="41.4106028" lon="1.7599045"><ele>191.0</ele><time>2026-04-27T11:10:59.39Z</time></trkpt><trkpt lat="41.4106864" lon="1.7600113"><ele>191.75</ele><time>2026-04-27T11:11:00.386Z</time></trkpt><trkpt lat="41.4107695" lon="1.7601206"><ele>192.5</ele><time>2026-04-27T11:11:01.388Z</time></trkpt><trkpt lat="41.4108562" lon="1.7602385"><ele>193.25</ele><time>2026-04-27T11:11:02.383Z</time></trkpt><trkpt lat="41.4109496" lon="1.7603624"><ele>194.0</ele><time>2026-04-27T11:11:03.393Z</time></trkpt><trkpt lat="41.4110481" lon="1.7604959"><ele>196.0</ele><time>2026-04-27T11:11:04.39Z</time></trkpt><trkpt lat="41.4111555" lon="1.7606423"><ele>198.0</ele><time>2026-04-27T11:11:05.392Z</time></trkpt><trkpt lat="41.4112678" lon="1.7607908"><ele>200.0</ele><time>2026-04-27T11:11:06.383Z</time></trkpt><trkpt lat="41.4113789" lon="1.7609344"><ele>202.33333333333334</ele><time>2026-04-27T11:11:07.389Z</time></trkpt><trkpt lat="41.4114928" lon="1.7610684"><ele>204.66666666666669</ele><time>2026-04-27T11:11:08.381Z</time></trkpt><trkpt lat="41.4116168" lon="1.7611924"><ele>207.0</ele><time>2026-04-27T11:11:09.384Z</time></trkpt><trkpt lat="41.4117403" lon="1.7612948"><ele>207.0</ele><time>2026-04-27T11:11:10.381Z</time></trkpt><trkpt lat="41.4118605" lon="1.7613755"><ele>207.0</ele><time>2026-04-27T11:11:11.386Z</time></trkpt><trkpt lat="41.4119854" lon="1.7614541"><ele>207.0</ele><time>2026-04-27T11:11:12.38Z</time></trkpt><trkpt lat="41.412111" lon="1.7615285"><ele>207.0</ele><time>2026-04-27T11:11:13.381Z</time></trkpt><trkpt lat="41.4122341" lon="1.7616071"><ele>207.0</ele><time>2026-04-27T11:11:14.371Z</time></trkpt><trkpt lat="41.4123509" lon="1.7616989"><ele>207.0</ele><time>2026-04-27T11:11:15.387Z</time></trkpt><trkpt lat="41.4124568" lon="1.7617968"><ele>207.0</ele><time>2026-04-27T11:11:16.384Z</time></trkpt><trkpt lat="41.4125626" lon="1.7618988"><ele>207.0</ele><time>2026-04-27T11:11:17.392Z</time></trkpt><trkpt lat="41.412675" lon="1.7620088"><ele>206.75</ele><time>2026-04-27T11:11:18.386Z</time></trkpt><trkpt lat="41.4127814" lon="1.762117"><ele>206.5</ele><time>2026-04-27T11:11:19.39Z</time></trkpt><trkpt lat="41.4128919" lon="1.7622316"><ele>206.25</ele><time>2026-04-27T11:11:20.387Z</time></trkpt><trkpt lat="41.4129973" lon="1.7623529"><ele>206.0</ele><time>2026-04-27T11:11:21.389Z</time></trkpt><trkpt lat="41.4131063" lon="1.7624718"><ele>205.5</ele><time>2026-04-27T11:11:22.39Z</time></trkpt><trkpt lat="41.4132127" lon="1.7626013"><ele>205.0</ele><time>2026-04-27T11:11:23.394Z</time></trkpt><trkpt lat="41.4133298" lon="1.7627355"><ele>204.5</ele><time>2026-04-27T11:11:24.388Z</time></trkpt><trkpt lat="41.4134409" lon="1.7628676"><ele>204.0</ele><time>2026-04-27T11:11:25.391Z</time></trkpt><trkpt lat="41.4135583" lon="1.7629931"><ele>204.25</ele><time>2026-04-27T11:11:26.388Z</time></trkpt><trkpt lat="41.4136729" lon="1.7631186"><ele>204.5</ele><time>2026-04-27T11:11:27.393Z</time></trkpt><trkpt lat="41.4137791" lon="1.7632507"><ele>204.75</ele><time>2026-04-27T11:11:28.406Z</time></trkpt><trkpt lat="41.4138965" lon="1.7633864"><ele>205.0</ele><time>2026-04-27T11:11:29.395Z</time></trkpt><trkpt lat="41.4140184" lon="1.7635217"><ele>203.0</ele><time>2026-04-27T11:11:30.389Z</time></trkpt><trkpt lat="41.4141377" lon="1.7636536"><ele>201.0</ele><time>2026-04-27T11:11:31.386Z</time></trkpt><trkpt lat="41.4142606" lon="1.7637787"><ele>199.0</ele><time>2026-04-27T11:11:32.368Z</time></trkpt><trkpt lat="41.4143805" lon="1.763905"><ele>199.0</ele><time>2026-04-27T11:11:33.392Z</time></trkpt><trkpt lat="41.4145016" lon="1.7640324"><ele>199.0</ele><time>2026-04-27T11:11:34.386Z</time></trkpt><trkpt lat="41.414626" lon="1.7641459"><ele>199.0</ele><time>2026-04-27T11:11:35.392Z</time></trkpt><trkpt lat="41.4147413" lon="1.7642628"><ele>199.0</ele><time>2026-04-27T11:11:36.387Z</time></trkpt><trkpt lat="41.4148625" lon="1.7643701"><ele>199.0</ele><time>2026-04-27T11:11:37.391Z</time></trkpt><trkpt lat="41.4149893" lon="1.7644696"><ele>199.0</ele><time>2026-04-27T11:11:38.391Z</time></trkpt><trkpt lat="41.4151143" lon="1.76456"><ele>199.0</ele><time>2026-04-27T11:11:39.393Z</time></trkpt><trkpt lat="41.4152377" lon="1.764647"><ele>199.0</ele><time>2026-04-27T11:11:40.389Z</time></trkpt><trkpt lat="41.4153655" lon="1.7647311"><ele>199.0</ele><time>2026-04-27T11:11:41.393Z</time></trkpt><trkpt lat="41.4154952" lon="1.7648183"><ele>199.0</ele><time>2026-04-27T11:11:42.388Z</time></trkpt><trkpt lat="41.415625" lon="1.7648946"><ele>199.0</ele><time>2026-04-27T11:11:43.389Z</time></trkpt><trkpt lat="41.415754" lon="1.7649621"><ele>200.0</ele><time>2026-04-27T11:11:44.386Z</time></trkpt><trkpt lat="41.4158887" lon="1.765034"><ele>201.0</ele><time>2026-04-27T11:11:45.392Z</time></trkpt><trkpt lat="41.4160241" lon="1.7651016"><ele>202.0</ele><time>2026-04-27T11:11:46.389Z</time></trkpt><trkpt lat="41.4161641" lon="1.7651678"><ele>203.0</ele><time>2026-04-27T11:11:47.4Z</time></trkpt><trkpt lat="41.4163075" lon="1.7652346"><ele>203.25</ele><time>2026-04-27T11:11:48.379Z</time></trkpt><trkpt lat="41.416448" lon="1.7652916"><ele>203.5</ele><time>2026-04-27T11:11:49.393Z</time></trkpt><trkpt lat="41.4165921" lon="1.7653441"><ele>203.75</ele><time>2026-04-27T11:11:50.387Z</time></trkpt><trkpt lat="41.4167382" lon="1.7653892"><ele>204.0</ele><time>2026-04-27T11:11:51.39Z</time></trkpt><trkpt lat="41.416891" lon="1.7654311"><ele>204.0</ele><time>2026-04-27T11:11:52.39Z</time></trkpt><trkpt lat="41.4170369" lon="1.7654562"><ele>204.0</ele><time>2026-04-27T11:11:53.389Z</time></trkpt><trkpt lat="41.4171907" lon="1.7654807"><ele>204.0</ele><time>2026-04-27T11:11:54.387Z</time></trkpt><trkpt lat="41.4173455" lon="1.7655052"><ele>202.0</ele><time>2026-04-27T11:11:55.389Z</time></trkpt><trkpt lat="41.4175002" lon="1.7655319"><ele>200.0</ele><time>2026-04-27T11:11:56.389Z</time></trkpt><trkpt lat="41.4176507" lon="1.7655494"><ele>198.0</ele><time>2026-04-27T11:11:57.387Z</time></trkpt><trkpt lat="41.4178017" lon="1.7655784"><ele>198.0</ele><time>2026-04-27T11:11:58.395Z</time></trkpt><trkpt lat="41.4179553" lon="1.7656142"><ele>198.0</ele><time>2026-04-27T11:11:59.406Z</time></trkpt><trkpt lat="41.4181028" lon="1.7656537"><ele>198.0</ele><time>2026-04-27T11:12:00.391Z</time></trkpt><trkpt lat="41.4182534" lon="1.7656999"><ele>198.0</ele><time>2026-04-27T11:12:01.396Z</time></trkpt><trkpt lat="41.4183985" lon="1.7657577"><ele>198.0</ele><time>2026-04-27T11:12:02.386Z</time></trkpt><trkpt lat="41.4185397" lon="1.7658336"><ele>198.0</ele><time>2026-04-27T11:12:03.378Z</time></trkpt><trkpt lat="41.4186759" lon="1.7659241"><ele>197.33333333333331</ele><time>2026-04-27T11:12:04.383Z</time></trkpt><trkpt lat="41.418791" lon="1.7660521"><ele>196.66666666666666</ele><time>2026-04-27T11:12:05.386Z</time></trkpt><trkpt lat="41.4188922" lon="1.7661966"><ele>196.0</ele><time>2026-04-27T11:12:06.378Z</time></trkpt><trkpt lat="41.4189876" lon="1.7663684"><ele>196.0</ele><time>2026-04-27T11:12:07.385Z</time></trkpt><trkpt lat="41.419059" lon="1.7665477"><ele>196.0</ele><time>2026-04-27T11:12:08.375Z</time></trkpt><trkpt lat="41.41911" lon="1.7667313"><ele>196.0</ele><time>2026-04-27T11:12:09.384Z</time></trkpt><trkpt lat="41.4191424" lon="1.7669036"><ele>196.0</ele><time>2026-04-27T11:12:10.385Z</time></trkpt><trkpt lat="41.4191549" lon="1.7670846"><ele>194.5</ele><time>2026-04-27T11:12:11.381Z</time></trkpt><trkpt lat="41.419147" lon="1.7672775"><ele>193.0</ele><time>2026-04-27T11:12:12.384Z</time></trkpt><trkpt lat="41.4191299" lon="1.7674731"><ele>191.5</ele><time>2026-04-27T11:12:13.383Z</time></trkpt><trkpt lat="41.4191062" lon="1.767672"><ele>190.0</ele><time>2026-04-27T11:12:14.384Z</time></trkpt><trkpt lat="41.4190644" lon="1.7678657"><ele>189.33333333333334</ele><time>2026-04-27T11:12:15.381Z</time></trkpt><trkpt lat="41.4190171" lon="1.7680599"><ele>188.66666666666666</ele><time>2026-04-27T11:12:16.385Z</time></trkpt><trkpt lat="41.4189773" lon="1.7682644"><ele>188.0</ele><time>2026-04-27T11:12:17.394Z</time></trkpt><trkpt lat="41.4189397" lon="1.7684633"><ele>187.33333333333331</ele><time>2026-04-27T11:12:18.387Z</time></trkpt><trkpt lat="41.4189145" lon="1.7686603"><ele>186.66666666666666</ele><time>2026-04-27T11:12:19.388Z</time></trkpt><trkpt lat="41.418893" lon="1.7688653"><ele>186.0</ele><time>2026-04-27T11:12:20.383Z</time></trkpt><trkpt lat="41.4188827" lon="1.7690669"><ele>186.0</ele><time>2026-04-27T11:12:21.386Z</time></trkpt><trkpt lat="41.4188688" lon="1.7692632"><ele>186.0</ele><time>2026-04-27T11:12:22.39Z</time></trkpt><trkpt lat="41.4188558" lon="1.7694518"><ele>186.0</ele><time>2026-04-27T11:12:23.389Z</time></trkpt><trkpt lat="41.4188463" lon="1.7696225"><ele>186.0</ele><time>2026-04-27T11:12:24.387Z</time></trkpt><trkpt lat="41.4188531" lon="1.7697917"><ele>184.75</ele><time>2026-04-27T11:12:25.391Z</time></trkpt><trkpt lat="41.4188628" lon="1.7699634"><ele>183.5</ele><time>2026-04-27T11:12:26.389Z</time></trkpt><trkpt lat="41.418879" lon="1.7701371"><ele>182.25</ele><time>2026-04-27T11:12:27.391Z</time></trkpt><trkpt lat="41.418901" lon="1.7703171"><ele>181.0</ele><time>2026-04-27T11:12:28.391Z</time></trkpt><trkpt lat="41.4189244" lon="1.7704941"><ele>180.5</ele><time>2026-04-27T11:12:29.392Z</time></trkpt><trkpt lat="41.4189543" lon="1.770669"><ele>180.0</ele><time>2026-04-27T11:12:30.399Z</time></trkpt><trkpt lat="41.4190052" lon="1.7708448"><ele>179.5</ele><time>2026-04-27T11:12:31.383Z</time></trkpt><trkpt lat="41.4190702" lon="1.7710156"><ele>179.0</ele><time>2026-04-27T11:12:32.385Z</time></trkpt><trkpt lat="41.4191497" lon="1.7711714"><ele>178.0</ele><time>2026-04-27T11:12:33.379Z</time></trkpt><trkpt lat="41.4192458" lon="1.7713102"><ele>177.0</ele><time>2026-04-27T11:12:34.378Z</time></trkpt><trkpt lat="41.4193508" lon="1.7714342"><ele>176.0</ele><time>2026-04-27T11:12:35.379Z</time></trkpt><trkpt lat="41.4194761" lon="1.7715436"><ele>175.0</ele><time>2026-04-27T11:12:36.384Z</time></trkpt><trkpt lat="41.4196136" lon="1.7716448"><ele>175.0</ele><time>2026-04-27T11:12:37.387Z</time></trkpt><trkpt lat="41.4197279" lon="1.7717555"><ele>175.0</ele><time>2026-04-27T11:12:38.385Z</time></trkpt><trkpt lat="41.4198342" lon="1.7718539"><ele>175.0</ele><time>2026-04-27T11:12:39.376Z</time></trkpt><trkpt lat="41.4199263" lon="1.7719526"><ele>175.0</ele><time>2026-04-27T11:12:40.372Z</time></trkpt><trkpt lat="41.4200055" lon="1.7720583"><ele>174.0</ele><time>2026-04-27T11:12:41.374Z</time></trkpt><trkpt lat="41.4200648" lon="1.7721663"><ele>173.0</ele><time>2026-04-27T11:12:42.371Z</time></trkpt><trkpt lat="41.4201084" lon="1.7722948"><ele>172.0</ele><time>2026-04-27T11:12:43.37Z</time></trkpt><trkpt lat="41.4201294" lon="1.7724273"><ele>171.0</ele><time>2026-04-27T11:12:44.38Z</time></trkpt><trkpt lat="41.4201179" lon="1.7725559"><ele>170.0</ele><time>2026-04-27T11:12:45.37Z</time></trkpt><trkpt lat="41.4200877" lon="1.7726848"><ele>170.16666666666666</ele><time>2026-04-27T11:12:46.368Z</time></trkpt><trkpt lat="41.4200675" lon="1.7728004"><ele>170.33333333333331</ele><time>2026-04-27T11:12:47.368Z</time></trkpt><trkpt lat="41.4200791" lon="1.7729094"><ele>170.5</ele><time>2026-04-27T11:12:48.368Z</time></trkpt><trkpt lat="41.4201151" lon="1.7730019"><ele>170.66666666666666</ele><time>2026-04-27T11:12:49.374Z</time></trkpt><trkpt lat="41.4201786" lon="1.7730596"><ele>170.83333333333334</ele><time>2026-04-27T11:12:50.373Z</time></trkpt><trkpt lat="41.4202648" lon="1.7730832"><ele>171.0</ele><time>2026-04-27T11:12:51.372Z</time></trkpt><trkpt lat="41.4203556" lon="1.7730806"><ele>171.0</ele><time>2026-04-27T11:12:52.372Z</time></trkpt><trkpt lat="41.4204514" lon="1.7730576"><ele>171.0</ele><time>2026-04-27T11:12:53.374Z</time></trkpt><trkpt lat="41.4205333" lon="1.7730021"><ele>171.0</ele><time>2026-04-27T11:12:54.368Z</time></trkpt><trkpt lat="41.4206162" lon="1.7729258"><ele>171.0</ele><time>2026-04-27T11:12:55.371Z</time></trkpt><trkpt lat="41.4207035" lon="1.7728449"><ele>171.0</ele><time>2026-04-27T11:12:56.369Z</time></trkpt><trkpt lat="41.420796" lon="1.772785"><ele>172.60000000000002</ele><time>2026-04-27T11:12:57.367Z</time></trkpt><trkpt lat="41.4208887" lon="1.7727386"><ele>174.2</ele><time>2026-04-27T11:12:58.372Z</time></trkpt><trkpt lat="41.4209886" lon="1.7726957"><ele>175.8</ele><time>2026-04-27T11:12:59.375Z</time></trkpt><trkpt lat="41.4210856" lon="1.7726635"><ele>177.39999999999998</ele><time>2026-04-27T11:13:00.367Z</time></trkpt><trkpt lat="41.4211798" lon="1.7726286"><ele>179.0</ele><time>2026-04-27T11:13:01.387Z</time></trkpt><trkpt lat="41.4212706" lon="1.7725912"><ele>180.2</ele><time>2026-04-27T11:13:02.368Z</time></trkpt><trkpt lat="41.4213668" lon="1.7725523"><ele>181.39999999999998</ele><time>2026-04-27T11:13:03.375Z</time></trkpt><trkpt lat="41.42146" lon="1.772521"><ele>182.6</ele><time>2026-04-27T11:13:04.371Z</time></trkpt><trkpt lat="41.421545" lon="1.7724893"><ele>183.8</ele><time>2026-04-27T11:13:05.377Z</time></trkpt><trkpt lat="41.421638" lon="1.7724615"><ele>185.0</ele><time>2026-04-27T11:13:06.368Z</time></trkpt><trkpt lat="41.4217348" lon="1.7724445"><ele>185.0</ele><time>2026-04-27T11:13:07.374Z</time></trkpt><trkpt lat="41.4218314" lon="1.772429"><ele>185.0</ele><time>2026-04-27T11:13:08.371Z</time></trkpt><trkpt lat="41.4219316" lon="1.7724108"><ele>185.0</ele><time>2026-04-27T11:13:09.377Z</time></trkpt><trkpt lat="41.4220306" lon="1.7723874"><ele>185.0</ele><time>2026-04-27T11:13:10.372Z</time></trkpt><trkpt lat="41.4221367" lon="1.772368"><ele>185.0</ele><time>2026-04-27T11:13:11.379Z</time></trkpt><trkpt lat="41.4222399" lon="1.7723462"><ele>185.8</ele><time>2026-04-27T11:13:12.372Z</time></trkpt><trkpt lat="41.4223451" lon="1.7723274"><ele>186.6</ele><time>2026-04-27T11:13:13.37Z</time></trkpt><trkpt lat="41.4224519" lon="1.7722988"><ele>187.39999999999998</ele><time>2026-04-27T11:13:14.368Z</time></trkpt><trkpt lat="41.4225548" lon="1.7722722"><ele>188.2</ele><time>2026-04-27T11:13:15.374Z</time></trkpt><trkpt lat="41.4226669" lon="1.772253"><ele>189.0</ele><time>2026-04-27T11:13:16.371Z</time></trkpt><trkpt lat="41.4227767" lon="1.7722367"><ele>189.0</ele><time>2026-04-27T11:13:17.373Z</time></trkpt><trkpt lat="41.4228904" lon="1.7722304"><ele>189.0</ele><time>2026-04-27T11:13:18.37Z</time></trkpt><trkpt lat="41.4230044" lon="1.7722282"><ele>189.0</ele><time>2026-04-27T11:13:19.374Z</time></trkpt><trkpt lat="41.4231224" lon="1.772229"><ele>189.0</ele><time>2026-04-27T11:13:20.372Z</time></trkpt><trkpt lat="41.4232454" lon="1.7722318"><ele>191.0</ele><time>2026-04-27T11:13:21.372Z</time></trkpt><trkpt lat="41.4233676" lon="1.7722434"><ele>193.0</ele><time>2026-04-27T11:13:22.371Z</time></trkpt><trkpt lat="41.4234902" lon="1.7722549"><ele>195.0</ele><time>2026-04-27T11:13:23.373Z</time></trkpt><trkpt lat="41.4236164" lon="1.7722718"><ele>197.0</ele><time>2026-04-27T11:13:24.373Z</time></trkpt><trkpt lat="41.4237452" lon="1.7722946"><ele>197.5</ele><time>2026-04-27T11:13:25.369Z</time></trkpt><trkpt lat="41.423876" lon="1.7723187"><ele>198.0</ele><time>2026-04-27T11:13:26.369Z</time></trkpt><trkpt lat="41.4240116" lon="1.7723482"><ele>198.5</ele><time>2026-04-27T11:13:27.37Z</time></trkpt><trkpt lat="41.424153" lon="1.7723781"><ele>199.0</ele><time>2026-04-27T11:13:28.373Z</time></trkpt><trkpt lat="41.4243032" lon="1.7724189"><ele>199.0</ele><time>2026-04-27T11:13:29.372Z</time></trkpt><trkpt lat="41.4244464" lon="1.7724572"><ele>199.0</ele><time>2026-04-27T11:13:30.37Z</time></trkpt><trkpt lat="41.4245835" lon="1.7724832"><ele>199.0</ele><time>2026-04-27T11:13:31.372Z</time></trkpt><trkpt lat="41.4247165" lon="1.7725295"><ele>199.0</ele><time>2026-04-27T11:13:32.392Z</time></trkpt><trkpt lat="41.4248532" lon="1.7725812"><ele>197.75</ele><time>2026-04-27T11:13:33.374Z</time></trkpt><trkpt lat="41.4249783" lon="1.7726325"><ele>196.5</ele><time>2026-04-27T11:13:34.375Z</time></trkpt><trkpt lat="41.4251013" lon="1.7726896"><ele>195.25</ele><time>2026-04-27T11:13:35.371Z</time></trkpt><trkpt lat="41.4252283" lon="1.772737"><ele>194.0</ele><time>2026-04-27T11:13:36.376Z</time></trkpt><trkpt lat="41.4253744" lon="1.7727983"><ele>193.5</ele><time>2026-04-27T11:13:37.364Z</time></trkpt><trkpt lat="41.4254857" lon="1.7728329"><ele>193.0</ele><time>2026-04-27T11:13:38.362Z</time></trkpt><trkpt lat="41.4255908" lon="1.7728906"><ele>192.5</ele><time>2026-04-27T11:13:39.376Z</time></trkpt><trkpt lat="41.4257048" lon="1.772941"><ele>192.0</ele><time>2026-04-27T11:13:40.374Z</time></trkpt><trkpt lat="41.4258082" lon="1.7730012"><ele>192.0</ele><time>2026-04-27T11:13:41.377Z</time></trkpt><trkpt lat="41.4259088" lon="1.7730601"><ele>192.0</ele><time>2026-04-27T11:13:42.381Z</time></trkpt><trkpt lat="41.4260089" lon="1.7731322"><ele>192.0</ele><time>2026-04-27T11:13:43.38Z</time></trkpt><trkpt lat="41.4261128" lon="1.7732014"><ele>192.0</ele><time>2026-04-27T11:13:44.38Z</time></trkpt><trkpt lat="41.4262127" lon="1.7732758"><ele>192.5</ele><time>2026-04-27T11:13:45.38Z</time></trkpt><trkpt lat="41.4263196" lon="1.7733505"><ele>193.0</ele><time>2026-04-27T11:13:46.379Z</time></trkpt><trkpt lat="41.4264258" lon="1.7734241"><ele>193.5</ele><time>2026-04-27T11:13:47.381Z</time></trkpt><trkpt lat="41.4265364" lon="1.7735047"><ele>194.0</ele><time>2026-04-27T11:13:48.38Z</time></trkpt><trkpt lat="41.426645" lon="1.7735938"><ele>194.0</ele><time>2026-04-27T11:13:49.382Z</time></trkpt><trkpt lat="41.4267522" lon="1.7736838"><ele>194.0</ele><time>2026-04-27T11:13:50.377Z</time></trkpt><trkpt lat="41.4268605" lon="1.7737774"><ele>194.0</ele><time>2026-04-27T11:13:51.381Z</time></trkpt><trkpt lat="41.4269715" lon="1.773871"><ele>194.0</ele><time>2026-04-27T11:13:52.385Z</time></trkpt><trkpt lat="41.4270789" lon="1.7739594"><ele>195.25</ele><time>2026-04-27T11:13:53.381Z</time></trkpt><trkpt lat="41.4271865" lon="1.7740466"><ele>196.5</ele><time>2026-04-27T11:13:54.382Z</time></trkpt><trkpt lat="41.4272955" lon="1.7741321"><ele>197.75</ele><time>2026-04-27T11:13:55.381Z</time></trkpt><trkpt lat="41.427404" lon="1.7742223"><ele>199.0</ele><time>2026-04-27T11:13:56.381Z</time></trkpt><trkpt lat="41.4275106" lon="1.7743159"><ele>197.75</ele><time>2026-04-27T11:13:57.38Z</time></trkpt><trkpt lat="41.4276182" lon="1.7744092"><ele>196.5</ele><time>2026-04-27T11:13:58.389Z</time></trkpt><trkpt lat="41.4277311" lon="1.7745005"><ele>195.25</ele><time>2026-04-27T11:13:59.382Z</time></trkpt><trkpt lat="41.4278404" lon="1.774591"><ele>194.0</ele><time>2026-04-27T11:14:00.384Z</time></trkpt><trkpt lat="41.4279518" lon="1.774684"><ele>194.25</ele><time>2026-04-27T11:14:01.381Z</time></trkpt><trkpt lat="41.428065" lon="1.7747795"><ele>194.5</ele><time>2026-04-27T11:14:02.395Z</time></trkpt><trkpt lat="41.4281794" lon="1.7748748"><ele>194.75</ele><time>2026-04-27T11:14:03.38Z</time></trkpt><trkpt lat="41.4282974" lon="1.7749695"><ele>195.0</ele><time>2026-04-27T11:14:04.381Z</time></trkpt><trkpt lat="41.4284085" lon="1.77507"><ele>195.0</ele><time>2026-04-27T11:14:05.382Z</time></trkpt><trkpt lat="41.428525" lon="1.7751632"><ele>195.0</ele><time>2026-04-27T11:14:06.381Z</time></trkpt><trkpt lat="41.4286405" lon="1.7752561"><ele>195.0</ele><time>2026-04-27T11:14:07.381Z</time></trkpt><trkpt lat="41.4287558" lon="1.7753469"><ele>195.0</ele><time>2026-04-27T11:14:08.381Z</time></trkpt><trkpt lat="41.4288727" lon="1.7754354"><ele>195.25</ele><time>2026-04-27T11:14:09.382Z</time></trkpt><trkpt lat="41.4289927" lon="1.7755352"><ele>195.5</ele><time>2026-04-27T11:14:10.384Z</time></trkpt><trkpt lat="41.4291058" lon="1.775636"><ele>195.75</ele><time>2026-04-27T11:14:11.379Z</time></trkpt><trkpt lat="41.4292215" lon="1.7757345"><ele>196.0</ele><time>2026-04-27T11:14:12.382Z</time></trkpt><trkpt lat="41.4293369" lon="1.7758319"><ele>196.0</ele><time>2026-04-27T11:14:13.382Z</time></trkpt><trkpt lat="41.4294506" lon="1.7759251"><ele>196.0</ele><time>2026-04-27T11:14:14.385Z</time></trkpt><trkpt lat="41.4295699" lon="1.7760203"><ele>196.0</ele><time>2026-04-27T11:14:15.384Z</time></trkpt><trkpt lat="41.4296853" lon="1.7761139"><ele>196.0</ele><time>2026-04-27T11:14:16.384Z</time></trkpt><trkpt lat="41.4298014" lon="1.7762091"><ele>198.0</ele><time>2026-04-27T11:14:17.385Z</time></trkpt><trkpt lat="41.4299185" lon="1.7763053"><ele>200.0</ele><time>2026-04-27T11:14:18.383Z</time></trkpt><trkpt lat="41.4300372" lon="1.7764028"><ele>202.0</ele><time>2026-04-27T11:14:19.383Z</time></trkpt><trkpt lat="41.4301563" lon="1.7764956"><ele>204.0</ele><time>2026-04-27T11:14:20.383Z</time></trkpt><trkpt lat="41.430281" lon="1.7765946"><ele>204.0</ele><time>2026-04-27T11:14:21.381Z</time></trkpt><trkpt lat="41.4304069" lon="1.7766978"><ele>204.0</ele><time>2026-04-27T11:14:22.385Z</time></trkpt><trkpt lat="41.4305282" lon="1.7767979"><ele>204.0</ele><time>2026-04-27T11:14:23.374Z</time></trkpt><trkpt lat="41.4306416" lon="1.7768788"><ele>204.0</ele><time>2026-04-27T11:14:24.377Z</time></trkpt><trkpt lat="41.4307554" lon="1.7769598"><ele>203.5</ele><time>2026-04-27T11:14:25.374Z</time></trkpt><trkpt lat="41.4308612" lon="1.7770259"><ele>203.0</ele><time>2026-04-27T11:14:26.371Z</time></trkpt><trkpt lat="41.4309736" lon="1.7770955"><ele>202.5</ele><time>2026-04-27T11:14:27.371Z</time></trkpt><trkpt lat="41.4310814" lon="1.7771672"><ele>202.0</ele><time>2026-04-27T11:14:28.377Z</time></trkpt><trkpt lat="41.4311915" lon="1.777229"><ele>201.0</ele><time>2026-04-27T11:14:29.374Z</time></trkpt><trkpt lat="41.4313932" lon="1.7773563"><ele>200.0</ele><time>2026-04-27T11:14:31.37Z</time></trkpt><trkpt lat="41.4315066" lon="1.7774097"><ele>199.0</ele><time>2026-04-27T11:14:32.37Z</time></trkpt><trkpt lat="41.4316171" lon="1.77746"><ele>199.0</ele><time>2026-04-27T11:14:33.381Z</time></trkpt><trkpt lat="41.4317186" lon="1.777504"><ele>199.0</ele><time>2026-04-27T11:14:34.369Z</time></trkpt><trkpt lat="41.4318209" lon="1.7775411"><ele>199.0</ele><time>2026-04-27T11:14:35.367Z</time></trkpt><trkpt lat="41.4319102" lon="1.7775748"><ele>199.0</ele><time>2026-04-27T11:14:36.367Z</time></trkpt><trkpt lat="41.4319997" lon="1.7776017"><ele>199.0</ele><time>2026-04-27T11:14:37.371Z</time></trkpt><trkpt lat="41.4320717" lon="1.7776311"><ele>198.99999999999997</ele><time>2026-04-27T11:14:38.375Z</time></trkpt><trkpt lat="41.4321359" lon="1.7776701"><ele>199.0</ele><time>2026-04-27T11:14:39.376Z</time></trkpt><trkpt lat="41.4321942" lon="1.7777322"><ele>199.0</ele><time>2026-04-27T11:14:40.376Z</time></trkpt><trkpt lat="41.4322244" lon="1.7778184"><ele>199.0</ele><time>2026-04-27T11:14:41.381Z</time></trkpt><trkpt lat="41.4322324" lon="1.777923"><ele>198.99999999999997</ele><time>2026-04-27T11:14:42.38Z</time></trkpt><trkpt lat="41.4322453" lon="1.7780287"><ele>199.0</ele><time>2026-04-27T11:14:43.37Z</time></trkpt><trkpt lat="41.4322685" lon="1.7781343"><ele>198.16666666666666</ele><time>2026-04-27T11:14:44.373Z</time></trkpt><trkpt lat="41.4323155" lon="1.7782143"><ele>197.33333333333331</ele><time>2026-04-27T11:14:45.377Z</time></trkpt><trkpt lat="41.4323733" lon="1.7782536"><ele>196.5</ele><time>2026-04-27T11:14:46.379Z</time></trkpt><trkpt lat="41.4324542" lon="1.7782522"><ele>195.66666666666669</ele><time>2026-04-27T11:14:47.377Z</time></trkpt><trkpt lat="41.4325364" lon="1.7782125"><ele>194.83333333333334</ele><time>2026-04-27T11:14:48.379Z</time></trkpt><trkpt lat="41.4325991" lon="1.7781423"><ele>194.0</ele><time>2026-04-27T11:14:49.371Z</time></trkpt><trkpt lat="41.4326495" lon="1.7780487"><ele>194.0</ele><time>2026-04-27T11:14:50.38Z</time></trkpt><trkpt lat="41.4326779" lon="1.7779294"><ele>194.0</ele><time>2026-04-27T11:14:51.377Z</time></trkpt><trkpt lat="41.4326887" lon="1.7778023"><ele>194.0</ele><time>2026-04-27T11:14:52.381Z</time></trkpt><trkpt lat="41.4326961" lon="1.7776725"><ele>194.0</ele><time>2026-04-27T11:14:53.381Z</time></trkpt><trkpt lat="41.4327107" lon="1.7775453"><ele>194.0</ele><time>2026-04-27T11:14:54.375Z</time></trkpt><trkpt lat="41.4327281" lon="1.7774231"><ele>195.0</ele><time>2026-04-27T11:14:55.375Z</time></trkpt><trkpt lat="41.4327498" lon="1.7772976"><ele>196.0</ele><time>2026-04-27T11:14:56.373Z</time></trkpt><trkpt lat="41.4327663" lon="1.7771698"><ele>197.0</ele><time>2026-04-27T11:14:57.376Z</time></trkpt><trkpt lat="41.4327832" lon="1.7770361"><ele>198.0</ele><time>2026-04-27T11:14:58.377Z</time></trkpt><trkpt lat="41.4328013" lon="1.7769007"><ele>199.0</ele><time>2026-04-27T11:14:59.38Z</time></trkpt><trkpt lat="41.4328182" lon="1.7767652"><ele>199.79999999999998</ele><time>2026-04-27T11:15:00.372Z</time></trkpt><trkpt lat="41.4328402" lon="1.7766258"><ele>200.6</ele><time>2026-04-27T11:15:01.378Z</time></trkpt><trkpt lat="41.4328597" lon="1.7764842"><ele>201.4</ele><time>2026-04-27T11:15:02.376Z</time></trkpt><trkpt lat="41.4328774" lon="1.7763416"><ele>202.2</ele><time>2026-04-27T11:15:03.378Z</time></trkpt><trkpt lat="41.4328945" lon="1.7761967"><ele>203.0</ele><time>2026-04-27T11:15:04.389Z</time></trkpt><trkpt lat="41.4329117" lon="1.7760511"><ele>202.8</ele><time>2026-04-27T11:15:05.386Z</time></trkpt><trkpt lat="41.4329318" lon="1.7759076"><ele>202.60000000000002</ele><time>2026-04-27T11:15:06.376Z</time></trkpt><trkpt lat="41.4329548" lon="1.7757672"><ele>202.39999999999998</ele><time>2026-04-27T11:15:07.381Z</time></trkpt><trkpt lat="41.4329787" lon="1.7756272"><ele>202.2</ele><time>2026-04-27T11:15:08.379Z</time></trkpt><trkpt lat="41.4330046" lon="1.7754888"><ele>202.0</ele><time>2026-04-27T11:15:09.385Z</time></trkpt><trkpt lat="41.4330361" lon="1.7753503"><ele>202.0</ele><time>2026-04-27T11:15:10.38Z</time></trkpt><trkpt lat="41.4330611" lon="1.7752116"><ele>202.0</ele><time>2026-04-27T11:15:11.388Z</time></trkpt><trkpt lat="41.4330925" lon="1.7750724"><ele>202.0</ele><time>2026-04-27T11:15:12.38Z</time></trkpt><trkpt lat="41.4331193" lon="1.7749239"><ele>202.0</ele><time>2026-04-27T11:15:13.384Z</time></trkpt><trkpt lat="41.4331442" lon="1.7747712"><ele>202.0</ele><time>2026-04-27T11:15:14.381Z</time></trkpt><trkpt lat="41.4331756" lon="1.7746245"><ele>203.75</ele><time>2026-04-27T11:15:15.384Z</time></trkpt><trkpt lat="41.4332144" lon="1.7744746"><ele>205.5</ele><time>2026-04-27T11:15:16.379Z</time></trkpt><trkpt lat="41.4332571" lon="1.7743234"><ele>207.25</ele><time>2026-04-27T11:15:17.379Z</time></trkpt><trkpt lat="41.4333058" lon="1.7741718"><ele>209.0</ele><time>2026-04-27T11:15:18.372Z</time></trkpt><trkpt lat="41.4333518" lon="1.7740218"><ele>210.25</ele><time>2026-04-27T11:15:19.376Z</time></trkpt><trkpt lat="41.4333992" lon="1.7738797"><ele>211.5</ele><time>2026-04-27T11:15:20.372Z</time></trkpt><trkpt lat="41.4334429" lon="1.77374"><ele>212.75</ele><time>2026-04-27T11:15:21.37Z</time></trkpt><trkpt lat="41.4334834" lon="1.7735995"><ele>214.0</ele><time>2026-04-27T11:15:22.374Z</time></trkpt><trkpt lat="41.4335264" lon="1.7734593"><ele>215.25</ele><time>2026-04-27T11:15:23.371Z</time></trkpt><trkpt lat="41.4335716" lon="1.7733153"><ele>216.5</ele><time>2026-04-27T11:15:24.367Z</time></trkpt><trkpt lat="41.4336158" lon="1.7731731"><ele>217.75</ele><time>2026-04-27T11:15:25.37Z</time></trkpt><trkpt lat="41.4336561" lon="1.7730296"><ele>219.0</ele><time>2026-04-27T11:15:26.369Z</time></trkpt><trkpt lat="41.4336957" lon="1.7728812"><ele>219.0</ele><time>2026-04-27T11:15:27.371Z</time></trkpt><trkpt lat="41.4337294" lon="1.7727334"><ele>219.0</ele><time>2026-04-27T11:15:28.374Z</time></trkpt><trkpt lat="41.4337616" lon="1.7725869"><ele>219.0</ele><time>2026-04-27T11:15:29.369Z</time></trkpt><trkpt lat="41.4337876" lon="1.7724375"><ele>219.0</ele><time>2026-04-27T11:15:30.368Z</time></trkpt><trkpt lat="41.4338046" lon="1.7722863"><ele>217.25</ele><time>2026-04-27T11:15:31.366Z</time></trkpt><trkpt lat="41.4338116" lon="1.7721289"><ele>215.5</ele><time>2026-04-27T11:15:32.369Z</time></trkpt><trkpt lat="41.4338133" lon="1.7719713"><ele>213.75</ele><time>2026-04-27T11:15:33.37Z</time></trkpt><trkpt lat="41.4338118" lon="1.7718153"><ele>212.0</ele><time>2026-04-27T11:15:34.366Z</time></trkpt><trkpt lat="41.4338101" lon="1.7716629"><ele>212.0</ele><time>2026-04-27T11:15:35.391Z</time></trkpt><trkpt lat="41.4338141" lon="1.7715129"><ele>212.0</ele><time>2026-04-27T11:15:36.368Z</time></trkpt><trkpt lat="41.4338194" lon="1.7713638"><ele>212.0</ele><time>2026-04-27T11:15:37.365Z</time></trkpt><trkpt lat="41.4338221" lon="1.7712218"><ele>212.0</ele><time>2026-04-27T11:15:38.366Z</time></trkpt><trkpt lat="41.4338214" lon="1.7710769"><ele>212.0</ele><time>2026-04-27T11:15:39.37Z</time></trkpt><trkpt lat="41.4338161" lon="1.7709251"><ele>213.0</ele><time>2026-04-27T11:15:40.368Z</time></trkpt><trkpt lat="41.4338108" lon="1.7707725"><ele>214.0</ele><time>2026-04-27T11:15:41.371Z</time></trkpt><trkpt lat="41.4337974" lon="1.7706196"><ele>215.0</ele><time>2026-04-27T11:15:42.366Z</time></trkpt><trkpt lat="41.4337875" lon="1.7704629"><ele>216.0</ele><time>2026-04-27T11:15:43.374Z</time></trkpt><trkpt lat="41.4337777" lon="1.7703077"><ele>219.0</ele><time>2026-04-27T11:15:44.372Z</time></trkpt><trkpt lat="41.4337579" lon="1.77015"><ele>222.0</ele><time>2026-04-27T11:15:45.373Z</time></trkpt><trkpt lat="41.4337396" lon="1.7699893"><ele>225.0</ele><time>2026-04-27T11:15:46.369Z</time></trkpt><trkpt lat="41.4337205" lon="1.7698262"><ele>228.0</ele><time>2026-04-27T11:15:47.374Z</time></trkpt><trkpt lat="41.4336982" lon="1.7696618"><ele>228.0</ele><time>2026-04-27T11:15:48.366Z</time></trkpt><trkpt lat="41.4336801" lon="1.7694899"><ele>228.0</ele><time>2026-04-27T11:15:49.372Z</time></trkpt><trkpt lat="41.4336609" lon="1.7693186"><ele>228.0</ele><time>2026-04-27T11:15:50.373Z</time></trkpt><trkpt lat="41.4336425" lon="1.7691482"><ele>228.0</ele><time>2026-04-27T11:15:51.372Z</time></trkpt><trkpt lat="41.4336255" lon="1.768977"><ele>228.5</ele><time>2026-04-27T11:15:52.374Z</time></trkpt><trkpt lat="41.4336022" lon="1.7688038"><ele>229.0</ele><time>2026-04-27T11:15:53.372Z</time></trkpt><trkpt lat="41.4335779" lon="1.7686287"><ele>229.5</ele><time>2026-04-27T11:15:54.368Z</time></trkpt><trkpt lat="41.4335542" lon="1.7684478"><ele>230.0</ele><time>2026-04-27T11:15:55.381Z</time></trkpt><trkpt lat="41.4335357" lon="1.7682654"><ele>230.0</ele><time>2026-04-27T11:15:56.377Z</time></trkpt><trkpt lat="41.4335181" lon="1.7680731"><ele>230.0</ele><time>2026-04-27T11:15:57.373Z</time></trkpt><trkpt lat="41.4334958" lon="1.7678827"><ele>230.0</ele><time>2026-04-27T11:15:58.376Z</time></trkpt><trkpt lat="41.4334809" lon="1.7676938"><ele>230.0</ele><time>2026-04-27T11:15:59.377Z</time></trkpt><trkpt lat="41.4334556" lon="1.7675177"><ele>229.0</ele><time>2026-04-27T11:16:00.378Z</time></trkpt><trkpt lat="41.4334198" lon="1.7673531"><ele>228.0</ele><time>2026-04-27T11:16:01.377Z</time></trkpt><trkpt lat="41.4333864" lon="1.7671795"><ele>227.0</ele><time>2026-04-27T11:16:02.385Z</time></trkpt><trkpt lat="41.4333617" lon="1.7669993"><ele>226.0</ele><time>2026-04-27T11:16:03.381Z</time></trkpt><trkpt lat="41.4333344" lon="1.7668177"><ele>226.0</ele><time>2026-04-27T11:16:04.377Z</time></trkpt><trkpt lat="41.4333145" lon="1.7666374"><ele>226.0</ele><time>2026-04-27T11:16:05.383Z</time></trkpt><trkpt lat="41.4332926" lon="1.766453"><ele>226.0</ele><time>2026-04-27T11:16:06.386Z</time></trkpt><trkpt lat="41.4332683" lon="1.766267"><ele>226.0</ele><time>2026-04-27T11:16:07.375Z</time></trkpt><trkpt lat="41.4332447" lon="1.766086"><ele>227.75</ele><time>2026-04-27T11:16:08.375Z</time></trkpt><trkpt lat="41.4332343" lon="1.7659057"><ele>229.5</ele><time>2026-04-27T11:16:09.377Z</time></trkpt><trkpt lat="41.4332447" lon="1.7657281"><ele>231.25</ele><time>2026-04-27T11:16:10.37Z</time></trkpt><trkpt lat="41.433284" lon="1.7655483"><ele>233.0</ele><time>2026-04-27T11:16:11.378Z</time></trkpt><trkpt lat="41.4333367" lon="1.7653936"><ele>233.0</ele><time>2026-04-27T11:16:12.372Z</time></trkpt><trkpt lat="41.4334107" lon="1.7652449"><ele>233.0</ele><time>2026-04-27T11:16:13.376Z</time></trkpt><trkpt lat="41.4334913" lon="1.7651059"><ele>233.0</ele><time>2026-04-27T11:16:14.375Z</time></trkpt><trkpt lat="41.4335745" lon="1.7649585"><ele>233.0</ele><time>2026-04-27T11:16:15.38Z</time></trkpt><trkpt lat="41.433659" lon="1.764813"><ele>233.0</ele><time>2026-04-27T11:16:16.378Z</time></trkpt><trkpt lat="41.4337427" lon="1.7646697"><ele>233.0</ele><time>2026-04-27T11:16:17.382Z</time></trkpt><trkpt lat="41.4338379" lon="1.7645347"><ele>233.0</ele><time>2026-04-27T11:16:18.375Z</time></trkpt><trkpt lat="41.4339439" lon="1.764399"><ele>233.0</ele><time>2026-04-27T11:16:19.377Z</time></trkpt><trkpt lat="41.4340643" lon="1.7642707"><ele>233.5</ele><time>2026-04-27T11:16:20.374Z</time></trkpt><trkpt lat="41.4341802" lon="1.7641524"><ele>234.0</ele><time>2026-04-27T11:16:21.376Z</time></trkpt><trkpt lat="41.4342906" lon="1.764028"><ele>234.5</ele><time>2026-04-27T11:16:22.378Z</time></trkpt><trkpt lat="41.4343823" lon="1.7638739"><ele>235.0</ele><time>2026-04-27T11:16:23.378Z</time></trkpt><trkpt lat="41.4344659" lon="1.7636973"><ele>234.33333333333331</ele><time>2026-04-27T11:16:24.371Z</time></trkpt><trkpt lat="41.4345436" lon="1.7634932"><ele>233.66666666666669</ele><time>2026-04-27T11:16:25.374Z</time></trkpt><trkpt lat="41.4345767" lon="1.7633014"><ele>233.0</ele><time>2026-04-27T11:16:26.371Z</time></trkpt><trkpt lat="41.4346104" lon="1.7631191"><ele>233.0</ele><time>2026-04-27T11:16:27.378Z</time></trkpt><trkpt lat="41.4346378" lon="1.7629252"><ele>233.0</ele><time>2026-04-27T11:16:28.378Z</time></trkpt><trkpt lat="41.434666" lon="1.7627288"><ele>233.0</ele><time>2026-04-27T11:16:29.377Z</time></trkpt><trkpt lat="41.434694" lon="1.7625331"><ele>233.0</ele><time>2026-04-27T11:16:30.375Z</time></trkpt><trkpt lat="41.4347141" lon="1.7623338"><ele>235.25</ele><time>2026-04-27T11:16:31.376Z</time></trkpt><trkpt lat="41.4347454" lon="1.7621468"><ele>237.5</ele><time>2026-04-27T11:16:32.376Z</time></trkpt><trkpt lat="41.4347773" lon="1.7619558"><ele>239.75</ele><time>2026-04-27T11:16:33.382Z</time></trkpt><trkpt lat="41.4348058" lon="1.7617601"><ele>242.0</ele><time>2026-04-27T11:16:34.377Z</time></trkpt><trkpt lat="41.4348275" lon="1.7615613"><ele>242.0</ele><time>2026-04-27T11:16:35.381Z</time></trkpt><trkpt lat="41.4348545" lon="1.7613513"><ele>242.0</ele><time>2026-04-27T11:16:36.378Z</time></trkpt><trkpt lat="41.4348837" lon="1.7611505"><ele>242.0</ele><time>2026-04-27T11:16:37.392Z</time></trkpt><trkpt lat="41.4349103" lon="1.7609457"><ele>242.33333333333334</ele><time>2026-04-27T11:16:38.377Z</time></trkpt><trkpt lat="41.4349453" lon="1.7607332"><ele>242.66666666666669</ele><time>2026-04-27T11:16:39.378Z</time></trkpt><trkpt lat="41.4349843" lon="1.7605173"><ele>243.0</ele><time>2026-04-27T11:16:40.376Z</time></trkpt><trkpt lat="41.435015" lon="1.760299"><ele>243.33333333333331</ele><time>2026-04-27T11:16:41.376Z</time></trkpt><trkpt lat="41.4350486" lon="1.7600802"><ele>243.66666666666666</ele><time>2026-04-27T11:16:42.377Z</time></trkpt><trkpt lat="41.4350869" lon="1.7598735"><ele>244.0</ele><time>2026-04-27T11:16:43.378Z</time></trkpt><trkpt lat="41.4351118" lon="1.7596658"><ele>244.0</ele><time>2026-04-27T11:16:44.377Z</time></trkpt><trkpt lat="41.4351482" lon="1.7594562"><ele>244.0</ele><time>2026-04-27T11:16:45.379Z</time></trkpt><trkpt lat="41.4351739" lon="1.7592446"><ele>244.0</ele><time>2026-04-27T11:16:46.373Z</time></trkpt><trkpt lat="41.4352043" lon="1.7590275"><ele>244.33333333333331</ele><time>2026-04-27T11:16:47.377Z</time></trkpt><trkpt lat="41.435231" lon="1.7588084"><ele>244.66666666666669</ele><time>2026-04-27T11:16:48.377Z</time></trkpt><trkpt lat="41.435261" lon="1.7585909"><ele>245.0</ele><time>2026-04-27T11:16:49.377Z</time></trkpt><trkpt lat="41.4352941" lon="1.7583719"><ele>245.66666666666669</ele><time>2026-04-27T11:16:50.376Z</time></trkpt><trkpt lat="41.4353194" lon="1.758154"><ele>246.33333333333331</ele><time>2026-04-27T11:16:51.376Z</time></trkpt><trkpt lat="41.4353408" lon="1.7579294"><ele>247.0</ele><time>2026-04-27T11:16:52.381Z</time></trkpt><trkpt lat="41.4353627" lon="1.7577074"><ele>248.0</ele><time>2026-04-27T11:16:53.375Z</time></trkpt><trkpt lat="41.4353661" lon="1.7574848"><ele>249.0</ele><time>2026-04-27T11:16:54.376Z</time></trkpt><trkpt lat="41.4353702" lon="1.7572672"><ele>250.0</ele><time>2026-04-27T11:16:55.379Z</time></trkpt><trkpt lat="41.4353702" lon="1.7570349"><ele>251.33333333333331</ele><time>2026-04-27T11:16:56.376Z</time></trkpt><trkpt lat="41.4353674" lon="1.7568173"><ele>252.66666666666669</ele><time>2026-04-27T11:16:57.377Z</time></trkpt><trkpt lat="41.435357" lon="1.756615"><ele>254.0</ele><time>2026-04-27T11:16:58.379Z</time></trkpt><trkpt lat="41.4353266" lon="1.7564084"><ele>254.0</ele><time>2026-04-27T11:16:59.37Z</time></trkpt><trkpt lat="41.4352721" lon="1.7562095"><ele>254.0</ele><time>2026-04-27T11:17:00.372Z</time></trkpt><trkpt lat="41.4351933" lon="1.7560093"><ele>254.0</ele><time>2026-04-27T11:17:01.373Z</time></trkpt><trkpt lat="41.4350999" lon="1.7558174"><ele>255.0</ele><time>2026-04-27T11:17:02.37Z</time></trkpt><trkpt lat="41.4349957" lon="1.7556606"><ele>256.0</ele><time>2026-04-27T11:17:03.371Z</time></trkpt><trkpt lat="41.4348787" lon="1.7555174"><ele>257.0</ele><time>2026-04-27T11:17:04.373Z</time></trkpt><trkpt lat="41.4347545" lon="1.7553953"><ele>258.0</ele><time>2026-04-27T11:17:05.371Z</time></trkpt><trkpt lat="41.434626" lon="1.7552932"><ele>259.0</ele><time>2026-04-27T11:17:06.374Z</time></trkpt><trkpt lat="41.4345047" lon="1.7552046"><ele>260.0</ele><time>2026-04-27T11:17:07.377Z</time></trkpt><trkpt lat="41.4343925" lon="1.7551126"><ele>261.0</ele><time>2026-04-27T11:17:08.383Z</time></trkpt><trkpt lat="41.4342983" lon="1.7550147"><ele>261.0</ele><time>2026-04-27T11:17:09.376Z</time></trkpt><trkpt lat="41.4342311" lon="1.7549116"><ele>261.0</ele><time>2026-04-27T11:17:10.369Z</time></trkpt><trkpt lat="41.4342071" lon="1.7547721"><ele>261.0</ele><time>2026-04-27T11:17:11.37Z</time></trkpt><trkpt lat="41.4341982" lon="1.7546159"><ele>261.0</ele><time>2026-04-27T11:17:12.367Z</time></trkpt><trkpt lat="41.4342004" lon="1.7544647"><ele>261.0</ele><time>2026-04-27T11:17:13.371Z</time></trkpt><trkpt lat="41.4342225" lon="1.7543141"><ele>261.0</ele><time>2026-04-27T11:17:14.376Z</time></trkpt><trkpt lat="41.434257" lon="1.754156"><ele>261.0</ele><time>2026-04-27T11:17:15.374Z</time></trkpt><trkpt lat="41.4342941" lon="1.7539927"><ele>261.0</ele><time>2026-04-27T11:17:16.369Z</time></trkpt><trkpt lat="41.434334" lon="1.7538196"><ele>261.0</ele><time>2026-04-27T11:17:17.377Z</time></trkpt><trkpt lat="41.4343755" lon="1.7536417"><ele>262.0</ele><time>2026-04-27T11:17:18.371Z</time></trkpt><trkpt lat="41.4344149" lon="1.7534537"><ele>263.0</ele><time>2026-04-27T11:17:19.368Z</time></trkpt><trkpt lat="41.4344457" lon="1.7532718"><ele>264.0</ele><time>2026-04-27T11:17:20.368Z</time></trkpt><trkpt lat="41.4344723" lon="1.7530873"><ele>265.0</ele><time>2026-04-27T11:17:21.371Z</time></trkpt><trkpt lat="41.4344929" lon="1.7528984"><ele>265.0</ele><time>2026-04-27T11:17:22.372Z</time></trkpt><trkpt lat="41.4345207" lon="1.752711"><ele>265.0</ele><time>2026-04-27T11:17:23.366Z</time></trkpt><trkpt lat="41.434557" lon="1.7525231"><ele>265.0</ele><time>2026-04-27T11:17:24.364Z</time></trkpt><trkpt lat="41.4345939" lon="1.7523268"><ele>265.0</ele><time>2026-04-27T11:17:25.368Z</time></trkpt><trkpt lat="41.4346271" lon="1.7521269"><ele>259.5</ele><time>2026-04-27T11:17:26.373Z</time></trkpt><trkpt lat="41.4346556" lon="1.7519308"><ele>254.0</ele><time>2026-04-27T11:17:27.377Z</time></trkpt><trkpt lat="41.4346951" lon="1.751756"><ele>248.5</ele><time>2026-04-27T11:17:28.377Z</time></trkpt><trkpt lat="41.4347409" lon="1.7515738"><ele>243.0</ele><time>2026-04-27T11:17:29.376Z</time></trkpt><trkpt lat="41.4347654" lon="1.7513828"><ele>243.0</ele><time>2026-04-27T11:17:30.369Z</time></trkpt><trkpt lat="41.4347698" lon="1.7511874"><ele>243.0</ele><time>2026-04-27T11:17:31.369Z</time></trkpt><trkpt lat="41.4347582" lon="1.751001"><ele>243.0</ele><time>2026-04-27T11:17:32.37Z</time></trkpt><trkpt lat="41.4347305" lon="1.7508135"><ele>243.0</ele><time>2026-04-27T11:17:33.373Z</time></trkpt><trkpt lat="41.4347152" lon="1.7506135"><ele>243.75</ele><time>2026-04-27T11:17:34.362Z</time></trkpt><trkpt lat="41.4346925" lon="1.7504128"><ele>244.5</ele><time>2026-04-27T11:17:35.376Z</time></trkpt><trkpt lat="41.4346633" lon="1.750234"><ele>245.25</ele><time>2026-04-27T11:17:36.37Z</time></trkpt><trkpt lat="41.4346317" lon="1.7500704"><ele>246.0</ele><time>2026-04-27T11:17:37.368Z</time></trkpt><trkpt lat="41.4346168" lon="1.7498858"><ele>245.75</ele><time>2026-04-27T11:17:38.361Z</time></trkpt><trkpt lat="41.4346247" lon="1.7497031"><ele>245.5</ele><time>2026-04-27T11:17:39.393Z</time></trkpt><trkpt lat="41.4346582" lon="1.7495214"><ele>245.25</ele><time>2026-04-27T11:17:40.362Z</time></trkpt><trkpt lat="41.4347349" lon="1.7493485"><ele>245.0</ele><time>2026-04-27T11:17:41.371Z</time></trkpt><trkpt lat="41.4348419" lon="1.7492099"><ele>245.75</ele><time>2026-04-27T11:17:42.369Z</time></trkpt><trkpt lat="41.4349493" lon="1.7490708"><ele>246.5</ele><time>2026-04-27T11:17:43.374Z</time></trkpt><trkpt lat="41.4350438" lon="1.7489244"><ele>247.25</ele><time>2026-04-27T11:17:44.373Z</time></trkpt><trkpt lat="41.4351361" lon="1.7487901"><ele>248.0</ele><time>2026-04-27T11:17:45.376Z</time></trkpt><trkpt lat="41.4352216" lon="1.7486563"><ele>249.0</ele><time>2026-04-27T11:17:46.37Z</time></trkpt><trkpt lat="41.4353771" lon="1.7484077"><ele>250.0</ele><time>2026-04-27T11:17:48.37Z</time></trkpt><trkpt lat="41.4354546" lon="1.7482763"><ele>251.0</ele><time>2026-04-27T11:17:49.372Z</time></trkpt><trkpt lat="41.435521" lon="1.7481398"><ele>247.5</ele><time>2026-04-27T11:17:50.369Z</time></trkpt><trkpt lat="41.43558" lon="1.7479837"><ele>244.0</ele><time>2026-04-27T11:17:51.366Z</time></trkpt><trkpt lat="41.4356094" lon="1.7478225"><ele>240.5</ele><time>2026-04-27T11:17:52.372Z</time></trkpt><trkpt lat="41.4356245" lon="1.7476541"><ele>237.0</ele><time>2026-04-27T11:17:53.374Z</time></trkpt><trkpt lat="41.4356228" lon="1.7474867"><ele>237.0</ele><time>2026-04-27T11:17:54.368Z</time></trkpt><trkpt lat="41.4355941" lon="1.7473145"><ele>237.0</ele><time>2026-04-27T11:17:55.371Z</time></trkpt><trkpt lat="41.4355396" lon="1.7471402"><ele>237.0</ele><time>2026-04-27T11:17:56.372Z</time></trkpt><trkpt lat="41.4354714" lon="1.7469659"><ele>237.0</ele><time>2026-04-27T11:17:57.374Z</time></trkpt><trkpt lat="41.4353873" lon="1.7467862"><ele>238.66666666666669</ele><time>2026-04-27T11:17:58.378Z</time></trkpt><trkpt lat="41.4353037" lon="1.7466137"><ele>240.33333333333334</ele><time>2026-04-27T11:17:59.375Z</time></trkpt><trkpt lat="41.4352158" lon="1.7464414"><ele>242.0</ele><time>2026-04-27T11:18:00.376Z</time></trkpt><trkpt lat="41.4351272" lon="1.7462684"><ele>242.0</ele><time>2026-04-27T11:18:01.373Z</time></trkpt><trkpt lat="41.4350463" lon="1.7460852"><ele>242.0</ele><time>2026-04-27T11:18:02.376Z</time></trkpt><trkpt lat="41.4349713" lon="1.7459169"><ele>242.0</ele><time>2026-04-27T11:18:03.374Z</time></trkpt><trkpt lat="41.4349205" lon="1.7457498"><ele>242.0</ele><time>2026-04-27T11:18:04.372Z</time></trkpt><trkpt lat="41.4349046" lon="1.7455774"><ele>239.66666666666669</ele><time>2026-04-27T11:18:05.377Z</time></trkpt><trkpt lat="41.4349298" lon="1.7453886"><ele>237.33333333333331</ele><time>2026-04-27T11:18:06.376Z</time></trkpt><trkpt lat="41.4349742" lon="1.7451819"><ele>235.0</ele><time>2026-04-27T11:18:07.372Z</time></trkpt><trkpt lat="41.4350292" lon="1.7449953"><ele>235.0</ele><time>2026-04-27T11:18:08.364Z</time></trkpt><trkpt lat="41.4350999" lon="1.7448183"><ele>235.0</ele><time>2026-04-27T11:18:09.375Z</time></trkpt><trkpt lat="41.4351834" lon="1.7446442"><ele>235.0</ele><time>2026-04-27T11:18:10.392Z</time></trkpt><trkpt lat="41.4352594" lon="1.7444817"><ele>235.0</ele><time>2026-04-27T11:18:11.368Z</time></trkpt><trkpt lat="41.4353239" lon="1.7443192"><ele>233.33333333333331</ele><time>2026-04-27T11:18:12.375Z</time></trkpt><trkpt lat="41.4353994" lon="1.7441523"><ele>231.66666666666669</ele><time>2026-04-27T11:18:13.368Z</time></trkpt><trkpt lat="41.4354768" lon="1.7439754"><ele>230.0</ele><time>2026-04-27T11:18:14.371Z</time></trkpt><trkpt lat="41.4355516" lon="1.7438013"><ele>230.0</ele><time>2026-04-27T11:18:15.37Z</time></trkpt><trkpt lat="41.435629" lon="1.7436296"><ele>230.0</ele><time>2026-04-27T11:18:16.368Z</time></trkpt><trkpt lat="41.4357036" lon="1.7434483"><ele>230.0</ele><time>2026-04-27T11:18:17.368Z</time></trkpt><trkpt lat="41.4357735" lon="1.7432564"><ele>231.66666666666669</ele><time>2026-04-27T11:18:18.367Z</time></trkpt><trkpt lat="41.4358416" lon="1.7430676"><ele>233.33333333333331</ele><time>2026-04-27T11:18:19.365Z</time></trkpt><trkpt lat="41.4359076" lon="1.7428695"><ele>235.0</ele><time>2026-04-27T11:18:20.37Z</time></trkpt><trkpt lat="41.4359616" lon="1.7426697"><ele>236.66666666666666</ele><time>2026-04-27T11:18:21.361Z</time></trkpt><trkpt lat="41.4360172" lon="1.7424846"><ele>238.33333333333331</ele><time>2026-04-27T11:18:22.371Z</time></trkpt><trkpt lat="41.4360757" lon="1.7422893"><ele>240.0</ele><time>2026-04-27T11:18:23.368Z</time></trkpt><trkpt lat="41.4361284" lon="1.7420975"><ele>240.0</ele><time>2026-04-27T11:18:24.369Z</time></trkpt><trkpt lat="41.4361783" lon="1.7419128"><ele>240.0</ele><time>2026-04-27T11:18:25.37Z</time></trkpt><trkpt lat="41.4362247" lon="1.7417318"><ele>240.0</ele><time>2026-04-27T11:18:26.369Z</time></trkpt><trkpt lat="41.4362688" lon="1.7415525"><ele>240.0</ele><time>2026-04-27T11:18:27.375Z</time></trkpt><trkpt lat="41.4363127" lon="1.7413643"><ele>237.66666666666669</ele><time>2026-04-27T11:18:28.376Z</time></trkpt><trkpt lat="41.4363584" lon="1.7411715"><ele>235.33333333333334</ele><time>2026-04-27T11:18:29.374Z</time></trkpt><trkpt lat="41.436407" lon="1.7409728"><ele>233.0</ele><time>2026-04-27T11:18:30.372Z</time></trkpt><trkpt lat="41.4364534" lon="1.7407695"><ele>233.0</ele><time>2026-04-27T11:18:31.372Z</time></trkpt><trkpt lat="41.4364992" lon="1.7405727"><ele>233.0</ele><time>2026-04-27T11:18:32.371Z</time></trkpt><trkpt lat="41.4365457" lon="1.7403723"><ele>233.0</ele><time>2026-04-27T11:18:33.371Z</time></trkpt><trkpt lat="41.4365932" lon="1.7401683"><ele>234.33333333333334</ele><time>2026-04-27T11:18:34.373Z</time></trkpt><trkpt lat="41.4366325" lon="1.7399671"><ele>235.66666666666669</ele><time>2026-04-27T11:18:35.371Z</time></trkpt><trkpt lat="41.436675" lon="1.7397631"><ele>237.0</ele><time>2026-04-27T11:18:36.368Z</time></trkpt><trkpt lat="41.4367197" lon="1.7395703"><ele>239.66666666666669</ele><time>2026-04-27T11:18:37.37Z</time></trkpt><trkpt lat="41.4367696" lon="1.7393786"><ele>242.33333333333334</ele><time>2026-04-27T11:18:38.365Z</time></trkpt><trkpt lat="41.4368" lon="1.7391848"><ele>245.0</ele><time>2026-04-27T11:18:39.365Z</time></trkpt><trkpt lat="41.4368392" lon="1.7389839"><ele>245.0</ele><time>2026-04-27T11:18:40.385Z</time></trkpt><trkpt lat="41.4368766" lon="1.7387945"><ele>245.0</ele><time>2026-04-27T11:18:41.364Z</time></trkpt><trkpt lat="41.436923" lon="1.7385953"><ele>245.0</ele><time>2026-04-27T11:18:42.365Z</time></trkpt><trkpt lat="41.4369682" lon="1.7384029"><ele>244.5</ele><time>2026-04-27T11:18:43.37Z</time></trkpt><trkpt lat="41.4370065" lon="1.7382149"><ele>244.0</ele><time>2026-04-27T11:18:44.377Z</time></trkpt><trkpt lat="41.4370428" lon="1.7380218"><ele>243.5</ele><time>2026-04-27T11:18:45.38Z</time></trkpt><trkpt lat="41.4370857" lon="1.7378329"><ele>243.0</ele><time>2026-04-27T11:18:46.373Z</time></trkpt><trkpt lat="41.4371458" lon="1.7376329"><ele>240.33333333333331</ele><time>2026-04-27T11:18:47.375Z</time></trkpt><trkpt lat="41.4372" lon="1.7374395"><ele>237.66666666666666</ele><time>2026-04-27T11:18:48.373Z</time></trkpt><trkpt lat="41.4372546" lon="1.7372466"><ele>235.0</ele><time>2026-04-27T11:18:49.37Z</time></trkpt><trkpt lat="41.4373012" lon="1.7370563"><ele>236.33333333333331</ele><time>2026-04-27T11:18:50.376Z</time></trkpt><trkpt lat="41.4373498" lon="1.7368577"><ele>237.66666666666669</ele><time>2026-04-27T11:18:51.374Z</time></trkpt><trkpt lat="41.4373909" lon="1.7366652"><ele>239.0</ele><time>2026-04-27T11:18:52.378Z</time></trkpt><trkpt lat="41.4374318" lon="1.7364738"><ele>239.0</ele><time>2026-04-27T11:18:53.377Z</time></trkpt><trkpt lat="41.437475" lon="1.7362759"><ele>239.0</ele><time>2026-04-27T11:18:54.374Z</time></trkpt><trkpt lat="41.4375208" lon="1.7360784"><ele>239.0</ele><time>2026-04-27T11:18:55.376Z</time></trkpt><trkpt lat="41.4375816" lon="1.7358899"><ele>240.33333333333334</ele><time>2026-04-27T11:18:56.375Z</time></trkpt><trkpt lat="41.4376527" lon="1.7357053"><ele>241.66666666666669</ele><time>2026-04-27T11:18:57.377Z</time></trkpt><trkpt lat="41.4377289" lon="1.7355194"><ele>243.0</ele><time>2026-04-27T11:18:58.381Z</time></trkpt><trkpt lat="41.4378086" lon="1.7353489"><ele>242.0</ele><time>2026-04-27T11:18:59.381Z</time></trkpt><trkpt lat="41.4378909" lon="1.7351801"><ele>241.0</ele><time>2026-04-27T11:19:00.373Z</time></trkpt><trkpt lat="41.4379661" lon="1.7350116"><ele>240.0</ele><time>2026-04-27T11:19:01.375Z</time></trkpt><trkpt lat="41.4380469" lon="1.734866"><ele>239.0</ele><time>2026-04-27T11:19:02.361Z</time></trkpt><trkpt lat="41.4381396" lon="1.7347367"><ele>239.0</ele><time>2026-04-27T11:19:03.371Z</time></trkpt><trkpt lat="41.4382655" lon="1.7346178"><ele>239.0</ele><time>2026-04-27T11:19:04.373Z</time></trkpt><trkpt lat="41.4383906" lon="1.7345149"><ele>239.0</ele><time>2026-04-27T11:19:05.375Z</time></trkpt><trkpt lat="41.4385132" lon="1.7344315"><ele>239.0</ele><time>2026-04-27T11:19:06.37Z</time></trkpt><trkpt lat="41.4386517" lon="1.7343472"><ele>238.66666666666669</ele><time>2026-04-27T11:19:07.372Z</time></trkpt><trkpt lat="41.4387929" lon="1.7342719"><ele>238.33333333333331</ele><time>2026-04-27T11:19:08.373Z</time></trkpt><trkpt lat="41.4389336" lon="1.7341917"><ele>238.0</ele><time>2026-04-27T11:19:09.38Z</time></trkpt><trkpt lat="41.4390643" lon="1.7340934"><ele>238.0</ele><time>2026-04-27T11:19:10.376Z</time></trkpt><trkpt lat="41.4391798" lon="1.7339958"><ele>238.0</ele><time>2026-04-27T11:19:11.395Z</time></trkpt><trkpt lat="41.4392975" lon="1.7338888"><ele>238.0</ele><time>2026-04-27T11:19:12.375Z</time></trkpt><trkpt lat="41.4394058" lon="1.7337621"><ele>238.0</ele><time>2026-04-27T11:19:13.378Z</time></trkpt><trkpt lat="41.4394916" lon="1.733616"><ele>237.25</ele><time>2026-04-27T11:19:14.375Z</time></trkpt><trkpt lat="41.4395659" lon="1.7334614"><ele>236.5</ele><time>2026-04-27T11:19:15.378Z</time></trkpt><trkpt lat="41.4396206" lon="1.7332939"><ele>235.75</ele><time>2026-04-27T11:19:16.374Z</time></trkpt><trkpt lat="41.4396627" lon="1.7331171"><ele>235.0</ele><time>2026-04-27T11:19:17.377Z</time></trkpt><trkpt lat="41.4396997" lon="1.7329368"><ele>235.0</ele><time>2026-04-27T11:19:18.369Z</time></trkpt><trkpt lat="41.439734" lon="1.7327604"><ele>235.0</ele><time>2026-04-27T11:19:19.373Z</time></trkpt><trkpt lat="41.4397748" lon="1.7325865"><ele>235.0</ele><time>2026-04-27T11:19:20.371Z</time></trkpt><trkpt lat="41.4398267" lon="1.7324046"><ele>235.0</ele><time>2026-04-27T11:19:21.375Z</time></trkpt><trkpt lat="41.4398794" lon="1.7322295"><ele>235.0</ele><time>2026-04-27T11:19:22.377Z</time></trkpt><trkpt lat="41.4399374" lon="1.7320387"><ele>235.0</ele><time>2026-04-27T11:19:23.379Z</time></trkpt><trkpt lat="41.4399778" lon="1.7318508"><ele>235.0</ele><time>2026-04-27T11:19:24.374Z</time></trkpt><trkpt lat="41.4400244" lon="1.7316747"><ele>235.0</ele><time>2026-04-27T11:19:25.377Z</time></trkpt><trkpt lat="41.440074" lon="1.7314997"><ele>236.25</ele><time>2026-04-27T11:19:26.372Z</time></trkpt><trkpt lat="41.4401235" lon="1.7313242"><ele>237.5</ele><time>2026-04-27T11:19:27.376Z</time></trkpt><trkpt lat="41.4401713" lon="1.7311427"><ele>238.75</ele><time>2026-04-27T11:19:28.379Z</time></trkpt><trkpt lat="41.440224" lon="1.7309821"><ele>240.0</ele><time>2026-04-27T11:19:29.373Z</time></trkpt><trkpt lat="41.440265" lon="1.7308035"><ele>240.25</ele><time>2026-04-27T11:19:30.373Z</time></trkpt><trkpt lat="41.4403096" lon="1.7306256"><ele>240.5</ele><time>2026-04-27T11:19:31.371Z</time></trkpt><trkpt lat="41.4403613" lon="1.7304362"><ele>240.75</ele><time>2026-04-27T11:19:32.371Z</time></trkpt><trkpt lat="41.4404165" lon="1.7302642"><ele>241.0</ele><time>2026-04-27T11:19:33.367Z</time></trkpt><trkpt lat="41.4404732" lon="1.7300985"><ele>241.0</ele><time>2026-04-27T11:19:34.377Z</time></trkpt><trkpt lat="41.4405279" lon="1.7299302"><ele>241.0</ele><time>2026-04-27T11:19:35.373Z</time></trkpt><trkpt lat="41.440586" lon="1.7297614"><ele>241.0</ele><time>2026-04-27T11:19:36.377Z</time></trkpt><trkpt lat="41.4406432" lon="1.7295956"><ele>241.0</ele><time>2026-04-27T11:19:37.372Z</time></trkpt><trkpt lat="41.4407055" lon="1.7294286"><ele>242.66666666666666</ele><time>2026-04-27T11:19:38.373Z</time></trkpt><trkpt lat="41.4407713" lon="1.7292575"><ele>244.33333333333331</ele><time>2026-04-27T11:19:39.369Z</time></trkpt><trkpt lat="41.4408294" lon="1.7290805"><ele>246.0</ele><time>2026-04-27T11:19:40.371Z</time></trkpt><trkpt lat="41.4409086" lon="1.7287323"><ele>246.0</ele><time>2026-04-27T11:19:42.387Z</time></trkpt><trkpt lat="41.440953" lon="1.7285599"><ele>246.0</ele><time>2026-04-27T11:19:43.374Z</time></trkpt><trkpt lat="41.4409987" lon="1.7283777"><ele>246.0</ele><time>2026-04-27T11:19:44.375Z</time></trkpt><trkpt lat="41.4410468" lon="1.7281941"><ele>246.0</ele><time>2026-04-27T11:19:45.374Z</time></trkpt><trkpt lat="41.441097" lon="1.7280149"><ele>246.75</ele><time>2026-04-27T11:19:46.375Z</time></trkpt><trkpt lat="41.4411514" lon="1.7278349"><ele>247.5</ele><time>2026-04-27T11:19:47.377Z</time></trkpt><trkpt lat="41.4412124" lon="1.727665"><ele>248.25</ele><time>2026-04-27T11:19:48.372Z</time></trkpt><trkpt lat="41.4412697" lon="1.7274871"><ele>249.0</ele><time>2026-04-27T11:19:49.377Z</time></trkpt><trkpt lat="41.4413291" lon="1.7273066"><ele>248.0</ele><time>2026-04-27T11:19:50.378Z</time></trkpt><trkpt lat="41.4413918" lon="1.7271223"><ele>247.0</ele><time>2026-04-27T11:19:51.376Z</time></trkpt><trkpt lat="41.4414421" lon="1.7269522"><ele>246.0</ele><time>2026-04-27T11:19:52.38Z</time></trkpt><trkpt lat="41.4414905" lon="1.7267807"><ele>245.0</ele><time>2026-04-27T11:19:53.375Z</time></trkpt><trkpt lat="41.441544" lon="1.7266092"><ele>245.0</ele><time>2026-04-27T11:19:54.382Z</time></trkpt><trkpt lat="41.4416006" lon="1.726443"><ele>245.0</ele><time>2026-04-27T11:19:55.379Z</time></trkpt><trkpt lat="41.4416564" lon="1.7262797"><ele>245.0</ele><time>2026-04-27T11:19:56.373Z</time></trkpt><trkpt lat="41.4417106" lon="1.7261102"><ele>245.0</ele><time>2026-04-27T11:19:57.381Z</time></trkpt><trkpt lat="41.4417674" lon="1.7259378"><ele>245.75</ele><time>2026-04-27T11:19:58.385Z</time></trkpt><trkpt lat="41.4418228" lon="1.7257569"><ele>246.5</ele><time>2026-04-27T11:19:59.386Z</time></trkpt><trkpt lat="41.4418778" lon="1.7255837"><ele>247.25</ele><time>2026-04-27T11:20:00.378Z</time></trkpt><trkpt lat="41.4419326" lon="1.7254148"><ele>248.0</ele><time>2026-04-27T11:20:01.381Z</time></trkpt><trkpt lat="41.4419832" lon="1.7252396"><ele>249.0</ele><time>2026-04-27T11:20:02.371Z</time></trkpt><trkpt lat="41.4420213" lon="1.7250626"><ele>250.0</ele><time>2026-04-27T11:20:03.362Z</time></trkpt><trkpt lat="41.4420485" lon="1.7249137"><ele>251.0</ele><time>2026-04-27T11:20:04.374Z</time></trkpt><trkpt lat="41.4420791" lon="1.7247776"><ele>252.0</ele><time>2026-04-27T11:20:05.36Z</time></trkpt><trkpt lat="41.4420497" lon="1.7246638"><ele>252.0</ele><time>2026-04-27T11:20:06.375Z</time></trkpt><trkpt lat="41.44204" lon="1.7245513"><ele>252.0</ele><time>2026-04-27T11:20:07.374Z</time></trkpt><trkpt lat="41.4420385" lon="1.7244335"><ele>252.0</ele><time>2026-04-27T11:20:08.371Z</time></trkpt><trkpt lat="41.4420433" lon="1.7243114"><ele>252.0</ele><time>2026-04-27T11:20:09.375Z</time></trkpt><trkpt lat="41.4420497" lon="1.7241873"><ele>252.0</ele><time>2026-04-27T11:20:10.376Z</time></trkpt><trkpt lat="41.4420516" lon="1.7240655"><ele>252.0</ele><time>2026-04-27T11:20:11.37Z</time></trkpt><trkpt lat="41.4420525" lon="1.7239381"><ele>251.66666666666666</ele><time>2026-04-27T11:20:12.375Z</time></trkpt><trkpt lat="41.4420614" lon="1.7238164"><ele>251.33333333333331</ele><time>2026-04-27T11:20:13.384Z</time></trkpt><trkpt lat="41.4420724" lon="1.7237017"><ele>251.0</ele><time>2026-04-27T11:20:14.365Z</time></trkpt><trkpt lat="41.4421123" lon="1.7236089"><ele>250.66666666666666</ele><time>2026-04-27T11:20:15.367Z</time></trkpt><trkpt lat="41.4421692" lon="1.7235301"><ele>250.33333333333331</ele><time>2026-04-27T11:20:16.376Z</time></trkpt><trkpt lat="41.4422422" lon="1.7234691"><ele>250.0</ele><time>2026-04-27T11:20:17.37Z</time></trkpt><trkpt lat="41.4423213" lon="1.7234269"><ele>248.6</ele><time>2026-04-27T11:20:18.371Z</time></trkpt><trkpt lat="41.4424087" lon="1.723385"><ele>247.2</ele><time>2026-04-27T11:20:19.366Z</time></trkpt><trkpt lat="41.4425023" lon="1.7233445"><ele>245.8</ele><time>2026-04-27T11:20:20.366Z</time></trkpt><trkpt lat="41.4425978" lon="1.7232979"><ele>244.4</ele><time>2026-04-27T11:20:21.377Z</time></trkpt><trkpt lat="41.4426889" lon="1.7232529"><ele>243.0</ele><time>2026-04-27T11:20:22.372Z</time></trkpt><trkpt lat="41.4427755" lon="1.7231994"><ele>243.0</ele><time>2026-04-27T11:20:23.37Z</time></trkpt><trkpt lat="41.4428579" lon="1.7231421"><ele>243.0</ele><time>2026-04-27T11:20:24.364Z</time></trkpt><trkpt lat="41.4429455" lon="1.7230708"><ele>243.0</ele><time>2026-04-27T11:20:25.362Z</time></trkpt><trkpt lat="41.4430338" lon="1.7230004"><ele>243.0</ele><time>2026-04-27T11:20:26.364Z</time></trkpt><trkpt lat="41.4431259" lon="1.7229402"><ele>243.0</ele><time>2026-04-27T11:20:27.366Z</time></trkpt><trkpt lat="41.4432207" lon="1.7228969"><ele>241.4</ele><time>2026-04-27T11:20:28.369Z</time></trkpt><trkpt lat="41.4433202" lon="1.7228758"><ele>239.8</ele><time>2026-04-27T11:20:29.373Z</time></trkpt><trkpt lat="41.4434207" lon="1.722901"><ele>238.2</ele><time>2026-04-27T11:20:30.367Z</time></trkpt><trkpt lat="41.4435153" lon="1.7229476"><ele>236.6</ele><time>2026-04-27T11:20:31.369Z</time></trkpt><trkpt lat="41.4436005" lon="1.7229951"><ele>235.0</ele><time>2026-04-27T11:20:32.368Z</time></trkpt><trkpt lat="41.4436766" lon="1.723053"><ele>235.0</ele><time>2026-04-27T11:20:33.372Z</time></trkpt><trkpt lat="41.4437454" lon="1.7231093"><ele>234.99999999999997</ele><time>2026-04-27T11:20:34.372Z</time></trkpt><trkpt lat="41.4438141" lon="1.7231578"><ele>235.0</ele><time>2026-04-27T11:20:35.374Z</time></trkpt><trkpt lat="41.4438839" lon="1.7231839"><ele>235.0</ele><time>2026-04-27T11:20:36.367Z</time></trkpt><trkpt lat="41.4439538" lon="1.723194"><ele>234.99999999999997</ele><time>2026-04-27T11:20:37.377Z</time></trkpt><trkpt lat="41.4440217" lon="1.7231789"><ele>235.0</ele><time>2026-04-27T11:20:38.372Z</time></trkpt><trkpt lat="41.4440921" lon="1.7231475"><ele>235.0</ele><time>2026-04-27T11:20:39.374Z</time></trkpt><trkpt lat="41.4441623" lon="1.7231083"><ele>235.99999999999997</ele><time>2026-04-27T11:20:40.365Z</time></trkpt><trkpt lat="41.444228" lon="1.7230637"><ele>237.0</ele><time>2026-04-27T11:20:41.372Z</time></trkpt><trkpt lat="41.444298" lon="1.7230135"><ele>238.0</ele><time>2026-04-27T11:20:42.373Z</time></trkpt><trkpt lat="41.4443722" lon="1.7229564"><ele>239.0</ele><time>2026-04-27T11:20:43.375Z</time></trkpt><trkpt lat="41.4444441" lon="1.7228958"><ele>239.99999999999997</ele><time>2026-04-27T11:20:44.386Z</time></trkpt><trkpt lat="41.4445176" lon="1.7228319"><ele>241.0</ele><time>2026-04-27T11:20:45.376Z</time></trkpt><trkpt lat="41.4445944" lon="1.7227596"><ele>240.8</ele><time>2026-04-27T11:20:46.372Z</time></trkpt><trkpt lat="41.4446669" lon="1.7226711"><ele>240.60000000000002</ele><time>2026-04-27T11:20:47.371Z</time></trkpt><trkpt lat="41.4447299" lon="1.7225744"><ele>240.4</ele><time>2026-04-27T11:20:48.365Z</time></trkpt><trkpt lat="41.4447842" lon="1.7224668"><ele>240.2</ele><time>2026-04-27T11:20:49.378Z</time></trkpt><trkpt lat="41.4448284" lon="1.7223525"><ele>240.0</ele><time>2026-04-27T11:20:50.37Z</time></trkpt><trkpt lat="41.4448689" lon="1.7222337"><ele>240.0</ele><time>2026-04-27T11:20:51.377Z</time></trkpt><trkpt lat="41.4449033" lon="1.7221154"><ele>240.0</ele><time>2026-04-27T11:20:52.378Z</time></trkpt><trkpt lat="41.444932" lon="1.7220013"><ele>240.0</ele><time>2026-04-27T11:20:53.379Z</time></trkpt><trkpt lat="41.4449625" lon="1.7218877"><ele>240.0</ele><time>2026-04-27T11:20:54.375Z</time></trkpt><trkpt lat="41.4449974" lon="1.7217681"><ele>240.0</ele><time>2026-04-27T11:20:55.377Z</time></trkpt><trkpt lat="41.4450328" lon="1.7216464"><ele>242.0</ele><time>2026-04-27T11:20:56.375Z</time></trkpt><trkpt lat="41.44507" lon="1.7215188"><ele>244.0</ele><time>2026-04-27T11:20:57.376Z</time></trkpt><trkpt lat="41.4451085" lon="1.7213919"><ele>246.0</ele><time>2026-04-27T11:20:58.38Z</time></trkpt><trkpt lat="41.4451496" lon="1.7212642"><ele>248.0</ele><time>2026-04-27T11:20:59.372Z</time></trkpt><trkpt lat="41.4451947" lon="1.7211351"><ele>250.0</ele><time>2026-04-27T11:21:00.371Z</time></trkpt><trkpt lat="41.4452431" lon="1.7210015"><ele>251.6</ele><time>2026-04-27T11:21:01.374Z</time></trkpt><trkpt lat="41.4452911" lon="1.7208717"><ele>253.2</ele><time>2026-04-27T11:21:02.369Z</time></trkpt><trkpt lat="41.4453314" lon="1.7207399"><ele>254.8</ele><time>2026-04-27T11:21:03.373Z</time></trkpt><trkpt lat="41.4453683" lon="1.7205991"><ele>256.4</ele><time>2026-04-27T11:21:04.368Z</time></trkpt><trkpt lat="41.4453995" lon="1.7204539"><ele>258.0</ele><time>2026-04-27T11:21:05.376Z</time></trkpt><trkpt lat="41.4454257" lon="1.7203099"><ele>259.0</ele><time>2026-04-27T11:21:06.373Z</time></trkpt><trkpt lat="41.4454458" lon="1.7201661"><ele>260.0</ele><time>2026-04-27T11:21:07.374Z</time></trkpt><trkpt lat="41.4454619" lon="1.7200229"><ele>261.0</ele><time>2026-04-27T11:21:08.368Z</time></trkpt><trkpt lat="41.4454789" lon="1.7198766"><ele>262.0</ele><time>2026-04-27T11:21:09.369Z</time></trkpt><trkpt lat="41.4454959" lon="1.7197288"><ele>263.0</ele><time>2026-04-27T11:21:10.369Z</time></trkpt><trkpt lat="41.4455069" lon="1.7195858"><ele>259.6</ele><time>2026-04-27T11:21:11.369Z</time></trkpt><trkpt lat="41.4455205" lon="1.7194412"><ele>256.20000000000005</ele><time>2026-04-27T11:21:12.371Z</time></trkpt><trkpt lat="41.4455389" lon="1.7192971"><ele>252.8</ele><time>2026-04-27T11:21:13.371Z</time></trkpt><trkpt lat="41.4455625" lon="1.7191501"><ele>249.4</ele><time>2026-04-27T11:21:14.372Z</time></trkpt><trkpt lat="41.4455806" lon="1.7190009"><ele>246.0</ele><time>2026-04-27T11:21:15.385Z</time></trkpt><trkpt lat="41.4456001" lon="1.7188624"><ele>246.0</ele><time>2026-04-27T11:21:16.37Z</time></trkpt><trkpt lat="41.4456294" lon="1.7187188"><ele>246.00000000000003</ele><time>2026-04-27T11:21:17.374Z</time></trkpt><trkpt lat="41.4456701" lon="1.7185837"><ele>246.00000000000003</ele><time>2026-04-27T11:21:18.364Z</time></trkpt><trkpt lat="41.4457207" lon="1.7184535"><ele>246.0</ele><time>2026-04-27T11:21:19.374Z</time></trkpt><trkpt lat="41.4457809" lon="1.7183302"><ele>246.0</ele><time>2026-04-27T11:21:20.37Z</time></trkpt><trkpt lat="41.4458404" lon="1.7182111"><ele>246.60000000000002</ele><time>2026-04-27T11:21:21.369Z</time></trkpt><trkpt lat="41.4459013" lon="1.7181041"><ele>247.20000000000002</ele><time>2026-04-27T11:21:22.375Z</time></trkpt><trkpt lat="41.4459587" lon="1.7179913"><ele>247.79999999999998</ele><time>2026-04-27T11:21:23.372Z</time></trkpt><trkpt lat="41.4459993" lon="1.7178758"><ele>248.39999999999998</ele><time>2026-04-27T11:21:24.372Z</time></trkpt><trkpt lat="41.446017" lon="1.7177495"><ele>249.0</ele><time>2026-04-27T11:21:25.37Z</time></trkpt><trkpt lat="41.4460212" lon="1.7176174"><ele>249.39999999999998</ele><time>2026-04-27T11:21:26.369Z</time></trkpt><trkpt lat="41.445994" lon="1.7174943"><ele>249.79999999999998</ele><time>2026-04-27T11:21:27.377Z</time></trkpt><trkpt lat="41.4459492" lon="1.7173898"><ele>250.20000000000002</ele><time>2026-04-27T11:21:28.368Z</time></trkpt><trkpt lat="41.4458731" lon="1.717289"><ele>250.60000000000002</ele><time>2026-04-27T11:21:29.366Z</time></trkpt><trkpt lat="41.4457799" lon="1.7171915"><ele>251.0</ele><time>2026-04-27T11:21:30.372Z</time></trkpt><trkpt lat="41.4456909" lon="1.7170842"><ele>251.0</ele><time>2026-04-27T11:21:31.374Z</time></trkpt><trkpt lat="41.4456137" lon="1.7169749"><ele>251.00000000000003</ele><time>2026-04-27T11:21:32.368Z</time></trkpt><trkpt lat="41.4455507" lon="1.7168532"><ele>251.00000000000003</ele><time>2026-04-27T11:21:33.373Z</time></trkpt><trkpt lat="41.4455102" lon="1.7167209"><ele>251.0</ele><time>2026-04-27T11:21:34.373Z</time></trkpt><trkpt lat="41.4454843" lon="1.7165828"><ele>251.0</ele><time>2026-04-27T11:21:35.373Z</time></trkpt><trkpt lat="41.4454612" lon="1.7164475"><ele>252.20000000000002</ele><time>2026-04-27T11:21:36.372Z</time></trkpt><trkpt lat="41.445446" lon="1.7163189"><ele>253.40000000000003</ele><time>2026-04-27T11:21:37.37Z</time></trkpt><trkpt lat="41.4454369" lon="1.7161922"><ele>254.6</ele><time>2026-04-27T11:21:38.369Z</time></trkpt><trkpt lat="41.4454466" lon="1.7160706"><ele>255.8</ele><time>2026-04-27T11:21:39.365Z</time></trkpt><trkpt lat="41.4454773" lon="1.7159525"><ele>257.0</ele><time>2026-04-27T11:21:40.363Z</time></trkpt><trkpt lat="41.4455258" lon="1.7158457"><ele>257.0</ele><time>2026-04-27T11:21:41.37Z</time></trkpt><trkpt lat="41.4456041" lon="1.7157831"><ele>257.0</ele><time>2026-04-27T11:21:42.374Z</time></trkpt><trkpt lat="41.4457036" lon="1.7157685"><ele>257.0</ele><time>2026-04-27T11:21:43.364Z</time></trkpt><trkpt lat="41.4458052" lon="1.7157455"><ele>257.0</ele><time>2026-04-27T11:21:44.359Z</time></trkpt><trkpt lat="41.4459081" lon="1.7156935"><ele>257.0</ele><time>2026-04-27T11:21:45.368Z</time></trkpt><trkpt lat="41.4460003" lon="1.7155998"><ele>257.0</ele><time>2026-04-27T11:21:46.383Z</time></trkpt><trkpt lat="41.4460815" lon="1.7154857"><ele>257.0</ele><time>2026-04-27T11:21:47.372Z</time></trkpt><trkpt lat="41.4461508" lon="1.7153628"><ele>257.0</ele><time>2026-04-27T11:21:48.375Z</time></trkpt><trkpt lat="41.4462089" lon="1.7152326"><ele>257.0</ele><time>2026-04-27T11:21:49.366Z</time></trkpt><trkpt lat="41.4462587" lon="1.7150874"><ele>255.5</ele><time>2026-04-27T11:21:50.369Z</time></trkpt><trkpt lat="41.446301" lon="1.7149321"><ele>254.0</ele><time>2026-04-27T11:21:51.37Z</time></trkpt><trkpt lat="41.4463312" lon="1.7147711"><ele>252.5</ele><time>2026-04-27T11:21:52.372Z</time></trkpt><trkpt lat="41.4463346" lon="1.7145993"><ele>251.0</ele><time>2026-04-27T11:21:53.368Z</time></trkpt><trkpt lat="41.4463281" lon="1.7144216"><ele>251.75</ele><time>2026-04-27T11:21:54.371Z</time></trkpt><trkpt lat="41.4463204" lon="1.7142357"><ele>252.5</ele><time>2026-04-27T11:21:55.369Z</time></trkpt><trkpt lat="41.4463106" lon="1.7140481"><ele>253.25</ele><time>2026-04-27T11:21:56.371Z</time></trkpt><trkpt lat="41.4463017" lon="1.7138663"><ele>254.0</ele><time>2026-04-27T11:21:57.371Z</time></trkpt><trkpt lat="41.4462954" lon="1.7136896"><ele>258.75</ele><time>2026-04-27T11:21:58.371Z</time></trkpt><trkpt lat="41.4462832" lon="1.7135008"><ele>263.5</ele><time>2026-04-27T11:21:59.371Z</time></trkpt><trkpt lat="41.4462869" lon="1.7133141"><ele>268.25</ele><time>2026-04-27T11:22:00.37Z</time></trkpt><trkpt lat="41.4462889" lon="1.7131318"><ele>273.0</ele><time>2026-04-27T11:22:01.371Z</time></trkpt><trkpt lat="41.4462888" lon="1.7129451"><ele>273.0</ele><time>2026-04-27T11:22:02.371Z</time></trkpt><trkpt lat="41.446294" lon="1.7127631"><ele>273.0</ele><time>2026-04-27T11:22:03.371Z</time></trkpt><trkpt lat="41.4463011" lon="1.7125816"><ele>273.0</ele><time>2026-04-27T11:22:04.365Z</time></trkpt><trkpt lat="41.4462992" lon="1.7123906"><ele>273.0</ele><time>2026-04-27T11:22:05.379Z</time></trkpt><trkpt lat="41.4463006" lon="1.7122118"><ele>270.25</ele><time>2026-04-27T11:22:06.373Z</time></trkpt><trkpt lat="41.4463007" lon="1.7120433"><ele>267.5</ele><time>2026-04-27T11:22:07.377Z</time></trkpt><trkpt lat="41.4463091" lon="1.7118795"><ele>264.75</ele><time>2026-04-27T11:22:08.366Z</time></trkpt><trkpt lat="41.446311" lon="1.7117042"><ele>262.0</ele><time>2026-04-27T11:22:09.382Z</time></trkpt><trkpt lat="41.4463113" lon="1.7115274"><ele>262.0</ele><time>2026-04-27T11:22:10.373Z</time></trkpt><trkpt lat="41.446312" lon="1.711342"><ele>262.0</ele><time>2026-04-27T11:22:11.372Z</time></trkpt><trkpt lat="41.4463101" lon="1.7111651"><ele>262.0</ele><time>2026-04-27T11:22:12.368Z</time></trkpt><trkpt lat="41.446307" lon="1.7109965"><ele>262.0</ele><time>2026-04-27T11:22:13.37Z</time></trkpt><trkpt lat="41.4463023" lon="1.7108363"><ele>261.5</ele><time>2026-04-27T11:22:14.373Z</time></trkpt><trkpt lat="41.4463034" lon="1.7106798"><ele>261.0</ele><time>2026-04-27T11:22:15.373Z</time></trkpt><trkpt lat="41.4463106" lon="1.7105242"><ele>260.5</ele><time>2026-04-27T11:22:16.366Z</time></trkpt><trkpt lat="41.4463239" lon="1.7103682"><ele>260.0</ele><time>2026-04-27T11:22:17.386Z</time></trkpt><trkpt lat="41.4463602" lon="1.7102104"><ele>259.5</ele><time>2026-04-27T11:22:18.367Z</time></trkpt><trkpt lat="41.4464073" lon="1.7100499"><ele>259.0</ele><time>2026-04-27T11:22:19.371Z</time></trkpt><trkpt lat="41.44646" lon="1.7098943"><ele>258.5</ele><time>2026-04-27T11:22:20.37Z</time></trkpt><trkpt lat="41.4465205" lon="1.7097369"><ele>258.0</ele><time>2026-04-27T11:22:21.377Z</time></trkpt><trkpt lat="41.4465819" lon="1.7095802"><ele>258.0</ele><time>2026-04-27T11:22:22.375Z</time></trkpt><trkpt lat="41.4466468" lon="1.7094284"><ele>258.0</ele><time>2026-04-27T11:22:23.378Z</time></trkpt><trkpt lat="41.4467071" lon="1.7092783"><ele>258.0</ele><time>2026-04-27T11:22:24.367Z</time></trkpt><trkpt lat="41.4467642" lon="1.7091406"><ele>258.0</ele><time>2026-04-27T11:22:25.374Z</time></trkpt><trkpt lat="41.4468177" lon="1.7090134"><ele>258.4</ele><time>2026-04-27T11:22:26.367Z</time></trkpt><trkpt lat="41.4468729" lon="1.7088987"><ele>258.8</ele><time>2026-04-27T11:22:27.377Z</time></trkpt><trkpt lat="41.4469386" lon="1.7087948"><ele>259.2</ele><time>2026-04-27T11:22:28.374Z</time></trkpt><trkpt lat="41.4470231" lon="1.7087222"><ele>259.6</ele><time>2026-04-27T11:22:29.37Z</time></trkpt><trkpt lat="41.447127" lon="1.7086715"><ele>260.0</ele><time>2026-04-27T11:22:30.37Z</time></trkpt><trkpt lat="41.4472436" lon="1.7086638"><ele>258.5</ele><time>2026-04-27T11:22:31.373Z</time></trkpt><trkpt lat="41.4473666" lon="1.7086625"><ele>257.0</ele><time>2026-04-27T11:22:32.368Z</time></trkpt><trkpt lat="41.4474867" lon="1.7086567"><ele>255.5</ele><time>2026-04-27T11:22:33.373Z</time></trkpt><trkpt lat="41.4475985" lon="1.708629"><ele>254.0</ele><time>2026-04-27T11:22:34.37Z</time></trkpt><trkpt lat="41.4477036" lon="1.7085765"><ele>255.0</ele><time>2026-04-27T11:22:35.372Z</time></trkpt><trkpt lat="41.4478006" lon="1.7085053"><ele>256.0</ele><time>2026-04-27T11:22:36.363Z</time></trkpt><trkpt lat="41.4478946" lon="1.7084182"><ele>257.0</ele><time>2026-04-27T11:22:37.369Z</time></trkpt><trkpt lat="41.4479884" lon="1.708326"><ele>258.0</ele><time>2026-04-27T11:22:38.37Z</time></trkpt><trkpt lat="41.448075" lon="1.7082361"><ele>258.0</ele><time>2026-04-27T11:22:39.369Z</time></trkpt><trkpt lat="41.4481544" lon="1.7081529"><ele>258.0</ele><time>2026-04-27T11:22:40.358Z</time></trkpt><trkpt lat="41.448231" lon="1.7080686"><ele>258.0</ele><time>2026-04-27T11:22:41.376Z</time></trkpt><trkpt lat="41.4483043" lon="1.7079893"><ele>258.0</ele><time>2026-04-27T11:22:42.367Z</time></trkpt><trkpt lat="41.4483776" lon="1.7079094"><ele>258.0</ele><time>2026-04-27T11:22:43.372Z</time></trkpt><trkpt lat="41.4484469" lon="1.7078259"><ele>257.6</ele><time>2026-04-27T11:22:44.37Z</time></trkpt><trkpt lat="41.4485212" lon="1.707742"><ele>257.20000000000005</ele><time>2026-04-27T11:22:45.373Z</time></trkpt><trkpt lat="41.4485961" lon="1.7076598"><ele>256.8</ele><time>2026-04-27T11:22:46.369Z</time></trkpt><trkpt lat="41.4486712" lon="1.7075753"><ele>256.40000000000003</ele><time>2026-04-27T11:22:47.373Z</time></trkpt><trkpt lat="41.4487486" lon="1.7074907"><ele>256.0</ele><time>2026-04-27T11:22:48.396Z</time></trkpt><trkpt lat="41.4488288" lon="1.7074037"><ele>256.0</ele><time>2026-04-27T11:22:49.371Z</time></trkpt><trkpt lat="41.4489039" lon="1.7073052"><ele>256.0</ele><time>2026-04-27T11:22:50.371Z</time></trkpt><trkpt lat="41.4489754" lon="1.7072043"><ele>256.0</ele><time>2026-04-27T11:22:51.376Z</time></trkpt><trkpt lat="41.4490449" lon="1.7070898"><ele>256.0</ele><time>2026-04-27T11:22:52.372Z</time></trkpt><trkpt lat="41.449107" lon="1.7069829"><ele>256.0</ele><time>2026-04-27T11:22:53.377Z</time></trkpt><trkpt lat="41.4491665" lon="1.7068824"><ele>256.6</ele><time>2026-04-27T11:22:54.368Z</time></trkpt><trkpt lat="41.4492256" lon="1.7067837"><ele>257.20000000000005</ele><time>2026-04-27T11:22:55.374Z</time></trkpt><trkpt lat="41.4492884" lon="1.7066915"><ele>257.79999999999995</ele><time>2026-04-27T11:22:56.364Z</time></trkpt><trkpt lat="41.4493558" lon="1.706598"><ele>258.4</ele><time>2026-04-27T11:22:57.376Z</time></trkpt><trkpt lat="41.4494217" lon="1.7064984"><ele>259.0</ele><time>2026-04-27T11:22:58.371Z</time></trkpt><trkpt lat="41.4494876" lon="1.7063938"><ele>259.0</ele><time>2026-04-27T11:22:59.368Z</time></trkpt><trkpt lat="41.4495539" lon="1.7062897"><ele>259.0</ele><time>2026-04-27T11:23:00.374Z</time></trkpt><trkpt lat="41.4496184" lon="1.7061862"><ele>259.0</ele><time>2026-04-27T11:23:01.365Z</time></trkpt><trkpt lat="41.4496801" lon="1.7060831"><ele>259.0</ele><time>2026-04-27T11:23:02.366Z</time></trkpt><trkpt lat="41.4497417" lon="1.7059802"><ele>259.0</ele><time>2026-04-27T11:23:03.363Z</time></trkpt><trkpt lat="41.4498035" lon="1.7058752"><ele>258.0</ele><time>2026-04-27T11:23:04.368Z</time></trkpt><trkpt lat="41.4498676" lon="1.7057678"><ele>257.0</ele><time>2026-04-27T11:23:05.37Z</time></trkpt><trkpt lat="41.4499318" lon="1.7056582"><ele>255.99999999999997</ele><time>2026-04-27T11:23:06.37Z</time></trkpt><trkpt lat="41.4499951" lon="1.7055446"><ele>255.0</ele><time>2026-04-27T11:23:07.368Z</time></trkpt><trkpt lat="41.45006" lon="1.7054311"><ele>254.0</ele><time>2026-04-27T11:23:08.368Z</time></trkpt><trkpt lat="41.4501201" lon="1.7052972"><ele>253.6</ele><time>2026-04-27T11:23:09.367Z</time></trkpt><trkpt lat="41.4501742" lon="1.7051539"><ele>253.2</ele><time>2026-04-27T11:23:10.36Z</time></trkpt><trkpt lat="41.4502228" lon="1.7050234"><ele>252.79999999999998</ele><time>2026-04-27T11:23:11.371Z</time></trkpt><trkpt lat="41.4502595" lon="1.7048858"><ele>252.39999999999998</ele><time>2026-04-27T11:23:12.366Z</time></trkpt><trkpt lat="41.4502962" lon="1.7047547"><ele>252.0</ele><time>2026-04-27T11:23:13.369Z</time></trkpt><trkpt lat="41.4503286" lon="1.7046272"><ele>252.0</ele><time>2026-04-27T11:23:14.363Z</time></trkpt><trkpt lat="41.4503504" lon="1.7045086"><ele>252.0</ele><time>2026-04-27T11:23:15.376Z</time></trkpt><trkpt lat="41.4503657" lon="1.7044228"><ele>252.0</ele><time>2026-04-27T11:23:16.372Z</time></trkpt><trkpt lat="41.4503892" lon="1.7043155"><ele>252.0</ele><time>2026-04-27T11:23:50.369Z</time></trkpt><trkpt lat="41.450431" lon="1.7041791"><ele>252.0</ele><time>2026-04-27T11:23:52.372Z</time></trkpt><trkpt lat="41.4504576" lon="1.704101"><ele>252.0</ele><time>2026-04-27T11:23:53.373Z</time></trkpt><trkpt lat="41.4504853" lon="1.704016"><ele>252.16666666666666</ele><time>2026-04-27T11:23:54.367Z</time></trkpt><trkpt lat="41.4505121" lon="1.7039157"><ele>252.33333333333331</ele><time>2026-04-27T11:23:55.372Z</time></trkpt><trkpt lat="41.4505389" lon="1.7038143"><ele>252.5</ele><time>2026-04-27T11:23:56.368Z</time></trkpt><trkpt lat="41.4505702" lon="1.7037065"><ele>252.66666666666666</ele><time>2026-04-27T11:23:57.369Z</time></trkpt><trkpt lat="41.4506045" lon="1.7035895"><ele>252.83333333333331</ele><time>2026-04-27T11:23:58.371Z</time></trkpt><trkpt lat="41.4506387" lon="1.7034674"><ele>253.0</ele><time>2026-04-27T11:23:59.372Z</time></trkpt><trkpt lat="41.4506788" lon="1.7033402"><ele>253.0</ele><time>2026-04-27T11:24:00.361Z</time></trkpt><trkpt lat="41.4507236" lon="1.7032159"><ele>253.0</ele><time>2026-04-27T11:24:01.367Z</time></trkpt><trkpt lat="41.4507606" lon="1.7030919"><ele>253.0</ele><time>2026-04-27T11:24:02.368Z</time></trkpt><trkpt lat="41.4507972" lon="1.7029743"><ele>253.0</ele><time>2026-04-27T11:24:03.371Z</time></trkpt><trkpt lat="41.4508307" lon="1.7028605"><ele>253.0</ele><time>2026-04-27T11:24:04.365Z</time></trkpt><trkpt lat="41.4508632" lon="1.7027477"><ele>253.16666666666666</ele><time>2026-04-27T11:24:05.369Z</time></trkpt><trkpt lat="41.4508997" lon="1.702638"><ele>253.33333333333331</ele><time>2026-04-27T11:24:06.363Z</time></trkpt><trkpt lat="41.4509277" lon="1.7025371"><ele>253.5</ele><time>2026-04-27T11:24:07.37Z</time></trkpt><trkpt lat="41.4509487" lon="1.70244"><ele>253.66666666666669</ele><time>2026-04-27T11:24:08.366Z</time></trkpt><trkpt lat="41.4509655" lon="1.7023588"><ele>253.83333333333334</ele><time>2026-04-27T11:24:09.369Z</time></trkpt><trkpt lat="41.4510168" lon="1.7022174"><ele>254.0</ele><time>2026-04-27T11:24:11.375Z</time></trkpt><trkpt lat="41.4510682" lon="1.7020966"><ele>254.0</ele><time>2026-04-27T11:24:13.374Z</time></trkpt><trkpt lat="41.4510861" lon="1.7020118"><ele>253.99999999999997</ele><time>2026-04-27T11:24:24.376Z</time></trkpt><trkpt lat="41.4511067" lon="1.7019043"><ele>253.99999999999997</ele><time>2026-04-27T11:24:30.369Z</time></trkpt><trkpt lat="41.4511455" lon="1.7017706"><ele>254.0</ele><time>2026-04-27T11:24:32.367Z</time></trkpt><trkpt lat="41.4511961" lon="1.7016051"><ele>254.0</ele><time>2026-04-27T11:24:34.363Z</time></trkpt><trkpt lat="41.4512303" lon="1.7015009"><ele>254.0</ele><time>2026-04-27T11:24:35.369Z</time></trkpt><trkpt lat="41.4512649" lon="1.7013905"><ele>253.99999999999997</ele><time>2026-04-27T11:24:36.372Z</time></trkpt><trkpt lat="41.4513023" lon="1.7012743"><ele>253.99999999999997</ele><time>2026-04-27T11:24:37.369Z</time></trkpt><trkpt lat="41.4513394" lon="1.7011489"><ele>254.0</ele><time>2026-04-27T11:24:38.368Z</time></trkpt><trkpt lat="41.4513749" lon="1.7010224"><ele>254.0</ele><time>2026-04-27T11:24:39.373Z</time></trkpt><trkpt lat="41.4514103" lon="1.7008942"><ele>254.0</ele><time>2026-04-27T11:24:40.371Z</time></trkpt><trkpt lat="41.4514459" lon="1.7007671"><ele>253.99999999999997</ele><time>2026-04-27T11:24:41.378Z</time></trkpt><trkpt lat="41.4514843" lon="1.7006348"><ele>253.99999999999997</ele><time>2026-04-27T11:24:42.374Z</time></trkpt><trkpt lat="41.4515271" lon="1.7004975"><ele>254.0</ele><time>2026-04-27T11:24:43.374Z</time></trkpt><trkpt lat="41.4515685" lon="1.7003588"><ele>254.0</ele><time>2026-04-27T11:24:44.373Z</time></trkpt><trkpt lat="41.4516048" lon="1.7002236"><ele>254.39999999999998</ele><time>2026-04-27T11:24:45.372Z</time></trkpt><trkpt lat="41.4516377" lon="1.7000859"><ele>254.79999999999998</ele><time>2026-04-27T11:24:46.369Z</time></trkpt><trkpt lat="41.4516734" lon="1.6999504"><ele>255.20000000000002</ele><time>2026-04-27T11:24:47.368Z</time></trkpt><trkpt lat="41.4517139" lon="1.6998185"><ele>255.60000000000002</ele><time>2026-04-27T11:24:48.369Z</time></trkpt><trkpt lat="41.4517507" lon="1.6996841"><ele>256.0</ele><time>2026-04-27T11:24:49.37Z</time></trkpt><trkpt lat="41.4517865" lon="1.6995472"><ele>256.75</ele><time>2026-04-27T11:24:50.369Z</time></trkpt><trkpt lat="41.4518127" lon="1.6994103"><ele>257.5</ele><time>2026-04-27T11:24:51.377Z</time></trkpt><trkpt lat="41.4518321" lon="1.69928"><ele>258.25</ele><time>2026-04-27T11:24:52.374Z</time></trkpt><trkpt lat="41.4518331" lon="1.6990463"><ele>259.0</ele><time>2026-04-27T11:24:54.366Z</time></trkpt><trkpt lat="41.4518262" lon="1.6989325"><ele>259.0</ele><time>2026-04-27T11:24:55.368Z</time></trkpt><trkpt lat="41.4518108" lon="1.6988223"><ele>259.0</ele><time>2026-04-27T11:24:56.366Z</time></trkpt><trkpt lat="41.4517905" lon="1.6987197"><ele>259.0</ele><time>2026-04-27T11:24:57.363Z</time></trkpt><trkpt lat="41.4517636" lon="1.6986216"><ele>259.0</ele><time>2026-04-27T11:24:58.369Z</time></trkpt><trkpt lat="41.4517372" lon="1.6985332"><ele>259.0</ele><time>2026-04-27T11:24:59.37Z</time></trkpt><trkpt lat="41.451712" lon="1.6984487"><ele>259.0</ele><time>2026-04-27T11:25:00.367Z</time></trkpt><trkpt lat="41.451684" lon="1.6983627"><ele>258.7142857142857</ele><time>2026-04-27T11:25:01.367Z</time></trkpt><trkpt lat="41.4516647" lon="1.6982776"><ele>258.42857142857144</ele><time>2026-04-27T11:25:02.367Z</time></trkpt><trkpt lat="41.4516454" lon="1.6981945"><ele>258.1428571428571</ele><time>2026-04-27T11:25:03.366Z</time></trkpt><trkpt lat="41.4516344" lon="1.6981105"><ele>257.8571428571429</ele><time>2026-04-27T11:25:04.37Z</time></trkpt><trkpt lat="41.4516337" lon="1.6980238"><ele>257.57142857142856</ele><time>2026-04-27T11:25:05.371Z</time></trkpt><trkpt lat="41.4516399" lon="1.6979333"><ele>257.2857142857143</ele><time>2026-04-27T11:25:06.368Z</time></trkpt><trkpt lat="41.4516494" lon="1.6977819"><ele>257.0</ele><time>2026-04-27T11:25:08.369Z</time></trkpt><trkpt lat="41.4516375" lon="1.6976593"><ele>256.5</ele><time>2026-04-27T11:25:10.367Z</time></trkpt><trkpt lat="41.4515666" lon="1.6976698"><ele>256.0</ele><time>2026-04-27T11:36:25.396Z</time></trkpt><trkpt lat="41.451497" lon="1.6976225"><ele>255.5</ele><time>2026-04-27T11:36:28.393Z</time></trkpt><trkpt lat="41.4514232" lon="1.6975707"><ele>255.0</ele><time>2026-04-27T11:36:31.379Z</time></trkpt><trkpt lat="41.4513716" lon="1.6974764"><ele>254.50000000000003</ele><time>2026-04-27T11:37:29.378Z</time></trkpt><trkpt lat="41.4513086" lon="1.697399"><ele>254.0</ele><time>2026-04-27T11:37:31.376Z</time></trkpt><trkpt lat="41.4512403" lon="1.6973092"><ele>256.4</ele><time>2026-04-27T11:37:33.378Z</time></trkpt><trkpt lat="41.4511745" lon="1.6971947"><ele>258.79999999999995</ele><time>2026-04-27T11:37:35.378Z</time></trkpt><trkpt lat="41.4510951" lon="1.6970948"><ele>261.20000000000005</ele><time>2026-04-27T11:37:37.374Z</time></trkpt><trkpt lat="41.4510377" lon="1.6969702"><ele>263.6</ele><time>2026-04-27T11:37:39.377Z</time></trkpt><trkpt lat="41.4510133" lon="1.6968207"><ele>266.0</ele><time>2026-04-27T11:37:41.379Z</time></trkpt><trkpt lat="41.4510268" lon="1.6966678"><ele>266.40000000000003</ele><time>2026-04-27T11:37:43.382Z</time></trkpt><trkpt lat="41.4510716" lon="1.6965382"><ele>266.8</ele><time>2026-04-27T11:37:45.38Z</time></trkpt><trkpt lat="41.451122" lon="1.6964152"><ele>267.20000000000005</ele><time>2026-04-27T11:37:47.382Z</time></trkpt><trkpt lat="41.4511574" lon="1.6962841"><ele>267.6</ele><time>2026-04-27T11:37:49.381Z</time></trkpt><trkpt lat="41.451156" lon="1.6961383"><ele>268.0</ele><time>2026-04-27T11:37:51.378Z</time></trkpt><trkpt lat="41.451129" lon="1.6959827"><ele>268.57142857142856</ele><time>2026-04-27T11:37:53.38Z</time></trkpt><trkpt lat="41.4511092" lon="1.6958974"><ele>269.1428571428571</ele><time>2026-04-27T11:37:54.379Z</time></trkpt><trkpt lat="41.4510916" lon="1.6958132"><ele>269.71428571428567</ele><time>2026-04-27T11:37:55.38Z</time></trkpt><trkpt lat="41.4510706" lon="1.695727"><ele>270.2857142857143</ele><time>2026-04-27T11:37:56.38Z</time></trkpt><trkpt lat="41.451054" lon="1.6956367"><ele>270.85714285714283</ele><time>2026-04-27T11:37:57.378Z</time></trkpt><trkpt lat="41.4510423" lon="1.6955302"><ele>271.4285714285714</ele><time>2026-04-27T11:37:58.38Z</time></trkpt><trkpt lat="41.4510386" lon="1.6954068"><ele>272.0</ele><time>2026-04-27T11:37:59.374Z</time></trkpt><trkpt lat="41.451048" lon="1.6952815"><ele>272.0</ele><time>2026-04-27T11:38:00.374Z</time></trkpt><trkpt lat="41.4510734" lon="1.6951558"><ele>272.0</ele><time>2026-04-27T11:38:01.376Z</time></trkpt><trkpt lat="41.4511148" lon="1.6950285"><ele>272.0</ele><time>2026-04-27T11:38:02.38Z</time></trkpt><trkpt lat="41.4511666" lon="1.6949081"><ele>272.0</ele><time>2026-04-27T11:38:03.389Z</time></trkpt><trkpt lat="41.4512335" lon="1.694793"><ele>272.0</ele><time>2026-04-27T11:38:04.377Z</time></trkpt><trkpt lat="41.4513095" lon="1.6946792"><ele>267.75</ele><time>2026-04-27T11:38:05.381Z</time></trkpt><trkpt lat="41.45139" lon="1.6945634"><ele>263.5</ele><time>2026-04-27T11:38:06.38Z</time></trkpt><trkpt lat="41.4514637" lon="1.6944442"><ele>259.25</ele><time>2026-04-27T11:38:07.381Z</time></trkpt><trkpt lat="41.4515161" lon="1.6943095"><ele>255.0</ele><time>2026-04-27T11:38:08.38Z</time></trkpt><trkpt lat="41.4515438" lon="1.6941655"><ele>255.0</ele><time>2026-04-27T11:38:09.377Z</time></trkpt><trkpt lat="41.4515344" lon="1.6940135"><ele>255.0</ele><time>2026-04-27T11:38:10.378Z</time></trkpt><trkpt lat="41.4515077" lon="1.693859"><ele>255.0</ele><time>2026-04-27T11:38:11.379Z</time></trkpt><trkpt lat="41.4514737" lon="1.6937042"><ele>255.0</ele><time>2026-04-27T11:38:12.379Z</time></trkpt><trkpt lat="41.4514264" lon="1.6935546"><ele>254.25</ele><time>2026-04-27T11:38:13.38Z</time></trkpt><trkpt lat="41.4513658" lon="1.6934153"><ele>253.5</ele><time>2026-04-27T11:38:14.378Z</time></trkpt><trkpt lat="41.4512754" lon="1.6932911"><ele>252.75</ele><time>2026-04-27T11:38:15.389Z</time></trkpt><trkpt lat="41.4511697" lon="1.6931762"><ele>252.0</ele><time>2026-04-27T11:38:16.38Z</time></trkpt><trkpt lat="41.4510649" lon="1.6930498"><ele>254.0</ele><time>2026-04-27T11:38:17.382Z</time></trkpt><trkpt lat="41.4509839" lon="1.6929035"><ele>256.0</ele><time>2026-04-27T11:38:18.38Z</time></trkpt><trkpt lat="41.4509266" lon="1.6927345"><ele>258.0</ele><time>2026-04-27T11:38:19.386Z</time></trkpt><trkpt lat="41.4508944" lon="1.6925505"><ele>260.0</ele><time>2026-04-27T11:38:20.373Z</time></trkpt><trkpt lat="41.4509055" lon="1.6923631"><ele>260.0</ele><time>2026-04-27T11:38:21.387Z</time></trkpt><trkpt lat="41.4509453" lon="1.6921793"><ele>260.0</ele><time>2026-04-27T11:38:22.382Z</time></trkpt><trkpt lat="41.4509915" lon="1.6919957"><ele>260.0</ele><time>2026-04-27T11:38:23.384Z</time></trkpt><trkpt lat="41.451034" lon="1.6918185"><ele>260.0</ele><time>2026-04-27T11:38:24.383Z</time></trkpt><trkpt lat="41.4510801" lon="1.6916437"><ele>259.5</ele><time>2026-04-27T11:38:25.389Z</time></trkpt><trkpt lat="41.4511172" lon="1.6914692"><ele>259.0</ele><time>2026-04-27T11:38:26.381Z</time></trkpt><trkpt lat="41.4511526" lon="1.6912929"><ele>258.5</ele><time>2026-04-27T11:38:27.384Z</time></trkpt><trkpt lat="41.451192" lon="1.691122"><ele>258.0</ele><time>2026-04-27T11:38:28.387Z</time></trkpt><trkpt lat="41.4512266" lon="1.6909635"><ele>260.75</ele><time>2026-04-27T11:38:29.385Z</time></trkpt><trkpt lat="41.4512576" lon="1.6908023"><ele>263.5</ele><time>2026-04-27T11:38:30.381Z</time></trkpt><trkpt lat="41.4512773" lon="1.6906411"><ele>266.25</ele><time>2026-04-27T11:38:31.382Z</time></trkpt><trkpt lat="41.451285" lon="1.6904759"><ele>269.0</ele><time>2026-04-27T11:38:32.375Z</time></trkpt><trkpt lat="41.4512883" lon="1.6903118"><ele>269.5</ele><time>2026-04-27T11:38:33.385Z</time></trkpt><trkpt lat="41.451284" lon="1.6901474"><ele>270.0</ele><time>2026-04-27T11:38:34.38Z</time></trkpt><trkpt lat="41.4512691" lon="1.6899842"><ele>270.5</ele><time>2026-04-27T11:38:35.384Z</time></trkpt><trkpt lat="41.4512468" lon="1.689826"><ele>271.0</ele><time>2026-04-27T11:38:36.381Z</time></trkpt><trkpt lat="41.4512094" lon="1.6896738"><ele>271.0</ele><time>2026-04-27T11:38:37.386Z</time></trkpt><trkpt lat="41.4511591" lon="1.6895277"><ele>271.0</ele><time>2026-04-27T11:38:38.383Z</time></trkpt><trkpt lat="41.4510964" lon="1.689399"><ele>271.0</ele><time>2026-04-27T11:38:39.385Z</time></trkpt><trkpt lat="41.4510177" lon="1.6892772"><ele>271.0</ele><time>2026-04-27T11:38:40.383Z</time></trkpt><trkpt lat="41.4509266" lon="1.6891616"><ele>271.75</ele><time>2026-04-27T11:38:41.384Z</time></trkpt><trkpt lat="41.4508302" lon="1.6890461"><ele>272.5</ele><time>2026-04-27T11:38:42.382Z</time></trkpt><trkpt lat="41.4507345" lon="1.6889238"><ele>273.25</ele><time>2026-04-27T11:38:43.387Z</time></trkpt><trkpt lat="41.4506442" lon="1.6888003"><ele>274.0</ele><time>2026-04-27T11:38:44.385Z</time></trkpt><trkpt lat="41.4505531" lon="1.6886827"><ele>274.5</ele><time>2026-04-27T11:38:45.388Z</time></trkpt><trkpt lat="41.4504641" lon="1.6885612"><ele>275.0</ele><time>2026-04-27T11:38:46.399Z</time></trkpt><trkpt lat="41.4503735" lon="1.6884419"><ele>275.5</ele><time>2026-04-27T11:38:47.386Z</time></trkpt><trkpt lat="41.4502859" lon="1.6883185"><ele>276.0</ele><time>2026-04-27T11:38:48.384Z</time></trkpt><trkpt lat="41.4502034" lon="1.6881984"><ele>276.75</ele><time>2026-04-27T11:38:49.387Z</time></trkpt><trkpt lat="41.4501193" lon="1.6880766"><ele>277.5</ele><time>2026-04-27T11:38:50.389Z</time></trkpt><trkpt lat="41.4500428" lon="1.6879514"><ele>278.25</ele><time>2026-04-27T11:38:51.384Z</time></trkpt><trkpt lat="41.4499729" lon="1.6878158"><ele>279.0</ele><time>2026-04-27T11:38:52.384Z</time></trkpt><trkpt lat="41.4499117" lon="1.6876747"><ele>279.5</ele><time>2026-04-27T11:38:53.382Z</time></trkpt><trkpt lat="41.4498593" lon="1.6875239"><ele>280.0</ele><time>2026-04-27T11:38:54.385Z</time></trkpt><trkpt lat="41.4498229" lon="1.6873683"><ele>280.5</ele><time>2026-04-27T11:38:55.388Z</time></trkpt><trkpt lat="41.449804" lon="1.6872155"><ele>281.0</ele><time>2026-04-27T11:38:56.383Z</time></trkpt><trkpt lat="41.4497939" lon="1.6870685"><ele>281.0</ele><time>2026-04-27T11:38:57.385Z</time></trkpt><trkpt lat="41.4497978" lon="1.6869303"><ele>281.0</ele><time>2026-04-27T11:38:58.385Z</time></trkpt><trkpt lat="41.4498105" lon="1.6868011"><ele>281.0</ele><time>2026-04-27T11:38:59.385Z</time></trkpt><trkpt lat="41.4498312" lon="1.6866759"><ele>281.0</ele><time>2026-04-27T11:39:00.384Z</time></trkpt><trkpt lat="41.4498578" lon="1.6865574"><ele>281.0</ele><time>2026-04-27T11:39:01.386Z</time></trkpt><trkpt lat="41.4498884" lon="1.6864456"><ele>282.2</ele><time>2026-04-27T11:39:02.384Z</time></trkpt><trkpt lat="41.4499273" lon="1.6863327"><ele>283.40000000000003</ele><time>2026-04-27T11:39:03.386Z</time></trkpt><trkpt lat="41.4499742" lon="1.6862263"><ele>284.6</ele><time>2026-04-27T11:39:04.382Z</time></trkpt><trkpt lat="41.4500191" lon="1.6861215"><ele>285.8</ele><time>2026-04-27T11:39:05.385Z</time></trkpt><trkpt lat="41.4500645" lon="1.6860198"><ele>287.0</ele><time>2026-04-27T11:39:06.386Z</time></trkpt><trkpt lat="41.4501108" lon="1.6859192"><ele>288.0</ele><time>2026-04-27T11:39:07.386Z</time></trkpt><trkpt lat="41.4501581" lon="1.6858214"><ele>289.0</ele><time>2026-04-27T11:39:08.386Z</time></trkpt><trkpt lat="41.4502014" lon="1.6857279"><ele>290.0</ele><time>2026-04-27T11:39:09.383Z</time></trkpt><trkpt lat="41.4502442" lon="1.6856357"><ele>291.0</ele><time>2026-04-27T11:39:10.386Z</time></trkpt><trkpt lat="41.450286" lon="1.6855475"><ele>292.0</ele><time>2026-04-27T11:39:11.385Z</time></trkpt><trkpt lat="41.4503232" lon="1.6854618"><ele>293.0</ele><time>2026-04-27T11:39:12.382Z</time></trkpt><trkpt lat="41.4503591" lon="1.6853778"><ele>292.99999999999994</ele><time>2026-04-27T11:39:13.385Z</time></trkpt><trkpt lat="41.4503946" lon="1.6852972"><ele>293.0</ele><time>2026-04-27T11:39:14.385Z</time></trkpt><trkpt lat="41.4504289" lon="1.6852184"><ele>293.0</ele><time>2026-04-27T11:39:15.387Z</time></trkpt><trkpt lat="41.4504643" lon="1.6851376"><ele>293.0</ele><time>2026-04-27T11:39:16.388Z</time></trkpt><trkpt lat="41.4505031" lon="1.6850613"><ele>293.0</ele><time>2026-04-27T11:39:17.395Z</time></trkpt><trkpt lat="41.4505538" lon="1.685002"><ele>292.99999999999994</ele><time>2026-04-27T11:39:18.388Z</time></trkpt><trkpt lat="41.450621" lon="1.6849731"><ele>293.0</ele><time>2026-04-27T11:39:19.384Z</time></trkpt><trkpt lat="41.4506946" lon="1.6849426"><ele>293.33333333333337</ele><time>2026-04-27T11:39:20.383Z</time></trkpt><trkpt lat="41.4507669" lon="1.6848879"><ele>293.6666666666667</ele><time>2026-04-27T11:39:21.38Z</time></trkpt><trkpt lat="41.4508258" lon="1.6848213"><ele>294.0</ele><time>2026-04-27T11:39:22.392Z</time></trkpt><trkpt lat="41.450881" lon="1.6847491"><ele>294.3333333333333</ele><time>2026-04-27T11:39:23.387Z</time></trkpt><trkpt lat="41.4509237" lon="1.6846664"><ele>294.66666666666663</ele><time>2026-04-27T11:39:24.39Z</time></trkpt><trkpt lat="41.4509545" lon="1.6845813"><ele>295.0</ele><time>2026-04-27T11:39:25.384Z</time></trkpt><trkpt lat="41.4509734" lon="1.6844925"><ele>295.14285714285717</ele><time>2026-04-27T11:39:26.386Z</time></trkpt><trkpt lat="41.4509776" lon="1.6844003"><ele>295.2857142857143</ele><time>2026-04-27T11:39:27.386Z</time></trkpt><trkpt lat="41.4509762" lon="1.684304"><ele>295.42857142857144</ele><time>2026-04-27T11:39:28.39Z</time></trkpt><trkpt lat="41.450974" lon="1.6842066"><ele>295.57142857142856</ele><time>2026-04-27T11:39:29.394Z</time></trkpt><trkpt lat="41.4509789" lon="1.6841105"><ele>295.7142857142857</ele><time>2026-04-27T11:39:30.388Z</time></trkpt><trkpt lat="41.4509882" lon="1.6840112"><ele>295.8571428571429</ele><time>2026-04-27T11:39:31.391Z</time></trkpt><trkpt lat="41.4510045" lon="1.6839086"><ele>296.0</ele><time>2026-04-27T11:39:32.385Z</time></trkpt><trkpt lat="41.4510209" lon="1.6838017"><ele>296.0</ele><time>2026-04-27T11:39:33.385Z</time></trkpt><trkpt lat="41.451047" lon="1.6836992"><ele>296.0</ele><time>2026-04-27T11:39:34.386Z</time></trkpt><trkpt lat="41.4510792" lon="1.6836002"><ele>296.0</ele><time>2026-04-27T11:39:35.389Z</time></trkpt><trkpt lat="41.4511148" lon="1.6835105"><ele>296.0</ele><time>2026-04-27T11:39:36.382Z</time></trkpt><trkpt lat="41.4511585" lon="1.6834194"><ele>296.0</ele><time>2026-04-27T11:39:37.384Z</time></trkpt><trkpt lat="41.4512054" lon="1.6833326"><ele>296.0</ele><time>2026-04-27T11:39:38.386Z</time></trkpt><trkpt lat="41.4512607" lon="1.6832609"><ele>296.5</ele><time>2026-04-27T11:39:39.385Z</time></trkpt><trkpt lat="41.4513237" lon="1.6831971"><ele>297.0</ele><time>2026-04-27T11:39:40.383Z</time></trkpt><trkpt lat="41.4513938" lon="1.6831305"><ele>297.5</ele><time>2026-04-27T11:39:41.386Z</time></trkpt><trkpt lat="41.4514627" lon="1.6830716"><ele>298.0</ele><time>2026-04-27T11:39:42.384Z</time></trkpt><trkpt lat="41.4515331" lon="1.6830135"><ele>298.5</ele><time>2026-04-27T11:39:43.38Z</time></trkpt><trkpt lat="41.4516059" lon="1.6829535"><ele>299.0</ele><time>2026-04-27T11:39:44.379Z</time></trkpt><trkpt lat="41.4516789" lon="1.6828944"><ele>299.0</ele><time>2026-04-27T11:39:45.381Z</time></trkpt><trkpt lat="41.4517494" lon="1.6828347"><ele>299.0</ele><time>2026-04-27T11:39:46.38Z</time></trkpt><trkpt lat="41.4518157" lon="1.6827734"><ele>299.0</ele><time>2026-04-27T11:39:47.383Z</time></trkpt><trkpt lat="41.4518837" lon="1.682713"><ele>299.0</ele><time>2026-04-27T11:39:48.39Z</time></trkpt><trkpt lat="41.4519503" lon="1.6826544"><ele>299.0</ele><time>2026-04-27T11:39:49.38Z</time></trkpt><trkpt lat="41.4520145" lon="1.6825967"><ele>299.0</ele><time>2026-04-27T11:39:50.383Z</time></trkpt><trkpt lat="41.4520819" lon="1.6825396"><ele>299.6666666666667</ele><time>2026-04-27T11:39:51.386Z</time></trkpt><trkpt lat="41.4521491" lon="1.682486"><ele>300.33333333333337</ele><time>2026-04-27T11:39:52.385Z</time></trkpt><trkpt lat="41.4522159" lon="1.6824342"><ele>301.0</ele><time>2026-04-27T11:39:53.384Z</time></trkpt><trkpt lat="41.4522822" lon="1.6823772"><ele>301.6666666666667</ele><time>2026-04-27T11:39:54.387Z</time></trkpt><trkpt lat="41.4523487" lon="1.6823208"><ele>302.3333333333333</ele><time>2026-04-27T11:39:55.393Z</time></trkpt><trkpt lat="41.4524156" lon="1.6822691"><ele>303.0</ele><time>2026-04-27T11:39:56.38Z</time></trkpt><trkpt lat="41.4524858" lon="1.6822295"><ele>303.0</ele><time>2026-04-27T11:39:57.379Z</time></trkpt><trkpt lat="41.4525602" lon="1.6822014"><ele>303.0</ele><time>2026-04-27T11:39:58.38Z</time></trkpt><trkpt lat="41.4526365" lon="1.6821856"><ele>303.0</ele><time>2026-04-27T11:39:59.386Z</time></trkpt><trkpt lat="41.4527202" lon="1.6821782"><ele>303.0</ele><time>2026-04-27T11:40:00.38Z</time></trkpt><trkpt lat="41.4528032" lon="1.6821717"><ele>303.0</ele><time>2026-04-27T11:40:01.39Z</time></trkpt><trkpt lat="41.4528893" lon="1.6821608"><ele>303.0</ele><time>2026-04-27T11:40:02.382Z</time></trkpt><trkpt lat="41.4529795" lon="1.6821508"><ele>302.2</ele><time>2026-04-27T11:40:03.385Z</time></trkpt><trkpt lat="41.4530702" lon="1.6821377"><ele>301.4</ele><time>2026-04-27T11:40:04.382Z</time></trkpt><trkpt lat="41.453163" lon="1.6821254"><ele>300.59999999999997</ele><time>2026-04-27T11:40:05.387Z</time></trkpt><trkpt lat="41.4532555" lon="1.6821081"><ele>299.8</ele><time>2026-04-27T11:40:06.388Z</time></trkpt><trkpt lat="41.4533481" lon="1.6820936"><ele>299.0</ele><time>2026-04-27T11:40:07.391Z</time></trkpt><trkpt lat="41.4534439" lon="1.6820768"><ele>299.0</ele><time>2026-04-27T11:40:08.383Z</time></trkpt><trkpt lat="41.4535437" lon="1.6820585"><ele>299.0</ele><time>2026-04-27T11:40:09.384Z</time></trkpt><trkpt lat="41.4536487" lon="1.6820407"><ele>299.0</ele><time>2026-04-27T11:40:10.38Z</time></trkpt><trkpt lat="41.453758" lon="1.6820234"><ele>299.0</ele><time>2026-04-27T11:40:11.382Z</time></trkpt><trkpt lat="41.4538676" lon="1.6820068"><ele>299.0</ele><time>2026-04-27T11:40:12.38Z</time></trkpt><trkpt lat="41.4539784" lon="1.6819834"><ele>299.5</ele><time>2026-04-27T11:40:13.38Z</time></trkpt><trkpt lat="41.4540873" lon="1.6819473"><ele>300.0</ele><time>2026-04-27T11:40:14.38Z</time></trkpt><trkpt lat="41.4541909" lon="1.6818907"><ele>300.5</ele><time>2026-04-27T11:40:15.381Z</time></trkpt><trkpt lat="41.4542817" lon="1.6818023"><ele>301.0</ele><time>2026-04-27T11:40:16.375Z</time></trkpt><trkpt lat="41.4543602" lon="1.681684"><ele>301.0</ele><time>2026-04-27T11:40:17.375Z</time></trkpt><trkpt lat="41.4544248" lon="1.6815456"><ele>301.0</ele><time>2026-04-27T11:40:18.371Z</time></trkpt><trkpt lat="41.4544845" lon="1.6814024"><ele>301.0</ele><time>2026-04-27T11:40:19.388Z</time></trkpt><trkpt lat="41.4545397" lon="1.6812567"><ele>301.0</ele><time>2026-04-27T11:40:20.386Z</time></trkpt><trkpt lat="41.4545907" lon="1.6811086"><ele>299.2</ele><time>2026-04-27T11:40:21.378Z</time></trkpt><trkpt lat="41.454635" lon="1.6809629"><ele>297.40000000000003</ele><time>2026-04-27T11:40:22.371Z</time></trkpt><trkpt lat="41.4546677" lon="1.6808196"><ele>295.6</ele><time>2026-04-27T11:40:23.381Z</time></trkpt><trkpt lat="41.4546921" lon="1.6806825"><ele>293.8</ele><time>2026-04-27T11:40:24.375Z</time></trkpt><trkpt lat="41.45471" lon="1.6805541"><ele>292.0</ele><time>2026-04-27T11:40:25.379Z</time></trkpt><trkpt lat="41.4547273" lon="1.6804352"><ele>292.2</ele><time>2026-04-27T11:40:26.376Z</time></trkpt><trkpt lat="41.4548052" lon="1.6802436"><ele>292.4</ele><time>2026-04-27T11:40:28.381Z</time></trkpt><trkpt lat="41.4548658" lon="1.6801599"><ele>292.6</ele><time>2026-04-27T11:40:29.376Z</time></trkpt><trkpt lat="41.4549203" lon="1.6800693"><ele>292.8</ele><time>2026-04-27T11:40:30.376Z</time></trkpt><trkpt lat="41.4549466" lon="1.6799701"><ele>293.0</ele><time>2026-04-27T11:40:31.376Z</time></trkpt><trkpt lat="41.4549414" lon="1.6798721"><ele>293.0</ele><time>2026-04-27T11:40:32.376Z</time></trkpt><trkpt lat="41.4549253" lon="1.6797825"><ele>293.0</ele><time>2026-04-27T11:40:33.378Z</time></trkpt><trkpt lat="41.4549229" lon="1.6796948"><ele>293.0</ele><time>2026-04-27T11:40:34.374Z</time></trkpt><trkpt lat="41.4549569" lon="1.6795434"><ele>293.0</ele><time>2026-04-27T11:40:36.375Z</time></trkpt><trkpt lat="41.4549963" lon="1.6794764"><ele>293.0</ele><time>2026-04-27T11:40:37.375Z</time></trkpt><trkpt lat="41.455041" lon="1.6794121"><ele>293.0</ele><time>2026-04-27T11:40:38.377Z</time></trkpt><trkpt lat="41.4550908" lon="1.6793416"><ele>292.83333333333337</ele><time>2026-04-27T11:40:39.376Z</time></trkpt><trkpt lat="41.4551469" lon="1.6792661"><ele>292.6666666666667</ele><time>2026-04-27T11:40:40.376Z</time></trkpt><trkpt lat="41.4552097" lon="1.6791872"><ele>292.5</ele><time>2026-04-27T11:40:41.378Z</time></trkpt><trkpt lat="41.455277" lon="1.6791067"><ele>292.3333333333333</ele><time>2026-04-27T11:40:42.383Z</time></trkpt><trkpt lat="41.4553418" lon="1.6790227"><ele>292.16666666666663</ele><time>2026-04-27T11:40:43.377Z</time></trkpt><trkpt lat="41.4554079" lon="1.6789301"><ele>292.0</ele><time>2026-04-27T11:40:44.377Z</time></trkpt><trkpt lat="41.4554816" lon="1.6788322"><ele>291.25</ele><time>2026-04-27T11:40:45.375Z</time></trkpt><trkpt lat="41.4555613" lon="1.6787298"><ele>290.5</ele><time>2026-04-27T11:40:46.376Z</time></trkpt><trkpt lat="41.4556406" lon="1.6786207"><ele>289.75</ele><time>2026-04-27T11:40:47.377Z</time></trkpt><trkpt lat="41.4557273" lon="1.6785105"><ele>289.0</ele><time>2026-04-27T11:40:48.376Z</time></trkpt><trkpt lat="41.4558172" lon="1.6783894"><ele>289.0</ele><time>2026-04-27T11:40:49.378Z</time></trkpt><trkpt lat="41.4559076" lon="1.678259"><ele>289.0</ele><time>2026-04-27T11:40:50.395Z</time></trkpt><trkpt lat="41.4560043" lon="1.6781281"><ele>289.0</ele><time>2026-04-27T11:40:51.377Z</time></trkpt><trkpt lat="41.4561036" lon="1.6780006"><ele>289.0</ele><time>2026-04-27T11:40:52.381Z</time></trkpt><trkpt lat="41.4562" lon="1.677872"><ele>289.0</ele><time>2026-04-27T11:40:53.378Z</time></trkpt><trkpt lat="41.4562953" lon="1.6777446"><ele>289.0</ele><time>2026-04-27T11:40:54.381Z</time></trkpt><trkpt lat="41.4563945" lon="1.677615"><ele>289.0</ele><time>2026-04-27T11:40:55.378Z</time></trkpt><trkpt lat="41.4564868" lon="1.6774868"><ele>289.0</ele><time>2026-04-27T11:40:56.376Z</time></trkpt><trkpt lat="41.456581" lon="1.6773581"><ele>289.0</ele><time>2026-04-27T11:40:57.375Z</time></trkpt><trkpt lat="41.4566703" lon="1.6772339"><ele>289.0</ele><time>2026-04-27T11:40:58.384Z</time></trkpt><trkpt lat="41.4567525" lon="1.6771068"><ele>289.0</ele><time>2026-04-27T11:40:59.38Z</time></trkpt><trkpt lat="41.4568454" lon="1.6769896"><ele>289.0</ele><time>2026-04-27T11:41:00.378Z</time></trkpt><trkpt lat="41.4569347" lon="1.6768714"><ele>289.25</ele><time>2026-04-27T11:41:01.381Z</time></trkpt><trkpt lat="41.4570217" lon="1.6767578"><ele>289.5</ele><time>2026-04-27T11:41:02.377Z</time></trkpt><trkpt lat="41.4571084" lon="1.6766459"><ele>289.75</ele><time>2026-04-27T11:41:03.378Z</time></trkpt><trkpt lat="41.4571984" lon="1.6765342"><ele>290.0</ele><time>2026-04-27T11:41:04.381Z</time></trkpt><trkpt lat="41.4572887" lon="1.6764178"><ele>290.0</ele><time>2026-04-27T11:41:05.378Z</time></trkpt><trkpt lat="41.4573827" lon="1.6762969"><ele>290.0</ele><time>2026-04-27T11:41:06.378Z</time></trkpt><trkpt lat="41.4574793" lon="1.6761792"><ele>290.0</ele><time>2026-04-27T11:41:07.38Z</time></trkpt><trkpt lat="41.457578" lon="1.6760626"><ele>290.0</ele><time>2026-04-27T11:41:08.384Z</time></trkpt><trkpt lat="41.4576853" lon="1.6759505"><ele>289.5</ele><time>2026-04-27T11:41:09.383Z</time></trkpt><trkpt lat="41.4577909" lon="1.6758353"><ele>289.0</ele><time>2026-04-27T11:41:10.382Z</time></trkpt><trkpt lat="41.4579008" lon="1.6757187"><ele>288.5</ele><time>2026-04-27T11:41:11.382Z</time></trkpt><trkpt lat="41.458011" lon="1.6755959"><ele>288.0</ele><time>2026-04-27T11:41:12.38Z</time></trkpt><trkpt lat="41.4581153" lon="1.6754755"><ele>287.75</ele><time>2026-04-27T11:41:13.379Z</time></trkpt><trkpt lat="41.4582239" lon="1.6753622"><ele>287.5</ele><time>2026-04-27T11:41:14.38Z</time></trkpt><trkpt lat="41.4583309" lon="1.6752558"><ele>287.25</ele><time>2026-04-27T11:41:15.379Z</time></trkpt><trkpt lat="41.458424" lon="1.6751497"><ele>287.0</ele><time>2026-04-27T11:41:16.377Z</time></trkpt><trkpt lat="41.4585002" lon="1.6750578"><ele>287.8</ele><time>2026-04-27T11:41:17.374Z</time></trkpt><trkpt lat="41.4585573" lon="1.6749608"><ele>288.6</ele><time>2026-04-27T11:41:18.371Z</time></trkpt><trkpt lat="41.4585835" lon="1.6748442"><ele>289.40000000000003</ele><time>2026-04-27T11:41:19.368Z</time></trkpt><trkpt lat="41.4585638" lon="1.6747289"><ele>290.2</ele><time>2026-04-27T11:41:20.376Z</time></trkpt><trkpt lat="41.4584842" lon="1.6746312"><ele>291.0</ele><time>2026-04-27T11:41:21.399Z</time></trkpt><trkpt lat="41.4584036" lon="1.6745357"><ele>291.8</ele><time>2026-04-27T11:41:22.374Z</time></trkpt><trkpt lat="41.4583473" lon="1.6744237"><ele>292.6</ele><time>2026-04-27T11:41:23.372Z</time></trkpt><trkpt lat="41.4582995" lon="1.6743046"><ele>293.4</ele><time>2026-04-27T11:41:24.377Z</time></trkpt><trkpt lat="41.4582778" lon="1.6741698"><ele>294.2</ele><time>2026-04-27T11:41:25.374Z</time></trkpt><trkpt lat="41.4582756" lon="1.6740431"><ele>295.0</ele><time>2026-04-27T11:41:26.375Z</time></trkpt><trkpt lat="41.4583127" lon="1.6739149"><ele>295.0</ele><time>2026-04-27T11:41:27.382Z</time></trkpt><trkpt lat="41.4583781" lon="1.6737883"><ele>295.0</ele><time>2026-04-27T11:41:28.372Z</time></trkpt><trkpt lat="41.458456" lon="1.6736707"><ele>295.0</ele><time>2026-04-27T11:41:29.38Z</time></trkpt><trkpt lat="41.4585451" lon="1.6735694"><ele>295.0</ele><time>2026-04-27T11:41:30.373Z</time></trkpt><trkpt lat="41.4586469" lon="1.6734865"><ele>294.25</ele><time>2026-04-27T11:41:31.379Z</time></trkpt><trkpt lat="41.458759" lon="1.6734197"><ele>293.5</ele><time>2026-04-27T11:41:32.37Z</time></trkpt><trkpt lat="41.4588806" lon="1.6733681"><ele>292.75</ele><time>2026-04-27T11:41:33.365Z</time></trkpt><trkpt lat="41.4590261" lon="1.673331"><ele>292.0</ele><time>2026-04-27T11:41:34.367Z</time></trkpt><trkpt lat="41.459172" lon="1.6732913"><ele>294.5</ele><time>2026-04-27T11:41:35.374Z</time></trkpt><trkpt lat="41.4593212" lon="1.6732467"><ele>297.0</ele><time>2026-04-27T11:41:36.372Z</time></trkpt><trkpt lat="41.4594596" lon="1.6732045"><ele>299.5</ele><time>2026-04-27T11:41:37.38Z</time></trkpt><trkpt lat="41.4595946" lon="1.6731625"><ele>302.0</ele><time>2026-04-27T11:41:38.374Z</time></trkpt><trkpt lat="41.4597293" lon="1.6731252"><ele>303.25</ele><time>2026-04-27T11:41:39.376Z</time></trkpt><trkpt lat="41.4598568" lon="1.6730835"><ele>304.5</ele><time>2026-04-27T11:41:40.368Z</time></trkpt><trkpt lat="41.4599904" lon="1.6730346"><ele>305.75</ele><time>2026-04-27T11:41:41.374Z</time></trkpt><trkpt lat="41.4601193" lon="1.6729781"><ele>307.0</ele><time>2026-04-27T11:41:42.369Z</time></trkpt><trkpt lat="41.4602391" lon="1.6729054"><ele>307.0</ele><time>2026-04-27T11:41:43.374Z</time></trkpt><trkpt lat="41.460349" lon="1.6728161"><ele>307.0</ele><time>2026-04-27T11:41:44.373Z</time></trkpt><trkpt lat="41.4604499" lon="1.6727105"><ele>307.0</ele><time>2026-04-27T11:41:45.379Z</time></trkpt><trkpt lat="41.4605507" lon="1.6726043"><ele>307.0</ele><time>2026-04-27T11:41:46.378Z</time></trkpt><trkpt lat="41.4606447" lon="1.6724881"><ele>308.25</ele><time>2026-04-27T11:41:47.382Z</time></trkpt><trkpt lat="41.4607369" lon="1.6723735"><ele>309.5</ele><time>2026-04-27T11:41:48.378Z</time></trkpt><trkpt lat="41.4608276" lon="1.6722636"><ele>310.75</ele><time>2026-04-27T11:41:49.382Z</time></trkpt><trkpt lat="41.4609207" lon="1.6721569"><ele>312.0</ele><time>2026-04-27T11:41:50.38Z</time></trkpt><trkpt lat="41.4610087" lon="1.6720448"><ele>312.25</ele><time>2026-04-27T11:41:51.387Z</time></trkpt><trkpt lat="41.4610863" lon="1.6719264"><ele>312.5</ele><time>2026-04-27T11:41:52.38Z</time></trkpt><trkpt lat="41.4611368" lon="1.6717853"><ele>312.75</ele><time>2026-04-27T11:41:53.371Z</time></trkpt><trkpt lat="41.4611689" lon="1.67163"><ele>313.0</ele><time>2026-04-27T11:41:54.377Z</time></trkpt><trkpt lat="41.461162" lon="1.6714589"><ele>313.0</ele><time>2026-04-27T11:41:55.375Z</time></trkpt><trkpt lat="41.4611441" lon="1.67129"><ele>313.0</ele><time>2026-04-27T11:41:56.372Z</time></trkpt><trkpt lat="41.4611144" lon="1.6711267"><ele>313.0</ele><time>2026-04-27T11:41:57.373Z</time></trkpt><trkpt lat="41.4610808" lon="1.6709633"><ele>313.0</ele><time>2026-04-27T11:41:58.375Z</time></trkpt><trkpt lat="41.4610477" lon="1.6708011"><ele>314.25</ele><time>2026-04-27T11:41:59.378Z</time></trkpt><trkpt lat="41.4610264" lon="1.6706378"><ele>315.5</ele><time>2026-04-27T11:42:00.37Z</time></trkpt><trkpt lat="41.461028" lon="1.6704681"><ele>316.75</ele><time>2026-04-27T11:42:01.37Z</time></trkpt><trkpt lat="41.4610471" lon="1.6702958"><ele>318.0</ele><time>2026-04-27T11:42:02.368Z</time></trkpt><trkpt lat="41.4610774" lon="1.6701266"><ele>318.0</ele><time>2026-04-27T11:42:03.372Z</time></trkpt><trkpt lat="41.4611116" lon="1.6699577"><ele>318.0</ele><time>2026-04-27T11:42:04.367Z</time></trkpt><trkpt lat="41.4611475" lon="1.6697894"><ele>318.0</ele><time>2026-04-27T11:42:05.377Z</time></trkpt><trkpt lat="41.4611862" lon="1.6696189"><ele>318.0</ele><time>2026-04-27T11:42:06.37Z</time></trkpt><trkpt lat="41.4612178" lon="1.669446"><ele>318.25</ele><time>2026-04-27T11:42:07.376Z</time></trkpt><trkpt lat="41.4612498" lon="1.6692774"><ele>318.5</ele><time>2026-04-27T11:42:08.371Z</time></trkpt><trkpt lat="41.4612806" lon="1.6691094"><ele>318.75</ele><time>2026-04-27T11:42:09.377Z</time></trkpt><trkpt lat="41.4613132" lon="1.6689421"><ele>319.0</ele><time>2026-04-27T11:42:10.373Z</time></trkpt><trkpt lat="41.4613432" lon="1.6687742"><ele>319.75</ele><time>2026-04-27T11:42:11.374Z</time></trkpt><trkpt lat="41.4613787" lon="1.6686067"><ele>320.5</ele><time>2026-04-27T11:42:12.377Z</time></trkpt><trkpt lat="41.4614235" lon="1.6684448"><ele>321.25</ele><time>2026-04-27T11:42:13.375Z</time></trkpt><trkpt lat="41.4614733" lon="1.6682798"><ele>322.0</ele><time>2026-04-27T11:42:14.372Z</time></trkpt><trkpt lat="41.4615296" lon="1.6681183"><ele>322.0</ele><time>2026-04-27T11:42:15.375Z</time></trkpt><trkpt lat="41.4615856" lon="1.6679534"><ele>322.0</ele><time>2026-04-27T11:42:16.37Z</time></trkpt><trkpt lat="41.4616366" lon="1.6677938"><ele>322.0</ele><time>2026-04-27T11:42:17.372Z</time></trkpt><trkpt lat="41.4616875" lon="1.667652"><ele>322.0</ele><time>2026-04-27T11:42:18.37Z</time></trkpt><trkpt lat="41.4617315" lon="1.6675132"><ele>322.16666666666663</ele><time>2026-04-27T11:42:19.371Z</time></trkpt><trkpt lat="41.4617764" lon="1.6673849"><ele>322.3333333333333</ele><time>2026-04-27T11:42:20.367Z</time></trkpt><trkpt lat="41.4618201" lon="1.6672726"><ele>322.5</ele><time>2026-04-27T11:42:21.376Z</time></trkpt><trkpt lat="41.4618583" lon="1.6671695"><ele>322.6666666666667</ele><time>2026-04-27T11:42:22.387Z</time></trkpt><trkpt lat="41.4618923" lon="1.6670731"><ele>322.83333333333337</ele><time>2026-04-27T11:42:23.374Z</time></trkpt><trkpt lat="41.4619256" lon="1.6669781"><ele>323.0</ele><time>2026-04-27T11:42:24.368Z</time></trkpt><trkpt lat="41.4619621" lon="1.6668799"><ele>323.0</ele><time>2026-04-27T11:42:25.369Z</time></trkpt><trkpt lat="41.4619968" lon="1.6667778"><ele>323.0</ele><time>2026-04-27T11:42:26.367Z</time></trkpt><trkpt lat="41.462033" lon="1.6666667"><ele>323.0</ele><time>2026-04-27T11:42:27.371Z</time></trkpt><trkpt lat="41.4620676" lon="1.6665502"><ele>323.0</ele><time>2026-04-27T11:42:28.369Z</time></trkpt><trkpt lat="41.462107" lon="1.6664333"><ele>323.0</ele><time>2026-04-27T11:42:29.375Z</time></trkpt><trkpt lat="41.4621593" lon="1.6663183"><ele>323.2</ele><time>2026-04-27T11:42:30.374Z</time></trkpt><trkpt lat="41.4622223" lon="1.6662141"><ele>323.4</ele><time>2026-04-27T11:42:31.371Z</time></trkpt><trkpt lat="41.4622992" lon="1.6661381"><ele>323.59999999999997</ele><time>2026-04-27T11:42:32.374Z</time></trkpt><trkpt lat="41.4623992" lon="1.6661115"><ele>323.79999999999995</ele><time>2026-04-27T11:42:33.373Z</time></trkpt><trkpt lat="41.4625163" lon="1.6661375"><ele>324.0</ele><time>2026-04-27T11:42:34.367Z</time></trkpt><trkpt lat="41.4626314" lon="1.6661768"><ele>324.0</ele><time>2026-04-27T11:42:35.37Z</time></trkpt><trkpt lat="41.4627522" lon="1.6662152"><ele>324.0</ele><time>2026-04-27T11:42:36.375Z</time></trkpt><trkpt lat="41.4628716" lon="1.6662485"><ele>324.0</ele><time>2026-04-27T11:42:37.371Z</time></trkpt><trkpt lat="41.4629852" lon="1.6662731"><ele>324.0</ele><time>2026-04-27T11:42:38.373Z</time></trkpt><trkpt lat="41.4630968" lon="1.6662958"><ele>324.8333333333333</ele><time>2026-04-27T11:42:39.377Z</time></trkpt><trkpt lat="41.4632013" lon="1.6663202"><ele>325.6666666666667</ele><time>2026-04-27T11:42:40.371Z</time></trkpt><trkpt lat="41.4632986" lon="1.6663397"><ele>326.5</ele><time>2026-04-27T11:42:41.365Z</time></trkpt><trkpt lat="41.4633816" lon="1.6663575"><ele>327.33333333333337</ele><time>2026-04-27T11:42:42.368Z</time></trkpt><trkpt lat="41.4634563" lon="1.6663643"><ele>328.1666666666667</ele><time>2026-04-27T11:42:43.366Z</time></trkpt><trkpt lat="41.4635289" lon="1.6663848"><ele>329.0</ele><time>2026-04-27T11:42:44.369Z</time></trkpt><trkpt lat="41.4636054" lon="1.6664022"><ele>329.0</ele><time>2026-04-27T11:42:45.366Z</time></trkpt><trkpt lat="41.4636861" lon="1.6664141"><ele>329.0</ele><time>2026-04-27T11:42:46.371Z</time></trkpt><trkpt lat="41.4637676" lon="1.6664242"><ele>329.0</ele><time>2026-04-27T11:42:47.367Z</time></trkpt><trkpt lat="41.463855" lon="1.6664409"><ele>329.0</ele><time>2026-04-27T11:42:48.364Z</time></trkpt><trkpt lat="41.463941" lon="1.6664691"><ele>329.0</ele><time>2026-04-27T11:42:49.361Z</time></trkpt><trkpt lat="41.4640223" lon="1.6665032"><ele>329.0</ele><time>2026-04-27T11:42:50.354Z</time></trkpt><trkpt lat="41.4640978" lon="1.6665267"><ele>329.7142857142857</ele><time>2026-04-27T11:42:51.361Z</time></trkpt><trkpt lat="41.4641635" lon="1.6665452"><ele>330.42857142857144</ele><time>2026-04-27T11:42:52.367Z</time></trkpt><trkpt lat="41.4642336" lon="1.6665599"><ele>331.1428571428571</ele><time>2026-04-27T11:42:53.378Z</time></trkpt><trkpt lat="41.4643021" lon="1.6665804"><ele>331.8571428571429</ele><time>2026-04-27T11:42:54.365Z</time></trkpt><trkpt lat="41.4643702" lon="1.6665924"><ele>332.57142857142856</ele><time>2026-04-27T11:42:55.37Z</time></trkpt><trkpt lat="41.464442" lon="1.6666034"><ele>333.2857142857143</ele><time>2026-04-27T11:42:56.366Z</time></trkpt><trkpt lat="41.4645176" lon="1.6666189"><ele>334.0</ele><time>2026-04-27T11:42:57.372Z</time></trkpt><trkpt lat="41.4645944" lon="1.6666407"><ele>334.66666666666663</ele><time>2026-04-27T11:42:58.371Z</time></trkpt><trkpt lat="41.4646715" lon="1.6666716"><ele>335.3333333333333</ele><time>2026-04-27T11:42:59.375Z</time></trkpt><trkpt lat="41.4647496" lon="1.6667192"><ele>336.0</ele><time>2026-04-27T11:43:00.369Z</time></trkpt><trkpt lat="41.4648204" lon="1.6667787"><ele>336.6666666666667</ele><time>2026-04-27T11:43:01.373Z</time></trkpt><trkpt lat="41.4648937" lon="1.6668408"><ele>337.33333333333337</ele><time>2026-04-27T11:43:02.37Z</time></trkpt><trkpt lat="41.4649662" lon="1.6669048"><ele>338.0</ele><time>2026-04-27T11:43:03.376Z</time></trkpt><trkpt lat="41.4650402" lon="1.6669744"><ele>338.0</ele><time>2026-04-27T11:43:04.369Z</time></trkpt><trkpt lat="41.4651173" lon="1.6670483"><ele>338.0</ele><time>2026-04-27T11:43:05.373Z</time></trkpt><trkpt lat="41.4651959" lon="1.6671216"><ele>338.0</ele><time>2026-04-27T11:43:06.37Z</time></trkpt><trkpt lat="41.465278" lon="1.6672003"><ele>338.0</ele><time>2026-04-27T11:43:07.378Z</time></trkpt><trkpt lat="41.4653624" lon="1.6672776"><ele>338.0</ele><time>2026-04-27T11:43:08.369Z</time></trkpt><trkpt lat="41.4654499" lon="1.6673548"><ele>340.0</ele><time>2026-04-27T11:43:09.375Z</time></trkpt><trkpt lat="41.4655394" lon="1.6674315"><ele>342.0</ele><time>2026-04-27T11:43:10.369Z</time></trkpt><trkpt lat="41.4656354" lon="1.6675116"><ele>344.0</ele><time>2026-04-27T11:43:11.377Z</time></trkpt><trkpt lat="41.465735" lon="1.6675925"><ele>346.0</ele><time>2026-04-27T11:43:12.371Z</time></trkpt><trkpt lat="41.4658367" lon="1.6676746"><ele>346.0</ele><time>2026-04-27T11:43:13.374Z</time></trkpt><trkpt lat="41.4659326" lon="1.6677701"><ele>346.0</ele><time>2026-04-27T11:43:14.364Z</time></trkpt><trkpt lat="41.46602" lon="1.6678804"><ele>346.0</ele><time>2026-04-27T11:43:15.376Z</time></trkpt><trkpt lat="41.4660925" lon="1.6680275"><ele>346.0</ele><time>2026-04-27T11:43:16.366Z</time></trkpt><trkpt lat="41.4661587" lon="1.6681897"><ele>345.0</ele><time>2026-04-27T11:43:17.368Z</time></trkpt><trkpt lat="41.4662204" lon="1.6683486"><ele>344.0</ele><time>2026-04-27T11:43:18.366Z</time></trkpt><trkpt lat="41.4662686" lon="1.6685141"><ele>343.0</ele><time>2026-04-27T11:43:19.361Z</time></trkpt><trkpt lat="41.4663067" lon="1.6686798"><ele>342.0</ele><time>2026-04-27T11:43:20.359Z</time></trkpt><trkpt lat="41.4663294" lon="1.66885"><ele>343.0</ele><time>2026-04-27T11:43:21.368Z</time></trkpt><trkpt lat="41.4663353" lon="1.6690188"><ele>344.0</ele><time>2026-04-27T11:43:22.367Z</time></trkpt><trkpt lat="41.4663277" lon="1.6691918"><ele>345.0</ele><time>2026-04-27T11:43:23.37Z</time></trkpt><trkpt lat="41.4663052" lon="1.6693672"><ele>346.0</ele><time>2026-04-27T11:43:24.38Z</time></trkpt><trkpt lat="41.466277" lon="1.6695401"><ele>346.0</ele><time>2026-04-27T11:43:25.374Z</time></trkpt><trkpt lat="41.4662427" lon="1.6697114"><ele>346.0</ele><time>2026-04-27T11:43:26.374Z</time></trkpt><trkpt lat="41.4662042" lon="1.6698789"><ele>346.0</ele><time>2026-04-27T11:43:27.377Z</time></trkpt><trkpt lat="41.4661721" lon="1.6700524"><ele>346.0</ele><time>2026-04-27T11:43:28.383Z</time></trkpt><trkpt lat="41.4661369" lon="1.6702243"><ele>347.0</ele><time>2026-04-27T11:43:29.379Z</time></trkpt><trkpt lat="41.4660969" lon="1.6703945"><ele>348.0</ele><time>2026-04-27T11:43:30.375Z</time></trkpt><trkpt lat="41.4660602" lon="1.6705595"><ele>349.0</ele><time>2026-04-27T11:43:31.374Z</time></trkpt><trkpt lat="41.4660365" lon="1.6707158"><ele>350.0</ele><time>2026-04-27T11:43:32.372Z</time></trkpt><trkpt lat="41.4660239" lon="1.6708587"><ele>350.0</ele><time>2026-04-27T11:43:33.372Z</time></trkpt><trkpt lat="41.4660223" lon="1.6709956"><ele>350.0</ele><time>2026-04-27T11:43:34.369Z</time></trkpt><trkpt lat="41.4660365" lon="1.6711168"><ele>350.0</ele><time>2026-04-27T11:43:35.372Z</time></trkpt><trkpt lat="41.466079" lon="1.6712104"><ele>350.0</ele><time>2026-04-27T11:43:36.372Z</time></trkpt><trkpt lat="41.4661486" lon="1.6712641"><ele>350.0</ele><time>2026-04-27T11:43:37.375Z</time></trkpt><trkpt lat="41.4662403" lon="1.671286"><ele>353.25</ele><time>2026-04-27T11:43:38.371Z</time></trkpt><trkpt lat="41.466345" lon="1.671273"><ele>356.5</ele><time>2026-04-27T11:43:39.371Z</time></trkpt><trkpt lat="41.4664556" lon="1.6712259"><ele>359.75</ele><time>2026-04-27T11:43:40.365Z</time></trkpt><trkpt lat="41.4665645" lon="1.6711435"><ele>363.0</ele><time>2026-04-27T11:43:41.358Z</time></trkpt><trkpt lat="41.4666662" lon="1.6710478"><ele>363.0</ele><time>2026-04-27T11:43:42.357Z</time></trkpt><trkpt lat="41.4667483" lon="1.6709298"><ele>363.0</ele><time>2026-04-27T11:43:43.36Z</time></trkpt><trkpt lat="41.4668149" lon="1.6707991"><ele>363.0</ele><time>2026-04-27T11:43:44.36Z</time></trkpt><trkpt lat="41.4668483" lon="1.6706543"><ele>363.0</ele><time>2026-04-27T11:43:45.358Z</time></trkpt><trkpt lat="41.4668739" lon="1.6705059"><ele>363.0</ele><time>2026-04-27T11:43:46.361Z</time></trkpt><trkpt lat="41.4668881" lon="1.6703433"><ele>363.0</ele><time>2026-04-27T11:43:47.37Z</time></trkpt><trkpt lat="41.4668974" lon="1.6701785"><ele>363.0</ele><time>2026-04-27T11:43:48.375Z</time></trkpt><trkpt lat="41.4669029" lon="1.6700224"><ele>363.0</ele><time>2026-04-27T11:43:49.375Z</time></trkpt><trkpt lat="41.4669112" lon="1.669866"><ele>362.2</ele><time>2026-04-27T11:43:50.376Z</time></trkpt><trkpt lat="41.4669245" lon="1.6697171"><ele>361.4</ele><time>2026-04-27T11:43:51.377Z</time></trkpt><trkpt lat="41.4669384" lon="1.6695743"><ele>360.59999999999997</ele><time>2026-04-27T11:43:52.376Z</time></trkpt><trkpt lat="41.4669537" lon="1.6694327"><ele>359.79999999999995</ele><time>2026-04-27T11:43:53.376Z</time></trkpt><trkpt lat="41.4669754" lon="1.6692975"><ele>359.0</ele><time>2026-04-27T11:43:54.37Z</time></trkpt><trkpt lat="41.4670111" lon="1.6691676"><ele>358.79999999999995</ele><time>2026-04-27T11:43:55.384Z</time></trkpt><trkpt lat="41.467064" lon="1.6690482"><ele>358.59999999999997</ele><time>2026-04-27T11:43:56.372Z</time></trkpt><trkpt lat="41.4671311" lon="1.6689345"><ele>358.4</ele><time>2026-04-27T11:43:57.38Z</time></trkpt><trkpt lat="41.4672087" lon="1.668825"><ele>358.2</ele><time>2026-04-27T11:43:58.378Z</time></trkpt><trkpt lat="41.4672874" lon="1.6687178"><ele>358.0</ele><time>2026-04-27T11:43:59.383Z</time></trkpt><trkpt lat="41.4673681" lon="1.6686071"><ele>360.75</ele><time>2026-04-27T11:44:00.368Z</time></trkpt><trkpt lat="41.4674521" lon="1.6684943"><ele>363.5</ele><time>2026-04-27T11:44:01.373Z</time></trkpt><trkpt lat="41.4675299" lon="1.6683705"><ele>366.25</ele><time>2026-04-27T11:44:02.371Z</time></trkpt><trkpt lat="41.4675911" lon="1.6682244"><ele>369.0</ele><time>2026-04-27T11:44:03.375Z</time></trkpt><trkpt lat="41.467623" lon="1.668059"><ele>369.0</ele><time>2026-04-27T11:44:04.373Z</time></trkpt><trkpt lat="41.4676232" lon="1.6678862"><ele>369.0</ele><time>2026-04-27T11:44:05.373Z</time></trkpt><trkpt lat="41.4676133" lon="1.6677209"><ele>369.0</ele><time>2026-04-27T11:44:06.371Z</time></trkpt><trkpt lat="41.467597" lon="1.6675615"><ele>369.0</ele><time>2026-04-27T11:44:07.378Z</time></trkpt><trkpt lat="41.4675827" lon="1.6674048"><ele>369.0</ele><time>2026-04-27T11:44:08.374Z</time></trkpt><trkpt lat="41.4675753" lon="1.6672463"><ele>369.0</ele><time>2026-04-27T11:44:09.375Z</time></trkpt><trkpt lat="41.4675714" lon="1.6670849"><ele>369.0</ele><time>2026-04-27T11:44:10.374Z</time></trkpt><trkpt lat="41.4675813" lon="1.6669215"><ele>369.0</ele><time>2026-04-27T11:44:11.371Z</time></trkpt><trkpt lat="41.4676054" lon="1.6667635"><ele>369.0</ele><time>2026-04-27T11:44:12.379Z</time></trkpt><trkpt lat="41.4676551" lon="1.6666194"><ele>369.0</ele><time>2026-04-27T11:44:13.369Z</time></trkpt><trkpt lat="41.467717" lon="1.6664794"><ele>369.0</ele><time>2026-04-27T11:44:14.372Z</time></trkpt><trkpt lat="41.4677838" lon="1.666341"><ele>369.0</ele><time>2026-04-27T11:44:15.373Z</time></trkpt><trkpt lat="41.4678575" lon="1.6662056"><ele>368.75</ele><time>2026-04-27T11:44:16.378Z</time></trkpt><trkpt lat="41.4679327" lon="1.6660753"><ele>368.5</ele><time>2026-04-27T11:44:17.377Z</time></trkpt><trkpt lat="41.4680128" lon="1.6659466"><ele>368.25</ele><time>2026-04-27T11:44:18.377Z</time></trkpt><trkpt lat="41.4680989" lon="1.6658284"><ele>368.0</ele><time>2026-04-27T11:44:19.371Z</time></trkpt><trkpt lat="41.4681936" lon="1.6657135"><ele>369.25</ele><time>2026-04-27T11:44:20.372Z</time></trkpt><trkpt lat="41.468293" lon="1.6656042"><ele>370.5</ele><time>2026-04-27T11:44:21.372Z</time></trkpt><trkpt lat="41.4683962" lon="1.6654864"><ele>371.75</ele><time>2026-04-27T11:44:22.375Z</time></trkpt><trkpt lat="41.4684987" lon="1.6653605"><ele>373.0</ele><time>2026-04-27T11:44:23.372Z</time></trkpt><trkpt lat="41.4685858" lon="1.665226"><ele>373.0</ele><time>2026-04-27T11:44:24.373Z</time></trkpt><trkpt lat="41.4686649" lon="1.6650835"><ele>373.0</ele><time>2026-04-27T11:44:25.373Z</time></trkpt><trkpt lat="41.4687426" lon="1.6649364"><ele>373.0</ele><time>2026-04-27T11:44:26.393Z</time></trkpt><trkpt lat="41.468821" lon="1.6647897"><ele>373.0</ele><time>2026-04-27T11:44:27.374Z</time></trkpt><trkpt lat="41.4688979" lon="1.6646423"><ele>376.25</ele><time>2026-04-27T11:44:28.378Z</time></trkpt><trkpt lat="41.4689714" lon="1.6644859"><ele>379.5</ele><time>2026-04-27T11:44:29.375Z</time></trkpt><trkpt lat="41.469043" lon="1.6643275"><ele>382.75</ele><time>2026-04-27T11:44:30.374Z</time></trkpt><trkpt lat="41.4691042" lon="1.6641566"><ele>386.0</ele><time>2026-04-27T11:44:31.377Z</time></trkpt><trkpt lat="41.4691629" lon="1.6639866"><ele>386.0</ele><time>2026-04-27T11:44:32.372Z</time></trkpt><trkpt lat="41.4692242" lon="1.6638218"><ele>386.0</ele><time>2026-04-27T11:44:33.372Z</time></trkpt><trkpt lat="41.4692922" lon="1.6636575"><ele>386.0</ele><time>2026-04-27T11:44:34.373Z</time></trkpt><trkpt lat="41.4693731" lon="1.6635098"><ele>386.0</ele><time>2026-04-27T11:44:35.372Z</time></trkpt><trkpt lat="41.4694633" lon="1.6633664"><ele>386.0</ele><time>2026-04-27T11:44:36.369Z</time></trkpt><trkpt lat="41.4695605" lon="1.6632223"><ele>386.0</ele><time>2026-04-27T11:44:37.376Z</time></trkpt><trkpt lat="41.4696546" lon="1.6630739"><ele>386.0</ele><time>2026-04-27T11:44:38.373Z</time></trkpt><trkpt lat="41.4697503" lon="1.6629304"><ele>386.0</ele><time>2026-04-27T11:44:39.374Z</time></trkpt><trkpt lat="41.4698407" lon="1.6628001"><ele>387.4</ele><time>2026-04-27T11:44:40.374Z</time></trkpt><trkpt lat="41.4699234" lon="1.6626797"><ele>388.8</ele><time>2026-04-27T11:44:41.374Z</time></trkpt><trkpt lat="41.4699935" lon="1.6625671"><ele>390.2</ele><time>2026-04-27T11:44:42.374Z</time></trkpt><trkpt lat="41.4700407" lon="1.6624658"><ele>391.59999999999997</ele><time>2026-04-27T11:44:43.371Z</time></trkpt><trkpt lat="41.4700685" lon="1.6623706"><ele>393.0</ele><time>2026-04-27T11:44:44.37Z</time></trkpt><trkpt lat="41.4700693" lon="1.6622772"><ele>393.0</ele><time>2026-04-27T11:44:45.376Z</time></trkpt><trkpt lat="41.4700265" lon="1.6622014"><ele>393.0</ele><time>2026-04-27T11:44:46.364Z</time></trkpt><trkpt lat="41.4699547" lon="1.6621557"><ele>393.0</ele><time>2026-04-27T11:44:47.383Z</time></trkpt><trkpt lat="41.4698782" lon="1.6621465"><ele>393.0</ele><time>2026-04-27T11:44:48.375Z</time></trkpt><trkpt lat="41.4697902" lon="1.662175"><ele>393.0</ele><time>2026-04-27T11:44:49.368Z</time></trkpt><trkpt lat="41.4697071" lon="1.6622287"><ele>393.0</ele><time>2026-04-27T11:44:50.371Z</time></trkpt><trkpt lat="41.4696243" lon="1.6622849"><ele>392.79999999999995</ele><time>2026-04-27T11:44:51.372Z</time></trkpt><trkpt lat="41.4695421" lon="1.6623415"><ele>392.6</ele><time>2026-04-27T11:44:52.378Z</time></trkpt><trkpt lat="41.4694536" lon="1.6624033"><ele>392.4</ele><time>2026-04-27T11:44:53.377Z</time></trkpt><trkpt lat="41.4693612" lon="1.6624559"><ele>392.20000000000005</ele><time>2026-04-27T11:44:54.376Z</time></trkpt><trkpt lat="41.4692621" lon="1.6625008"><ele>392.0</ele><time>2026-04-27T11:44:55.382Z</time></trkpt><trkpt lat="41.4691552" lon="1.6625126"><ele>392.0</ele><time>2026-04-27T11:44:56.376Z</time></trkpt><trkpt lat="41.4690459" lon="1.6624861"><ele>392.0</ele><time>2026-04-27T11:44:57.392Z</time></trkpt><trkpt lat="41.468932" lon="1.6624486"><ele>392.0</ele><time>2026-04-27T11:44:58.381Z</time></trkpt><trkpt lat="41.4688195" lon="1.6624051"><ele>392.0</ele><time>2026-04-27T11:44:59.383Z</time></trkpt><trkpt lat="41.4687081" lon="1.6623623"><ele>392.0</ele><time>2026-04-27T11:45:00.374Z</time></trkpt><trkpt lat="41.4685949" lon="1.6623221"><ele>392.0</ele><time>2026-04-27T11:45:01.379Z</time></trkpt><trkpt lat="41.4684831" lon="1.6622814"><ele>392.0</ele><time>2026-04-27T11:45:02.378Z</time></trkpt><trkpt lat="41.4683721" lon="1.6622343"><ele>392.0</ele><time>2026-04-27T11:45:03.38Z</time></trkpt><trkpt lat="41.468269" lon="1.6621741"><ele>392.0</ele><time>2026-04-27T11:45:04.369Z</time></trkpt><trkpt lat="41.4681815" lon="1.6620868"><ele>392.0</ele><time>2026-04-27T11:45:05.374Z</time></trkpt><trkpt lat="41.4681125" lon="1.6619727"><ele>392.0</ele><time>2026-04-27T11:45:06.378Z</time></trkpt><trkpt lat="41.4680678" lon="1.6618458"><ele>392.0</ele><time>2026-04-27T11:45:07.378Z</time></trkpt><trkpt lat="41.4680593" lon="1.6616929"><ele>392.0</ele><time>2026-04-27T11:45:08.373Z</time></trkpt><trkpt lat="41.4680955" lon="1.6615464"><ele>393.20000000000005</ele><time>2026-04-27T11:45:09.372Z</time></trkpt><trkpt lat="41.4681414" lon="1.6614016"><ele>394.4</ele><time>2026-04-27T11:45:10.365Z</time></trkpt><trkpt lat="41.4681931" lon="1.6612689"><ele>395.6</ele><time>2026-04-27T11:45:11.373Z</time></trkpt><trkpt lat="41.4682471" lon="1.6611616"><ele>396.79999999999995</ele><time>2026-04-27T11:45:12.374Z</time></trkpt><trkpt lat="41.4683342" lon="1.6610954"><ele>398.0</ele><time>2026-04-27T11:45:13.375Z</time></trkpt><trkpt lat="41.4684509" lon="1.6610525"><ele>396.75</ele><time>2026-04-27T11:45:14.367Z</time></trkpt><trkpt lat="41.4685801" lon="1.6610095"><ele>395.5</ele><time>2026-04-27T11:45:15.373Z</time></trkpt><trkpt lat="41.4687123" lon="1.6609613"><ele>394.25</ele><time>2026-04-27T11:45:16.371Z</time></trkpt><trkpt lat="41.4688458" lon="1.6609116"><ele>393.0</ele><time>2026-04-27T11:45:17.377Z</time></trkpt><trkpt lat="41.4689826" lon="1.6608593"><ele>393.0</ele><time>2026-04-27T11:45:18.374Z</time></trkpt><trkpt lat="41.4691211" lon="1.6608005"><ele>393.0</ele><time>2026-04-27T11:45:19.374Z</time></trkpt><trkpt lat="41.4692651" lon="1.660738"><ele>393.0</ele><time>2026-04-27T11:45:20.372Z</time></trkpt><trkpt lat="41.4694162" lon="1.66067"><ele>393.0</ele><time>2026-04-27T11:45:21.374Z</time></trkpt><trkpt lat="41.4695619" lon="1.6606028"><ele>393.0</ele><time>2026-04-27T11:45:22.369Z</time></trkpt><trkpt lat="41.4697064" lon="1.6605286"><ele>393.0</ele><time>2026-04-27T11:45:23.372Z</time></trkpt><trkpt lat="41.4698499" lon="1.6604704"><ele>391.0</ele><time>2026-04-27T11:45:24.369Z</time></trkpt><trkpt lat="41.4699896" lon="1.6604112"><ele>389.0</ele><time>2026-04-27T11:45:25.374Z</time></trkpt><trkpt lat="41.4701295" lon="1.6603368"><ele>387.0</ele><time>2026-04-27T11:45:26.366Z</time></trkpt><trkpt lat="41.4702616" lon="1.6602305"><ele>387.0</ele><time>2026-04-27T11:45:27.364Z</time></trkpt><trkpt lat="41.4703846" lon="1.6601023"><ele>387.0</ele><time>2026-04-27T11:45:28.381Z</time></trkpt><trkpt lat="41.4704994" lon="1.6599655"><ele>387.0</ele><time>2026-04-27T11:45:29.368Z</time></trkpt><trkpt lat="41.4706103" lon="1.6598306"><ele>392.33333333333337</ele><time>2026-04-27T11:45:30.366Z</time></trkpt><trkpt lat="41.4707294" lon="1.6597112"><ele>397.6666666666667</ele><time>2026-04-27T11:45:31.366Z</time></trkpt><trkpt lat="41.470865" lon="1.6596121"><ele>403.0</ele><time>2026-04-27T11:45:32.363Z</time></trkpt><trkpt lat="41.4710118" lon="1.6595339"><ele>403.6666666666667</ele><time>2026-04-27T11:45:33.363Z</time></trkpt><trkpt lat="41.4711627" lon="1.6594477"><ele>404.33333333333337</ele><time>2026-04-27T11:45:34.357Z</time></trkpt><trkpt lat="41.4713087" lon="1.6593289"><ele>405.0</ele><time>2026-04-27T11:45:35.362Z</time></trkpt><trkpt lat="41.4714367" lon="1.6591798"><ele>405.0</ele><time>2026-04-27T11:45:36.363Z</time></trkpt><trkpt lat="41.4715345" lon="1.6590185"><ele>405.0</ele><time>2026-04-27T11:45:37.361Z</time></trkpt><trkpt lat="41.4716159" lon="1.6588534"><ele>405.0</ele><time>2026-04-27T11:45:38.356Z</time></trkpt><trkpt lat="41.4716799" lon="1.6586923"><ele>405.0</ele><time>2026-04-27T11:45:39.366Z</time></trkpt><trkpt lat="41.4717445" lon="1.6585333"><ele>401.5</ele><time>2026-04-27T11:45:40.358Z</time></trkpt><trkpt lat="41.4718191" lon="1.6583891"><ele>398.0</ele><time>2026-04-27T11:45:41.36Z</time></trkpt><trkpt lat="41.4718968" lon="1.6582763"><ele>394.5</ele><time>2026-04-27T11:45:42.359Z</time></trkpt><trkpt lat="41.4719773" lon="1.6581902"><ele>391.0</ele><time>2026-04-27T11:45:43.365Z</time></trkpt><trkpt lat="41.4720897" lon="1.6581442"><ele>393.5</ele><time>2026-04-27T11:45:44.375Z</time></trkpt><trkpt lat="41.4721975" lon="1.6581453"><ele>396.0</ele><time>2026-04-27T11:45:45.372Z</time></trkpt><trkpt lat="41.4723015" lon="1.6582141"><ele>398.5</ele><time>2026-04-27T11:45:46.373Z</time></trkpt><trkpt lat="41.4723821" lon="1.6583237"><ele>401.0</ele><time>2026-04-27T11:45:47.379Z</time></trkpt><trkpt lat="41.4724531" lon="1.6584454"><ele>401.0</ele><time>2026-04-27T11:45:48.377Z</time></trkpt><trkpt lat="41.4725201" lon="1.6585547"><ele>401.0</ele><time>2026-04-27T11:45:49.376Z</time></trkpt><trkpt lat="41.4725983" lon="1.6586281"><ele>401.0</ele><time>2026-04-27T11:45:50.372Z</time></trkpt><trkpt lat="41.4726906" lon="1.6586486"><ele>401.0</ele><time>2026-04-27T11:45:51.377Z</time></trkpt><trkpt lat="41.472793" lon="1.658608"><ele>401.0</ele><time>2026-04-27T11:45:52.369Z</time></trkpt><trkpt lat="41.4728998" lon="1.6585207"><ele>402.0</ele><time>2026-04-27T11:45:53.369Z</time></trkpt><trkpt lat="41.4729962" lon="1.6584756"><ele>403.0</ele><time>2026-04-27T11:45:54.368Z</time></trkpt><trkpt lat="41.4730961" lon="1.6584841"><ele>404.0</ele><time>2026-04-27T11:45:55.37Z</time></trkpt><trkpt lat="41.4732037" lon="1.6585499"><ele>405.0</ele><time>2026-04-27T11:45:56.361Z</time></trkpt><trkpt lat="41.4733077" lon="1.6586268"><ele>406.0</ele><time>2026-04-27T11:45:57.364Z</time></trkpt><trkpt lat="41.4734109" lon="1.6587063"><ele>406.0</ele><time>2026-04-27T11:45:58.371Z</time></trkpt><trkpt lat="41.4735066" lon="1.6587791"><ele>406.0</ele><time>2026-04-27T11:45:59.399Z</time></trkpt><trkpt lat="41.473605" lon="1.6588523"><ele>406.0</ele><time>2026-04-27T11:46:00.365Z</time></trkpt><trkpt lat="41.4736988" lon="1.6589426"><ele>406.0</ele><time>2026-04-27T11:46:01.37Z</time></trkpt><trkpt lat="41.4737653" lon="1.6590697"><ele>405.75</ele><time>2026-04-27T11:46:02.371Z</time></trkpt><trkpt lat="41.4738062" lon="1.6592356"><ele>405.5</ele><time>2026-04-27T11:46:03.369Z</time></trkpt><trkpt lat="41.4738467" lon="1.6594033"><ele>405.25</ele><time>2026-04-27T11:46:04.368Z</time></trkpt><trkpt lat="41.4738971" lon="1.6595557"><ele>405.0</ele><time>2026-04-27T11:46:05.371Z</time></trkpt><trkpt lat="41.4739608" lon="1.6596788"><ele>405.0</ele><time>2026-04-27T11:46:06.374Z</time></trkpt><trkpt lat="41.4740539" lon="1.6597595"><ele>405.0</ele><time>2026-04-27T11:46:07.377Z</time></trkpt><trkpt lat="41.4741703" lon="1.6598044"><ele>405.0</ele><time>2026-04-27T11:46:08.362Z</time></trkpt><trkpt lat="41.4742988" lon="1.6598322"><ele>405.0</ele><time>2026-04-27T11:46:09.371Z</time></trkpt><trkpt lat="41.4744242" lon="1.6598636"><ele>405.0</ele><time>2026-04-27T11:46:10.375Z</time></trkpt><trkpt lat="41.4745482" lon="1.6598908"><ele>405.0</ele><time>2026-04-27T11:46:11.377Z</time></trkpt><trkpt lat="41.4746707" lon="1.659911"><ele>405.0</ele><time>2026-04-27T11:46:12.376Z</time></trkpt><trkpt lat="41.4747952" lon="1.6599116"><ele>405.0</ele><time>2026-04-27T11:46:13.378Z</time></trkpt><trkpt lat="41.4749203" lon="1.6598815"><ele>405.75</ele><time>2026-04-27T11:46:14.373Z</time></trkpt><trkpt lat="41.4750444" lon="1.6598293"><ele>406.5</ele><time>2026-04-27T11:46:15.371Z</time></trkpt><trkpt lat="41.4751631" lon="1.6597539"><ele>407.25</ele><time>2026-04-27T11:46:16.374Z</time></trkpt><trkpt lat="41.4752808" lon="1.6596628"><ele>408.0</ele><time>2026-04-27T11:46:17.38Z</time></trkpt><trkpt lat="41.4753904" lon="1.659562"><ele>408.25</ele><time>2026-04-27T11:46:18.371Z</time></trkpt><trkpt lat="41.4754906" lon="1.659438"><ele>408.5</ele><time>2026-04-27T11:46:19.376Z</time></trkpt><trkpt lat="41.4755804" lon="1.6593101"><ele>408.75</ele><time>2026-04-27T11:46:20.378Z</time></trkpt><trkpt lat="41.4756623" lon="1.6591695"><ele>409.0</ele><time>2026-04-27T11:46:21.372Z</time></trkpt><trkpt lat="41.4757372" lon="1.6590177"><ele>409.0</ele><time>2026-04-27T11:46:22.37Z</time></trkpt><trkpt lat="41.4758072" lon="1.6588653"><ele>409.0</ele><time>2026-04-27T11:46:23.371Z</time></trkpt><trkpt lat="41.4758721" lon="1.6587127"><ele>409.0</ele><time>2026-04-27T11:46:24.369Z</time></trkpt><trkpt lat="41.47593" lon="1.6585536"><ele>409.0</ele><time>2026-04-27T11:46:25.377Z</time></trkpt><trkpt lat="41.475977" lon="1.6583922"><ele>410.75</ele><time>2026-04-27T11:46:26.365Z</time></trkpt><trkpt lat="41.476015" lon="1.6582372"><ele>412.5</ele><time>2026-04-27T11:46:27.371Z</time></trkpt><trkpt lat="41.4760455" lon="1.6580802"><ele>414.25</ele><time>2026-04-27T11:46:28.372Z</time></trkpt><trkpt lat="41.4760649" lon="1.6579306"><ele>416.0</ele><time>2026-04-27T11:46:29.387Z</time></trkpt><trkpt lat="41.4761023" lon="1.6577926"><ele>416.4</ele><time>2026-04-27T11:46:30.365Z</time></trkpt><trkpt lat="41.4761615" lon="1.6576808"><ele>416.8</ele><time>2026-04-27T11:46:31.387Z</time></trkpt><trkpt lat="41.4762431" lon="1.6576061"><ele>417.2</ele><time>2026-04-27T11:46:32.383Z</time></trkpt><trkpt lat="41.4763486" lon="1.6575564"><ele>417.59999999999997</ele><time>2026-04-27T11:46:33.376Z</time></trkpt><trkpt lat="41.4764551" lon="1.6575014"><ele>418.0</ele><time>2026-04-27T11:46:34.379Z</time></trkpt><trkpt lat="41.4765637" lon="1.6574275"><ele>418.0</ele><time>2026-04-27T11:46:35.378Z</time></trkpt><trkpt lat="41.4766663" lon="1.65734"><ele>418.0</ele><time>2026-04-27T11:46:36.374Z</time></trkpt><trkpt lat="41.4767617" lon="1.657239"><ele>418.0</ele><time>2026-04-27T11:46:37.376Z</time></trkpt><trkpt lat="41.4768638" lon="1.6571487"><ele>418.0</ele><time>2026-04-27T11:46:38.373Z</time></trkpt><trkpt lat="41.4769818" lon="1.6570845"><ele>417.5</ele><time>2026-04-27T11:46:39.376Z</time></trkpt><trkpt lat="41.4771094" lon="1.6570621"><ele>417.0</ele><time>2026-04-27T11:46:40.371Z</time></trkpt><trkpt lat="41.4772386" lon="1.6570548"><ele>416.5</ele><time>2026-04-27T11:46:41.372Z</time></trkpt><trkpt lat="41.4773661" lon="1.6570436"><ele>416.0</ele><time>2026-04-27T11:46:42.363Z</time></trkpt><trkpt lat="41.4774975" lon="1.6570374"><ele>416.0</ele><time>2026-04-27T11:46:43.372Z</time></trkpt><trkpt lat="41.4776312" lon="1.6570447"><ele>416.0</ele><time>2026-04-27T11:46:44.368Z</time></trkpt><trkpt lat="41.4777655" lon="1.657075"><ele>416.0</ele><time>2026-04-27T11:46:45.37Z</time></trkpt><trkpt lat="41.4778992" lon="1.6571545"><ele>416.0</ele><time>2026-04-27T11:46:46.361Z</time></trkpt><trkpt lat="41.4780195" lon="1.6572535"><ele>415.25</ele><time>2026-04-27T11:46:47.366Z</time></trkpt><trkpt lat="41.4781338" lon="1.6573635"><ele>414.5</ele><time>2026-04-27T11:46:48.368Z</time></trkpt><trkpt lat="41.4782416" lon="1.6574885"><ele>413.75</ele><time>2026-04-27T11:46:49.369Z</time></trkpt><trkpt lat="41.478338" lon="1.6576356"><ele>413.0</ele><time>2026-04-27T11:46:50.372Z</time></trkpt><trkpt lat="41.4784265" lon="1.6577925"><ele>413.0</ele><time>2026-04-27T11:46:51.374Z</time></trkpt><trkpt lat="41.4785235" lon="1.6579311"><ele>413.0</ele><time>2026-04-27T11:46:52.375Z</time></trkpt><trkpt lat="41.4786342" lon="1.6580285"><ele>413.0</ele><time>2026-04-27T11:46:53.377Z</time></trkpt><trkpt lat="41.478772" lon="1.6580786"><ele>413.0</ele><time>2026-04-27T11:46:54.375Z</time></trkpt><trkpt lat="41.4788945" lon="1.6581036"><ele>415.5</ele><time>2026-04-27T11:46:55.376Z</time></trkpt><trkpt lat="41.4790303" lon="1.6581266"><ele>418.0</ele><time>2026-04-27T11:46:56.37Z</time></trkpt><trkpt lat="41.4791696" lon="1.6581279"><ele>420.5</ele><time>2026-04-27T11:46:57.378Z</time></trkpt><trkpt lat="41.4793071" lon="1.6581238"><ele>423.0</ele><time>2026-04-27T11:46:58.378Z</time></trkpt><trkpt lat="41.479445" lon="1.6581096"><ele>423.0</ele><time>2026-04-27T11:46:59.377Z</time></trkpt><trkpt lat="41.4795827" lon="1.6580926"><ele>423.0</ele><time>2026-04-27T11:47:00.381Z</time></trkpt><trkpt lat="41.4797202" lon="1.6580824"><ele>423.0</ele><time>2026-04-27T11:47:01.385Z</time></trkpt><trkpt lat="41.4798486" lon="1.6580856"><ele>423.0</ele><time>2026-04-27T11:47:02.362Z</time></trkpt><trkpt lat="41.4799852" lon="1.6581315"><ele>424.25</ele><time>2026-04-27T11:47:03.361Z</time></trkpt><trkpt lat="41.4801095" lon="1.6582174"><ele>425.5</ele><time>2026-04-27T11:47:04.369Z</time></trkpt><trkpt lat="41.4802223" lon="1.6583453"><ele>426.75</ele><time>2026-04-27T11:47:05.369Z</time></trkpt><trkpt lat="41.480317" lon="1.658476"><ele>428.0</ele><time>2026-04-27T11:47:06.372Z</time></trkpt><trkpt lat="41.4804049" lon="1.6586036"><ele>428.25</ele><time>2026-04-27T11:47:07.37Z</time></trkpt><trkpt lat="41.4805025" lon="1.6587335"><ele>428.5</ele><time>2026-04-27T11:47:08.369Z</time></trkpt><trkpt lat="41.4806005" lon="1.6588552"><ele>428.75</ele><time>2026-04-27T11:47:09.371Z</time></trkpt><trkpt lat="41.4807136" lon="1.6589586"><ele>429.0</ele><time>2026-04-27T11:47:10.363Z</time></trkpt><trkpt lat="41.4808414" lon="1.6590266"><ele>429.0</ele><time>2026-04-27T11:47:11.366Z</time></trkpt><trkpt lat="41.4809723" lon="1.6590743"><ele>429.0</ele><time>2026-04-27T11:47:12.367Z</time></trkpt><trkpt lat="41.4811018" lon="1.659121"><ele>429.0</ele><time>2026-04-27T11:47:13.367Z</time></trkpt><trkpt lat="41.4812327" lon="1.6591999"><ele>429.0</ele><time>2026-04-27T11:47:14.372Z</time></trkpt><trkpt lat="41.4813559" lon="1.6593079"><ele>430.0</ele><time>2026-04-27T11:47:15.37Z</time></trkpt><trkpt lat="41.4814555" lon="1.6594248"><ele>431.0</ele><time>2026-04-27T11:47:16.368Z</time></trkpt><trkpt lat="41.4815607" lon="1.6595319"><ele>432.0</ele><time>2026-04-27T11:47:17.367Z</time></trkpt><trkpt lat="41.4816729" lon="1.6596142"><ele>433.0</ele><time>2026-04-27T11:47:18.366Z</time></trkpt><trkpt lat="41.4817731" lon="1.6596997"><ele>433.0</ele><time>2026-04-27T11:47:19.373Z</time></trkpt><trkpt lat="41.4818426" lon="1.6598128"><ele>432.99999999999994</ele><time>2026-04-27T11:47:20.371Z</time></trkpt><trkpt lat="41.4818807" lon="1.659952"><ele>432.99999999999994</ele><time>2026-04-27T11:47:21.371Z</time></trkpt><trkpt lat="41.4818853" lon="1.6600979"><ele>433.0</ele><time>2026-04-27T11:47:22.373Z</time></trkpt><trkpt lat="41.4818798" lon="1.6602369"><ele>433.0</ele><time>2026-04-27T11:47:23.37Z</time></trkpt><trkpt lat="41.4819024" lon="1.6603645"><ele>433.4</ele><time>2026-04-27T11:47:24.364Z</time></trkpt><trkpt lat="41.4819403" lon="1.660474"><ele>433.79999999999995</ele><time>2026-04-27T11:47:25.377Z</time></trkpt><trkpt lat="41.4819894" lon="1.6605819"><ele>434.2</ele><time>2026-04-27T11:47:26.366Z</time></trkpt><trkpt lat="41.482047" lon="1.6606913"><ele>434.6</ele><time>2026-04-27T11:47:27.362Z</time></trkpt><trkpt lat="41.4821168" lon="1.6607973"><ele>435.0</ele><time>2026-04-27T11:47:28.368Z</time></trkpt><trkpt lat="41.4822005" lon="1.6608924"><ele>437.0</ele><time>2026-04-27T11:47:29.372Z</time></trkpt><trkpt lat="41.4822959" lon="1.6609616"><ele>439.0</ele><time>2026-04-27T11:47:30.365Z</time></trkpt><trkpt lat="41.4824045" lon="1.6610062"><ele>441.0</ele><time>2026-04-27T11:47:31.385Z</time></trkpt><trkpt lat="41.4825232" lon="1.6610398"><ele>443.0</ele><time>2026-04-27T11:47:32.366Z</time></trkpt><trkpt lat="41.4826466" lon="1.6610592"><ele>443.0</ele><time>2026-04-27T11:47:33.363Z</time></trkpt><trkpt lat="41.4827613" lon="1.6610651"><ele>443.0</ele><time>2026-04-27T11:47:34.368Z</time></trkpt><trkpt lat="41.482875" lon="1.6610326"><ele>443.0</ele><time>2026-04-27T11:47:35.374Z</time></trkpt><trkpt lat="41.482983" lon="1.6609574"><ele>443.0</ele><time>2026-04-27T11:47:36.369Z</time></trkpt><trkpt lat="41.4830811" lon="1.6608521"><ele>443.0</ele><time>2026-04-27T11:47:37.367Z</time></trkpt><trkpt lat="41.4831697" lon="1.6607479"><ele>443.0</ele><time>2026-04-27T11:47:38.37Z</time></trkpt><trkpt lat="41.4832611" lon="1.6606504"><ele>443.0</ele><time>2026-04-27T11:47:39.366Z</time></trkpt><trkpt lat="41.4833611" lon="1.6605739"><ele>443.0</ele><time>2026-04-27T11:47:40.36Z</time></trkpt><trkpt lat="41.4834691" lon="1.6605259"><ele>443.0</ele><time>2026-04-27T11:47:41.365Z</time></trkpt><trkpt lat="41.4835835" lon="1.6604867"><ele>443.0</ele><time>2026-04-27T11:47:42.365Z</time></trkpt><trkpt lat="41.483699" lon="1.6604476"><ele>443.0</ele><time>2026-04-27T11:47:43.366Z</time></trkpt><trkpt lat="41.4838172" lon="1.6604157"><ele>443.0</ele><time>2026-04-27T11:47:44.37Z</time></trkpt><trkpt lat="41.4839331" lon="1.6603937"><ele>443.0</ele><time>2026-04-27T11:47:45.367Z</time></trkpt><trkpt lat="41.4840403" lon="1.6603886"><ele>442.99999999999994</ele><time>2026-04-27T11:47:46.373Z</time></trkpt><trkpt lat="41.4841364" lon="1.6604167"><ele>442.99999999999994</ele><time>2026-04-27T11:47:47.372Z</time></trkpt><trkpt lat="41.4842289" lon="1.660508"><ele>443.0</ele><time>2026-04-27T11:47:48.364Z</time></trkpt><trkpt lat="41.4842961" lon="1.6606416"><ele>443.0</ele><time>2026-04-27T11:47:49.367Z</time></trkpt><trkpt lat="41.4843418" lon="1.6607909"><ele>443.0</ele><time>2026-04-27T11:47:50.37Z</time></trkpt><trkpt lat="41.4843905" lon="1.660941"><ele>442.99999999999994</ele><time>2026-04-27T11:47:51.365Z</time></trkpt><trkpt lat="41.4844339" lon="1.6610829"><ele>442.99999999999994</ele><time>2026-04-27T11:47:52.368Z</time></trkpt><trkpt lat="41.4844762" lon="1.6612178"><ele>443.0</ele><time>2026-04-27T11:47:53.368Z</time></trkpt><trkpt lat="41.4845174" lon="1.661342"><ele>443.0</ele><time>2026-04-27T11:47:54.371Z</time></trkpt><trkpt lat="41.4845631" lon="1.6614553"><ele>442.99999999999994</ele><time>2026-04-27T11:47:55.369Z</time></trkpt><trkpt lat="41.4846165" lon="1.6615524"><ele>443.0</ele><time>2026-04-27T11:47:56.377Z</time></trkpt><trkpt lat="41.4846853" lon="1.6616109"><ele>443.0</ele><time>2026-04-27T11:47:57.377Z</time></trkpt><trkpt lat="41.4847609" lon="1.6616561"><ele>443.0</ele><time>2026-04-27T11:47:58.377Z</time></trkpt><trkpt lat="41.4848373" lon="1.6616442"><ele>442.99999999999994</ele><time>2026-04-27T11:47:59.379Z</time></trkpt><trkpt lat="41.484913" lon="1.6615671"><ele>443.0</ele><time>2026-04-27T11:48:00.378Z</time></trkpt><trkpt lat="41.4849762" lon="1.6614434"><ele>443.0</ele><time>2026-04-27T11:48:01.375Z</time></trkpt><trkpt lat="41.4850178" lon="1.6612808"><ele>443.0</ele><time>2026-04-27T11:48:02.379Z</time></trkpt><trkpt lat="41.4850492" lon="1.6611213"><ele>443.0</ele><time>2026-04-27T11:48:03.374Z</time></trkpt><trkpt lat="41.4851107" lon="1.6608257"><ele>444.66666666666663</ele><time>2026-04-27T11:48:05.377Z</time></trkpt><trkpt lat="41.4851487" lon="1.6607046"><ele>446.3333333333333</ele><time>2026-04-27T11:48:06.37Z</time></trkpt><trkpt lat="41.4852011" lon="1.660615"><ele>448.0</ele><time>2026-04-27T11:48:07.376Z</time></trkpt><trkpt lat="41.4852624" lon="1.6605724"><ele>449.66666666666663</ele><time>2026-04-27T11:48:08.361Z</time></trkpt><trkpt lat="41.4853647" lon="1.6605482"><ele>451.3333333333333</ele><time>2026-04-27T11:48:10.369Z</time></trkpt><trkpt lat="41.4854399" lon="1.6605373"><ele>453.0</ele><time>2026-04-27T11:48:13.372Z</time></trkpt><trkpt lat="41.4855323" lon="1.6604983"><ele>454.5</ele><time>2026-04-27T11:48:34.365Z</time></trkpt><trkpt lat="41.485601" lon="1.66052"><ele>456.0</ele><time>2026-04-27T11:48:35.37Z</time></trkpt><trkpt lat="41.4856655" lon="1.6605902"><ele>457.5</ele><time>2026-04-27T11:48:36.36Z</time></trkpt><trkpt lat="41.4857216" lon="1.660684"><ele>459.0</ele><time>2026-04-27T11:48:37.362Z</time></trkpt><trkpt lat="41.4857701" lon="1.6607928"><ele>460.5</ele><time>2026-04-27T11:48:38.364Z</time></trkpt><trkpt lat="41.4858248" lon="1.6609055"><ele>462.0</ele><time>2026-04-27T11:48:39.366Z</time></trkpt><trkpt lat="41.4858824" lon="1.6610237"><ele>458.8</ele><time>2026-04-27T11:48:40.366Z</time></trkpt><trkpt lat="41.4859436" lon="1.661144"><ele>455.6</ele><time>2026-04-27T11:48:41.368Z</time></trkpt><trkpt lat="41.4860039" lon="1.6612647"><ele>452.40000000000003</ele><time>2026-04-27T11:48:42.366Z</time></trkpt><trkpt lat="41.4860651" lon="1.6613772"><ele>449.20000000000005</ele><time>2026-04-27T11:48:43.379Z</time></trkpt><trkpt lat="41.4861313" lon="1.6614817"><ele>446.0</ele><time>2026-04-27T11:48:44.372Z</time></trkpt><trkpt lat="41.486197" lon="1.661579"><ele>448.16666666666663</ele><time>2026-04-27T11:48:45.375Z</time></trkpt><trkpt lat="41.4862616" lon="1.6616621"><ele>450.3333333333333</ele><time>2026-04-27T11:48:46.374Z</time></trkpt><trkpt lat="41.4863386" lon="1.661725"><ele>452.5</ele><time>2026-04-27T11:48:47.377Z</time></trkpt><trkpt lat="41.4864186" lon="1.6617707"><ele>454.66666666666663</ele><time>2026-04-27T11:48:48.367Z</time></trkpt><trkpt lat="41.4864998" lon="1.6617923"><ele>456.8333333333333</ele><time>2026-04-27T11:48:49.381Z</time></trkpt><trkpt lat="41.4865847" lon="1.6617895"><ele>459.0</ele><time>2026-04-27T11:48:50.384Z</time></trkpt><trkpt lat="41.4866696" lon="1.6617623"><ele>459.0</ele><time>2026-04-27T11:48:51.378Z</time></trkpt><trkpt lat="41.486746" lon="1.6617103"><ele>459.0</ele><time>2026-04-27T11:48:52.38Z</time></trkpt><trkpt lat="41.4868838" lon="1.6615345"><ele>459.0</ele><time>2026-04-27T11:48:54.372Z</time></trkpt><trkpt lat="41.4869378" lon="1.6614273"><ele>459.0</ele><time>2026-04-27T11:48:55.373Z</time></trkpt><trkpt lat="41.4869883" lon="1.6613124"><ele>459.0</ele><time>2026-04-27T11:48:56.372Z</time></trkpt><trkpt lat="41.4870384" lon="1.6611899"><ele>459.0</ele><time>2026-04-27T11:48:57.369Z</time></trkpt><trkpt lat="41.4870941" lon="1.6610588"><ele>459.0</ele><time>2026-04-27T11:48:58.37Z</time></trkpt><trkpt lat="41.4871452" lon="1.6609244"><ele>459.0</ele><time>2026-04-27T11:48:59.368Z</time></trkpt><trkpt lat="41.4872013" lon="1.6607946"><ele>459.0</ele><time>2026-04-27T11:49:00.365Z</time></trkpt><trkpt lat="41.4872565" lon="1.660666"><ele>460.6</ele><time>2026-04-27T11:49:01.367Z</time></trkpt><trkpt lat="41.4873056" lon="1.6605379"><ele>462.2</ele><time>2026-04-27T11:49:02.363Z</time></trkpt><trkpt lat="41.4873545" lon="1.6604124"><ele>463.80000000000007</ele><time>2026-04-27T11:49:03.369Z</time></trkpt><trkpt lat="41.4874039" lon="1.6602882"><ele>465.40000000000003</ele><time>2026-04-27T11:49:04.375Z</time></trkpt><trkpt lat="41.4874565" lon="1.6601714"><ele>467.0</ele><time>2026-04-27T11:49:05.365Z</time></trkpt><trkpt lat="41.4875119" lon="1.6600525"><ele>470.0</ele><time>2026-04-27T11:49:06.362Z</time></trkpt><trkpt lat="41.4875654" lon="1.6599315"><ele>473.00000000000006</ele><time>2026-04-27T11:49:07.361Z</time></trkpt><trkpt lat="41.4876228" lon="1.6598154"><ele>476.00000000000006</ele><time>2026-04-27T11:49:08.358Z</time></trkpt><trkpt lat="41.4876814" lon="1.6597018"><ele>479.0</ele><time>2026-04-27T11:49:09.366Z</time></trkpt><trkpt lat="41.4877367" lon="1.6595862"><ele>482.0</ele><time>2026-04-27T11:49:10.358Z</time></trkpt><trkpt lat="41.4877928" lon="1.6594691"><ele>481.20000000000005</ele><time>2026-04-27T11:49:11.366Z</time></trkpt><trkpt lat="41.4878471" lon="1.6593549"><ele>480.40000000000003</ele><time>2026-04-27T11:49:12.36Z</time></trkpt><trkpt lat="41.4879081" lon="1.659244"><ele>479.59999999999997</ele><time>2026-04-27T11:49:13.363Z</time></trkpt><trkpt lat="41.4879665" lon="1.6591326"><ele>478.79999999999995</ele><time>2026-04-27T11:49:14.353Z</time></trkpt><trkpt lat="41.4880244" lon="1.6590298"><ele>478.0</ele><time>2026-04-27T11:49:15.364Z</time></trkpt><trkpt lat="41.4880752" lon="1.6589291"><ele>478.00000000000006</ele><time>2026-04-27T11:49:16.364Z</time></trkpt><trkpt lat="41.4881194" lon="1.6588264"><ele>478.0</ele><time>2026-04-27T11:49:17.364Z</time></trkpt><trkpt lat="41.4881563" lon="1.6587176"><ele>478.0</ele><time>2026-04-27T11:49:18.361Z</time></trkpt><trkpt lat="41.4881824" lon="1.6586054"><ele>478.0</ele><time>2026-04-27T11:49:19.359Z</time></trkpt><trkpt lat="41.4881929" lon="1.6584894"><ele>478.00000000000006</ele><time>2026-04-27T11:49:20.361Z</time></trkpt><trkpt lat="41.4881907" lon="1.6583733"><ele>478.0</ele><time>2026-04-27T11:49:21.36Z</time></trkpt><trkpt lat="41.4881661" lon="1.6582465"><ele>478.0</ele><time>2026-04-27T11:49:22.368Z</time></trkpt><trkpt lat="41.4881373" lon="1.6581075"><ele>477.99999999999994</ele><time>2026-04-27T11:49:23.37Z</time></trkpt><trkpt lat="41.4881252" lon="1.6579629"><ele>477.99999999999994</ele><time>2026-04-27T11:49:24.362Z</time></trkpt><trkpt lat="41.4881348" lon="1.65782"><ele>478.0</ele><time>2026-04-27T11:49:25.369Z</time></trkpt><trkpt lat="41.4881721" lon="1.6576937"><ele>478.0</ele><time>2026-04-27T11:49:26.358Z</time></trkpt><trkpt lat="41.4882197" lon="1.6575782"><ele>478.2</ele><time>2026-04-27T11:49:27.361Z</time></trkpt><trkpt lat="41.4882742" lon="1.6574664"><ele>478.4</ele><time>2026-04-27T11:49:28.376Z</time></trkpt><trkpt lat="41.4883347" lon="1.6573533"><ele>478.59999999999997</ele><time>2026-04-27T11:49:29.366Z</time></trkpt><trkpt lat="41.4883899" lon="1.6572412"><ele>478.79999999999995</ele><time>2026-04-27T11:49:30.36Z</time></trkpt><trkpt lat="41.4884328" lon="1.6571344"><ele>479.0</ele><time>2026-04-27T11:49:31.369Z</time></trkpt><trkpt lat="41.4884698" lon="1.657033"><ele>479.66666666666663</ele><time>2026-04-27T11:49:32.363Z</time></trkpt><trkpt lat="41.4884987" lon="1.6569368"><ele>480.3333333333333</ele><time>2026-04-27T11:49:33.364Z</time></trkpt><trkpt lat="41.4885222" lon="1.6568428"><ele>481.0</ele><time>2026-04-27T11:49:34.364Z</time></trkpt><trkpt lat="41.4885441" lon="1.6567474"><ele>481.66666666666663</ele><time>2026-04-27T11:49:35.378Z</time></trkpt><trkpt lat="41.4885673" lon="1.6566549"><ele>482.3333333333333</ele><time>2026-04-27T11:49:36.364Z</time></trkpt><trkpt lat="41.4886027" lon="1.656563"><ele>483.0</ele><time>2026-04-27T11:49:37.367Z</time></trkpt><trkpt lat="41.4886372" lon="1.6564583"><ele>483.0</ele><time>2026-04-27T11:49:38.37Z</time></trkpt><trkpt lat="41.4886595" lon="1.6563427"><ele>482.99999999999994</ele><time>2026-04-27T11:49:39.362Z</time></trkpt><trkpt lat="41.4886658" lon="1.6562155"><ele>482.99999999999994</ele><time>2026-04-27T11:49:40.366Z</time></trkpt><trkpt lat="41.48868" lon="1.6560881"><ele>483.0</ele><time>2026-04-27T11:49:41.366Z</time></trkpt><trkpt lat="41.4887097" lon="1.6559669"><ele>483.0</ele><time>2026-04-27T11:49:42.358Z</time></trkpt><trkpt lat="41.4887545" lon="1.6558589"><ele>481.79999999999995</ele><time>2026-04-27T11:49:43.357Z</time></trkpt><trkpt lat="41.4888074" lon="1.6557701"><ele>480.59999999999997</ele><time>2026-04-27T11:49:44.37Z</time></trkpt><trkpt lat="41.4888886" lon="1.6557267"><ele>479.40000000000003</ele><time>2026-04-27T11:49:45.353Z</time></trkpt><trkpt lat="41.4889912" lon="1.655731"><ele>478.20000000000005</ele><time>2026-04-27T11:49:46.367Z</time></trkpt><trkpt lat="41.4891035" lon="1.6557617"><ele>477.0</ele><time>2026-04-27T11:49:47.357Z</time></trkpt><trkpt lat="41.4892227" lon="1.655801"><ele>477.0</ele><time>2026-04-27T11:49:48.364Z</time></trkpt><trkpt lat="41.4893473" lon="1.6558406"><ele>477.0</ele><time>2026-04-27T11:49:49.363Z</time></trkpt><trkpt lat="41.4894617" lon="1.6558756"><ele>477.0</ele><time>2026-04-27T11:49:50.365Z</time></trkpt><trkpt lat="41.4895754" lon="1.655906"><ele>477.0</ele><time>2026-04-27T11:49:51.36Z</time></trkpt><trkpt lat="41.4896915" lon="1.6559361"><ele>478.0</ele><time>2026-04-27T11:49:52.365Z</time></trkpt><trkpt lat="41.4898148" lon="1.6559641"><ele>479.0</ele><time>2026-04-27T11:49:53.368Z</time></trkpt><trkpt lat="41.4899378" lon="1.6559911"><ele>480.0</ele><time>2026-04-27T11:49:54.363Z</time></trkpt><trkpt lat="41.4900534" lon="1.6560233"><ele>481.0</ele><time>2026-04-27T11:49:55.361Z</time></trkpt><trkpt lat="41.4901615" lon="1.656045"><ele>481.0</ele><time>2026-04-27T11:49:56.37Z</time></trkpt><trkpt lat="41.4902654" lon="1.6560626"><ele>481.0</ele><time>2026-04-27T11:49:57.37Z</time></trkpt><trkpt lat="41.4903595" lon="1.6560791"><ele>481.0</ele><time>2026-04-27T11:49:58.373Z</time></trkpt><trkpt lat="41.4904518" lon="1.6560926"><ele>481.0</ele><time>2026-04-27T11:49:59.375Z</time></trkpt><trkpt lat="41.4905384" lon="1.656111"><ele>481.0</ele><time>2026-04-27T11:50:00.371Z</time></trkpt><trkpt lat="41.4906217" lon="1.6561323"><ele>480.83333333333337</ele><time>2026-04-27T11:50:01.374Z</time></trkpt><trkpt lat="41.4907023" lon="1.6561534"><ele>480.6666666666667</ele><time>2026-04-27T11:50:02.366Z</time></trkpt><trkpt lat="41.4907828" lon="1.6561737"><ele>480.5</ele><time>2026-04-27T11:50:03.363Z</time></trkpt><trkpt lat="41.4908645" lon="1.6561977"><ele>480.33333333333337</ele><time>2026-04-27T11:50:04.366Z</time></trkpt><trkpt lat="41.4909453" lon="1.6562188"><ele>480.1666666666667</ele><time>2026-04-27T11:50:05.367Z</time></trkpt><trkpt lat="41.4910245" lon="1.6562452"><ele>480.0</ele><time>2026-04-27T11:50:06.373Z</time></trkpt><trkpt lat="41.4911014" lon="1.6562898"><ele>480.0</ele><time>2026-04-27T11:50:07.367Z</time></trkpt><trkpt lat="41.4911712" lon="1.6563693"><ele>480.0</ele><time>2026-04-27T11:50:08.373Z</time></trkpt><trkpt lat="41.4912164" lon="1.6564865"><ele>480.0</ele><time>2026-04-27T11:50:09.366Z</time></trkpt><trkpt lat="41.4912427" lon="1.656617"><ele>480.0</ele><time>2026-04-27T11:50:10.367Z</time></trkpt><trkpt lat="41.4912542" lon="1.6567474"><ele>480.0</ele><time>2026-04-27T11:50:11.367Z</time></trkpt><trkpt lat="41.4912578" lon="1.6568806"><ele>480.2</ele><time>2026-04-27T11:50:12.369Z</time></trkpt><trkpt lat="41.4912582" lon="1.657013"><ele>480.4</ele><time>2026-04-27T11:50:13.362Z</time></trkpt><trkpt lat="41.491256" lon="1.6571444"><ele>480.6</ele><time>2026-04-27T11:50:14.37Z</time></trkpt><trkpt lat="41.4912559" lon="1.6572752"><ele>480.8</ele><time>2026-04-27T11:50:15.372Z</time></trkpt><trkpt lat="41.4912599" lon="1.6574087"><ele>481.0</ele><time>2026-04-27T11:50:16.37Z</time></trkpt><trkpt lat="41.4912631" lon="1.6575539"><ele>482.25</ele><time>2026-04-27T11:50:17.37Z</time></trkpt><trkpt lat="41.4912698" lon="1.6577065"><ele>483.5</ele><time>2026-04-27T11:50:18.368Z</time></trkpt><trkpt lat="41.4912806" lon="1.6578645"><ele>484.75</ele><time>2026-04-27T11:50:19.377Z</time></trkpt><trkpt lat="41.4912906" lon="1.6580294"><ele>486.0</ele><time>2026-04-27T11:50:20.369Z</time></trkpt><trkpt lat="41.4912988" lon="1.6581983"><ele>487.0</ele><time>2026-04-27T11:50:21.374Z</time></trkpt><trkpt lat="41.4913067" lon="1.6583766"><ele>488.0</ele><time>2026-04-27T11:50:22.371Z</time></trkpt><trkpt lat="41.4913151" lon="1.6585606"><ele>489.0</ele><time>2026-04-27T11:50:23.376Z</time></trkpt><trkpt lat="41.4913197" lon="1.6587489"><ele>490.0</ele><time>2026-04-27T11:50:24.368Z</time></trkpt><trkpt lat="41.4913225" lon="1.6589515"><ele>491.0</ele><time>2026-04-27T11:50:25.376Z</time></trkpt><trkpt lat="41.491327" lon="1.6591533"><ele>492.0</ele><time>2026-04-27T11:50:26.371Z</time></trkpt><trkpt lat="41.4913373" lon="1.6593452"><ele>493.0</ele><time>2026-04-27T11:50:27.376Z</time></trkpt><trkpt lat="41.4913497" lon="1.659536"><ele>494.0</ele><time>2026-04-27T11:50:28.37Z</time></trkpt><trkpt lat="41.4913768" lon="1.6597111"><ele>494.5</ele><time>2026-04-27T11:50:29.373Z</time></trkpt><trkpt lat="41.491421" lon="1.6598728"><ele>495.0</ele><time>2026-04-27T11:50:30.366Z</time></trkpt><trkpt lat="41.4914807" lon="1.6600256"><ele>495.5</ele><time>2026-04-27T11:50:31.372Z</time></trkpt><trkpt lat="41.4915551" lon="1.6601673"><ele>496.0</ele><time>2026-04-27T11:50:32.365Z</time></trkpt><trkpt lat="41.491651" lon="1.6602972"><ele>495.5</ele><time>2026-04-27T11:50:33.369Z</time></trkpt><trkpt lat="41.4917528" lon="1.6604144"><ele>495.0</ele><time>2026-04-27T11:50:34.364Z</time></trkpt><trkpt lat="41.491864" lon="1.6605113"><ele>494.5</ele><time>2026-04-27T11:50:35.365Z</time></trkpt><trkpt lat="41.4919877" lon="1.6606094"><ele>494.0</ele><time>2026-04-27T11:50:36.36Z</time></trkpt><trkpt lat="41.4921151" lon="1.6607109"><ele>494.0</ele><time>2026-04-27T11:50:37.393Z</time></trkpt><trkpt lat="41.4922482" lon="1.6607987"><ele>494.0</ele><time>2026-04-27T11:50:38.365Z</time></trkpt><trkpt lat="41.4923877" lon="1.6608901"><ele>494.0</ele><time>2026-04-27T11:50:39.371Z</time></trkpt><trkpt lat="41.4925304" lon="1.6609895"><ele>494.0</ele><time>2026-04-27T11:50:40.366Z</time></trkpt><trkpt lat="41.4926771" lon="1.6610992"><ele>494.0</ele><time>2026-04-27T11:50:41.373Z</time></trkpt><trkpt lat="41.4928263" lon="1.6612092"><ele>494.0</ele><time>2026-04-27T11:50:42.372Z</time></trkpt><trkpt lat="41.4929807" lon="1.6613292"><ele>493.0</ele><time>2026-04-27T11:50:43.376Z</time></trkpt><trkpt lat="41.4931352" lon="1.6614538"><ele>492.0</ele><time>2026-04-27T11:50:44.374Z</time></trkpt><trkpt lat="41.493292" lon="1.6615762"><ele>491.0</ele><time>2026-04-27T11:50:45.373Z</time></trkpt><trkpt lat="41.4934501" lon="1.6616937"><ele>491.0</ele><time>2026-04-27T11:50:46.368Z</time></trkpt><trkpt lat="41.4936117" lon="1.6618129"><ele>491.0</ele><time>2026-04-27T11:50:47.375Z</time></trkpt><trkpt lat="41.4937748" lon="1.6619276"><ele>491.0</ele><time>2026-04-27T11:50:48.367Z</time></trkpt><trkpt lat="41.493938" lon="1.6620502"><ele>490.66666666666663</ele><time>2026-04-27T11:50:49.367Z</time></trkpt><trkpt lat="41.4941032" lon="1.6621803"><ele>490.33333333333337</ele><time>2026-04-27T11:50:50.369Z</time></trkpt><trkpt lat="41.4942638" lon="1.6623103"><ele>490.0</ele><time>2026-04-27T11:50:51.373Z</time></trkpt><trkpt lat="41.4944118" lon="1.6624543"><ele>490.0</ele><time>2026-04-27T11:50:52.367Z</time></trkpt><trkpt lat="41.4945685" lon="1.6626109"><ele>490.0</ele><time>2026-04-27T11:50:53.373Z</time></trkpt><trkpt lat="41.494715" lon="1.6627623"><ele>490.0</ele><time>2026-04-27T11:50:54.366Z</time></trkpt><trkpt lat="41.4948526" lon="1.6629161"><ele>490.0</ele><time>2026-04-27T11:50:55.369Z</time></trkpt><trkpt lat="41.49499" lon="1.6630574"><ele>490.0</ele><time>2026-04-27T11:50:56.364Z</time></trkpt><trkpt lat="41.4951211" lon="1.6631903"><ele>490.0</ele><time>2026-04-27T11:50:57.367Z</time></trkpt><trkpt lat="41.4952383" lon="1.6633206"><ele>490.0</ele><time>2026-04-27T11:50:58.369Z</time></trkpt><trkpt lat="41.4953548" lon="1.6634546"><ele>490.0</ele><time>2026-04-27T11:50:59.369Z</time></trkpt><trkpt lat="41.4954591" lon="1.6635914"><ele>490.0</ele><time>2026-04-27T11:51:00.362Z</time></trkpt><trkpt lat="41.4955459" lon="1.663746"><ele>490.0</ele><time>2026-04-27T11:51:01.366Z</time></trkpt><trkpt lat="41.4955966" lon="1.6639121"><ele>492.25</ele><time>2026-04-27T11:51:02.36Z</time></trkpt><trkpt lat="41.4956243" lon="1.6640978"><ele>494.5</ele><time>2026-04-27T11:51:03.361Z</time></trkpt><trkpt lat="41.4956407" lon="1.6643082"><ele>496.75</ele><time>2026-04-27T11:51:04.362Z</time></trkpt><trkpt lat="41.4956374" lon="1.6645071"><ele>499.0</ele><time>2026-04-27T11:51:05.371Z</time></trkpt><trkpt lat="41.495636" lon="1.6647064"><ele>499.0</ele><time>2026-04-27T11:51:06.365Z</time></trkpt><trkpt lat="41.4956354" lon="1.6649102"><ele>499.0</ele><time>2026-04-27T11:51:07.381Z</time></trkpt><trkpt lat="41.4956377" lon="1.6651145"><ele>499.0</ele><time>2026-04-27T11:51:08.362Z</time></trkpt><trkpt lat="41.4956547" lon="1.6653231"><ele>499.0</ele><time>2026-04-27T11:51:09.368Z</time></trkpt><trkpt lat="41.4956687" lon="1.6655296"><ele>499.0</ele><time>2026-04-27T11:51:10.366Z</time></trkpt><trkpt lat="41.4956874" lon="1.665735"><ele>499.0</ele><time>2026-04-27T11:51:11.369Z</time></trkpt><trkpt lat="41.4956962" lon="1.6659272"><ele>499.25</ele><time>2026-04-27T11:51:12.362Z</time></trkpt><trkpt lat="41.4957053" lon="1.6661154"><ele>499.5</ele><time>2026-04-27T11:51:13.371Z</time></trkpt><trkpt lat="41.4957168" lon="1.6662836"><ele>499.75</ele><time>2026-04-27T11:51:14.367Z</time></trkpt><trkpt lat="41.4957388" lon="1.666426"><ele>500.0</ele><time>2026-04-27T11:51:15.365Z</time></trkpt><trkpt lat="41.4957803" lon="1.6665507"><ele>500.0</ele><time>2026-04-27T11:51:16.362Z</time></trkpt><trkpt lat="41.4958486" lon="1.6666559"><ele>500.0</ele><time>2026-04-27T11:51:17.365Z</time></trkpt><trkpt lat="41.4959297" lon="1.6667233"><ele>500.0</ele><time>2026-04-27T11:51:18.361Z</time></trkpt><trkpt lat="41.496035" lon="1.6667445"><ele>500.0</ele><time>2026-04-27T11:51:19.375Z</time></trkpt><trkpt lat="41.4961492" lon="1.6667442"><ele>500.0</ele><time>2026-04-27T11:51:20.364Z</time></trkpt><trkpt lat="41.4962627" lon="1.66673"><ele>499.75</ele><time>2026-04-27T11:51:21.37Z</time></trkpt><trkpt lat="41.4963674" lon="1.6666889"><ele>499.5</ele><time>2026-04-27T11:51:22.365Z</time></trkpt><trkpt lat="41.4964758" lon="1.6666424"><ele>499.25</ele><time>2026-04-27T11:51:23.368Z</time></trkpt><trkpt lat="41.4965849" lon="1.6666065"><ele>499.0</ele><time>2026-04-27T11:51:24.368Z</time></trkpt><trkpt lat="41.4967007" lon="1.6665944"><ele>499.0</ele><time>2026-04-27T11:51:25.368Z</time></trkpt><trkpt lat="41.4968186" lon="1.6666246"><ele>499.0</ele><time>2026-04-27T11:51:26.364Z</time></trkpt><trkpt lat="41.4969417" lon="1.666685"><ele>499.0</ele><time>2026-04-27T11:51:27.363Z</time></trkpt><trkpt lat="41.4970628" lon="1.6667647"><ele>499.0</ele><time>2026-04-27T11:51:28.372Z</time></trkpt><trkpt lat="41.4971753" lon="1.6668534"><ele>498.75</ele><time>2026-04-27T11:51:29.368Z</time></trkpt><trkpt lat="41.497284" lon="1.6669477"><ele>498.5</ele><time>2026-04-27T11:51:30.362Z</time></trkpt><trkpt lat="41.4973916" lon="1.6670518"><ele>498.25</ele><time>2026-04-27T11:51:31.359Z</time></trkpt><trkpt lat="41.4974924" lon="1.6671554"><ele>498.0</ele><time>2026-04-27T11:51:32.361Z</time></trkpt><trkpt lat="41.4975877" lon="1.6672385"><ele>498.0</ele><time>2026-04-27T11:51:33.367Z</time></trkpt><trkpt lat="41.4976646" lon="1.6672953"><ele>498.0</ele><time>2026-04-27T11:51:34.365Z</time></trkpt><trkpt lat="41.4977482" lon="1.6673557"><ele>498.0</ele><time>2026-04-27T11:51:36.357Z</time></trkpt><trkpt lat="41.4978113" lon="1.6673916"><ele>498.0</ele><time>2026-04-27T11:51:39.364Z</time></trkpt><trkpt lat="41.4979018" lon="1.6674096"><ele>498.0</ele><time>2026-04-27T11:51:44.381Z</time></trkpt><trkpt lat="41.4980048" lon="1.6674237"><ele>498.0</ele><time>2026-04-27T11:51:47.368Z</time></trkpt><trkpt lat="41.4980966" lon="1.6674481"><ele>499.2</ele><time>2026-04-27T11:51:49.367Z</time></trkpt><trkpt lat="41.4982022" lon="1.6674505"><ele>500.4</ele><time>2026-04-27T11:51:51.365Z</time></trkpt><trkpt lat="41.4983174" lon="1.6674615"><ele>501.59999999999997</ele><time>2026-04-27T11:51:53.367Z</time></trkpt><trkpt lat="41.4984477" lon="1.6674745"><ele>502.79999999999995</ele><time>2026-04-27T11:51:55.37Z</time></trkpt><trkpt lat="41.4985247" lon="1.6674908"><ele>504.0</ele><time>2026-04-27T11:51:56.365Z</time></trkpt><trkpt lat="41.4986074" lon="1.6675304"><ele>504.0</ele><time>2026-04-27T11:51:57.373Z</time></trkpt><trkpt lat="41.4986973" lon="1.6675842"><ele>504.0</ele><time>2026-04-27T11:51:58.366Z</time></trkpt><trkpt lat="41.4987857" lon="1.6676546"><ele>504.0</ele><time>2026-04-27T11:51:59.376Z</time></trkpt><trkpt lat="41.4988768" lon="1.6677449"><ele>504.0</ele><time>2026-04-27T11:52:00.371Z</time></trkpt><trkpt lat="41.4989693" lon="1.6678416"><ele>504.0</ele><time>2026-04-27T11:52:01.376Z</time></trkpt><trkpt lat="41.4990662" lon="1.6679287"><ele>502.5</ele><time>2026-04-27T11:52:02.366Z</time></trkpt><trkpt lat="41.4991696" lon="1.6679953"><ele>501.0</ele><time>2026-04-27T11:52:03.377Z</time></trkpt><trkpt lat="41.4992865" lon="1.6680351"><ele>499.5</ele><time>2026-04-27T11:52:04.368Z</time></trkpt><trkpt lat="41.4994282" lon="1.6680564"><ele>498.0</ele><time>2026-04-27T11:52:05.373Z</time></trkpt><trkpt lat="41.4995832" lon="1.6680656"><ele>498.66666666666663</ele><time>2026-04-27T11:52:06.366Z</time></trkpt><trkpt lat="41.4997329" lon="1.6680683"><ele>499.3333333333333</ele><time>2026-04-27T11:52:07.372Z</time></trkpt><trkpt lat="41.4999023" lon="1.6680767"><ele>500.0</ele><time>2026-04-27T11:52:08.367Z</time></trkpt><trkpt lat="41.5000813" lon="1.6680759"><ele>500.0</ele><time>2026-04-27T11:52:09.38Z</time></trkpt><trkpt lat="41.5002586" lon="1.6680728"><ele>500.0</ele><time>2026-04-27T11:52:10.365Z</time></trkpt><trkpt lat="41.5004249" lon="1.6680766"><ele>500.0</ele><time>2026-04-27T11:52:11.372Z</time></trkpt><trkpt lat="41.5005854" lon="1.6680789"><ele>498.3333333333333</ele><time>2026-04-27T11:52:12.367Z</time></trkpt><trkpt lat="41.5007444" lon="1.668101"><ele>496.66666666666663</ele><time>2026-04-27T11:52:13.367Z</time></trkpt><trkpt lat="41.5009047" lon="1.6681185"><ele>495.0</ele><time>2026-04-27T11:52:14.368Z</time></trkpt><trkpt lat="41.5010742" lon="1.6681339"><ele>495.0</ele><time>2026-04-27T11:52:15.366Z</time></trkpt><trkpt lat="41.5012447" lon="1.6681479"><ele>495.0</ele><time>2026-04-27T11:52:16.36Z</time></trkpt><trkpt lat="41.5014118" lon="1.6681732"><ele>495.0</ele><time>2026-04-27T11:52:17.365Z</time></trkpt><trkpt lat="41.5015904" lon="1.6682063"><ele>495.33333333333337</ele><time>2026-04-27T11:52:18.357Z</time></trkpt><trkpt lat="41.501757" lon="1.6682597"><ele>495.6666666666667</ele><time>2026-04-27T11:52:19.363Z</time></trkpt><trkpt lat="41.5019256" lon="1.6682982"><ele>496.0</ele><time>2026-04-27T11:52:20.358Z</time></trkpt><trkpt lat="41.5020959" lon="1.6683407"><ele>497.33333333333337</ele><time>2026-04-27T11:52:21.362Z</time></trkpt><trkpt lat="41.5022651" lon="1.6683871"><ele>498.66666666666663</ele><time>2026-04-27T11:52:22.36Z</time></trkpt><trkpt lat="41.5024224" lon="1.668437"><ele>500.0</ele><time>2026-04-27T11:52:23.361Z</time></trkpt><trkpt lat="41.5025829" lon="1.6684857"><ele>500.0</ele><time>2026-04-27T11:52:24.356Z</time></trkpt><trkpt lat="41.5027358" lon="1.6685192"><ele>500.0</ele><time>2026-04-27T11:52:25.362Z</time></trkpt><trkpt lat="41.5028924" lon="1.6685372"><ele>500.0</ele><time>2026-04-27T11:52:26.357Z</time></trkpt><trkpt lat="41.5030459" lon="1.668535"><ele>498.25</ele><time>2026-04-27T11:52:27.352Z</time></trkpt><trkpt lat="41.5031885" lon="1.6684939"><ele>496.5</ele><time>2026-04-27T11:52:28.364Z</time></trkpt><trkpt lat="41.5033157" lon="1.6684185"><ele>494.75</ele><time>2026-04-27T11:52:29.365Z</time></trkpt><trkpt lat="41.5034048" lon="1.6683091"><ele>493.0</ele><time>2026-04-27T11:52:30.362Z</time></trkpt><trkpt lat="41.5034881" lon="1.6681607"><ele>493.0</ele><time>2026-04-27T11:52:31.365Z</time></trkpt><trkpt lat="41.5035629" lon="1.6680238"><ele>493.0</ele><time>2026-04-27T11:52:32.363Z</time></trkpt><trkpt lat="41.5036456" lon="1.6678869"><ele>493.0</ele><time>2026-04-27T11:52:33.36Z</time></trkpt><trkpt lat="41.5037502" lon="1.6677753"><ele>493.0</ele><time>2026-04-27T11:52:34.356Z</time></trkpt><trkpt lat="41.5038631" lon="1.6676888"><ele>494.5</ele><time>2026-04-27T11:52:35.36Z</time></trkpt><trkpt lat="41.5039839" lon="1.6676266"><ele>496.0</ele><time>2026-04-27T11:52:36.354Z</time></trkpt><trkpt lat="41.504118" lon="1.6676029"><ele>497.5</ele><time>2026-04-27T11:52:37.361Z</time></trkpt><trkpt lat="41.5042615" lon="1.6676186"><ele>499.0</ele><time>2026-04-27T11:52:38.358Z</time></trkpt><trkpt lat="41.5044073" lon="1.667659"><ele>499.0</ele><time>2026-04-27T11:52:39.356Z</time></trkpt><trkpt lat="41.5045616" lon="1.6677716"><ele>499.0</ele><time>2026-04-27T11:52:40.367Z</time></trkpt><trkpt lat="41.5046859" lon="1.6679082"><ele>499.0</ele><time>2026-04-27T11:52:41.354Z</time></trkpt><trkpt lat="41.5047753" lon="1.6680553"><ele>497.75</ele><time>2026-04-27T11:52:42.356Z</time></trkpt><trkpt lat="41.5048568" lon="1.6682104"><ele>496.5</ele><time>2026-04-27T11:52:43.353Z</time></trkpt><trkpt lat="41.5049283" lon="1.6683658"><ele>495.25</ele><time>2026-04-27T11:52:44.355Z</time></trkpt><trkpt lat="41.5050036" lon="1.6685246"><ele>494.0</ele><time>2026-04-27T11:52:45.356Z</time></trkpt><trkpt lat="41.5050805" lon="1.6686728"><ele>493.75</ele><time>2026-04-27T11:52:46.356Z</time></trkpt><trkpt lat="41.5051635" lon="1.6688125"><ele>493.5</ele><time>2026-04-27T11:52:47.359Z</time></trkpt><trkpt lat="41.5052458" lon="1.6689769"><ele>493.25</ele><time>2026-04-27T11:52:48.364Z</time></trkpt><trkpt lat="41.5053241" lon="1.6691304"><ele>493.0</ele><time>2026-04-27T11:52:49.363Z</time></trkpt><trkpt lat="41.505416" lon="1.6692802"><ele>493.0</ele><time>2026-04-27T11:52:50.362Z</time></trkpt><trkpt lat="41.505482" lon="1.6694151"><ele>493.0</ele><time>2026-04-27T11:52:51.368Z</time></trkpt><trkpt lat="41.5055573" lon="1.6695233"><ele>493.0</ele><time>2026-04-27T11:52:52.369Z</time></trkpt><trkpt lat="41.5056451" lon="1.6696067"><ele>493.0</ele><time>2026-04-27T11:52:53.372Z</time></trkpt><trkpt lat="41.5057476" lon="1.6696661"><ele>493.5</ele><time>2026-04-27T11:52:54.373Z</time></trkpt><trkpt lat="41.5058624" lon="1.6697065"><ele>494.0</ele><time>2026-04-27T11:52:55.372Z</time></trkpt><trkpt lat="41.5059894" lon="1.6697003"><ele>494.5</ele><time>2026-04-27T11:52:56.367Z</time></trkpt><trkpt lat="41.5061223" lon="1.6696469"><ele>495.0</ele><time>2026-04-27T11:52:57.364Z</time></trkpt><trkpt lat="41.5062567" lon="1.6695896"><ele>495.0</ele><time>2026-04-27T11:52:58.37Z</time></trkpt><trkpt lat="41.5063891" lon="1.6695405"><ele>495.0</ele><time>2026-04-27T11:52:59.365Z</time></trkpt><trkpt lat="41.5065214" lon="1.6694904"><ele>495.0</ele><time>2026-04-27T11:53:00.365Z</time></trkpt><trkpt lat="41.5066535" lon="1.6694394"><ele>495.0</ele><time>2026-04-27T11:53:01.367Z</time></trkpt><trkpt lat="41.5067813" lon="1.6693933"><ele>494.5</ele><time>2026-04-27T11:53:02.363Z</time></trkpt><trkpt lat="41.5069144" lon="1.6693432"><ele>494.0</ele><time>2026-04-27T11:53:03.369Z</time></trkpt><trkpt lat="41.5070489" lon="1.6693011"><ele>493.5</ele><time>2026-04-27T11:53:04.365Z</time></trkpt><trkpt lat="41.507181" lon="1.6692499"><ele>493.0</ele><time>2026-04-27T11:53:05.371Z</time></trkpt><trkpt lat="41.5073181" lon="1.6692036"><ele>494.75</ele><time>2026-04-27T11:53:06.365Z</time></trkpt><trkpt lat="41.5074587" lon="1.6691551"><ele>496.5</ele><time>2026-04-27T11:53:07.368Z</time></trkpt><trkpt lat="41.5076042" lon="1.669105"><ele>498.25</ele><time>2026-04-27T11:53:08.366Z</time></trkpt><trkpt lat="41.5077448" lon="1.6690576"><ele>500.0</ele><time>2026-04-27T11:53:09.368Z</time></trkpt><trkpt lat="41.5078783" lon="1.6690161"><ele>501.75</ele><time>2026-04-27T11:53:10.367Z</time></trkpt><trkpt lat="41.5080063" lon="1.668969"><ele>503.5</ele><time>2026-04-27T11:53:11.381Z</time></trkpt><trkpt lat="41.508133" lon="1.6689212"><ele>505.25</ele><time>2026-04-27T11:53:12.363Z</time></trkpt><trkpt lat="41.508242" lon="1.6688625"><ele>507.0</ele><time>2026-04-27T11:53:13.365Z</time></trkpt><trkpt lat="41.5083374" lon="1.6687697"><ele>507.0</ele><time>2026-04-27T11:53:14.368Z</time></trkpt><trkpt lat="41.5083981" lon="1.6686319"><ele>507.0</ele><time>2026-04-27T11:53:15.36Z</time></trkpt><trkpt lat="41.5084501" lon="1.6684968"><ele>507.0</ele><time>2026-04-27T11:53:16.36Z</time></trkpt><trkpt lat="41.5084799" lon="1.6683504"><ele>507.0</ele><time>2026-04-27T11:53:17.364Z</time></trkpt><trkpt lat="41.5085065" lon="1.6682156"><ele>506.8</ele><time>2026-04-27T11:53:18.361Z</time></trkpt><trkpt lat="41.5085462" lon="1.668105"><ele>506.6</ele><time>2026-04-27T11:53:19.365Z</time></trkpt><trkpt lat="41.5086064" lon="1.668042"><ele>506.40000000000003</ele><time>2026-04-27T11:53:20.363Z</time></trkpt><trkpt lat="41.5086938" lon="1.6680438"><ele>506.20000000000005</ele><time>2026-04-27T11:53:21.358Z</time></trkpt><trkpt lat="41.5087798" lon="1.6680966"><ele>506.0</ele><time>2026-04-27T11:53:22.358Z</time></trkpt><trkpt lat="41.5088533" lon="1.6681961"><ele>506.0</ele><time>2026-04-27T11:53:23.364Z</time></trkpt><trkpt lat="41.5089089" lon="1.6683129"><ele>506.0</ele><time>2026-04-27T11:53:24.36Z</time></trkpt><trkpt lat="41.5089694" lon="1.668439"><ele>506.0</ele><time>2026-04-27T11:53:25.365Z</time></trkpt><trkpt lat="41.5090267" lon="1.6685635"><ele>506.0</ele><time>2026-04-27T11:53:26.364Z</time></trkpt><trkpt lat="41.5090839" lon="1.6686925"><ele>506.0</ele><time>2026-04-27T11:53:27.37Z</time></trkpt><trkpt lat="41.5091421" lon="1.6688294"><ele>508.25</ele><time>2026-04-27T11:53:28.363Z</time></trkpt><trkpt lat="41.5092014" lon="1.6689609"><ele>510.5</ele><time>2026-04-27T11:53:29.361Z</time></trkpt><trkpt lat="41.5092826" lon="1.6690777"><ele>512.75</ele><time>2026-04-27T11:53:30.359Z</time></trkpt><trkpt lat="41.5093765" lon="1.6691697"><ele>515.0</ele><time>2026-04-27T11:53:31.365Z</time></trkpt><trkpt lat="41.5094915" lon="1.6692217"><ele>513.0</ele><time>2026-04-27T11:53:32.359Z</time></trkpt><trkpt lat="41.5096308" lon="1.6692412"><ele>511.0</ele><time>2026-04-27T11:53:33.354Z</time></trkpt><trkpt lat="41.5097732" lon="1.6692185"><ele>509.0</ele><time>2026-04-27T11:53:34.352Z</time></trkpt><trkpt lat="41.5099179" lon="1.6692031"><ele>507.0</ele><time>2026-04-27T11:53:35.353Z</time></trkpt><trkpt lat="41.510059" lon="1.6691907"><ele>507.0</ele><time>2026-04-27T11:53:36.351Z</time></trkpt><trkpt lat="41.5101898" lon="1.6691806"><ele>507.0</ele><time>2026-04-27T11:53:37.355Z</time></trkpt><trkpt lat="41.5103228" lon="1.6691743"><ele>507.0</ele><time>2026-04-27T11:53:38.356Z</time></trkpt><trkpt lat="41.5104523" lon="1.6691785"><ele>507.0</ele><time>2026-04-27T11:53:39.365Z</time></trkpt><trkpt lat="41.5105829" lon="1.6691915"><ele>506.25</ele><time>2026-04-27T11:53:40.354Z</time></trkpt><trkpt lat="41.51071" lon="1.6692046"><ele>505.5</ele><time>2026-04-27T11:53:41.363Z</time></trkpt><trkpt lat="41.5108376" lon="1.6692148"><ele>504.75</ele><time>2026-04-27T11:53:42.373Z</time></trkpt><trkpt lat="41.5109639" lon="1.6692208"><ele>504.0</ele><time>2026-04-27T11:53:43.365Z</time></trkpt><trkpt lat="41.5110963" lon="1.6692344"><ele>504.0</ele><time>2026-04-27T11:53:44.365Z</time></trkpt><trkpt lat="41.5112203" lon="1.669265"><ele>504.0</ele><time>2026-04-27T11:53:45.364Z</time></trkpt><trkpt lat="41.5113389" lon="1.6693167"><ele>504.0</ele><time>2026-04-27T11:53:46.359Z</time></trkpt><trkpt lat="41.51145" lon="1.6694044"><ele>504.0</ele><time>2026-04-27T11:53:47.364Z</time></trkpt><trkpt lat="41.5115548" lon="1.6695305"><ele>504.33333333333337</ele><time>2026-04-27T11:53:48.357Z</time></trkpt><trkpt lat="41.5116424" lon="1.669682"><ele>504.6666666666667</ele><time>2026-04-27T11:53:49.36Z</time></trkpt><trkpt lat="41.5117221" lon="1.6698542"><ele>505.0</ele><time>2026-04-27T11:53:50.357Z</time></trkpt><trkpt lat="41.511777" lon="1.6700593"><ele>505.0</ele><time>2026-04-27T11:53:51.364Z</time></trkpt><trkpt lat="41.5118161" lon="1.6702655"><ele>505.0</ele><time>2026-04-27T11:53:52.361Z</time></trkpt><trkpt lat="41.5118643" lon="1.6704727"><ele>505.0</ele><time>2026-04-27T11:53:53.364Z</time></trkpt><trkpt lat="41.5119097" lon="1.6706761"><ele>508.33333333333337</ele><time>2026-04-27T11:53:54.359Z</time></trkpt><trkpt lat="41.5119592" lon="1.6708771"><ele>511.66666666666663</ele><time>2026-04-27T11:53:55.364Z</time></trkpt><trkpt lat="41.5120077" lon="1.6710765"><ele>515.0</ele><time>2026-04-27T11:53:56.364Z</time></trkpt><trkpt lat="41.5120466" lon="1.6712878"><ele>508.3333333333333</ele><time>2026-04-27T11:53:57.367Z</time></trkpt><trkpt lat="41.5121044" lon="1.6714999"><ele>501.66666666666663</ele><time>2026-04-27T11:53:58.366Z</time></trkpt><trkpt lat="41.5121552" lon="1.6717014"><ele>495.0</ele><time>2026-04-27T11:53:59.371Z</time></trkpt><trkpt lat="41.5122024" lon="1.6718974"><ele>496.0</ele><time>2026-04-27T11:54:00.363Z</time></trkpt><trkpt lat="41.5122534" lon="1.6720791"><ele>497.0</ele><time>2026-04-27T11:54:01.363Z</time></trkpt><trkpt lat="41.5123154" lon="1.6722654"><ele>498.0</ele><time>2026-04-27T11:54:02.359Z</time></trkpt><trkpt lat="41.5124088" lon="1.6724264"><ele>498.0</ele><time>2026-04-27T11:54:03.353Z</time></trkpt><trkpt lat="41.512513" lon="1.6725644"><ele>498.0</ele><time>2026-04-27T11:54:04.357Z</time></trkpt><trkpt lat="41.5126075" lon="1.672672"><ele>498.0</ele><time>2026-04-27T11:54:05.358Z</time></trkpt><trkpt lat="41.5126904" lon="1.6727919"><ele>498.0</ele><time>2026-04-27T11:54:06.35Z</time></trkpt><trkpt lat="41.51276" lon="1.6729542"><ele>498.5</ele><time>2026-04-27T11:54:07.36Z</time></trkpt><trkpt lat="41.5127863" lon="1.6731409"><ele>499.0</ele><time>2026-04-27T11:54:08.359Z</time></trkpt><trkpt lat="41.5128088" lon="1.6733314"><ele>499.5</ele><time>2026-04-27T11:54:09.367Z</time></trkpt><trkpt lat="41.512832" lon="1.6735165"><ele>500.0</ele><time>2026-04-27T11:54:10.362Z</time></trkpt><trkpt lat="41.5128542" lon="1.6737005"><ele>500.0</ele><time>2026-04-27T11:54:11.362Z</time></trkpt><trkpt lat="41.5128739" lon="1.6738787"><ele>500.0</ele><time>2026-04-27T11:54:12.357Z</time></trkpt><trkpt lat="41.5128707" lon="1.6740415"><ele>500.0</ele><time>2026-04-27T11:54:13.373Z</time></trkpt><trkpt lat="41.5128404" lon="1.6741681"><ele>500.0</ele><time>2026-04-27T11:54:14.363Z</time></trkpt><trkpt lat="41.512767" lon="1.6742474"><ele>500.0</ele><time>2026-04-27T11:54:15.362Z</time></trkpt><trkpt lat="41.5126625" lon="1.6742967"><ele>500.0</ele><time>2026-04-27T11:54:16.354Z</time></trkpt><trkpt lat="41.5125474" lon="1.6743179"><ele>500.0</ele><time>2026-04-27T11:54:17.354Z</time></trkpt><trkpt lat="41.5124415" lon="1.6743279"><ele>500.0</ele><time>2026-04-27T11:54:18.348Z</time></trkpt><trkpt lat="41.5123406" lon="1.6743476"><ele>500.0</ele><time>2026-04-27T11:54:19.342Z</time></trkpt><trkpt lat="41.5122327" lon="1.6743794"><ele>500.0</ele><time>2026-04-27T11:54:20.348Z</time></trkpt><trkpt lat="41.5121311" lon="1.6744297"><ele>500.0</ele><time>2026-04-27T11:54:21.354Z</time></trkpt><trkpt lat="41.5120459" lon="1.6745182"><ele>500.0</ele><time>2026-04-27T11:54:22.35Z</time></trkpt><trkpt lat="41.5119837" lon="1.6746339"><ele>500.0</ele><time>2026-04-27T11:54:23.353Z</time></trkpt><trkpt lat="41.5119392" lon="1.6747737"><ele>500.0</ele><time>2026-04-27T11:54:24.353Z</time></trkpt><trkpt lat="41.5119351" lon="1.6749136"><ele>498.8</ele><time>2026-04-27T11:54:25.351Z</time></trkpt><trkpt lat="41.511953" lon="1.6750509"><ele>497.6</ele><time>2026-04-27T11:54:26.351Z</time></trkpt><trkpt lat="41.5120025" lon="1.6751638"><ele>496.4</ele><time>2026-04-27T11:54:27.355Z</time></trkpt><trkpt lat="41.5120976" lon="1.6752496"><ele>495.2</ele><time>2026-04-27T11:54:28.359Z</time></trkpt><trkpt lat="41.5122219" lon="1.6753013"><ele>494.0</ele><time>2026-04-27T11:54:29.354Z</time></trkpt><trkpt lat="41.5123696" lon="1.67533"><ele>500.0</ele><time>2026-04-27T11:54:30.349Z</time></trkpt><trkpt lat="41.5125265" lon="1.675351"><ele>506.0</ele><time>2026-04-27T11:54:31.356Z</time></trkpt><trkpt lat="41.5126858" lon="1.6753724"><ele>512.0</ele><time>2026-04-27T11:54:32.351Z</time></trkpt><trkpt lat="41.5128448" lon="1.6753997"><ele>507.0</ele><time>2026-04-27T11:54:33.353Z</time></trkpt><trkpt lat="41.5129931" lon="1.6754321"><ele>502.0</ele><time>2026-04-27T11:54:34.351Z</time></trkpt><trkpt lat="41.5131329" lon="1.6754736"><ele>497.0</ele><time>2026-04-27T11:54:35.356Z</time></trkpt><trkpt lat="41.5132654" lon="1.6755169"><ele>492.0</ele><time>2026-04-27T11:54:36.352Z</time></trkpt><trkpt lat="41.5133837" lon="1.6755666"><ele>492.0</ele><time>2026-04-27T11:54:37.351Z</time></trkpt><trkpt lat="41.5134955" lon="1.6756402"><ele>492.0</ele><time>2026-04-27T11:54:38.353Z</time></trkpt><trkpt lat="41.513593" lon="1.6757326"><ele>492.0</ele><time>2026-04-27T11:54:39.36Z</time></trkpt><trkpt lat="41.5136527" lon="1.6758634"><ele>492.0</ele><time>2026-04-27T11:54:40.361Z</time></trkpt><trkpt lat="41.5136815" lon="1.6760127"><ele>491.0</ele><time>2026-04-27T11:54:41.366Z</time></trkpt><trkpt lat="41.5136769" lon="1.6761921"><ele>490.0</ele><time>2026-04-27T11:54:42.361Z</time></trkpt><trkpt lat="41.5136313" lon="1.6763633"><ele>489.0</ele><time>2026-04-27T11:54:43.36Z</time></trkpt><trkpt lat="41.5135726" lon="1.6765137"><ele>488.0</ele><time>2026-04-27T11:54:44.365Z</time></trkpt><trkpt lat="41.5135387" lon="1.6766622"><ele>488.0</ele><time>2026-04-27T11:54:45.356Z</time></trkpt><trkpt lat="41.5135438" lon="1.6767747"><ele>487.99999999999994</ele><time>2026-04-27T11:54:46.358Z</time></trkpt><trkpt lat="41.5135882" lon="1.6768653"><ele>487.99999999999994</ele><time>2026-04-27T11:54:47.359Z</time></trkpt><trkpt lat="41.5136523" lon="1.6769192"><ele>488.0</ele><time>2026-04-27T11:54:48.36Z</time></trkpt><trkpt lat="41.513746" lon="1.6769194"><ele>488.0</ele><time>2026-04-27T11:54:49.356Z</time></trkpt><trkpt lat="41.5138679" lon="1.676858"><ele>485.0</ele><time>2026-04-27T11:54:50.36Z</time></trkpt><trkpt lat="41.5139908" lon="1.6767576"><ele>482.0</ele><time>2026-04-27T11:54:51.356Z</time></trkpt><trkpt lat="41.5141244" lon="1.6766794"><ele>479.0</ele><time>2026-04-27T11:54:52.362Z</time></trkpt><trkpt lat="41.5142498" lon="1.6766233"><ele>476.0</ele><time>2026-04-27T11:54:53.36Z</time></trkpt><trkpt lat="41.5143817" lon="1.6765815"><ele>476.0</ele><time>2026-04-27T11:54:54.361Z</time></trkpt><trkpt lat="41.5145061" lon="1.676552"><ele>476.0</ele><time>2026-04-27T11:54:55.359Z</time></trkpt><trkpt lat="41.51462" lon="1.6765479"><ele>476.0</ele><time>2026-04-27T11:54:56.362Z</time></trkpt><trkpt lat="41.5147364" lon="1.6765907"><ele>476.0</ele><time>2026-04-27T11:54:57.363Z</time></trkpt><trkpt lat="41.5148384" lon="1.6766897"><ele>474.8</ele><time>2026-04-27T11:54:58.366Z</time></trkpt><trkpt lat="41.5149154" lon="1.6768203"><ele>473.6</ele><time>2026-04-27T11:54:59.365Z</time></trkpt><trkpt lat="41.5149836" lon="1.676909"><ele>472.4</ele><time>2026-04-27T11:55:00.361Z</time></trkpt><trkpt lat="41.5150702" lon="1.676931"><ele>471.2</ele><time>2026-04-27T11:55:01.368Z</time></trkpt><trkpt lat="41.5151641" lon="1.6768967"><ele>470.0</ele><time>2026-04-27T11:55:02.358Z</time></trkpt><trkpt lat="41.5152663" lon="1.6768691"><ele>470.0</ele><time>2026-04-27T11:55:03.361Z</time></trkpt><trkpt lat="41.5153823" lon="1.6768861"><ele>470.0</ele><time>2026-04-27T11:55:04.358Z</time></trkpt><trkpt lat="41.515503" lon="1.6769308"><ele>470.0</ele><time>2026-04-27T11:55:05.361Z</time></trkpt><trkpt lat="41.5156219" lon="1.6769784"><ele>470.0</ele><time>2026-04-27T11:55:06.362Z</time></trkpt><trkpt lat="41.5157448" lon="1.6770241"><ele>471.25</ele><time>2026-04-27T11:55:07.369Z</time></trkpt><trkpt lat="41.5158574" lon="1.6770734"><ele>472.5</ele><time>2026-04-27T11:55:08.361Z</time></trkpt><trkpt lat="41.5159603" lon="1.6771326"><ele>473.75</ele><time>2026-04-27T11:55:09.367Z</time></trkpt><trkpt lat="41.5160521" lon="1.6772231"><ele>475.0</ele><time>2026-04-27T11:55:10.364Z</time></trkpt><trkpt lat="41.5161141" lon="1.6773524"><ele>475.0</ele><time>2026-04-27T11:55:11.366Z</time></trkpt><trkpt lat="41.5161219" lon="1.6774914"><ele>475.0</ele><time>2026-04-27T11:55:12.362Z</time></trkpt><trkpt lat="41.5160813" lon="1.6776325"><ele>475.0</ele><time>2026-04-27T11:55:13.356Z</time></trkpt><trkpt lat="41.5160356" lon="1.6777732"><ele>475.0</ele><time>2026-04-27T11:55:14.36Z</time></trkpt><trkpt lat="41.5160116" lon="1.6779235"><ele>475.0</ele><time>2026-04-27T11:55:15.382Z</time></trkpt><trkpt lat="41.5160184" lon="1.6780608"><ele>474.8</ele><time>2026-04-27T11:55:16.358Z</time></trkpt><trkpt lat="41.5160573" lon="1.6781766"><ele>474.6</ele><time>2026-04-27T11:55:17.363Z</time></trkpt><trkpt lat="41.516125" lon="1.6782864"><ele>474.4</ele><time>2026-04-27T11:55:18.356Z</time></trkpt><trkpt lat="41.516205" lon="1.6783993"><ele>474.2</ele><time>2026-04-27T11:55:19.36Z</time></trkpt><trkpt lat="41.5162913" lon="1.6785047"><ele>474.0</ele><time>2026-04-27T11:55:20.359Z</time></trkpt><trkpt lat="41.516381" lon="1.6785849"><ele>473.6</ele><time>2026-04-27T11:55:21.365Z</time></trkpt><trkpt lat="41.5164725" lon="1.6786284"><ele>473.2</ele><time>2026-04-27T11:55:22.365Z</time></trkpt><trkpt lat="41.5165788" lon="1.6786247"><ele>472.80000000000007</ele><time>2026-04-27T11:55:23.365Z</time></trkpt><trkpt lat="41.5166908" lon="1.6785722"><ele>472.40000000000003</ele><time>2026-04-27T11:55:24.36Z</time></trkpt><trkpt lat="41.5167867" lon="1.6784625"><ele>472.0</ele><time>2026-04-27T11:55:25.366Z</time></trkpt><trkpt lat="41.5168708" lon="1.6783104"><ele>469.25</ele><time>2026-04-27T11:55:26.357Z</time></trkpt><trkpt lat="41.5169379" lon="1.6781389"><ele>466.5</ele><time>2026-04-27T11:55:27.357Z</time></trkpt><trkpt lat="41.5170038" lon="1.6779689"><ele>463.75</ele><time>2026-04-27T11:55:28.365Z</time></trkpt><trkpt lat="41.5170666" lon="1.6778028"><ele>461.0</ele><time>2026-04-27T11:55:29.354Z</time></trkpt><trkpt lat="41.5171287" lon="1.677654"><ele>460.0</ele><time>2026-04-27T11:55:30.335Z</time></trkpt><trkpt lat="41.5172122" lon="1.6775295"><ele>459.0</ele><time>2026-04-27T11:55:31.357Z</time></trkpt><trkpt lat="41.5173124" lon="1.6774403"><ele>458.0</ele><time>2026-04-27T11:55:32.347Z</time></trkpt><trkpt lat="41.5174182" lon="1.6773723"><ele>457.0</ele><time>2026-04-27T11:55:33.346Z</time></trkpt><trkpt lat="41.5175433" lon="1.6773259"><ele>457.0</ele><time>2026-04-27T11:55:34.347Z</time></trkpt><trkpt lat="41.5176718" lon="1.677283"><ele>457.0</ele><time>2026-04-27T11:55:35.361Z</time></trkpt><trkpt lat="41.5178023" lon="1.6772519"><ele>457.0</ele><time>2026-04-27T11:55:36.361Z</time></trkpt><trkpt lat="41.5179419" lon="1.6772267"><ele>457.0</ele><time>2026-04-27T11:55:37.365Z</time></trkpt><trkpt lat="41.5180835" lon="1.6772219"><ele>456.0</ele><time>2026-04-27T11:55:38.361Z</time></trkpt><trkpt lat="41.5182333" lon="1.6772579"><ele>455.0</ele><time>2026-04-27T11:55:39.364Z</time></trkpt><trkpt lat="41.5183867" lon="1.6773451"><ele>454.0</ele><time>2026-04-27T11:55:40.361Z</time></trkpt><trkpt lat="41.5185141" lon="1.6774215"><ele>454.0</ele><time>2026-04-27T11:55:41.364Z</time></trkpt><trkpt lat="41.5186204" lon="1.6775062"><ele>454.0</ele><time>2026-04-27T11:55:42.365Z</time></trkpt><trkpt lat="41.5186965" lon="1.6776296"><ele>454.0</ele><time>2026-04-27T11:55:43.365Z</time></trkpt><trkpt lat="41.5187581" lon="1.6777835"><ele>454.0</ele><time>2026-04-27T11:55:44.363Z</time></trkpt><trkpt lat="41.5188086" lon="1.6779492"><ele>451.33333333333337</ele><time>2026-04-27T11:55:45.365Z</time></trkpt><trkpt lat="41.518872" lon="1.6781304"><ele>448.66666666666663</ele><time>2026-04-27T11:55:46.362Z</time></trkpt><trkpt lat="41.5189322" lon="1.6783084"><ele>446.0</ele><time>2026-04-27T11:55:47.362Z</time></trkpt><trkpt lat="41.519009" lon="1.6784961"><ele>447.0</ele><time>2026-04-27T11:55:48.365Z</time></trkpt><trkpt lat="41.5191015" lon="1.6786763"><ele>448.0</ele><time>2026-04-27T11:55:49.364Z</time></trkpt><trkpt lat="41.5191978" lon="1.6788336"><ele>449.0</ele><time>2026-04-27T11:55:50.361Z</time></trkpt><trkpt lat="41.519281" lon="1.678997"><ele>449.0</ele><time>2026-04-27T11:55:51.366Z</time></trkpt><trkpt lat="41.5193319" lon="1.6791706"><ele>449.0</ele><time>2026-04-27T11:55:52.359Z</time></trkpt><trkpt lat="41.5193677" lon="1.6793577"><ele>449.0</ele><time>2026-04-27T11:55:53.357Z</time></trkpt><trkpt lat="41.5193617" lon="1.6795417"><ele>449.0</ele><time>2026-04-27T11:55:54.36Z</time></trkpt><trkpt lat="41.5193577" lon="1.6797313"><ele>449.5</ele><time>2026-04-27T11:55:55.361Z</time></trkpt><trkpt lat="41.5193735" lon="1.679881"><ele>450.0</ele><time>2026-04-27T11:55:56.36Z</time></trkpt><trkpt lat="41.5194211" lon="1.6800176"><ele>450.5</ele><time>2026-04-27T11:55:57.359Z</time></trkpt><trkpt lat="41.519506" lon="1.6801125"><ele>451.0</ele><time>2026-04-27T11:55:58.365Z</time></trkpt><trkpt lat="41.5196069" lon="1.6802034"><ele>447.25</ele><time>2026-04-27T11:55:59.369Z</time></trkpt><trkpt lat="41.5197141" lon="1.6802813"><ele>443.5</ele><time>2026-04-27T11:56:00.356Z</time></trkpt><trkpt lat="41.5198251" lon="1.6803475"><ele>439.75</ele><time>2026-04-27T11:56:01.362Z</time></trkpt><trkpt lat="41.5199383" lon="1.6803897"><ele>436.0</ele><time>2026-04-27T11:56:02.364Z</time></trkpt><trkpt lat="41.5200574" lon="1.6803872"><ele>436.0</ele><time>2026-04-27T11:56:03.366Z</time></trkpt><trkpt lat="41.520182" lon="1.6803388"><ele>436.0</ele><time>2026-04-27T11:56:04.364Z</time></trkpt><trkpt lat="41.520299" lon="1.6802728"><ele>436.0</ele><time>2026-04-27T11:56:05.368Z</time></trkpt><trkpt lat="41.5204089" lon="1.6802199"><ele>436.0</ele><time>2026-04-27T11:56:06.365Z</time></trkpt><trkpt lat="41.5205174" lon="1.6802222"><ele>434.5</ele><time>2026-04-27T11:56:07.372Z</time></trkpt><trkpt lat="41.520625" lon="1.6802857"><ele>433.0</ele><time>2026-04-27T11:56:08.364Z</time></trkpt><trkpt lat="41.5207174" lon="1.6803952"><ele>431.5</ele><time>2026-04-27T11:56:09.365Z</time></trkpt><trkpt lat="41.5207988" lon="1.6805085"><ele>430.0</ele><time>2026-04-27T11:56:10.36Z</time></trkpt><trkpt lat="41.5208842" lon="1.6805957"><ele>430.0</ele><time>2026-04-27T11:56:11.365Z</time></trkpt><trkpt lat="41.5209639" lon="1.6806357"><ele>430.0</ele><time>2026-04-27T11:56:12.366Z</time></trkpt><trkpt lat="41.5210846" lon="1.6805811"><ele>430.0</ele><time>2026-04-27T11:56:14.367Z</time></trkpt><trkpt lat="41.5211399" lon="1.6805027"><ele>430.0</ele><time>2026-04-27T11:56:15.373Z</time></trkpt><trkpt lat="41.5212034" lon="1.6804027"><ele>430.0</ele><time>2026-04-27T11:56:16.376Z</time></trkpt><trkpt lat="41.5212762" lon="1.6802975"><ele>429.5</ele><time>2026-04-27T11:56:17.371Z</time></trkpt><trkpt lat="41.521365" lon="1.6801982"><ele>429.0</ele><time>2026-04-27T11:56:18.366Z</time></trkpt><trkpt lat="41.5214645" lon="1.6801107"><ele>428.5</ele><time>2026-04-27T11:56:19.365Z</time></trkpt><trkpt lat="41.5215767" lon="1.6800359"><ele>428.0</ele><time>2026-04-27T11:56:20.36Z</time></trkpt><trkpt lat="41.5216905" lon="1.6799706"><ele>428.0</ele><time>2026-04-27T11:56:21.368Z</time></trkpt><trkpt lat="41.5218048" lon="1.6799053"><ele>428.0</ele><time>2026-04-27T11:56:22.371Z</time></trkpt><trkpt lat="41.5219154" lon="1.6798248"><ele>428.0</ele><time>2026-04-27T11:56:23.368Z</time></trkpt><trkpt lat="41.5220173" lon="1.6797302"><ele>428.0</ele><time>2026-04-27T11:56:24.364Z</time></trkpt><trkpt lat="41.5221103" lon="1.6796182"><ele>427.2</ele><time>2026-04-27T11:56:25.373Z</time></trkpt><trkpt lat="41.5221956" lon="1.6795134"><ele>426.4</ele><time>2026-04-27T11:56:26.369Z</time></trkpt><trkpt lat="41.5222772" lon="1.6794114"><ele>425.59999999999997</ele><time>2026-04-27T11:56:27.368Z</time></trkpt><trkpt lat="41.5223657" lon="1.6793302"><ele>424.79999999999995</ele><time>2026-04-27T11:56:28.373Z</time></trkpt><trkpt lat="41.5224631" lon="1.6792816"><ele>424.0</ele><time>2026-04-27T11:56:29.371Z</time></trkpt><trkpt lat="41.5225772" lon="1.679263"><ele>424.0</ele><time>2026-04-27T11:56:30.367Z</time></trkpt><trkpt lat="41.5226948" lon="1.6792779"><ele>424.0</ele><time>2026-04-27T11:56:31.374Z</time></trkpt><trkpt lat="41.5228095" lon="1.6793266"><ele>424.0</ele><time>2026-04-27T11:56:32.366Z</time></trkpt><trkpt lat="41.5229178" lon="1.6794122"><ele>424.0</ele><time>2026-04-27T11:56:33.373Z</time></trkpt><trkpt lat="41.5230154" lon="1.6795274"><ele>422.0</ele><time>2026-04-27T11:56:34.373Z</time></trkpt><trkpt lat="41.5230987" lon="1.6796684"><ele>420.0</ele><time>2026-04-27T11:56:35.372Z</time></trkpt><trkpt lat="41.5231652" lon="1.6798218"><ele>418.0</ele><time>2026-04-27T11:56:36.372Z</time></trkpt><trkpt lat="41.5232324" lon="1.6799831"><ele>416.0</ele><time>2026-04-27T11:56:37.37Z</time></trkpt><trkpt lat="41.5232969" lon="1.6801459"><ele>414.25</ele><time>2026-04-27T11:56:38.377Z</time></trkpt><trkpt lat="41.5233548" lon="1.6803073"><ele>412.5</ele><time>2026-04-27T11:56:39.373Z</time></trkpt><trkpt lat="41.5234073" lon="1.6804692"><ele>410.75</ele><time>2026-04-27T11:56:40.38Z</time></trkpt><trkpt lat="41.523465" lon="1.6806193"><ele>409.0</ele><time>2026-04-27T11:56:41.375Z</time></trkpt><trkpt lat="41.5235338" lon="1.6807565"><ele>409.0</ele><time>2026-04-27T11:56:42.37Z</time></trkpt><trkpt lat="41.5236196" lon="1.6808699"><ele>409.0</ele><time>2026-04-27T11:56:43.381Z</time></trkpt><trkpt lat="41.5237153" lon="1.6809753"><ele>409.0</ele><time>2026-04-27T11:56:44.384Z</time></trkpt><trkpt lat="41.5238135" lon="1.6810899"><ele>409.0</ele><time>2026-04-27T11:56:45.379Z</time></trkpt><trkpt lat="41.5239072" lon="1.6812162"><ele>408.25</ele><time>2026-04-27T11:56:46.393Z</time></trkpt><trkpt lat="41.5239882" lon="1.6813554"><ele>407.5</ele><time>2026-04-27T11:56:47.393Z</time></trkpt><trkpt lat="41.5240445" lon="1.6815089"><ele>406.75</ele><time>2026-04-27T11:56:48.38Z</time></trkpt><trkpt lat="41.5240853" lon="1.6816715"><ele>406.0</ele><time>2026-04-27T11:56:49.391Z</time></trkpt><trkpt lat="41.5241207" lon="1.6818369"><ele>404.20000000000005</ele><time>2026-04-27T11:56:50.391Z</time></trkpt><trkpt lat="41.5241555" lon="1.6819979"><ele>402.40000000000003</ele><time>2026-04-27T11:56:51.39Z</time></trkpt><trkpt lat="41.5241942" lon="1.6821381"><ele>400.6</ele><time>2026-04-27T11:56:52.384Z</time></trkpt><trkpt lat="41.5242388" lon="1.6822427"><ele>398.8</ele><time>2026-04-27T11:56:53.391Z</time></trkpt><trkpt lat="41.5242932" lon="1.6823102"><ele>397.0</ele><time>2026-04-27T11:56:54.38Z</time></trkpt><trkpt lat="41.5243526" lon="1.6823441"><ele>397.0</ele><time>2026-04-27T11:56:55.388Z</time></trkpt><trkpt lat="41.5244179" lon="1.6823299"><ele>397.0</ele><time>2026-04-27T11:56:56.386Z</time></trkpt><trkpt lat="41.524494" lon="1.6822662"><ele>397.0</ele><time>2026-04-27T11:56:57.378Z</time></trkpt><trkpt lat="41.5245617" lon="1.6821709"><ele>397.0</ele><time>2026-04-27T11:56:58.391Z</time></trkpt><trkpt lat="41.5246468" lon="1.682089"><ele>397.0</ele><time>2026-04-27T11:56:59.37Z</time></trkpt><trkpt lat="41.5247376" lon="1.6820429"><ele>399.0</ele><time>2026-04-27T11:57:00.381Z</time></trkpt><trkpt lat="41.5248386" lon="1.6820348"><ele>401.0</ele><time>2026-04-27T11:57:01.369Z</time></trkpt><trkpt lat="41.5249462" lon="1.682019"><ele>403.0</ele><time>2026-04-27T11:57:02.369Z</time></trkpt><trkpt lat="41.5250585" lon="1.6819761"><ele>405.0</ele><time>2026-04-27T11:57:03.37Z</time></trkpt><trkpt lat="41.5251762" lon="1.6819218"><ele>405.0</ele><time>2026-04-27T11:57:04.366Z</time></trkpt><trkpt lat="41.5253003" lon="1.6819006"><ele>405.0</ele><time>2026-04-27T11:57:05.374Z</time></trkpt><trkpt lat="41.525424" lon="1.6818799"><ele>405.0</ele><time>2026-04-27T11:57:06.37Z</time></trkpt><trkpt lat="41.5255453" lon="1.6818357"><ele>405.0</ele><time>2026-04-27T11:57:07.369Z</time></trkpt><trkpt lat="41.5256674" lon="1.6817544"><ele>402.5</ele><time>2026-04-27T11:57:08.365Z</time></trkpt><trkpt lat="41.5257913" lon="1.6816701"><ele>400.0</ele><time>2026-04-27T11:57:09.361Z</time></trkpt><trkpt lat="41.5259205" lon="1.6816027"><ele>397.5</ele><time>2026-04-27T11:57:10.373Z</time></trkpt><trkpt lat="41.5260493" lon="1.6815399"><ele>395.0</ele><time>2026-04-27T11:57:11.371Z</time></trkpt><trkpt lat="41.5261758" lon="1.6814829"><ele>390.5</ele><time>2026-04-27T11:57:12.371Z</time></trkpt><trkpt lat="41.5263047" lon="1.6814403"><ele>386.0</ele><time>2026-04-27T11:57:13.369Z</time></trkpt><trkpt lat="41.5264331" lon="1.6814243"><ele>381.5</ele><time>2026-04-27T11:57:14.368Z</time></trkpt><trkpt lat="41.5265539" lon="1.6814479"><ele>377.0</ele><time>2026-04-27T11:57:15.366Z</time></trkpt><trkpt lat="41.52667" lon="1.6814683"><ele>377.0</ele><time>2026-04-27T11:57:16.401Z</time></trkpt><trkpt lat="41.5267839" lon="1.6814565"><ele>377.0</ele><time>2026-04-27T11:57:17.387Z</time></trkpt><trkpt lat="41.526896" lon="1.6814087"><ele>377.0</ele><time>2026-04-27T11:57:18.393Z</time></trkpt><trkpt lat="41.5270084" lon="1.6813531"><ele>377.0</ele><time>2026-04-27T11:57:19.387Z</time></trkpt><trkpt lat="41.52712" lon="1.6812868"><ele>374.0</ele><time>2026-04-27T11:57:20.384Z</time></trkpt><trkpt lat="41.5272308" lon="1.6812166"><ele>371.0</ele><time>2026-04-27T11:57:21.381Z</time></trkpt><trkpt lat="41.5273441" lon="1.681138"><ele>368.0</ele><time>2026-04-27T11:57:22.382Z</time></trkpt><trkpt lat="41.527445" lon="1.6810533"><ele>365.0</ele><time>2026-04-27T11:57:23.383Z</time></trkpt><trkpt lat="41.5275393" lon="1.6809629"><ele>367.8</ele><time>2026-04-27T11:57:24.38Z</time></trkpt><trkpt lat="41.5276254" lon="1.6808712"><ele>370.6</ele><time>2026-04-27T11:57:25.383Z</time></trkpt><trkpt lat="41.5277145" lon="1.6807933"><ele>373.4</ele><time>2026-04-27T11:57:26.385Z</time></trkpt><trkpt lat="41.5278175" lon="1.6807609"><ele>376.2</ele><time>2026-04-27T11:57:27.384Z</time></trkpt><trkpt lat="41.5279345" lon="1.6807747"><ele>379.0</ele><time>2026-04-27T11:57:28.379Z</time></trkpt><trkpt lat="41.5280543" lon="1.6808075"><ele>379.0</ele><time>2026-04-27T11:57:29.382Z</time></trkpt><trkpt lat="41.5281694" lon="1.6808289"><ele>379.0</ele><time>2026-04-27T11:57:30.38Z</time></trkpt><trkpt lat="41.5282856" lon="1.6808251"><ele>379.0</ele><time>2026-04-27T11:57:31.382Z</time></trkpt><trkpt lat="41.5284075" lon="1.6808181"><ele>379.0</ele><time>2026-04-27T11:57:32.372Z</time></trkpt><trkpt lat="41.5285235" lon="1.6807927"><ele>379.0</ele><time>2026-04-27T11:57:33.389Z</time></trkpt><trkpt lat="41.5286376" lon="1.6807608"><ele>379.0</ele><time>2026-04-27T11:57:34.39Z</time></trkpt><trkpt lat="41.528751" lon="1.6807145"><ele>379.0</ele><time>2026-04-27T11:57:35.39Z</time></trkpt><trkpt lat="41.5288619" lon="1.6806494"><ele>379.0</ele><time>2026-04-27T11:57:36.384Z</time></trkpt><trkpt lat="41.5289731" lon="1.6805769"><ele>376.79999999999995</ele><time>2026-04-27T11:57:37.389Z</time></trkpt><trkpt lat="41.5290828" lon="1.6804972"><ele>374.59999999999997</ele><time>2026-04-27T11:57:38.38Z</time></trkpt><trkpt lat="41.5291863" lon="1.6804298"><ele>372.4</ele><time>2026-04-27T11:57:39.384Z</time></trkpt><trkpt lat="41.5292814" lon="1.6803997"><ele>370.2</ele><time>2026-04-27T11:57:40.384Z</time></trkpt><trkpt lat="41.5293689" lon="1.6804229"><ele>368.0</ele><time>2026-04-27T11:57:41.383Z</time></trkpt><trkpt lat="41.5294501" lon="1.6804957"><ele>368.0</ele><time>2026-04-27T11:57:42.379Z</time></trkpt><trkpt lat="41.5295273" lon="1.6805769"><ele>368.0</ele><time>2026-04-27T11:57:43.374Z</time></trkpt><trkpt lat="41.5296174" lon="1.6806314"><ele>368.0</ele><time>2026-04-27T11:57:44.376Z</time></trkpt><trkpt lat="41.5297122" lon="1.6806449"><ele>368.0</ele><time>2026-04-27T11:57:45.382Z</time></trkpt><trkpt lat="41.5297996" lon="1.6806223"><ele>368.0</ele><time>2026-04-27T11:57:46.381Z</time></trkpt><trkpt lat="41.5298831" lon="1.6805498"><ele>369.2</ele><time>2026-04-27T11:57:47.385Z</time></trkpt><trkpt lat="41.5299467" lon="1.6804373"><ele>370.4</ele><time>2026-04-27T11:57:48.384Z</time></trkpt><trkpt lat="41.5300005" lon="1.6803097"><ele>371.59999999999997</ele><time>2026-04-27T11:57:49.393Z</time></trkpt><trkpt lat="41.5300504" lon="1.6801807"><ele>372.79999999999995</ele><time>2026-04-27T11:57:50.382Z</time></trkpt><trkpt lat="41.5301092" lon="1.6800606"><ele>374.0</ele><time>2026-04-27T11:57:51.387Z</time></trkpt><trkpt lat="41.5301858" lon="1.6799369"><ele>374.0</ele><time>2026-04-27T11:57:52.387Z</time></trkpt><trkpt lat="41.5302637" lon="1.6798159"><ele>374.0</ele><time>2026-04-27T11:57:53.381Z</time></trkpt><trkpt lat="41.5303515" lon="1.6797107"><ele>374.0</ele><time>2026-04-27T11:57:54.377Z</time></trkpt><trkpt lat="41.530435" lon="1.6796263"><ele>374.0</ele><time>2026-04-27T11:57:55.383Z</time></trkpt><trkpt lat="41.5305175" lon="1.679561"><ele>374.0</ele><time>2026-04-27T11:57:56.382Z</time></trkpt><trkpt lat="41.5306054" lon="1.6795254"><ele>370.0</ele><time>2026-04-27T11:57:57.381Z</time></trkpt><trkpt lat="41.5306998" lon="1.6795254"><ele>366.0</ele><time>2026-04-27T11:57:58.385Z</time></trkpt><trkpt lat="41.5307983" lon="1.6795688"><ele>362.0</ele><time>2026-04-27T11:57:59.388Z</time></trkpt><trkpt lat="41.5308942" lon="1.6796224"><ele>358.0</ele><time>2026-04-27T11:58:00.382Z</time></trkpt><trkpt lat="41.5309854" lon="1.6796628"><ele>354.0</ele><time>2026-04-27T11:58:01.382Z</time></trkpt><trkpt lat="41.531072" lon="1.6796906"><ele>354.0</ele><time>2026-04-27T11:58:02.375Z</time></trkpt><trkpt lat="41.5311465" lon="1.679705"><ele>354.0</ele><time>2026-04-27T11:58:03.378Z</time></trkpt><trkpt lat="41.5312138" lon="1.6797084"><ele>354.0</ele><time>2026-04-27T11:58:04.378Z</time></trkpt><trkpt lat="41.5312784" lon="1.679703"><ele>354.0</ele><time>2026-04-27T11:58:05.385Z</time></trkpt><trkpt lat="41.5314123" lon="1.679697"><ele>354.0</ele><time>2026-04-27T11:58:07.384Z</time></trkpt><trkpt lat="41.5314897" lon="1.6797118"><ele>354.0</ele><time>2026-04-27T11:58:08.379Z</time></trkpt><trkpt lat="41.5315697" lon="1.679733"><ele>354.3333333333333</ele><time>2026-04-27T11:58:09.386Z</time></trkpt><trkpt lat="41.5316507" lon="1.6797733"><ele>354.6666666666667</ele><time>2026-04-27T11:58:10.391Z</time></trkpt><trkpt lat="41.5317183" lon="1.679829"><ele>355.0</ele><time>2026-04-27T11:58:11.386Z</time></trkpt><trkpt lat="41.5317829" lon="1.6799026"><ele>355.33333333333337</ele><time>2026-04-27T11:58:12.384Z</time></trkpt><trkpt lat="41.5318378" lon="1.6799821"><ele>355.6666666666667</ele><time>2026-04-27T11:58:13.385Z</time></trkpt><trkpt lat="41.5318852" lon="1.6800649"><ele>356.0</ele><time>2026-04-27T11:58:14.384Z</time></trkpt><trkpt lat="41.5319194" lon="1.6801506"><ele>356.0</ele><time>2026-04-27T11:58:15.385Z</time></trkpt><trkpt lat="41.531951" lon="1.6802334"><ele>356.0</ele><time>2026-04-27T11:58:16.381Z</time></trkpt><trkpt lat="41.5320096" lon="1.6803647"><ele>356.0</ele><time>2026-04-27T11:58:18.385Z</time></trkpt><trkpt lat="41.5320669" lon="1.6804846"><ele>356.0</ele><time>2026-04-27T11:58:20.394Z</time></trkpt><trkpt lat="41.5321262" lon="1.6805881"><ele>356.0</ele><time>2026-04-27T11:58:22.391Z</time></trkpt><trkpt lat="41.5321885" lon="1.6806857"><ele>356.20000000000005</ele><time>2026-04-27T11:58:24.39Z</time></trkpt><trkpt lat="41.5322524" lon="1.6807708"><ele>356.40000000000003</ele><time>2026-04-27T11:58:26.392Z</time></trkpt><trkpt lat="41.5323216" lon="1.6808681"><ele>356.6</ele><time>2026-04-27T11:58:28.397Z</time></trkpt><trkpt lat="41.5323967" lon="1.6809853"><ele>356.8</ele><time>2026-04-27T11:58:30.389Z</time></trkpt><trkpt lat="41.5324726" lon="1.6811258"><ele>357.0</ele><time>2026-04-27T11:58:32.39Z</time></trkpt><trkpt lat="41.5325114" lon="1.6811978"><ele>354.57142857142856</ele><time>2026-04-27T11:58:33.396Z</time></trkpt><trkpt lat="41.5325515" lon="1.6812754"><ele>352.1428571428571</ele><time>2026-04-27T11:58:34.383Z</time></trkpt><trkpt lat="41.5325953" lon="1.6813535"><ele>349.7142857142857</ele><time>2026-04-27T11:58:35.385Z</time></trkpt><trkpt lat="41.5326351" lon="1.6814358"><ele>347.2857142857143</ele><time>2026-04-27T11:58:36.384Z</time></trkpt><trkpt lat="41.5326698" lon="1.6815245"><ele>344.85714285714283</ele><time>2026-04-27T11:58:37.39Z</time></trkpt><trkpt lat="41.5327003" lon="1.6816182"><ele>342.42857142857144</ele><time>2026-04-27T11:58:38.384Z</time></trkpt><trkpt lat="41.5327272" lon="1.681714"><ele>340.0</ele><time>2026-04-27T11:58:39.389Z</time></trkpt><trkpt lat="41.5327611" lon="1.6817998"><ele>340.0</ele><time>2026-04-27T11:58:40.384Z</time></trkpt><trkpt lat="41.5328061" lon="1.6818783"><ele>340.0</ele><time>2026-04-27T11:58:41.39Z</time></trkpt><trkpt lat="41.532857" lon="1.6819489"><ele>340.0</ele><time>2026-04-27T11:58:42.382Z</time></trkpt><trkpt lat="41.532922" lon="1.6820141"><ele>340.0</ele><time>2026-04-27T11:58:43.387Z</time></trkpt><trkpt lat="41.5329985" lon="1.6820628"><ele>340.0</ele><time>2026-04-27T11:58:44.389Z</time></trkpt><trkpt lat="41.5330898" lon="1.682092"><ele>340.0</ele><time>2026-04-27T11:58:45.394Z</time></trkpt><trkpt lat="41.5331985" lon="1.6820911"><ele>342.75</ele><time>2026-04-27T11:58:46.397Z</time></trkpt><trkpt lat="41.5333192" lon="1.6820579"><ele>345.5</ele><time>2026-04-27T11:58:47.394Z</time></trkpt><trkpt lat="41.5334461" lon="1.6820142"><ele>348.25</ele><time>2026-04-27T11:58:48.391Z</time></trkpt><trkpt lat="41.5335656" lon="1.6819641"><ele>351.0</ele><time>2026-04-27T11:58:49.391Z</time></trkpt><trkpt lat="41.5336872" lon="1.6819117"><ele>347.5</ele><time>2026-04-27T11:58:50.388Z</time></trkpt><trkpt lat="41.5338137" lon="1.681857"><ele>344.0</ele><time>2026-04-27T11:58:51.401Z</time></trkpt><trkpt lat="41.5339364" lon="1.6817992"><ele>340.5</ele><time>2026-04-27T11:58:52.389Z</time></trkpt><trkpt lat="41.5340553" lon="1.6817307"><ele>337.0</ele><time>2026-04-27T11:58:53.389Z</time></trkpt><trkpt lat="41.5341795" lon="1.6816505"><ele>337.0</ele><time>2026-04-27T11:58:54.385Z</time></trkpt><trkpt lat="41.5343003" lon="1.6815594"><ele>337.0</ele><time>2026-04-27T11:58:55.39Z</time></trkpt><trkpt lat="41.53442" lon="1.68145"><ele>337.0</ele><time>2026-04-27T11:58:56.378Z</time></trkpt><trkpt lat="41.534524" lon="1.6812981"><ele>337.0</ele><time>2026-04-27T11:58:57.377Z</time></trkpt><trkpt lat="41.5346114" lon="1.6811402"><ele>335.25</ele><time>2026-04-27T11:58:58.378Z</time></trkpt><trkpt lat="41.5346856" lon="1.6809754"><ele>333.5</ele><time>2026-04-27T11:58:59.386Z</time></trkpt><trkpt lat="41.5347563" lon="1.6808074"><ele>331.75</ele><time>2026-04-27T11:59:00.38Z</time></trkpt><trkpt lat="41.5348233" lon="1.6806481"><ele>330.0</ele><time>2026-04-27T11:59:01.39Z</time></trkpt><trkpt lat="41.5348872" lon="1.6804912"><ele>330.0</ele><time>2026-04-27T11:59:02.379Z</time></trkpt><trkpt lat="41.5349679" lon="1.6803436"><ele>330.0</ele><time>2026-04-27T11:59:03.386Z</time></trkpt><trkpt lat="41.5350584" lon="1.6802068"><ele>330.0</ele><time>2026-04-27T11:59:04.382Z</time></trkpt><trkpt lat="41.5351694" lon="1.6800941"><ele>330.0</ele><time>2026-04-27T11:59:05.387Z</time></trkpt><trkpt lat="41.5352974" lon="1.6800074"><ele>330.25</ele><time>2026-04-27T11:59:06.379Z</time></trkpt><trkpt lat="41.5354158" lon="1.6799105"><ele>330.5</ele><time>2026-04-27T11:59:07.385Z</time></trkpt><trkpt lat="41.5355413" lon="1.6798112"><ele>330.75</ele><time>2026-04-27T11:59:08.381Z</time></trkpt><trkpt lat="41.5356584" lon="1.6797212"><ele>331.0</ele><time>2026-04-27T11:59:09.386Z</time></trkpt><trkpt lat="41.5357728" lon="1.679637"><ele>331.0</ele><time>2026-04-27T11:59:10.379Z</time></trkpt><trkpt lat="41.5359002" lon="1.679573"><ele>331.0</ele><time>2026-04-27T11:59:11.388Z</time></trkpt><trkpt lat="41.5360202" lon="1.6795305"><ele>331.0</ele><time>2026-04-27T11:59:12.376Z</time></trkpt><trkpt lat="41.5361519" lon="1.6795209"><ele>331.0</ele><time>2026-04-27T11:59:13.385Z</time></trkpt><trkpt lat="41.536278" lon="1.6795458"><ele>331.25</ele><time>2026-04-27T11:59:14.383Z</time></trkpt><trkpt lat="41.5364008" lon="1.6796081"><ele>331.5</ele><time>2026-04-27T11:59:15.39Z</time></trkpt><trkpt lat="41.5365199" lon="1.6796892"><ele>331.75</ele><time>2026-04-27T11:59:16.385Z</time></trkpt><trkpt lat="41.5366381" lon="1.679775"><ele>332.0</ele><time>2026-04-27T11:59:17.393Z</time></trkpt><trkpt lat="41.5367537" lon="1.6798641"><ele>332.0</ele><time>2026-04-27T11:59:18.384Z</time></trkpt><trkpt lat="41.5368728" lon="1.679952"><ele>332.0</ele><time>2026-04-27T11:59:19.389Z</time></trkpt><trkpt lat="41.5369933" lon="1.6800475"><ele>332.0</ele><time>2026-04-27T11:59:20.391Z</time></trkpt><trkpt lat="41.5371133" lon="1.680122"><ele>332.0</ele><time>2026-04-27T11:59:21.386Z</time></trkpt><trkpt lat="41.5372381" lon="1.680193"><ele>332.5</ele><time>2026-04-27T11:59:22.404Z</time></trkpt><trkpt lat="41.5373605" lon="1.6802783"><ele>333.0</ele><time>2026-04-27T11:59:23.386Z</time></trkpt><trkpt lat="41.5374801" lon="1.6803622"><ele>333.5</ele><time>2026-04-27T11:59:24.389Z</time></trkpt><trkpt lat="41.5375926" lon="1.680465"><ele>334.0</ele><time>2026-04-27T11:59:25.389Z</time></trkpt><trkpt lat="41.5376998" lon="1.6805736"><ele>334.0</ele><time>2026-04-27T11:59:26.385Z</time></trkpt><trkpt lat="41.5377911" lon="1.6807016"><ele>334.0</ele><time>2026-04-27T11:59:27.385Z</time></trkpt><trkpt lat="41.5378755" lon="1.6808289"><ele>334.0</ele><time>2026-04-27T11:59:28.393Z</time></trkpt><trkpt lat="41.5379553" lon="1.6809608"><ele>334.0</ele><time>2026-04-27T11:59:29.389Z</time></trkpt><trkpt lat="41.5380322" lon="1.6810877"><ele>333.66666666666663</ele><time>2026-04-27T11:59:30.386Z</time></trkpt><trkpt lat="41.5381005" lon="1.6811862"><ele>333.3333333333333</ele><time>2026-04-27T11:59:31.385Z</time></trkpt><trkpt lat="41.5381657" lon="1.6812682"><ele>333.0</ele><time>2026-04-27T11:59:32.392Z</time></trkpt><trkpt lat="41.538232" lon="1.6813365"><ele>332.6666666666667</ele><time>2026-04-27T11:59:33.385Z</time></trkpt><trkpt lat="41.5383025" lon="1.6813817"><ele>332.33333333333337</ele><time>2026-04-27T11:59:34.386Z</time></trkpt><trkpt lat="41.5383817" lon="1.6813869"><ele>332.0</ele><time>2026-04-27T11:59:35.396Z</time></trkpt><trkpt lat="41.5384671" lon="1.6813392"><ele>332.0</ele><time>2026-04-27T11:59:36.395Z</time></trkpt><trkpt lat="41.5385548" lon="1.6812496"><ele>332.0</ele><time>2026-04-27T11:59:37.399Z</time></trkpt><trkpt lat="41.538632" lon="1.6811396"><ele>332.0</ele><time>2026-04-27T11:59:38.398Z</time></trkpt><trkpt lat="41.5387096" lon="1.681023"><ele>332.0</ele><time>2026-04-27T11:59:39.393Z</time></trkpt><trkpt lat="41.538786" lon="1.6808985"><ele>329.75</ele><time>2026-04-27T11:59:40.393Z</time></trkpt><trkpt lat="41.5388497" lon="1.6807597"><ele>327.5</ele><time>2026-04-27T11:59:41.393Z</time></trkpt><trkpt lat="41.5388901" lon="1.6805927"><ele>325.25</ele><time>2026-04-27T11:59:42.386Z</time></trkpt><trkpt lat="41.5389064" lon="1.6804067"><ele>323.0</ele><time>2026-04-27T11:59:43.378Z</time></trkpt><trkpt lat="41.5389151" lon="1.6802207"><ele>323.0</ele><time>2026-04-27T11:59:44.379Z</time></trkpt><trkpt lat="41.5389201" lon="1.6800374"><ele>323.0</ele><time>2026-04-27T11:59:45.382Z</time></trkpt><trkpt lat="41.5389299" lon="1.6798585"><ele>323.0</ele><time>2026-04-27T11:59:46.379Z</time></trkpt><trkpt lat="41.538939" lon="1.6796832"><ele>323.0</ele><time>2026-04-27T11:59:47.383Z</time></trkpt><trkpt lat="41.5389521" lon="1.6795088"><ele>322.4</ele><time>2026-04-27T11:59:48.382Z</time></trkpt><trkpt lat="41.5389652" lon="1.6793404"><ele>321.79999999999995</ele><time>2026-04-27T11:59:49.383Z</time></trkpt><trkpt lat="41.5389732" lon="1.6791842"><ele>321.2</ele><time>2026-04-27T11:59:50.383Z</time></trkpt><trkpt lat="41.5389693" lon="1.6790447"><ele>320.6</ele><time>2026-04-27T11:59:51.379Z</time></trkpt><trkpt lat="41.5389459" lon="1.6789213"><ele>320.0</ele><time>2026-04-27T11:59:52.378Z</time></trkpt><trkpt lat="41.5389032" lon="1.6788101"><ele>320.0</ele><time>2026-04-27T11:59:53.39Z</time></trkpt><trkpt lat="41.5388312" lon="1.6787196"><ele>320.0</ele><time>2026-04-27T11:59:54.377Z</time></trkpt><trkpt lat="41.5387518" lon="1.6786386"><ele>320.0</ele><time>2026-04-27T11:59:55.376Z</time></trkpt><trkpt lat="41.5386681" lon="1.6785513"><ele>320.0</ele><time>2026-04-27T11:59:56.351Z</time></trkpt><trkpt lat="41.5385971" lon="1.678446"><ele>320.0</ele><time>2026-04-27T11:59:57.353Z</time></trkpt><trkpt lat="41.5385661" lon="1.6783229"><ele>322.2</ele><time>2026-04-27T11:59:58.372Z</time></trkpt><trkpt lat="41.5385686" lon="1.6781796"><ele>324.4</ele><time>2026-04-27T11:59:59.358Z</time></trkpt><trkpt lat="41.5386058" lon="1.6780455"><ele>326.6</ele><time>2026-04-27T12:00:00.348Z</time></trkpt><trkpt lat="41.5386428" lon="1.6779273"><ele>328.8</ele><time>2026-04-27T12:00:01.351Z</time></trkpt><trkpt lat="41.5386949" lon="1.6778133"><ele>331.0</ele><time>2026-04-27T12:00:02.358Z</time></trkpt><trkpt lat="41.5387657" lon="1.6777165"><ele>331.75</ele><time>2026-04-27T12:00:03.358Z</time></trkpt><trkpt lat="41.538853" lon="1.6776566"><ele>332.5</ele><time>2026-04-27T12:00:04.365Z</time></trkpt><trkpt lat="41.5389552" lon="1.6776473"><ele>333.25</ele><time>2026-04-27T12:00:05.358Z</time></trkpt><trkpt lat="41.5390682" lon="1.6776952"><ele>334.0</ele><time>2026-04-27T12:00:06.352Z</time></trkpt><trkpt lat="41.5392871" lon="1.6779051"><ele>333.75</ele><time>2026-04-27T12:00:08.353Z</time></trkpt><trkpt lat="41.5393917" lon="1.6780317"><ele>333.5</ele><time>2026-04-27T12:00:09.362Z</time></trkpt><trkpt lat="41.5394919" lon="1.6781583"><ele>333.25</ele><time>2026-04-27T12:00:10.361Z</time></trkpt><trkpt lat="41.5395857" lon="1.6782699"><ele>333.0</ele><time>2026-04-27T12:00:11.37Z</time></trkpt><trkpt lat="41.539682" lon="1.6783763"><ele>333.0</ele><time>2026-04-27T12:00:12.357Z</time></trkpt><trkpt lat="41.5397744" lon="1.6784788"><ele>333.0</ele><time>2026-04-27T12:00:13.367Z</time></trkpt><trkpt lat="41.5398632" lon="1.6785868"><ele>333.0</ele><time>2026-04-27T12:00:14.365Z</time></trkpt><trkpt lat="41.5399525" lon="1.6786945"><ele>333.0</ele><time>2026-04-27T12:00:15.365Z</time></trkpt><trkpt lat="41.5400327" lon="1.6788156"><ele>331.25</ele><time>2026-04-27T12:00:16.364Z</time></trkpt><trkpt lat="41.5400992" lon="1.6789528"><ele>329.5</ele><time>2026-04-27T12:00:17.369Z</time></trkpt><trkpt lat="41.5401439" lon="1.6791078"><ele>327.75</ele><time>2026-04-27T12:00:18.363Z</time></trkpt><trkpt lat="41.5401841" lon="1.679259"><ele>326.0</ele><time>2026-04-27T12:00:19.36Z</time></trkpt><trkpt lat="41.5402286" lon="1.679391"><ele>326.4</ele><time>2026-04-27T12:00:20.354Z</time></trkpt><trkpt lat="41.5402875" lon="1.6794938"><ele>326.8</ele><time>2026-04-27T12:00:21.375Z</time></trkpt><trkpt lat="41.5403693" lon="1.6795588"><ele>327.2</ele><time>2026-04-27T12:00:22.37Z</time></trkpt><trkpt lat="41.5404666" lon="1.6795669"><ele>327.59999999999997</ele><time>2026-04-27T12:00:23.371Z</time></trkpt><trkpt lat="41.5405681" lon="1.6795556"><ele>328.0</ele><time>2026-04-27T12:00:24.371Z</time></trkpt><trkpt lat="41.5406788" lon="1.6795186"><ele>328.0</ele><time>2026-04-27T12:00:25.372Z</time></trkpt><trkpt lat="41.5407927" lon="1.6794854"><ele>328.0</ele><time>2026-04-27T12:00:26.369Z</time></trkpt><trkpt lat="41.5409066" lon="1.6794705"><ele>328.0</ele><time>2026-04-27T12:00:27.365Z</time></trkpt><trkpt lat="41.5410191" lon="1.6794629"><ele>328.0</ele><time>2026-04-27T12:00:28.373Z</time></trkpt><trkpt lat="41.5411293" lon="1.679455"><ele>328.2</ele><time>2026-04-27T12:00:29.38Z</time></trkpt><trkpt lat="41.5412297" lon="1.6794417"><ele>328.4</ele><time>2026-04-27T12:00:30.368Z</time></trkpt><trkpt lat="41.5414073" lon="1.6793975"><ele>328.59999999999997</ele><time>2026-04-27T12:00:32.371Z</time></trkpt><trkpt lat="41.5414875" lon="1.67938"><ele>328.79999999999995</ele><time>2026-04-27T12:00:33.372Z</time></trkpt><trkpt lat="41.541563" lon="1.6793623"><ele>329.0</ele><time>2026-04-27T12:00:34.372Z</time></trkpt><trkpt lat="41.5416311" lon="1.6793389"><ele>329.5</ele><time>2026-04-27T12:00:35.368Z</time></trkpt><trkpt lat="41.541728" lon="1.6792745"><ele>330.0</ele><time>2026-04-27T12:00:37.363Z</time></trkpt><trkpt lat="41.5417617" lon="1.6791978"><ele>330.5</ele><time>2026-04-27T12:00:39.379Z</time></trkpt><trkpt lat="41.5417336" lon="1.6791066"><ele>331.0</ele><time>2026-04-27T12:00:56.36Z</time></trkpt><trkpt lat="41.5417579" lon="1.6790251"><ele>331.5</ele><time>2026-04-27T12:00:57.364Z</time></trkpt><trkpt lat="41.5418004" lon="1.678944"><ele>332.0</ele><time>2026-04-27T12:00:58.365Z</time></trkpt><trkpt lat="41.541847" lon="1.6788772"><ele>332.0</ele><time>2026-04-27T12:00:59.373Z</time></trkpt><trkpt lat="41.5418984" lon="1.6787994"><ele>332.0</ele><time>2026-04-27T12:01:00.366Z</time></trkpt><trkpt lat="41.5419614" lon="1.6787097"><ele>332.0</ele><time>2026-04-27T12:01:01.369Z</time></trkpt><trkpt lat="41.5420271" lon="1.6786182"><ele>332.0</ele><time>2026-04-27T12:01:02.361Z</time></trkpt><trkpt lat="41.5420989" lon="1.6785121"><ele>332.0</ele><time>2026-04-27T12:01:03.372Z</time></trkpt><trkpt lat="41.5421684" lon="1.6784033"><ele>332.8</ele><time>2026-04-27T12:01:04.368Z</time></trkpt><trkpt lat="41.542238" lon="1.6782977"><ele>333.6</ele><time>2026-04-27T12:01:05.373Z</time></trkpt><trkpt lat="41.5423161" lon="1.6781934"><ele>334.40000000000003</ele><time>2026-04-27T12:01:06.362Z</time></trkpt><trkpt lat="41.5424003" lon="1.6780953"><ele>335.20000000000005</ele><time>2026-04-27T12:01:07.363Z</time></trkpt><trkpt lat="41.5424938" lon="1.678011"><ele>336.0</ele><time>2026-04-27T12:01:08.363Z</time></trkpt><trkpt lat="41.5425978" lon="1.6779477"><ele>336.0</ele><time>2026-04-27T12:01:09.39Z</time></trkpt><trkpt lat="41.542722" lon="1.67791"><ele>336.0</ele><time>2026-04-27T12:01:10.371Z</time></trkpt><trkpt lat="41.5428566" lon="1.6778727"><ele>336.0</ele><time>2026-04-27T12:01:11.374Z</time></trkpt><trkpt lat="41.5429914" lon="1.6778235"><ele>336.0</ele><time>2026-04-27T12:01:12.37Z</time></trkpt><trkpt lat="41.5431329" lon="1.677775"><ele>337.75</ele><time>2026-04-27T12:01:13.377Z</time></trkpt><trkpt lat="41.5432739" lon="1.6777276"><ele>339.5</ele><time>2026-04-27T12:01:14.377Z</time></trkpt><trkpt lat="41.5434091" lon="1.6776798"><ele>341.25</ele><time>2026-04-27T12:01:15.37Z</time></trkpt><trkpt lat="41.5435408" lon="1.6776282"><ele>343.0</ele><time>2026-04-27T12:01:16.373Z</time></trkpt><trkpt lat="41.5436697" lon="1.6775749"><ele>342.0</ele><time>2026-04-27T12:01:17.377Z</time></trkpt><trkpt lat="41.5438007" lon="1.6775236"><ele>341.0</ele><time>2026-04-27T12:01:18.379Z</time></trkpt><trkpt lat="41.5439323" lon="1.6774703"><ele>340.0</ele><time>2026-04-27T12:01:19.383Z</time></trkpt><trkpt lat="41.544068" lon="1.6774247"><ele>339.0</ele><time>2026-04-27T12:01:20.379Z</time></trkpt><trkpt lat="41.5442109" lon="1.6773792"><ele>339.0</ele><time>2026-04-27T12:01:21.383Z</time></trkpt><trkpt lat="41.5443585" lon="1.6773383"><ele>339.0</ele><time>2026-04-27T12:01:22.375Z</time></trkpt><trkpt lat="41.5445045" lon="1.6773222"><ele>339.0</ele><time>2026-04-27T12:01:23.375Z</time></trkpt><trkpt lat="41.5446529" lon="1.6773306"><ele>339.0</ele><time>2026-04-27T12:01:24.372Z</time></trkpt><trkpt lat="41.5448019" lon="1.6773708"><ele>338.75</ele><time>2026-04-27T12:01:25.374Z</time></trkpt><trkpt lat="41.5449462" lon="1.6774195"><ele>338.5</ele><time>2026-04-27T12:01:26.371Z</time></trkpt><trkpt lat="41.545085" lon="1.6774718"><ele>338.25</ele><time>2026-04-27T12:01:27.377Z</time></trkpt><trkpt lat="41.545213" lon="1.6775141"><ele>338.0</ele><time>2026-04-27T12:01:28.381Z</time></trkpt><trkpt lat="41.5453412" lon="1.6775325"><ele>337.4</ele><time>2026-04-27T12:01:29.377Z</time></trkpt><trkpt lat="41.5454587" lon="1.6775323"><ele>336.79999999999995</ele><time>2026-04-27T12:01:30.374Z</time></trkpt><trkpt lat="41.5455619" lon="1.6775027"><ele>336.2</ele><time>2026-04-27T12:01:31.387Z</time></trkpt><trkpt lat="41.5456461" lon="1.6774601"><ele>335.6</ele><time>2026-04-27T12:01:32.371Z</time></trkpt><trkpt lat="41.5457175" lon="1.6774239"><ele>335.0</ele><time>2026-04-27T12:01:33.374Z</time></trkpt><trkpt lat="41.5457933" lon="1.6773942"><ele>335.0</ele><time>2026-04-27T12:02:06.37Z</time></trkpt><trkpt lat="41.5458982" lon="1.6773825"><ele>335.0</ele><time>2026-04-27T12:02:08.373Z</time></trkpt><trkpt lat="41.5459791" lon="1.677414"><ele>335.0</ele><time>2026-04-27T12:02:09.378Z</time></trkpt><trkpt lat="41.5460651" lon="1.6774785"><ele>335.0</ele><time>2026-04-27T12:02:10.371Z</time></trkpt><trkpt lat="41.5461509" lon="1.6775575"><ele>335.0</ele><time>2026-04-27T12:02:11.373Z</time></trkpt><trkpt lat="41.5462375" lon="1.6776518"><ele>335.0</ele><time>2026-04-27T12:02:12.374Z</time></trkpt><trkpt lat="41.5463236" lon="1.677752"><ele>335.0</ele><time>2026-04-27T12:02:13.373Z</time></trkpt><trkpt lat="41.5464096" lon="1.6778612"><ele>335.0</ele><time>2026-04-27T12:02:14.372Z</time></trkpt><trkpt lat="41.5464975" lon="1.6779699"><ele>335.0</ele><time>2026-04-27T12:02:15.372Z</time></trkpt><trkpt lat="41.5465941" lon="1.6780805"><ele>334.0</ele><time>2026-04-27T12:02:16.37Z</time></trkpt><trkpt lat="41.5466943" lon="1.6781983"><ele>333.0</ele><time>2026-04-27T12:02:17.373Z</time></trkpt><trkpt lat="41.5467965" lon="1.6783192"><ele>332.0</ele><time>2026-04-27T12:02:18.367Z</time></trkpt><trkpt lat="41.5468972" lon="1.6784361"><ele>331.0</ele><time>2026-04-27T12:02:19.377Z</time></trkpt><trkpt lat="41.5470037" lon="1.6785451"><ele>329.75</ele><time>2026-04-27T12:02:20.373Z</time></trkpt><trkpt lat="41.5471065" lon="1.6786578"><ele>328.5</ele><time>2026-04-27T12:02:21.373Z</time></trkpt><trkpt lat="41.5472083" lon="1.6787648"><ele>327.25</ele><time>2026-04-27T12:02:22.372Z</time></trkpt><trkpt lat="41.5473051" lon="1.678855"><ele>326.0</ele><time>2026-04-27T12:02:23.372Z</time></trkpt><trkpt lat="41.5474011" lon="1.6789221"><ele>326.0</ele><time>2026-04-27T12:02:24.369Z</time></trkpt><trkpt lat="41.5474911" lon="1.6789535"><ele>326.0</ele><time>2026-04-27T12:02:25.37Z</time></trkpt><trkpt lat="41.5475784" lon="1.6789388"><ele>326.0</ele><time>2026-04-27T12:02:26.372Z</time></trkpt><trkpt lat="41.5476599" lon="1.6788888"><ele>326.0</ele><time>2026-04-27T12:02:27.37Z</time></trkpt><trkpt lat="41.5477296" lon="1.678793"><ele>326.0</ele><time>2026-04-27T12:02:28.374Z</time></trkpt><trkpt lat="41.5477761" lon="1.6786604"><ele>326.4</ele><time>2026-04-27T12:02:29.369Z</time></trkpt><trkpt lat="41.5477919" lon="1.6785197"><ele>326.8</ele><time>2026-04-27T12:02:30.36Z</time></trkpt><trkpt lat="41.5477869" lon="1.6783891"><ele>327.2</ele><time>2026-04-27T12:02:31.355Z</time></trkpt><trkpt lat="41.5477643" lon="1.6782652"><ele>327.59999999999997</ele><time>2026-04-27T12:02:32.36Z</time></trkpt><trkpt lat="41.5477169" lon="1.6781388"><ele>328.0</ele><time>2026-04-27T12:02:33.365Z</time></trkpt><trkpt lat="41.547656" lon="1.6780062"><ele>328.0</ele><time>2026-04-27T12:02:34.353Z</time></trkpt><trkpt lat="41.547588" lon="1.6778696"><ele>328.0</ele><time>2026-04-27T12:02:35.361Z</time></trkpt><trkpt lat="41.5475165" lon="1.6777311"><ele>328.0</ele><time>2026-04-27T12:02:36.359Z</time></trkpt><trkpt lat="41.5474592" lon="1.6776134"><ele>328.0</ele><time>2026-04-27T12:02:37.354Z</time></trkpt><trkpt lat="41.547419" lon="1.6775169"><ele>328.0</ele><time>2026-04-27T12:02:38.357Z</time></trkpt><trkpt lat="41.5473615" lon="1.6774369"><ele>326.0</ele><time>2026-04-27T12:02:41.361Z</time></trkpt><trkpt lat="41.547318" lon="1.6773702"><ele>324.0</ele><time>2026-04-27T12:03:07.362Z</time></trkpt><trkpt lat="41.5472576" lon="1.6772105"><ele>322.0</ele><time>2026-04-27T12:03:09.375Z</time></trkpt><trkpt lat="41.5472067" lon="1.6770976"><ele>320.0</ele><time>2026-04-27T12:03:10.359Z</time></trkpt><trkpt lat="41.5471544" lon="1.6769821"><ele>318.0</ele><time>2026-04-27T12:03:11.369Z</time></trkpt><trkpt lat="41.5470929" lon="1.6768685"><ele>321.5</ele><time>2026-04-27T12:03:12.357Z</time></trkpt><trkpt lat="41.5470326" lon="1.6767488"><ele>325.0</ele><time>2026-04-27T12:03:13.361Z</time></trkpt><trkpt lat="41.5469648" lon="1.6766132"><ele>328.5</ele><time>2026-04-27T12:03:14.359Z</time></trkpt><trkpt lat="41.546891" lon="1.6764839"><ele>332.0</ele><time>2026-04-27T12:03:15.359Z</time></trkpt><trkpt lat="41.5468255" lon="1.6763514"><ele>332.0</ele><time>2026-04-27T12:03:16.361Z</time></trkpt><trkpt lat="41.5467753" lon="1.6762168"><ele>332.0</ele><time>2026-04-27T12:03:17.361Z</time></trkpt><trkpt lat="41.5467449" lon="1.6760676"><ele>332.0</ele><time>2026-04-27T12:03:18.357Z</time></trkpt><trkpt lat="41.5467345" lon="1.6759079"><ele>332.0</ele><time>2026-04-27T12:03:19.358Z</time></trkpt><trkpt lat="41.5467454" lon="1.6757417"><ele>331.0</ele><time>2026-04-27T12:03:20.358Z</time></trkpt><trkpt lat="41.5467811" lon="1.6755737"><ele>330.0</ele><time>2026-04-27T12:03:21.355Z</time></trkpt><trkpt lat="41.5468341" lon="1.6754009"><ele>329.0</ele><time>2026-04-27T12:03:22.356Z</time></trkpt><trkpt lat="41.5468914" lon="1.6752258"><ele>328.0</ele><time>2026-04-27T12:03:23.362Z</time></trkpt><trkpt lat="41.546956" lon="1.6750481"><ele>331.0</ele><time>2026-04-27T12:03:24.362Z</time></trkpt><trkpt lat="41.547015" lon="1.6748651"><ele>334.0</ele><time>2026-04-27T12:03:25.362Z</time></trkpt><trkpt lat="41.5470699" lon="1.6746633"><ele>337.0</ele><time>2026-04-27T12:03:26.361Z</time></trkpt><trkpt lat="41.5471103" lon="1.6744484"><ele>322.3333333333333</ele><time>2026-04-27T12:03:27.361Z</time></trkpt><trkpt lat="41.5471287" lon="1.6742356"><ele>307.6666666666667</ele><time>2026-04-27T12:03:28.361Z</time></trkpt><trkpt lat="41.547134" lon="1.6740266"><ele>293.0</ele><time>2026-04-27T12:03:29.368Z</time></trkpt><trkpt lat="41.5471275" lon="1.6738034"><ele>292.0</ele><time>2026-04-27T12:03:30.373Z</time></trkpt><trkpt lat="41.5471235" lon="1.6735879"><ele>291.0</ele><time>2026-04-27T12:03:31.369Z</time></trkpt><trkpt lat="41.5471169" lon="1.673382"><ele>290.0</ele><time>2026-04-27T12:03:32.366Z</time></trkpt><trkpt lat="41.5471194" lon="1.6731716"><ele>290.0</ele><time>2026-04-27T12:03:33.363Z</time></trkpt><trkpt lat="41.5471305" lon="1.672965"><ele>290.0</ele><time>2026-04-27T12:03:34.367Z</time></trkpt><trkpt lat="41.5471652" lon="1.6727616"><ele>290.0</ele><time>2026-04-27T12:03:35.354Z</time></trkpt><trkpt lat="41.547207" lon="1.6725685"><ele>289.6666666666667</ele><time>2026-04-27T12:03:36.355Z</time></trkpt><trkpt lat="41.547257" lon="1.6723675"><ele>289.3333333333333</ele><time>2026-04-27T12:03:37.364Z</time></trkpt><trkpt lat="41.5473194" lon="1.6721752"><ele>289.0</ele><time>2026-04-27T12:03:38.364Z</time></trkpt><trkpt lat="41.5473788" lon="1.6719814"><ele>289.3333333333333</ele><time>2026-04-27T12:03:39.361Z</time></trkpt><trkpt lat="41.5474401" lon="1.671782"><ele>289.6666666666667</ele><time>2026-04-27T12:03:40.361Z</time></trkpt><trkpt lat="41.5474985" lon="1.6715803"><ele>290.0</ele><time>2026-04-27T12:03:41.366Z</time></trkpt><trkpt lat="41.5475697" lon="1.6713713"><ele>290.0</ele><time>2026-04-27T12:03:42.367Z</time></trkpt><trkpt lat="41.5476285" lon="1.6711514"><ele>290.0</ele><time>2026-04-27T12:03:43.365Z</time></trkpt><trkpt lat="41.5476859" lon="1.6709435"><ele>290.0</ele><time>2026-04-27T12:03:44.364Z</time></trkpt><trkpt lat="41.5477497" lon="1.6707521"><ele>290.4</ele><time>2026-04-27T12:03:45.369Z</time></trkpt><trkpt lat="41.5477945" lon="1.6705838"><ele>290.8</ele><time>2026-04-27T12:03:46.365Z</time></trkpt><trkpt lat="41.5478297" lon="1.67045"><ele>291.2</ele><time>2026-04-27T12:03:47.365Z</time></trkpt><trkpt lat="41.5478716" lon="1.6703252"><ele>291.6</ele><time>2026-04-27T12:03:48.358Z</time></trkpt><trkpt lat="41.547931" lon="1.6702065"><ele>292.0</ele><time>2026-04-27T12:03:49.365Z</time></trkpt><trkpt lat="41.54803" lon="1.6701223"><ele>288.25</ele><time>2026-04-27T12:03:50.37Z</time></trkpt><trkpt lat="41.5481459" lon="1.6700855"><ele>284.5</ele><time>2026-04-27T12:03:51.371Z</time></trkpt><trkpt lat="41.548259" lon="1.6700489"><ele>280.75</ele><time>2026-04-27T12:03:52.366Z</time></trkpt><trkpt lat="41.5483794" lon="1.6700038"><ele>277.0</ele><time>2026-04-27T12:03:53.362Z</time></trkpt><trkpt lat="41.5484994" lon="1.6699584"><ele>277.0</ele><time>2026-04-27T12:03:54.364Z</time></trkpt><trkpt lat="41.5486171" lon="1.669912"><ele>277.0</ele><time>2026-04-27T12:03:55.365Z</time></trkpt><trkpt lat="41.5487257" lon="1.669874"><ele>277.0</ele><time>2026-04-27T12:03:56.363Z</time></trkpt><trkpt lat="41.5488233" lon="1.6698613"><ele>277.0</ele><time>2026-04-27T12:03:57.369Z</time></trkpt><trkpt lat="41.548911" lon="1.6698993"><ele>277.0</ele><time>2026-04-27T12:03:58.369Z</time></trkpt><trkpt lat="41.5489808" lon="1.6699886"><ele>278.8</ele><time>2026-04-27T12:03:59.378Z</time></trkpt><trkpt lat="41.5490252" lon="1.6701099"><ele>280.6</ele><time>2026-04-27T12:04:00.365Z</time></trkpt><trkpt lat="41.5490521" lon="1.6702542"><ele>282.40000000000003</ele><time>2026-04-27T12:04:01.364Z</time></trkpt><trkpt lat="41.5490558" lon="1.6704064"><ele>284.2</ele><time>2026-04-27T12:04:02.361Z</time></trkpt><trkpt lat="41.5490544" lon="1.6705665"><ele>286.0</ele><time>2026-04-27T12:04:03.365Z</time></trkpt><trkpt lat="41.5490453" lon="1.6707315"><ele>286.0</ele><time>2026-04-27T12:04:04.363Z</time></trkpt><trkpt lat="41.5490315" lon="1.6709035"><ele>286.0</ele><time>2026-04-27T12:04:05.366Z</time></trkpt><trkpt lat="41.5490182" lon="1.6710786"><ele>286.0</ele><time>2026-04-27T12:04:06.36Z</time></trkpt><trkpt lat="41.5490107" lon="1.6712514"><ele>286.0</ele><time>2026-04-27T12:04:07.367Z</time></trkpt><trkpt lat="41.5489983" lon="1.6714295"><ele>285.25</ele><time>2026-04-27T12:04:08.362Z</time></trkpt><trkpt lat="41.5489941" lon="1.6716012"><ele>284.5</ele><time>2026-04-27T12:04:09.361Z</time></trkpt><trkpt lat="41.5489932" lon="1.6717761"><ele>283.75</ele><time>2026-04-27T12:04:10.365Z</time></trkpt><trkpt lat="41.5490115" lon="1.6719418"><ele>283.0</ele><time>2026-04-27T12:04:11.354Z</time></trkpt><trkpt lat="41.549049" lon="1.6720956"><ele>283.0</ele><time>2026-04-27T12:04:12.36Z</time></trkpt><trkpt lat="41.549097" lon="1.6722452"><ele>283.0</ele><time>2026-04-27T12:04:13.361Z</time></trkpt><trkpt lat="41.549149" lon="1.6723974"><ele>283.0</ele><time>2026-04-27T12:04:14.361Z</time></trkpt><trkpt lat="41.5491993" lon="1.6725439"><ele>283.0</ele><time>2026-04-27T12:04:15.368Z</time></trkpt><trkpt lat="41.5492445" lon="1.6726939"><ele>281.25</ele><time>2026-04-27T12:04:16.363Z</time></trkpt><trkpt lat="41.5492947" lon="1.6728471"><ele>279.5</ele><time>2026-04-27T12:04:17.364Z</time></trkpt><trkpt lat="41.5493481" lon="1.6730004"><ele>277.75</ele><time>2026-04-27T12:04:18.361Z</time></trkpt><trkpt lat="41.5494081" lon="1.6731581"><ele>276.0</ele><time>2026-04-27T12:04:19.364Z</time></trkpt><trkpt lat="41.5494715" lon="1.6733211"><ele>276.0</ele><time>2026-04-27T12:04:20.36Z</time></trkpt><trkpt lat="41.5495375" lon="1.6734829"><ele>276.0</ele><time>2026-04-27T12:04:21.363Z</time></trkpt><trkpt lat="41.5496071" lon="1.6736378"><ele>276.0</ele><time>2026-04-27T12:04:22.365Z</time></trkpt><trkpt lat="41.5496888" lon="1.6737903"><ele>276.0</ele><time>2026-04-27T12:04:23.368Z</time></trkpt><trkpt lat="41.5497737" lon="1.6739442"><ele>275.25</ele><time>2026-04-27T12:04:24.366Z</time></trkpt><trkpt lat="41.5498605" lon="1.6741028"><ele>274.5</ele><time>2026-04-27T12:04:25.369Z</time></trkpt><trkpt lat="41.5499336" lon="1.6742569"><ele>273.75</ele><time>2026-04-27T12:04:26.362Z</time></trkpt><trkpt lat="41.5500117" lon="1.6744077"><ele>273.0</ele><time>2026-04-27T12:04:27.364Z</time></trkpt><trkpt lat="41.5500949" lon="1.6745446"><ele>273.0</ele><time>2026-04-27T12:04:28.374Z</time></trkpt><trkpt lat="41.5501896" lon="1.6746671"><ele>273.0</ele><time>2026-04-27T12:04:29.368Z</time></trkpt><trkpt lat="41.5502912" lon="1.6747705"><ele>273.0</ele><time>2026-04-27T12:04:30.371Z</time></trkpt><trkpt lat="41.5503823" lon="1.6748428"><ele>273.0</ele><time>2026-04-27T12:04:31.375Z</time></trkpt><trkpt lat="41.5504617" lon="1.6749006"><ele>274.3333333333333</ele><time>2026-04-27T12:04:32.373Z</time></trkpt><trkpt lat="41.5505255" lon="1.6749467"><ele>275.6666666666667</ele><time>2026-04-27T12:04:33.369Z</time></trkpt><trkpt lat="41.5506188" lon="1.6750103"><ele>277.0</ele><time>2026-04-27T12:04:35.372Z</time></trkpt><trkpt lat="41.5506851" lon="1.6750592"><ele>278.33333333333337</ele><time>2026-04-27T12:04:37.368Z</time></trkpt><trkpt lat="41.5507459" lon="1.6751034"><ele>279.6666666666667</ele><time>2026-04-27T12:04:39.372Z</time></trkpt><trkpt lat="41.5508039" lon="1.6751569"><ele>281.0</ele><time>2026-04-27T12:04:41.378Z</time></trkpt><trkpt lat="41.5508706" lon="1.6752213"><ele>280.0</ele><time>2026-04-27T12:04:43.357Z</time></trkpt><trkpt lat="41.5509757" lon="1.6753278"><ele>279.0</ele><time>2026-04-27T12:04:45.358Z</time></trkpt><trkpt lat="41.551044" lon="1.6753988"><ele>278.0</ele><time>2026-04-27T12:04:46.356Z</time></trkpt><trkpt lat="41.5511249" lon="1.6754808"><ele>277.0</ele><time>2026-04-27T12:04:47.365Z</time></trkpt><trkpt lat="41.5512129" lon="1.6755598"><ele>276.0</ele><time>2026-04-27T12:04:48.36Z</time></trkpt><trkpt lat="41.5513034" lon="1.6756435"><ele>276.0</ele><time>2026-04-27T12:04:49.369Z</time></trkpt><trkpt lat="41.5513986" lon="1.6757336"><ele>276.0</ele><time>2026-04-27T12:04:50.364Z</time></trkpt><trkpt lat="41.5514976" lon="1.6758304"><ele>276.0</ele><time>2026-04-27T12:04:51.368Z</time></trkpt><trkpt lat="41.5515985" lon="1.6759143"><ele>276.0</ele><time>2026-04-27T12:04:52.359Z</time></trkpt><trkpt lat="41.5517022" lon="1.6759745"><ele>276.0</ele><time>2026-04-27T12:04:53.362Z</time></trkpt><trkpt lat="41.551819" lon="1.6760135"><ele>276.0</ele><time>2026-04-27T12:04:54.363Z</time></trkpt><trkpt lat="41.551943" lon="1.6760193"><ele>276.0</ele><time>2026-04-27T12:04:55.365Z</time></trkpt><trkpt lat="41.5520761" lon="1.6760016"><ele>276.0</ele><time>2026-04-27T12:04:56.364Z</time></trkpt><trkpt lat="41.5522016" lon="1.6759684"><ele>276.2</ele><time>2026-04-27T12:04:57.363Z</time></trkpt><trkpt lat="41.5523144" lon="1.6759359"><ele>276.40000000000003</ele><time>2026-04-27T12:04:58.361Z</time></trkpt><trkpt lat="41.552416" lon="1.6759051"><ele>276.6</ele><time>2026-04-27T12:04:59.362Z</time></trkpt><trkpt lat="41.5525125" lon="1.6758821"><ele>276.8</ele><time>2026-04-27T12:05:00.357Z</time></trkpt><trkpt lat="41.5525914" lon="1.6758656"><ele>277.0</ele><time>2026-04-27T12:05:01.357Z</time></trkpt><trkpt lat="41.5526587" lon="1.6758512"><ele>277.0</ele><time>2026-04-27T12:05:02.356Z</time></trkpt><trkpt lat="41.5527784" lon="1.6758292"><ele>277.0</ele><time>2026-04-27T12:05:04.358Z</time></trkpt><trkpt lat="41.5528417" lon="1.6758141"><ele>277.0</ele><time>2026-04-27T12:05:05.357Z</time></trkpt><trkpt lat="41.5529182" lon="1.6758106"><ele>277.0</ele><time>2026-04-27T12:05:06.362Z</time></trkpt><trkpt lat="41.5530023" lon="1.675825"><ele>277.0</ele><time>2026-04-27T12:05:07.361Z</time></trkpt><trkpt lat="41.5531003" lon="1.6758447"><ele>277.0</ele><time>2026-04-27T12:05:08.355Z</time></trkpt><trkpt lat="41.5532162" lon="1.6758741"><ele>275.25</ele><time>2026-04-27T12:05:09.363Z</time></trkpt><trkpt lat="41.5533343" lon="1.6759175"><ele>273.5</ele><time>2026-04-27T12:05:10.357Z</time></trkpt><trkpt lat="41.5534584" lon="1.6759523"><ele>271.75</ele><time>2026-04-27T12:05:11.36Z</time></trkpt><trkpt lat="41.5535664" lon="1.675972"><ele>270.0</ele><time>2026-04-27T12:05:12.357Z</time></trkpt><trkpt lat="41.553664" lon="1.6759775"><ele>269.5</ele><time>2026-04-27T12:05:13.361Z</time></trkpt><trkpt lat="41.5537445" lon="1.6759598"><ele>269.0</ele><time>2026-04-27T12:05:14.356Z</time></trkpt><trkpt lat="41.5538174" lon="1.6759382"><ele>268.5</ele><time>2026-04-27T12:05:15.355Z</time></trkpt><trkpt lat="41.5539302" lon="1.6758949"><ele>268.0</ele><time>2026-04-27T12:05:17.359Z</time></trkpt><trkpt lat="41.5539927" lon="1.6758709"><ele>267.5</ele><time>2026-04-27T12:05:18.357Z</time></trkpt><trkpt lat="41.5540555" lon="1.6758506"><ele>267.0</ele><time>2026-04-27T12:05:19.357Z</time></trkpt><trkpt lat="41.5541303" lon="1.6758303"><ele>267.0</ele><time>2026-04-27T12:05:20.358Z</time></trkpt><trkpt lat="41.5542119" lon="1.6758012"><ele>267.0</ele><time>2026-04-27T12:05:21.359Z</time></trkpt><trkpt lat="41.5542986" lon="1.6757668"><ele>267.0</ele><time>2026-04-27T12:05:22.356Z</time></trkpt><trkpt lat="41.5544015" lon="1.6757372"><ele>267.0</ele><time>2026-04-27T12:05:23.359Z</time></trkpt><trkpt lat="41.5545084" lon="1.6757039"><ele>267.0</ele><time>2026-04-27T12:05:24.359Z</time></trkpt><trkpt lat="41.5546107" lon="1.675667"><ele>266.6</ele><time>2026-04-27T12:05:25.362Z</time></trkpt><trkpt lat="41.5547013" lon="1.6756229"><ele>266.2</ele><time>2026-04-27T12:05:26.36Z</time></trkpt><trkpt lat="41.5547815" lon="1.6755629"><ele>265.8</ele><time>2026-04-27T12:05:27.358Z</time></trkpt><trkpt lat="41.5548558" lon="1.6754788"><ele>265.4</ele><time>2026-04-27T12:05:28.363Z</time></trkpt><trkpt lat="41.5549339" lon="1.6753817"><ele>265.0</ele><time>2026-04-27T12:05:29.36Z</time></trkpt><trkpt lat="41.5550003" lon="1.6752759"><ele>266.2</ele><time>2026-04-27T12:05:30.355Z</time></trkpt><trkpt lat="41.5550688" lon="1.6751706"><ele>267.4</ele><time>2026-04-27T12:05:31.36Z</time></trkpt><trkpt lat="41.5551368" lon="1.6750663"><ele>268.6</ele><time>2026-04-27T12:05:32.351Z</time></trkpt><trkpt lat="41.5552072" lon="1.6749584"><ele>269.8</ele><time>2026-04-27T12:05:33.351Z</time></trkpt><trkpt lat="41.5552802" lon="1.6748514"><ele>271.0</ele><time>2026-04-27T12:05:34.348Z</time></trkpt><trkpt lat="41.5553562" lon="1.6747454"><ele>270.8</ele><time>2026-04-27T12:05:35.358Z</time></trkpt><trkpt lat="41.5554331" lon="1.6746476"><ele>270.6</ele><time>2026-04-27T12:05:36.356Z</time></trkpt><trkpt lat="41.5555126" lon="1.6745521"><ele>270.4</ele><time>2026-04-27T12:05:37.361Z</time></trkpt><trkpt lat="41.5555922" lon="1.6744627"><ele>270.2</ele><time>2026-04-27T12:05:38.354Z</time></trkpt><trkpt lat="41.5556767" lon="1.6743779"><ele>270.0</ele><time>2026-04-27T12:05:39.352Z</time></trkpt><trkpt lat="41.5557575" lon="1.6742974"><ele>271.6</ele><time>2026-04-27T12:05:40.348Z</time></trkpt><trkpt lat="41.5558392" lon="1.6742115"><ele>273.2</ele><time>2026-04-27T12:05:41.352Z</time></trkpt><trkpt lat="41.5559269" lon="1.6741162"><ele>274.8</ele><time>2026-04-27T12:05:42.337Z</time></trkpt><trkpt lat="41.5560133" lon="1.6740189"><ele>276.4</ele><time>2026-04-27T12:05:43.349Z</time></trkpt><trkpt lat="41.556101" lon="1.6739306"><ele>278.0</ele><time>2026-04-27T12:05:44.344Z</time></trkpt><trkpt lat="41.5561905" lon="1.6738527"><ele>277.6</ele><time>2026-04-27T12:05:45.349Z</time></trkpt><trkpt lat="41.5562744" lon="1.6737669"><ele>277.20000000000005</ele><time>2026-04-27T12:05:46.346Z</time></trkpt><trkpt lat="41.5563638" lon="1.6736794"><ele>276.8</ele><time>2026-04-27T12:05:47.35Z</time></trkpt><trkpt lat="41.5564572" lon="1.6735949"><ele>276.40000000000003</ele><time>2026-04-27T12:05:48.346Z</time></trkpt><trkpt lat="41.5565518" lon="1.6735106"><ele>276.0</ele><time>2026-04-27T12:05:49.353Z</time></trkpt><trkpt lat="41.5566465" lon="1.67343"><ele>276.0</ele><time>2026-04-27T12:05:50.352Z</time></trkpt><trkpt lat="41.5567371" lon="1.6733519"><ele>276.0</ele><time>2026-04-27T12:05:51.351Z</time></trkpt><trkpt lat="41.5568295" lon="1.673275"><ele>276.0</ele><time>2026-04-27T12:05:52.349Z</time></trkpt><trkpt lat="41.5569217" lon="1.6731974"><ele>276.0</ele><time>2026-04-27T12:05:53.366Z</time></trkpt><trkpt lat="41.5570174" lon="1.6731118"><ele>276.0</ele><time>2026-04-27T12:05:54.34Z</time></trkpt><trkpt lat="41.5571114" lon="1.6730325"><ele>275.6</ele><time>2026-04-27T12:05:55.359Z</time></trkpt><trkpt lat="41.5572083" lon="1.6729647"><ele>275.20000000000005</ele><time>2026-04-27T12:05:56.358Z</time></trkpt><trkpt lat="41.5573148" lon="1.6729164"><ele>274.79999999999995</ele><time>2026-04-27T12:05:57.364Z</time></trkpt><trkpt lat="41.5574263" lon="1.6728963"><ele>274.4</ele><time>2026-04-27T12:05:58.363Z</time></trkpt><trkpt lat="41.5575403" lon="1.6728954"><ele>274.0</ele><time>2026-04-27T12:05:59.358Z</time></trkpt><trkpt lat="41.5576563" lon="1.6729045"><ele>274.0</ele><time>2026-04-27T12:06:00.36Z</time></trkpt><trkpt lat="41.5577681" lon="1.6729115"><ele>274.0</ele><time>2026-04-27T12:06:01.368Z</time></trkpt><trkpt lat="41.5578725" lon="1.6729203"><ele>274.0</ele><time>2026-04-27T12:06:02.355Z</time></trkpt><trkpt lat="41.5579812" lon="1.672928"><ele>274.0</ele><time>2026-04-27T12:06:03.361Z</time></trkpt><trkpt lat="41.5580868" lon="1.6729355"><ele>274.0</ele><time>2026-04-27T12:06:04.352Z</time></trkpt><trkpt lat="41.5581908" lon="1.672942"><ele>274.0</ele><time>2026-04-27T12:06:05.365Z</time></trkpt><trkpt lat="41.5582988" lon="1.6729489"><ele>274.0</ele><time>2026-04-27T12:06:06.352Z</time></trkpt><trkpt lat="41.5584092" lon="1.6729621"><ele>274.0</ele><time>2026-04-27T12:06:07.361Z</time></trkpt><trkpt lat="41.5585193" lon="1.6729656"><ele>274.0</ele><time>2026-04-27T12:06:08.357Z</time></trkpt><trkpt lat="41.5586373" lon="1.6729658"><ele>274.0</ele><time>2026-04-27T12:06:09.369Z</time></trkpt><trkpt lat="41.5587561" lon="1.672967"><ele>273.75</ele><time>2026-04-27T12:06:10.36Z</time></trkpt><trkpt lat="41.5588733" lon="1.6729652"><ele>273.5</ele><time>2026-04-27T12:06:11.361Z</time></trkpt><trkpt lat="41.5589988" lon="1.6729707"><ele>273.25</ele><time>2026-04-27T12:06:12.349Z</time></trkpt><trkpt lat="41.5591263" lon="1.6729658"><ele>273.0</ele><time>2026-04-27T12:06:13.35Z</time></trkpt><trkpt lat="41.5592588" lon="1.672966"><ele>273.0</ele><time>2026-04-27T12:06:14.356Z</time></trkpt><trkpt lat="41.559407" lon="1.6729721"><ele>273.0</ele><time>2026-04-27T12:06:15.352Z</time></trkpt><trkpt lat="41.55957" lon="1.6729876"><ele>273.0</ele><time>2026-04-27T12:06:16.351Z</time></trkpt><trkpt lat="41.5597515" lon="1.6730191"><ele>273.3333333333333</ele><time>2026-04-27T12:06:17.354Z</time></trkpt><trkpt lat="41.559957" lon="1.6730461"><ele>273.66666666666663</ele><time>2026-04-27T12:06:18.357Z</time></trkpt><trkpt lat="41.5601535" lon="1.6730645"><ele>274.0</ele><time>2026-04-27T12:06:19.357Z</time></trkpt><trkpt lat="41.5603221" lon="1.6730903"><ele>275.66666666666663</ele><time>2026-04-27T12:06:20.357Z</time></trkpt><trkpt lat="41.5604843" lon="1.6731191"><ele>277.3333333333333</ele><time>2026-04-27T12:06:21.358Z</time></trkpt><trkpt lat="41.5606345" lon="1.6731782"><ele>279.0</ele><time>2026-04-27T12:06:22.354Z</time></trkpt><trkpt lat="41.5607839" lon="1.6732556"><ele>279.0</ele><time>2026-04-27T12:06:23.353Z</time></trkpt><trkpt lat="41.5609304" lon="1.6733385"><ele>279.0</ele><time>2026-04-27T12:06:24.353Z</time></trkpt><trkpt lat="41.561067" lon="1.6734068"><ele>279.0</ele><time>2026-04-27T12:06:25.356Z</time></trkpt><trkpt lat="41.561195" lon="1.6734821"><ele>279.0</ele><time>2026-04-27T12:06:26.356Z</time></trkpt><trkpt lat="41.5613179" lon="1.6735719"><ele>279.75</ele><time>2026-04-27T12:06:27.358Z</time></trkpt><trkpt lat="41.5614143" lon="1.6736945"><ele>280.5</ele><time>2026-04-27T12:06:28.358Z</time></trkpt><trkpt lat="41.5614867" lon="1.6738493"><ele>281.25</ele><time>2026-04-27T12:06:29.361Z</time></trkpt><trkpt lat="41.5615546" lon="1.6740064"><ele>282.0</ele><time>2026-04-27T12:06:30.359Z</time></trkpt><trkpt lat="41.5616343" lon="1.6741563"><ele>282.0</ele><time>2026-04-27T12:06:31.365Z</time></trkpt><trkpt lat="41.5617189" lon="1.6742987"><ele>282.0</ele><time>2026-04-27T12:06:32.361Z</time></trkpt><trkpt lat="41.5618136" lon="1.6744179"><ele>282.0</ele><time>2026-04-27T12:06:33.357Z</time></trkpt><trkpt lat="41.5619225" lon="1.6745285"><ele>282.0</ele><time>2026-04-27T12:06:34.357Z</time></trkpt><trkpt lat="41.5620432" lon="1.6746107"><ele>280.5</ele><time>2026-04-27T12:06:35.358Z</time></trkpt><trkpt lat="41.5621768" lon="1.6746701"><ele>279.0</ele><time>2026-04-27T12:06:36.357Z</time></trkpt><trkpt lat="41.5623221" lon="1.6746945"><ele>277.5</ele><time>2026-04-27T12:06:37.358Z</time></trkpt><trkpt lat="41.562467" lon="1.6747009"><ele>276.0</ele><time>2026-04-27T12:06:38.354Z</time></trkpt><trkpt lat="41.5626105" lon="1.6746806"><ele>276.0</ele><time>2026-04-27T12:06:39.361Z</time></trkpt><trkpt lat="41.5627711" lon="1.6746523"><ele>276.0</ele><time>2026-04-27T12:06:40.353Z</time></trkpt><trkpt lat="41.5629114" lon="1.6746016"><ele>276.0</ele><time>2026-04-27T12:06:41.364Z</time></trkpt><trkpt lat="41.5630568" lon="1.6745279"><ele>275.0</ele><time>2026-04-27T12:06:42.36Z</time></trkpt><trkpt lat="41.5631919" lon="1.6744311"><ele>274.0</ele><time>2026-04-27T12:06:43.365Z</time></trkpt><trkpt lat="41.5633153" lon="1.6742936"><ele>273.0</ele><time>2026-04-27T12:06:44.366Z</time></trkpt><trkpt lat="41.5634281" lon="1.6741332"><ele>273.0</ele><time>2026-04-27T12:06:45.366Z</time></trkpt><trkpt lat="41.5635278" lon="1.6739481"><ele>273.0</ele><time>2026-04-27T12:06:46.36Z</time></trkpt><trkpt lat="41.563613" lon="1.6737465"><ele>273.0</ele><time>2026-04-27T12:06:47.364Z</time></trkpt><trkpt lat="41.5636906" lon="1.673526"><ele>272.6666666666667</ele><time>2026-04-27T12:06:48.365Z</time></trkpt><trkpt lat="41.5637591" lon="1.6733003"><ele>272.33333333333337</ele><time>2026-04-27T12:06:49.367Z</time></trkpt><trkpt lat="41.5638139" lon="1.6730638"><ele>272.0</ele><time>2026-04-27T12:06:50.361Z</time></trkpt><trkpt lat="41.5638498" lon="1.6728299"><ele>273.0</ele><time>2026-04-27T12:06:51.362Z</time></trkpt><trkpt lat="41.5638715" lon="1.6725845"><ele>274.0</ele><time>2026-04-27T12:06:52.359Z</time></trkpt><trkpt lat="41.5638774" lon="1.6723396"><ele>275.0</ele><time>2026-04-27T12:06:53.365Z</time></trkpt><trkpt lat="41.5638664" lon="1.6720902"><ele>277.6666666666667</ele><time>2026-04-27T12:06:54.363Z</time></trkpt><trkpt lat="41.5638381" lon="1.6718513"><ele>280.3333333333333</ele><time>2026-04-27T12:06:55.372Z</time></trkpt><trkpt lat="41.5637955" lon="1.6716149"><ele>283.0</ele><time>2026-04-27T12:06:56.373Z</time></trkpt><trkpt lat="41.5637476" lon="1.6713816"><ele>281.3333333333333</ele><time>2026-04-27T12:06:57.371Z</time></trkpt><trkpt lat="41.5636969" lon="1.6711558"><ele>279.6666666666667</ele><time>2026-04-27T12:06:58.379Z</time></trkpt><trkpt lat="41.5636445" lon="1.6709333"><ele>278.0</ele><time>2026-04-27T12:06:59.372Z</time></trkpt><trkpt lat="41.5635955" lon="1.6707217"><ele>278.0</ele><time>2026-04-27T12:07:00.372Z</time></trkpt><trkpt lat="41.5635505" lon="1.6705098"><ele>278.0</ele><time>2026-04-27T12:07:01.373Z</time></trkpt><trkpt lat="41.5635017" lon="1.6702976"><ele>278.0</ele><time>2026-04-27T12:07:02.372Z</time></trkpt><trkpt lat="41.5634521" lon="1.6700893"><ele>280.0</ele><time>2026-04-27T12:07:03.378Z</time></trkpt><trkpt lat="41.563403" lon="1.6698723"><ele>282.0</ele><time>2026-04-27T12:07:04.38Z</time></trkpt><trkpt lat="41.5633507" lon="1.6696631"><ele>284.0</ele><time>2026-04-27T12:07:05.378Z</time></trkpt><trkpt lat="41.5633037" lon="1.6694536"><ele>286.33333333333337</ele><time>2026-04-27T12:07:06.365Z</time></trkpt><trkpt lat="41.5632564" lon="1.6692455"><ele>288.6666666666667</ele><time>2026-04-27T12:07:07.362Z</time></trkpt><trkpt lat="41.5632077" lon="1.6690518"><ele>291.0</ele><time>2026-04-27T12:07:08.366Z</time></trkpt><trkpt lat="41.5631649" lon="1.6688554"><ele>291.0</ele><time>2026-04-27T12:07:09.37Z</time></trkpt><trkpt lat="41.563122" lon="1.6686602"><ele>291.0</ele><time>2026-04-27T12:07:10.375Z</time></trkpt><trkpt lat="41.5630755" lon="1.6684542"><ele>291.0</ele><time>2026-04-27T12:07:11.369Z</time></trkpt><trkpt lat="41.5630254" lon="1.6682363"><ele>291.0</ele><time>2026-04-27T12:07:12.37Z</time></trkpt><trkpt lat="41.562979" lon="1.6680196"><ele>291.0</ele><time>2026-04-27T12:07:13.365Z</time></trkpt><trkpt lat="41.5629286" lon="1.6677999"><ele>291.0</ele><time>2026-04-27T12:07:14.374Z</time></trkpt><trkpt lat="41.5628883" lon="1.6675842"><ele>287.3333333333333</ele><time>2026-04-27T12:07:15.372Z</time></trkpt><trkpt lat="41.5628611" lon="1.6673633"><ele>283.66666666666663</ele><time>2026-04-27T12:07:16.374Z</time></trkpt><trkpt lat="41.5628332" lon="1.667148"><ele>280.0</ele><time>2026-04-27T12:07:17.373Z</time></trkpt><trkpt lat="41.5628145" lon="1.6669288"><ele>279.3333333333333</ele><time>2026-04-27T12:07:18.375Z</time></trkpt><trkpt lat="41.5628097" lon="1.6666943"><ele>278.6666666666667</ele><time>2026-04-27T12:07:19.375Z</time></trkpt><trkpt lat="41.562815" lon="1.6664481"><ele>278.0</ele><time>2026-04-27T12:07:20.37Z</time></trkpt><trkpt lat="41.5628431" lon="1.6662063"><ele>280.33333333333337</ele><time>2026-04-27T12:07:21.374Z</time></trkpt><trkpt lat="41.5628891" lon="1.6659557"><ele>282.6666666666667</ele><time>2026-04-27T12:07:22.368Z</time></trkpt><trkpt lat="41.5629391" lon="1.6657048"><ele>285.0</ele><time>2026-04-27T12:07:23.374Z</time></trkpt><trkpt lat="41.5630166" lon="1.6654594"><ele>283.0</ele><time>2026-04-27T12:07:24.369Z</time></trkpt><trkpt lat="41.5631039" lon="1.6652224"><ele>281.0</ele><time>2026-04-27T12:07:25.372Z</time></trkpt><trkpt lat="41.5631974" lon="1.6649776"><ele>279.0</ele><time>2026-04-27T12:07:26.371Z</time></trkpt><trkpt lat="41.5633767" lon="1.6644807"><ele>279.3333333333333</ele><time>2026-04-27T12:07:28.388Z</time></trkpt><trkpt lat="41.5634636" lon="1.6642344"><ele>279.66666666666663</ele><time>2026-04-27T12:07:29.382Z</time></trkpt><trkpt lat="41.563552" lon="1.6639944"><ele>280.0</ele><time>2026-04-27T12:07:30.376Z</time></trkpt><trkpt lat="41.5636404" lon="1.6637568"><ele>281.0</ele><time>2026-04-27T12:07:31.383Z</time></trkpt><trkpt lat="41.5637249" lon="1.6635107"><ele>282.0</ele><time>2026-04-27T12:07:32.375Z</time></trkpt><trkpt lat="41.5638166" lon="1.6632678"><ele>283.0</ele><time>2026-04-27T12:07:33.376Z</time></trkpt><trkpt lat="41.5639098" lon="1.663024"><ele>282.3333333333333</ele><time>2026-04-27T12:07:34.376Z</time></trkpt><trkpt lat="41.5640061" lon="1.6627804"><ele>281.6666666666667</ele><time>2026-04-27T12:07:35.38Z</time></trkpt><trkpt lat="41.5640957" lon="1.6625405"><ele>281.0</ele><time>2026-04-27T12:07:36.375Z</time></trkpt><trkpt lat="41.5641889" lon="1.6622996"><ele>281.0</ele><time>2026-04-27T12:07:37.378Z</time></trkpt><trkpt lat="41.5642777" lon="1.6620595"><ele>281.0</ele><time>2026-04-27T12:07:38.376Z</time></trkpt><trkpt lat="41.5643685" lon="1.661824"><ele>281.0</ele><time>2026-04-27T12:07:39.38Z</time></trkpt><trkpt lat="41.5644574" lon="1.661591"><ele>281.6666666666667</ele><time>2026-04-27T12:07:40.379Z</time></trkpt><trkpt lat="41.5645424" lon="1.6613552"><ele>282.3333333333333</ele><time>2026-04-27T12:07:41.378Z</time></trkpt><trkpt lat="41.5646258" lon="1.6611135"><ele>283.0</ele><time>2026-04-27T12:07:42.374Z</time></trkpt><trkpt lat="41.5647127" lon="1.6608683"><ele>283.0</ele><time>2026-04-27T12:07:43.378Z</time></trkpt><trkpt lat="41.5647941" lon="1.6606239"><ele>283.0</ele><time>2026-04-27T12:07:44.373Z</time></trkpt><trkpt lat="41.5648794" lon="1.6603791"><ele>283.0</ele><time>2026-04-27T12:07:45.374Z</time></trkpt><trkpt lat="41.5649583" lon="1.6601386"><ele>282.0</ele><time>2026-04-27T12:07:46.373Z</time></trkpt><trkpt lat="41.5650445" lon="1.659892"><ele>281.0</ele><time>2026-04-27T12:07:47.38Z</time></trkpt><trkpt lat="41.5651268" lon="1.6596461"><ele>280.0</ele><time>2026-04-27T12:07:48.373Z</time></trkpt><trkpt lat="41.5652113" lon="1.6594084"><ele>279.66666666666663</ele><time>2026-04-27T12:07:49.38Z</time></trkpt><trkpt lat="41.5653001" lon="1.659168"><ele>279.3333333333333</ele><time>2026-04-27T12:07:50.374Z</time></trkpt><trkpt lat="41.5653898" lon="1.658921"><ele>279.0</ele><time>2026-04-27T12:07:51.379Z</time></trkpt><trkpt lat="41.56548" lon="1.6586842"><ele>281.3333333333333</ele><time>2026-04-27T12:07:52.376Z</time></trkpt><trkpt lat="41.5655631" lon="1.6584432"><ele>283.66666666666663</ele><time>2026-04-27T12:07:53.377Z</time></trkpt><trkpt lat="41.5656451" lon="1.6582011"><ele>286.0</ele><time>2026-04-27T12:07:54.374Z</time></trkpt><trkpt lat="41.5657341" lon="1.6579619"><ele>285.0</ele><time>2026-04-27T12:07:55.378Z</time></trkpt><trkpt lat="41.5658246" lon="1.6577248"><ele>284.0</ele><time>2026-04-27T12:07:56.374Z</time></trkpt><trkpt lat="41.5659198" lon="1.6574956"><ele>283.0</ele><time>2026-04-27T12:07:57.378Z</time></trkpt><trkpt lat="41.5660155" lon="1.6572676"><ele>283.0</ele><time>2026-04-27T12:07:58.378Z</time></trkpt><trkpt lat="41.5661225" lon="1.6570392"><ele>283.0</ele><time>2026-04-27T12:07:59.377Z</time></trkpt><trkpt lat="41.5662344" lon="1.6568163"><ele>283.0</ele><time>2026-04-27T12:08:00.373Z</time></trkpt><trkpt lat="41.5663498" lon="1.6566059"><ele>285.3333333333333</ele><time>2026-04-27T12:08:01.374Z</time></trkpt><trkpt lat="41.5664501" lon="1.6563955"><ele>287.6666666666667</ele><time>2026-04-27T12:08:02.37Z</time></trkpt><trkpt lat="41.5665452" lon="1.656213"><ele>290.0</ele><time>2026-04-27T12:08:03.367Z</time></trkpt><trkpt lat="41.5666221" lon="1.6560631"><ele>290.0</ele><time>2026-04-27T12:08:04.367Z</time></trkpt><trkpt lat="41.566688" lon="1.6559341"><ele>290.0</ele><time>2026-04-27T12:08:05.376Z</time></trkpt><trkpt lat="41.566741" lon="1.6558307"><ele>290.0</ele><time>2026-04-27T12:08:06.369Z</time></trkpt><trkpt lat="41.5667973" lon="1.6557514"><ele>290.0</ele><time>2026-04-27T12:08:07.367Z</time></trkpt><trkpt lat="41.5668727" lon="1.6556849"><ele>290.0</ele><time>2026-04-27T12:08:08.369Z</time></trkpt><trkpt lat="41.5669456" lon="1.6556254"><ele>290.0</ele><time>2026-04-27T12:08:09.369Z</time></trkpt><trkpt lat="41.5670212" lon="1.6555514"><ele>290.0</ele><time>2026-04-27T12:08:10.369Z</time></trkpt><trkpt lat="41.5670689" lon="1.6554494"><ele>290.0</ele><time>2026-04-27T12:08:11.366Z</time></trkpt><trkpt lat="41.5671014" lon="1.6553384"><ele>290.0</ele><time>2026-04-27T12:08:12.367Z</time></trkpt><trkpt lat="41.5671232" lon="1.6552164"><ele>290.0</ele><time>2026-04-27T12:08:13.372Z</time></trkpt><trkpt lat="41.5671558" lon="1.6550949"><ele>290.0</ele><time>2026-04-27T12:08:14.379Z</time></trkpt><trkpt lat="41.567203" lon="1.6549732"><ele>290.0</ele><time>2026-04-27T12:08:15.373Z</time></trkpt><trkpt lat="41.5672609" lon="1.6548501"><ele>290.0</ele><time>2026-04-27T12:08:16.373Z</time></trkpt><trkpt lat="41.5673221" lon="1.6547236"><ele>290.0</ele><time>2026-04-27T12:08:17.38Z</time></trkpt><trkpt lat="41.5673865" lon="1.6545902"><ele>290.0</ele><time>2026-04-27T12:08:18.376Z</time></trkpt><trkpt lat="41.5674616" lon="1.6544462"><ele>290.0</ele><time>2026-04-27T12:08:19.378Z</time></trkpt><trkpt lat="41.5675411" lon="1.6542958"><ele>290.0</ele><time>2026-04-27T12:08:20.377Z</time></trkpt><trkpt lat="41.5676203" lon="1.6541426"><ele>290.0</ele><time>2026-04-27T12:08:21.383Z</time></trkpt><trkpt lat="41.5677" lon="1.6539836"><ele>290.0</ele><time>2026-04-27T12:08:22.38Z</time></trkpt><trkpt lat="41.5677804" lon="1.6538086"><ele>290.0</ele><time>2026-04-27T12:08:23.381Z</time></trkpt><trkpt lat="41.5678578" lon="1.6536427"><ele>290.0</ele><time>2026-04-27T12:08:24.377Z</time></trkpt><trkpt lat="41.5679336" lon="1.6534849"><ele>290.0</ele><time>2026-04-27T12:08:25.379Z</time></trkpt><trkpt lat="41.5680071" lon="1.653326"><ele>290.0</ele><time>2026-04-27T12:08:26.377Z</time></trkpt><trkpt lat="41.5680831" lon="1.6531741"><ele>291.5</ele><time>2026-04-27T12:08:27.383Z</time></trkpt><trkpt lat="41.5681662" lon="1.653024"><ele>293.0</ele><time>2026-04-27T12:08:28.38Z</time></trkpt><trkpt lat="41.5682543" lon="1.6528691"><ele>294.5</ele><time>2026-04-27T12:08:29.382Z</time></trkpt><trkpt lat="41.5683434" lon="1.652707"><ele>296.0</ele><time>2026-04-27T12:08:30.383Z</time></trkpt><trkpt lat="41.5684319" lon="1.6525495"><ele>296.5</ele><time>2026-04-27T12:08:31.382Z</time></trkpt><trkpt lat="41.5685129" lon="1.6523932"><ele>297.0</ele><time>2026-04-27T12:08:32.374Z</time></trkpt><trkpt lat="41.5685927" lon="1.6522416"><ele>297.5</ele><time>2026-04-27T12:08:33.381Z</time></trkpt><trkpt lat="41.5686728" lon="1.6520863"><ele>298.0</ele><time>2026-04-27T12:08:34.375Z</time></trkpt><trkpt lat="41.5687525" lon="1.6519246"><ele>298.5</ele><time>2026-04-27T12:08:35.377Z</time></trkpt><trkpt lat="41.5688332" lon="1.651764"><ele>299.0</ele><time>2026-04-27T12:08:36.375Z</time></trkpt><trkpt lat="41.5689183" lon="1.6515999"><ele>299.5</ele><time>2026-04-27T12:08:37.377Z</time></trkpt><trkpt lat="41.5690049" lon="1.6514353"><ele>300.0</ele><time>2026-04-27T12:08:38.372Z</time></trkpt><trkpt lat="41.5690864" lon="1.6512649"><ele>300.0</ele><time>2026-04-27T12:08:39.379Z</time></trkpt><trkpt lat="41.5691712" lon="1.6510956"><ele>300.0</ele><time>2026-04-27T12:08:40.375Z</time></trkpt><trkpt lat="41.5692546" lon="1.6509297"><ele>300.0</ele><time>2026-04-27T12:08:41.379Z</time></trkpt><trkpt lat="41.5693374" lon="1.6507643"><ele>300.0</ele><time>2026-04-27T12:08:42.376Z</time></trkpt><trkpt lat="41.5694234" lon="1.6505973"><ele>300.0</ele><time>2026-04-27T12:08:43.381Z</time></trkpt><trkpt lat="41.5695128" lon="1.650427"><ele>300.0</ele><time>2026-04-27T12:08:44.379Z</time></trkpt><trkpt lat="41.5696019" lon="1.6502573"><ele>300.6666666666667</ele><time>2026-04-27T12:08:45.379Z</time></trkpt><trkpt lat="41.5696923" lon="1.6500845"><ele>301.33333333333337</ele><time>2026-04-27T12:08:46.379Z</time></trkpt><trkpt lat="41.5697842" lon="1.649909"><ele>302.0</ele><time>2026-04-27T12:08:47.378Z</time></trkpt><trkpt lat="41.5698824" lon="1.6497287"><ele>302.0</ele><time>2026-04-27T12:08:48.376Z</time></trkpt><trkpt lat="41.569977" lon="1.6495456"><ele>302.0</ele><time>2026-04-27T12:08:49.363Z</time></trkpt><trkpt lat="41.5700623" lon="1.6493478"><ele>302.0</ele><time>2026-04-27T12:08:50.375Z</time></trkpt><trkpt lat="41.5701057" lon="1.6491744"><ele>302.25</ele><time>2026-04-27T12:08:51.374Z</time></trkpt><trkpt lat="41.5701929" lon="1.6490153"><ele>302.5</ele><time>2026-04-27T12:08:52.371Z</time></trkpt><trkpt lat="41.5702826" lon="1.6489018"><ele>302.75</ele><time>2026-04-27T12:08:53.371Z</time></trkpt><trkpt lat="41.5703506" lon="1.648805"><ele>303.0</ele><time>2026-04-27T12:08:54.369Z</time></trkpt><trkpt lat="41.5704215" lon="1.648704"><ele>303.0</ele><time>2026-04-27T12:08:55.364Z</time></trkpt><trkpt lat="41.5704929" lon="1.6486254"><ele>303.0</ele><time>2026-04-27T12:08:56.363Z</time></trkpt><trkpt lat="41.570575" lon="1.6485687"><ele>303.0</ele><time>2026-04-27T12:08:57.362Z</time></trkpt><trkpt lat="41.5706561" lon="1.6484986"><ele>303.0</ele><time>2026-04-27T12:08:58.372Z</time></trkpt><trkpt lat="41.5707147" lon="1.6484062"><ele>303.0</ele><time>2026-04-27T12:08:59.369Z</time></trkpt><trkpt lat="41.5707477" lon="1.6482859"><ele>303.0</ele><time>2026-04-27T12:09:00.364Z</time></trkpt><trkpt lat="41.5707643" lon="1.6481581"><ele>303.0</ele><time>2026-04-27T12:09:01.372Z</time></trkpt><trkpt lat="41.5707821" lon="1.6480325"><ele>303.0</ele><time>2026-04-27T12:09:02.368Z</time></trkpt><trkpt lat="41.570817" lon="1.6479166"><ele>303.0</ele><time>2026-04-27T12:09:03.367Z</time></trkpt><trkpt lat="41.5708649" lon="1.6478104"><ele>303.0</ele><time>2026-04-27T12:09:04.37Z</time></trkpt><trkpt lat="41.5709233" lon="1.6477045"><ele>303.4</ele><time>2026-04-27T12:09:05.376Z</time></trkpt><trkpt lat="41.5709864" lon="1.6475949"><ele>303.8</ele><time>2026-04-27T12:09:06.373Z</time></trkpt><trkpt lat="41.5710488" lon="1.6474817"><ele>304.2</ele><time>2026-04-27T12:09:07.375Z</time></trkpt><trkpt lat="41.5711119" lon="1.6473667"><ele>304.6</ele><time>2026-04-27T12:09:08.373Z</time></trkpt><trkpt lat="41.571172" lon="1.647252"><ele>305.0</ele><time>2026-04-27T12:09:09.374Z</time></trkpt><trkpt lat="41.5712336" lon="1.6471377"><ele>305.6666666666667</ele><time>2026-04-27T12:09:10.37Z</time></trkpt><trkpt lat="41.571286" lon="1.6470377"><ele>306.33333333333337</ele><time>2026-04-27T12:09:11.372Z</time></trkpt><trkpt lat="41.5713499" lon="1.6469222"><ele>307.0</ele><time>2026-04-27T12:09:13.376Z</time></trkpt><trkpt lat="41.5713993" lon="1.6468328"><ele>307.6666666666667</ele><time>2026-04-27T12:09:15.375Z</time></trkpt><trkpt lat="41.5714371" lon="1.6467613"><ele>308.3333333333333</ele><time>2026-04-27T12:09:17.377Z</time></trkpt><trkpt lat="41.5714938" lon="1.646663"><ele>309.0</ele><time>2026-04-27T12:09:20.371Z</time></trkpt><trkpt lat="41.5715466" lon="1.6465615"><ele>309.3333333333333</ele><time>2026-04-27T12:09:22.373Z</time></trkpt><trkpt lat="41.5716045" lon="1.6464294"><ele>309.6666666666667</ele><time>2026-04-27T12:09:24.372Z</time></trkpt><trkpt lat="41.5716362" lon="1.6463514"><ele>310.0</ele><time>2026-04-27T12:09:25.381Z</time></trkpt><trkpt lat="41.5716699" lon="1.6462731"><ele>310.33333333333337</ele><time>2026-04-27T12:09:26.374Z</time></trkpt><trkpt lat="41.5717035" lon="1.646198"><ele>310.6666666666667</ele><time>2026-04-27T12:09:27.381Z</time></trkpt><trkpt lat="41.5717406" lon="1.6461151"><ele>311.0</ele><time>2026-04-27T12:09:28.376Z</time></trkpt><trkpt lat="41.5717793" lon="1.64603"><ele>311.0</ele><time>2026-04-27T12:09:29.386Z</time></trkpt><trkpt lat="41.5718177" lon="1.6459443"><ele>311.0</ele><time>2026-04-27T12:09:30.378Z</time></trkpt><trkpt lat="41.5718629" lon="1.6458565"><ele>311.0</ele><time>2026-04-27T12:09:31.377Z</time></trkpt><trkpt lat="41.5719069" lon="1.6457687"><ele>311.0</ele><time>2026-04-27T12:09:32.375Z</time></trkpt><trkpt lat="41.5719516" lon="1.6456798"><ele>311.0</ele><time>2026-04-27T12:09:33.378Z</time></trkpt><trkpt lat="41.5719983" lon="1.6455902"><ele>311.0</ele><time>2026-04-27T12:09:34.374Z</time></trkpt><trkpt lat="41.5720438" lon="1.6455043"><ele>311.6</ele><time>2026-04-27T12:09:35.373Z</time></trkpt><trkpt lat="41.5720921" lon="1.6454118"><ele>312.20000000000005</ele><time>2026-04-27T12:09:36.367Z</time></trkpt><trkpt lat="41.5721425" lon="1.645316"><ele>312.79999999999995</ele><time>2026-04-27T12:09:37.37Z</time></trkpt><trkpt lat="41.572193" lon="1.6452178"><ele>313.4</ele><time>2026-04-27T12:09:38.377Z</time></trkpt><trkpt lat="41.5722441" lon="1.6451127"><ele>314.0</ele><time>2026-04-27T12:09:39.373Z</time></trkpt><trkpt lat="41.5722952" lon="1.6450053"><ele>314.0</ele><time>2026-04-27T12:09:40.377Z</time></trkpt><trkpt lat="41.5723482" lon="1.6449001"><ele>314.0</ele><time>2026-04-27T12:09:41.381Z</time></trkpt><trkpt lat="41.5724035" lon="1.6447965"><ele>314.0</ele><time>2026-04-27T12:09:42.376Z</time></trkpt><trkpt lat="41.5724601" lon="1.6446967"><ele>314.0</ele><time>2026-04-27T12:09:43.378Z</time></trkpt><trkpt lat="41.572515" lon="1.6445942"><ele>314.0</ele><time>2026-04-27T12:09:44.373Z</time></trkpt><trkpt lat="41.5725704" lon="1.6444939"><ele>314.2</ele><time>2026-04-27T12:09:45.379Z</time></trkpt><trkpt lat="41.5726297" lon="1.6443932"><ele>314.4</ele><time>2026-04-27T12:09:46.374Z</time></trkpt><trkpt lat="41.5726855" lon="1.6442902"><ele>314.6</ele><time>2026-04-27T12:09:47.376Z</time></trkpt><trkpt lat="41.5727484" lon="1.644189"><ele>314.8</ele><time>2026-04-27T12:09:48.373Z</time></trkpt><trkpt lat="41.5728147" lon="1.6440934"><ele>315.0</ele><time>2026-04-27T12:09:49.377Z</time></trkpt><trkpt lat="41.5728821" lon="1.6440062"><ele>315.0</ele><time>2026-04-27T12:09:50.373Z</time></trkpt><trkpt lat="41.5729504" lon="1.6439244"><ele>315.0</ele><time>2026-04-27T12:09:51.375Z</time></trkpt><trkpt lat="41.5730176" lon="1.6438453"><ele>315.0</ele><time>2026-04-27T12:09:52.374Z</time></trkpt><trkpt lat="41.5730848" lon="1.643766"><ele>315.0</ele><time>2026-04-27T12:09:53.375Z</time></trkpt><trkpt lat="41.5731523" lon="1.643685"><ele>315.0</ele><time>2026-04-27T12:09:54.371Z</time></trkpt><trkpt lat="41.5732195" lon="1.6436034"><ele>314.6666666666667</ele><time>2026-04-27T12:09:55.374Z</time></trkpt><trkpt lat="41.5732825" lon="1.6435259"><ele>314.3333333333333</ele><time>2026-04-27T12:09:56.373Z</time></trkpt><trkpt lat="41.5733501" lon="1.643453"><ele>314.0</ele><time>2026-04-27T12:09:57.375Z</time></trkpt><trkpt lat="41.5734153" lon="1.6433811"><ele>313.66666666666663</ele><time>2026-04-27T12:09:58.38Z</time></trkpt><trkpt lat="41.573477" lon="1.6433121"><ele>313.3333333333333</ele><time>2026-04-27T12:09:59.38Z</time></trkpt><trkpt lat="41.5735361" lon="1.6432494"><ele>313.0</ele><time>2026-04-27T12:10:00.376Z</time></trkpt><trkpt lat="41.5735913" lon="1.64319"><ele>313.0</ele><time>2026-04-27T12:10:01.381Z</time></trkpt><trkpt lat="41.5736432" lon="1.6431383"><ele>313.0</ele><time>2026-04-27T12:10:02.372Z</time></trkpt><trkpt lat="41.57373" lon="1.6430273"><ele>313.0</ele><time>2026-04-27T12:10:04.372Z</time></trkpt><trkpt lat="41.5738166" lon="1.6428972"><ele>313.0</ele><time>2026-04-27T12:10:06.386Z</time></trkpt><trkpt lat="41.5738656" lon="1.6428312"><ele>313.0</ele><time>2026-04-27T12:10:07.378Z</time></trkpt><trkpt lat="41.5739185" lon="1.6427631"><ele>313.16666666666663</ele><time>2026-04-27T12:10:08.376Z</time></trkpt><trkpt lat="41.5739724" lon="1.642698"><ele>313.3333333333333</ele><time>2026-04-27T12:10:09.377Z</time></trkpt><trkpt lat="41.5740266" lon="1.6426189"><ele>313.5</ele><time>2026-04-27T12:10:10.376Z</time></trkpt><trkpt lat="41.574088" lon="1.6425322"><ele>313.6666666666667</ele><time>2026-04-27T12:10:11.378Z</time></trkpt><trkpt lat="41.5741546" lon="1.6424376"><ele>313.83333333333337</ele><time>2026-04-27T12:10:12.377Z</time></trkpt><trkpt lat="41.5742283" lon="1.642338"><ele>314.0</ele><time>2026-04-27T12:10:13.379Z</time></trkpt><trkpt lat="41.5743091" lon="1.6422361"><ele>314.0</ele><time>2026-04-27T12:10:14.38Z</time></trkpt><trkpt lat="41.5743933" lon="1.6421364"><ele>314.0</ele><time>2026-04-27T12:10:15.38Z</time></trkpt><trkpt lat="41.5744815" lon="1.6420397"><ele>314.0</ele><time>2026-04-27T12:10:16.38Z</time></trkpt><trkpt lat="41.5745674" lon="1.641948"><ele>314.0</ele><time>2026-04-27T12:10:17.383Z</time></trkpt><trkpt lat="41.5746513" lon="1.6418575"><ele>314.0</ele><time>2026-04-27T12:10:18.379Z</time></trkpt><trkpt lat="41.574731" lon="1.6417668"><ele>314.1666666666667</ele><time>2026-04-27T12:10:19.388Z</time></trkpt><trkpt lat="41.5748067" lon="1.6416806"><ele>314.33333333333337</ele><time>2026-04-27T12:10:20.381Z</time></trkpt><trkpt lat="41.5748789" lon="1.6416048"><ele>314.5</ele><time>2026-04-27T12:10:21.372Z</time></trkpt><trkpt lat="41.574945" lon="1.6415403"><ele>314.6666666666667</ele><time>2026-04-27T12:10:22.383Z</time></trkpt><trkpt lat="41.5749978" lon="1.6414908"><ele>314.8333333333333</ele><time>2026-04-27T12:10:23.376Z</time></trkpt><trkpt lat="41.5750838" lon="1.6414606"><ele>315.0</ele><time>2026-04-27T12:10:25.369Z</time></trkpt><trkpt lat="41.5751601" lon="1.6414662"><ele>315.0</ele><time>2026-04-27T12:10:28.376Z</time></trkpt><trkpt lat="41.5752202" lon="1.6414224"><ele>315.0</ele><time>2026-04-27T12:10:30.371Z</time></trkpt><trkpt lat="41.5752759" lon="1.6413011"><ele>315.0</ele><time>2026-04-27T12:10:32.373Z</time></trkpt><trkpt lat="41.575306" lon="1.6412182"><ele>315.0</ele><time>2026-04-27T12:10:33.371Z</time></trkpt><trkpt lat="41.5753556" lon="1.6411387"><ele>315.0</ele><time>2026-04-27T12:10:34.369Z</time></trkpt><trkpt lat="41.5754129" lon="1.641065"><ele>315.0</ele><time>2026-04-27T12:10:35.372Z</time></trkpt><trkpt lat="41.5754837" lon="1.6410051"><ele>315.6</ele><time>2026-04-27T12:10:36.37Z</time></trkpt><trkpt lat="41.5755638" lon="1.6409545"><ele>316.2</ele><time>2026-04-27T12:10:37.37Z</time></trkpt><trkpt lat="41.5756545" lon="1.640907"><ele>316.8</ele><time>2026-04-27T12:10:38.372Z</time></trkpt><trkpt lat="41.5757569" lon="1.6408585"><ele>317.4</ele><time>2026-04-27T12:10:39.373Z</time></trkpt><trkpt lat="41.5758612" lon="1.6408114"><ele>318.0</ele><time>2026-04-27T12:10:40.374Z</time></trkpt><trkpt lat="41.5759644" lon="1.640767"><ele>318.0</ele><time>2026-04-27T12:10:41.374Z</time></trkpt><trkpt lat="41.5760667" lon="1.6407248"><ele>318.0</ele><time>2026-04-27T12:10:42.371Z</time></trkpt><trkpt lat="41.5761697" lon="1.6406836"><ele>318.0</ele><time>2026-04-27T12:10:43.38Z</time></trkpt><trkpt lat="41.5762635" lon="1.6406407"><ele>318.0</ele><time>2026-04-27T12:10:44.375Z</time></trkpt><trkpt lat="41.5763467" lon="1.6405992"><ele>318.0</ele><time>2026-04-27T12:10:45.377Z</time></trkpt><trkpt lat="41.5764287" lon="1.6405616"><ele>319.2</ele><time>2026-04-27T12:10:46.373Z</time></trkpt><trkpt lat="41.5765134" lon="1.640526"><ele>320.4</ele><time>2026-04-27T12:10:47.379Z</time></trkpt><trkpt lat="41.5766052" lon="1.6404894"><ele>321.59999999999997</ele><time>2026-04-27T12:10:48.376Z</time></trkpt><trkpt lat="41.5766994" lon="1.6404475"><ele>322.8</ele><time>2026-04-27T12:10:49.376Z</time></trkpt><trkpt lat="41.5767929" lon="1.640407"><ele>324.0</ele><time>2026-04-27T12:10:50.376Z</time></trkpt><trkpt lat="41.5768869" lon="1.6403667"><ele>324.0</ele><time>2026-04-27T12:10:51.377Z</time></trkpt><trkpt lat="41.5769824" lon="1.6403273"><ele>324.0</ele><time>2026-04-27T12:10:52.38Z</time></trkpt><trkpt lat="41.5770743" lon="1.640286"><ele>324.0</ele><time>2026-04-27T12:10:53.378Z</time></trkpt><trkpt lat="41.5771646" lon="1.6402477"><ele>324.0</ele><time>2026-04-27T12:10:54.377Z</time></trkpt><trkpt lat="41.577255" lon="1.6402057"><ele>324.0</ele><time>2026-04-27T12:10:55.378Z</time></trkpt><trkpt lat="41.5773453" lon="1.6401623"><ele>323.6</ele><time>2026-04-27T12:10:56.379Z</time></trkpt><trkpt lat="41.5774343" lon="1.6401226"><ele>323.2</ele><time>2026-04-27T12:10:57.375Z</time></trkpt><trkpt lat="41.5775235" lon="1.6400816"><ele>322.8</ele><time>2026-04-27T12:10:58.381Z</time></trkpt><trkpt lat="41.5776119" lon="1.6400403"><ele>322.40000000000003</ele><time>2026-04-27T12:10:59.378Z</time></trkpt><trkpt lat="41.5777002" lon="1.6399997"><ele>322.0</ele><time>2026-04-27T12:11:00.377Z</time></trkpt><trkpt lat="41.5777844" lon="1.6399615"><ele>322.3333333333333</ele><time>2026-04-27T12:11:01.376Z</time></trkpt><trkpt lat="41.5778609" lon="1.6399279"><ele>322.66666666666663</ele><time>2026-04-27T12:11:02.37Z</time></trkpt><trkpt lat="41.5779376" lon="1.6399109"><ele>323.0</ele><time>2026-04-27T12:11:03.372Z</time></trkpt><trkpt lat="41.5780026" lon="1.6399055"><ele>323.3333333333333</ele><time>2026-04-27T12:11:04.369Z</time></trkpt><trkpt lat="41.5780906" lon="1.6399102"><ele>323.6666666666667</ele><time>2026-04-27T12:11:06.368Z</time></trkpt><trkpt lat="41.57817" lon="1.6399287"><ele>324.0</ele><time>2026-04-27T12:11:09.376Z</time></trkpt><trkpt lat="41.5782462" lon="1.6399947"><ele>324.0</ele><time>2026-04-27T12:11:12.381Z</time></trkpt><trkpt lat="41.5783236" lon="1.6400725"><ele>324.0</ele><time>2026-04-27T12:11:14.381Z</time></trkpt><trkpt lat="41.5784164" lon="1.6400875"><ele>324.0</ele><time>2026-04-27T12:11:16.378Z</time></trkpt><trkpt lat="41.5784914" lon="1.6399998"><ele>324.0</ele><time>2026-04-27T12:11:18.372Z</time></trkpt><trkpt lat="41.5785249" lon="1.6398584"><ele>324.0</ele><time>2026-04-27T12:11:20.371Z</time></trkpt><trkpt lat="41.5785311" lon="1.6397739"><ele>324.0</ele><time>2026-04-27T12:11:21.376Z</time></trkpt><trkpt lat="41.5785219" lon="1.6396073"><ele>324.0</ele><time>2026-04-27T12:11:23.381Z</time></trkpt><trkpt lat="41.5785147" lon="1.6394552"><ele>324.0</ele><time>2026-04-27T12:11:25.376Z</time></trkpt><trkpt lat="41.5785298" lon="1.6393166"><ele>324.0</ele><time>2026-04-27T12:11:27.377Z</time></trkpt><trkpt lat="41.5785581" lon="1.6391798"><ele>324.0</ele><time>2026-04-27T12:11:29.383Z</time></trkpt><trkpt lat="41.5785953" lon="1.6390437"><ele>324.0</ele><time>2026-04-27T12:11:31.376Z</time></trkpt><trkpt lat="41.5786416" lon="1.6388969"><ele>324.0</ele><time>2026-04-27T12:11:33.37Z</time></trkpt><trkpt lat="41.5786708" lon="1.6388142"><ele>324.0</ele><time>2026-04-27T12:11:34.37Z</time></trkpt><trkpt lat="41.5787074" lon="1.6387289"><ele>324.0</ele><time>2026-04-27T12:11:35.375Z</time></trkpt><trkpt lat="41.5787496" lon="1.638637"><ele>322.59999999999997</ele><time>2026-04-27T12:11:36.373Z</time></trkpt><trkpt lat="41.5788042" lon="1.6385413"><ele>321.2</ele><time>2026-04-27T12:11:37.373Z</time></trkpt><trkpt lat="41.5788683" lon="1.6384456"><ele>319.79999999999995</ele><time>2026-04-27T12:11:38.372Z</time></trkpt><trkpt lat="41.5789385" lon="1.6383543"><ele>318.4</ele><time>2026-04-27T12:11:39.37Z</time></trkpt><trkpt lat="41.5790159" lon="1.638262"><ele>317.0</ele><time>2026-04-27T12:11:40.368Z</time></trkpt><trkpt lat="41.5790993" lon="1.6381703"><ele>317.0</ele><time>2026-04-27T12:11:41.366Z</time></trkpt><trkpt lat="41.5791912" lon="1.638081"><ele>317.0</ele><time>2026-04-27T12:11:42.372Z</time></trkpt><trkpt lat="41.5792957" lon="1.6380034"><ele>317.0</ele><time>2026-04-27T12:11:43.364Z</time></trkpt><trkpt lat="41.5794101" lon="1.6379391"><ele>317.0</ele><time>2026-04-27T12:11:44.368Z</time></trkpt><trkpt lat="41.5795306" lon="1.6378898"><ele>318.0</ele><time>2026-04-27T12:11:45.361Z</time></trkpt><trkpt lat="41.5796561" lon="1.6378523"><ele>319.0</ele><time>2026-04-27T12:11:46.36Z</time></trkpt><trkpt lat="41.5797905" lon="1.6378235"><ele>320.0</ele><time>2026-04-27T12:11:47.365Z</time></trkpt><trkpt lat="41.5799223" lon="1.6377978"><ele>321.0</ele><time>2026-04-27T12:11:48.365Z</time></trkpt><trkpt lat="41.5800557" lon="1.6377682"><ele>319.25</ele><time>2026-04-27T12:11:49.364Z</time></trkpt><trkpt lat="41.58018" lon="1.6377369"><ele>317.5</ele><time>2026-04-27T12:11:50.368Z</time></trkpt><trkpt lat="41.5803042" lon="1.6377108"><ele>315.75</ele><time>2026-04-27T12:11:51.367Z</time></trkpt><trkpt lat="41.5804262" lon="1.6376771"><ele>314.0</ele><time>2026-04-27T12:11:52.37Z</time></trkpt><trkpt lat="41.5805413" lon="1.6376399"><ele>314.0</ele><time>2026-04-27T12:11:53.37Z</time></trkpt><trkpt lat="41.5806559" lon="1.6375955"><ele>314.0</ele><time>2026-04-27T12:11:54.373Z</time></trkpt><trkpt lat="41.5807711" lon="1.6375466"><ele>314.0</ele><time>2026-04-27T12:11:55.371Z</time></trkpt><trkpt lat="41.5808821" lon="1.6374944"><ele>314.0</ele><time>2026-04-27T12:11:56.377Z</time></trkpt><trkpt lat="41.5809875" lon="1.6374304"><ele>314.0</ele><time>2026-04-27T12:11:57.369Z</time></trkpt><trkpt lat="41.5810856" lon="1.6373547"><ele>314.0</ele><time>2026-04-27T12:11:58.372Z</time></trkpt><trkpt lat="41.5811813" lon="1.6372658"><ele>314.0</ele><time>2026-04-27T12:11:59.374Z</time></trkpt><trkpt lat="41.5812724" lon="1.6371665"><ele>314.0</ele><time>2026-04-27T12:12:00.372Z</time></trkpt><trkpt lat="41.5813566" lon="1.6370595"><ele>313.4</ele><time>2026-04-27T12:12:01.373Z</time></trkpt><trkpt lat="41.5814321" lon="1.636941"><ele>312.79999999999995</ele><time>2026-04-27T12:12:02.37Z</time></trkpt><trkpt lat="41.5815048" lon="1.6368196"><ele>312.20000000000005</ele><time>2026-04-27T12:12:03.372Z</time></trkpt><trkpt lat="41.5815667" lon="1.6367193"><ele>311.6</ele><time>2026-04-27T12:12:04.359Z</time></trkpt><trkpt lat="41.5816141" lon="1.6366285"><ele>311.0</ele><time>2026-04-27T12:12:05.366Z</time></trkpt><trkpt lat="41.5816517" lon="1.6365486"><ele>311.0</ele><time>2026-04-27T12:12:06.363Z</time></trkpt><trkpt lat="41.5816859" lon="1.6364711"><ele>311.0</ele><time>2026-04-27T12:12:07.37Z</time></trkpt><trkpt lat="41.5817126" lon="1.6363923"><ele>311.0</ele><time>2026-04-27T12:12:08.369Z</time></trkpt><trkpt lat="41.5817357" lon="1.6363064"><ele>311.0</ele><time>2026-04-27T12:12:09.369Z</time></trkpt><trkpt lat="41.581765" lon="1.6362096"><ele>311.0</ele><time>2026-04-27T12:12:10.369Z</time></trkpt><trkpt lat="41.5817961" lon="1.6361073"><ele>311.0</ele><time>2026-04-27T12:12:11.369Z</time></trkpt><trkpt lat="41.5818295" lon="1.6359999"><ele>311.0</ele><time>2026-04-27T12:12:12.369Z</time></trkpt><trkpt lat="41.5818683" lon="1.635885"><ele>311.0</ele><time>2026-04-27T12:12:13.37Z</time></trkpt><trkpt lat="41.5819128" lon="1.6357643"><ele>311.0</ele><time>2026-04-27T12:12:14.371Z</time></trkpt><trkpt lat="41.5819558" lon="1.6356441"><ele>311.0</ele><time>2026-04-27T12:12:15.373Z</time></trkpt><trkpt lat="41.5819984" lon="1.6355242"><ele>311.0</ele><time>2026-04-27T12:12:16.372Z</time></trkpt><trkpt lat="41.5820415" lon="1.6354014"><ele>311.0</ele><time>2026-04-27T12:12:17.379Z</time></trkpt><trkpt lat="41.5820882" lon="1.6352712"><ele>311.0</ele><time>2026-04-27T12:12:18.373Z</time></trkpt><trkpt lat="41.5821365" lon="1.6351439"><ele>311.0</ele><time>2026-04-27T12:12:19.384Z</time></trkpt><trkpt lat="41.5821892" lon="1.6350137"><ele>311.0</ele><time>2026-04-27T12:12:20.374Z</time></trkpt><trkpt lat="41.5822383" lon="1.6348791"><ele>311.0</ele><time>2026-04-27T12:12:21.382Z</time></trkpt><trkpt lat="41.582287" lon="1.6347412"><ele>311.0</ele><time>2026-04-27T12:12:22.376Z</time></trkpt><trkpt lat="41.5823374" lon="1.6346031"><ele>312.25</ele><time>2026-04-27T12:12:23.381Z</time></trkpt><trkpt lat="41.5823906" lon="1.634459"><ele>313.5</ele><time>2026-04-27T12:12:24.373Z</time></trkpt><trkpt lat="41.5824436" lon="1.634311"><ele>314.75</ele><time>2026-04-27T12:12:25.383Z</time></trkpt><trkpt lat="41.582501" lon="1.6341574"><ele>316.0</ele><time>2026-04-27T12:12:26.373Z</time></trkpt><trkpt lat="41.5825619" lon="1.6339988"><ele>316.0</ele><time>2026-04-27T12:12:27.377Z</time></trkpt><trkpt lat="41.5826226" lon="1.6338371"><ele>316.0</ele><time>2026-04-27T12:12:28.373Z</time></trkpt><trkpt lat="41.5826826" lon="1.6336772"><ele>316.0</ele><time>2026-04-27T12:12:29.378Z</time></trkpt><trkpt lat="41.5827407" lon="1.6335189"><ele>316.0</ele><time>2026-04-27T12:12:30.37Z</time></trkpt><trkpt lat="41.5828" lon="1.6333581"><ele>317.0</ele><time>2026-04-27T12:12:31.373Z</time></trkpt><trkpt lat="41.58286" lon="1.6331944"><ele>318.0</ele><time>2026-04-27T12:12:32.368Z</time></trkpt><trkpt lat="41.5829261" lon="1.6330237"><ele>319.0</ele><time>2026-04-27T12:12:33.37Z</time></trkpt><trkpt lat="41.5829925" lon="1.6328547"><ele>320.0</ele><time>2026-04-27T12:12:34.369Z</time></trkpt><trkpt lat="41.5830633" lon="1.6326761"><ele>321.6666666666667</ele><time>2026-04-27T12:12:35.373Z</time></trkpt><trkpt lat="41.5831369" lon="1.6324875"><ele>323.3333333333333</ele><time>2026-04-27T12:12:36.365Z</time></trkpt><trkpt lat="41.5832112" lon="1.6322946"><ele>325.0</ele><time>2026-04-27T12:12:37.368Z</time></trkpt><trkpt lat="41.5832841" lon="1.6320915"><ele>327.3333333333333</ele><time>2026-04-27T12:12:38.367Z</time></trkpt><trkpt lat="41.5833627" lon="1.6318842"><ele>329.6666666666667</ele><time>2026-04-27T12:12:39.369Z</time></trkpt><trkpt lat="41.5834393" lon="1.6316728"><ele>332.0</ele><time>2026-04-27T12:12:40.365Z</time></trkpt><trkpt lat="41.5835201" lon="1.6314519"><ele>332.0</ele><time>2026-04-27T12:12:41.37Z</time></trkpt><trkpt lat="41.5836045" lon="1.6312251"><ele>332.0</ele><time>2026-04-27T12:12:42.369Z</time></trkpt><trkpt lat="41.5836916" lon="1.6309941"><ele>332.0</ele><time>2026-04-27T12:12:43.372Z</time></trkpt><trkpt lat="41.5837759" lon="1.6307595"><ele>332.33333333333337</ele><time>2026-04-27T12:12:44.372Z</time></trkpt><trkpt lat="41.5838639" lon="1.6305274"><ele>332.6666666666667</ele><time>2026-04-27T12:12:45.365Z</time></trkpt><trkpt lat="41.5839514" lon="1.6303114"><ele>333.0</ele><time>2026-04-27T12:12:46.364Z</time></trkpt><trkpt lat="41.5840327" lon="1.6300957"><ele>333.3333333333333</ele><time>2026-04-27T12:12:47.37Z</time></trkpt><trkpt lat="41.5841132" lon="1.6299048"><ele>333.66666666666663</ele><time>2026-04-27T12:12:48.374Z</time></trkpt><trkpt lat="41.5841804" lon="1.6297177"><ele>334.0</ele><time>2026-04-27T12:12:49.367Z</time></trkpt><trkpt lat="41.5842511" lon="1.6295413"><ele>334.25</ele><time>2026-04-27T12:12:50.375Z</time></trkpt><trkpt lat="41.5843181" lon="1.6293691"><ele>334.5</ele><time>2026-04-27T12:12:51.373Z</time></trkpt><trkpt lat="41.5843828" lon="1.6291979"><ele>334.75</ele><time>2026-04-27T12:12:52.376Z</time></trkpt><trkpt lat="41.584451" lon="1.6290224"><ele>335.0</ele><time>2026-04-27T12:12:53.377Z</time></trkpt><trkpt lat="41.5845189" lon="1.6288439"><ele>335.25</ele><time>2026-04-27T12:12:54.374Z</time></trkpt><trkpt lat="41.5845846" lon="1.6286605"><ele>335.5</ele><time>2026-04-27T12:12:55.372Z</time></trkpt><trkpt lat="41.5846398" lon="1.6284976"><ele>335.75</ele><time>2026-04-27T12:12:56.377Z</time></trkpt><trkpt lat="41.5846971" lon="1.6283735"><ele>336.0</ele><time>2026-04-27T12:12:57.372Z</time></trkpt><trkpt lat="41.5847401" lon="1.6282712"><ele>336.20000000000005</ele><time>2026-04-27T12:12:58.375Z</time></trkpt><trkpt lat="41.5847748" lon="1.6281797"><ele>336.40000000000003</ele><time>2026-04-27T12:12:59.376Z</time></trkpt><trkpt lat="41.5848324" lon="1.6280442"><ele>336.6</ele><time>2026-04-27T12:13:01.366Z</time></trkpt><trkpt lat="41.5848666" lon="1.627955"><ele>336.8</ele><time>2026-04-27T12:13:30.368Z</time></trkpt><trkpt lat="41.5849246" lon="1.6278658"><ele>337.0</ele><time>2026-04-27T12:13:32.369Z</time></trkpt><trkpt lat="41.5850252" lon="1.6277683"><ele>337.0</ele><time>2026-04-27T12:13:34.365Z</time></trkpt><trkpt lat="41.5850895" lon="1.6277093"><ele>337.0</ele><time>2026-04-27T12:13:35.37Z</time></trkpt><trkpt lat="41.5851333" lon="1.6276276"><ele>337.0</ele><time>2026-04-27T12:13:36.373Z</time></trkpt><trkpt lat="41.5851631" lon="1.6273907"><ele>337.0</ele><time>2026-04-27T12:13:38.37Z</time></trkpt><trkpt lat="41.5851697" lon="1.6272662"><ele>337.0</ele><time>2026-04-27T12:13:39.371Z</time></trkpt><trkpt lat="41.5851938" lon="1.6271511"><ele>337.0</ele><time>2026-04-27T12:13:40.372Z</time></trkpt><trkpt lat="41.5852262" lon="1.6270377"><ele>337.0</ele><time>2026-04-27T12:13:41.376Z</time></trkpt><trkpt lat="41.5852686" lon="1.6269203"><ele>337.0</ele><time>2026-04-27T12:13:42.373Z</time></trkpt><trkpt lat="41.5853091" lon="1.6267994"><ele>337.0</ele><time>2026-04-27T12:13:43.37Z</time></trkpt><trkpt lat="41.5853598" lon="1.6266705"><ele>337.0</ele><time>2026-04-27T12:13:44.376Z</time></trkpt><trkpt lat="41.5854163" lon="1.6265346"><ele>338.0</ele><time>2026-04-27T12:13:45.376Z</time></trkpt><trkpt lat="41.5854676" lon="1.6263935"><ele>339.0</ele><time>2026-04-27T12:13:46.371Z</time></trkpt><trkpt lat="41.5855167" lon="1.6262535"><ele>340.0</ele><time>2026-04-27T12:13:47.375Z</time></trkpt><trkpt lat="41.5855665" lon="1.6261128"><ele>341.0</ele><time>2026-04-27T12:13:48.377Z</time></trkpt><trkpt lat="41.5856182" lon="1.6259817"><ele>341.0</ele><time>2026-04-27T12:13:49.371Z</time></trkpt><trkpt lat="41.5856652" lon="1.6258605"><ele>341.0</ele><time>2026-04-27T12:13:50.376Z</time></trkpt><trkpt lat="41.5857106" lon="1.6257455"><ele>341.0</ele><time>2026-04-27T12:13:51.372Z</time></trkpt><trkpt lat="41.5857579" lon="1.6256267"><ele>341.0</ele><time>2026-04-27T12:13:52.378Z</time></trkpt><trkpt lat="41.5858077" lon="1.6255109"><ele>341.0</ele><time>2026-04-27T12:13:53.374Z</time></trkpt><trkpt lat="41.5858628" lon="1.6253908"><ele>341.1666666666667</ele><time>2026-04-27T12:13:54.373Z</time></trkpt><trkpt lat="41.5859131" lon="1.6252691"><ele>341.33333333333337</ele><time>2026-04-27T12:13:55.374Z</time></trkpt><trkpt lat="41.5859596" lon="1.6251524"><ele>341.5</ele><time>2026-04-27T12:13:56.374Z</time></trkpt><trkpt lat="41.5859991" lon="1.6250452"><ele>341.6666666666667</ele><time>2026-04-27T12:13:57.372Z</time></trkpt><trkpt lat="41.5860347" lon="1.6249449"><ele>341.8333333333333</ele><time>2026-04-27T12:13:58.377Z</time></trkpt><trkpt lat="41.586065" lon="1.6248662"><ele>342.0</ele><time>2026-04-27T12:13:59.377Z</time></trkpt><trkpt lat="41.5861158" lon="1.6247437"><ele>342.0</ele><time>2026-04-27T12:14:01.374Z</time></trkpt><trkpt lat="41.5861421" lon="1.6246656"><ele>342.0</ele><time>2026-04-27T12:14:03.373Z</time></trkpt><trkpt lat="41.5861707" lon="1.6245739"><ele>342.0</ele><time>2026-04-27T12:14:06.367Z</time></trkpt><trkpt lat="41.5861951" lon="1.6244719"><ele>342.0</ele><time>2026-04-27T12:14:30.374Z</time></trkpt><trkpt lat="41.5862339" lon="1.6243513"><ele>342.0</ele><time>2026-04-27T12:14:32.373Z</time></trkpt><trkpt lat="41.5862685" lon="1.6242507"><ele>342.0</ele><time>2026-04-27T12:14:33.373Z</time></trkpt><trkpt lat="41.5863161" lon="1.6241364"><ele>342.25</ele><time>2026-04-27T12:14:34.365Z</time></trkpt><trkpt lat="41.5863634" lon="1.6240152"><ele>342.5</ele><time>2026-04-27T12:14:35.367Z</time></trkpt><trkpt lat="41.5864151" lon="1.6238805"><ele>342.75</ele><time>2026-04-27T12:14:36.369Z</time></trkpt><trkpt lat="41.586473" lon="1.623724"><ele>343.0</ele><time>2026-04-27T12:14:37.371Z</time></trkpt><trkpt lat="41.5865377" lon="1.62355"><ele>343.3333333333333</ele><time>2026-04-27T12:14:38.37Z</time></trkpt><trkpt lat="41.586604" lon="1.6233601"><ele>343.6666666666667</ele><time>2026-04-27T12:14:39.367Z</time></trkpt><trkpt lat="41.5866768" lon="1.6231489"><ele>344.0</ele><time>2026-04-27T12:14:40.368Z</time></trkpt><trkpt lat="41.586756" lon="1.6229438"><ele>343.6666666666667</ele><time>2026-04-27T12:14:41.373Z</time></trkpt><trkpt lat="41.5868354" lon="1.6227397"><ele>343.3333333333333</ele><time>2026-04-27T12:14:42.371Z</time></trkpt><trkpt lat="41.5869144" lon="1.6225263"><ele>343.0</ele><time>2026-04-27T12:14:43.369Z</time></trkpt><trkpt lat="41.5870013" lon="1.6223122"><ele>342.66666666666663</ele><time>2026-04-27T12:14:44.368Z</time></trkpt><trkpt lat="41.5870888" lon="1.6220994"><ele>342.3333333333333</ele><time>2026-04-27T12:14:45.37Z</time></trkpt><trkpt lat="41.5871693" lon="1.6218973"><ele>342.0</ele><time>2026-04-27T12:14:46.37Z</time></trkpt><trkpt lat="41.5872401" lon="1.6217215"><ele>342.0</ele><time>2026-04-27T12:14:47.373Z</time></trkpt><trkpt lat="41.5872936" lon="1.6215782"><ele>342.0</ele><time>2026-04-27T12:14:48.379Z</time></trkpt><trkpt lat="41.5873339" lon="1.6214666"><ele>342.0</ele><time>2026-04-27T12:14:49.377Z</time></trkpt><trkpt lat="41.5873983" lon="1.6213604"><ele>342.0</ele><time>2026-04-27T12:14:51.366Z</time></trkpt><trkpt lat="41.5874475" lon="1.6212912"><ele>342.0</ele><time>2026-04-27T12:15:09.368Z</time></trkpt><trkpt lat="41.5874919" lon="1.6212162"><ele>342.1666666666667</ele><time>2026-04-27T12:15:11.369Z</time></trkpt><trkpt lat="41.5875667" lon="1.6211155"><ele>342.3333333333333</ele><time>2026-04-27T12:15:13.37Z</time></trkpt><trkpt lat="41.5876497" lon="1.6210216"><ele>342.5</ele><time>2026-04-27T12:15:15.364Z</time></trkpt><trkpt lat="41.587699" lon="1.6209663"><ele>342.66666666666663</ele><time>2026-04-27T12:15:16.364Z</time></trkpt><trkpt lat="41.5877415" lon="1.6208899"><ele>342.8333333333333</ele><time>2026-04-27T12:15:17.362Z</time></trkpt><trkpt lat="41.587764" lon="1.6207919"><ele>343.0</ele><time>2026-04-27T12:15:18.364Z</time></trkpt><trkpt lat="41.5877752" lon="1.6206772"><ele>343.0</ele><time>2026-04-27T12:15:19.365Z</time></trkpt><trkpt lat="41.5877916" lon="1.620567"><ele>343.0</ele><time>2026-04-27T12:15:20.366Z</time></trkpt><trkpt lat="41.5878183" lon="1.6204606"><ele>343.0</ele><time>2026-04-27T12:15:21.37Z</time></trkpt><trkpt lat="41.5878482" lon="1.6203561"><ele>343.0</ele><time>2026-04-27T12:15:22.367Z</time></trkpt><trkpt lat="41.5878866" lon="1.6202552"><ele>343.0</ele><time>2026-04-27T12:15:23.369Z</time></trkpt><trkpt lat="41.5879255" lon="1.6201498"><ele>343.0</ele><time>2026-04-27T12:15:24.375Z</time></trkpt><trkpt lat="41.5879664" lon="1.6200364"><ele>344.2</ele><time>2026-04-27T12:15:25.375Z</time></trkpt><trkpt lat="41.5880085" lon="1.6199247"><ele>345.4</ele><time>2026-04-27T12:15:26.373Z</time></trkpt><trkpt lat="41.588054" lon="1.6198071"><ele>346.59999999999997</ele><time>2026-04-27T12:15:27.377Z</time></trkpt><trkpt lat="41.5880983" lon="1.6196839"><ele>347.79999999999995</ele><time>2026-04-27T12:15:28.375Z</time></trkpt><trkpt lat="41.5881455" lon="1.6195581"><ele>349.0</ele><time>2026-04-27T12:15:29.381Z</time></trkpt><trkpt lat="41.5881931" lon="1.6194223"><ele>349.75</ele><time>2026-04-27T12:15:30.373Z</time></trkpt><trkpt lat="41.5882387" lon="1.6192872"><ele>350.5</ele><time>2026-04-27T12:15:31.371Z</time></trkpt><trkpt lat="41.5882897" lon="1.6191504"><ele>351.25</ele><time>2026-04-27T12:15:32.372Z</time></trkpt><trkpt lat="41.5883419" lon="1.6190134"><ele>352.0</ele><time>2026-04-27T12:15:33.373Z</time></trkpt><trkpt lat="41.5883916" lon="1.6188769"><ele>352.0</ele><time>2026-04-27T12:15:34.369Z</time></trkpt><trkpt lat="41.5884462" lon="1.6187447"><ele>352.0</ele><time>2026-04-27T12:15:35.37Z</time></trkpt><trkpt lat="41.5884951" lon="1.6186151"><ele>352.0</ele><time>2026-04-27T12:15:36.374Z</time></trkpt><trkpt lat="41.5885346" lon="1.618481"><ele>352.0</ele><time>2026-04-27T12:15:37.372Z</time></trkpt><trkpt lat="41.5885683" lon="1.6183445"><ele>352.0</ele><time>2026-04-27T12:15:38.371Z</time></trkpt><trkpt lat="41.5886029" lon="1.6182055"><ele>352.25</ele><time>2026-04-27T12:15:39.372Z</time></trkpt><trkpt lat="41.5886453" lon="1.6180667"><ele>352.5</ele><time>2026-04-27T12:15:40.369Z</time></trkpt><trkpt lat="41.5886916" lon="1.6179265"><ele>352.75</ele><time>2026-04-27T12:15:41.372Z</time></trkpt><trkpt lat="41.5887407" lon="1.6177842"><ele>353.0</ele><time>2026-04-27T12:15:42.371Z</time></trkpt><trkpt lat="41.5887862" lon="1.6176452"><ele>353.75</ele><time>2026-04-27T12:15:43.373Z</time></trkpt><trkpt lat="41.588828" lon="1.6175041"><ele>354.5</ele><time>2026-04-27T12:15:44.375Z</time></trkpt><trkpt lat="41.5888762" lon="1.6173578"><ele>355.25</ele><time>2026-04-27T12:15:45.373Z</time></trkpt><trkpt lat="41.588929" lon="1.61721"><ele>356.0</ele><time>2026-04-27T12:15:46.372Z</time></trkpt><trkpt lat="41.5889738" lon="1.6170648"><ele>356.0</ele><time>2026-04-27T12:15:47.374Z</time></trkpt><trkpt lat="41.5890293" lon="1.6169217"><ele>356.0</ele><time>2026-04-27T12:15:48.371Z</time></trkpt><trkpt lat="41.5890833" lon="1.616772"><ele>356.0</ele><time>2026-04-27T12:15:49.374Z</time></trkpt><trkpt lat="41.5891394" lon="1.6166225"><ele>356.0</ele><time>2026-04-27T12:15:50.373Z</time></trkpt><trkpt lat="41.5891949" lon="1.616471"><ele>356.0</ele><time>2026-04-27T12:15:51.368Z</time></trkpt><trkpt lat="41.5892488" lon="1.6163182"><ele>356.0</ele><time>2026-04-27T12:15:52.368Z</time></trkpt><trkpt lat="41.5893038" lon="1.616169"><ele>356.0</ele><time>2026-04-27T12:15:53.368Z</time></trkpt><trkpt lat="41.5893589" lon="1.6160258"><ele>356.0</ele><time>2026-04-27T12:15:54.368Z</time></trkpt><trkpt lat="41.589413" lon="1.6158869"><ele>355.6</ele><time>2026-04-27T12:15:55.367Z</time></trkpt><trkpt lat="41.58946" lon="1.6157482"><ele>355.20000000000005</ele><time>2026-04-27T12:15:56.369Z</time></trkpt><trkpt lat="41.5895038" lon="1.6156158"><ele>354.79999999999995</ele><time>2026-04-27T12:15:57.368Z</time></trkpt><trkpt lat="41.5895503" lon="1.6154903"><ele>354.4</ele><time>2026-04-27T12:15:58.375Z</time></trkpt><trkpt lat="41.5895993" lon="1.6153648"><ele>354.0</ele><time>2026-04-27T12:15:59.381Z</time></trkpt><trkpt lat="41.5896492" lon="1.6152413"><ele>353.79999999999995</ele><time>2026-04-27T12:16:00.375Z</time></trkpt><trkpt lat="41.589706" lon="1.6151208"><ele>353.59999999999997</ele><time>2026-04-27T12:16:01.377Z</time></trkpt><trkpt lat="41.5897639" lon="1.6149969"><ele>353.4</ele><time>2026-04-27T12:16:02.377Z</time></trkpt><trkpt lat="41.589817" lon="1.6148659"><ele>353.2</ele><time>2026-04-27T12:16:03.374Z</time></trkpt><trkpt lat="41.5898727" lon="1.6147346"><ele>353.0</ele><time>2026-04-27T12:16:04.371Z</time></trkpt><trkpt lat="41.5899283" lon="1.6146007"><ele>353.75</ele><time>2026-04-27T12:16:05.365Z</time></trkpt><trkpt lat="41.5899808" lon="1.6144639"><ele>354.5</ele><time>2026-04-27T12:16:06.371Z</time></trkpt><trkpt lat="41.59003" lon="1.614328"><ele>355.25</ele><time>2026-04-27T12:16:07.379Z</time></trkpt><trkpt lat="41.5900817" lon="1.6141911"><ele>356.0</ele><time>2026-04-27T12:16:08.372Z</time></trkpt><trkpt lat="41.5901298" lon="1.6140527"><ele>356.0</ele><time>2026-04-27T12:16:09.374Z</time></trkpt><trkpt lat="41.5901762" lon="1.6139106"><ele>356.0</ele><time>2026-04-27T12:16:10.369Z</time></trkpt><trkpt lat="41.5902264" lon="1.6137696"><ele>356.0</ele><time>2026-04-27T12:16:11.372Z</time></trkpt><trkpt lat="41.5902828" lon="1.6136286"><ele>356.0</ele><time>2026-04-27T12:16:12.371Z</time></trkpt><trkpt lat="41.5903331" lon="1.6134913"><ele>355.83333333333337</ele><time>2026-04-27T12:16:13.371Z</time></trkpt><trkpt lat="41.5903798" lon="1.6133607"><ele>355.6666666666667</ele><time>2026-04-27T12:16:14.371Z</time></trkpt><trkpt lat="41.5904184" lon="1.6132439"><ele>355.5</ele><time>2026-04-27T12:16:15.374Z</time></trkpt><trkpt lat="41.5904531" lon="1.613142"><ele>355.3333333333333</ele><time>2026-04-27T12:16:16.37Z</time></trkpt><trkpt lat="41.5904948" lon="1.6130548"><ele>355.16666666666663</ele><time>2026-04-27T12:16:17.376Z</time></trkpt><trkpt lat="41.5905519" lon="1.6129885"><ele>355.0</ele><time>2026-04-27T12:16:18.367Z</time></trkpt><trkpt lat="41.5906164" lon="1.6129288"><ele>355.0</ele><time>2026-04-27T12:16:19.37Z</time></trkpt><trkpt lat="41.5906665" lon="1.6128446"><ele>355.0</ele><time>2026-04-27T12:16:20.376Z</time></trkpt><trkpt lat="41.5906957" lon="1.6127434"><ele>355.0</ele><time>2026-04-27T12:16:21.373Z</time></trkpt><trkpt lat="41.5907036" lon="1.6126328"><ele>355.0</ele><time>2026-04-27T12:16:22.373Z</time></trkpt><trkpt lat="41.5907146" lon="1.6125284"><ele>355.0</ele><time>2026-04-27T12:16:23.37Z</time></trkpt><trkpt lat="41.5907281" lon="1.6124336"><ele>355.0</ele><time>2026-04-27T12:16:24.372Z</time></trkpt><trkpt lat="41.590756" lon="1.6123435"><ele>355.1428571428571</ele><time>2026-04-27T12:16:25.373Z</time></trkpt><trkpt lat="41.5907833" lon="1.6122616"><ele>355.2857142857143</ele><time>2026-04-27T12:16:26.378Z</time></trkpt><trkpt lat="41.5908172" lon="1.6121797"><ele>355.42857142857144</ele><time>2026-04-27T12:16:27.376Z</time></trkpt><trkpt lat="41.5908488" lon="1.6121021"><ele>355.57142857142856</ele><time>2026-04-27T12:16:28.376Z</time></trkpt><trkpt lat="41.5908775" lon="1.6120242"><ele>355.7142857142857</ele><time>2026-04-27T12:16:29.379Z</time></trkpt><trkpt lat="41.59091" lon="1.6119501"><ele>355.85714285714283</ele><time>2026-04-27T12:16:30.378Z</time></trkpt><trkpt lat="41.5909529" lon="1.6118144"><ele>356.0</ele><time>2026-04-27T12:16:32.374Z</time></trkpt><trkpt lat="41.590992" lon="1.6117028"><ele>356.0</ele><time>2026-04-27T12:16:34.37Z</time></trkpt><trkpt lat="41.5910261" lon="1.6116058"><ele>356.0</ele><time>2026-04-27T12:16:36.368Z</time></trkpt><trkpt lat="41.5910564" lon="1.611516"><ele>356.0</ele><time>2026-04-27T12:16:38.369Z</time></trkpt><trkpt lat="41.5910853" lon="1.6114403"><ele>356.0</ele><time>2026-04-27T12:16:40.372Z</time></trkpt><trkpt lat="41.5911378" lon="1.6113488"><ele>356.0</ele><time>2026-04-27T12:16:43.373Z</time></trkpt><trkpt lat="41.5911661" lon="1.6112374"><ele>356.0</ele><time>2026-04-27T12:16:49.374Z</time></trkpt><trkpt lat="41.5912003" lon="1.6111023"><ele>355.6</ele><time>2026-04-27T12:16:51.37Z</time></trkpt><trkpt lat="41.5912466" lon="1.6109364"><ele>355.20000000000005</ele><time>2026-04-27T12:16:53.371Z</time></trkpt><trkpt lat="41.591277" lon="1.6108313"><ele>354.79999999999995</ele><time>2026-04-27T12:16:54.374Z</time></trkpt><trkpt lat="41.5913016" lon="1.6107233"><ele>354.4</ele><time>2026-04-27T12:16:55.37Z</time></trkpt><trkpt lat="41.5913287" lon="1.6106109"><ele>354.0</ele><time>2026-04-27T12:16:56.371Z</time></trkpt><trkpt lat="41.5913562" lon="1.6104937"><ele>354.0</ele><time>2026-04-27T12:16:57.364Z</time></trkpt><trkpt lat="41.5913805" lon="1.6103707"><ele>354.0</ele><time>2026-04-27T12:16:58.374Z</time></trkpt><trkpt lat="41.5914066" lon="1.6102392"><ele>354.0</ele><time>2026-04-27T12:16:59.373Z</time></trkpt><trkpt lat="41.5914309" lon="1.610095"><ele>354.0</ele><time>2026-04-27T12:17:00.37Z</time></trkpt><trkpt lat="41.5914511" lon="1.6099506"><ele>354.0</ele><time>2026-04-27T12:17:01.368Z</time></trkpt><trkpt lat="41.5914698" lon="1.6098069"><ele>354.0</ele><time>2026-04-27T12:17:02.368Z</time></trkpt><trkpt lat="41.5914826" lon="1.6096695"><ele>354.0</ele><time>2026-04-27T12:17:03.369Z</time></trkpt><trkpt lat="41.5914883" lon="1.6095546"><ele>354.0</ele><time>2026-04-27T12:17:04.372Z</time></trkpt><trkpt lat="41.5914936" lon="1.60945"><ele>354.0</ele><time>2026-04-27T12:17:05.38Z</time></trkpt><trkpt lat="41.5914912" lon="1.6093462"><ele>354.0</ele><time>2026-04-27T12:17:06.369Z</time></trkpt><trkpt lat="41.5914849" lon="1.6092328"><ele>354.0</ele><time>2026-04-27T12:17:07.378Z</time></trkpt><trkpt lat="41.5914864" lon="1.6091188"><ele>353.79999999999995</ele><time>2026-04-27T12:17:08.377Z</time></trkpt><trkpt lat="41.5914891" lon="1.6090055"><ele>353.59999999999997</ele><time>2026-04-27T12:17:09.38Z</time></trkpt><trkpt lat="41.5914857" lon="1.6088861"><ele>353.4</ele><time>2026-04-27T12:17:10.379Z</time></trkpt><trkpt lat="41.5914889" lon="1.6087689"><ele>353.2</ele><time>2026-04-27T12:17:11.379Z</time></trkpt><trkpt lat="41.5915013" lon="1.608647"><ele>353.0</ele><time>2026-04-27T12:17:12.38Z</time></trkpt><trkpt lat="41.5914985" lon="1.6085164"><ele>352.0</ele><time>2026-04-27T12:17:13.374Z</time></trkpt><trkpt lat="41.5914778" lon="1.608377"><ele>351.0</ele><time>2026-04-27T12:17:14.381Z</time></trkpt><trkpt lat="41.591443" lon="1.6082141"><ele>350.0</ele><time>2026-04-27T12:17:15.37Z</time></trkpt><trkpt lat="41.5914142" lon="1.6080293"><ele>349.0</ele><time>2026-04-27T12:17:16.373Z</time></trkpt><trkpt lat="41.5913785" lon="1.6078283"><ele>346.3333333333333</ele><time>2026-04-27T12:17:17.378Z</time></trkpt><trkpt lat="41.5913392" lon="1.6076022"><ele>343.6666666666667</ele><time>2026-04-27T12:17:18.392Z</time></trkpt><trkpt lat="41.5912991" lon="1.6073846"><ele>341.0</ele><time>2026-04-27T12:17:19.376Z</time></trkpt><trkpt lat="41.5912659" lon="1.6071596"><ele>338.0</ele><time>2026-04-27T12:17:20.375Z</time></trkpt><trkpt lat="41.5912275" lon="1.606933"><ele>335.0</ele><time>2026-04-27T12:17:21.374Z</time></trkpt><trkpt lat="41.5911866" lon="1.6067162"><ele>332.0</ele><time>2026-04-27T12:17:22.382Z</time></trkpt><trkpt lat="41.5911484" lon="1.6064885"><ele>332.6666666666667</ele><time>2026-04-27T12:17:23.378Z</time></trkpt><trkpt lat="41.5911133" lon="1.6062595"><ele>333.3333333333333</ele><time>2026-04-27T12:17:24.377Z</time></trkpt><trkpt lat="41.5910767" lon="1.606039"><ele>334.0</ele><time>2026-04-27T12:17:25.378Z</time></trkpt><trkpt lat="41.5910411" lon="1.6058181"><ele>334.0</ele><time>2026-04-27T12:17:26.381Z</time></trkpt><trkpt lat="41.5909958" lon="1.6055914"><ele>334.0</ele><time>2026-04-27T12:17:27.378Z</time></trkpt><trkpt lat="41.5909483" lon="1.6053663"><ele>334.0</ele><time>2026-04-27T12:17:28.377Z</time></trkpt><trkpt lat="41.5909076" lon="1.6051305"><ele>335.3333333333333</ele><time>2026-04-27T12:17:29.381Z</time></trkpt><trkpt lat="41.5908752" lon="1.6048937"><ele>336.6666666666667</ele><time>2026-04-27T12:17:30.376Z</time></trkpt><trkpt lat="41.5908373" lon="1.6046573"><ele>338.0</ele><time>2026-04-27T12:17:31.369Z</time></trkpt><trkpt lat="41.5908033" lon="1.6044243"><ele>338.6666666666667</ele><time>2026-04-27T12:17:32.369Z</time></trkpt><trkpt lat="41.5907739" lon="1.6041909"><ele>339.3333333333333</ele><time>2026-04-27T12:17:33.369Z</time></trkpt><trkpt lat="41.5907461" lon="1.6039663"><ele>340.0</ele><time>2026-04-27T12:17:34.371Z</time></trkpt><trkpt lat="41.5907127" lon="1.6037504"><ele>341.0</ele><time>2026-04-27T12:17:35.37Z</time></trkpt><trkpt lat="41.5906771" lon="1.6035495"><ele>342.0</ele><time>2026-04-27T12:17:36.372Z</time></trkpt><trkpt lat="41.5906431" lon="1.6033616"><ele>343.0</ele><time>2026-04-27T12:17:37.371Z</time></trkpt><trkpt lat="41.590621" lon="1.6031962"><ele>344.0</ele><time>2026-04-27T12:17:38.369Z</time></trkpt><trkpt lat="41.5905986" lon="1.6030567"><ele>344.0</ele><time>2026-04-27T12:17:39.375Z</time></trkpt><trkpt lat="41.5905777" lon="1.6029143"><ele>344.0</ele><time>2026-04-27T12:17:40.386Z</time></trkpt><trkpt lat="41.5905719" lon="1.6027868"><ele>344.0</ele><time>2026-04-27T12:17:41.379Z</time></trkpt><trkpt lat="41.590579" lon="1.6026678"><ele>344.0</ele><time>2026-04-27T12:17:42.376Z</time></trkpt><trkpt lat="41.5905813" lon="1.6025494"><ele>344.0</ele><time>2026-04-27T12:17:43.383Z</time></trkpt><trkpt lat="41.5905778" lon="1.6024251"><ele>344.2</ele><time>2026-04-27T12:17:44.381Z</time></trkpt><trkpt lat="41.590562" lon="1.6022953"><ele>344.4</ele><time>2026-04-27T12:17:45.375Z</time></trkpt><trkpt lat="41.5905346" lon="1.6021647"><ele>344.6</ele><time>2026-04-27T12:17:46.375Z</time></trkpt><trkpt lat="41.5905019" lon="1.6020294"><ele>344.8</ele><time>2026-04-27T12:17:47.386Z</time></trkpt><trkpt lat="41.5904759" lon="1.6018804"><ele>345.0</ele><time>2026-04-27T12:17:48.38Z</time></trkpt><trkpt lat="41.5904521" lon="1.6017273"><ele>345.25</ele><time>2026-04-27T12:17:49.39Z</time></trkpt><trkpt lat="41.5904362" lon="1.6015677"><ele>345.5</ele><time>2026-04-27T12:17:50.379Z</time></trkpt><trkpt lat="41.5904281" lon="1.601407"><ele>345.75</ele><time>2026-04-27T12:17:51.382Z</time></trkpt><trkpt lat="41.5904229" lon="1.6012462"><ele>346.0</ele><time>2026-04-27T12:17:52.384Z</time></trkpt><trkpt lat="41.5904238" lon="1.6010855"><ele>346.0</ele><time>2026-04-27T12:17:53.386Z</time></trkpt><trkpt lat="41.5904335" lon="1.6009233"><ele>346.0</ele><time>2026-04-27T12:17:54.377Z</time></trkpt><trkpt lat="41.5904554" lon="1.6007633"><ele>346.0</ele><time>2026-04-27T12:17:55.381Z</time></trkpt><trkpt lat="41.5904831" lon="1.600593"><ele>346.0</ele><time>2026-04-27T12:17:56.379Z</time></trkpt><trkpt lat="41.5905147" lon="1.6004183"><ele>346.25</ele><time>2026-04-27T12:17:57.383Z</time></trkpt><trkpt lat="41.5905531" lon="1.600245"><ele>346.5</ele><time>2026-04-27T12:17:58.383Z</time></trkpt><trkpt lat="41.5905961" lon="1.6000717"><ele>346.75</ele><time>2026-04-27T12:17:59.383Z</time></trkpt><trkpt lat="41.5906386" lon="1.5998976"><ele>347.0</ele><time>2026-04-27T12:18:00.381Z</time></trkpt><trkpt lat="41.5906905" lon="1.599723"><ele>347.0</ele><time>2026-04-27T12:18:01.379Z</time></trkpt><trkpt lat="41.5907577" lon="1.5995543"><ele>347.0</ele><time>2026-04-27T12:18:02.376Z</time></trkpt><trkpt lat="41.5908289" lon="1.599386"><ele>347.0</ele><time>2026-04-27T12:18:03.38Z</time></trkpt><trkpt lat="41.5909038" lon="1.5992211"><ele>347.0</ele><time>2026-04-27T12:18:04.382Z</time></trkpt><trkpt lat="41.5909821" lon="1.5990716"><ele>346.75</ele><time>2026-04-27T12:18:05.388Z</time></trkpt><trkpt lat="41.5910751" lon="1.5989275"><ele>346.5</ele><time>2026-04-27T12:18:06.382Z</time></trkpt><trkpt lat="41.5911585" lon="1.5987833"><ele>346.25</ele><time>2026-04-27T12:18:07.382Z</time></trkpt><trkpt lat="41.5912515" lon="1.5986456"><ele>346.0</ele><time>2026-04-27T12:18:08.384Z</time></trkpt><trkpt lat="41.5913355" lon="1.5985127"><ele>347.25</ele><time>2026-04-27T12:18:09.382Z</time></trkpt><trkpt lat="41.5914202" lon="1.5983708"><ele>348.5</ele><time>2026-04-27T12:18:10.383Z</time></trkpt><trkpt lat="41.5915096" lon="1.59823"><ele>349.75</ele><time>2026-04-27T12:18:11.387Z</time></trkpt><trkpt lat="41.5915997" lon="1.5980842"><ele>351.0</ele><time>2026-04-27T12:18:12.383Z</time></trkpt><trkpt lat="41.5916958" lon="1.597945"><ele>351.5</ele><time>2026-04-27T12:18:13.38Z</time></trkpt><trkpt lat="41.591777" lon="1.5977982"><ele>352.0</ele><time>2026-04-27T12:18:14.382Z</time></trkpt><trkpt lat="41.59185" lon="1.5976349"><ele>352.5</ele><time>2026-04-27T12:18:15.381Z</time></trkpt><trkpt lat="41.5919053" lon="1.5974594"><ele>353.0</ele><time>2026-04-27T12:18:16.383Z</time></trkpt><trkpt lat="41.5919405" lon="1.5972763"><ele>353.0</ele><time>2026-04-27T12:18:17.381Z</time></trkpt><trkpt lat="41.5919631" lon="1.5970893"><ele>353.0</ele><time>2026-04-27T12:18:18.385Z</time></trkpt><trkpt lat="41.5919609" lon="1.5969236"><ele>353.0</ele><time>2026-04-27T12:18:19.375Z</time></trkpt><trkpt lat="41.5919525" lon="1.5967824"><ele>353.0</ele><time>2026-04-27T12:18:20.378Z</time></trkpt><trkpt lat="41.5919494" lon="1.5966519"><ele>351.79999999999995</ele><time>2026-04-27T12:18:21.381Z</time></trkpt><trkpt lat="41.591942" lon="1.5965208"><ele>350.6</ele><time>2026-04-27T12:18:22.376Z</time></trkpt><trkpt lat="41.5919367" lon="1.5963802"><ele>349.4</ele><time>2026-04-27T12:18:23.384Z</time></trkpt><trkpt lat="41.5919349" lon="1.5962305"><ele>348.20000000000005</ele><time>2026-04-27T12:18:24.374Z</time></trkpt><trkpt lat="41.5919351" lon="1.5960796"><ele>347.0</ele><time>2026-04-27T12:18:25.377Z</time></trkpt><trkpt lat="41.591943" lon="1.5959175"><ele>345.75</ele><time>2026-04-27T12:18:26.376Z</time></trkpt><trkpt lat="41.591963" lon="1.5957531"><ele>344.5</ele><time>2026-04-27T12:18:27.369Z</time></trkpt><trkpt lat="41.5919911" lon="1.595589"><ele>343.25</ele><time>2026-04-27T12:18:28.373Z</time></trkpt><trkpt lat="41.5920261" lon="1.5954209"><ele>342.0</ele><time>2026-04-27T12:18:29.382Z</time></trkpt><trkpt lat="41.5920694" lon="1.5952482"><ele>346.5</ele><time>2026-04-27T12:18:30.373Z</time></trkpt><trkpt lat="41.5921226" lon="1.5950797"><ele>351.0</ele><time>2026-04-27T12:18:31.389Z</time></trkpt><trkpt lat="41.5921751" lon="1.5949101"><ele>355.5</ele><time>2026-04-27T12:18:32.38Z</time></trkpt><trkpt lat="41.5922371" lon="1.5947454"><ele>360.0</ele><time>2026-04-27T12:18:33.385Z</time></trkpt><trkpt lat="41.5922929" lon="1.5945838"><ele>358.25</ele><time>2026-04-27T12:18:34.377Z</time></trkpt><trkpt lat="41.5923458" lon="1.5944219"><ele>356.5</ele><time>2026-04-27T12:18:35.385Z</time></trkpt><trkpt lat="41.592407" lon="1.5942635"><ele>354.75</ele><time>2026-04-27T12:18:36.379Z</time></trkpt><trkpt lat="41.5924673" lon="1.5941027"><ele>353.0</ele><time>2026-04-27T12:18:37.381Z</time></trkpt><trkpt lat="41.5925221" lon="1.5939419"><ele>353.0</ele><time>2026-04-27T12:18:38.376Z</time></trkpt><trkpt lat="41.5925751" lon="1.5937797"><ele>353.0</ele><time>2026-04-27T12:18:39.389Z</time></trkpt><trkpt lat="41.5926302" lon="1.5936212"><ele>353.0</ele><time>2026-04-27T12:18:40.378Z</time></trkpt><trkpt lat="41.5926847" lon="1.593465"><ele>353.0</ele><time>2026-04-27T12:18:41.386Z</time></trkpt><trkpt lat="41.5927309" lon="1.593308"><ele>351.75</ele><time>2026-04-27T12:18:42.384Z</time></trkpt><trkpt lat="41.5927822" lon="1.5931513"><ele>350.5</ele><time>2026-04-27T12:18:43.385Z</time></trkpt><trkpt lat="41.5928262" lon="1.5929931"><ele>349.25</ele><time>2026-04-27T12:18:44.387Z</time></trkpt><trkpt lat="41.592861" lon="1.5928325"><ele>348.0</ele><time>2026-04-27T12:18:45.386Z</time></trkpt><trkpt lat="41.5928886" lon="1.5926722"><ele>348.0</ele><time>2026-04-27T12:18:46.384Z</time></trkpt><trkpt lat="41.5929205" lon="1.5925156"><ele>348.0</ele><time>2026-04-27T12:18:47.386Z</time></trkpt><trkpt lat="41.5929508" lon="1.5923584"><ele>348.0</ele><time>2026-04-27T12:18:48.382Z</time></trkpt><trkpt lat="41.5929836" lon="1.5922059"><ele>348.0</ele><time>2026-04-27T12:18:49.387Z</time></trkpt><trkpt lat="41.593011" lon="1.5920496"><ele>349.0</ele><time>2026-04-27T12:18:50.382Z</time></trkpt><trkpt lat="41.5930371" lon="1.5918963"><ele>350.0</ele><time>2026-04-27T12:18:51.382Z</time></trkpt><trkpt lat="41.5930577" lon="1.5917393"><ele>351.0</ele><time>2026-04-27T12:18:52.386Z</time></trkpt><trkpt lat="41.5930742" lon="1.5915806"><ele>352.0</ele><time>2026-04-27T12:18:53.383Z</time></trkpt><trkpt lat="41.5930927" lon="1.5914243"><ele>352.0</ele><time>2026-04-27T12:18:54.385Z</time></trkpt><trkpt lat="41.5931095" lon="1.5912676"><ele>352.0</ele><time>2026-04-27T12:18:55.383Z</time></trkpt><trkpt lat="41.5931181" lon="1.5911076"><ele>352.0</ele><time>2026-04-27T12:18:56.382Z</time></trkpt><trkpt lat="41.5931259" lon="1.5909461"><ele>352.0</ele><time>2026-04-27T12:18:57.384Z</time></trkpt><trkpt lat="41.5931362" lon="1.5907851"><ele>353.0</ele><time>2026-04-27T12:18:58.387Z</time></trkpt><trkpt lat="41.5931425" lon="1.590622"><ele>354.0</ele><time>2026-04-27T12:18:59.385Z</time></trkpt><trkpt lat="41.5931505" lon="1.5904573"><ele>355.0</ele><time>2026-04-27T12:19:00.383Z</time></trkpt><trkpt lat="41.5931578" lon="1.5902925"><ele>356.0</ele><time>2026-04-27T12:19:01.385Z</time></trkpt><trkpt lat="41.5931672" lon="1.5901275"><ele>356.5</ele><time>2026-04-27T12:19:02.386Z</time></trkpt><trkpt lat="41.5931754" lon="1.5899639"><ele>357.0</ele><time>2026-04-27T12:19:03.383Z</time></trkpt><trkpt lat="41.5931815" lon="1.5897984"><ele>357.5</ele><time>2026-04-27T12:19:04.381Z</time></trkpt><trkpt lat="41.5931892" lon="1.5896372"><ele>358.0</ele><time>2026-04-27T12:19:05.382Z</time></trkpt><trkpt lat="41.5932017" lon="1.5894791"><ele>358.5</ele><time>2026-04-27T12:19:06.38Z</time></trkpt><trkpt lat="41.5932144" lon="1.5893165"><ele>359.0</ele><time>2026-04-27T12:19:07.382Z</time></trkpt><trkpt lat="41.5932273" lon="1.5891548"><ele>359.5</ele><time>2026-04-27T12:19:08.384Z</time></trkpt><trkpt lat="41.5932454" lon="1.588992"><ele>360.0</ele><time>2026-04-27T12:19:09.38Z</time></trkpt><trkpt lat="41.5932602" lon="1.588828"><ele>360.75</ele><time>2026-04-27T12:19:10.383Z</time></trkpt><trkpt lat="41.5932759" lon="1.5886561"><ele>361.5</ele><time>2026-04-27T12:19:11.384Z</time></trkpt><trkpt lat="41.5932931" lon="1.5884834"><ele>362.25</ele><time>2026-04-27T12:19:12.386Z</time></trkpt><trkpt lat="41.5933107" lon="1.5883085"><ele>363.0</ele><time>2026-04-27T12:19:13.384Z</time></trkpt><trkpt lat="41.5933363" lon="1.5881309"><ele>363.0</ele><time>2026-04-27T12:19:14.388Z</time></trkpt><trkpt lat="41.5933598" lon="1.5879503"><ele>363.0</ele><time>2026-04-27T12:19:15.382Z</time></trkpt><trkpt lat="41.5933875" lon="1.5877723"><ele>363.0</ele><time>2026-04-27T12:19:16.386Z</time></trkpt><trkpt lat="41.5934105" lon="1.5875928"><ele>363.0</ele><time>2026-04-27T12:19:17.385Z</time></trkpt><trkpt lat="41.59343" lon="1.5874182"><ele>363.75</ele><time>2026-04-27T12:19:18.383Z</time></trkpt><trkpt lat="41.5934545" lon="1.587243"><ele>364.5</ele><time>2026-04-27T12:19:19.383Z</time></trkpt><trkpt lat="41.5934736" lon="1.587064"><ele>365.25</ele><time>2026-04-27T12:19:20.386Z</time></trkpt><trkpt lat="41.5934952" lon="1.5868881"><ele>366.0</ele><time>2026-04-27T12:19:21.386Z</time></trkpt><trkpt lat="41.5935207" lon="1.5867166"><ele>366.5</ele><time>2026-04-27T12:19:22.386Z</time></trkpt><trkpt lat="41.5935441" lon="1.5865406"><ele>367.0</ele><time>2026-04-27T12:19:23.386Z</time></trkpt><trkpt lat="41.5935712" lon="1.5863592"><ele>367.5</ele><time>2026-04-27T12:19:24.382Z</time></trkpt><trkpt lat="41.5935938" lon="1.5861794"><ele>368.0</ele><time>2026-04-27T12:19:25.385Z</time></trkpt><trkpt lat="41.5936164" lon="1.5860095"><ele>368.5</ele><time>2026-04-27T12:19:26.384Z</time></trkpt><trkpt lat="41.5936439" lon="1.5858371"><ele>369.0</ele><time>2026-04-27T12:19:27.386Z</time></trkpt><trkpt lat="41.5936686" lon="1.5856597"><ele>369.5</ele><time>2026-04-27T12:19:28.389Z</time></trkpt><trkpt lat="41.5936952" lon="1.5854863"><ele>370.0</ele><time>2026-04-27T12:19:29.396Z</time></trkpt><trkpt lat="41.5937197" lon="1.585314"><ele>370.25</ele><time>2026-04-27T12:19:30.385Z</time></trkpt><trkpt lat="41.593744" lon="1.5851487"><ele>370.5</ele><time>2026-04-27T12:19:31.385Z</time></trkpt><trkpt lat="41.5937696" lon="1.584979"><ele>370.75</ele><time>2026-04-27T12:19:32.386Z</time></trkpt><trkpt lat="41.5937977" lon="1.5848077"><ele>371.0</ele><time>2026-04-27T12:19:33.388Z</time></trkpt><trkpt lat="41.5938229" lon="1.5846354"><ele>371.75</ele><time>2026-04-27T12:19:34.385Z</time></trkpt><trkpt lat="41.5938456" lon="1.5844617"><ele>372.5</ele><time>2026-04-27T12:19:35.387Z</time></trkpt><trkpt lat="41.5938676" lon="1.5842913"><ele>373.25</ele><time>2026-04-27T12:19:36.387Z</time></trkpt><trkpt lat="41.5938913" lon="1.584121"><ele>374.0</ele><time>2026-04-27T12:19:37.392Z</time></trkpt><trkpt lat="41.5939156" lon="1.5839475"><ele>374.0</ele><time>2026-04-27T12:19:38.388Z</time></trkpt><trkpt lat="41.5939415" lon="1.5837719"><ele>374.0</ele><time>2026-04-27T12:19:39.39Z</time></trkpt><trkpt lat="41.5939708" lon="1.5835977"><ele>374.0</ele><time>2026-04-27T12:19:40.388Z</time></trkpt><trkpt lat="41.593999" lon="1.5834224"><ele>374.0</ele><time>2026-04-27T12:19:41.387Z</time></trkpt><trkpt lat="41.5940252" lon="1.5832448"><ele>375.0</ele><time>2026-04-27T12:19:42.384Z</time></trkpt><trkpt lat="41.5940484" lon="1.5830654"><ele>376.0</ele><time>2026-04-27T12:19:43.387Z</time></trkpt><trkpt lat="41.5940729" lon="1.5828795"><ele>377.0</ele><time>2026-04-27T12:19:44.388Z</time></trkpt><trkpt lat="41.5940968" lon="1.5826969"><ele>378.0</ele><time>2026-04-27T12:19:45.386Z</time></trkpt><trkpt lat="41.5941168" lon="1.5825104"><ele>378.5</ele><time>2026-04-27T12:19:46.393Z</time></trkpt><trkpt lat="41.5941446" lon="1.5823386"><ele>379.0</ele><time>2026-04-27T12:19:47.397Z</time></trkpt><trkpt lat="41.5941743" lon="1.5821638"><ele>379.5</ele><time>2026-04-27T12:19:48.39Z</time></trkpt><trkpt lat="41.5941965" lon="1.58199"><ele>380.0</ele><time>2026-04-27T12:19:49.39Z</time></trkpt><trkpt lat="41.5942068" lon="1.5818126"><ele>380.75</ele><time>2026-04-27T12:19:50.388Z</time></trkpt><trkpt lat="41.5942294" lon="1.5816336"><ele>381.5</ele><time>2026-04-27T12:19:51.394Z</time></trkpt><trkpt lat="41.5942625" lon="1.5814606"><ele>382.25</ele><time>2026-04-27T12:19:52.391Z</time></trkpt><trkpt lat="41.5942848" lon="1.5812756"><ele>383.0</ele><time>2026-04-27T12:19:53.394Z</time></trkpt><trkpt lat="41.594309" lon="1.5810939"><ele>383.5</ele><time>2026-04-27T12:19:54.389Z</time></trkpt><trkpt lat="41.5943363" lon="1.5809119"><ele>384.0</ele><time>2026-04-27T12:19:55.395Z</time></trkpt><trkpt lat="41.5943667" lon="1.5807296"><ele>384.5</ele><time>2026-04-27T12:19:56.393Z</time></trkpt><trkpt lat="41.5943975" lon="1.5805459"><ele>385.0</ele><time>2026-04-27T12:19:57.393Z</time></trkpt><trkpt lat="41.5944244" lon="1.58036"><ele>384.75</ele><time>2026-04-27T12:19:58.393Z</time></trkpt><trkpt lat="41.5944458" lon="1.5801779"><ele>384.5</ele><time>2026-04-27T12:19:59.401Z</time></trkpt><trkpt lat="41.5944745" lon="1.5799931"><ele>384.25</ele><time>2026-04-27T12:20:00.389Z</time></trkpt><trkpt lat="41.5944977" lon="1.5798161"><ele>384.0</ele><time>2026-04-27T12:20:01.399Z</time></trkpt><trkpt lat="41.5945199" lon="1.5796332"><ele>385.5</ele><time>2026-04-27T12:20:02.389Z</time></trkpt><trkpt lat="41.5945456" lon="1.5794406"><ele>387.0</ele><time>2026-04-27T12:20:03.397Z</time></trkpt><trkpt lat="41.5945731" lon="1.5792558"><ele>388.5</ele><time>2026-04-27T12:20:04.397Z</time></trkpt><trkpt lat="41.5946026" lon="1.5790782"><ele>390.0</ele><time>2026-04-27T12:20:05.4Z</time></trkpt><trkpt lat="41.5946318" lon="1.5788998"><ele>390.0</ele><time>2026-04-27T12:20:06.391Z</time></trkpt><trkpt lat="41.5946612" lon="1.578719"><ele>390.0</ele><time>2026-04-27T12:20:07.392Z</time></trkpt><trkpt lat="41.5946842" lon="1.5785322"><ele>390.0</ele><time>2026-04-27T12:20:08.389Z</time></trkpt><trkpt lat="41.5947027" lon="1.5783519"><ele>390.0</ele><time>2026-04-27T12:20:09.396Z</time></trkpt><trkpt lat="41.5947258" lon="1.5781701"><ele>390.75</ele><time>2026-04-27T12:20:10.39Z</time></trkpt><trkpt lat="41.5947539" lon="1.5779882"><ele>391.5</ele><time>2026-04-27T12:20:11.393Z</time></trkpt><trkpt lat="41.5947819" lon="1.5778077"><ele>392.25</ele><time>2026-04-27T12:20:12.388Z</time></trkpt><trkpt lat="41.5948109" lon="1.5776317"><ele>393.0</ele><time>2026-04-27T12:20:13.39Z</time></trkpt><trkpt lat="41.594848" lon="1.5774482"><ele>394.0</ele><time>2026-04-27T12:20:14.396Z</time></trkpt><trkpt lat="41.5948863" lon="1.5772688"><ele>395.0</ele><time>2026-04-27T12:20:15.391Z</time></trkpt><trkpt lat="41.5949372" lon="1.5770945"><ele>396.0</ele><time>2026-04-27T12:20:16.386Z</time></trkpt><trkpt lat="41.5950072" lon="1.5769338"><ele>397.0</ele><time>2026-04-27T12:20:17.39Z</time></trkpt><trkpt lat="41.5950918" lon="1.5767827"><ele>397.25</ele><time>2026-04-27T12:20:18.381Z</time></trkpt><trkpt lat="41.5951919" lon="1.5766484"><ele>397.5</ele><time>2026-04-27T12:20:19.383Z</time></trkpt><trkpt lat="41.5952977" lon="1.5765328"><ele>397.75</ele><time>2026-04-27T12:20:20.384Z</time></trkpt><trkpt lat="41.5954097" lon="1.5764229"><ele>398.0</ele><time>2026-04-27T12:20:21.384Z</time></trkpt><trkpt lat="41.5955193" lon="1.5763131"><ele>398.5</ele><time>2026-04-27T12:20:22.387Z</time></trkpt><trkpt lat="41.595632" lon="1.5762237"><ele>399.0</ele><time>2026-04-27T12:20:23.382Z</time></trkpt><trkpt lat="41.5957406" lon="1.5761284"><ele>399.5</ele><time>2026-04-27T12:20:24.376Z</time></trkpt><trkpt lat="41.5958415" lon="1.5760264"><ele>400.0</ele><time>2026-04-27T12:20:25.383Z</time></trkpt><trkpt lat="41.5960108" lon="1.5757859"><ele>400.5</ele><time>2026-04-27T12:20:27.385Z</time></trkpt><trkpt lat="41.5960721" lon="1.5756476"><ele>401.0</ele><time>2026-04-27T12:20:28.39Z</time></trkpt><trkpt lat="41.5961127" lon="1.5755021"><ele>401.5</ele><time>2026-04-27T12:20:29.386Z</time></trkpt><trkpt lat="41.5961359" lon="1.5753572"><ele>402.0</ele><time>2026-04-27T12:20:30.38Z</time></trkpt><trkpt lat="41.5961496" lon="1.575221"><ele>402.1666666666667</ele><time>2026-04-27T12:20:31.379Z</time></trkpt><trkpt lat="41.5961498" lon="1.5750887"><ele>402.33333333333337</ele><time>2026-04-27T12:20:32.384Z</time></trkpt><trkpt lat="41.5961458" lon="1.5749742"><ele>402.5</ele><time>2026-04-27T12:20:33.387Z</time></trkpt><trkpt lat="41.5961486" lon="1.5748879"><ele>402.6666666666667</ele><time>2026-04-27T12:20:34.388Z</time></trkpt><trkpt lat="41.5961546" lon="1.5747553"><ele>402.83333333333337</ele><time>2026-04-27T12:20:36.386Z</time></trkpt><trkpt lat="41.5961541" lon="1.5746458"><ele>403.0</ele><time>2026-04-27T12:20:38.384Z</time></trkpt><trkpt lat="41.5961477" lon="1.574542"><ele>403.1666666666667</ele><time>2026-04-27T12:20:59.393Z</time></trkpt><trkpt lat="41.5961824" lon="1.5744288"><ele>403.33333333333337</ele><time>2026-04-27T12:21:01.38Z</time></trkpt><trkpt lat="41.5962569" lon="1.5743179"><ele>403.5</ele><time>2026-04-27T12:21:03.379Z</time></trkpt><trkpt lat="41.5963055" lon="1.5742557"><ele>403.66666666666663</ele><time>2026-04-27T12:21:04.38Z</time></trkpt><trkpt lat="41.596368" lon="1.5741915"><ele>403.8333333333333</ele><time>2026-04-27T12:21:05.384Z</time></trkpt><trkpt lat="41.5964416" lon="1.5741195"><ele>404.0</ele><time>2026-04-27T12:21:06.378Z</time></trkpt><trkpt lat="41.5965167" lon="1.5740399"><ele>404.0</ele><time>2026-04-27T12:21:07.386Z</time></trkpt><trkpt lat="41.5965899" lon="1.5739585"><ele>404.0</ele><time>2026-04-27T12:21:08.384Z</time></trkpt><trkpt lat="41.5966695" lon="1.5738765"><ele>404.0</ele><time>2026-04-27T12:21:09.391Z</time></trkpt><trkpt lat="41.5967564" lon="1.5737896"><ele>404.0</ele><time>2026-04-27T12:21:10.386Z</time></trkpt><trkpt lat="41.5968472" lon="1.5737005"><ele>404.0</ele><time>2026-04-27T12:21:11.39Z</time></trkpt><trkpt lat="41.5969357" lon="1.5736094"><ele>405.0</ele><time>2026-04-27T12:21:12.385Z</time></trkpt><trkpt lat="41.597027" lon="1.5735125"><ele>406.0</ele><time>2026-04-27T12:21:13.39Z</time></trkpt><trkpt lat="41.5971231" lon="1.5734145"><ele>407.0</ele><time>2026-04-27T12:21:14.391Z</time></trkpt><trkpt lat="41.5972203" lon="1.5733069"><ele>408.0</ele><time>2026-04-27T12:21:15.39Z</time></trkpt><trkpt lat="41.5973203" lon="1.5732035"><ele>408.0</ele><time>2026-04-27T12:21:16.387Z</time></trkpt><trkpt lat="41.5974201" lon="1.5731015"><ele>408.0</ele><time>2026-04-27T12:21:17.396Z</time></trkpt><trkpt lat="41.5975138" lon="1.5729989"><ele>408.0</ele><time>2026-04-27T12:21:18.389Z</time></trkpt><trkpt lat="41.5976054" lon="1.5728927"><ele>408.0</ele><time>2026-04-27T12:21:19.395Z</time></trkpt><trkpt lat="41.5977032" lon="1.5727967"><ele>408.0</ele><time>2026-04-27T12:21:20.387Z</time></trkpt><trkpt lat="41.5978023" lon="1.5726997"><ele>408.0</ele><time>2026-04-27T12:21:21.389Z</time></trkpt><trkpt lat="41.5978975" lon="1.5725975"><ele>408.0</ele><time>2026-04-27T12:21:22.388Z</time></trkpt><trkpt lat="41.5979948" lon="1.5724908"><ele>408.0</ele><time>2026-04-27T12:21:23.391Z</time></trkpt><trkpt lat="41.5980939" lon="1.5723889"><ele>408.5</ele><time>2026-04-27T12:21:24.389Z</time></trkpt><trkpt lat="41.5981906" lon="1.5722842"><ele>409.0</ele><time>2026-04-27T12:21:25.388Z</time></trkpt><trkpt lat="41.5982914" lon="1.5721778"><ele>409.5</ele><time>2026-04-27T12:21:26.389Z</time></trkpt><trkpt lat="41.5984004" lon="1.5720716"><ele>410.0</ele><time>2026-04-27T12:21:27.394Z</time></trkpt><trkpt lat="41.5985073" lon="1.5719607"><ele>410.0</ele><time>2026-04-27T12:21:28.394Z</time></trkpt><trkpt lat="41.5986158" lon="1.5718475"><ele>410.0</ele><time>2026-04-27T12:21:29.398Z</time></trkpt><trkpt lat="41.5987279" lon="1.5717305"><ele>410.0</ele><time>2026-04-27T12:21:30.39Z</time></trkpt><trkpt lat="41.5988371" lon="1.5716041"><ele>410.0</ele><time>2026-04-27T12:21:31.393Z</time></trkpt><trkpt lat="41.5989403" lon="1.5714837"><ele>410.25</ele><time>2026-04-27T12:21:32.375Z</time></trkpt><trkpt lat="41.5990314" lon="1.5713544"><ele>410.5</ele><time>2026-04-27T12:21:33.394Z</time></trkpt><trkpt lat="41.5991285" lon="1.5712254"><ele>410.75</ele><time>2026-04-27T12:21:34.387Z</time></trkpt><trkpt lat="41.5992151" lon="1.5710831"><ele>411.0</ele><time>2026-04-27T12:21:35.389Z</time></trkpt><trkpt lat="41.5993039" lon="1.570934"><ele>411.0</ele><time>2026-04-27T12:21:36.386Z</time></trkpt><trkpt lat="41.5993891" lon="1.5707743"><ele>411.0</ele><time>2026-04-27T12:21:37.385Z</time></trkpt><trkpt lat="41.5994697" lon="1.570612"><ele>411.0</ele><time>2026-04-27T12:21:38.383Z</time></trkpt><trkpt lat="41.5995479" lon="1.5704453"><ele>411.0</ele><time>2026-04-27T12:21:39.382Z</time></trkpt><trkpt lat="41.5996232" lon="1.5702856"><ele>412.0</ele><time>2026-04-27T12:21:40.38Z</time></trkpt><trkpt lat="41.5996874" lon="1.5701302"><ele>413.0</ele><time>2026-04-27T12:21:41.383Z</time></trkpt><trkpt lat="41.5997546" lon="1.5699615"><ele>414.0</ele><time>2026-04-27T12:21:42.386Z</time></trkpt><trkpt lat="41.5998213" lon="1.5698015"><ele>415.0</ele><time>2026-04-27T12:21:43.385Z</time></trkpt><trkpt lat="41.5998755" lon="1.569635"><ele>415.0</ele><time>2026-04-27T12:21:44.385Z</time></trkpt><trkpt lat="41.5999196" lon="1.5694623"><ele>415.0</ele><time>2026-04-27T12:21:45.387Z</time></trkpt><trkpt lat="41.5999609" lon="1.5692847"><ele>415.0</ele><time>2026-04-27T12:21:46.382Z</time></trkpt><trkpt lat="41.5999994" lon="1.5691103"><ele>415.0</ele><time>2026-04-27T12:21:47.391Z</time></trkpt><trkpt lat="41.6000363" lon="1.5689264"><ele>415.0</ele><time>2026-04-27T12:21:48.386Z</time></trkpt><trkpt lat="41.600059" lon="1.5687346"><ele>415.0</ele><time>2026-04-27T12:21:49.39Z</time></trkpt><trkpt lat="41.6000785" lon="1.5685484"><ele>415.0</ele><time>2026-04-27T12:21:50.39Z</time></trkpt><trkpt lat="41.6000967" lon="1.5683622"><ele>415.0</ele><time>2026-04-27T12:21:51.387Z</time></trkpt><trkpt lat="41.6001127" lon="1.5681811"><ele>415.5</ele><time>2026-04-27T12:21:52.384Z</time></trkpt><trkpt lat="41.6001396" lon="1.5679952"><ele>416.0</ele><time>2026-04-27T12:21:53.385Z</time></trkpt><trkpt lat="41.6001552" lon="1.5678036"><ele>416.5</ele><time>2026-04-27T12:21:54.386Z</time></trkpt><trkpt lat="41.6001551" lon="1.5676038"><ele>417.0</ele><time>2026-04-27T12:21:55.386Z</time></trkpt><trkpt lat="41.6001562" lon="1.5674087"><ele>417.0</ele><time>2026-04-27T12:21:56.382Z</time></trkpt><trkpt lat="41.6001594" lon="1.5672202"><ele>417.0</ele><time>2026-04-27T12:21:57.385Z</time></trkpt><trkpt lat="41.6001498" lon="1.567022"><ele>417.0</ele><time>2026-04-27T12:21:58.389Z</time></trkpt><trkpt lat="41.6001432" lon="1.5668245"><ele>417.0</ele><time>2026-04-27T12:21:59.394Z</time></trkpt><trkpt lat="41.6001191" lon="1.5666338"><ele>417.5</ele><time>2026-04-27T12:22:00.384Z</time></trkpt><trkpt lat="41.6000907" lon="1.5664495"><ele>418.0</ele><time>2026-04-27T12:22:01.383Z</time></trkpt><trkpt lat="41.6000577" lon="1.5662548"><ele>418.5</ele><time>2026-04-27T12:22:02.381Z</time></trkpt><trkpt lat="41.60003" lon="1.5660692"><ele>419.0</ele><time>2026-04-27T12:22:03.383Z</time></trkpt><trkpt lat="41.5999878" lon="1.5658832"><ele>419.5</ele><time>2026-04-27T12:22:04.379Z</time></trkpt><trkpt lat="41.5999498" lon="1.5657006"><ele>420.0</ele><time>2026-04-27T12:22:05.383Z</time></trkpt><trkpt lat="41.5998931" lon="1.5655218"><ele>420.5</ele><time>2026-04-27T12:22:06.379Z</time></trkpt><trkpt lat="41.5998426" lon="1.5653355"><ele>421.0</ele><time>2026-04-27T12:22:07.384Z</time></trkpt><trkpt lat="41.5997905" lon="1.5651621"><ele>421.25</ele><time>2026-04-27T12:22:08.377Z</time></trkpt><trkpt lat="41.5997309" lon="1.5649858"><ele>421.5</ele><time>2026-04-27T12:22:09.377Z</time></trkpt><trkpt lat="41.5996689" lon="1.564806"><ele>421.75</ele><time>2026-04-27T12:22:10.373Z</time></trkpt><trkpt lat="41.5996141" lon="1.5646296"><ele>422.0</ele><time>2026-04-27T12:22:11.374Z</time></trkpt><trkpt lat="41.5995606" lon="1.5644593"><ele>422.0</ele><time>2026-04-27T12:22:12.379Z</time></trkpt><trkpt lat="41.5995124" lon="1.564288"><ele>422.0</ele><time>2026-04-27T12:22:13.374Z</time></trkpt><trkpt lat="41.5994607" lon="1.5641088"><ele>422.0</ele><time>2026-04-27T12:22:14.377Z</time></trkpt><trkpt lat="41.5994146" lon="1.5639407"><ele>422.0</ele><time>2026-04-27T12:22:15.382Z</time></trkpt><trkpt lat="41.5993548" lon="1.563772"><ele>421.75</ele><time>2026-04-27T12:22:16.379Z</time></trkpt><trkpt lat="41.599294" lon="1.5635996"><ele>421.5</ele><time>2026-04-27T12:22:17.385Z</time></trkpt><trkpt lat="41.5992413" lon="1.5634352"><ele>421.25</ele><time>2026-04-27T12:22:18.381Z</time></trkpt><trkpt lat="41.5991896" lon="1.5632552"><ele>421.0</ele><time>2026-04-27T12:22:19.381Z</time></trkpt><trkpt lat="41.5991419" lon="1.5630786"><ele>421.0</ele><time>2026-04-27T12:22:20.38Z</time></trkpt><trkpt lat="41.5990882" lon="1.5629013"><ele>421.0</ele><time>2026-04-27T12:22:21.386Z</time></trkpt><trkpt lat="41.5990339" lon="1.5627228"><ele>421.0</ele><time>2026-04-27T12:22:22.38Z</time></trkpt><trkpt lat="41.5989768" lon="1.5625457"><ele>421.0</ele><time>2026-04-27T12:22:23.381Z</time></trkpt><trkpt lat="41.5989097" lon="1.5623631"><ele>421.75</ele><time>2026-04-27T12:22:24.379Z</time></trkpt><trkpt lat="41.5988502" lon="1.5621799"><ele>422.5</ele><time>2026-04-27T12:22:25.381Z</time></trkpt><trkpt lat="41.5987873" lon="1.5619947"><ele>423.25</ele><time>2026-04-27T12:22:26.379Z</time></trkpt><trkpt lat="41.5987271" lon="1.5618147"><ele>424.0</ele><time>2026-04-27T12:22:27.382Z</time></trkpt><trkpt lat="41.5986688" lon="1.561631"><ele>421.5</ele><time>2026-04-27T12:22:28.381Z</time></trkpt><trkpt lat="41.5986081" lon="1.5614474"><ele>419.0</ele><time>2026-04-27T12:22:29.383Z</time></trkpt><trkpt lat="41.5985566" lon="1.5612673"><ele>416.5</ele><time>2026-04-27T12:22:30.379Z</time></trkpt><trkpt lat="41.5985016" lon="1.5610776"><ele>414.0</ele><time>2026-04-27T12:22:31.385Z</time></trkpt><trkpt lat="41.5984341" lon="1.5608869"><ele>413.5</ele><time>2026-04-27T12:22:32.381Z</time></trkpt><trkpt lat="41.5983776" lon="1.5606995"><ele>413.0</ele><time>2026-04-27T12:22:33.383Z</time></trkpt><trkpt lat="41.5983241" lon="1.560511"><ele>412.5</ele><time>2026-04-27T12:22:34.38Z</time></trkpt><trkpt lat="41.5982731" lon="1.5603312"><ele>412.0</ele><time>2026-04-27T12:22:35.384Z</time></trkpt><trkpt lat="41.5982287" lon="1.5601403"><ele>412.0</ele><time>2026-04-27T12:22:36.381Z</time></trkpt><trkpt lat="41.5981909" lon="1.5599503"><ele>412.0</ele><time>2026-04-27T12:22:37.381Z</time></trkpt><trkpt lat="41.598158" lon="1.5597558"><ele>412.0</ele><time>2026-04-27T12:22:38.381Z</time></trkpt><trkpt lat="41.598131" lon="1.5595489"><ele>412.5</ele><time>2026-04-27T12:22:39.385Z</time></trkpt><trkpt lat="41.5981075" lon="1.559344"><ele>413.0</ele><time>2026-04-27T12:22:40.378Z</time></trkpt><trkpt lat="41.5981004" lon="1.5591456"><ele>413.5</ele><time>2026-04-27T12:22:41.382Z</time></trkpt><trkpt lat="41.5980999" lon="1.5589513"><ele>414.0</ele><time>2026-04-27T12:22:42.384Z</time></trkpt><trkpt lat="41.5981103" lon="1.558754"><ele>414.0</ele><time>2026-04-27T12:22:43.387Z</time></trkpt><trkpt lat="41.5981307" lon="1.55855"><ele>414.0</ele><time>2026-04-27T12:22:44.382Z</time></trkpt><trkpt lat="41.598162" lon="1.5583588"><ele>414.0</ele><time>2026-04-27T12:22:45.383Z</time></trkpt><trkpt lat="41.5981981" lon="1.5581753"><ele>414.0</ele><time>2026-04-27T12:22:46.383Z</time></trkpt><trkpt lat="41.5982459" lon="1.5579952"><ele>413.75</ele><time>2026-04-27T12:22:47.385Z</time></trkpt><trkpt lat="41.5983028" lon="1.5578202"><ele>413.5</ele><time>2026-04-27T12:22:48.383Z</time></trkpt><trkpt lat="41.5983644" lon="1.5576412"><ele>413.25</ele><time>2026-04-27T12:22:49.391Z</time></trkpt><trkpt lat="41.5984336" lon="1.5574614"><ele>413.0</ele><time>2026-04-27T12:22:50.382Z</time></trkpt><trkpt lat="41.5985202" lon="1.5572915"><ele>413.0</ele><time>2026-04-27T12:22:51.389Z</time></trkpt><trkpt lat="41.5986031" lon="1.5571335"><ele>413.0</ele><time>2026-04-27T12:22:52.387Z</time></trkpt><trkpt lat="41.598796" lon="1.5568273"><ele>413.0</ele><time>2026-04-27T12:22:54.378Z</time></trkpt><trkpt lat="41.5989054" lon="1.5566821"><ele>412.0</ele><time>2026-04-27T12:22:55.377Z</time></trkpt><trkpt lat="41.5990254" lon="1.5565374"><ele>411.0</ele><time>2026-04-27T12:22:56.385Z</time></trkpt><trkpt lat="41.5992755" lon="1.5562606"><ele>408.66666666666663</ele><time>2026-04-27T12:22:58.383Z</time></trkpt><trkpt lat="41.5993969" lon="1.556116"><ele>406.3333333333333</ele><time>2026-04-27T12:22:59.386Z</time></trkpt><trkpt lat="41.5995174" lon="1.5559622"><ele>404.0</ele><time>2026-04-27T12:23:00.379Z</time></trkpt><trkpt lat="41.5996363" lon="1.5558145"><ele>410.0</ele><time>2026-04-27T12:23:01.378Z</time></trkpt><trkpt lat="41.5997606" lon="1.555669"><ele>416.0</ele><time>2026-04-27T12:23:02.374Z</time></trkpt><trkpt lat="41.5998895" lon="1.5555169"><ele>422.0</ele><time>2026-04-27T12:23:03.37Z</time></trkpt><trkpt lat="41.6000084" lon="1.5553842"><ele>417.3333333333333</ele><time>2026-04-27T12:23:04.373Z</time></trkpt><trkpt lat="41.600129" lon="1.5552379"><ele>412.66666666666663</ele><time>2026-04-27T12:23:05.373Z</time></trkpt><trkpt lat="41.6002313" lon="1.5550869"><ele>408.0</ele><time>2026-04-27T12:23:06.37Z</time></trkpt><trkpt lat="41.6003302" lon="1.5549436"><ele>408.0</ele><time>2026-04-27T12:23:07.37Z</time></trkpt><trkpt lat="41.6004213" lon="1.554775"><ele>408.0</ele><time>2026-04-27T12:23:08.366Z</time></trkpt><trkpt lat="41.600515" lon="1.554596"><ele>408.0</ele><time>2026-04-27T12:23:09.368Z</time></trkpt><trkpt lat="41.6005789" lon="1.5544118"><ele>408.0</ele><time>2026-04-27T12:23:10.367Z</time></trkpt><trkpt lat="41.6006327" lon="1.5542115"><ele>408.0</ele><time>2026-04-27T12:23:11.37Z</time></trkpt><trkpt lat="41.6006837" lon="1.5540051"><ele>408.0</ele><time>2026-04-27T12:23:12.375Z</time></trkpt><trkpt lat="41.6007244" lon="1.5537868"><ele>407.66666666666663</ele><time>2026-04-27T12:23:13.37Z</time></trkpt><trkpt lat="41.6007617" lon="1.5535762"><ele>407.3333333333333</ele><time>2026-04-27T12:23:14.377Z</time></trkpt><trkpt lat="41.6007857" lon="1.5533802"><ele>407.0</ele><time>2026-04-27T12:23:15.381Z</time></trkpt><trkpt lat="41.6008018" lon="1.5531908"><ele>407.0</ele><time>2026-04-27T12:23:16.379Z</time></trkpt><trkpt lat="41.6008198" lon="1.553012"><ele>407.0</ele><time>2026-04-27T12:23:17.381Z</time></trkpt><trkpt lat="41.6008274" lon="1.552836"><ele>407.0</ele><time>2026-04-27T12:23:18.376Z</time></trkpt><trkpt lat="41.6008426" lon="1.5526665"><ele>407.0</ele><time>2026-04-27T12:23:19.377Z</time></trkpt><trkpt lat="41.6008582" lon="1.5524929"><ele>406.5</ele><time>2026-04-27T12:23:20.382Z</time></trkpt><trkpt lat="41.6008757" lon="1.5523228"><ele>406.0</ele><time>2026-04-27T12:23:21.388Z</time></trkpt><trkpt lat="41.6009019" lon="1.5521703"><ele>405.5</ele><time>2026-04-27T12:23:22.38Z</time></trkpt><trkpt lat="41.6009283" lon="1.5520227"><ele>405.0</ele><time>2026-04-27T12:23:23.385Z</time></trkpt><trkpt lat="41.6009454" lon="1.5518733"><ele>404.8</ele><time>2026-04-27T12:23:24.381Z</time></trkpt><trkpt lat="41.6009624" lon="1.5517331"><ele>404.6</ele><time>2026-04-27T12:23:25.384Z</time></trkpt><trkpt lat="41.6009835" lon="1.551598"><ele>404.4</ele><time>2026-04-27T12:23:26.38Z</time></trkpt><trkpt lat="41.601004" lon="1.5514725"><ele>404.2</ele><time>2026-04-27T12:23:27.389Z</time></trkpt><trkpt lat="41.6010196" lon="1.5513619"><ele>404.0</ele><time>2026-04-27T12:23:28.383Z</time></trkpt><trkpt lat="41.6010377" lon="1.5512633"><ele>403.16666666666663</ele><time>2026-04-27T12:23:29.391Z</time></trkpt><trkpt lat="41.6010508" lon="1.5511685"><ele>402.3333333333333</ele><time>2026-04-27T12:23:30.386Z</time></trkpt><trkpt lat="41.6010674" lon="1.5510758"><ele>401.5</ele><time>2026-04-27T12:23:31.381Z</time></trkpt><trkpt lat="41.6010813" lon="1.5509757"><ele>400.66666666666663</ele><time>2026-04-27T12:23:32.381Z</time></trkpt><trkpt lat="41.6010931" lon="1.5508681"><ele>399.8333333333333</ele><time>2026-04-27T12:23:33.382Z</time></trkpt><trkpt lat="41.6011072" lon="1.550753"><ele>399.0</ele><time>2026-04-27T12:23:34.377Z</time></trkpt><trkpt lat="41.6011203" lon="1.5506349"><ele>399.0</ele><time>2026-04-27T12:23:35.38Z</time></trkpt><trkpt lat="41.6011296" lon="1.5505064"><ele>399.0</ele><time>2026-04-27T12:23:36.377Z</time></trkpt><trkpt lat="41.6011359" lon="1.5503749"><ele>399.0</ele><time>2026-04-27T12:23:37.383Z</time></trkpt><trkpt lat="41.6011409" lon="1.550242"><ele>399.0</ele><time>2026-04-27T12:23:38.378Z</time></trkpt><trkpt lat="41.6011425" lon="1.5501049"><ele>399.0</ele><time>2026-04-27T12:23:39.383Z</time></trkpt><trkpt lat="41.6011448" lon="1.5499683"><ele>398.6666666666667</ele><time>2026-04-27T12:23:40.38Z</time></trkpt><trkpt lat="41.6011433" lon="1.549835"><ele>398.33333333333337</ele><time>2026-04-27T12:23:41.383Z</time></trkpt><trkpt lat="41.6011411" lon="1.5497167"><ele>398.0</ele><time>2026-04-27T12:23:42.381Z</time></trkpt><trkpt lat="41.6011387" lon="1.5496143"><ele>397.6666666666667</ele><time>2026-04-27T12:23:43.385Z</time></trkpt><trkpt lat="41.601137" lon="1.5495265"><ele>397.33333333333337</ele><time>2026-04-27T12:23:44.386Z</time></trkpt><trkpt lat="41.6011309" lon="1.5494345"><ele>397.0</ele><time>2026-04-27T12:23:45.388Z</time></trkpt><trkpt lat="41.6011273" lon="1.5493435"><ele>396.50000000000006</ele><time>2026-04-27T12:23:46.382Z</time></trkpt><trkpt lat="41.6011231" lon="1.5492486"><ele>396.0</ele><time>2026-04-27T12:23:47.386Z</time></trkpt><trkpt lat="41.6011212" lon="1.5491504"><ele>395.5</ele><time>2026-04-27T12:23:48.382Z</time></trkpt><trkpt lat="41.6011215" lon="1.5490478"><ele>395.0</ele><time>2026-04-27T12:23:49.381Z</time></trkpt><trkpt lat="41.6011195" lon="1.5489361"><ele>394.50000000000006</ele><time>2026-04-27T12:23:50.382Z</time></trkpt><trkpt lat="41.6011187" lon="1.5488226"><ele>394.0</ele><time>2026-04-27T12:23:51.382Z</time></trkpt><trkpt lat="41.6011158" lon="1.5486998"><ele>393.79999999999995</ele><time>2026-04-27T12:23:52.381Z</time></trkpt><trkpt lat="41.6011178" lon="1.5485762"><ele>393.59999999999997</ele><time>2026-04-27T12:23:53.382Z</time></trkpt><trkpt lat="41.6011177" lon="1.5484459"><ele>393.4</ele><time>2026-04-27T12:23:54.38Z</time></trkpt><trkpt lat="41.60112" lon="1.5483138"><ele>393.2</ele><time>2026-04-27T12:23:55.379Z</time></trkpt><trkpt lat="41.6011233" lon="1.5481723"><ele>393.0</ele><time>2026-04-27T12:23:56.377Z</time></trkpt><trkpt lat="41.6011341" lon="1.5480328"><ele>393.0</ele><time>2026-04-27T12:23:57.381Z</time></trkpt><trkpt lat="41.6011401" lon="1.5478895"><ele>393.0</ele><time>2026-04-27T12:23:58.383Z</time></trkpt><trkpt lat="41.6011466" lon="1.5477517"><ele>393.0</ele><time>2026-04-27T12:23:59.381Z</time></trkpt><trkpt lat="41.6011472" lon="1.5476144"><ele>393.0</ele><time>2026-04-27T12:24:00.376Z</time></trkpt><trkpt lat="41.6011481" lon="1.5474819"><ele>393.0</ele><time>2026-04-27T12:24:01.375Z</time></trkpt><trkpt lat="41.6011391" lon="1.547347"><ele>393.0</ele><time>2026-04-27T12:24:02.37Z</time></trkpt><trkpt lat="41.6011287" lon="1.5472138"><ele>393.0</ele><time>2026-04-27T12:24:03.373Z</time></trkpt><trkpt lat="41.6011212" lon="1.5470823"><ele>393.0</ele><time>2026-04-27T12:24:04.368Z</time></trkpt><trkpt lat="41.6011126" lon="1.5469575"><ele>393.0</ele><time>2026-04-27T12:24:05.37Z</time></trkpt><trkpt lat="41.6010915" lon="1.5468432"><ele>393.0</ele><time>2026-04-27T12:24:06.372Z</time></trkpt><trkpt lat="41.6010788" lon="1.5467364"><ele>393.0</ele><time>2026-04-27T12:24:07.371Z</time></trkpt><trkpt lat="41.6010622" lon="1.5466385"><ele>393.0</ele><time>2026-04-27T12:24:08.372Z</time></trkpt><trkpt lat="41.6010382" lon="1.5465387"><ele>393.0</ele><time>2026-04-27T12:24:09.375Z</time></trkpt><trkpt lat="41.6010187" lon="1.5464364"><ele>393.0</ele><time>2026-04-27T12:24:10.367Z</time></trkpt><trkpt lat="41.6009897" lon="1.5463266"><ele>393.0</ele><time>2026-04-27T12:24:11.376Z</time></trkpt><trkpt lat="41.6009595" lon="1.5462152"><ele>393.0</ele><time>2026-04-27T12:24:12.373Z</time></trkpt><trkpt lat="41.6009303" lon="1.5461114"><ele>393.0</ele><time>2026-04-27T12:24:13.373Z</time></trkpt><trkpt lat="41.600912" lon="1.5460216"><ele>393.0</ele><time>2026-04-27T12:24:14.373Z</time></trkpt><trkpt lat="41.6008716" lon="1.545863"><ele>393.0</ele><time>2026-04-27T12:24:16.374Z</time></trkpt><trkpt lat="41.6008482" lon="1.5457757"><ele>393.0</ele><time>2026-04-27T12:24:17.381Z</time></trkpt><trkpt lat="41.6008303" lon="1.5456755"><ele>393.0</ele><time>2026-04-27T12:24:18.376Z</time></trkpt><trkpt lat="41.6008148" lon="1.5455626"><ele>393.0</ele><time>2026-04-27T12:24:19.38Z</time></trkpt><trkpt lat="41.6008009" lon="1.5454347"><ele>391.59999999999997</ele><time>2026-04-27T12:24:20.376Z</time></trkpt><trkpt lat="41.6007874" lon="1.5452928"><ele>390.2</ele><time>2026-04-27T12:24:21.385Z</time></trkpt><trkpt lat="41.6007856" lon="1.5451436"><ele>388.8</ele><time>2026-04-27T12:24:22.378Z</time></trkpt><trkpt lat="41.6007829" lon="1.5449894"><ele>387.4</ele><time>2026-04-27T12:24:23.379Z</time></trkpt><trkpt lat="41.6007977" lon="1.5448447"><ele>386.0</ele><time>2026-04-27T12:24:24.377Z</time></trkpt><trkpt lat="41.6008156" lon="1.544724"><ele>385.99999999999994</ele><time>2026-04-27T12:24:25.379Z</time></trkpt><trkpt lat="41.6008306" lon="1.5446142"><ele>386.0</ele><time>2026-04-27T12:24:26.38Z</time></trkpt><trkpt lat="41.6008439" lon="1.5445118"><ele>386.0</ele><time>2026-04-27T12:24:27.387Z</time></trkpt><trkpt lat="41.6008587" lon="1.5444071"><ele>386.0</ele><time>2026-04-27T12:24:28.382Z</time></trkpt><trkpt lat="41.6008742" lon="1.5442912"><ele>385.99999999999994</ele><time>2026-04-27T12:24:29.387Z</time></trkpt><trkpt lat="41.6008939" lon="1.5441605"><ele>386.0</ele><time>2026-04-27T12:24:30.378Z</time></trkpt><trkpt lat="41.6009135" lon="1.5440169"><ele>384.25</ele><time>2026-04-27T12:24:31.377Z</time></trkpt><trkpt lat="41.6009316" lon="1.5438677"><ele>382.5</ele><time>2026-04-27T12:24:32.377Z</time></trkpt><trkpt lat="41.6009527" lon="1.5437162"><ele>380.75</ele><time>2026-04-27T12:24:33.388Z</time></trkpt><trkpt lat="41.6009719" lon="1.5435609"><ele>379.0</ele><time>2026-04-27T12:24:34.383Z</time></trkpt><trkpt lat="41.6009975" lon="1.5434034"><ele>377.75</ele><time>2026-04-27T12:24:35.381Z</time></trkpt><trkpt lat="41.6010202" lon="1.5432358"><ele>376.5</ele><time>2026-04-27T12:24:36.379Z</time></trkpt><trkpt lat="41.6010476" lon="1.5430725"><ele>375.25</ele><time>2026-04-27T12:24:37.379Z</time></trkpt><trkpt lat="41.6010686" lon="1.5429056"><ele>374.0</ele><time>2026-04-27T12:24:38.378Z</time></trkpt><trkpt lat="41.6010938" lon="1.5427452"><ele>373.25</ele><time>2026-04-27T12:24:39.385Z</time></trkpt><trkpt lat="41.6011234" lon="1.5425785"><ele>372.5</ele><time>2026-04-27T12:24:40.379Z</time></trkpt><trkpt lat="41.601151" lon="1.5424127"><ele>371.75</ele><time>2026-04-27T12:24:41.38Z</time></trkpt><trkpt lat="41.6011761" lon="1.5422441"><ele>371.0</ele><time>2026-04-27T12:24:42.384Z</time></trkpt><trkpt lat="41.6012034" lon="1.5420766"><ele>372.0</ele><time>2026-04-27T12:24:43.381Z</time></trkpt><trkpt lat="41.6012336" lon="1.5419102"><ele>373.0</ele><time>2026-04-27T12:24:44.381Z</time></trkpt><trkpt lat="41.6012694" lon="1.5417404"><ele>374.0</ele><time>2026-04-27T12:24:45.383Z</time></trkpt><trkpt lat="41.6013054" lon="1.5415674"><ele>375.0</ele><time>2026-04-27T12:24:46.378Z</time></trkpt><trkpt lat="41.6013469" lon="1.5413961"><ele>375.0</ele><time>2026-04-27T12:24:47.385Z</time></trkpt><trkpt lat="41.6013914" lon="1.5412385"><ele>375.0</ele><time>2026-04-27T12:24:48.378Z</time></trkpt><trkpt lat="41.6014443" lon="1.5410911"><ele>375.0</ele><time>2026-04-27T12:24:49.382Z</time></trkpt><trkpt lat="41.6015006" lon="1.5409524"><ele>375.0</ele><time>2026-04-27T12:24:50.38Z</time></trkpt><trkpt lat="41.6015594" lon="1.5408192"><ele>375.2</ele><time>2026-04-27T12:24:51.382Z</time></trkpt><trkpt lat="41.6016205" lon="1.5406947"><ele>375.4</ele><time>2026-04-27T12:24:52.382Z</time></trkpt><trkpt lat="41.6016812" lon="1.5405818"><ele>375.6</ele><time>2026-04-27T12:24:53.381Z</time></trkpt><trkpt lat="41.6017446" lon="1.5404744"><ele>375.8</ele><time>2026-04-27T12:24:54.379Z</time></trkpt><trkpt lat="41.6018135" lon="1.5403807"><ele>376.0</ele><time>2026-04-27T12:24:55.378Z</time></trkpt><trkpt lat="41.6018879" lon="1.5402984"><ele>376.0</ele><time>2026-04-27T12:24:56.384Z</time></trkpt><trkpt lat="41.6019741" lon="1.5402218"><ele>376.0</ele><time>2026-04-27T12:24:57.381Z</time></trkpt><trkpt lat="41.6020658" lon="1.5401547"><ele>376.0</ele><time>2026-04-27T12:24:58.377Z</time></trkpt><trkpt lat="41.6021625" lon="1.5400935"><ele>376.0</ele><time>2026-04-27T12:24:59.381Z</time></trkpt><trkpt lat="41.602263" lon="1.5400408"><ele>376.0</ele><time>2026-04-27T12:25:00.377Z</time></trkpt><trkpt lat="41.6023693" lon="1.5399987"><ele>377.66666666666663</ele><time>2026-04-27T12:25:01.376Z</time></trkpt><trkpt lat="41.6024851" lon="1.5399661"><ele>379.3333333333333</ele><time>2026-04-27T12:25:02.373Z</time></trkpt><trkpt lat="41.6027321" lon="1.5399463"><ele>381.0</ele><time>2026-04-27T12:25:04.372Z</time></trkpt><trkpt lat="41.6028598" lon="1.53995"><ele>383.25</ele><time>2026-04-27T12:25:05.377Z</time></trkpt><trkpt lat="41.602987" lon="1.5399578"><ele>385.5</ele><time>2026-04-27T12:25:06.377Z</time></trkpt><trkpt lat="41.6031087" lon="1.5399724"><ele>387.75</ele><time>2026-04-27T12:25:07.377Z</time></trkpt><trkpt lat="41.6032226" lon="1.5399865"><ele>390.0</ele><time>2026-04-27T12:25:08.376Z</time></trkpt><trkpt lat="41.6033362" lon="1.540003"><ele>390.0</ele><time>2026-04-27T12:25:09.374Z</time></trkpt><trkpt lat="41.6034334" lon="1.5400089"><ele>390.0</ele><time>2026-04-27T12:25:10.375Z</time></trkpt><trkpt lat="41.6035259" lon="1.5399989"><ele>390.0</ele><time>2026-04-27T12:25:11.378Z</time></trkpt><trkpt lat="41.6036112" lon="1.5399594"><ele>390.0</ele><time>2026-04-27T12:25:12.379Z</time></trkpt><trkpt lat="41.6036809" lon="1.5398952"><ele>390.0</ele><time>2026-04-27T12:25:13.375Z</time></trkpt><trkpt lat="41.6037389" lon="1.5398164"><ele>390.0</ele><time>2026-04-27T12:25:14.376Z</time></trkpt><trkpt lat="41.6037885" lon="1.5397237"><ele>390.1666666666667</ele><time>2026-04-27T12:25:15.381Z</time></trkpt><trkpt lat="41.6038276" lon="1.5396243"><ele>390.33333333333337</ele><time>2026-04-27T12:25:16.374Z</time></trkpt><trkpt lat="41.603852" lon="1.5395265"><ele>390.5</ele><time>2026-04-27T12:25:17.38Z</time></trkpt><trkpt lat="41.6038808" lon="1.5394266"><ele>390.6666666666667</ele><time>2026-04-27T12:25:18.376Z</time></trkpt><trkpt lat="41.6039248" lon="1.539349"><ele>390.83333333333337</ele><time>2026-04-27T12:25:19.381Z</time></trkpt><trkpt lat="41.6039856" lon="1.5393132"><ele>391.0</ele><time>2026-04-27T12:25:20.382Z</time></trkpt><trkpt lat="41.6040589" lon="1.5393209"><ele>391.0</ele><time>2026-04-27T12:25:21.378Z</time></trkpt><trkpt lat="41.6041323" lon="1.5393664"><ele>391.0</ele><time>2026-04-27T12:25:22.371Z</time></trkpt><trkpt lat="41.6042061" lon="1.5394452"><ele>391.0</ele><time>2026-04-27T12:25:23.379Z</time></trkpt><trkpt lat="41.6042787" lon="1.5395224"><ele>391.0</ele><time>2026-04-27T12:25:24.379Z</time></trkpt><trkpt lat="41.6043586" lon="1.5395903"><ele>391.0</ele><time>2026-04-27T12:25:25.38Z</time></trkpt><trkpt lat="41.6044453" lon="1.5396477"><ele>392.20000000000005</ele><time>2026-04-27T12:25:26.375Z</time></trkpt><trkpt lat="41.6045416" lon="1.5396794"><ele>393.40000000000003</ele><time>2026-04-27T12:25:27.379Z</time></trkpt><trkpt lat="41.6046408" lon="1.5396764"><ele>394.6</ele><time>2026-04-27T12:25:28.38Z</time></trkpt><trkpt lat="41.6047502" lon="1.5396348"><ele>395.8</ele><time>2026-04-27T12:25:29.38Z</time></trkpt><trkpt lat="41.6048613" lon="1.5395683"><ele>397.0</ele><time>2026-04-27T12:25:30.371Z</time></trkpt><trkpt lat="41.604968" lon="1.5394842"><ele>397.0</ele><time>2026-04-27T12:25:31.375Z</time></trkpt><trkpt lat="41.6050628" lon="1.5393855"><ele>397.0</ele><time>2026-04-27T12:25:32.374Z</time></trkpt><trkpt lat="41.605153" lon="1.5392764"><ele>397.0</ele><time>2026-04-27T12:25:33.369Z</time></trkpt><trkpt lat="41.6052294" lon="1.5391686"><ele>397.0</ele><time>2026-04-27T12:25:34.373Z</time></trkpt><trkpt lat="41.6053053" lon="1.5390642"><ele>397.20000000000005</ele><time>2026-04-27T12:25:35.374Z</time></trkpt><trkpt lat="41.6053848" lon="1.5389685"><ele>397.4</ele><time>2026-04-27T12:25:36.378Z</time></trkpt><trkpt lat="41.6054684" lon="1.5388783"><ele>397.6</ele><time>2026-04-27T12:25:37.38Z</time></trkpt><trkpt lat="41.6055555" lon="1.5387992"><ele>397.79999999999995</ele><time>2026-04-27T12:25:38.378Z</time></trkpt><trkpt lat="41.6056429" lon="1.5387217"><ele>398.0</ele><time>2026-04-27T12:25:39.38Z</time></trkpt><trkpt lat="41.6057346" lon="1.5386482"><ele>398.0</ele><time>2026-04-27T12:25:40.379Z</time></trkpt><trkpt lat="41.6058246" lon="1.5385745"><ele>398.0</ele><time>2026-04-27T12:25:41.38Z</time></trkpt><trkpt lat="41.605914" lon="1.5385006"><ele>398.0</ele><time>2026-04-27T12:25:42.377Z</time></trkpt><trkpt lat="41.6060037" lon="1.5384239"><ele>398.0</ele><time>2026-04-27T12:25:43.382Z</time></trkpt><trkpt lat="41.6060924" lon="1.5383504"><ele>398.0</ele><time>2026-04-27T12:25:44.379Z</time></trkpt><trkpt lat="41.6061864" lon="1.5382798"><ele>400.4</ele><time>2026-04-27T12:25:45.377Z</time></trkpt><trkpt lat="41.6062802" lon="1.5382073"><ele>402.79999999999995</ele><time>2026-04-27T12:25:46.38Z</time></trkpt><trkpt lat="41.6063719" lon="1.5381351"><ele>405.2</ele><time>2026-04-27T12:25:47.383Z</time></trkpt><trkpt lat="41.6064648" lon="1.5380623"><ele>407.6</ele><time>2026-04-27T12:25:48.38Z</time></trkpt><trkpt lat="41.6065537" lon="1.5379907"><ele>410.0</ele><time>2026-04-27T12:25:49.385Z</time></trkpt><trkpt lat="41.6066385" lon="1.5379177"><ele>408.6</ele><time>2026-04-27T12:25:50.381Z</time></trkpt><trkpt lat="41.6067209" lon="1.5378375"><ele>407.2</ele><time>2026-04-27T12:25:51.382Z</time></trkpt><trkpt lat="41.606799" lon="1.537752"><ele>405.79999999999995</ele><time>2026-04-27T12:25:52.38Z</time></trkpt><trkpt lat="41.6068758" lon="1.5376631"><ele>404.4</ele><time>2026-04-27T12:25:53.381Z</time></trkpt><trkpt lat="41.6069516" lon="1.5375648"><ele>403.0</ele><time>2026-04-27T12:25:54.38Z</time></trkpt><trkpt lat="41.6070278" lon="1.5374597"><ele>405.59999999999997</ele><time>2026-04-27T12:25:55.388Z</time></trkpt><trkpt lat="41.6070986" lon="1.5373485"><ele>408.2</ele><time>2026-04-27T12:25:56.372Z</time></trkpt><trkpt lat="41.6071671" lon="1.5372333"><ele>410.8</ele><time>2026-04-27T12:25:57.386Z</time></trkpt><trkpt lat="41.6072369" lon="1.5371151"><ele>413.4</ele><time>2026-04-27T12:25:58.378Z</time></trkpt><trkpt lat="41.6072988" lon="1.5369906"><ele>416.0</ele><time>2026-04-27T12:25:59.38Z</time></trkpt><trkpt lat="41.6073597" lon="1.5368575"><ele>416.0</ele><time>2026-04-27T12:26:00.373Z</time></trkpt><trkpt lat="41.6074214" lon="1.536717"><ele>416.0</ele><time>2026-04-27T12:26:01.378Z</time></trkpt><trkpt lat="41.6074805" lon="1.5365767"><ele>416.0</ele><time>2026-04-27T12:26:02.373Z</time></trkpt><trkpt lat="41.6075397" lon="1.5364338"><ele>416.0</ele><time>2026-04-27T12:26:03.376Z</time></trkpt><trkpt lat="41.6076048" lon="1.5362903"><ele>413.0</ele><time>2026-04-27T12:26:04.371Z</time></trkpt><trkpt lat="41.6076713" lon="1.5361464"><ele>410.0</ele><time>2026-04-27T12:26:05.375Z</time></trkpt><trkpt lat="41.6077404" lon="1.5359996"><ele>407.0</ele><time>2026-04-27T12:26:06.374Z</time></trkpt><trkpt lat="41.6078112" lon="1.5358494"><ele>404.0</ele><time>2026-04-27T12:26:07.376Z</time></trkpt><trkpt lat="41.6078864" lon="1.5357057"><ele>406.5</ele><time>2026-04-27T12:26:08.371Z</time></trkpt><trkpt lat="41.6079668" lon="1.535562"><ele>409.0</ele><time>2026-04-27T12:26:09.374Z</time></trkpt><trkpt lat="41.6080504" lon="1.5354219"><ele>411.5</ele><time>2026-04-27T12:26:10.371Z</time></trkpt><trkpt lat="41.6081387" lon="1.5352834"><ele>414.0</ele><time>2026-04-27T12:26:11.37Z</time></trkpt><trkpt lat="41.6082321" lon="1.5351467"><ele>414.0</ele><time>2026-04-27T12:26:12.367Z</time></trkpt><trkpt lat="41.6083235" lon="1.5350154"><ele>414.0</ele><time>2026-04-27T12:26:13.37Z</time></trkpt><trkpt lat="41.6084185" lon="1.5348865"><ele>414.0</ele><time>2026-04-27T12:26:14.368Z</time></trkpt><trkpt lat="41.6085153" lon="1.5347599"><ele>414.0</ele><time>2026-04-27T12:26:15.368Z</time></trkpt><trkpt lat="41.6086191" lon="1.5346352"><ele>415.33333333333337</ele><time>2026-04-27T12:26:16.369Z</time></trkpt><trkpt lat="41.6087348" lon="1.5345061"><ele>416.6666666666667</ele><time>2026-04-27T12:26:17.371Z</time></trkpt><trkpt lat="41.6088637" lon="1.5343912"><ele>418.0</ele><time>2026-04-27T12:26:18.367Z</time></trkpt><trkpt lat="41.6089909" lon="1.5342811"><ele>418.0</ele><time>2026-04-27T12:26:19.372Z</time></trkpt><trkpt lat="41.6091158" lon="1.5341746"><ele>418.0</ele><time>2026-04-27T12:26:20.374Z</time></trkpt><trkpt lat="41.6092558" lon="1.5340702"><ele>418.0</ele><time>2026-04-27T12:26:21.374Z</time></trkpt><trkpt lat="41.6093789" lon="1.533956"><ele>418.0</ele><time>2026-04-27T12:26:22.384Z</time></trkpt><trkpt lat="41.6095064" lon="1.5338408"><ele>418.0</ele><time>2026-04-27T12:26:23.38Z</time></trkpt><trkpt lat="41.6096271" lon="1.5337211"><ele>418.0</ele><time>2026-04-27T12:26:24.378Z</time></trkpt><trkpt lat="41.6097411" lon="1.5335907"><ele>418.0</ele><time>2026-04-27T12:26:25.381Z</time></trkpt><trkpt lat="41.6098512" lon="1.5334504"><ele>418.0</ele><time>2026-04-27T12:26:26.38Z</time></trkpt><trkpt lat="41.6099501" lon="1.5333021"><ele>418.0</ele><time>2026-04-27T12:26:27.38Z</time></trkpt><trkpt lat="41.6100461" lon="1.5331567"><ele>418.0</ele><time>2026-04-27T12:26:28.382Z</time></trkpt><trkpt lat="41.6101474" lon="1.5330047"><ele>415.25</ele><time>2026-04-27T12:26:29.392Z</time></trkpt><trkpt lat="41.6102422" lon="1.53286"><ele>412.5</ele><time>2026-04-27T12:26:30.379Z</time></trkpt><trkpt lat="41.6103395" lon="1.5327284"><ele>409.75</ele><time>2026-04-27T12:26:31.378Z</time></trkpt><trkpt lat="41.6104427" lon="1.5326067"><ele>407.0</ele><time>2026-04-27T12:26:32.373Z</time></trkpt><trkpt lat="41.6105602" lon="1.5324917"><ele>413.5</ele><time>2026-04-27T12:26:33.376Z</time></trkpt><trkpt lat="41.6106778" lon="1.5323827"><ele>420.0</ele><time>2026-04-27T12:26:34.371Z</time></trkpt><trkpt lat="41.6107999" lon="1.5322847"><ele>426.5</ele><time>2026-04-27T12:26:35.372Z</time></trkpt><trkpt lat="41.6109283" lon="1.532188"><ele>433.0</ele><time>2026-04-27T12:26:36.366Z</time></trkpt><trkpt lat="41.6110551" lon="1.5321151"><ele>429.25</ele><time>2026-04-27T12:26:37.37Z</time></trkpt><trkpt lat="41.6111914" lon="1.5320436"><ele>425.5</ele><time>2026-04-27T12:26:38.37Z</time></trkpt><trkpt lat="41.6113314" lon="1.5319864"><ele>421.75</ele><time>2026-04-27T12:26:39.369Z</time></trkpt><trkpt lat="41.6114714" lon="1.5319315"><ele>418.0</ele><time>2026-04-27T12:26:40.364Z</time></trkpt><trkpt lat="41.6116112" lon="1.5318841"><ele>418.0</ele><time>2026-04-27T12:26:41.371Z</time></trkpt><trkpt lat="41.6117575" lon="1.5318407"><ele>418.0</ele><time>2026-04-27T12:26:42.367Z</time></trkpt><trkpt lat="41.6119031" lon="1.5317964"><ele>418.0</ele><time>2026-04-27T12:26:43.371Z</time></trkpt><trkpt lat="41.6120429" lon="1.5317308"><ele>418.0</ele><time>2026-04-27T12:26:44.366Z</time></trkpt><trkpt lat="41.6121765" lon="1.5316639"><ele>423.25</ele><time>2026-04-27T12:26:45.367Z</time></trkpt><trkpt lat="41.6123057" lon="1.5315956"><ele>428.5</ele><time>2026-04-27T12:26:46.365Z</time></trkpt><trkpt lat="41.6124343" lon="1.5315231"><ele>433.75</ele><time>2026-04-27T12:26:47.37Z</time></trkpt><trkpt lat="41.6125614" lon="1.5314482"><ele>439.0</ele><time>2026-04-27T12:26:48.363Z</time></trkpt><trkpt lat="41.612686" lon="1.5313538"><ele>439.0</ele><time>2026-04-27T12:26:49.366Z</time></trkpt><trkpt lat="41.6128166" lon="1.5312528"><ele>439.0</ele><time>2026-04-27T12:26:50.364Z</time></trkpt><trkpt lat="41.6129476" lon="1.5311612"><ele>439.0</ele><time>2026-04-27T12:26:51.365Z</time></trkpt><trkpt lat="41.6130706" lon="1.5310612"><ele>439.0</ele><time>2026-04-27T12:26:52.365Z</time></trkpt><trkpt lat="41.6131905" lon="1.5309652"><ele>438.0</ele><time>2026-04-27T12:26:53.37Z</time></trkpt><trkpt lat="41.6133135" lon="1.5308664"><ele>437.0</ele><time>2026-04-27T12:26:54.366Z</time></trkpt><trkpt lat="41.6134329" lon="1.5307703"><ele>436.0</ele><time>2026-04-27T12:26:55.368Z</time></trkpt><trkpt lat="41.6135545" lon="1.5306805"><ele>435.0</ele><time>2026-04-27T12:26:56.37Z</time></trkpt><trkpt lat="41.6136834" lon="1.5305926"><ele>435.0</ele><time>2026-04-27T12:26:57.369Z</time></trkpt><trkpt lat="41.613807" lon="1.530506"><ele>435.0</ele><time>2026-04-27T12:26:58.377Z</time></trkpt><trkpt lat="41.6139384" lon="1.5304253"><ele>435.0</ele><time>2026-04-27T12:26:59.381Z</time></trkpt><trkpt lat="41.614068" lon="1.5303572"><ele>435.0</ele><time>2026-04-27T12:27:00.378Z</time></trkpt><trkpt lat="41.6142038" lon="1.530307"><ele>432.0</ele><time>2026-04-27T12:27:01.377Z</time></trkpt><trkpt lat="41.6143298" lon="1.5302523"><ele>429.0</ele><time>2026-04-27T12:27:02.377Z</time></trkpt><trkpt lat="41.614466" lon="1.5302049"><ele>426.0</ele><time>2026-04-27T12:27:03.385Z</time></trkpt><trkpt lat="41.614612" lon="1.530168"><ele>423.0</ele><time>2026-04-27T12:27:04.376Z</time></trkpt><trkpt lat="41.6147542" lon="1.5301343"><ele>423.0</ele><time>2026-04-27T12:27:05.385Z</time></trkpt><trkpt lat="41.6149074" lon="1.5301052"><ele>423.0</ele><time>2026-04-27T12:27:06.381Z</time></trkpt><trkpt lat="41.6150578" lon="1.5300817"><ele>423.0</ele><time>2026-04-27T12:27:07.387Z</time></trkpt><trkpt lat="41.6152128" lon="1.5300585"><ele>422.0</ele><time>2026-04-27T12:27:08.381Z</time></trkpt><trkpt lat="41.615363" lon="1.5300386"><ele>421.0</ele><time>2026-04-27T12:27:09.387Z</time></trkpt><trkpt lat="41.6155088" lon="1.5300057"><ele>420.0</ele><time>2026-04-27T12:27:10.381Z</time></trkpt><trkpt lat="41.6156603" lon="1.5299841"><ele>420.0</ele><time>2026-04-27T12:27:11.383Z</time></trkpt><trkpt lat="41.6158027" lon="1.5299539"><ele>420.0</ele><time>2026-04-27T12:27:12.381Z</time></trkpt><trkpt lat="41.6159574" lon="1.5299258"><ele>420.0</ele><time>2026-04-27T12:27:13.383Z</time></trkpt><trkpt lat="41.6161205" lon="1.529891"><ele>420.66666666666663</ele><time>2026-04-27T12:27:14.382Z</time></trkpt><trkpt lat="41.616281" lon="1.5298626"><ele>421.3333333333333</ele><time>2026-04-27T12:27:15.381Z</time></trkpt><trkpt lat="41.616445" lon="1.5298282"><ele>422.0</ele><time>2026-04-27T12:27:16.383Z</time></trkpt><trkpt lat="41.6165974" lon="1.5297924"><ele>422.0</ele><time>2026-04-27T12:27:17.382Z</time></trkpt><trkpt lat="41.6167562" lon="1.5297527"><ele>422.0</ele><time>2026-04-27T12:27:18.38Z</time></trkpt><trkpt lat="41.6169015" lon="1.5297156"><ele>422.0</ele><time>2026-04-27T12:27:19.392Z</time></trkpt><trkpt lat="41.6170568" lon="1.5296855"><ele>423.5</ele><time>2026-04-27T12:27:20.39Z</time></trkpt><trkpt lat="41.6172135" lon="1.5296577"><ele>425.0</ele><time>2026-04-27T12:27:21.395Z</time></trkpt><trkpt lat="41.6173571" lon="1.529628"><ele>426.5</ele><time>2026-04-27T12:27:22.391Z</time></trkpt><trkpt lat="41.6175001" lon="1.5296039"><ele>428.0</ele><time>2026-04-27T12:27:23.393Z</time></trkpt><trkpt lat="41.6176423" lon="1.5295841"><ele>427.25</ele><time>2026-04-27T12:27:24.384Z</time></trkpt><trkpt lat="41.6177857" lon="1.5295549"><ele>426.5</ele><time>2026-04-27T12:27:25.384Z</time></trkpt><trkpt lat="41.6179242" lon="1.5295212"><ele>425.75</ele><time>2026-04-27T12:27:26.385Z</time></trkpt><trkpt lat="41.618062" lon="1.5294835"><ele>425.0</ele><time>2026-04-27T12:27:27.389Z</time></trkpt><trkpt lat="41.6181878" lon="1.5294564"><ele>424.5</ele><time>2026-04-27T12:27:28.386Z</time></trkpt><trkpt lat="41.6183205" lon="1.5294294"><ele>424.0</ele><time>2026-04-27T12:27:29.39Z</time></trkpt><trkpt lat="41.6184522" lon="1.529393"><ele>423.5</ele><time>2026-04-27T12:27:30.376Z</time></trkpt><trkpt lat="41.6185861" lon="1.529362"><ele>423.0</ele><time>2026-04-27T12:27:31.381Z</time></trkpt><trkpt lat="41.6187155" lon="1.5293217"><ele>421.75</ele><time>2026-04-27T12:27:32.374Z</time></trkpt><trkpt lat="41.6188504" lon="1.5292853"><ele>420.5</ele><time>2026-04-27T12:27:33.376Z</time></trkpt><trkpt lat="41.6189851" lon="1.5292422"><ele>419.25</ele><time>2026-04-27T12:27:34.379Z</time></trkpt><trkpt lat="41.6191198" lon="1.5291917"><ele>418.0</ele><time>2026-04-27T12:27:35.379Z</time></trkpt><trkpt lat="41.6192576" lon="1.5291372"><ele>418.0</ele><time>2026-04-27T12:27:36.376Z</time></trkpt><trkpt lat="41.6193945" lon="1.5290725"><ele>418.0</ele><time>2026-04-27T12:27:37.38Z</time></trkpt><trkpt lat="41.6195301" lon="1.5290106"><ele>418.0</ele><time>2026-04-27T12:27:38.375Z</time></trkpt><trkpt lat="41.6196628" lon="1.5289485"><ele>418.0</ele><time>2026-04-27T12:27:39.381Z</time></trkpt><trkpt lat="41.6197907" lon="1.5288812"><ele>418.0</ele><time>2026-04-27T12:27:40.376Z</time></trkpt><trkpt lat="41.619915" lon="1.5288083"><ele>418.0</ele><time>2026-04-27T12:27:41.38Z</time></trkpt><trkpt lat="41.6200372" lon="1.528728"><ele>418.0</ele><time>2026-04-27T12:27:42.376Z</time></trkpt><trkpt lat="41.6201584" lon="1.5286476"><ele>418.0</ele><time>2026-04-27T12:27:43.379Z</time></trkpt><trkpt lat="41.6202749" lon="1.5285658"><ele>419.75</ele><time>2026-04-27T12:27:44.379Z</time></trkpt><trkpt lat="41.6203968" lon="1.5284826"><ele>421.5</ele><time>2026-04-27T12:27:45.381Z</time></trkpt><trkpt lat="41.6205102" lon="1.5283905"><ele>423.25</ele><time>2026-04-27T12:27:46.376Z</time></trkpt><trkpt lat="41.6206275" lon="1.5282921"><ele>425.0</ele><time>2026-04-27T12:27:47.384Z</time></trkpt><trkpt lat="41.620746" lon="1.5281937"><ele>425.0</ele><time>2026-04-27T12:27:48.376Z</time></trkpt><trkpt lat="41.6208691" lon="1.5280976"><ele>425.0</ele><time>2026-04-27T12:27:49.38Z</time></trkpt><trkpt lat="41.6209897" lon="1.5280013"><ele>425.0</ele><time>2026-04-27T12:27:50.377Z</time></trkpt><trkpt lat="41.6211084" lon="1.5278965"><ele>425.0</ele><time>2026-04-27T12:27:51.381Z</time></trkpt><trkpt lat="41.6212355" lon="1.5277995"><ele>425.5</ele><time>2026-04-27T12:27:52.38Z</time></trkpt><trkpt lat="41.6213622" lon="1.5277099"><ele>426.0</ele><time>2026-04-27T12:27:53.382Z</time></trkpt><trkpt lat="41.6214885" lon="1.5276239"><ele>426.5</ele><time>2026-04-27T12:27:54.375Z</time></trkpt><trkpt lat="41.6216159" lon="1.5275368"><ele>427.0</ele><time>2026-04-27T12:27:55.382Z</time></trkpt><trkpt lat="41.6217482" lon="1.5274467"><ele>427.0</ele><time>2026-04-27T12:27:56.377Z</time></trkpt><trkpt lat="41.6218797" lon="1.5273707"><ele>427.0</ele><time>2026-04-27T12:27:57.381Z</time></trkpt><trkpt lat="41.6220144" lon="1.5272974"><ele>427.0</ele><time>2026-04-27T12:27:58.384Z</time></trkpt><trkpt lat="41.6221482" lon="1.5272237"><ele>427.0</ele><time>2026-04-27T12:27:59.385Z</time></trkpt><trkpt lat="41.6222775" lon="1.5271486"><ele>426.5</ele><time>2026-04-27T12:28:00.369Z</time></trkpt><trkpt lat="41.622414" lon="1.5270642"><ele>426.0</ele><time>2026-04-27T12:28:01.369Z</time></trkpt><trkpt lat="41.6225467" lon="1.5269864"><ele>425.5</ele><time>2026-04-27T12:28:02.377Z</time></trkpt><trkpt lat="41.6226807" lon="1.5269085"><ele>425.0</ele><time>2026-04-27T12:28:03.368Z</time></trkpt><trkpt lat="41.6228148" lon="1.5268266"><ele>428.66666666666663</ele><time>2026-04-27T12:28:04.364Z</time></trkpt><trkpt lat="41.6229543" lon="1.5267437"><ele>432.33333333333337</ele><time>2026-04-27T12:28:05.367Z</time></trkpt><trkpt lat="41.6230939" lon="1.526663"><ele>436.0</ele><time>2026-04-27T12:28:06.365Z</time></trkpt><trkpt lat="41.6232292" lon="1.5265827"><ele>436.0</ele><time>2026-04-27T12:28:07.369Z</time></trkpt><trkpt lat="41.6233565" lon="1.5264975"><ele>436.0</ele><time>2026-04-27T12:28:08.365Z</time></trkpt><trkpt lat="41.6234926" lon="1.526409"><ele>436.0</ele><time>2026-04-27T12:28:09.369Z</time></trkpt><trkpt lat="41.6236246" lon="1.5263252"><ele>436.0</ele><time>2026-04-27T12:28:10.369Z</time></trkpt><trkpt lat="41.6237605" lon="1.5262446"><ele>434.5</ele><time>2026-04-27T12:28:11.372Z</time></trkpt><trkpt lat="41.6239009" lon="1.5261604"><ele>433.0</ele><time>2026-04-27T12:28:12.364Z</time></trkpt><trkpt lat="41.6240324" lon="1.526075"><ele>431.5</ele><time>2026-04-27T12:28:13.371Z</time></trkpt><trkpt lat="41.6241598" lon="1.5259912"><ele>430.0</ele><time>2026-04-27T12:28:14.372Z</time></trkpt><trkpt lat="41.624288" lon="1.5259186"><ele>430.0</ele><time>2026-04-27T12:28:15.37Z</time></trkpt><trkpt lat="41.6244121" lon="1.5258374"><ele>430.0</ele><time>2026-04-27T12:28:16.368Z</time></trkpt><trkpt lat="41.6245339" lon="1.5257589"><ele>430.0</ele><time>2026-04-27T12:28:17.373Z</time></trkpt><trkpt lat="41.6246586" lon="1.5256843"><ele>430.0</ele><time>2026-04-27T12:28:18.368Z</time></trkpt><trkpt lat="41.6247868" lon="1.5256179"><ele>429.5</ele><time>2026-04-27T12:28:19.37Z</time></trkpt><trkpt lat="41.6249072" lon="1.5255465"><ele>429.0</ele><time>2026-04-27T12:28:20.369Z</time></trkpt><trkpt lat="41.6250249" lon="1.5254813"><ele>428.5</ele><time>2026-04-27T12:28:21.374Z</time></trkpt><trkpt lat="41.6251448" lon="1.5254129"><ele>428.0</ele><time>2026-04-27T12:28:22.37Z</time></trkpt><trkpt lat="41.6252689" lon="1.5253499"><ele>430.0</ele><time>2026-04-27T12:28:23.373Z</time></trkpt><trkpt lat="41.6253884" lon="1.5252847"><ele>432.0</ele><time>2026-04-27T12:28:24.368Z</time></trkpt><trkpt lat="41.6254986" lon="1.5252139"><ele>434.0</ele><time>2026-04-27T12:28:25.375Z</time></trkpt><trkpt lat="41.6256096" lon="1.5251284"><ele>436.0</ele><time>2026-04-27T12:28:26.37Z</time></trkpt><trkpt lat="41.6257232" lon="1.5250589"><ele>436.0</ele><time>2026-04-27T12:28:27.376Z</time></trkpt><trkpt lat="41.6258379" lon="1.5249866"><ele>436.0</ele><time>2026-04-27T12:28:28.372Z</time></trkpt><trkpt lat="41.6259497" lon="1.5249122"><ele>436.0</ele><time>2026-04-27T12:28:29.378Z</time></trkpt><trkpt lat="41.6260617" lon="1.5248355"><ele>436.0</ele><time>2026-04-27T12:28:30.37Z</time></trkpt><trkpt lat="41.6261778" lon="1.5247522"><ele>434.25</ele><time>2026-04-27T12:28:31.375Z</time></trkpt><trkpt lat="41.6262929" lon="1.5246732"><ele>432.5</ele><time>2026-04-27T12:28:32.37Z</time></trkpt><trkpt lat="41.6264111" lon="1.5245942"><ele>430.75</ele><time>2026-04-27T12:28:33.375Z</time></trkpt><trkpt lat="41.626529" lon="1.5245107"><ele>429.0</ele><time>2026-04-27T12:28:34.369Z</time></trkpt><trkpt lat="41.6266455" lon="1.5244244"><ele>429.0</ele><time>2026-04-27T12:28:35.373Z</time></trkpt><trkpt lat="41.6267635" lon="1.5243378"><ele>429.0</ele><time>2026-04-27T12:28:36.376Z</time></trkpt><trkpt lat="41.6268799" lon="1.524243"><ele>429.0</ele><time>2026-04-27T12:28:37.378Z</time></trkpt><trkpt lat="41.6269926" lon="1.5241504"><ele>429.0</ele><time>2026-04-27T12:28:38.376Z</time></trkpt><trkpt lat="41.6271064" lon="1.5240578"><ele>430.0</ele><time>2026-04-27T12:28:39.376Z</time></trkpt><trkpt lat="41.6272204" lon="1.5239633"><ele>431.0</ele><time>2026-04-27T12:28:40.371Z</time></trkpt><trkpt lat="41.627334" lon="1.5238694"><ele>432.0</ele><time>2026-04-27T12:28:41.386Z</time></trkpt><trkpt lat="41.627451" lon="1.5237692"><ele>433.0</ele><time>2026-04-27T12:28:42.38Z</time></trkpt><trkpt lat="41.6275635" lon="1.5236659"><ele>433.0</ele><time>2026-04-27T12:28:43.382Z</time></trkpt><trkpt lat="41.6276751" lon="1.5235617"><ele>433.0</ele><time>2026-04-27T12:28:44.381Z</time></trkpt><trkpt lat="41.6277841" lon="1.5234582"><ele>433.0</ele><time>2026-04-27T12:28:45.382Z</time></trkpt><trkpt lat="41.6278902" lon="1.5233545"><ele>433.0</ele><time>2026-04-27T12:28:46.377Z</time></trkpt><trkpt lat="41.6279964" lon="1.5232495"><ele>432.0</ele><time>2026-04-27T12:28:47.385Z</time></trkpt><trkpt lat="41.628102" lon="1.5231429"><ele>431.0</ele><time>2026-04-27T12:28:48.381Z</time></trkpt><trkpt lat="41.6282089" lon="1.5230318"><ele>430.0</ele><time>2026-04-27T12:28:49.378Z</time></trkpt><trkpt lat="41.6283141" lon="1.5229144"><ele>429.0</ele><time>2026-04-27T12:28:50.374Z</time></trkpt><trkpt lat="41.62842" lon="1.5227881"><ele>429.0</ele><time>2026-04-27T12:28:51.377Z</time></trkpt><trkpt lat="41.6285365" lon="1.5226623"><ele>429.0</ele><time>2026-04-27T12:28:52.382Z</time></trkpt><trkpt lat="41.6286493" lon="1.5225361"><ele>429.0</ele><time>2026-04-27T12:28:53.376Z</time></trkpt><trkpt lat="41.6287563" lon="1.5224126"><ele>429.0</ele><time>2026-04-27T12:28:54.375Z</time></trkpt><trkpt lat="41.6288667" lon="1.5222925"><ele>428.75</ele><time>2026-04-27T12:28:55.374Z</time></trkpt><trkpt lat="41.6289701" lon="1.5221616"><ele>428.5</ele><time>2026-04-27T12:28:56.372Z</time></trkpt><trkpt lat="41.6290669" lon="1.5220287"><ele>428.25</ele><time>2026-04-27T12:28:57.368Z</time></trkpt><trkpt lat="41.6291642" lon="1.5219055"><ele>428.0</ele><time>2026-04-27T12:28:58.378Z</time></trkpt><trkpt lat="41.6292654" lon="1.5217761"><ele>428.0</ele><time>2026-04-27T12:28:59.376Z</time></trkpt><trkpt lat="41.6293672" lon="1.5216449"><ele>428.0</ele><time>2026-04-27T12:29:00.37Z</time></trkpt><trkpt lat="41.629467" lon="1.5215061"><ele>428.0</ele><time>2026-04-27T12:29:01.366Z</time></trkpt><trkpt lat="41.6295739" lon="1.5213668"><ele>428.0</ele><time>2026-04-27T12:29:02.364Z</time></trkpt><trkpt lat="41.6296746" lon="1.5212343"><ele>428.5</ele><time>2026-04-27T12:29:03.363Z</time></trkpt><trkpt lat="41.6297735" lon="1.521124"><ele>429.0</ele><time>2026-04-27T12:29:04.366Z</time></trkpt><trkpt lat="41.6298731" lon="1.5210181"><ele>429.5</ele><time>2026-04-27T12:29:05.366Z</time></trkpt><trkpt lat="41.6299755" lon="1.5209159"><ele>430.0</ele><time>2026-04-27T12:29:06.366Z</time></trkpt><trkpt lat="41.6300827" lon="1.5208082"><ele>430.0</ele><time>2026-04-27T12:29:07.371Z</time></trkpt><trkpt lat="41.6301895" lon="1.5207044"><ele>430.0</ele><time>2026-04-27T12:29:08.366Z</time></trkpt><trkpt lat="41.6302998" lon="1.5205962"><ele>430.0</ele><time>2026-04-27T12:29:09.367Z</time></trkpt><trkpt lat="41.6304191" lon="1.5204891"><ele>430.0</ele><time>2026-04-27T12:29:10.366Z</time></trkpt><trkpt lat="41.6305428" lon="1.5203984"><ele>429.25</ele><time>2026-04-27T12:29:11.37Z</time></trkpt><trkpt lat="41.6306764" lon="1.5203163"><ele>428.5</ele><time>2026-04-27T12:29:12.368Z</time></trkpt><trkpt lat="41.6308079" lon="1.5202252"><ele>427.75</ele><time>2026-04-27T12:29:13.365Z</time></trkpt><trkpt lat="41.6309454" lon="1.5201413"><ele>427.0</ele><time>2026-04-27T12:29:14.373Z</time></trkpt><trkpt lat="41.6310777" lon="1.5200619"><ele>428.5</ele><time>2026-04-27T12:29:15.365Z</time></trkpt><trkpt lat="41.6312112" lon="1.5199869"><ele>430.0</ele><time>2026-04-27T12:29:16.365Z</time></trkpt><trkpt lat="41.6313508" lon="1.5199209"><ele>431.5</ele><time>2026-04-27T12:29:17.37Z</time></trkpt><trkpt lat="41.6314907" lon="1.5198632"><ele>433.0</ele><time>2026-04-27T12:29:18.371Z</time></trkpt><trkpt lat="41.6316345" lon="1.5198143"><ele>433.0</ele><time>2026-04-27T12:29:19.376Z</time></trkpt><trkpt lat="41.6317826" lon="1.5197682"><ele>433.0</ele><time>2026-04-27T12:29:20.374Z</time></trkpt><trkpt lat="41.6319269" lon="1.5197321"><ele>433.0</ele><time>2026-04-27T12:29:21.377Z</time></trkpt><trkpt lat="41.6320765" lon="1.5196995"><ele>433.0</ele><time>2026-04-27T12:29:22.377Z</time></trkpt><trkpt lat="41.6322289" lon="1.5196664"><ele>433.0</ele><time>2026-04-27T12:29:23.375Z</time></trkpt><trkpt lat="41.6323777" lon="1.519654"><ele>433.0</ele><time>2026-04-27T12:29:24.372Z</time></trkpt><trkpt lat="41.6325303" lon="1.5196494"><ele>433.0</ele><time>2026-04-27T12:29:25.373Z</time></trkpt><trkpt lat="41.6326683" lon="1.5196534"><ele>433.0</ele><time>2026-04-27T12:29:26.373Z</time></trkpt><trkpt lat="41.6328144" lon="1.5196686"><ele>433.0</ele><time>2026-04-27T12:29:27.377Z</time></trkpt><trkpt lat="41.6329572" lon="1.5196971"><ele>433.0</ele><time>2026-04-27T12:29:28.377Z</time></trkpt><trkpt lat="41.6331007" lon="1.5197285"><ele>434.0</ele><time>2026-04-27T12:29:29.378Z</time></trkpt><trkpt lat="41.6332374" lon="1.5197656"><ele>435.0</ele><time>2026-04-27T12:29:30.376Z</time></trkpt><trkpt lat="41.6333817" lon="1.519812"><ele>436.0</ele><time>2026-04-27T12:29:31.374Z</time></trkpt><trkpt lat="41.6335233" lon="1.5198678"><ele>437.0</ele><time>2026-04-27T12:29:32.371Z</time></trkpt><trkpt lat="41.6336606" lon="1.5199384"><ele>437.0</ele><time>2026-04-27T12:29:33.371Z</time></trkpt><trkpt lat="41.6338024" lon="1.5200249"><ele>437.0</ele><time>2026-04-27T12:29:34.369Z</time></trkpt><trkpt lat="41.6339359" lon="1.5201144"><ele>437.0</ele><time>2026-04-27T12:29:35.373Z</time></trkpt><trkpt lat="41.6340701" lon="1.5202151"><ele>437.0</ele><time>2026-04-27T12:29:36.369Z</time></trkpt><trkpt lat="41.6342075" lon="1.5203119"><ele>437.0</ele><time>2026-04-27T12:29:37.374Z</time></trkpt><trkpt lat="41.634343" lon="1.5204073"><ele>437.0</ele><time>2026-04-27T12:29:38.371Z</time></trkpt><trkpt lat="41.6344729" lon="1.5205092"><ele>435.0</ele><time>2026-04-27T12:29:39.371Z</time></trkpt><trkpt lat="41.6346065" lon="1.520619"><ele>433.0</ele><time>2026-04-27T12:29:40.369Z</time></trkpt><trkpt lat="41.6347378" lon="1.5207238"><ele>431.0</ele><time>2026-04-27T12:29:41.371Z</time></trkpt><trkpt lat="41.6348638" lon="1.5208233"><ele>431.0</ele><time>2026-04-27T12:29:42.37Z</time></trkpt><trkpt lat="41.6349989" lon="1.5209119"><ele>431.0</ele><time>2026-04-27T12:29:43.383Z</time></trkpt><trkpt lat="41.6351268" lon="1.5209819"><ele>431.0</ele><time>2026-04-27T12:29:44.371Z</time></trkpt><trkpt lat="41.6352693" lon="1.5210436"><ele>431.0</ele><time>2026-04-27T12:29:45.372Z</time></trkpt><trkpt lat="41.6354078" lon="1.5210949"><ele>430.0</ele><time>2026-04-27T12:29:46.371Z</time></trkpt><trkpt lat="41.6355481" lon="1.5211412"><ele>429.0</ele><time>2026-04-27T12:29:47.376Z</time></trkpt><trkpt lat="41.6356912" lon="1.5211821"><ele>428.0</ele><time>2026-04-27T12:29:48.373Z</time></trkpt><trkpt lat="41.6358359" lon="1.5212081"><ele>427.0</ele><time>2026-04-27T12:29:49.375Z</time></trkpt><trkpt lat="41.6359804" lon="1.5212304"><ele>430.0</ele><time>2026-04-27T12:29:50.372Z</time></trkpt><trkpt lat="41.6361278" lon="1.5212557"><ele>433.0</ele><time>2026-04-27T12:29:51.374Z</time></trkpt><trkpt lat="41.6362812" lon="1.5212722"><ele>436.0</ele><time>2026-04-27T12:29:52.372Z</time></trkpt><trkpt lat="41.6364265" lon="1.5212913"><ele>439.0</ele><time>2026-04-27T12:29:53.376Z</time></trkpt><trkpt lat="41.6365754" lon="1.5213066"><ele>439.0</ele><time>2026-04-27T12:29:54.372Z</time></trkpt><trkpt lat="41.6367199" lon="1.521327"><ele>439.0</ele><time>2026-04-27T12:29:55.375Z</time></trkpt><trkpt lat="41.6368662" lon="1.5213407"><ele>439.0</ele><time>2026-04-27T12:29:56.374Z</time></trkpt><trkpt lat="41.6370079" lon="1.5213652"><ele>439.0</ele><time>2026-04-27T12:29:57.374Z</time></trkpt><trkpt lat="41.6371467" lon="1.5213833"><ele>439.0</ele><time>2026-04-27T12:29:58.373Z</time></trkpt><trkpt lat="41.6372813" lon="1.5214044"><ele>439.0</ele><time>2026-04-27T12:29:59.376Z</time></trkpt><trkpt lat="41.6374226" lon="1.521419"><ele>439.0</ele><time>2026-04-27T12:30:00.371Z</time></trkpt><trkpt lat="41.6375613" lon="1.52144"><ele>439.0</ele><time>2026-04-27T12:30:01.369Z</time></trkpt><trkpt lat="41.6376979" lon="1.5214596"><ele>440.5</ele><time>2026-04-27T12:30:02.368Z</time></trkpt><trkpt lat="41.6378323" lon="1.5214818"><ele>442.0</ele><time>2026-04-27T12:30:03.372Z</time></trkpt><trkpt lat="41.637961" lon="1.5214984"><ele>443.5</ele><time>2026-04-27T12:30:04.366Z</time></trkpt><trkpt lat="41.6380895" lon="1.5215116"><ele>445.0</ele><time>2026-04-27T12:30:05.373Z</time></trkpt><trkpt lat="41.6382137" lon="1.5215244"><ele>445.0</ele><time>2026-04-27T12:30:06.37Z</time></trkpt><trkpt lat="41.6383395" lon="1.5215401"><ele>445.0</ele><time>2026-04-27T12:30:07.364Z</time></trkpt><trkpt lat="41.638464" lon="1.5215621"><ele>445.0</ele><time>2026-04-27T12:30:08.363Z</time></trkpt><trkpt lat="41.638588" lon="1.5215861"><ele>445.0</ele><time>2026-04-27T12:30:09.381Z</time></trkpt><trkpt lat="41.6387159" lon="1.5215996"><ele>445.25</ele><time>2026-04-27T12:30:10.369Z</time></trkpt><trkpt lat="41.6388395" lon="1.5216109"><ele>445.5</ele><time>2026-04-27T12:30:11.37Z</time></trkpt><trkpt lat="41.6389657" lon="1.5216238"><ele>445.75</ele><time>2026-04-27T12:30:12.37Z</time></trkpt><trkpt lat="41.6390903" lon="1.5216413"><ele>446.0</ele><time>2026-04-27T12:30:13.373Z</time></trkpt><trkpt lat="41.6392122" lon="1.5216611"><ele>446.0</ele><time>2026-04-27T12:30:14.373Z</time></trkpt><trkpt lat="41.639333" lon="1.521686"><ele>446.0</ele><time>2026-04-27T12:30:15.371Z</time></trkpt><trkpt lat="41.6394463" lon="1.5217183"><ele>446.0</ele><time>2026-04-27T12:30:16.367Z</time></trkpt><trkpt lat="41.6395619" lon="1.5217596"><ele>446.0</ele><time>2026-04-27T12:30:17.371Z</time></trkpt><trkpt lat="41.6396809" lon="1.5218098"><ele>443.75</ele><time>2026-04-27T12:30:18.37Z</time></trkpt><trkpt lat="41.6398033" lon="1.5218722"><ele>441.5</ele><time>2026-04-27T12:30:19.369Z</time></trkpt><trkpt lat="41.6399284" lon="1.5219481"><ele>439.25</ele><time>2026-04-27T12:30:20.366Z</time></trkpt><trkpt lat="41.640055" lon="1.5220343"><ele>437.0</ele><time>2026-04-27T12:30:21.369Z</time></trkpt><trkpt lat="41.6401794" lon="1.5221436"><ele>440.25</ele><time>2026-04-27T12:30:22.371Z</time></trkpt><trkpt lat="41.6403006" lon="1.5222307"><ele>443.5</ele><time>2026-04-27T12:30:23.371Z</time></trkpt><trkpt lat="41.640416" lon="1.5223108"><ele>446.75</ele><time>2026-04-27T12:30:24.37Z</time></trkpt><trkpt lat="41.6405266" lon="1.5223796"><ele>450.0</ele><time>2026-04-27T12:30:25.371Z</time></trkpt><trkpt lat="41.6406336" lon="1.5224431"><ele>450.0</ele><time>2026-04-27T12:30:26.374Z</time></trkpt><trkpt lat="41.6407324" lon="1.5224997"><ele>450.0</ele><time>2026-04-27T12:30:27.379Z</time></trkpt><trkpt lat="41.640836" lon="1.5225523"><ele>450.0</ele><time>2026-04-27T12:30:28.374Z</time></trkpt><trkpt lat="41.6409338" lon="1.5225993"><ele>450.0</ele><time>2026-04-27T12:30:29.382Z</time></trkpt><trkpt lat="41.6410316" lon="1.522638"><ele>450.0</ele><time>2026-04-27T12:30:30.382Z</time></trkpt><trkpt lat="41.6411323" lon="1.5226672"><ele>451.2</ele><time>2026-04-27T12:30:31.369Z</time></trkpt><trkpt lat="41.6412353" lon="1.5226866"><ele>452.4</ele><time>2026-04-27T12:30:32.377Z</time></trkpt><trkpt lat="41.6413388" lon="1.5226954"><ele>453.6</ele><time>2026-04-27T12:30:33.37Z</time></trkpt><trkpt lat="41.6414509" lon="1.5226976"><ele>454.8</ele><time>2026-04-27T12:30:34.368Z</time></trkpt><trkpt lat="41.6415622" lon="1.522695"><ele>456.0</ele><time>2026-04-27T12:30:35.369Z</time></trkpt><trkpt lat="41.6416788" lon="1.5226875"><ele>456.0</ele><time>2026-04-27T12:30:36.373Z</time></trkpt><trkpt lat="41.6417974" lon="1.5226713"><ele>456.0</ele><time>2026-04-27T12:30:37.375Z</time></trkpt><trkpt lat="41.6419177" lon="1.5226484"><ele>456.0</ele><time>2026-04-27T12:30:38.373Z</time></trkpt><trkpt lat="41.6420372" lon="1.5226222"><ele>456.0</ele><time>2026-04-27T12:30:39.383Z</time></trkpt><trkpt lat="41.6421581" lon="1.522586"><ele>455.25</ele><time>2026-04-27T12:30:40.374Z</time></trkpt><trkpt lat="41.6422796" lon="1.5225408"><ele>454.5</ele><time>2026-04-27T12:30:41.371Z</time></trkpt><trkpt lat="41.6424021" lon="1.5224875"><ele>453.75</ele><time>2026-04-27T12:30:42.376Z</time></trkpt><trkpt lat="41.6425248" lon="1.52243"><ele>453.0</ele><time>2026-04-27T12:30:43.376Z</time></trkpt><trkpt lat="41.6426448" lon="1.5223732"><ele>453.0</ele><time>2026-04-27T12:30:44.375Z</time></trkpt><trkpt lat="41.6427621" lon="1.522317"><ele>453.0</ele><time>2026-04-27T12:30:45.376Z</time></trkpt><trkpt lat="41.6428724" lon="1.5222684"><ele>453.0</ele><time>2026-04-27T12:30:46.373Z</time></trkpt><trkpt lat="41.6429851" lon="1.5222244"><ele>453.0</ele><time>2026-04-27T12:30:47.375Z</time></trkpt><trkpt lat="41.6430995" lon="1.5221777"><ele>453.0</ele><time>2026-04-27T12:30:48.373Z</time></trkpt><trkpt lat="41.6432122" lon="1.5221275"><ele>453.0</ele><time>2026-04-27T12:30:49.375Z</time></trkpt><trkpt lat="41.6433273" lon="1.5220767"><ele>453.0</ele><time>2026-04-27T12:30:50.373Z</time></trkpt><trkpt lat="41.6434468" lon="1.5220278"><ele>453.0</ele><time>2026-04-27T12:30:51.372Z</time></trkpt><trkpt lat="41.6435669" lon="1.5219832"><ele>460.0</ele><time>2026-04-27T12:30:52.372Z</time></trkpt><trkpt lat="41.6436902" lon="1.5219357"><ele>467.0</ele><time>2026-04-27T12:30:53.377Z</time></trkpt><trkpt lat="41.6438172" lon="1.5218855"><ele>474.0</ele><time>2026-04-27T12:30:54.372Z</time></trkpt><trkpt lat="41.6439488" lon="1.5218282"><ele>481.0</ele><time>2026-04-27T12:30:55.373Z</time></trkpt><trkpt lat="41.6440821" lon="1.5217744"><ele>481.0</ele><time>2026-04-27T12:30:56.37Z</time></trkpt><trkpt lat="41.6442141" lon="1.5217076"><ele>481.0</ele><time>2026-04-27T12:30:57.367Z</time></trkpt><trkpt lat="41.644358" lon="1.5216333"><ele>481.0</ele><time>2026-04-27T12:30:58.373Z</time></trkpt><trkpt lat="41.6444998" lon="1.5215514"><ele>479.0</ele><time>2026-04-27T12:30:59.374Z</time></trkpt><trkpt lat="41.6446466" lon="1.5214842"><ele>477.0</ele><time>2026-04-27T12:31:00.367Z</time></trkpt><trkpt lat="41.644802" lon="1.5214151"><ele>475.0</ele><time>2026-04-27T12:31:01.363Z</time></trkpt><trkpt lat="41.644954" lon="1.5213566"><ele>475.0</ele><time>2026-04-27T12:31:02.365Z</time></trkpt><trkpt lat="41.6450978" lon="1.5213057"><ele>475.0</ele><time>2026-04-27T12:31:03.363Z</time></trkpt><trkpt lat="41.6452433" lon="1.5212567"><ele>475.0</ele><time>2026-04-27T12:31:04.357Z</time></trkpt><trkpt lat="41.6453972" lon="1.5212203"><ele>484.0</ele><time>2026-04-27T12:31:05.361Z</time></trkpt><trkpt lat="41.6455478" lon="1.5211818"><ele>493.0</ele><time>2026-04-27T12:31:06.36Z</time></trkpt><trkpt lat="41.6457004" lon="1.52115"><ele>502.0</ele><time>2026-04-27T12:31:07.366Z</time></trkpt><trkpt lat="41.6458528" lon="1.5211057"><ele>502.0</ele><time>2026-04-27T12:31:08.358Z</time></trkpt><trkpt lat="41.6460078" lon="1.5210585"><ele>502.0</ele><time>2026-04-27T12:31:09.364Z</time></trkpt><trkpt lat="41.6461646" lon="1.5210155"><ele>502.0</ele><time>2026-04-27T12:31:10.364Z</time></trkpt><trkpt lat="41.6463245" lon="1.5209693"><ele>498.6666666666667</ele><time>2026-04-27T12:31:11.366Z</time></trkpt><trkpt lat="41.6464859" lon="1.5209252"><ele>495.33333333333337</ele><time>2026-04-27T12:31:12.362Z</time></trkpt><trkpt lat="41.6466434" lon="1.5208811"><ele>492.0</ele><time>2026-04-27T12:31:13.366Z</time></trkpt><trkpt lat="41.6468011" lon="1.5208217"><ele>491.0</ele><time>2026-04-27T12:31:14.362Z</time></trkpt><trkpt lat="41.6469663" lon="1.520775"><ele>490.0</ele><time>2026-04-27T12:31:15.361Z</time></trkpt><trkpt lat="41.6471263" lon="1.5207138"><ele>489.0</ele><time>2026-04-27T12:31:16.361Z</time></trkpt><trkpt lat="41.6472759" lon="1.5206632"><ele>489.0</ele><time>2026-04-27T12:31:17.363Z</time></trkpt><trkpt lat="41.647438" lon="1.520618"><ele>489.0</ele><time>2026-04-27T12:31:18.36Z</time></trkpt><trkpt lat="41.6475942" lon="1.5205717"><ele>489.0</ele><time>2026-04-27T12:31:19.366Z</time></trkpt><trkpt lat="41.6477502" lon="1.5205257"><ele>487.66666666666663</ele><time>2026-04-27T12:31:20.363Z</time></trkpt><trkpt lat="41.6479066" lon="1.5204724"><ele>486.3333333333333</ele><time>2026-04-27T12:31:21.374Z</time></trkpt><trkpt lat="41.6480675" lon="1.5204278"><ele>485.0</ele><time>2026-04-27T12:31:22.374Z</time></trkpt><trkpt lat="41.648222" lon="1.5203805"><ele>488.66666666666663</ele><time>2026-04-27T12:31:23.382Z</time></trkpt><trkpt lat="41.6483771" lon="1.5203409"><ele>492.33333333333337</ele><time>2026-04-27T12:31:24.375Z</time></trkpt><trkpt lat="41.6485355" lon="1.5202945"><ele>496.0</ele><time>2026-04-27T12:31:25.378Z</time></trkpt><trkpt lat="41.6486957" lon="1.5202469"><ele>497.33333333333337</ele><time>2026-04-27T12:31:26.373Z</time></trkpt><trkpt lat="41.6488515" lon="1.5202018"><ele>498.66666666666663</ele><time>2026-04-27T12:31:27.377Z</time></trkpt><trkpt lat="41.6490116" lon="1.5201588"><ele>500.0</ele><time>2026-04-27T12:31:28.381Z</time></trkpt><trkpt lat="41.6491754" lon="1.5201137"><ele>500.0</ele><time>2026-04-27T12:31:29.387Z</time></trkpt><trkpt lat="41.6493389" lon="1.5200774"><ele>500.0</ele><time>2026-04-27T12:31:30.379Z</time></trkpt><trkpt lat="41.6495038" lon="1.5200463"><ele>500.0</ele><time>2026-04-27T12:31:31.383Z</time></trkpt><trkpt lat="41.6496791" lon="1.5200201"><ele>499.3333333333333</ele><time>2026-04-27T12:31:32.376Z</time></trkpt><trkpt lat="41.6498427" lon="1.520005"><ele>498.66666666666663</ele><time>2026-04-27T12:31:33.382Z</time></trkpt><trkpt lat="41.6500038" lon="1.5199929"><ele>498.0</ele><time>2026-04-27T12:31:34.38Z</time></trkpt><trkpt lat="41.6501762" lon="1.5199977"><ele>499.66666666666663</ele><time>2026-04-27T12:31:35.381Z</time></trkpt><trkpt lat="41.6503463" lon="1.5200179"><ele>501.3333333333333</ele><time>2026-04-27T12:31:36.37Z</time></trkpt><trkpt lat="41.6505185" lon="1.5200474"><ele>503.0</ele><time>2026-04-27T12:31:37.373Z</time></trkpt><trkpt lat="41.6506807" lon="1.5200813"><ele>503.0</ele><time>2026-04-27T12:31:38.371Z</time></trkpt><trkpt lat="41.6508435" lon="1.5201387"><ele>503.0</ele><time>2026-04-27T12:31:39.373Z</time></trkpt><trkpt lat="41.6509993" lon="1.5202179"><ele>503.0</ele><time>2026-04-27T12:31:40.369Z</time></trkpt><trkpt lat="41.6511496" lon="1.5203005"><ele>503.0</ele><time>2026-04-27T12:31:41.371Z</time></trkpt><trkpt lat="41.6512945" lon="1.5204013"><ele>503.0</ele><time>2026-04-27T12:31:42.373Z</time></trkpt><trkpt lat="41.6514337" lon="1.5205155"><ele>503.0</ele><time>2026-04-27T12:31:43.368Z</time></trkpt><trkpt lat="41.6515744" lon="1.5206419"><ele>503.0</ele><time>2026-04-27T12:31:44.373Z</time></trkpt><trkpt lat="41.6517054" lon="1.5207752"><ele>503.0</ele><time>2026-04-27T12:31:45.37Z</time></trkpt><trkpt lat="41.6518306" lon="1.5209171"><ele>503.0</ele><time>2026-04-27T12:31:46.372Z</time></trkpt><trkpt lat="41.6519427" lon="1.5210668"><ele>502.5</ele><time>2026-04-27T12:31:47.379Z</time></trkpt><trkpt lat="41.6520457" lon="1.5212284"><ele>502.0</ele><time>2026-04-27T12:31:48.372Z</time></trkpt><trkpt lat="41.6522378" lon="1.5215781"><ele>503.0</ele><time>2026-04-27T12:31:50.375Z</time></trkpt><trkpt lat="41.6523317" lon="1.5217571"><ele>504.0</ele><time>2026-04-27T12:31:51.376Z</time></trkpt><trkpt lat="41.6524192" lon="1.5219352"><ele>505.0</ele><time>2026-04-27T12:31:52.376Z</time></trkpt><trkpt lat="41.652507" lon="1.5221087"><ele>505.0</ele><time>2026-04-27T12:31:53.374Z</time></trkpt><trkpt lat="41.6525984" lon="1.5222829"><ele>505.0</ele><time>2026-04-27T12:31:54.376Z</time></trkpt><trkpt lat="41.6526981" lon="1.5224683"><ele>505.0</ele><time>2026-04-27T12:31:55.378Z</time></trkpt><trkpt lat="41.6527949" lon="1.5226425"><ele>509.33333333333337</ele><time>2026-04-27T12:31:56.374Z</time></trkpt><trkpt lat="41.6528869" lon="1.5228102"><ele>513.6666666666666</ele><time>2026-04-27T12:31:57.379Z</time></trkpt><trkpt lat="41.6529829" lon="1.5229883"><ele>518.0</ele><time>2026-04-27T12:31:58.378Z</time></trkpt><trkpt lat="41.6530777" lon="1.5231705"><ele>518.0</ele><time>2026-04-27T12:31:59.384Z</time></trkpt><trkpt lat="41.6531712" lon="1.5233439"><ele>518.0</ele><time>2026-04-27T12:32:00.373Z</time></trkpt><trkpt lat="41.6532702" lon="1.5235209"><ele>518.0</ele><time>2026-04-27T12:32:01.378Z</time></trkpt><trkpt lat="41.6533696" lon="1.523699"><ele>515.0</ele><time>2026-04-27T12:32:02.369Z</time></trkpt><trkpt lat="41.6534694" lon="1.5238733"><ele>512.0</ele><time>2026-04-27T12:32:03.369Z</time></trkpt><trkpt lat="41.6535792" lon="1.5240447"><ele>509.0</ele><time>2026-04-27T12:32:04.368Z</time></trkpt><trkpt lat="41.6536899" lon="1.5242105"><ele>511.0</ele><time>2026-04-27T12:32:05.374Z</time></trkpt><trkpt lat="41.6538085" lon="1.5243651"><ele>513.0</ele><time>2026-04-27T12:32:06.367Z</time></trkpt><trkpt lat="41.6539368" lon="1.5245149"><ele>515.0</ele><time>2026-04-27T12:32:07.369Z</time></trkpt><trkpt lat="41.6540664" lon="1.524653"><ele>515.0</ele><time>2026-04-27T12:32:08.369Z</time></trkpt><trkpt lat="41.6542005" lon="1.5247872"><ele>515.0</ele><time>2026-04-27T12:32:09.376Z</time></trkpt><trkpt lat="41.654341" lon="1.5249113"><ele>515.0</ele><time>2026-04-27T12:32:10.377Z</time></trkpt><trkpt lat="41.6544838" lon="1.5250252"><ele>519.6666666666666</ele><time>2026-04-27T12:32:11.369Z</time></trkpt><trkpt lat="41.6546305" lon="1.5251209"><ele>524.3333333333334</ele><time>2026-04-27T12:32:12.37Z</time></trkpt><trkpt lat="41.6547844" lon="1.5252264"><ele>529.0</ele><time>2026-04-27T12:32:13.372Z</time></trkpt><trkpt lat="41.6549392" lon="1.5253203"><ele>527.3333333333334</ele><time>2026-04-27T12:32:14.374Z</time></trkpt><trkpt lat="41.6550958" lon="1.525405"><ele>525.6666666666666</ele><time>2026-04-27T12:32:15.377Z</time></trkpt><trkpt lat="41.6552505" lon="1.5254868"><ele>524.0</ele><time>2026-04-27T12:32:16.38Z</time></trkpt><trkpt lat="41.6554035" lon="1.5255666"><ele>524.0</ele><time>2026-04-27T12:32:17.375Z</time></trkpt><trkpt lat="41.6555584" lon="1.5256461"><ele>524.0</ele><time>2026-04-27T12:32:18.373Z</time></trkpt><trkpt lat="41.6557136" lon="1.5257192"><ele>524.0</ele><time>2026-04-27T12:32:19.372Z</time></trkpt><trkpt lat="41.6558733" lon="1.5257895"><ele>524.0</ele><time>2026-04-27T12:32:20.371Z</time></trkpt><trkpt lat="41.6560354" lon="1.5258577"><ele>524.0</ele><time>2026-04-27T12:32:21.37Z</time></trkpt><trkpt lat="41.6561979" lon="1.5259251"><ele>524.0</ele><time>2026-04-27T12:32:22.376Z</time></trkpt><trkpt lat="41.6563632" lon="1.5259816"><ele>527.3333333333333</ele><time>2026-04-27T12:32:23.366Z</time></trkpt><trkpt lat="41.6565228" lon="1.5260372"><ele>530.6666666666666</ele><time>2026-04-27T12:32:24.366Z</time></trkpt><trkpt lat="41.6566886" lon="1.5260897"><ele>534.0</ele><time>2026-04-27T12:32:25.374Z</time></trkpt><trkpt lat="41.6568489" lon="1.5261375"><ele>537.6666666666666</ele><time>2026-04-27T12:32:26.371Z</time></trkpt><trkpt lat="41.6570166" lon="1.5261866"><ele>541.3333333333333</ele><time>2026-04-27T12:32:27.373Z</time></trkpt><trkpt lat="41.6571787" lon="1.5262171"><ele>545.0</ele><time>2026-04-27T12:32:28.369Z</time></trkpt><trkpt lat="41.6573417" lon="1.5262369"><ele>539.0</ele><time>2026-04-27T12:32:29.378Z</time></trkpt><trkpt lat="41.6575075" lon="1.5262495"><ele>533.0</ele><time>2026-04-27T12:32:30.373Z</time></trkpt><trkpt lat="41.6576789" lon="1.5262672"><ele>527.0</ele><time>2026-04-27T12:32:31.373Z</time></trkpt><trkpt lat="41.6578545" lon="1.5262804"><ele>527.0</ele><time>2026-04-27T12:32:32.371Z</time></trkpt><trkpt lat="41.6580263" lon="1.5262778"><ele>527.0</ele><time>2026-04-27T12:32:33.375Z</time></trkpt><trkpt lat="41.6581926" lon="1.5262598"><ele>527.0</ele><time>2026-04-27T12:32:34.368Z</time></trkpt><trkpt lat="41.6583696" lon="1.526234"><ele>533.0</ele><time>2026-04-27T12:32:35.374Z</time></trkpt><trkpt lat="41.6585367" lon="1.5261983"><ele>539.0</ele><time>2026-04-27T12:32:36.371Z</time></trkpt><trkpt lat="41.6587004" lon="1.5261603"><ele>545.0</ele><time>2026-04-27T12:32:37.372Z</time></trkpt><trkpt lat="41.6588683" lon="1.5261158"><ele>545.0</ele><time>2026-04-27T12:32:38.372Z</time></trkpt><trkpt lat="41.6590298" lon="1.526056"><ele>545.0</ele><time>2026-04-27T12:32:39.371Z</time></trkpt><trkpt lat="41.6591966" lon="1.5260023"><ele>545.0</ele><time>2026-04-27T12:32:40.371Z</time></trkpt><trkpt lat="41.6593601" lon="1.5259443"><ele>543.0</ele><time>2026-04-27T12:32:41.373Z</time></trkpt><trkpt lat="41.6595328" lon="1.5258975"><ele>541.0</ele><time>2026-04-27T12:32:42.369Z</time></trkpt><trkpt lat="41.659701" lon="1.5258526"><ele>539.0</ele><time>2026-04-27T12:32:43.374Z</time></trkpt><trkpt lat="41.659862" lon="1.5258039"><ele>539.0</ele><time>2026-04-27T12:32:44.371Z</time></trkpt><trkpt lat="41.6600296" lon="1.5257441"><ele>539.0</ele><time>2026-04-27T12:32:45.374Z</time></trkpt><trkpt lat="41.6601878" lon="1.5256936"><ele>539.0</ele><time>2026-04-27T12:32:46.373Z</time></trkpt><trkpt lat="41.6603473" lon="1.5256523"><ele>539.3333333333333</ele><time>2026-04-27T12:32:47.374Z</time></trkpt><trkpt lat="41.6605002" lon="1.5256012"><ele>539.6666666666666</ele><time>2026-04-27T12:32:48.37Z</time></trkpt><trkpt lat="41.66066" lon="1.5255486"><ele>540.0</ele><time>2026-04-27T12:32:49.373Z</time></trkpt><trkpt lat="41.660829" lon="1.5254993"><ele>540.0</ele><time>2026-04-27T12:32:50.37Z</time></trkpt><trkpt lat="41.6609937" lon="1.5254448"><ele>540.0</ele><time>2026-04-27T12:32:51.37Z</time></trkpt><trkpt lat="41.6611528" lon="1.5253951"><ele>540.0</ele><time>2026-04-27T12:32:52.372Z</time></trkpt><trkpt lat="41.6613175" lon="1.5253519"><ele>543.6666666666666</ele><time>2026-04-27T12:32:53.371Z</time></trkpt><trkpt lat="41.6614901" lon="1.5253019"><ele>547.3333333333333</ele><time>2026-04-27T12:32:54.373Z</time></trkpt><trkpt lat="41.6616521" lon="1.5252448"><ele>551.0</ele><time>2026-04-27T12:32:55.371Z</time></trkpt><trkpt lat="41.6618169" lon="1.5251849"><ele>550.6666666666666</ele><time>2026-04-27T12:32:56.373Z</time></trkpt><trkpt lat="41.6619785" lon="1.5251181"><ele>550.3333333333334</ele><time>2026-04-27T12:32:57.372Z</time></trkpt><trkpt lat="41.6621337" lon="1.5250461"><ele>550.0</ele><time>2026-04-27T12:32:58.373Z</time></trkpt><trkpt lat="41.6622979" lon="1.5249719"><ele>550.0</ele><time>2026-04-27T12:32:59.376Z</time></trkpt><trkpt lat="41.6624556" lon="1.524897"><ele>550.0</ele><time>2026-04-27T12:33:00.372Z</time></trkpt><trkpt lat="41.6626167" lon="1.5248122"><ele>550.0</ele><time>2026-04-27T12:33:01.374Z</time></trkpt><trkpt lat="41.6627809" lon="1.5247189"><ele>550.0</ele><time>2026-04-27T12:33:02.373Z</time></trkpt><trkpt lat="41.6629408" lon="1.5246345"><ele>550.0</ele><time>2026-04-27T12:33:03.374Z</time></trkpt><trkpt lat="41.6631023" lon="1.5245402"><ele>550.0</ele><time>2026-04-27T12:33:04.369Z</time></trkpt><trkpt lat="41.6632579" lon="1.5244486"><ele>550.0</ele><time>2026-04-27T12:33:05.369Z</time></trkpt><trkpt lat="41.6634201" lon="1.5243537"><ele>550.0</ele><time>2026-04-27T12:33:06.371Z</time></trkpt><trkpt lat="41.6635792" lon="1.5242669"><ele>550.0</ele><time>2026-04-27T12:33:07.374Z</time></trkpt><trkpt lat="41.6637341" lon="1.5241722"><ele>550.3333333333334</ele><time>2026-04-27T12:33:08.373Z</time></trkpt><trkpt lat="41.6638897" lon="1.5240814"><ele>550.6666666666666</ele><time>2026-04-27T12:33:09.375Z</time></trkpt><trkpt lat="41.6640441" lon="1.5239984"><ele>551.0</ele><time>2026-04-27T12:33:10.376Z</time></trkpt><trkpt lat="41.6642068" lon="1.5239095"><ele>551.0</ele><time>2026-04-27T12:33:11.376Z</time></trkpt><trkpt lat="41.6643615" lon="1.5238173"><ele>551.0</ele><time>2026-04-27T12:33:12.373Z</time></trkpt><trkpt lat="41.6646908" lon="1.5236399"><ele>556.0</ele><time>2026-04-27T12:33:14.373Z</time></trkpt><trkpt lat="41.6648555" lon="1.5235491"><ele>561.0</ele><time>2026-04-27T12:33:15.372Z</time></trkpt><trkpt lat="41.6650109" lon="1.5234567"><ele>566.0</ele><time>2026-04-27T12:33:16.37Z</time></trkpt><trkpt lat="41.6651691" lon="1.5233622"><ele>562.6666666666666</ele><time>2026-04-27T12:33:17.376Z</time></trkpt><trkpt lat="41.6653313" lon="1.5232686"><ele>559.3333333333334</ele><time>2026-04-27T12:33:18.37Z</time></trkpt><trkpt lat="41.6654911" lon="1.5231852"><ele>556.0</ele><time>2026-04-27T12:33:19.371Z</time></trkpt><trkpt lat="41.6656456" lon="1.523098"><ele>556.0</ele><time>2026-04-27T12:33:20.372Z</time></trkpt><trkpt lat="41.6657916" lon="1.5230144"><ele>556.0</ele><time>2026-04-27T12:33:21.369Z</time></trkpt><trkpt lat="41.6659441" lon="1.5229371"><ele>556.0</ele><time>2026-04-27T12:33:22.371Z</time></trkpt><trkpt lat="41.6660886" lon="1.5228529"><ele>559.6666666666667</ele><time>2026-04-27T12:33:23.371Z</time></trkpt><trkpt lat="41.6662268" lon="1.5227727"><ele>563.3333333333334</ele><time>2026-04-27T12:33:24.369Z</time></trkpt><trkpt lat="41.6663667" lon="1.5227028"><ele>567.0</ele><time>2026-04-27T12:33:25.369Z</time></trkpt><trkpt lat="41.6665164" lon="1.5226474"><ele>567.0</ele><time>2026-04-27T12:33:26.367Z</time></trkpt><trkpt lat="41.6666624" lon="1.5226202"><ele>567.0</ele><time>2026-04-27T12:33:27.375Z</time></trkpt><trkpt lat="41.6668208" lon="1.5226226"><ele>567.0</ele><time>2026-04-27T12:33:28.37Z</time></trkpt><trkpt lat="41.6669709" lon="1.5226633"><ele>562.6666666666666</ele><time>2026-04-27T12:33:29.376Z</time></trkpt><trkpt lat="41.667122" lon="1.5227177"><ele>558.3333333333333</ele><time>2026-04-27T12:33:30.367Z</time></trkpt><trkpt lat="41.667264" lon="1.5227888"><ele>554.0</ele><time>2026-04-27T12:33:31.372Z</time></trkpt><trkpt lat="41.6673955" lon="1.522864"><ele>553.0</ele><time>2026-04-27T12:33:32.357Z</time></trkpt><trkpt lat="41.6675086" lon="1.522984"><ele>552.0</ele><time>2026-04-27T12:33:33.371Z</time></trkpt><trkpt lat="41.6676227" lon="1.5231173"><ele>551.0</ele><time>2026-04-27T12:33:34.37Z</time></trkpt><trkpt lat="41.6677197" lon="1.523263"><ele>550.0</ele><time>2026-04-27T12:33:35.376Z</time></trkpt><trkpt lat="41.6677996" lon="1.5234265"><ele>553.5</ele><time>2026-04-27T12:33:36.372Z</time></trkpt><trkpt lat="41.6678682" lon="1.5236072"><ele>557.0</ele><time>2026-04-27T12:33:37.374Z</time></trkpt><trkpt lat="41.6679122" lon="1.5237928"><ele>560.5</ele><time>2026-04-27T12:33:38.372Z</time></trkpt><trkpt lat="41.6679611" lon="1.5239779"><ele>564.0</ele><time>2026-04-27T12:33:39.374Z</time></trkpt><trkpt lat="41.6680044" lon="1.5241676"><ele>565.0</ele><time>2026-04-27T12:33:40.374Z</time></trkpt><trkpt lat="41.6680513" lon="1.5243484"><ele>566.0</ele><time>2026-04-27T12:33:41.378Z</time></trkpt><trkpt lat="41.6680911" lon="1.5245348"><ele>567.0</ele><time>2026-04-27T12:33:42.379Z</time></trkpt><trkpt lat="41.6681468" lon="1.5247206"><ele>568.0</ele><time>2026-04-27T12:33:43.378Z</time></trkpt><trkpt lat="41.6682153" lon="1.5248961"><ele>568.0</ele><time>2026-04-27T12:33:44.372Z</time></trkpt><trkpt lat="41.6683065" lon="1.5250556"><ele>568.0</ele><time>2026-04-27T12:33:45.38Z</time></trkpt><trkpt lat="41.6684087" lon="1.5252133"><ele>568.0</ele><time>2026-04-27T12:33:46.371Z</time></trkpt><trkpt lat="41.6685214" lon="1.5253498"><ele>565.6666666666667</ele><time>2026-04-27T12:33:47.369Z</time></trkpt><trkpt lat="41.6686467" lon="1.5254567"><ele>563.3333333333334</ele><time>2026-04-27T12:33:48.37Z</time></trkpt><trkpt lat="41.6687834" lon="1.5255284"><ele>561.0</ele><time>2026-04-27T12:33:49.375Z</time></trkpt><trkpt lat="41.6689362" lon="1.5255703"><ele>561.0</ele><time>2026-04-27T12:33:50.361Z</time></trkpt><trkpt lat="41.6690862" lon="1.5256028"><ele>561.0</ele><time>2026-04-27T12:33:51.37Z</time></trkpt><trkpt lat="41.6692391" lon="1.5256044"><ele>561.0</ele><time>2026-04-27T12:33:52.365Z</time></trkpt><trkpt lat="41.6693948" lon="1.525575"><ele>560.5</ele><time>2026-04-27T12:33:53.374Z</time></trkpt><trkpt lat="41.6695371" lon="1.5255169"><ele>560.0</ele><time>2026-04-27T12:33:54.369Z</time></trkpt><trkpt lat="41.6696813" lon="1.5254441"><ele>559.5</ele><time>2026-04-27T12:33:55.372Z</time></trkpt><trkpt lat="41.6698127" lon="1.5253652"><ele>559.0</ele><time>2026-04-27T12:33:56.369Z</time></trkpt><trkpt lat="41.6699509" lon="1.5252617"><ele>561.0</ele><time>2026-04-27T12:33:57.37Z</time></trkpt><trkpt lat="41.6700723" lon="1.525168"><ele>563.0</ele><time>2026-04-27T12:33:58.382Z</time></trkpt><trkpt lat="41.6702115" lon="1.5250738"><ele>565.0</ele><time>2026-04-27T12:33:59.374Z</time></trkpt><trkpt lat="41.6703591" lon="1.5249676"><ele>565.0</ele><time>2026-04-27T12:34:00.372Z</time></trkpt><trkpt lat="41.6705004" lon="1.5248718"><ele>565.0</ele><time>2026-04-27T12:34:01.375Z</time></trkpt><trkpt lat="41.6706395" lon="1.5247716"><ele>565.0</ele><time>2026-04-27T12:34:02.374Z</time></trkpt><trkpt lat="41.6707768" lon="1.5246837"><ele>565.0</ele><time>2026-04-27T12:34:03.376Z</time></trkpt><trkpt lat="41.6709189" lon="1.524608"><ele>565.0</ele><time>2026-04-27T12:34:04.376Z</time></trkpt><trkpt lat="41.6710688" lon="1.5245476"><ele>565.0</ele><time>2026-04-27T12:34:05.378Z</time></trkpt><trkpt lat="41.6712257" lon="1.5244937"><ele>567.6666666666667</ele><time>2026-04-27T12:34:06.377Z</time></trkpt><trkpt lat="41.6713764" lon="1.5244526"><ele>570.3333333333334</ele><time>2026-04-27T12:34:07.384Z</time></trkpt><trkpt lat="41.6715287" lon="1.5244131"><ele>573.0</ele><time>2026-04-27T12:34:08.375Z</time></trkpt><trkpt lat="41.6716806" lon="1.5243917"><ele>573.0</ele><time>2026-04-27T12:34:09.382Z</time></trkpt><trkpt lat="41.6718403" lon="1.5243699"><ele>573.0</ele><time>2026-04-27T12:34:10.379Z</time></trkpt><trkpt lat="41.6720028" lon="1.5243511"><ele>573.0</ele><time>2026-04-27T12:34:11.383Z</time></trkpt><trkpt lat="41.672165" lon="1.5243443"><ele>574.3333333333334</ele><time>2026-04-27T12:34:12.381Z</time></trkpt><trkpt lat="41.6723212" lon="1.5243484"><ele>575.6666666666667</ele><time>2026-04-27T12:34:13.386Z</time></trkpt><trkpt lat="41.6724854" lon="1.5243501"><ele>577.0</ele><time>2026-04-27T12:34:14.381Z</time></trkpt><trkpt lat="41.6726385" lon="1.5243689"><ele>577.6666666666667</ele><time>2026-04-27T12:34:15.378Z</time></trkpt><trkpt lat="41.6728027" lon="1.5243983"><ele>578.3333333333334</ele><time>2026-04-27T12:34:16.379Z</time></trkpt><trkpt lat="41.6729674" lon="1.5244437"><ele>579.0</ele><time>2026-04-27T12:34:17.382Z</time></trkpt><trkpt lat="41.6731249" lon="1.524491"><ele>579.0</ele><time>2026-04-27T12:34:18.38Z</time></trkpt><trkpt lat="41.6732792" lon="1.5245479"><ele>579.0</ele><time>2026-04-27T12:34:19.384Z</time></trkpt><trkpt lat="41.673423" lon="1.5246157"><ele>579.0</ele><time>2026-04-27T12:34:20.379Z</time></trkpt><trkpt lat="41.6735613" lon="1.5246832"><ele>578.6666666666666</ele><time>2026-04-27T12:34:21.384Z</time></trkpt><trkpt lat="41.6737122" lon="1.5247678"><ele>578.3333333333333</ele><time>2026-04-27T12:34:22.383Z</time></trkpt><trkpt lat="41.673864" lon="1.5248599"><ele>578.0</ele><time>2026-04-27T12:34:23.379Z</time></trkpt><trkpt lat="41.6740214" lon="1.5249532"><ele>578.0</ele><time>2026-04-27T12:34:24.37Z</time></trkpt><trkpt lat="41.6741645" lon="1.525051"><ele>578.0</ele><time>2026-04-27T12:34:25.379Z</time></trkpt><trkpt lat="41.6743054" lon="1.5251523"><ele>578.0</ele><time>2026-04-27T12:34:26.377Z</time></trkpt><trkpt lat="41.6744522" lon="1.525257"><ele>578.6666666666666</ele><time>2026-04-27T12:34:27.382Z</time></trkpt><trkpt lat="41.674597" lon="1.5253643"><ele>579.3333333333334</ele><time>2026-04-27T12:34:28.371Z</time></trkpt><trkpt lat="41.6747405" lon="1.5254594"><ele>580.0</ele><time>2026-04-27T12:34:29.382Z</time></trkpt><trkpt lat="41.6748839" lon="1.5255606"><ele>580.0</ele><time>2026-04-27T12:34:30.376Z</time></trkpt><trkpt lat="41.6750294" lon="1.5256395"><ele>580.0</ele><time>2026-04-27T12:34:31.376Z</time></trkpt><trkpt lat="41.6751803" lon="1.525708"><ele>580.0</ele><time>2026-04-27T12:34:32.374Z</time></trkpt><trkpt lat="41.6753317" lon="1.5257669"><ele>581.3333333333334</ele><time>2026-04-27T12:34:33.373Z</time></trkpt><trkpt lat="41.6754854" lon="1.5258112"><ele>582.6666666666666</ele><time>2026-04-27T12:34:34.373Z</time></trkpt><trkpt lat="41.6756417" lon="1.5258526"><ele>584.0</ele><time>2026-04-27T12:34:35.374Z</time></trkpt><trkpt lat="41.6757888" lon="1.5258821"><ele>584.0</ele><time>2026-04-27T12:34:36.373Z</time></trkpt><trkpt lat="41.6759501" lon="1.5259117"><ele>584.0</ele><time>2026-04-27T12:34:37.363Z</time></trkpt><trkpt lat="41.6761082" lon="1.5259172"><ele>584.0</ele><time>2026-04-27T12:34:38.368Z</time></trkpt><trkpt lat="41.6762782" lon="1.5259138"><ele>584.0</ele><time>2026-04-27T12:34:39.371Z</time></trkpt><trkpt lat="41.6764478" lon="1.5259076"><ele>584.0</ele><time>2026-04-27T12:34:40.374Z</time></trkpt><trkpt lat="41.6766179" lon="1.5258839"><ele>584.0</ele><time>2026-04-27T12:34:41.38Z</time></trkpt><trkpt lat="41.6767826" lon="1.5258511"><ele>584.0</ele><time>2026-04-27T12:34:42.381Z</time></trkpt><trkpt lat="41.6769244" lon="1.5258045"><ele>584.0</ele><time>2026-04-27T12:34:43.371Z</time></trkpt><trkpt lat="41.6770804" lon="1.5257378"><ele>584.0</ele><time>2026-04-27T12:34:44.368Z</time></trkpt><trkpt lat="41.6772481" lon="1.5256757"><ele>583.3333333333333</ele><time>2026-04-27T12:34:45.373Z</time></trkpt><trkpt lat="41.677415" lon="1.5256104"><ele>582.6666666666666</ele><time>2026-04-27T12:34:46.367Z</time></trkpt><trkpt lat="41.6775659" lon="1.525523"><ele>582.0</ele><time>2026-04-27T12:34:47.375Z</time></trkpt><trkpt lat="41.677729" lon="1.5254388"><ele>582.0</ele><time>2026-04-27T12:34:48.376Z</time></trkpt><trkpt lat="41.6778931" lon="1.5253508"><ele>582.0</ele><time>2026-04-27T12:34:49.371Z</time></trkpt><trkpt lat="41.6780677" lon="1.5252914"><ele>582.0</ele><time>2026-04-27T12:34:50.373Z</time></trkpt><trkpt lat="41.6782213" lon="1.5252366"><ele>582.0</ele><time>2026-04-27T12:34:51.374Z</time></trkpt><trkpt lat="41.6783692" lon="1.5251684"><ele>582.0</ele><time>2026-04-27T12:34:52.376Z</time></trkpt><trkpt lat="41.6785183" lon="1.5250873"><ele>582.0</ele><time>2026-04-27T12:34:53.373Z</time></trkpt><trkpt lat="41.6786893" lon="1.5250177"><ele>580.0</ele><time>2026-04-27T12:34:54.371Z</time></trkpt><trkpt lat="41.6788475" lon="1.5249497"><ele>578.0</ele><time>2026-04-27T12:34:55.371Z</time></trkpt><trkpt lat="41.6790001" lon="1.5248803"><ele>576.0</ele><time>2026-04-27T12:34:56.375Z</time></trkpt><trkpt lat="41.6791633" lon="1.5248042"><ele>576.0</ele><time>2026-04-27T12:34:57.379Z</time></trkpt><trkpt lat="41.679323" lon="1.5247211"><ele>576.0</ele><time>2026-04-27T12:34:58.375Z</time></trkpt><trkpt lat="41.6796446" lon="1.5245905"><ele>576.3333333333334</ele><time>2026-04-27T12:35:00.36Z</time></trkpt><trkpt lat="41.6798099" lon="1.5245572"><ele>576.6666666666667</ele><time>2026-04-27T12:35:01.368Z</time></trkpt><trkpt lat="41.6799871" lon="1.5245363"><ele>577.0</ele><time>2026-04-27T12:35:02.375Z</time></trkpt><trkpt lat="41.6801766" lon="1.5245728"><ele>579.0</ele><time>2026-04-27T12:35:03.374Z</time></trkpt><trkpt lat="41.6803546" lon="1.5246173"><ele>581.0</ele><time>2026-04-27T12:35:04.372Z</time></trkpt><trkpt lat="41.6805232" lon="1.5246611"><ele>583.0</ele><time>2026-04-27T12:35:05.383Z</time></trkpt><trkpt lat="41.6806842" lon="1.5247276"><ele>583.0</ele><time>2026-04-27T12:35:06.37Z</time></trkpt><trkpt lat="41.6808285" lon="1.524814"><ele>583.0</ele><time>2026-04-27T12:35:07.38Z</time></trkpt><trkpt lat="41.6809712" lon="1.5249362"><ele>583.0</ele><time>2026-04-27T12:35:08.367Z</time></trkpt><trkpt lat="41.6811076" lon="1.5250595"><ele>587.0</ele><time>2026-04-27T12:35:09.378Z</time></trkpt><trkpt lat="41.6812124" lon="1.5252162"><ele>591.0</ele><time>2026-04-27T12:35:10.368Z</time></trkpt><trkpt lat="41.6813207" lon="1.5253758"><ele>595.0</ele><time>2026-04-27T12:35:11.372Z</time></trkpt><trkpt lat="41.6814237" lon="1.525545"><ele>597.0</ele><time>2026-04-27T12:35:12.375Z</time></trkpt><trkpt lat="41.6815005" lon="1.5257338"><ele>599.0</ele><time>2026-04-27T12:35:13.374Z</time></trkpt><trkpt lat="41.6815692" lon="1.52593"><ele>601.0</ele><time>2026-04-27T12:35:14.374Z</time></trkpt><trkpt lat="41.6816367" lon="1.5261309"><ele>601.6666666666667</ele><time>2026-04-27T12:35:15.374Z</time></trkpt><trkpt lat="41.6816978" lon="1.5263277"><ele>602.3333333333334</ele><time>2026-04-27T12:35:16.371Z</time></trkpt><trkpt lat="41.6817627" lon="1.5265292"><ele>603.0</ele><time>2026-04-27T12:35:17.37Z</time></trkpt><trkpt lat="41.6818448" lon="1.5267201"><ele>604.3333333333334</ele><time>2026-04-27T12:35:18.367Z</time></trkpt><trkpt lat="41.6819392" lon="1.5268969"><ele>605.6666666666667</ele><time>2026-04-27T12:35:19.372Z</time></trkpt><trkpt lat="41.6820282" lon="1.5270584"><ele>607.0</ele><time>2026-04-27T12:35:20.37Z</time></trkpt><trkpt lat="41.6821436" lon="1.5271937"><ele>604.3333333333334</ele><time>2026-04-27T12:35:21.37Z</time></trkpt><trkpt lat="41.682259" lon="1.527337"><ele>601.6666666666666</ele><time>2026-04-27T12:35:22.368Z</time></trkpt><trkpt lat="41.6823873" lon="1.5274496"><ele>599.0</ele><time>2026-04-27T12:35:23.366Z</time></trkpt><trkpt lat="41.6825363" lon="1.5275467"><ele>599.0</ele><time>2026-04-27T12:35:24.368Z</time></trkpt><trkpt lat="41.6826887" lon="1.5276385"><ele>599.0</ele><time>2026-04-27T12:35:25.368Z</time></trkpt><trkpt lat="41.6828447" lon="1.5277156"><ele>599.0</ele><time>2026-04-27T12:35:26.37Z</time></trkpt><trkpt lat="41.6830067" lon="1.5277806"><ele>599.6666666666666</ele><time>2026-04-27T12:35:27.37Z</time></trkpt><trkpt lat="41.6831649" lon="1.5278359"><ele>600.3333333333334</ele><time>2026-04-27T12:35:28.376Z</time></trkpt><trkpt lat="41.6833257" lon="1.5278557"><ele>601.0</ele><time>2026-04-27T12:35:29.377Z</time></trkpt><trkpt lat="41.6834855" lon="1.5278655"><ele>600.6666666666667</ele><time>2026-04-27T12:35:30.368Z</time></trkpt><trkpt lat="41.6836439" lon="1.5278847"><ele>600.3333333333334</ele><time>2026-04-27T12:35:31.37Z</time></trkpt><trkpt lat="41.6838064" lon="1.5279086"><ele>600.0</ele><time>2026-04-27T12:35:32.368Z</time></trkpt><trkpt lat="41.6839761" lon="1.5279357"><ele>599.0</ele><time>2026-04-27T12:35:33.376Z</time></trkpt><trkpt lat="41.6841477" lon="1.5279697"><ele>598.0</ele><time>2026-04-27T12:35:34.372Z</time></trkpt><trkpt lat="41.6843159" lon="1.5280002"><ele>597.0</ele><time>2026-04-27T12:35:35.373Z</time></trkpt><trkpt lat="41.6844771" lon="1.5280337"><ele>597.0</ele><time>2026-04-27T12:35:36.37Z</time></trkpt><trkpt lat="41.6846389" lon="1.5280737"><ele>597.0</ele><time>2026-04-27T12:35:37.372Z</time></trkpt><trkpt lat="41.6847843" lon="1.5281263"><ele>597.0</ele><time>2026-04-27T12:35:38.373Z</time></trkpt><trkpt lat="41.6849349" lon="1.5281946"><ele>597.0</ele><time>2026-04-27T12:35:39.377Z</time></trkpt><trkpt lat="41.6850909" lon="1.5282673"><ele>597.0</ele><time>2026-04-27T12:35:40.372Z</time></trkpt><trkpt lat="41.6852419" lon="1.5283536"><ele>597.0</ele><time>2026-04-27T12:35:41.374Z</time></trkpt><trkpt lat="41.6853937" lon="1.5284359"><ele>596.6666666666666</ele><time>2026-04-27T12:35:42.378Z</time></trkpt><trkpt lat="41.685534" lon="1.5285291"><ele>596.3333333333333</ele><time>2026-04-27T12:35:43.379Z</time></trkpt><trkpt lat="41.6856617" lon="1.5286361"><ele>596.0</ele><time>2026-04-27T12:35:44.374Z</time></trkpt><trkpt lat="41.6857896" lon="1.5287433"><ele>596.0</ele><time>2026-04-27T12:35:45.379Z</time></trkpt><trkpt lat="41.6859262" lon="1.5288434"><ele>596.0</ele><time>2026-04-27T12:35:46.376Z</time></trkpt><trkpt lat="41.6860726" lon="1.5289528"><ele>596.0</ele><time>2026-04-27T12:35:47.382Z</time></trkpt><trkpt lat="41.6862084" lon="1.5290587"><ele>595.3333333333333</ele><time>2026-04-27T12:35:48.376Z</time></trkpt><trkpt lat="41.6863364" lon="1.5291669"><ele>594.6666666666666</ele><time>2026-04-27T12:35:49.381Z</time></trkpt><trkpt lat="41.6864664" lon="1.5292733"><ele>594.0</ele><time>2026-04-27T12:35:50.372Z</time></trkpt><trkpt lat="41.6866171" lon="1.5293797"><ele>594.0</ele><time>2026-04-27T12:35:51.379Z</time></trkpt><trkpt lat="41.6867485" lon="1.5294917"><ele>594.0</ele><time>2026-04-27T12:35:52.377Z</time></trkpt><trkpt lat="41.6868886" lon="1.529596"><ele>594.0</ele><time>2026-04-27T12:35:53.38Z</time></trkpt><trkpt lat="41.6870211" lon="1.5297005"><ele>595.0</ele><time>2026-04-27T12:35:54.376Z</time></trkpt><trkpt lat="41.6871593" lon="1.5298036"><ele>596.0</ele><time>2026-04-27T12:35:55.383Z</time></trkpt><trkpt lat="41.6873065" lon="1.5298892"><ele>597.0</ele><time>2026-04-27T12:35:56.372Z</time></trkpt><trkpt lat="41.6874701" lon="1.5299648"><ele>597.0</ele><time>2026-04-27T12:35:57.376Z</time></trkpt><trkpt lat="41.6876246" lon="1.5300277"><ele>597.0</ele><time>2026-04-27T12:35:58.373Z</time></trkpt><trkpt lat="41.6877714" lon="1.5300774"><ele>597.0</ele><time>2026-04-27T12:35:59.371Z</time></trkpt><trkpt lat="41.6879303" lon="1.530127"><ele>596.6666666666666</ele><time>2026-04-27T12:36:00.376Z</time></trkpt><trkpt lat="41.6880811" lon="1.5301689"><ele>596.3333333333333</ele><time>2026-04-27T12:36:01.375Z</time></trkpt><trkpt lat="41.6882512" lon="1.5302207"><ele>596.0</ele><time>2026-04-27T12:36:02.372Z</time></trkpt><trkpt lat="41.6884179" lon="1.5302473"><ele>596.0</ele><time>2026-04-27T12:36:03.377Z</time></trkpt><trkpt lat="41.6885773" lon="1.5302795"><ele>596.0</ele><time>2026-04-27T12:36:04.367Z</time></trkpt><trkpt lat="41.6887401" lon="1.5303033"><ele>596.0</ele><time>2026-04-27T12:36:05.377Z</time></trkpt><trkpt lat="41.6888898" lon="1.5303417"><ele>594.3333333333333</ele><time>2026-04-27T12:36:06.371Z</time></trkpt><trkpt lat="41.6890454" lon="1.5303987"><ele>592.6666666666666</ele><time>2026-04-27T12:36:07.377Z</time></trkpt><trkpt lat="41.6892005" lon="1.5304722"><ele>591.0</ele><time>2026-04-27T12:36:08.371Z</time></trkpt><trkpt lat="41.6893483" lon="1.5305499"><ele>590.3333333333334</ele><time>2026-04-27T12:36:09.377Z</time></trkpt><trkpt lat="41.6894949" lon="1.5306402"><ele>589.6666666666667</ele><time>2026-04-27T12:36:10.374Z</time></trkpt><trkpt lat="41.6896327" lon="1.5307462"><ele>589.0</ele><time>2026-04-27T12:36:11.375Z</time></trkpt><trkpt lat="41.6897673" lon="1.5308471"><ele>589.0</ele><time>2026-04-27T12:36:12.376Z</time></trkpt><trkpt lat="41.689904" lon="1.5309587"><ele>589.0</ele><time>2026-04-27T12:36:13.375Z</time></trkpt><trkpt lat="41.6900386" lon="1.5310744"><ele>589.0</ele><time>2026-04-27T12:36:14.382Z</time></trkpt><trkpt lat="41.6901595" lon="1.5312066"><ele>590.6666666666667</ele><time>2026-04-27T12:36:15.373Z</time></trkpt><trkpt lat="41.6902862" lon="1.5313365"><ele>592.3333333333334</ele><time>2026-04-27T12:36:16.376Z</time></trkpt><trkpt lat="41.690419" lon="1.5314623"><ele>594.0</ele><time>2026-04-27T12:36:17.379Z</time></trkpt><trkpt lat="41.690547" lon="1.5315859"><ele>594.0</ele><time>2026-04-27T12:36:18.375Z</time></trkpt><trkpt lat="41.6906736" lon="1.5317131"><ele>594.0</ele><time>2026-04-27T12:36:19.379Z</time></trkpt><trkpt lat="41.6907974" lon="1.5318448"><ele>594.0</ele><time>2026-04-27T12:36:20.376Z</time></trkpt><trkpt lat="41.6909286" lon="1.5319732"><ele>595.0</ele><time>2026-04-27T12:36:21.376Z</time></trkpt><trkpt lat="41.6910676" lon="1.532099"><ele>596.0</ele><time>2026-04-27T12:36:22.377Z</time></trkpt><trkpt lat="41.6912004" lon="1.5322228"><ele>597.0</ele><time>2026-04-27T12:36:23.374Z</time></trkpt><trkpt lat="41.6913362" lon="1.5323504"><ele>597.0</ele><time>2026-04-27T12:36:24.382Z</time></trkpt><trkpt lat="41.691461" lon="1.5324814"><ele>597.0</ele><time>2026-04-27T12:36:25.376Z</time></trkpt><trkpt lat="41.6915946" lon="1.5326091"><ele>597.0</ele><time>2026-04-27T12:36:26.377Z</time></trkpt><trkpt lat="41.6917295" lon="1.5327402"><ele>597.0</ele><time>2026-04-27T12:36:27.37Z</time></trkpt><trkpt lat="41.691863" lon="1.5328752"><ele>597.0</ele><time>2026-04-27T12:36:28.37Z</time></trkpt><trkpt lat="41.6919806" lon="1.5330029"><ele>597.0</ele><time>2026-04-27T12:36:29.377Z</time></trkpt><trkpt lat="41.6921123" lon="1.5331321"><ele>596.3333333333334</ele><time>2026-04-27T12:36:30.366Z</time></trkpt><trkpt lat="41.6922462" lon="1.5332542"><ele>595.6666666666667</ele><time>2026-04-27T12:36:31.372Z</time></trkpt><trkpt lat="41.6923785" lon="1.5333888"><ele>595.0</ele><time>2026-04-27T12:36:32.365Z</time></trkpt><trkpt lat="41.6925058" lon="1.5335172"><ele>595.0</ele><time>2026-04-27T12:36:33.37Z</time></trkpt><trkpt lat="41.6926493" lon="1.5336383"><ele>595.0</ele><time>2026-04-27T12:36:34.364Z</time></trkpt><trkpt lat="41.6927796" lon="1.5337626"><ele>595.0</ele><time>2026-04-27T12:36:35.367Z</time></trkpt><trkpt lat="41.692905" lon="1.533894"><ele>594.6666666666667</ele><time>2026-04-27T12:36:36.37Z</time></trkpt><trkpt lat="41.6930396" lon="1.5340233"><ele>594.3333333333334</ele><time>2026-04-27T12:36:37.368Z</time></trkpt><trkpt lat="41.6931646" lon="1.5341459"><ele>594.0</ele><time>2026-04-27T12:36:38.365Z</time></trkpt><trkpt lat="41.693296" lon="1.5342705"><ele>594.0</ele><time>2026-04-27T12:36:39.368Z</time></trkpt><trkpt lat="41.693416" lon="1.5343993"><ele>594.0</ele><time>2026-04-27T12:36:40.366Z</time></trkpt><trkpt lat="41.6935472" lon="1.5345284"><ele>594.0</ele><time>2026-04-27T12:36:41.378Z</time></trkpt><trkpt lat="41.6936751" lon="1.5346537"><ele>593.3333333333334</ele><time>2026-04-27T12:36:42.378Z</time></trkpt><trkpt lat="41.693808" lon="1.5347863"><ele>592.6666666666667</ele><time>2026-04-27T12:36:43.384Z</time></trkpt><trkpt lat="41.6939363" lon="1.5349163"><ele>592.0</ele><time>2026-04-27T12:36:44.38Z</time></trkpt><trkpt lat="41.6940679" lon="1.5350584"><ele>592.0</ele><time>2026-04-27T12:36:45.372Z</time></trkpt><trkpt lat="41.6941971" lon="1.5351976"><ele>592.0</ele><time>2026-04-27T12:36:46.373Z</time></trkpt><trkpt lat="41.6943231" lon="1.5353515"><ele>592.0</ele><time>2026-04-27T12:36:47.38Z</time></trkpt><trkpt lat="41.6944413" lon="1.535494"><ele>594.6666666666667</ele><time>2026-04-27T12:36:48.375Z</time></trkpt><trkpt lat="41.6945563" lon="1.5356478"><ele>597.3333333333334</ele><time>2026-04-27T12:36:49.37Z</time></trkpt><trkpt lat="41.6946686" lon="1.5358061"><ele>600.0</ele><time>2026-04-27T12:36:50.371Z</time></trkpt><trkpt lat="41.6947732" lon="1.5359619"><ele>600.0</ele><time>2026-04-27T12:36:51.378Z</time></trkpt><trkpt lat="41.6948763" lon="1.5361221"><ele>600.0</ele><time>2026-04-27T12:36:52.372Z</time></trkpt><trkpt lat="41.6949866" lon="1.5362794"><ele>600.0</ele><time>2026-04-27T12:36:53.367Z</time></trkpt><trkpt lat="41.6950963" lon="1.5364442"><ele>600.6666666666666</ele><time>2026-04-27T12:36:54.366Z</time></trkpt><trkpt lat="41.6952014" lon="1.5365938"><ele>601.3333333333333</ele><time>2026-04-27T12:36:55.372Z</time></trkpt><trkpt lat="41.6953115" lon="1.5367419"><ele>602.0</ele><time>2026-04-27T12:36:56.373Z</time></trkpt><trkpt lat="41.6954188" lon="1.5368943"><ele>602.0</ele><time>2026-04-27T12:36:57.376Z</time></trkpt><trkpt lat="41.6955228" lon="1.5370473"><ele>602.0</ele><time>2026-04-27T12:36:58.376Z</time></trkpt><trkpt lat="41.6956327" lon="1.5372043"><ele>602.0</ele><time>2026-04-27T12:36:59.385Z</time></trkpt><trkpt lat="41.6957406" lon="1.5373504"><ele>601.5</ele><time>2026-04-27T12:37:00.373Z</time></trkpt><trkpt lat="41.6958477" lon="1.537495"><ele>601.0</ele><time>2026-04-27T12:37:01.374Z</time></trkpt><trkpt lat="41.6959502" lon="1.5376258"><ele>600.5</ele><time>2026-04-27T12:37:02.377Z</time></trkpt><trkpt lat="41.6960633" lon="1.5377626"><ele>600.0</ele><time>2026-04-27T12:37:03.371Z</time></trkpt><trkpt lat="41.6961831" lon="1.5378906"><ele>599.6666666666666</ele><time>2026-04-27T12:37:04.373Z</time></trkpt><trkpt lat="41.6963053" lon="1.5380062"><ele>599.3333333333333</ele><time>2026-04-27T12:37:05.356Z</time></trkpt><trkpt lat="41.6964245" lon="1.5381191"><ele>599.0</ele><time>2026-04-27T12:37:06.368Z</time></trkpt><trkpt lat="41.6965571" lon="1.5382265"><ele>599.0</ele><time>2026-04-27T12:37:07.365Z</time></trkpt><trkpt lat="41.696709" lon="1.5383169"><ele>599.0</ele><time>2026-04-27T12:37:08.369Z</time></trkpt><trkpt lat="41.6968496" lon="1.5384036"><ele>599.0</ele><time>2026-04-27T12:37:09.376Z</time></trkpt><trkpt lat="41.6969955" lon="1.5384737"><ele>598.3333333333333</ele><time>2026-04-27T12:37:10.378Z</time></trkpt><trkpt lat="41.6971474" lon="1.5385368"><ele>597.6666666666666</ele><time>2026-04-27T12:37:11.376Z</time></trkpt><trkpt lat="41.6973019" lon="1.5386154"><ele>597.0</ele><time>2026-04-27T12:37:12.384Z</time></trkpt><trkpt lat="41.6974559" lon="1.5386735"><ele>597.0</ele><time>2026-04-27T12:37:13.368Z</time></trkpt><trkpt lat="41.6976021" lon="1.5387391"><ele>597.0</ele><time>2026-04-27T12:37:14.381Z</time></trkpt><trkpt lat="41.6977514" lon="1.5388004"><ele>597.0</ele><time>2026-04-27T12:37:15.377Z</time></trkpt><trkpt lat="41.6978999" lon="1.5388534"><ele>597.0</ele><time>2026-04-27T12:37:16.368Z</time></trkpt><trkpt lat="41.6980475" lon="1.5389108"><ele>597.0</ele><time>2026-04-27T12:37:17.373Z</time></trkpt><trkpt lat="41.6982034" lon="1.5389829"><ele>597.0</ele><time>2026-04-27T12:37:18.373Z</time></trkpt><trkpt lat="41.6983598" lon="1.5390511"><ele>597.0</ele><time>2026-04-27T12:37:19.369Z</time></trkpt><trkpt lat="41.6985107" lon="1.5391078"><ele>597.0</ele><time>2026-04-27T12:37:20.365Z</time></trkpt><trkpt lat="41.6986697" lon="1.5391706"><ele>597.0</ele><time>2026-04-27T12:37:21.374Z</time></trkpt><trkpt lat="41.6988173" lon="1.5392311"><ele>597.0</ele><time>2026-04-27T12:37:22.378Z</time></trkpt><trkpt lat="41.698958" lon="1.5392989"><ele>597.0</ele><time>2026-04-27T12:37:23.377Z</time></trkpt><trkpt lat="41.6991115" lon="1.5393609"><ele>597.0</ele><time>2026-04-27T12:37:24.369Z</time></trkpt><trkpt lat="41.6992596" lon="1.5394148"><ele>597.0</ele><time>2026-04-27T12:37:25.378Z</time></trkpt><trkpt lat="41.6994055" lon="1.5394697"><ele>597.0</ele><time>2026-04-27T12:37:26.368Z</time></trkpt><trkpt lat="41.6995516" lon="1.5395291"><ele>597.0</ele><time>2026-04-27T12:37:27.378Z</time></trkpt><trkpt lat="41.699707" lon="1.5395896"><ele>597.6666666666666</ele><time>2026-04-27T12:37:28.374Z</time></trkpt><trkpt lat="41.699851" lon="1.539652"><ele>598.3333333333333</ele><time>2026-04-27T12:37:29.375Z</time></trkpt><trkpt lat="41.7000068" lon="1.5397172"><ele>599.0</ele><time>2026-04-27T12:37:30.366Z</time></trkpt><trkpt lat="41.700164" lon="1.5398007"><ele>599.6666666666666</ele><time>2026-04-27T12:37:31.379Z</time></trkpt><trkpt lat="41.7003216" lon="1.5398552"><ele>600.3333333333334</ele><time>2026-04-27T12:37:32.383Z</time></trkpt><trkpt lat="41.7004734" lon="1.5399261"><ele>601.0</ele><time>2026-04-27T12:37:33.381Z</time></trkpt><trkpt lat="41.7006213" lon="1.539985"><ele>601.0</ele><time>2026-04-27T12:37:34.381Z</time></trkpt><trkpt lat="41.700767" lon="1.5400565"><ele>601.0</ele><time>2026-04-27T12:37:35.382Z</time></trkpt><trkpt lat="41.7009194" lon="1.540119"><ele>601.0</ele><time>2026-04-27T12:37:36.378Z</time></trkpt><trkpt lat="41.7010668" lon="1.5401786"><ele>600.75</ele><time>2026-04-27T12:37:37.382Z</time></trkpt><trkpt lat="41.701215" lon="1.54023"><ele>600.5</ele><time>2026-04-27T12:37:38.381Z</time></trkpt><trkpt lat="41.7013537" lon="1.540289"><ele>600.25</ele><time>2026-04-27T12:37:39.381Z</time></trkpt><trkpt lat="41.7014859" lon="1.5403244"><ele>600.0</ele><time>2026-04-27T12:37:40.388Z</time></trkpt><trkpt lat="41.7016162" lon="1.5403555"><ele>600.0</ele><time>2026-04-27T12:37:41.382Z</time></trkpt><trkpt lat="41.7017337" lon="1.5403676"><ele>600.0</ele><time>2026-04-27T12:37:42.376Z</time></trkpt><trkpt lat="41.7018443" lon="1.5403698"><ele>600.0</ele><time>2026-04-27T12:37:43.373Z</time></trkpt><trkpt lat="41.7019387" lon="1.5403601"><ele>600.0</ele><time>2026-04-27T12:37:44.378Z</time></trkpt><trkpt lat="41.7020258" lon="1.5403463"><ele>600.0</ele><time>2026-04-27T12:37:45.374Z</time></trkpt><trkpt lat="41.7021156" lon="1.5403321"><ele>600.1666666666666</ele><time>2026-04-27T12:37:46.37Z</time></trkpt><trkpt lat="41.7021945" lon="1.5403085"><ele>600.3333333333334</ele><time>2026-04-27T12:37:47.378Z</time></trkpt><trkpt lat="41.702275" lon="1.5402889"><ele>600.5</ele><time>2026-04-27T12:37:48.372Z</time></trkpt><trkpt lat="41.7023623" lon="1.5402797"><ele>600.6666666666667</ele><time>2026-04-27T12:37:49.384Z</time></trkpt><trkpt lat="41.7024414" lon="1.5402941"><ele>600.8333333333334</ele><time>2026-04-27T12:37:50.377Z</time></trkpt><trkpt lat="41.70251" lon="1.5403361"><ele>601.0</ele><time>2026-04-27T12:37:51.374Z</time></trkpt><trkpt lat="41.7026144" lon="1.5404117"><ele>601.2</ele><time>2026-04-27T12:37:53.376Z</time></trkpt><trkpt lat="41.7027359" lon="1.5404123"><ele>601.4000000000001</ele><time>2026-04-27T12:37:55.375Z</time></trkpt><trkpt lat="41.7028376" lon="1.540343"><ele>601.6</ele><time>2026-04-27T12:37:57.378Z</time></trkpt><trkpt lat="41.70288" lon="1.5402656"><ele>601.8000000000001</ele><time>2026-04-27T12:37:59.385Z</time></trkpt><trkpt lat="41.7029327" lon="1.5401887"><ele>602.0</ele><time>2026-04-27T12:38:02.373Z</time></trkpt><trkpt lat="41.7030108" lon="1.5401202"><ele>602.5</ele><time>2026-04-27T12:39:46.382Z</time></trkpt><trkpt lat="41.7030918" lon="1.5400934"><ele>603.0</ele><time>2026-04-27T12:39:48.378Z</time></trkpt><trkpt lat="41.703166" lon="1.5400851"><ele>603.5</ele><time>2026-04-27T12:39:50.379Z</time></trkpt><trkpt lat="41.7032413" lon="1.5400647"><ele>604.0</ele><time>2026-04-27T12:39:53.38Z</time></trkpt><trkpt lat="41.703992" lon="1.5398147"><ele>607.0</ele><time>2026-04-27T13:01:31.422Z</time></trkpt><trkpt lat="41.705531" lon="1.5380021"><ele>607.0</ele><time>2026-04-27T13:01:51.417Z</time></trkpt><trkpt lat="41.705531" lon="1.5380021"><ele>607.0</ele><time>2026-04-27T13:01:51.417Z</time></trkpt><trkpt lat="41.7097082" lon="1.5332374"><ele>627.0</ele><time>2026-04-27T13:02:33.407Z</time></trkpt><trkpt lat="41.7122473" lon="1.5315743"><ele>633.0</ele><time>2026-04-27T13:02:54.417Z</time></trkpt><trkpt lat="41.7143177" lon="1.5291476"><ele>633.0</ele><time>2026-04-27T13:03:12.414Z</time></trkpt><trkpt lat="41.716182" lon="1.5263782"><ele>638.0</ele><time>2026-04-27T13:03:30.41Z</time></trkpt><trkpt lat="41.7184518" lon="1.5241725"><ele>640.0</ele><time>2026-04-27T13:03:48.425Z</time></trkpt><trkpt lat="41.7208307" lon="1.5221387"><ele>649.0</ele><time>2026-04-27T13:04:06.421Z</time></trkpt><trkpt lat="41.7235058" lon="1.5191491"><ele>655.0</ele><time>2026-04-27T13:04:28.423Z</time></trkpt><trkpt lat="41.7245887" lon="1.515812"><ele>669.0</ele><time>2026-04-27T13:04:47.412Z</time></trkpt><trkpt lat="41.7244508" lon="1.512028"><ele>673.0</ele><time>2026-04-27T13:05:07.4Z</time></trkpt><trkpt lat="41.7252763" lon="1.5084658"><ele>694.0</ele><time>2026-04-27T13:05:26.397Z</time></trkpt><trkpt lat="41.7273531" lon="1.5059711"><ele>698.0</ele><time>2026-04-27T13:05:44.383Z</time></trkpt><trkpt lat="41.7298686" lon="1.5042434"><ele>703.0</ele><time>2026-04-27T13:06:02.392Z</time></trkpt><trkpt lat="41.7332383" lon="1.5036643"><ele>675.0</ele><time>2026-04-27T13:06:23.388Z</time></trkpt><trkpt lat="41.7357885" lon="1.5022055"><ele>666.0</ele><time>2026-04-27T13:06:53.4Z</time></trkpt><trkpt lat="41.73755" lon="1.500642"><ele>657.0</ele><time>2026-04-27T13:07:14.389Z</time></trkpt><trkpt lat="41.738657" lon="1.497321"><ele>645.0</ele><time>2026-04-27T13:07:33.39Z</time></trkpt><trkpt lat="41.7384522" lon="1.4936063"><ele>644.0</ele><time>2026-04-27T13:07:52.386Z</time></trkpt><trkpt lat="41.7373974" lon="1.4901351"><ele>630.0</ele><time>2026-04-27T13:08:11.382Z</time></trkpt><trkpt lat="41.7372589" lon="1.4864594"><ele>607.0</ele><time>2026-04-27T13:08:29.385Z</time></trkpt><trkpt lat="41.7380689" lon="1.4818598"><ele>577.0</ele><time>2026-04-27T13:08:51.374Z</time></trkpt><trkpt lat="41.7412937" lon="1.4800951"><ele>573.0</ele><time>2026-04-27T13:09:14.367Z</time></trkpt><trkpt lat="41.7447167" lon="1.4802291"><ele>580.0</ele><time>2026-04-27T13:09:35.382Z</time></trkpt><trkpt lat="41.7471168" lon="1.4767806"><ele>570.0</ele><time>2026-04-27T13:09:57.387Z</time></trkpt><trkpt lat="41.7502443" lon="1.4746009"><ele>555.0</ele><time>2026-04-27T13:10:20.369Z</time></trkpt><trkpt lat="41.7526819" lon="1.4727887"><ele>541.0</ele><time>2026-04-27T13:10:38.375Z</time></trkpt><trkpt lat="41.7555913" lon="1.4701356"><ele>545.0</ele><time>2026-04-27T13:11:02.377Z</time></trkpt><trkpt lat="41.7571373" lon="1.4670852"><ele>540.0</ele><time>2026-04-27T13:11:24.375Z</time></trkpt><trkpt lat="41.7593237" lon="1.4647332"><ele>540.0</ele><time>2026-04-27T13:11:45.38Z</time></trkpt><trkpt lat="41.7614468" lon="1.462496"><ele>532.0</ele><time>2026-04-27T13:12:04.378Z</time></trkpt><trkpt lat="41.7639143" lon="1.4606581"><ele>527.0</ele><time>2026-04-27T13:12:25.373Z</time></trkpt><trkpt lat="41.7666146" lon="1.4596375"><ele>508.0</ele><time>2026-04-27T13:12:45.384Z</time></trkpt><trkpt lat="41.7692113" lon="1.4586061"><ele>513.0</ele><time>2026-04-27T13:13:03.382Z</time></trkpt><trkpt lat="41.7715309" lon="1.4564014"><ele>502.0</ele><time>2026-04-27T13:13:22.39Z</time></trkpt><trkpt lat="41.7737701" lon="1.4541369"><ele>493.0</ele><time>2026-04-27T13:13:40.376Z</time></trkpt><trkpt lat="41.7750747" lon="1.4499472"><ele>479.0</ele><time>2026-04-27T13:14:02.37Z</time></trkpt><trkpt lat="41.7761308" lon="1.4465742"><ele>476.0</ele><time>2026-04-27T13:14:20.384Z</time></trkpt><trkpt lat="41.7776665" lon="1.4424819"><ele>474.0</ele><time>2026-04-27T13:14:43.379Z</time></trkpt><trkpt lat="41.7780828" lon="1.4389093"><ele>480.0</ele><time>2026-04-27T13:15:42.372Z</time></trkpt><trkpt lat="41.779454" lon="1.4357434"><ele>468.0</ele><time>2026-04-27T13:15:59.389Z</time></trkpt><trkpt lat="41.7818299" lon="1.432342"><ele>468.0</ele><time>2026-04-27T13:16:17.381Z</time></trkpt><trkpt lat="41.7843731" lon="1.4292512"><ele>457.0</ele><time>2026-04-27T13:16:34.37Z</time></trkpt><trkpt lat="41.7877573" lon="1.4261242"><ele>454.0</ele><time>2026-04-27T13:16:54.386Z</time></trkpt><trkpt lat="41.7908563" lon="1.4237368"><ele>456.0</ele><time>2026-04-27T13:17:12.376Z</time></trkpt><trkpt lat="41.7943811" lon="1.4209831"><ele>455.0</ele><time>2026-04-27T13:17:33.383Z</time></trkpt><trkpt lat="41.7970519" lon="1.4179843"><ele>453.0</ele><time>2026-04-27T13:17:55.382Z</time></trkpt><trkpt lat="41.7989249" lon="1.4150963"><ele>453.0</ele><time>2026-04-27T13:18:14.38Z</time></trkpt><trkpt lat="41.8012425" lon="1.4116829"><ele>460.0</ele><time>2026-04-27T13:18:36.384Z</time></trkpt><trkpt lat="41.8028134" lon="1.4085743"><ele>455.0</ele><time>2026-04-27T13:18:55.37Z</time></trkpt><trkpt lat="41.8044112" lon="1.4056039"><ele>441.0</ele><time>2026-04-27T13:19:14.378Z</time></trkpt><trkpt lat="41.8068253" lon="1.4038888"><ele>442.0</ele><time>2026-04-27T13:19:33.393Z</time></trkpt><trkpt lat="41.8095032" lon="1.4030934"><ele>435.0</ele><time>2026-04-27T13:19:53.373Z</time></trkpt><trkpt lat="41.8119235" lon="1.4011888"><ele>443.0</ele><time>2026-04-27T13:20:17.374Z</time></trkpt><trkpt lat="41.8139648" lon="1.3986887"><ele>441.0</ele><time>2026-04-27T13:20:38.377Z</time></trkpt><trkpt lat="41.8153889" lon="1.3955967"><ele>451.0</ele><time>2026-04-27T13:20:56.375Z</time></trkpt><trkpt lat="41.8168947" lon="1.3924916"><ele>439.0</ele><time>2026-04-27T13:21:14.381Z</time></trkpt><trkpt lat="41.8176148" lon="1.3898579"><ele>439.0</ele><time>2026-04-27T13:21:28.374Z</time></trkpt><trkpt lat="41.8185007" lon="1.3863015"><ele>453.0</ele><time>2026-04-27T13:21:46.383Z</time></trkpt><trkpt lat="41.8194295" lon="1.3827271"><ele>448.0</ele><time>2026-04-27T13:22:04.377Z</time></trkpt><trkpt lat="41.8206586" lon="1.3792781"><ele>444.0</ele><time>2026-04-27T13:22:22.38Z</time></trkpt><trkpt lat="41.8225112" lon="1.3752462"><ele>448.0</ele><time>2026-04-27T13:22:45.385Z</time></trkpt><trkpt lat="41.8242898" lon="1.371331"><ele>451.0</ele><time>2026-04-27T13:23:08.379Z</time></trkpt><trkpt lat="41.8263867" lon="1.3675564"><ele>438.0</ele><time>2026-04-27T13:23:32.373Z</time></trkpt><trkpt lat="41.8289917" lon="1.3645907"><ele>436.0</ele><time>2026-04-27T13:23:56.373Z</time></trkpt><trkpt lat="41.8311215" lon="1.362314"><ele>434.0</ele><time>2026-04-27T13:24:14.371Z</time></trkpt><trkpt lat="41.8332499" lon="1.360027"><ele>436.0</ele><time>2026-04-27T13:24:33.372Z</time></trkpt><trkpt lat="41.8359072" lon="1.3586927"><ele>436.0</ele><time>2026-04-27T13:24:54.368Z</time></trkpt><trkpt lat="41.8386122" lon="1.3579383"><ele>438.0</ele><time>2026-04-27T13:25:16.375Z</time></trkpt><trkpt lat="41.8400176" lon="1.3548271"><ele>444.0</ele><time>2026-04-27T13:25:42.373Z</time></trkpt><trkpt lat="41.8408881" lon="1.352363"><ele>455.0</ele><time>2026-04-27T13:26:01.368Z</time></trkpt><trkpt lat="41.8420835" lon="1.3489736"><ele>468.0</ele><time>2026-04-27T13:26:20.369Z</time></trkpt><trkpt lat="41.8435396" lon="1.3456866"><ele>462.0</ele><time>2026-04-27T13:26:39.378Z</time></trkpt><trkpt lat="41.8454432" lon="1.3429724"><ele>464.0</ele><time>2026-04-27T13:26:59.381Z</time></trkpt><trkpt lat="41.8472602" lon="1.3401013"><ele>468.0</ele><time>2026-04-27T13:27:22.385Z</time></trkpt><trkpt lat="41.8490344" lon="1.3373737"><ele>456.0</ele><time>2026-04-27T13:27:39.378Z</time></trkpt><trkpt lat="41.8510018" lon="1.3336249"><ele>452.0</ele><time>2026-04-27T13:28:03.376Z</time></trkpt><trkpt lat="41.8515828" lon="1.3319892"><ele>447.0</ele><time>2026-04-27T13:29:50.359Z</time></trkpt><trkpt lat="41.8525479" lon="1.3294784"><ele>437.0</ele><time>2026-04-27T13:31:07.374Z</time></trkpt><trkpt lat="41.8538448" lon="1.3262699"><ele>423.0</ele><time>2026-04-27T13:31:25.373Z</time></trkpt><trkpt lat="41.8564094" lon="1.3232346"><ele>416.0</ele><time>2026-04-27T13:31:46.376Z</time></trkpt><trkpt lat="41.8593127" lon="1.320631"><ele>424.0</ele><time>2026-04-27T13:32:07.369Z</time></trkpt><trkpt lat="41.8626357" lon="1.3173867"><ele>420.0</ele><time>2026-04-27T13:32:33.373Z</time></trkpt><trkpt lat="41.8649025" lon="1.3152557"><ele>417.0</ele><time>2026-04-27T13:32:54.361Z</time></trkpt><trkpt lat="41.8672235" lon="1.3130522"><ele>408.0</ele><time>2026-04-27T13:33:12.37Z</time></trkpt><trkpt lat="41.8695173" lon="1.3108811"><ele>403.0</ele><time>2026-04-27T13:33:31.374Z</time></trkpt><trkpt lat="41.871129" lon="1.3078844"><ele>401.0</ele><time>2026-04-27T13:33:51.374Z</time></trkpt><trkpt lat="41.8714488" lon="1.3042253"><ele>399.0</ele><time>2026-04-27T13:34:12.372Z</time></trkpt><trkpt lat="41.8719472" lon="1.3005415"><ele>405.0</ele><time>2026-04-27T13:34:33.368Z</time></trkpt><trkpt lat="41.8724977" lon="1.2969952"><ele>405.0</ele><time>2026-04-27T13:34:52.365Z</time></trkpt><trkpt lat="41.8726918" lon="1.293196"><ele>399.0</ele><time>2026-04-27T13:35:09.382Z</time></trkpt><trkpt lat="41.8731866" lon="1.2886785"><ele>404.0</ele><time>2026-04-27T13:35:30.367Z</time></trkpt><trkpt lat="41.8737307" lon="1.2839935"><ele>399.0</ele><time>2026-04-27T13:35:52.373Z</time></trkpt><trkpt lat="41.8741757" lon="1.2802097"><ele>398.0</ele><time>2026-04-27T13:36:10.372Z</time></trkpt><trkpt lat="41.8753452" lon="1.2758551"><ele>397.0</ele><time>2026-04-27T13:36:32.37Z</time></trkpt><trkpt lat="41.8767865" lon="1.2717677"><ele>391.0</ele><time>2026-04-27T13:36:54.38Z</time></trkpt><trkpt lat="41.8791943" lon="1.2683627"><ele>395.0</ele><time>2026-04-27T13:37:16.376Z</time></trkpt><trkpt lat="41.8809817" lon="1.2642864"><ele>393.0</ele><time>2026-04-27T13:37:38.376Z</time></trkpt><trkpt lat="41.8832147" lon="1.2606422"><ele>385.0</ele><time>2026-04-27T13:38:01.382Z</time></trkpt><trkpt lat="41.8851343" lon="1.2578887"><ele>385.0</ele><time>2026-04-27T13:38:24.371Z</time></trkpt><trkpt lat="41.8863367" lon="1.2555976"><ele>382.0</ele><time>2026-04-27T13:38:41.365Z</time></trkpt><trkpt lat="41.8881259" lon="1.2527815"><ele>381.0</ele><time>2026-04-27T13:39:03.373Z</time></trkpt><trkpt lat="41.8897963" lon="1.2498129"><ele>385.0</ele><time>2026-04-27T13:39:22.381Z</time></trkpt><trkpt lat="41.8900494" lon="1.2459896"><ele>398.0</ele><time>2026-04-27T13:39:41.364Z</time></trkpt><trkpt lat="41.8897546" lon="1.2423858"><ele>401.0</ele><time>2026-04-27T13:39:58.36Z</time></trkpt><trkpt lat="41.8893974" lon="1.237868"><ele>371.0</ele><time>2026-04-27T13:40:19.369Z</time></trkpt><trkpt lat="41.8899111" lon="1.233358"><ele>397.0</ele><time>2026-04-27T13:40:40.372Z</time></trkpt><trkpt lat="41.8901323" lon="1.2296257"><ele>379.0</ele><time>2026-04-27T13:40:58.377Z</time></trkpt><trkpt lat="41.8890404" lon="1.2243842"><ele>383.0</ele><time>2026-04-27T13:41:28.376Z</time></trkpt><trkpt lat="41.8885187" lon="1.2226684"><ele>374.0</ele><time>2026-04-27T13:46:12.368Z</time></trkpt><trkpt lat="41.8874767" lon="1.2191288"><ele>379.0</ele><time>2026-04-27T13:46:34.373Z</time></trkpt><trkpt lat="41.8864842" lon="1.2156782"><ele>370.0</ele><time>2026-04-27T13:46:52.369Z</time></trkpt><trkpt lat="41.8867573" lon="1.211137"><ele>375.0</ele><time>2026-04-27T13:47:14.374Z</time></trkpt><trkpt lat="41.8896835" lon="1.2085526"><ele>376.0</ele><time>2026-04-27T13:47:36.364Z</time></trkpt><trkpt lat="41.8929026" lon="1.2066979"><ele>372.0</ele><time>2026-04-27T13:47:58.368Z</time></trkpt><trkpt lat="41.8959122" lon="1.204283"><ele>392.0</ele><time>2026-04-27T13:48:20.362Z</time></trkpt><trkpt lat="41.8986211" lon="1.2038501"><ele>405.0</ele><time>2026-04-27T13:48:38.349Z</time></trkpt><trkpt lat="41.9014874" lon="1.2014012"><ele>404.0</ele><time>2026-04-27T13:49:02.352Z</time></trkpt><trkpt lat="41.9033365" lon="1.1987124"><ele>392.0</ele><time>2026-04-27T13:49:20.359Z</time></trkpt><trkpt lat="41.9053831" lon="1.1962912"><ele>388.0</ele><time>2026-04-27T13:49:39.368Z</time></trkpt><trkpt lat="41.9076373" lon="1.1940231"><ele>379.0</ele><time>2026-04-27T13:49:59.372Z</time></trkpt><trkpt lat="41.909701" lon="1.1916283"><ele>371.0</ele><time>2026-04-27T13:50:19.372Z</time></trkpt><trkpt lat="41.9117925" lon="1.1892414"><ele>367.0</ele><time>2026-04-27T13:50:41.351Z</time></trkpt><trkpt lat="41.9138941" lon="1.1869395"><ele>368.0</ele><time>2026-04-27T13:51:05.339Z</time></trkpt><trkpt lat="41.9165403" lon="1.1859891"><ele>364.0</ele><time>2026-04-27T13:52:42.346Z</time></trkpt><trkpt lat="41.9181576" lon="1.1877407"><ele>358.0</ele><time>2026-04-27T13:53:00.349Z</time></trkpt><trkpt lat="41.9193973" lon="1.1900172"><ele>358.0</ele><time>2026-04-27T13:53:17.357Z</time></trkpt></trkseg><trkseg><trkpt lat="41.9230341" lon="1.1931212"><ele>359.0</ele><time>2026-04-27T14:42:26.32Z</time></trkpt><trkpt lat="41.9241315" lon="1.1955739"><ele>358.0</ele><time>2026-04-27T14:42:42.329Z</time></trkpt><trkpt lat="41.9261425" lon="1.1980696"><ele>368.0</ele><time>2026-04-27T14:43:05.322Z</time></trkpt><trkpt lat="41.9289014" lon="1.1985124"><ele>381.0</ele><time>2026-04-27T14:43:48.317Z</time></trkpt><trkpt lat="41.9310053" lon="1.1987562"><ele>413.0</ele><time>2026-04-27T14:44:07.323Z</time></trkpt><trkpt lat="41.9328632" lon="1.1960662"><ele>436.0</ele><time>2026-04-27T14:44:39.317Z</time></trkpt><trkpt lat="41.9318745" lon="1.1926954"><ele>435.0</ele><time>2026-04-27T14:45:00.3Z</time></trkpt><trkpt lat="41.9339605" lon="1.1902804"><ele>458.0</ele><time>2026-04-27T14:45:36.318Z</time></trkpt><trkpt lat="41.9360232" lon="1.1927348"><ele>479.0</ele><time>2026-04-27T14:45:58.318Z</time></trkpt><trkpt lat="41.9379017" lon="1.1900423"><ele>500.0</ele><time>2026-04-27T14:46:21.304Z</time></trkpt><trkpt lat="41.9364318" lon="1.186939"><ele>535.0</ele><time>2026-04-27T14:46:44.314Z</time></trkpt><trkpt lat="41.9344409" lon="1.1843775"><ele>541.0</ele><time>2026-04-27T14:47:06.3Z</time></trkpt><trkpt lat="41.9322332" lon="1.1822513"><ele>546.0</ele><time>2026-04-27T14:47:29.319Z</time></trkpt><trkpt lat="41.9319067" lon="1.1795272"><ele>565.0</ele><time>2026-04-27T14:47:49.321Z</time></trkpt><trkpt lat="41.9331348" lon="1.1817982"><ele>590.0</ele><time>2026-04-27T14:48:37.309Z</time></trkpt><trkpt lat="41.9350334" lon="1.1830795"><ele>605.0</ele><time>2026-04-27T14:48:56.302Z</time></trkpt><trkpt lat="41.9369127" lon="1.1844306"><ele>600.0</ele><time>2026-04-27T14:49:15.3Z</time></trkpt><trkpt lat="41.9388923" lon="1.1837747"><ele>604.0</ele><time>2026-04-27T14:49:36.304Z</time></trkpt><trkpt lat="41.9408979" lon="1.1828396"><ele>607.0</ele><time>2026-04-27T14:49:54.315Z</time></trkpt><trkpt lat="41.9419591" lon="1.1804133"><ele>613.0</ele><time>2026-04-27T14:54:09.32Z</time></trkpt><trkpt lat="41.9436203" lon="1.1774483"><ele>620.0</ele><time>2026-04-27T14:54:37.322Z</time></trkpt><trkpt lat="41.945432" lon="1.1760146"><ele>622.0</ele><time>2026-04-27T14:54:54.322Z</time></trkpt><trkpt lat="41.9481375" lon="1.1754206"><ele>633.0</ele><time>2026-04-27T14:55:11.318Z</time></trkpt><trkpt lat="41.9508438" lon="1.1746503"><ele>638.0</ele><time>2026-04-27T14:55:35.314Z</time></trkpt><trkpt lat="41.9529174" lon="1.1753264"><ele>635.0</ele><time>2026-04-27T14:55:51.318Z</time></trkpt><trkpt lat="41.955603" lon="1.1746513"><ele>628.0</ele><time>2026-04-27T14:56:12.32Z</time></trkpt><trkpt lat="41.9581757" lon="1.1759161"><ele>639.0</ele><time>2026-04-27T14:56:32.32Z</time></trkpt><trkpt lat="41.960531" lon="1.1779162"><ele>633.0</ele><time>2026-04-27T14:56:53.324Z</time></trkpt><trkpt lat="41.9630624" lon="1.1794208"><ele>625.0</ele><time>2026-04-27T14:57:16.319Z</time></trkpt><trkpt lat="41.9658024" lon="1.1789254"><ele>640.0</ele><time>2026-04-27T14:57:38.331Z</time></trkpt><trkpt lat="41.9685328" lon="1.1784118"><ele>628.0</ele><time>2026-04-27T14:57:59.335Z</time></trkpt><trkpt lat="41.9712754" lon="1.1781622"><ele>624.0</ele><time>2026-04-27T14:58:19.341Z</time></trkpt><trkpt lat="41.9739639" lon="1.1772893"><ele>609.0</ele><time>2026-04-27T14:58:35.337Z</time></trkpt><trkpt lat="41.9772499" lon="1.1786717"><ele>583.0</ele><time>2026-04-27T14:58:58.34Z</time></trkpt><trkpt lat="41.9800822" lon="1.1782151"><ele>582.0</ele><time>2026-04-27T14:59:19.333Z</time></trkpt><trkpt lat="41.9831768" lon="1.1802288"><ele>589.0</ele><time>2026-04-27T14:59:43.335Z</time></trkpt><trkpt lat="41.9858393" lon="1.1810095"><ele>610.0</ele><time>2026-04-27T15:00:07.317Z</time></trkpt><trkpt lat="41.9886303" lon="1.1810241"><ele>619.0</ele><time>2026-04-27T15:00:27.336Z</time></trkpt><trkpt lat="41.9913632" lon="1.180223"><ele>595.0</ele><time>2026-04-27T15:00:49.337Z</time></trkpt><trkpt lat="41.994123" lon="1.1806437"><ele>605.0</ele><time>2026-04-27T15:01:09.344Z</time></trkpt><trkpt lat="41.9962237" lon="1.1830038"><ele>629.0</ele><time>2026-04-27T15:01:29.321Z</time></trkpt><trkpt lat="41.9989361" lon="1.1819954"><ele>630.0</ele><time>2026-04-27T15:01:51.334Z</time></trkpt><trkpt lat="42.0012154" lon="1.1800292"><ele>665.0</ele><time>2026-04-27T15:02:13.324Z</time></trkpt><trkpt lat="42.004014" lon="1.1799108"><ele>650.0</ele><time>2026-04-27T15:02:36.341Z</time></trkpt><trkpt lat="42.0067553" lon="1.1798437"><ele>673.0</ele><time>2026-04-27T15:03:00.328Z</time></trkpt><trkpt lat="42.0089086" lon="1.177526"><ele>682.0</ele><time>2026-04-27T15:03:27.331Z</time></trkpt><trkpt lat="42.0108433" lon="1.1765151"><ele>699.0</ele><time>2026-04-27T15:03:46.332Z</time></trkpt><trkpt lat="42.0135214" lon="1.1756996"><ele>692.0</ele><time>2026-04-27T15:04:08.333Z</time></trkpt><trkpt lat="42.0147787" lon="1.1723922"><ele>680.0</ele><time>2026-04-27T15:04:29.334Z</time></trkpt><trkpt lat="42.0153201" lon="1.1678884"><ele>637.0</ele><time>2026-04-27T15:04:54.329Z</time></trkpt><trkpt lat="42.0174414" lon="1.1655153"><ele>641.0</ele><time>2026-04-27T15:05:14.321Z</time></trkpt><trkpt lat="42.0175202" lon="1.1618602"><ele>628.0</ele><time>2026-04-27T15:05:33.33Z</time></trkpt><trkpt lat="42.0189439" lon="1.1587815"><ele>608.0</ele><time>2026-04-27T15:05:55.31Z</time></trkpt><trkpt lat="42.0162156" lon="1.157979"><ele>603.0</ele><time>2026-04-27T15:06:13.313Z</time></trkpt><trkpt lat="42.013239" lon="1.1556162"><ele>609.0</ele><time>2026-04-27T15:06:36.31Z</time></trkpt><trkpt lat="42.0127638" lon="1.1519937"><ele>621.0</ele><time>2026-04-27T15:07:06.311Z</time></trkpt><trkpt lat="42.010363" lon="1.1502442"><ele>616.0</ele><time>2026-04-27T15:07:32.307Z</time></trkpt><trkpt lat="42.0088972" lon="1.1471486"><ele>622.0</ele><time>2026-04-27T15:07:52.314Z</time></trkpt><trkpt lat="42.0076827" lon="1.1428458"><ele>621.0</ele><time>2026-04-27T15:08:16.334Z</time></trkpt><trkpt lat="42.0071697" lon="1.1392851"><ele>611.0</ele><time>2026-04-27T15:08:36.31Z</time></trkpt><trkpt lat="42.009131" lon="1.1365856"><ele>648.0</ele><time>2026-04-27T15:08:54.319Z</time></trkpt><trkpt lat="42.0111764" lon="1.1329391"><ele>663.0</ele><time>2026-04-27T15:09:13.302Z</time></trkpt><trkpt lat="42.0131911" lon="1.1291891"><ele>665.0</ele><time>2026-04-27T15:09:52.306Z</time></trkpt><trkpt lat="42.0131598" lon="1.12638"><ele>682.0</ele><time>2026-04-27T15:10:12.313Z</time></trkpt><trkpt lat="42.0136063" lon="1.1227677"><ele>702.0</ele><time>2026-04-27T15:10:33.308Z</time></trkpt><trkpt lat="42.0141763" lon="1.1191455"><ele>718.0</ele><time>2026-04-27T15:11:05.322Z</time></trkpt><trkpt lat="42.014353" lon="1.116362"><ele>737.0</ele><time>2026-04-27T15:11:27.313Z</time></trkpt><trkpt lat="42.0158028" lon="1.1143378"><ele>763.0</ele><time>2026-04-27T15:12:05.304Z</time></trkpt><trkpt lat="42.0184886" lon="1.1147968"><ele>776.0</ele><time>2026-04-27T15:12:28.314Z</time></trkpt><trkpt lat="42.0212852" lon="1.1151373"><ele>802.0</ele><time>2026-04-27T15:12:55.324Z</time></trkpt><trkpt lat="42.0220648" lon="1.1125879"><ele>807.0</ele><time>2026-04-27T15:13:16.315Z</time></trkpt><trkpt lat="42.0202078" lon="1.1113305"><ele>836.0</ele><time>2026-04-27T15:13:34.31Z</time></trkpt><trkpt lat="42.0228919" lon="1.1106564"><ele>864.0</ele><time>2026-04-27T15:14:02.309Z</time></trkpt><trkpt lat="42.0256507" lon="1.1100893"><ele>890.0</ele><time>2026-04-27T15:14:25.3Z</time></trkpt><trkpt lat="42.0283554" lon="1.1092653"><ele>895.0</ele><time>2026-04-27T15:14:48.302Z</time></trkpt><trkpt lat="42.0289167" lon="1.1128105"><ele>923.0</ele><time>2026-04-27T15:15:25.299Z</time></trkpt><trkpt lat="42.0301188" lon="1.1104323"><ele>955.0</ele><time>2026-04-27T15:17:10.291Z</time></trkpt><trkpt lat="42.0314869" lon="1.1072851"><ele>986.0</ele><time>2026-04-27T15:17:32.292Z</time></trkpt><trkpt lat="42.0334737" lon="1.1048111"><ele>1008.0</ele><time>2026-04-27T15:18:17.29Z</time></trkpt><trkpt lat="42.0369327" lon="1.1053072"><ele>1021.0</ele><time>2026-04-27T15:18:40.295Z</time></trkpt><trkpt lat="42.0402918" lon="1.1047807"><ele>1029.0</ele><time>2026-04-27T15:19:07.304Z</time></trkpt><trkpt lat="42.0423162" lon="1.1022812"><ele>1051.0</ele><time>2026-04-27T15:19:29.278Z</time></trkpt><trkpt lat="42.0447714" lon="1.1006944"><ele>1079.0</ele><time>2026-04-27T15:19:51.299Z</time></trkpt><trkpt lat="42.0470468" lon="1.0985766"><ele>1079.0</ele><time>2026-04-27T15:20:14.302Z</time></trkpt><trkpt lat="42.0484175" lon="1.0953251"><ele>1090.0</ele><time>2026-04-27T15:20:43.303Z</time></trkpt><trkpt lat="42.0511501" lon="1.0951864"><ele>1091.0</ele><time>2026-04-27T15:21:03.29Z</time></trkpt><trkpt lat="42.0528394" lon="1.0921933"><ele>1099.0</ele><time>2026-04-27T15:21:22.293Z</time></trkpt><trkpt lat="42.0558501" lon="1.0899749"><ele>1078.0</ele><time>2026-04-27T15:21:49.305Z</time></trkpt><trkpt lat="42.0577185" lon="1.0910587"><ele>1049.0</ele><time>2026-04-27T15:22:06.309Z</time></trkpt><trkpt lat="42.0602999" lon="1.0923196"><ele>1043.0</ele><time>2026-04-27T15:22:28.307Z</time></trkpt><trkpt lat="42.0629068" lon="1.0937655"><ele>1034.0</ele><time>2026-04-27T15:22:52.31Z</time></trkpt><trkpt lat="42.0652164" lon="1.0958512"><ele>1001.0</ele><time>2026-04-27T15:23:15.308Z</time></trkpt><trkpt lat="42.067938" lon="1.0963288"><ele>997.0</ele><time>2026-04-27T15:23:42.306Z</time></trkpt><trkpt lat="42.0706118" lon="1.0955235"><ele>992.0</ele><time>2026-04-27T15:24:07.313Z</time></trkpt><trkpt lat="42.0726804" lon="1.0960196"><ele>992.0</ele><time>2026-04-27T15:24:29.312Z</time></trkpt></trkseg></trk></gpx>